<?xml version="1.0" encoding="UTF-8" standalone="no" ?>
<gpx xmlns="http://www.topografix.com/GPX/1/1" xmlns:xsi="http://www.w3.org/2001/XMLSchema-instance" xsi:schemaLocation="http://www.topografix.com/GPX/1/1 http://www.topografix.com/GPX/1/1/gpx.xsd" version="1.1" creator="VisuGPX - https://www.visugpx.com">
  <metadata>
    <name>CAZILHAC le 16.06.2019 - ACFC</name>
    <desc><![CDATA[Sortie sympathique sur les communes de CAZILHAC et PALAJA]]></desc>
  </metadata>
  <trk>
    <name><![CDATA[TrailRunning]]></name>
    <trkseg>
      <trkpt lat="43.18511" lon="2.36087">
        <ele>134.6</ele>
        <time>2019-06-16T05:56:44.000Z</time>
      </trkpt>
      <trkpt lat="43.18512" lon="2.36089">
        <ele>134.7</ele>
        <time>2019-06-16T05:56:45.000Z</time>
      </trkpt>
      <trkpt lat="43.18513" lon="2.36091">
        <ele>134.8</ele>
        <time>2019-06-16T05:56:46.000Z</time>
      </trkpt>
      <trkpt lat="43.18515" lon="2.36093">
        <ele>134.9</ele>
        <time>2019-06-16T05:56:47.000Z</time>
      </trkpt>
      <trkpt lat="43.18516" lon="2.36094">
        <ele>135</ele>
        <time>2019-06-16T05:56:48.000Z</time>
      </trkpt>
      <trkpt lat="43.18518" lon="2.36096">
        <ele>135.1</ele>
        <time>2019-06-16T05:56:49.000Z</time>
      </trkpt>
      <trkpt lat="43.1852" lon="2.36097">
        <ele>135.2</ele>
        <time>2019-06-16T05:56:50.000Z</time>
      </trkpt>
      <trkpt lat="43.18522" lon="2.36098">
        <ele>135.3</ele>
        <time>2019-06-16T05:56:51.000Z</time>
      </trkpt>
      <trkpt lat="43.18524" lon="2.36099">
        <ele>135.4</ele>
        <time>2019-06-16T05:56:52.000Z</time>
      </trkpt>
      <trkpt lat="43.18526" lon="2.361">
        <ele>135.5</ele>
        <time>2019-06-16T05:56:53.000Z</time>
      </trkpt>
      <trkpt lat="43.18529" lon="2.36101">
        <ele>135.6</ele>
        <time>2019-06-16T05:56:54.000Z</time>
      </trkpt>
      <trkpt lat="43.18531" lon="2.36102">
        <ele>135.8</ele>
        <time>2019-06-16T05:56:55.000Z</time>
      </trkpt>
      <trkpt lat="43.18533" lon="2.36102">
        <ele>135.9</ele>
        <time>2019-06-16T05:56:56.000Z</time>
      </trkpt>
      <trkpt lat="43.18536" lon="2.36103">
        <ele>136</ele>
        <time>2019-06-16T05:56:57.000Z</time>
      </trkpt>
      <trkpt lat="43.18538" lon="2.36104">
        <ele>136.1</ele>
        <time>2019-06-16T05:56:58.000Z</time>
      </trkpt>
      <trkpt lat="43.1854" lon="2.36104">
        <ele>136.2</ele>
        <time>2019-06-16T05:56:59.000Z</time>
      </trkpt>
      <trkpt lat="43.18543" lon="2.36105">
        <ele>136.3</ele>
        <time>2019-06-16T05:57:00.000Z</time>
      </trkpt>
      <trkpt lat="43.18545" lon="2.36106">
        <ele>136.4</ele>
        <time>2019-06-16T05:57:01.000Z</time>
      </trkpt>
      <trkpt lat="43.18547" lon="2.36107">
        <ele>136.5</ele>
        <time>2019-06-16T05:57:02.000Z</time>
      </trkpt>
      <trkpt lat="43.18549" lon="2.36108">
        <ele>136.6</ele>
        <time>2019-06-16T05:57:03.000Z</time>
      </trkpt>
      <trkpt lat="43.18551" lon="2.3611">
        <ele>136.7</ele>
        <time>2019-06-16T05:57:04.000Z</time>
      </trkpt>
      <trkpt lat="43.18552" lon="2.36113">
        <ele>136.7</ele>
        <time>2019-06-16T05:57:05.000Z</time>
      </trkpt>
      <trkpt lat="43.18552" lon="2.36116">
        <ele>136.8</ele>
        <time>2019-06-16T05:57:06.000Z</time>
      </trkpt>
      <trkpt lat="43.18552" lon="2.36119">
        <ele>136.8</ele>
        <time>2019-06-16T05:57:07.000Z</time>
      </trkpt>
      <trkpt lat="43.18552" lon="2.36122">
        <ele>136.8</ele>
        <time>2019-06-16T05:57:08.000Z</time>
      </trkpt>
      <trkpt lat="43.18551" lon="2.36125">
        <ele>136.8</ele>
        <time>2019-06-16T05:57:09.000Z</time>
      </trkpt>
      <trkpt lat="43.1855" lon="2.36128">
        <ele>136.8</ele>
        <time>2019-06-16T05:57:10.000Z</time>
      </trkpt>
      <trkpt lat="43.1855" lon="2.36131">
        <ele>136.9</ele>
        <time>2019-06-16T05:57:11.000Z</time>
      </trkpt>
      <trkpt lat="43.18549" lon="2.36134">
        <ele>136.9</ele>
        <time>2019-06-16T05:57:12.000Z</time>
      </trkpt>
      <trkpt lat="43.18548" lon="2.36137">
        <ele>136.9</ele>
        <time>2019-06-16T05:57:13.000Z</time>
      </trkpt>
      <trkpt lat="43.18546" lon="2.3614">
        <ele>136.8</ele>
        <time>2019-06-16T05:57:14.000Z</time>
      </trkpt>
      <trkpt lat="43.18544" lon="2.36142">
        <ele>136.8</ele>
        <time>2019-06-16T05:57:15.000Z</time>
      </trkpt>
      <trkpt lat="43.18542" lon="2.36144">
        <ele>136.7</ele>
        <time>2019-06-16T05:57:16.000Z</time>
      </trkpt>
      <trkpt lat="43.18539" lon="2.36145">
        <ele>136.7</ele>
        <time>2019-06-16T05:57:17.000Z</time>
      </trkpt>
      <trkpt lat="43.18536" lon="2.36145">
        <ele>136.6</ele>
        <time>2019-06-16T05:57:18.000Z</time>
      </trkpt>
      <trkpt lat="43.18533" lon="2.36145">
        <ele>136.5</ele>
        <time>2019-06-16T05:57:19.000Z</time>
      </trkpt>
      <trkpt lat="43.1853" lon="2.36145">
        <ele>136.4</ele>
        <time>2019-06-16T05:57:20.000Z</time>
      </trkpt>
      <trkpt lat="43.18527" lon="2.36144">
        <ele>136.3</ele>
        <time>2019-06-16T05:57:21.000Z</time>
      </trkpt>
      <trkpt lat="43.18524" lon="2.36144">
        <ele>136.2</ele>
        <time>2019-06-16T05:57:22.000Z</time>
      </trkpt>
      <trkpt lat="43.18521" lon="2.36143">
        <ele>136.1</ele>
        <time>2019-06-16T05:57:23.000Z</time>
      </trkpt>
      <trkpt lat="43.18518" lon="2.36142">
        <ele>136</ele>
        <time>2019-06-16T05:57:24.000Z</time>
      </trkpt>
      <trkpt lat="43.18515" lon="2.36142">
        <ele>135.9</ele>
        <time>2019-06-16T05:57:25.000Z</time>
      </trkpt>
      <trkpt lat="43.18513" lon="2.36141">
        <ele>135.8</ele>
        <time>2019-06-16T05:57:26.000Z</time>
      </trkpt>
      <trkpt lat="43.1851" lon="2.3614">
        <ele>135.7</ele>
        <time>2019-06-16T05:57:27.000Z</time>
      </trkpt>
      <trkpt lat="43.18507" lon="2.3614">
        <ele>135.6</ele>
        <time>2019-06-16T05:57:28.000Z</time>
      </trkpt>
      <trkpt lat="43.18504" lon="2.36139">
        <ele>135.5</ele>
        <time>2019-06-16T05:57:29.000Z</time>
      </trkpt>
      <trkpt lat="43.18501" lon="2.36139">
        <ele>135.4</ele>
        <time>2019-06-16T05:57:30.000Z</time>
      </trkpt>
      <trkpt lat="43.18499" lon="2.36139">
        <ele>135.3</ele>
        <time>2019-06-16T05:57:31.000Z</time>
      </trkpt>
      <trkpt lat="43.18496" lon="2.36138">
        <ele>135.2</ele>
        <time>2019-06-16T05:57:32.000Z</time>
      </trkpt>
      <trkpt lat="43.18493" lon="2.36138">
        <ele>135.1</ele>
        <time>2019-06-16T05:57:33.000Z</time>
      </trkpt>
      <trkpt lat="43.1849" lon="2.36138">
        <ele>135.1</ele>
        <time>2019-06-16T05:57:34.000Z</time>
      </trkpt>
      <trkpt lat="43.18488" lon="2.36137">
        <ele>135</ele>
        <time>2019-06-16T05:57:35.000Z</time>
      </trkpt>
      <trkpt lat="43.18485" lon="2.36137">
        <ele>134.9</ele>
        <time>2019-06-16T05:57:36.000Z</time>
      </trkpt>
      <trkpt lat="43.18482" lon="2.36137">
        <ele>134.9</ele>
        <time>2019-06-16T05:57:37.000Z</time>
      </trkpt>
      <trkpt lat="43.18479" lon="2.36137">
        <ele>134.8</ele>
        <time>2019-06-16T05:57:38.000Z</time>
      </trkpt>
      <trkpt lat="43.18477" lon="2.36137">
        <ele>134.7</ele>
        <time>2019-06-16T05:57:39.000Z</time>
      </trkpt>
      <trkpt lat="43.18474" lon="2.36137">
        <ele>134.7</ele>
        <time>2019-06-16T05:57:40.000Z</time>
      </trkpt>
      <trkpt lat="43.18471" lon="2.36136">
        <ele>134.6</ele>
        <time>2019-06-16T05:57:41.000Z</time>
      </trkpt>
      <trkpt lat="43.18469" lon="2.36136">
        <ele>134.5</ele>
        <time>2019-06-16T05:57:42.000Z</time>
      </trkpt>
      <trkpt lat="43.18466" lon="2.36136">
        <ele>134.5</ele>
        <time>2019-06-16T05:57:43.000Z</time>
      </trkpt>
      <trkpt lat="43.18464" lon="2.36136">
        <ele>134.4</ele>
        <time>2019-06-16T05:57:44.000Z</time>
      </trkpt>
      <trkpt lat="43.18461" lon="2.36136">
        <ele>134.3</ele>
        <time>2019-06-16T05:57:45.000Z</time>
      </trkpt>
      <trkpt lat="43.18459" lon="2.36135">
        <ele>134.3</ele>
        <time>2019-06-16T05:57:46.000Z</time>
      </trkpt>
      <trkpt lat="43.18456" lon="2.36135">
        <ele>134.2</ele>
        <time>2019-06-16T05:57:47.000Z</time>
      </trkpt>
      <trkpt lat="43.18454" lon="2.36134">
        <ele>134.1</ele>
        <time>2019-06-16T05:57:48.000Z</time>
      </trkpt>
      <trkpt lat="43.18451" lon="2.36133">
        <ele>134</ele>
        <time>2019-06-16T05:57:49.000Z</time>
      </trkpt>
      <trkpt lat="43.18449" lon="2.36131">
        <ele>133.9</ele>
        <time>2019-06-16T05:57:50.000Z</time>
      </trkpt>
      <trkpt lat="43.18446" lon="2.3613">
        <ele>133.8</ele>
        <time>2019-06-16T05:57:51.000Z</time>
      </trkpt>
      <trkpt lat="43.18444" lon="2.36129">
        <ele>133.7</ele>
        <time>2019-06-16T05:57:52.000Z</time>
      </trkpt>
      <trkpt lat="43.18441" lon="2.36128">
        <ele>133.7</ele>
        <time>2019-06-16T05:57:53.000Z</time>
      </trkpt>
      <trkpt lat="43.18439" lon="2.36128">
        <ele>133.6</ele>
        <time>2019-06-16T05:57:54.000Z</time>
      </trkpt>
      <trkpt lat="43.18437" lon="2.36127">
        <ele>133.5</ele>
        <time>2019-06-16T05:57:55.000Z</time>
      </trkpt>
      <trkpt lat="43.18435" lon="2.36128">
        <ele>133.5</ele>
        <time>2019-06-16T05:57:56.000Z</time>
      </trkpt>
      <trkpt lat="43.18433" lon="2.36128">
        <ele>133.5</ele>
        <time>2019-06-16T05:57:57.000Z</time>
      </trkpt>
      <trkpt lat="43.18431" lon="2.36129">
        <ele>133.4</ele>
        <time>2019-06-16T05:57:58.000Z</time>
      </trkpt>
      <trkpt lat="43.18429" lon="2.3613">
        <ele>133.4</ele>
        <time>2019-06-16T05:57:59.000Z</time>
      </trkpt>
      <trkpt lat="43.18428" lon="2.36131">
        <ele>133.4</ele>
        <time>2019-06-16T05:58:00.000Z</time>
      </trkpt>
      <trkpt lat="43.18426" lon="2.36133">
        <ele>133.4</ele>
        <time>2019-06-16T05:58:01.000Z</time>
      </trkpt>
      <trkpt lat="43.18424" lon="2.36134">
        <ele>133.4</ele>
        <time>2019-06-16T05:58:02.000Z</time>
      </trkpt>
      <trkpt lat="43.18422" lon="2.36135">
        <ele>133.4</ele>
        <time>2019-06-16T05:58:03.000Z</time>
      </trkpt>
      <trkpt lat="43.18419" lon="2.36136">
        <ele>133.3</ele>
        <time>2019-06-16T05:58:04.000Z</time>
      </trkpt>
      <trkpt lat="43.18417" lon="2.36138">
        <ele>133.3</ele>
        <time>2019-06-16T05:58:05.000Z</time>
      </trkpt>
      <trkpt lat="43.18415" lon="2.36139">
        <ele>133.4</ele>
        <time>2019-06-16T05:58:06.000Z</time>
      </trkpt>
      <trkpt lat="43.18412" lon="2.3614">
        <ele>133.5</ele>
        <time>2019-06-16T05:58:07.000Z</time>
      </trkpt>
      <trkpt lat="43.18409" lon="2.3614">
        <ele>133.6</ele>
        <time>2019-06-16T05:58:08.000Z</time>
      </trkpt>
      <trkpt lat="43.18407" lon="2.36141">
        <ele>133.7</ele>
        <time>2019-06-16T05:58:09.000Z</time>
      </trkpt>
      <trkpt lat="43.18404" lon="2.36142">
        <ele>133.9</ele>
        <time>2019-06-16T05:58:10.000Z</time>
      </trkpt>
      <trkpt lat="43.18401" lon="2.36142">
        <ele>134</ele>
        <time>2019-06-16T05:58:11.000Z</time>
      </trkpt>
      <trkpt lat="43.18399" lon="2.36143">
        <ele>134.1</ele>
        <time>2019-06-16T05:58:12.000Z</time>
      </trkpt>
      <trkpt lat="43.18396" lon="2.36144">
        <ele>134.2</ele>
        <time>2019-06-16T05:58:13.000Z</time>
      </trkpt>
      <trkpt lat="43.18394" lon="2.36144">
        <ele>134.3</ele>
        <time>2019-06-16T05:58:14.000Z</time>
      </trkpt>
      <trkpt lat="43.18391" lon="2.36145">
        <ele>134.4</ele>
        <time>2019-06-16T05:58:15.000Z</time>
      </trkpt>
      <trkpt lat="43.18389" lon="2.36145">
        <ele>134.5</ele>
        <time>2019-06-16T05:58:16.000Z</time>
      </trkpt>
      <trkpt lat="43.18386" lon="2.36146">
        <ele>134.6</ele>
        <time>2019-06-16T05:58:17.000Z</time>
      </trkpt>
      <trkpt lat="43.18384" lon="2.36147">
        <ele>134.7</ele>
        <time>2019-06-16T05:58:18.000Z</time>
      </trkpt>
      <trkpt lat="43.18381" lon="2.36147">
        <ele>134.8</ele>
        <time>2019-06-16T05:58:19.000Z</time>
      </trkpt>
      <trkpt lat="43.18379" lon="2.36149">
        <ele>134.9</ele>
        <time>2019-06-16T05:58:20.000Z</time>
      </trkpt>
      <trkpt lat="43.18376" lon="2.3615">
        <ele>135.1</ele>
        <time>2019-06-16T05:58:21.000Z</time>
      </trkpt>
      <trkpt lat="43.18373" lon="2.36151">
        <ele>135.2</ele>
        <time>2019-06-16T05:58:22.000Z</time>
      </trkpt>
      <trkpt lat="43.18371" lon="2.36152">
        <ele>135.3</ele>
        <time>2019-06-16T05:58:23.000Z</time>
      </trkpt>
      <trkpt lat="43.18368" lon="2.36154">
        <ele>135.4</ele>
        <time>2019-06-16T05:58:24.000Z</time>
      </trkpt>
      <trkpt lat="43.18366" lon="2.36155">
        <ele>135.6</ele>
        <time>2019-06-16T05:58:25.000Z</time>
      </trkpt>
      <trkpt lat="43.18363" lon="2.36156">
        <ele>135.7</ele>
        <time>2019-06-16T05:58:26.000Z</time>
      </trkpt>
      <trkpt lat="43.1836" lon="2.36157">
        <ele>135.8</ele>
        <time>2019-06-16T05:58:27.000Z</time>
      </trkpt>
      <trkpt lat="43.18358" lon="2.36158">
        <ele>135.9</ele>
        <time>2019-06-16T05:58:28.000Z</time>
      </trkpt>
      <trkpt lat="43.18356" lon="2.36159">
        <ele>136</ele>
        <time>2019-06-16T05:58:29.000Z</time>
      </trkpt>
      <trkpt lat="43.18354" lon="2.36159">
        <ele>136.1</ele>
        <time>2019-06-16T05:58:30.000Z</time>
      </trkpt>
      <trkpt lat="43.18352" lon="2.3616">
        <ele>136.2</ele>
        <time>2019-06-16T05:58:31.000Z</time>
      </trkpt>
      <trkpt lat="43.18351" lon="2.3616">
        <ele>136.2</ele>
        <time>2019-06-16T05:58:32.000Z</time>
      </trkpt>
      <trkpt lat="43.1835" lon="2.3616">
        <ele>136.2</ele>
        <time>2019-06-16T05:58:33.000Z</time>
      </trkpt>
      <trkpt lat="43.1835" lon="2.3616">
        <ele>136.3</ele>
        <time>2019-06-16T05:58:34.000Z</time>
      </trkpt>
      <trkpt lat="43.1835" lon="2.36161">
        <ele>136.3</ele>
        <time>2019-06-16T05:58:35.000Z</time>
      </trkpt>
      <trkpt lat="43.1835" lon="2.36161">
        <ele>136.3</ele>
        <time>2019-06-16T05:58:36.000Z</time>
      </trkpt>
      <trkpt lat="43.18349" lon="2.36161">
        <ele>136.3</ele>
        <time>2019-06-16T05:58:37.000Z</time>
      </trkpt>
      <trkpt lat="43.18349" lon="2.36161">
        <ele>136.3</ele>
        <time>2019-06-16T05:58:38.000Z</time>
      </trkpt>
      <trkpt lat="43.18349" lon="2.36161">
        <ele>136.3</ele>
        <time>2019-06-16T05:58:39.000Z</time>
      </trkpt>
      <trkpt lat="43.18349" lon="2.36161">
        <ele>136.3</ele>
        <time>2019-06-16T05:58:40.000Z</time>
      </trkpt>
      <trkpt lat="43.18349" lon="2.36161">
        <ele>136.3</ele>
        <time>2019-06-16T05:58:41.000Z</time>
      </trkpt>
      <trkpt lat="43.18349" lon="2.36161">
        <ele>136.3</ele>
        <time>2019-06-16T05:58:42.000Z</time>
      </trkpt>
      <trkpt lat="43.18349" lon="2.36161">
        <ele>136.3</ele>
        <time>2019-06-16T05:58:43.000Z</time>
      </trkpt>
      <trkpt lat="43.18349" lon="2.36161">
        <ele>136.3</ele>
        <time>2019-06-16T05:58:44.000Z</time>
      </trkpt>
      <trkpt lat="43.18349" lon="2.36161">
        <ele>136.3</ele>
        <time>2019-06-16T05:58:45.000Z</time>
      </trkpt>
      <trkpt lat="43.18349" lon="2.36161">
        <ele>136.3</ele>
        <time>2019-06-16T05:58:46.000Z</time>
      </trkpt>
      <trkpt lat="43.18349" lon="2.36161">
        <ele>136.3</ele>
        <time>2019-06-16T05:58:47.000Z</time>
      </trkpt>
      <trkpt lat="43.18349" lon="2.36161">
        <ele>136.3</ele>
        <time>2019-06-16T05:58:48.000Z</time>
      </trkpt>
      <trkpt lat="43.18349" lon="2.36161">
        <ele>136.3</ele>
        <time>2019-06-16T05:58:49.000Z</time>
      </trkpt>
      <trkpt lat="43.18349" lon="2.36161">
        <ele>136.3</ele>
        <time>2019-06-16T05:58:50.000Z</time>
      </trkpt>
      <trkpt lat="43.18349" lon="2.36161">
        <ele>136.3</ele>
        <time>2019-06-16T05:58:51.000Z</time>
      </trkpt>
      <trkpt lat="43.18349" lon="2.36161">
        <ele>136.3</ele>
        <time>2019-06-16T05:58:52.000Z</time>
      </trkpt>
      <trkpt lat="43.18349" lon="2.36161">
        <ele>136.3</ele>
        <time>2019-06-16T05:58:53.000Z</time>
      </trkpt>
      <trkpt lat="43.18349" lon="2.36161">
        <ele>136.3</ele>
        <time>2019-06-16T05:58:54.000Z</time>
      </trkpt>
      <trkpt lat="43.18349" lon="2.36161">
        <ele>136.3</ele>
        <time>2019-06-16T05:58:55.000Z</time>
      </trkpt>
      <trkpt lat="43.18349" lon="2.36161">
        <ele>136.3</ele>
        <time>2019-06-16T05:58:56.000Z</time>
      </trkpt>
      <trkpt lat="43.18349" lon="2.36161">
        <ele>136.3</ele>
        <time>2019-06-16T05:58:57.000Z</time>
      </trkpt>
      <trkpt lat="43.18349" lon="2.36161">
        <ele>136.3</ele>
        <time>2019-06-16T05:58:58.000Z</time>
      </trkpt>
      <trkpt lat="43.18349" lon="2.36161">
        <ele>136.3</ele>
        <time>2019-06-16T05:58:59.000Z</time>
      </trkpt>
      <trkpt lat="43.18349" lon="2.36161">
        <ele>136.3</ele>
        <time>2019-06-16T05:59:00.000Z</time>
      </trkpt>
      <trkpt lat="43.18349" lon="2.36161">
        <ele>136.3</ele>
        <time>2019-06-16T05:59:01.000Z</time>
      </trkpt>
      <trkpt lat="43.18349" lon="2.36161">
        <ele>136.3</ele>
        <time>2019-06-16T05:59:02.000Z</time>
      </trkpt>
      <trkpt lat="43.18349" lon="2.36161">
        <ele>136.3</ele>
        <time>2019-06-16T05:59:03.000Z</time>
      </trkpt>
      <trkpt lat="43.18349" lon="2.36161">
        <ele>136.3</ele>
        <time>2019-06-16T05:59:04.000Z</time>
      </trkpt>
      <trkpt lat="43.18349" lon="2.36161">
        <ele>136.3</ele>
        <time>2019-06-16T05:59:05.000Z</time>
      </trkpt>
      <trkpt lat="43.18349" lon="2.36161">
        <ele>136.3</ele>
        <time>2019-06-16T05:59:06.000Z</time>
      </trkpt>
      <trkpt lat="43.18349" lon="2.36161">
        <ele>136.3</ele>
        <time>2019-06-16T05:59:07.000Z</time>
      </trkpt>
      <trkpt lat="43.18349" lon="2.36161">
        <ele>136.3</ele>
        <time>2019-06-16T05:59:08.000Z</time>
      </trkpt>
      <trkpt lat="43.1835" lon="2.36161">
        <ele>136.3</ele>
        <time>2019-06-16T05:59:09.000Z</time>
      </trkpt>
      <trkpt lat="43.18351" lon="2.3616">
        <ele>136.2</ele>
        <time>2019-06-16T05:59:10.000Z</time>
      </trkpt>
      <trkpt lat="43.18351" lon="2.36161">
        <ele>136.2</ele>
        <time>2019-06-16T05:59:11.000Z</time>
      </trkpt>
      <trkpt lat="43.18352" lon="2.36162">
        <ele>136.2</ele>
        <time>2019-06-16T05:59:12.000Z</time>
      </trkpt>
      <trkpt lat="43.18351" lon="2.36162">
        <ele>136.3</ele>
        <time>2019-06-16T05:59:13.000Z</time>
      </trkpt>
      <trkpt lat="43.18351" lon="2.36163">
        <ele>136.3</ele>
        <time>2019-06-16T05:59:14.000Z</time>
      </trkpt>
      <trkpt lat="43.1835" lon="2.36163">
        <ele>136.3</ele>
        <time>2019-06-16T05:59:15.000Z</time>
      </trkpt>
      <trkpt lat="43.1835" lon="2.36163">
        <ele>136.3</ele>
        <time>2019-06-16T05:59:16.000Z</time>
      </trkpt>
      <trkpt lat="43.1835" lon="2.36164">
        <ele>136.3</ele>
        <time>2019-06-16T05:59:17.000Z</time>
      </trkpt>
      <trkpt lat="43.1835" lon="2.36164">
        <ele>136.3</ele>
        <time>2019-06-16T05:59:18.000Z</time>
      </trkpt>
      <trkpt lat="43.1835" lon="2.36164">
        <ele>136.3</ele>
        <time>2019-06-16T05:59:19.000Z</time>
      </trkpt>
      <trkpt lat="43.1835" lon="2.36164">
        <ele>136.3</ele>
        <time>2019-06-16T05:59:20.000Z</time>
      </trkpt>
      <trkpt lat="43.1835" lon="2.36164">
        <ele>136.3</ele>
        <time>2019-06-16T05:59:21.000Z</time>
      </trkpt>
      <trkpt lat="43.1835" lon="2.36164">
        <ele>136.3</ele>
        <time>2019-06-16T05:59:22.000Z</time>
      </trkpt>
      <trkpt lat="43.1835" lon="2.36164">
        <ele>136.3</ele>
        <time>2019-06-16T05:59:23.000Z</time>
      </trkpt>
      <trkpt lat="43.1835" lon="2.36164">
        <ele>136.3</ele>
        <time>2019-06-16T05:59:24.000Z</time>
      </trkpt>
      <trkpt lat="43.1835" lon="2.36164">
        <ele>136.3</ele>
        <time>2019-06-16T05:59:25.000Z</time>
      </trkpt>
      <trkpt lat="43.1835" lon="2.36164">
        <ele>136.3</ele>
        <time>2019-06-16T05:59:26.000Z</time>
      </trkpt>
      <trkpt lat="43.1835" lon="2.36164">
        <ele>136.3</ele>
        <time>2019-06-16T05:59:27.000Z</time>
      </trkpt>
      <trkpt lat="43.1835" lon="2.36164">
        <ele>136.3</ele>
        <time>2019-06-16T05:59:28.000Z</time>
      </trkpt>
      <trkpt lat="43.1835" lon="2.36164">
        <ele>136.3</ele>
        <time>2019-06-16T05:59:29.000Z</time>
      </trkpt>
      <trkpt lat="43.1835" lon="2.36164">
        <ele>136.3</ele>
        <time>2019-06-16T05:59:30.000Z</time>
      </trkpt>
      <trkpt lat="43.1835" lon="2.36164">
        <ele>136.3</ele>
        <time>2019-06-16T05:59:31.000Z</time>
      </trkpt>
      <trkpt lat="43.1835" lon="2.36164">
        <ele>136.3</ele>
        <time>2019-06-16T05:59:32.000Z</time>
      </trkpt>
      <trkpt lat="43.1835" lon="2.36164">
        <ele>136.3</ele>
        <time>2019-06-16T05:59:33.000Z</time>
      </trkpt>
      <trkpt lat="43.1835" lon="2.36164">
        <ele>136.3</ele>
        <time>2019-06-16T05:59:34.000Z</time>
      </trkpt>
      <trkpt lat="43.1835" lon="2.36164">
        <ele>136.3</ele>
        <time>2019-06-16T05:59:35.000Z</time>
      </trkpt>
      <trkpt lat="43.1835" lon="2.36164">
        <ele>136.3</ele>
        <time>2019-06-16T05:59:36.000Z</time>
      </trkpt>
      <trkpt lat="43.1835" lon="2.36164">
        <ele>136.3</ele>
        <time>2019-06-16T05:59:37.000Z</time>
      </trkpt>
      <trkpt lat="43.1835" lon="2.36164">
        <ele>136.3</ele>
        <time>2019-06-16T05:59:38.000Z</time>
      </trkpt>
      <trkpt lat="43.1835" lon="2.36164">
        <ele>136.3</ele>
        <time>2019-06-16T05:59:39.000Z</time>
      </trkpt>
      <trkpt lat="43.1835" lon="2.36164">
        <ele>136.3</ele>
        <time>2019-06-16T05:59:40.000Z</time>
      </trkpt>
      <trkpt lat="43.1835" lon="2.36164">
        <ele>136.3</ele>
        <time>2019-06-16T05:59:41.000Z</time>
      </trkpt>
      <trkpt lat="43.1835" lon="2.36164">
        <ele>136.3</ele>
        <time>2019-06-16T05:59:42.000Z</time>
      </trkpt>
      <trkpt lat="43.1835" lon="2.36164">
        <ele>136.3</ele>
        <time>2019-06-16T05:59:43.000Z</time>
      </trkpt>
      <trkpt lat="43.1835" lon="2.36164">
        <ele>136.3</ele>
        <time>2019-06-16T05:59:44.000Z</time>
      </trkpt>
      <trkpt lat="43.1835" lon="2.36164">
        <ele>136.3</ele>
        <time>2019-06-16T05:59:45.000Z</time>
      </trkpt>
      <trkpt lat="43.1835" lon="2.36164">
        <ele>136.3</ele>
        <time>2019-06-16T05:59:46.000Z</time>
      </trkpt>
      <trkpt lat="43.1835" lon="2.36164">
        <ele>136.3</ele>
        <time>2019-06-16T05:59:47.000Z</time>
      </trkpt>
      <trkpt lat="43.1835" lon="2.36164">
        <ele>136.3</ele>
        <time>2019-06-16T05:59:48.000Z</time>
      </trkpt>
      <trkpt lat="43.1835" lon="2.36164">
        <ele>136.3</ele>
        <time>2019-06-16T05:59:49.000Z</time>
      </trkpt>
      <trkpt lat="43.1835" lon="2.36164">
        <ele>136.3</ele>
        <time>2019-06-16T05:59:50.000Z</time>
      </trkpt>
      <trkpt lat="43.1835" lon="2.36164">
        <ele>136.3</ele>
        <time>2019-06-16T05:59:51.000Z</time>
      </trkpt>
      <trkpt lat="43.1835" lon="2.36164">
        <ele>136.3</ele>
        <time>2019-06-16T05:59:52.000Z</time>
      </trkpt>
      <trkpt lat="43.1835" lon="2.36164">
        <ele>136.3</ele>
        <time>2019-06-16T05:59:53.000Z</time>
      </trkpt>
      <trkpt lat="43.1835" lon="2.36164">
        <ele>136.3</ele>
        <time>2019-06-16T05:59:54.000Z</time>
      </trkpt>
      <trkpt lat="43.1835" lon="2.36164">
        <ele>136.3</ele>
        <time>2019-06-16T05:59:55.000Z</time>
      </trkpt>
      <trkpt lat="43.1835" lon="2.36164">
        <ele>136.3</ele>
        <time>2019-06-16T05:59:56.000Z</time>
      </trkpt>
      <trkpt lat="43.1835" lon="2.36164">
        <ele>136.3</ele>
        <time>2019-06-16T05:59:57.000Z</time>
      </trkpt>
      <trkpt lat="43.1835" lon="2.36164">
        <ele>136.3</ele>
        <time>2019-06-16T05:59:58.000Z</time>
      </trkpt>
      <trkpt lat="43.1835" lon="2.36164">
        <ele>136.3</ele>
        <time>2019-06-16T05:59:59.000Z</time>
      </trkpt>
      <trkpt lat="43.1835" lon="2.36164">
        <ele>136.3</ele>
        <time>2019-06-16T06:00:00.000Z</time>
      </trkpt>
      <trkpt lat="43.1835" lon="2.36164">
        <ele>136.3</ele>
        <time>2019-06-16T06:00:01.000Z</time>
      </trkpt>
      <trkpt lat="43.1835" lon="2.36164">
        <ele>136.3</ele>
        <time>2019-06-16T06:00:02.000Z</time>
      </trkpt>
      <trkpt lat="43.1835" lon="2.36164">
        <ele>136.3</ele>
        <time>2019-06-16T06:00:03.000Z</time>
      </trkpt>
      <trkpt lat="43.1835" lon="2.36164">
        <ele>136.3</ele>
        <time>2019-06-16T06:00:04.000Z</time>
      </trkpt>
      <trkpt lat="43.1835" lon="2.36164">
        <ele>136.3</ele>
        <time>2019-06-16T06:00:05.000Z</time>
      </trkpt>
      <trkpt lat="43.1835" lon="2.36164">
        <ele>136.3</ele>
        <time>2019-06-16T06:00:06.000Z</time>
      </trkpt>
      <trkpt lat="43.1835" lon="2.36164">
        <ele>136.3</ele>
        <time>2019-06-16T06:00:07.000Z</time>
      </trkpt>
      <trkpt lat="43.1835" lon="2.36164">
        <ele>136.3</ele>
        <time>2019-06-16T06:00:08.000Z</time>
      </trkpt>
      <trkpt lat="43.1835" lon="2.36164">
        <ele>136.3</ele>
        <time>2019-06-16T06:00:09.000Z</time>
      </trkpt>
      <trkpt lat="43.1835" lon="2.36164">
        <ele>136.3</ele>
        <time>2019-06-16T06:00:10.000Z</time>
      </trkpt>
      <trkpt lat="43.1835" lon="2.36164">
        <ele>136.3</ele>
        <time>2019-06-16T06:00:11.000Z</time>
      </trkpt>
      <trkpt lat="43.1835" lon="2.36164">
        <ele>136.3</ele>
        <time>2019-06-16T06:00:12.000Z</time>
      </trkpt>
      <trkpt lat="43.1835" lon="2.36164">
        <ele>136.3</ele>
        <time>2019-06-16T06:00:13.000Z</time>
      </trkpt>
      <trkpt lat="43.1835" lon="2.36164">
        <ele>136.3</ele>
        <time>2019-06-16T06:00:14.000Z</time>
      </trkpt>
      <trkpt lat="43.1835" lon="2.36164">
        <ele>136.3</ele>
        <time>2019-06-16T06:00:15.000Z</time>
      </trkpt>
      <trkpt lat="43.1835" lon="2.36164">
        <ele>136.3</ele>
        <time>2019-06-16T06:00:16.000Z</time>
      </trkpt>
      <trkpt lat="43.1835" lon="2.36164">
        <ele>136.3</ele>
        <time>2019-06-16T06:00:17.000Z</time>
      </trkpt>
      <trkpt lat="43.1835" lon="2.36164">
        <ele>136.3</ele>
        <time>2019-06-16T06:00:18.000Z</time>
      </trkpt>
      <trkpt lat="43.1835" lon="2.36164">
        <ele>136.3</ele>
        <time>2019-06-16T06:00:19.000Z</time>
      </trkpt>
      <trkpt lat="43.1835" lon="2.36164">
        <ele>136.3</ele>
        <time>2019-06-16T06:00:20.000Z</time>
      </trkpt>
      <trkpt lat="43.1835" lon="2.36164">
        <ele>136.3</ele>
        <time>2019-06-16T06:00:21.000Z</time>
      </trkpt>
      <trkpt lat="43.1835" lon="2.36164">
        <ele>136.3</ele>
        <time>2019-06-16T06:00:22.000Z</time>
      </trkpt>
      <trkpt lat="43.1835" lon="2.36164">
        <ele>136.3</ele>
        <time>2019-06-16T06:00:23.000Z</time>
      </trkpt>
      <trkpt lat="43.1835" lon="2.36164">
        <ele>136.3</ele>
        <time>2019-06-16T06:00:24.000Z</time>
      </trkpt>
      <trkpt lat="43.1835" lon="2.36164">
        <ele>136.3</ele>
        <time>2019-06-16T06:00:25.000Z</time>
      </trkpt>
      <trkpt lat="43.1835" lon="2.36164">
        <ele>136.3</ele>
        <time>2019-06-16T06:00:26.000Z</time>
      </trkpt>
      <trkpt lat="43.1835" lon="2.36164">
        <ele>136.3</ele>
        <time>2019-06-16T06:00:27.000Z</time>
      </trkpt>
      <trkpt lat="43.1835" lon="2.36164">
        <ele>136.3</ele>
        <time>2019-06-16T06:00:28.000Z</time>
      </trkpt>
      <trkpt lat="43.1835" lon="2.36164">
        <ele>136.3</ele>
        <time>2019-06-16T06:00:29.000Z</time>
      </trkpt>
      <trkpt lat="43.1835" lon="2.36164">
        <ele>136.3</ele>
        <time>2019-06-16T06:00:30.000Z</time>
      </trkpt>
      <trkpt lat="43.1835" lon="2.36164">
        <ele>136.3</ele>
        <time>2019-06-16T06:00:31.000Z</time>
      </trkpt>
      <trkpt lat="43.1835" lon="2.36164">
        <ele>136.3</ele>
        <time>2019-06-16T06:00:32.000Z</time>
      </trkpt>
      <trkpt lat="43.1835" lon="2.36164">
        <ele>136.3</ele>
        <time>2019-06-16T06:00:33.000Z</time>
      </trkpt>
      <trkpt lat="43.1835" lon="2.36164">
        <ele>136.3</ele>
        <time>2019-06-16T06:00:34.000Z</time>
      </trkpt>
      <trkpt lat="43.1835" lon="2.36164">
        <ele>136.3</ele>
        <time>2019-06-16T06:00:35.000Z</time>
      </trkpt>
      <trkpt lat="43.1835" lon="2.36164">
        <ele>136.3</ele>
        <time>2019-06-16T06:00:36.000Z</time>
      </trkpt>
      <trkpt lat="43.1835" lon="2.36164">
        <ele>136.3</ele>
        <time>2019-06-16T06:00:37.000Z</time>
      </trkpt>
      <trkpt lat="43.1835" lon="2.36164">
        <ele>136.3</ele>
        <time>2019-06-16T06:00:38.000Z</time>
      </trkpt>
      <trkpt lat="43.1835" lon="2.36164">
        <ele>136.3</ele>
        <time>2019-06-16T06:00:39.000Z</time>
      </trkpt>
      <trkpt lat="43.1835" lon="2.36164">
        <ele>136.3</ele>
        <time>2019-06-16T06:00:40.000Z</time>
      </trkpt>
      <trkpt lat="43.1835" lon="2.36164">
        <ele>136.3</ele>
        <time>2019-06-16T06:00:41.000Z</time>
      </trkpt>
      <trkpt lat="43.1835" lon="2.36164">
        <ele>136.3</ele>
        <time>2019-06-16T06:00:42.000Z</time>
      </trkpt>
      <trkpt lat="43.1835" lon="2.36164">
        <ele>136.3</ele>
        <time>2019-06-16T06:00:43.000Z</time>
      </trkpt>
      <trkpt lat="43.1835" lon="2.36164">
        <ele>136.3</ele>
        <time>2019-06-16T06:00:44.000Z</time>
      </trkpt>
      <trkpt lat="43.1835" lon="2.36164">
        <ele>136.3</ele>
        <time>2019-06-16T06:00:45.000Z</time>
      </trkpt>
      <trkpt lat="43.1835" lon="2.36164">
        <ele>136.3</ele>
        <time>2019-06-16T06:00:46.000Z</time>
      </trkpt>
      <trkpt lat="43.1835" lon="2.36164">
        <ele>136.3</ele>
        <time>2019-06-16T06:00:47.000Z</time>
      </trkpt>
      <trkpt lat="43.1835" lon="2.36164">
        <ele>136.3</ele>
        <time>2019-06-16T06:00:48.000Z</time>
      </trkpt>
      <trkpt lat="43.1835" lon="2.36164">
        <ele>136.3</ele>
        <time>2019-06-16T06:00:49.000Z</time>
      </trkpt>
      <trkpt lat="43.1835" lon="2.36164">
        <ele>136.3</ele>
        <time>2019-06-16T06:00:50.000Z</time>
      </trkpt>
      <trkpt lat="43.1835" lon="2.36164">
        <ele>136.3</ele>
        <time>2019-06-16T06:00:51.000Z</time>
      </trkpt>
      <trkpt lat="43.1835" lon="2.36164">
        <ele>136.3</ele>
        <time>2019-06-16T06:00:52.000Z</time>
      </trkpt>
      <trkpt lat="43.1835" lon="2.36164">
        <ele>136.3</ele>
        <time>2019-06-16T06:00:53.000Z</time>
      </trkpt>
      <trkpt lat="43.1835" lon="2.36164">
        <ele>136.3</ele>
        <time>2019-06-16T06:00:54.000Z</time>
      </trkpt>
      <trkpt lat="43.1835" lon="2.36164">
        <ele>136.3</ele>
        <time>2019-06-16T06:00:55.000Z</time>
      </trkpt>
      <trkpt lat="43.1835" lon="2.36164">
        <ele>136.3</ele>
        <time>2019-06-16T06:00:56.000Z</time>
      </trkpt>
      <trkpt lat="43.1835" lon="2.36164">
        <ele>136.3</ele>
        <time>2019-06-16T06:00:57.000Z</time>
      </trkpt>
      <trkpt lat="43.1835" lon="2.36164">
        <ele>136.3</ele>
        <time>2019-06-16T06:00:58.000Z</time>
      </trkpt>
      <trkpt lat="43.1835" lon="2.36164">
        <ele>136.3</ele>
        <time>2019-06-16T06:00:59.000Z</time>
      </trkpt>
      <trkpt lat="43.1835" lon="2.36164">
        <ele>136.3</ele>
        <time>2019-06-16T06:01:00.000Z</time>
      </trkpt>
      <trkpt lat="43.1835" lon="2.36164">
        <ele>136.3</ele>
        <time>2019-06-16T06:01:01.000Z</time>
      </trkpt>
      <trkpt lat="43.1835" lon="2.36164">
        <ele>136.3</ele>
        <time>2019-06-16T06:01:02.000Z</time>
      </trkpt>
      <trkpt lat="43.1835" lon="2.36164">
        <ele>136.3</ele>
        <time>2019-06-16T06:01:03.000Z</time>
      </trkpt>
      <trkpt lat="43.1835" lon="2.36164">
        <ele>136.3</ele>
        <time>2019-06-16T06:01:04.000Z</time>
      </trkpt>
      <trkpt lat="43.1835" lon="2.36164">
        <ele>136.3</ele>
        <time>2019-06-16T06:01:05.000Z</time>
      </trkpt>
      <trkpt lat="43.1835" lon="2.36164">
        <ele>136.3</ele>
        <time>2019-06-16T06:01:06.000Z</time>
      </trkpt>
      <trkpt lat="43.1835" lon="2.36164">
        <ele>136.3</ele>
        <time>2019-06-16T06:01:07.000Z</time>
      </trkpt>
      <trkpt lat="43.1835" lon="2.36164">
        <ele>136.3</ele>
        <time>2019-06-16T06:01:08.000Z</time>
      </trkpt>
      <trkpt lat="43.18349" lon="2.36164">
        <ele>136.4</ele>
        <time>2019-06-16T06:01:09.000Z</time>
      </trkpt>
      <trkpt lat="43.18349" lon="2.36166">
        <ele>136.4</ele>
        <time>2019-06-16T06:01:10.000Z</time>
      </trkpt>
      <trkpt lat="43.18349" lon="2.36167">
        <ele>136.4</ele>
        <time>2019-06-16T06:01:11.000Z</time>
      </trkpt>
      <trkpt lat="43.18349" lon="2.36167">
        <ele>136.4</ele>
        <time>2019-06-16T06:01:12.000Z</time>
      </trkpt>
      <trkpt lat="43.18349" lon="2.36167">
        <ele>136.4</ele>
        <time>2019-06-16T06:01:13.000Z</time>
      </trkpt>
      <trkpt lat="43.18349" lon="2.36167">
        <ele>136.4</ele>
        <time>2019-06-16T06:01:14.000Z</time>
      </trkpt>
      <trkpt lat="43.18349" lon="2.36167">
        <ele>136.4</ele>
        <time>2019-06-16T06:01:15.000Z</time>
      </trkpt>
      <trkpt lat="43.18349" lon="2.36167">
        <ele>136.4</ele>
        <time>2019-06-16T06:01:16.000Z</time>
      </trkpt>
      <trkpt lat="43.18349" lon="2.36167">
        <ele>136.4</ele>
        <time>2019-06-16T06:01:17.000Z</time>
      </trkpt>
      <trkpt lat="43.18349" lon="2.36167">
        <ele>136.4</ele>
        <time>2019-06-16T06:01:18.000Z</time>
      </trkpt>
      <trkpt lat="43.18349" lon="2.36167">
        <ele>136.4</ele>
        <time>2019-06-16T06:01:19.000Z</time>
      </trkpt>
      <trkpt lat="43.18349" lon="2.36167">
        <ele>136.4</ele>
        <time>2019-06-16T06:01:20.000Z</time>
      </trkpt>
      <trkpt lat="43.18349" lon="2.36167">
        <ele>136.4</ele>
        <time>2019-06-16T06:01:21.000Z</time>
      </trkpt>
      <trkpt lat="43.18349" lon="2.36167">
        <ele>136.4</ele>
        <time>2019-06-16T06:01:22.000Z</time>
      </trkpt>
      <trkpt lat="43.18349" lon="2.36167">
        <ele>136.4</ele>
        <time>2019-06-16T06:01:23.000Z</time>
      </trkpt>
      <trkpt lat="43.18349" lon="2.36167">
        <ele>136.4</ele>
        <time>2019-06-16T06:01:24.000Z</time>
      </trkpt>
      <trkpt lat="43.18349" lon="2.36167">
        <ele>136.4</ele>
        <time>2019-06-16T06:01:25.000Z</time>
      </trkpt>
      <trkpt lat="43.18349" lon="2.36167">
        <ele>136.4</ele>
        <time>2019-06-16T06:01:26.000Z</time>
      </trkpt>
      <trkpt lat="43.18349" lon="2.36167">
        <ele>136.4</ele>
        <time>2019-06-16T06:01:27.000Z</time>
      </trkpt>
      <trkpt lat="43.18349" lon="2.36167">
        <ele>136.4</ele>
        <time>2019-06-16T06:01:28.000Z</time>
      </trkpt>
      <trkpt lat="43.18349" lon="2.36167">
        <ele>136.4</ele>
        <time>2019-06-16T06:01:29.000Z</time>
      </trkpt>
      <trkpt lat="43.18349" lon="2.36167">
        <ele>136.4</ele>
        <time>2019-06-16T06:01:30.000Z</time>
      </trkpt>
      <trkpt lat="43.18349" lon="2.36167">
        <ele>136.4</ele>
        <time>2019-06-16T06:01:31.000Z</time>
      </trkpt>
      <trkpt lat="43.18349" lon="2.36167">
        <ele>136.4</ele>
        <time>2019-06-16T06:01:32.000Z</time>
      </trkpt>
      <trkpt lat="43.18349" lon="2.36167">
        <ele>136.4</ele>
        <time>2019-06-16T06:01:33.000Z</time>
      </trkpt>
      <trkpt lat="43.18349" lon="2.36167">
        <ele>136.4</ele>
        <time>2019-06-16T06:01:34.000Z</time>
      </trkpt>
      <trkpt lat="43.18349" lon="2.36167">
        <ele>136.4</ele>
        <time>2019-06-16T06:01:35.000Z</time>
      </trkpt>
      <trkpt lat="43.18349" lon="2.36167">
        <ele>136.4</ele>
        <time>2019-06-16T06:01:36.000Z</time>
      </trkpt>
      <trkpt lat="43.18349" lon="2.36167">
        <ele>136.4</ele>
        <time>2019-06-16T06:01:37.000Z</time>
      </trkpt>
      <trkpt lat="43.18349" lon="2.36167">
        <ele>136.4</ele>
        <time>2019-06-16T06:01:38.000Z</time>
      </trkpt>
      <trkpt lat="43.18349" lon="2.36167">
        <ele>136.4</ele>
        <time>2019-06-16T06:01:39.000Z</time>
      </trkpt>
      <trkpt lat="43.18349" lon="2.36167">
        <ele>136.4</ele>
        <time>2019-06-16T06:01:40.000Z</time>
      </trkpt>
      <trkpt lat="43.18349" lon="2.36167">
        <ele>136.4</ele>
        <time>2019-06-16T06:01:41.000Z</time>
      </trkpt>
      <trkpt lat="43.18349" lon="2.36167">
        <ele>136.4</ele>
        <time>2019-06-16T06:01:42.000Z</time>
      </trkpt>
      <trkpt lat="43.18349" lon="2.36167">
        <ele>136.4</ele>
        <time>2019-06-16T06:01:43.000Z</time>
      </trkpt>
      <trkpt lat="43.18349" lon="2.36167">
        <ele>136.4</ele>
        <time>2019-06-16T06:01:44.000Z</time>
      </trkpt>
      <trkpt lat="43.18349" lon="2.36167">
        <ele>136.4</ele>
        <time>2019-06-16T06:01:45.000Z</time>
      </trkpt>
      <trkpt lat="43.18349" lon="2.36167">
        <ele>136.4</ele>
        <time>2019-06-16T06:01:46.000Z</time>
      </trkpt>
      <trkpt lat="43.18349" lon="2.36167">
        <ele>136.4</ele>
        <time>2019-06-16T06:01:47.000Z</time>
      </trkpt>
      <trkpt lat="43.18349" lon="2.36167">
        <ele>136.4</ele>
        <time>2019-06-16T06:01:48.000Z</time>
      </trkpt>
      <trkpt lat="43.18349" lon="2.36167">
        <ele>136.4</ele>
        <time>2019-06-16T06:01:49.000Z</time>
      </trkpt>
      <trkpt lat="43.18349" lon="2.36167">
        <ele>136.4</ele>
        <time>2019-06-16T06:01:50.000Z</time>
      </trkpt>
      <trkpt lat="43.18349" lon="2.36167">
        <ele>136.4</ele>
        <time>2019-06-16T06:01:51.000Z</time>
      </trkpt>
      <trkpt lat="43.18349" lon="2.36167">
        <ele>136.4</ele>
        <time>2019-06-16T06:01:52.000Z</time>
      </trkpt>
      <trkpt lat="43.18349" lon="2.36167">
        <ele>136.4</ele>
        <time>2019-06-16T06:01:53.000Z</time>
      </trkpt>
      <trkpt lat="43.18349" lon="2.36167">
        <ele>136.4</ele>
        <time>2019-06-16T06:01:54.000Z</time>
      </trkpt>
      <trkpt lat="43.18349" lon="2.36167">
        <ele>136.4</ele>
        <time>2019-06-16T06:01:55.000Z</time>
      </trkpt>
      <trkpt lat="43.18349" lon="2.36167">
        <ele>136.4</ele>
        <time>2019-06-16T06:01:56.000Z</time>
      </trkpt>
      <trkpt lat="43.18349" lon="2.36167">
        <ele>136.4</ele>
        <time>2019-06-16T06:01:57.000Z</time>
      </trkpt>
      <trkpt lat="43.18349" lon="2.36167">
        <ele>136.4</ele>
        <time>2019-06-16T06:01:58.000Z</time>
      </trkpt>
      <trkpt lat="43.18349" lon="2.36167">
        <ele>136.4</ele>
        <time>2019-06-16T06:01:59.000Z</time>
      </trkpt>
      <trkpt lat="43.18349" lon="2.36167">
        <ele>136.4</ele>
        <time>2019-06-16T06:02:00.000Z</time>
      </trkpt>
      <trkpt lat="43.18349" lon="2.36167">
        <ele>136.4</ele>
        <time>2019-06-16T06:02:01.000Z</time>
      </trkpt>
      <trkpt lat="43.18349" lon="2.36167">
        <ele>136.4</ele>
        <time>2019-06-16T06:02:02.000Z</time>
      </trkpt>
      <trkpt lat="43.18349" lon="2.36167">
        <ele>136.4</ele>
        <time>2019-06-16T06:02:03.000Z</time>
      </trkpt>
      <trkpt lat="43.18349" lon="2.36167">
        <ele>136.4</ele>
        <time>2019-06-16T06:02:04.000Z</time>
      </trkpt>
      <trkpt lat="43.18349" lon="2.36167">
        <ele>136.4</ele>
        <time>2019-06-16T06:02:05.000Z</time>
      </trkpt>
      <trkpt lat="43.18349" lon="2.36167">
        <ele>136.4</ele>
        <time>2019-06-16T06:02:06.000Z</time>
      </trkpt>
      <trkpt lat="43.18349" lon="2.36167">
        <ele>136.4</ele>
        <time>2019-06-16T06:02:07.000Z</time>
      </trkpt>
      <trkpt lat="43.18349" lon="2.36167">
        <ele>136.4</ele>
        <time>2019-06-16T06:02:08.000Z</time>
      </trkpt>
      <trkpt lat="43.18349" lon="2.36167">
        <ele>136.4</ele>
        <time>2019-06-16T06:02:09.000Z</time>
      </trkpt>
      <trkpt lat="43.18349" lon="2.36167">
        <ele>136.4</ele>
        <time>2019-06-16T06:02:10.000Z</time>
      </trkpt>
      <trkpt lat="43.18349" lon="2.36167">
        <ele>136.4</ele>
        <time>2019-06-16T06:02:11.000Z</time>
      </trkpt>
      <trkpt lat="43.18349" lon="2.36167">
        <ele>136.4</ele>
        <time>2019-06-16T06:02:12.000Z</time>
      </trkpt>
      <trkpt lat="43.18349" lon="2.36167">
        <ele>136.4</ele>
        <time>2019-06-16T06:02:13.000Z</time>
      </trkpt>
      <trkpt lat="43.18349" lon="2.36167">
        <ele>136.4</ele>
        <time>2019-06-16T06:02:14.000Z</time>
      </trkpt>
      <trkpt lat="43.18349" lon="2.36167">
        <ele>136.4</ele>
        <time>2019-06-16T06:02:15.000Z</time>
      </trkpt>
      <trkpt lat="43.18349" lon="2.36167">
        <ele>136.4</ele>
        <time>2019-06-16T06:02:16.000Z</time>
      </trkpt>
      <trkpt lat="43.18349" lon="2.36167">
        <ele>136.4</ele>
        <time>2019-06-16T06:02:17.000Z</time>
      </trkpt>
      <trkpt lat="43.18349" lon="2.36167">
        <ele>136.4</ele>
        <time>2019-06-16T06:02:18.000Z</time>
      </trkpt>
      <trkpt lat="43.18349" lon="2.36167">
        <ele>136.4</ele>
        <time>2019-06-16T06:02:19.000Z</time>
      </trkpt>
      <trkpt lat="43.18349" lon="2.36167">
        <ele>136.4</ele>
        <time>2019-06-16T06:02:20.000Z</time>
      </trkpt>
      <trkpt lat="43.18349" lon="2.36167">
        <ele>136.4</ele>
        <time>2019-06-16T06:02:21.000Z</time>
      </trkpt>
      <trkpt lat="43.18349" lon="2.36167">
        <ele>136.4</ele>
        <time>2019-06-16T06:02:22.000Z</time>
      </trkpt>
      <trkpt lat="43.18349" lon="2.36167">
        <ele>136.4</ele>
        <time>2019-06-16T06:02:23.000Z</time>
      </trkpt>
      <trkpt lat="43.18349" lon="2.36167">
        <ele>136.4</ele>
        <time>2019-06-16T06:02:24.000Z</time>
      </trkpt>
      <trkpt lat="43.18349" lon="2.36167">
        <ele>136.4</ele>
        <time>2019-06-16T06:02:25.000Z</time>
      </trkpt>
      <trkpt lat="43.18349" lon="2.36167">
        <ele>136.4</ele>
        <time>2019-06-16T06:02:26.000Z</time>
      </trkpt>
      <trkpt lat="43.18349" lon="2.36167">
        <ele>136.4</ele>
        <time>2019-06-16T06:02:27.000Z</time>
      </trkpt>
      <trkpt lat="43.18349" lon="2.36167">
        <ele>136.4</ele>
        <time>2019-06-16T06:02:28.000Z</time>
      </trkpt>
      <trkpt lat="43.18349" lon="2.36167">
        <ele>136.4</ele>
        <time>2019-06-16T06:02:29.000Z</time>
      </trkpt>
      <trkpt lat="43.18349" lon="2.36167">
        <ele>136.4</ele>
        <time>2019-06-16T06:02:30.000Z</time>
      </trkpt>
      <trkpt lat="43.18349" lon="2.36167">
        <ele>136.4</ele>
        <time>2019-06-16T06:02:31.000Z</time>
      </trkpt>
      <trkpt lat="43.18349" lon="2.36167">
        <ele>136.4</ele>
        <time>2019-06-16T06:02:32.000Z</time>
      </trkpt>
      <trkpt lat="43.18349" lon="2.36167">
        <ele>136.4</ele>
        <time>2019-06-16T06:02:33.000Z</time>
      </trkpt>
      <trkpt lat="43.18348" lon="2.36167">
        <ele>136.5</ele>
        <time>2019-06-16T06:02:34.000Z</time>
      </trkpt>
      <trkpt lat="43.18348" lon="2.36167">
        <ele>136.5</ele>
        <time>2019-06-16T06:02:35.000Z</time>
      </trkpt>
      <trkpt lat="43.18347" lon="2.36167">
        <ele>136.5</ele>
        <time>2019-06-16T06:02:36.000Z</time>
      </trkpt>
      <trkpt lat="43.18346" lon="2.36167">
        <ele>136.5</ele>
        <time>2019-06-16T06:02:37.000Z</time>
      </trkpt>
      <trkpt lat="43.18345" lon="2.36166">
        <ele>136.6</ele>
        <time>2019-06-16T06:02:38.000Z</time>
      </trkpt>
      <trkpt lat="43.18343" lon="2.36166">
        <ele>136.6</ele>
        <time>2019-06-16T06:02:39.000Z</time>
      </trkpt>
      <trkpt lat="43.18341" lon="2.36166">
        <ele>136.7</ele>
        <time>2019-06-16T06:02:40.000Z</time>
      </trkpt>
      <trkpt lat="43.1834" lon="2.36165">
        <ele>136.7</ele>
        <time>2019-06-16T06:02:41.000Z</time>
      </trkpt>
      <trkpt lat="43.18338" lon="2.36164">
        <ele>136.8</ele>
        <time>2019-06-16T06:02:42.000Z</time>
      </trkpt>
      <trkpt lat="43.18336" lon="2.36164">
        <ele>136.8</ele>
        <time>2019-06-16T06:02:43.000Z</time>
      </trkpt>
      <trkpt lat="43.18333" lon="2.36163">
        <ele>136.9</ele>
        <time>2019-06-16T06:02:44.000Z</time>
      </trkpt>
      <trkpt lat="43.18332" lon="2.36162">
        <ele>137</ele>
        <time>2019-06-16T06:02:45.000Z</time>
      </trkpt>
      <trkpt lat="43.1833" lon="2.36161">
        <ele>137.1</ele>
        <time>2019-06-16T06:02:46.000Z</time>
      </trkpt>
      <trkpt lat="43.18328" lon="2.3616">
        <ele>137.2</ele>
        <time>2019-06-16T06:02:47.000Z</time>
      </trkpt>
      <trkpt lat="43.18327" lon="2.36158">
        <ele>137.2</ele>
        <time>2019-06-16T06:02:48.000Z</time>
      </trkpt>
      <trkpt lat="43.18326" lon="2.36157">
        <ele>137.3</ele>
        <time>2019-06-16T06:02:49.000Z</time>
      </trkpt>
      <trkpt lat="43.18325" lon="2.36155">
        <ele>137.3</ele>
        <time>2019-06-16T06:02:50.000Z</time>
      </trkpt>
      <trkpt lat="43.18324" lon="2.36154">
        <ele>137.3</ele>
        <time>2019-06-16T06:02:51.000Z</time>
      </trkpt>
      <trkpt lat="43.18324" lon="2.36153">
        <ele>137.3</ele>
        <time>2019-06-16T06:02:52.000Z</time>
      </trkpt>
      <trkpt lat="43.18323" lon="2.36152">
        <ele>137.4</ele>
        <time>2019-06-16T06:02:53.000Z</time>
      </trkpt>
      <trkpt lat="43.18322" lon="2.36151">
        <ele>137.4</ele>
        <time>2019-06-16T06:02:54.000Z</time>
      </trkpt>
      <trkpt lat="43.18321" lon="2.36151">
        <ele>137.5</ele>
        <time>2019-06-16T06:02:55.000Z</time>
      </trkpt>
      <trkpt lat="43.18319" lon="2.36151">
        <ele>137.6</ele>
        <time>2019-06-16T06:02:56.000Z</time>
      </trkpt>
      <trkpt lat="43.18318" lon="2.36151">
        <ele>137.7</ele>
        <time>2019-06-16T06:02:57.000Z</time>
      </trkpt>
      <trkpt lat="43.18316" lon="2.36151">
        <ele>137.8</ele>
        <time>2019-06-16T06:02:58.000Z</time>
      </trkpt>
      <trkpt lat="43.18314" lon="2.36151">
        <ele>138</ele>
        <time>2019-06-16T06:02:59.000Z</time>
      </trkpt>
      <trkpt lat="43.18312" lon="2.36151">
        <ele>138.1</ele>
        <time>2019-06-16T06:03:00.000Z</time>
      </trkpt>
      <trkpt lat="43.1831" lon="2.36151">
        <ele>138.2</ele>
        <time>2019-06-16T06:03:01.000Z</time>
      </trkpt>
      <trkpt lat="43.18308" lon="2.36151">
        <ele>138.4</ele>
        <time>2019-06-16T06:03:02.000Z</time>
      </trkpt>
      <trkpt lat="43.18306" lon="2.36151">
        <ele>138.5</ele>
        <time>2019-06-16T06:03:03.000Z</time>
      </trkpt>
      <trkpt lat="43.18305" lon="2.36152">
        <ele>138.6</ele>
        <time>2019-06-16T06:03:04.000Z</time>
      </trkpt>
      <trkpt lat="43.18303" lon="2.36152">
        <ele>138.7</ele>
        <time>2019-06-16T06:03:05.000Z</time>
      </trkpt>
      <trkpt lat="43.18302" lon="2.36153">
        <ele>138.8</ele>
        <time>2019-06-16T06:03:06.000Z</time>
      </trkpt>
      <trkpt lat="43.183" lon="2.36155">
        <ele>138.9</ele>
        <time>2019-06-16T06:03:07.000Z</time>
      </trkpt>
      <trkpt lat="43.18299" lon="2.36156">
        <ele>139</ele>
        <time>2019-06-16T06:03:08.000Z</time>
      </trkpt>
      <trkpt lat="43.18298" lon="2.36158">
        <ele>139.1</ele>
        <time>2019-06-16T06:03:09.000Z</time>
      </trkpt>
      <trkpt lat="43.18297" lon="2.36159">
        <ele>139.2</ele>
        <time>2019-06-16T06:03:10.000Z</time>
      </trkpt>
      <trkpt lat="43.18295" lon="2.36161">
        <ele>139.3</ele>
        <time>2019-06-16T06:03:11.000Z</time>
      </trkpt>
      <trkpt lat="43.18294" lon="2.36163">
        <ele>139.3</ele>
        <time>2019-06-16T06:03:12.000Z</time>
      </trkpt>
      <trkpt lat="43.18293" lon="2.36165">
        <ele>139.4</ele>
        <time>2019-06-16T06:03:13.000Z</time>
      </trkpt>
      <trkpt lat="43.18292" lon="2.36168">
        <ele>139.5</ele>
        <time>2019-06-16T06:03:14.000Z</time>
      </trkpt>
      <trkpt lat="43.18291" lon="2.3617">
        <ele>139.5</ele>
        <time>2019-06-16T06:03:15.000Z</time>
      </trkpt>
      <trkpt lat="43.1829" lon="2.36172">
        <ele>139.5</ele>
        <time>2019-06-16T06:03:16.000Z</time>
      </trkpt>
      <trkpt lat="43.18289" lon="2.36174">
        <ele>139.5</ele>
        <time>2019-06-16T06:03:17.000Z</time>
      </trkpt>
      <trkpt lat="43.18288" lon="2.36176">
        <ele>139.5</ele>
        <time>2019-06-16T06:03:18.000Z</time>
      </trkpt>
      <trkpt lat="43.18286" lon="2.36178">
        <ele>139.5</ele>
        <time>2019-06-16T06:03:19.000Z</time>
      </trkpt>
      <trkpt lat="43.18285" lon="2.3618">
        <ele>139.5</ele>
        <time>2019-06-16T06:03:20.000Z</time>
      </trkpt>
      <trkpt lat="43.18284" lon="2.36182">
        <ele>139.5</ele>
        <time>2019-06-16T06:03:21.000Z</time>
      </trkpt>
      <trkpt lat="43.18283" lon="2.36184">
        <ele>139.5</ele>
        <time>2019-06-16T06:03:22.000Z</time>
      </trkpt>
      <trkpt lat="43.18282" lon="2.36186">
        <ele>139.5</ele>
        <time>2019-06-16T06:03:23.000Z</time>
      </trkpt>
      <trkpt lat="43.18281" lon="2.36188">
        <ele>139.6</ele>
        <time>2019-06-16T06:03:24.000Z</time>
      </trkpt>
      <trkpt lat="43.18279" lon="2.3619">
        <ele>139.6</ele>
        <time>2019-06-16T06:03:25.000Z</time>
      </trkpt>
      <trkpt lat="43.18278" lon="2.36192">
        <ele>139.6</ele>
        <time>2019-06-16T06:03:26.000Z</time>
      </trkpt>
      <trkpt lat="43.18277" lon="2.36194">
        <ele>139.6</ele>
        <time>2019-06-16T06:03:27.000Z</time>
      </trkpt>
      <trkpt lat="43.18275" lon="2.36197">
        <ele>139.7</ele>
        <time>2019-06-16T06:03:28.000Z</time>
      </trkpt>
      <trkpt lat="43.18274" lon="2.36199">
        <ele>139.7</ele>
        <time>2019-06-16T06:03:29.000Z</time>
      </trkpt>
      <trkpt lat="43.18273" lon="2.36201">
        <ele>139.7</ele>
        <time>2019-06-16T06:03:30.000Z</time>
      </trkpt>
      <trkpt lat="43.18271" lon="2.36204">
        <ele>139.7</ele>
        <time>2019-06-16T06:03:31.000Z</time>
      </trkpt>
      <trkpt lat="43.1827" lon="2.36206">
        <ele>139.8</ele>
        <time>2019-06-16T06:03:32.000Z</time>
      </trkpt>
      <trkpt lat="43.18269" lon="2.36208">
        <ele>139.8</ele>
        <time>2019-06-16T06:03:33.000Z</time>
      </trkpt>
      <trkpt lat="43.18267" lon="2.3621">
        <ele>139.8</ele>
        <time>2019-06-16T06:03:34.000Z</time>
      </trkpt>
      <trkpt lat="43.18266" lon="2.36212">
        <ele>139.8</ele>
        <time>2019-06-16T06:03:35.000Z</time>
      </trkpt>
      <trkpt lat="43.18265" lon="2.36214">
        <ele>139.8</ele>
        <time>2019-06-16T06:03:36.000Z</time>
      </trkpt>
      <trkpt lat="43.18264" lon="2.36216">
        <ele>139.9</ele>
        <time>2019-06-16T06:03:37.000Z</time>
      </trkpt>
      <trkpt lat="43.18263" lon="2.36218">
        <ele>139.9</ele>
        <time>2019-06-16T06:03:38.000Z</time>
      </trkpt>
      <trkpt lat="43.18262" lon="2.3622">
        <ele>139.9</ele>
        <time>2019-06-16T06:03:39.000Z</time>
      </trkpt>
      <trkpt lat="43.18261" lon="2.36222">
        <ele>139.9</ele>
        <time>2019-06-16T06:03:40.000Z</time>
      </trkpt>
      <trkpt lat="43.1826" lon="2.36224">
        <ele>140</ele>
        <time>2019-06-16T06:03:41.000Z</time>
      </trkpt>
      <trkpt lat="43.18259" lon="2.36226">
        <ele>140</ele>
        <time>2019-06-16T06:03:42.000Z</time>
      </trkpt>
      <trkpt lat="43.18257" lon="2.36229">
        <ele>140</ele>
        <time>2019-06-16T06:03:43.000Z</time>
      </trkpt>
      <trkpt lat="43.18256" lon="2.36231">
        <ele>140</ele>
        <time>2019-06-16T06:03:44.000Z</time>
      </trkpt>
      <trkpt lat="43.18255" lon="2.36233">
        <ele>140.1</ele>
        <time>2019-06-16T06:03:45.000Z</time>
      </trkpt>
      <trkpt lat="43.18253" lon="2.36236">
        <ele>140.1</ele>
        <time>2019-06-16T06:03:46.000Z</time>
      </trkpt>
      <trkpt lat="43.18252" lon="2.36238">
        <ele>140.1</ele>
        <time>2019-06-16T06:03:47.000Z</time>
      </trkpt>
      <trkpt lat="43.18251" lon="2.3624">
        <ele>140.2</ele>
        <time>2019-06-16T06:03:48.000Z</time>
      </trkpt>
      <trkpt lat="43.18249" lon="2.36243">
        <ele>140.2</ele>
        <time>2019-06-16T06:03:49.000Z</time>
      </trkpt>
      <trkpt lat="43.18248" lon="2.36245">
        <ele>140.1</ele>
        <time>2019-06-16T06:03:50.000Z</time>
      </trkpt>
      <trkpt lat="43.18246" lon="2.36248">
        <ele>140.1</ele>
        <time>2019-06-16T06:03:51.000Z</time>
      </trkpt>
      <trkpt lat="43.18245" lon="2.3625">
        <ele>140.1</ele>
        <time>2019-06-16T06:03:52.000Z</time>
      </trkpt>
      <trkpt lat="43.18243" lon="2.36253">
        <ele>140.1</ele>
        <time>2019-06-16T06:03:53.000Z</time>
      </trkpt>
      <trkpt lat="43.18242" lon="2.36255">
        <ele>140</ele>
        <time>2019-06-16T06:03:54.000Z</time>
      </trkpt>
      <trkpt lat="43.18241" lon="2.36257">
        <ele>140</ele>
        <time>2019-06-16T06:03:55.000Z</time>
      </trkpt>
      <trkpt lat="43.18239" lon="2.3626">
        <ele>140</ele>
        <time>2019-06-16T06:03:56.000Z</time>
      </trkpt>
      <trkpt lat="43.18238" lon="2.36262">
        <ele>140</ele>
        <time>2019-06-16T06:03:57.000Z</time>
      </trkpt>
      <trkpt lat="43.18236" lon="2.36264">
        <ele>140.1</ele>
        <time>2019-06-16T06:03:58.000Z</time>
      </trkpt>
      <trkpt lat="43.18235" lon="2.36267">
        <ele>140.1</ele>
        <time>2019-06-16T06:03:59.000Z</time>
      </trkpt>
      <trkpt lat="43.18233" lon="2.36269">
        <ele>140.1</ele>
        <time>2019-06-16T06:04:00.000Z</time>
      </trkpt>
      <trkpt lat="43.18232" lon="2.36271">
        <ele>140.1</ele>
        <time>2019-06-16T06:04:01.000Z</time>
      </trkpt>
      <trkpt lat="43.1823" lon="2.36273">
        <ele>140.1</ele>
        <time>2019-06-16T06:04:02.000Z</time>
      </trkpt>
      <trkpt lat="43.18229" lon="2.36276">
        <ele>140.1</ele>
        <time>2019-06-16T06:04:03.000Z</time>
      </trkpt>
      <trkpt lat="43.18227" lon="2.36278">
        <ele>140.1</ele>
        <time>2019-06-16T06:04:04.000Z</time>
      </trkpt>
      <trkpt lat="43.18226" lon="2.3628">
        <ele>140.1</ele>
        <time>2019-06-16T06:04:05.000Z</time>
      </trkpt>
      <trkpt lat="43.18224" lon="2.36282">
        <ele>140.2</ele>
        <time>2019-06-16T06:04:06.000Z</time>
      </trkpt>
      <trkpt lat="43.18223" lon="2.36284">
        <ele>140.2</ele>
        <time>2019-06-16T06:04:07.000Z</time>
      </trkpt>
      <trkpt lat="43.18221" lon="2.36286">
        <ele>140.2</ele>
        <time>2019-06-16T06:04:08.000Z</time>
      </trkpt>
      <trkpt lat="43.1822" lon="2.36288">
        <ele>140.2</ele>
        <time>2019-06-16T06:04:09.000Z</time>
      </trkpt>
      <trkpt lat="43.18218" lon="2.3629">
        <ele>140.3</ele>
        <time>2019-06-16T06:04:10.000Z</time>
      </trkpt>
      <trkpt lat="43.18217" lon="2.36292">
        <ele>140.3</ele>
        <time>2019-06-16T06:04:11.000Z</time>
      </trkpt>
      <trkpt lat="43.18215" lon="2.36294">
        <ele>140.3</ele>
        <time>2019-06-16T06:04:12.000Z</time>
      </trkpt>
      <trkpt lat="43.18213" lon="2.36296">
        <ele>140.4</ele>
        <time>2019-06-16T06:04:13.000Z</time>
      </trkpt>
      <trkpt lat="43.18212" lon="2.36297">
        <ele>140.4</ele>
        <time>2019-06-16T06:04:14.000Z</time>
      </trkpt>
      <trkpt lat="43.1821" lon="2.36299">
        <ele>140.4</ele>
        <time>2019-06-16T06:04:15.000Z</time>
      </trkpt>
      <trkpt lat="43.18209" lon="2.36301">
        <ele>140.5</ele>
        <time>2019-06-16T06:04:16.000Z</time>
      </trkpt>
      <trkpt lat="43.18207" lon="2.36303">
        <ele>140.5</ele>
        <time>2019-06-16T06:04:17.000Z</time>
      </trkpt>
      <trkpt lat="43.18206" lon="2.36304">
        <ele>140.6</ele>
        <time>2019-06-16T06:04:18.000Z</time>
      </trkpt>
      <trkpt lat="43.18204" lon="2.36305">
        <ele>140.6</ele>
        <time>2019-06-16T06:04:19.000Z</time>
      </trkpt>
      <trkpt lat="43.18202" lon="2.36307">
        <ele>140.7</ele>
        <time>2019-06-16T06:04:20.000Z</time>
      </trkpt>
      <trkpt lat="43.182" lon="2.36308">
        <ele>140.7</ele>
        <time>2019-06-16T06:04:21.000Z</time>
      </trkpt>
      <trkpt lat="43.18198" lon="2.36309">
        <ele>140.8</ele>
        <time>2019-06-16T06:04:22.000Z</time>
      </trkpt>
      <trkpt lat="43.18196" lon="2.3631">
        <ele>140.8</ele>
        <time>2019-06-16T06:04:23.000Z</time>
      </trkpt>
      <trkpt lat="43.18194" lon="2.36311">
        <ele>140.9</ele>
        <time>2019-06-16T06:04:24.000Z</time>
      </trkpt>
      <trkpt lat="43.18192" lon="2.36312">
        <ele>141</ele>
        <time>2019-06-16T06:04:25.000Z</time>
      </trkpt>
      <trkpt lat="43.1819" lon="2.36312">
        <ele>141</ele>
        <time>2019-06-16T06:04:26.000Z</time>
      </trkpt>
      <trkpt lat="43.18188" lon="2.36313">
        <ele>141.1</ele>
        <time>2019-06-16T06:04:27.000Z</time>
      </trkpt>
      <trkpt lat="43.18186" lon="2.36313">
        <ele>141.2</ele>
        <time>2019-06-16T06:04:28.000Z</time>
      </trkpt>
      <trkpt lat="43.18184" lon="2.36313">
        <ele>141.2</ele>
        <time>2019-06-16T06:04:29.000Z</time>
      </trkpt>
      <trkpt lat="43.18181" lon="2.36313">
        <ele>141.3</ele>
        <time>2019-06-16T06:04:30.000Z</time>
      </trkpt>
      <trkpt lat="43.18179" lon="2.36313">
        <ele>141.4</ele>
        <time>2019-06-16T06:04:31.000Z</time>
      </trkpt>
      <trkpt lat="43.18177" lon="2.36313">
        <ele>141.4</ele>
        <time>2019-06-16T06:04:32.000Z</time>
      </trkpt>
      <trkpt lat="43.18175" lon="2.36313">
        <ele>141.5</ele>
        <time>2019-06-16T06:04:33.000Z</time>
      </trkpt>
      <trkpt lat="43.18173" lon="2.36312">
        <ele>141.6</ele>
        <time>2019-06-16T06:04:34.000Z</time>
      </trkpt>
      <trkpt lat="43.18171" lon="2.36312">
        <ele>141.6</ele>
        <time>2019-06-16T06:04:35.000Z</time>
      </trkpt>
      <trkpt lat="43.18169" lon="2.36311">
        <ele>141.7</ele>
        <time>2019-06-16T06:04:36.000Z</time>
      </trkpt>
      <trkpt lat="43.18167" lon="2.36311">
        <ele>141.7</ele>
        <time>2019-06-16T06:04:37.000Z</time>
      </trkpt>
      <trkpt lat="43.18165" lon="2.3631">
        <ele>141.6</ele>
        <time>2019-06-16T06:04:38.000Z</time>
      </trkpt>
      <trkpt lat="43.18163" lon="2.36309">
        <ele>141.5</ele>
        <time>2019-06-16T06:04:39.000Z</time>
      </trkpt>
      <trkpt lat="43.18161" lon="2.36309">
        <ele>141.4</ele>
        <time>2019-06-16T06:04:40.000Z</time>
      </trkpt>
      <trkpt lat="43.18159" lon="2.36308">
        <ele>141.4</ele>
        <time>2019-06-16T06:04:41.000Z</time>
      </trkpt>
      <trkpt lat="43.18157" lon="2.36307">
        <ele>141.3</ele>
        <time>2019-06-16T06:04:42.000Z</time>
      </trkpt>
      <trkpt lat="43.18155" lon="2.36307">
        <ele>141.2</ele>
        <time>2019-06-16T06:04:43.000Z</time>
      </trkpt>
      <trkpt lat="43.18153" lon="2.36306">
        <ele>141.1</ele>
        <time>2019-06-16T06:04:44.000Z</time>
      </trkpt>
      <trkpt lat="43.18151" lon="2.36305">
        <ele>141</ele>
        <time>2019-06-16T06:04:45.000Z</time>
      </trkpt>
      <trkpt lat="43.18149" lon="2.36304">
        <ele>140.9</ele>
        <time>2019-06-16T06:04:46.000Z</time>
      </trkpt>
      <trkpt lat="43.18147" lon="2.36304">
        <ele>140.8</ele>
        <time>2019-06-16T06:04:47.000Z</time>
      </trkpt>
      <trkpt lat="43.18145" lon="2.36303">
        <ele>140.7</ele>
        <time>2019-06-16T06:04:48.000Z</time>
      </trkpt>
      <trkpt lat="43.18143" lon="2.36302">
        <ele>140.6</ele>
        <time>2019-06-16T06:04:49.000Z</time>
      </trkpt>
      <trkpt lat="43.1814" lon="2.36301">
        <ele>140.5</ele>
        <time>2019-06-16T06:04:50.000Z</time>
      </trkpt>
      <trkpt lat="43.18138" lon="2.363">
        <ele>140.4</ele>
        <time>2019-06-16T06:04:51.000Z</time>
      </trkpt>
      <trkpt lat="43.18136" lon="2.363">
        <ele>140.3</ele>
        <time>2019-06-16T06:04:52.000Z</time>
      </trkpt>
      <trkpt lat="43.18134" lon="2.36299">
        <ele>140.2</ele>
        <time>2019-06-16T06:04:53.000Z</time>
      </trkpt>
      <trkpt lat="43.18132" lon="2.36298">
        <ele>140.1</ele>
        <time>2019-06-16T06:04:54.000Z</time>
      </trkpt>
      <trkpt lat="43.18129" lon="2.36297">
        <ele>140</ele>
        <time>2019-06-16T06:04:55.000Z</time>
      </trkpt>
      <trkpt lat="43.18127" lon="2.36297">
        <ele>139.9</ele>
        <time>2019-06-16T06:04:56.000Z</time>
      </trkpt>
      <trkpt lat="43.18125" lon="2.36296">
        <ele>139.8</ele>
        <time>2019-06-16T06:04:57.000Z</time>
      </trkpt>
      <trkpt lat="43.18123" lon="2.36295">
        <ele>139.7</ele>
        <time>2019-06-16T06:04:58.000Z</time>
      </trkpt>
      <trkpt lat="43.1812" lon="2.36295">
        <ele>139.6</ele>
        <time>2019-06-16T06:04:59.000Z</time>
      </trkpt>
      <trkpt lat="43.18118" lon="2.36294">
        <ele>139.5</ele>
        <time>2019-06-16T06:05:00.000Z</time>
      </trkpt>
      <trkpt lat="43.18116" lon="2.36293">
        <ele>139.4</ele>
        <time>2019-06-16T06:05:01.000Z</time>
      </trkpt>
      <trkpt lat="43.18113" lon="2.36293">
        <ele>139.3</ele>
        <time>2019-06-16T06:05:02.000Z</time>
      </trkpt>
      <trkpt lat="43.18111" lon="2.36292">
        <ele>139.2</ele>
        <time>2019-06-16T06:05:03.000Z</time>
      </trkpt>
      <trkpt lat="43.18109" lon="2.36292">
        <ele>139.1</ele>
        <time>2019-06-16T06:05:04.000Z</time>
      </trkpt>
      <trkpt lat="43.18106" lon="2.36291">
        <ele>139</ele>
        <time>2019-06-16T06:05:05.000Z</time>
      </trkpt>
      <trkpt lat="43.18104" lon="2.3629">
        <ele>138.9</ele>
        <time>2019-06-16T06:05:06.000Z</time>
      </trkpt>
      <trkpt lat="43.18102" lon="2.3629">
        <ele>138.8</ele>
        <time>2019-06-16T06:05:07.000Z</time>
      </trkpt>
      <trkpt lat="43.181" lon="2.36289">
        <ele>138.7</ele>
        <time>2019-06-16T06:05:08.000Z</time>
      </trkpt>
      <trkpt lat="43.18097" lon="2.36288">
        <ele>138.6</ele>
        <time>2019-06-16T06:05:09.000Z</time>
      </trkpt>
      <trkpt lat="43.18095" lon="2.36288">
        <ele>138.5</ele>
        <time>2019-06-16T06:05:10.000Z</time>
      </trkpt>
      <trkpt lat="43.18093" lon="2.36287">
        <ele>138.4</ele>
        <time>2019-06-16T06:05:11.000Z</time>
      </trkpt>
      <trkpt lat="43.1809" lon="2.36287">
        <ele>138.3</ele>
        <time>2019-06-16T06:05:12.000Z</time>
      </trkpt>
      <trkpt lat="43.18088" lon="2.36286">
        <ele>138.2</ele>
        <time>2019-06-16T06:05:13.000Z</time>
      </trkpt>
      <trkpt lat="43.18086" lon="2.36286">
        <ele>138.1</ele>
        <time>2019-06-16T06:05:14.000Z</time>
      </trkpt>
      <trkpt lat="43.18084" lon="2.36285">
        <ele>138</ele>
        <time>2019-06-16T06:05:15.000Z</time>
      </trkpt>
      <trkpt lat="43.18081" lon="2.36284">
        <ele>138.1</ele>
        <time>2019-06-16T06:05:16.000Z</time>
      </trkpt>
      <trkpt lat="43.18079" lon="2.36284">
        <ele>138.1</ele>
        <time>2019-06-16T06:05:17.000Z</time>
      </trkpt>
      <trkpt lat="43.18077" lon="2.36283">
        <ele>138.2</ele>
        <time>2019-06-16T06:05:18.000Z</time>
      </trkpt>
      <trkpt lat="43.18075" lon="2.36282">
        <ele>138.3</ele>
        <time>2019-06-16T06:05:19.000Z</time>
      </trkpt>
      <trkpt lat="43.18072" lon="2.36282">
        <ele>138.3</ele>
        <time>2019-06-16T06:05:20.000Z</time>
      </trkpt>
      <trkpt lat="43.1807" lon="2.36281">
        <ele>138.4</ele>
        <time>2019-06-16T06:05:21.000Z</time>
      </trkpt>
      <trkpt lat="43.18068" lon="2.36281">
        <ele>138.5</ele>
        <time>2019-06-16T06:05:22.000Z</time>
      </trkpt>
      <trkpt lat="43.18065" lon="2.3628">
        <ele>138.6</ele>
        <time>2019-06-16T06:05:23.000Z</time>
      </trkpt>
      <trkpt lat="43.18063" lon="2.36279">
        <ele>138.6</ele>
        <time>2019-06-16T06:05:24.000Z</time>
      </trkpt>
      <trkpt lat="43.18061" lon="2.36278">
        <ele>138.7</ele>
        <time>2019-06-16T06:05:25.000Z</time>
      </trkpt>
      <trkpt lat="43.18058" lon="2.36278">
        <ele>138.8</ele>
        <time>2019-06-16T06:05:26.000Z</time>
      </trkpt>
      <trkpt lat="43.18056" lon="2.36277">
        <ele>138.9</ele>
        <time>2019-06-16T06:05:27.000Z</time>
      </trkpt>
      <trkpt lat="43.18054" lon="2.36276">
        <ele>139</ele>
        <time>2019-06-16T06:05:28.000Z</time>
      </trkpt>
      <trkpt lat="43.18051" lon="2.36275">
        <ele>139</ele>
        <time>2019-06-16T06:05:29.000Z</time>
      </trkpt>
      <trkpt lat="43.18049" lon="2.36275">
        <ele>139.1</ele>
        <time>2019-06-16T06:05:30.000Z</time>
      </trkpt>
      <trkpt lat="43.18046" lon="2.36274">
        <ele>139.2</ele>
        <time>2019-06-16T06:05:31.000Z</time>
      </trkpt>
      <trkpt lat="43.18044" lon="2.36273">
        <ele>139.3</ele>
        <time>2019-06-16T06:05:32.000Z</time>
      </trkpt>
      <trkpt lat="43.18042" lon="2.36273">
        <ele>139.4</ele>
        <time>2019-06-16T06:05:33.000Z</time>
      </trkpt>
      <trkpt lat="43.18039" lon="2.36272">
        <ele>139.4</ele>
        <time>2019-06-16T06:05:34.000Z</time>
      </trkpt>
      <trkpt lat="43.18037" lon="2.36271">
        <ele>139.5</ele>
        <time>2019-06-16T06:05:35.000Z</time>
      </trkpt>
      <trkpt lat="43.18035" lon="2.36271">
        <ele>139.6</ele>
        <time>2019-06-16T06:05:36.000Z</time>
      </trkpt>
      <trkpt lat="43.18032" lon="2.3627">
        <ele>139.7</ele>
        <time>2019-06-16T06:05:37.000Z</time>
      </trkpt>
      <trkpt lat="43.1803" lon="2.3627">
        <ele>139.8</ele>
        <time>2019-06-16T06:05:38.000Z</time>
      </trkpt>
      <trkpt lat="43.18028" lon="2.36269">
        <ele>139.9</ele>
        <time>2019-06-16T06:05:39.000Z</time>
      </trkpt>
      <trkpt lat="43.18025" lon="2.36269">
        <ele>139.9</ele>
        <time>2019-06-16T06:05:40.000Z</time>
      </trkpt>
      <trkpt lat="43.18023" lon="2.36268">
        <ele>140</ele>
        <time>2019-06-16T06:05:41.000Z</time>
      </trkpt>
      <trkpt lat="43.18021" lon="2.36267">
        <ele>140.1</ele>
        <time>2019-06-16T06:05:42.000Z</time>
      </trkpt>
      <trkpt lat="43.18019" lon="2.36267">
        <ele>140.2</ele>
        <time>2019-06-16T06:05:43.000Z</time>
      </trkpt>
      <trkpt lat="43.18017" lon="2.36266">
        <ele>140.2</ele>
        <time>2019-06-16T06:05:44.000Z</time>
      </trkpt>
      <trkpt lat="43.18014" lon="2.36266">
        <ele>140.3</ele>
        <time>2019-06-16T06:05:45.000Z</time>
      </trkpt>
      <trkpt lat="43.18012" lon="2.36266">
        <ele>140.4</ele>
        <time>2019-06-16T06:05:46.000Z</time>
      </trkpt>
      <trkpt lat="43.1801" lon="2.36265">
        <ele>140.5</ele>
        <time>2019-06-16T06:05:47.000Z</time>
      </trkpt>
      <trkpt lat="43.18008" lon="2.36265">
        <ele>140.6</ele>
        <time>2019-06-16T06:05:48.000Z</time>
      </trkpt>
      <trkpt lat="43.18006" lon="2.36264">
        <ele>140.6</ele>
        <time>2019-06-16T06:05:49.000Z</time>
      </trkpt>
      <trkpt lat="43.18004" lon="2.36264">
        <ele>140.7</ele>
        <time>2019-06-16T06:05:50.000Z</time>
      </trkpt>
      <trkpt lat="43.18002" lon="2.36263">
        <ele>140.8</ele>
        <time>2019-06-16T06:05:51.000Z</time>
      </trkpt>
      <trkpt lat="43.17999" lon="2.36263">
        <ele>140.9</ele>
        <time>2019-06-16T06:05:52.000Z</time>
      </trkpt>
      <trkpt lat="43.17997" lon="2.36262">
        <ele>141</ele>
        <time>2019-06-16T06:05:53.000Z</time>
      </trkpt>
      <trkpt lat="43.17995" lon="2.36262">
        <ele>141.1</ele>
        <time>2019-06-16T06:05:54.000Z</time>
      </trkpt>
      <trkpt lat="43.17993" lon="2.36262">
        <ele>141.1</ele>
        <time>2019-06-16T06:05:55.000Z</time>
      </trkpt>
      <trkpt lat="43.17991" lon="2.36261">
        <ele>141.2</ele>
        <time>2019-06-16T06:05:56.000Z</time>
      </trkpt>
      <trkpt lat="43.17989" lon="2.36261">
        <ele>141.3</ele>
        <time>2019-06-16T06:05:57.000Z</time>
      </trkpt>
      <trkpt lat="43.17987" lon="2.3626">
        <ele>141.4</ele>
        <time>2019-06-16T06:05:58.000Z</time>
      </trkpt>
      <trkpt lat="43.17984" lon="2.3626">
        <ele>141.5</ele>
        <time>2019-06-16T06:05:59.000Z</time>
      </trkpt>
      <trkpt lat="43.17982" lon="2.36259">
        <ele>141.6</ele>
        <time>2019-06-16T06:06:00.000Z</time>
      </trkpt>
      <trkpt lat="43.1798" lon="2.36259">
        <ele>141.7</ele>
        <time>2019-06-16T06:06:01.000Z</time>
      </trkpt>
      <trkpt lat="43.17978" lon="2.36259">
        <ele>141.8</ele>
        <time>2019-06-16T06:06:02.000Z</time>
      </trkpt>
      <trkpt lat="43.17975" lon="2.36258">
        <ele>141.9</ele>
        <time>2019-06-16T06:06:03.000Z</time>
      </trkpt>
      <trkpt lat="43.17973" lon="2.36258">
        <ele>142</ele>
        <time>2019-06-16T06:06:04.000Z</time>
      </trkpt>
      <trkpt lat="43.17971" lon="2.36257">
        <ele>142</ele>
        <time>2019-06-16T06:06:05.000Z</time>
      </trkpt>
      <trkpt lat="43.17969" lon="2.36257">
        <ele>142.1</ele>
        <time>2019-06-16T06:06:06.000Z</time>
      </trkpt>
      <trkpt lat="43.17967" lon="2.36256">
        <ele>142.2</ele>
        <time>2019-06-16T06:06:07.000Z</time>
      </trkpt>
      <trkpt lat="43.17965" lon="2.36256">
        <ele>142.3</ele>
        <time>2019-06-16T06:06:08.000Z</time>
      </trkpt>
      <trkpt lat="43.17962" lon="2.36255">
        <ele>142.4</ele>
        <time>2019-06-16T06:06:09.000Z</time>
      </trkpt>
      <trkpt lat="43.1796" lon="2.36255">
        <ele>142.5</ele>
        <time>2019-06-16T06:06:10.000Z</time>
      </trkpt>
      <trkpt lat="43.17958" lon="2.36254">
        <ele>142.5</ele>
        <time>2019-06-16T06:06:11.000Z</time>
      </trkpt>
      <trkpt lat="43.17956" lon="2.36254">
        <ele>142.6</ele>
        <time>2019-06-16T06:06:12.000Z</time>
      </trkpt>
      <trkpt lat="43.17954" lon="2.36253">
        <ele>142.7</ele>
        <time>2019-06-16T06:06:13.000Z</time>
      </trkpt>
      <trkpt lat="43.17952" lon="2.36253">
        <ele>142.8</ele>
        <time>2019-06-16T06:06:14.000Z</time>
      </trkpt>
      <trkpt lat="43.1795" lon="2.36252">
        <ele>142.8</ele>
        <time>2019-06-16T06:06:15.000Z</time>
      </trkpt>
      <trkpt lat="43.17948" lon="2.36252">
        <ele>142.9</ele>
        <time>2019-06-16T06:06:16.000Z</time>
      </trkpt>
      <trkpt lat="43.17946" lon="2.36251">
        <ele>143</ele>
        <time>2019-06-16T06:06:17.000Z</time>
      </trkpt>
      <trkpt lat="43.17944" lon="2.36251">
        <ele>143</ele>
        <time>2019-06-16T06:06:18.000Z</time>
      </trkpt>
      <trkpt lat="43.17942" lon="2.3625">
        <ele>143.1</ele>
        <time>2019-06-16T06:06:19.000Z</time>
      </trkpt>
      <trkpt lat="43.1794" lon="2.36249">
        <ele>143.1</ele>
        <time>2019-06-16T06:06:20.000Z</time>
      </trkpt>
      <trkpt lat="43.17939" lon="2.36249">
        <ele>143.2</ele>
        <time>2019-06-16T06:06:21.000Z</time>
      </trkpt>
      <trkpt lat="43.17937" lon="2.36249">
        <ele>143.3</ele>
        <time>2019-06-16T06:06:22.000Z</time>
      </trkpt>
      <trkpt lat="43.17935" lon="2.36248">
        <ele>143.3</ele>
        <time>2019-06-16T06:06:23.000Z</time>
      </trkpt>
      <trkpt lat="43.17933" lon="2.36248">
        <ele>143.4</ele>
        <time>2019-06-16T06:06:24.000Z</time>
      </trkpt>
      <trkpt lat="43.17932" lon="2.36249">
        <ele>143.4</ele>
        <time>2019-06-16T06:06:25.000Z</time>
      </trkpt>
      <trkpt lat="43.1793" lon="2.36249">
        <ele>143.5</ele>
        <time>2019-06-16T06:06:26.000Z</time>
      </trkpt>
      <trkpt lat="43.17928" lon="2.3625">
        <ele>143.6</ele>
        <time>2019-06-16T06:06:27.000Z</time>
      </trkpt>
      <trkpt lat="43.17927" lon="2.3625">
        <ele>143.6</ele>
        <time>2019-06-16T06:06:28.000Z</time>
      </trkpt>
      <trkpt lat="43.17925" lon="2.36251">
        <ele>143.7</ele>
        <time>2019-06-16T06:06:29.000Z</time>
      </trkpt>
      <trkpt lat="43.17924" lon="2.36253">
        <ele>143.8</ele>
        <time>2019-06-16T06:06:30.000Z</time>
      </trkpt>
      <trkpt lat="43.17923" lon="2.36254">
        <ele>143.9</ele>
        <time>2019-06-16T06:06:31.000Z</time>
      </trkpt>
      <trkpt lat="43.17922" lon="2.36256">
        <ele>143.9</ele>
        <time>2019-06-16T06:06:32.000Z</time>
      </trkpt>
      <trkpt lat="43.17921" lon="2.36257">
        <ele>144</ele>
        <time>2019-06-16T06:06:33.000Z</time>
      </trkpt>
      <trkpt lat="43.1792" lon="2.36259">
        <ele>144.1</ele>
        <time>2019-06-16T06:06:34.000Z</time>
      </trkpt>
      <trkpt lat="43.17919" lon="2.36261">
        <ele>144.2</ele>
        <time>2019-06-16T06:06:35.000Z</time>
      </trkpt>
      <trkpt lat="43.17917" lon="2.36263">
        <ele>144.3</ele>
        <time>2019-06-16T06:06:36.000Z</time>
      </trkpt>
      <trkpt lat="43.17916" lon="2.36265">
        <ele>144.4</ele>
        <time>2019-06-16T06:06:37.000Z</time>
      </trkpt>
      <trkpt lat="43.17915" lon="2.36267">
        <ele>144.4</ele>
        <time>2019-06-16T06:06:38.000Z</time>
      </trkpt>
      <trkpt lat="43.17914" lon="2.36269">
        <ele>144.4</ele>
        <time>2019-06-16T06:06:39.000Z</time>
      </trkpt>
      <trkpt lat="43.17913" lon="2.36272">
        <ele>144.5</ele>
        <time>2019-06-16T06:06:40.000Z</time>
      </trkpt>
      <trkpt lat="43.17912" lon="2.36274">
        <ele>144.5</ele>
        <time>2019-06-16T06:06:41.000Z</time>
      </trkpt>
      <trkpt lat="43.17911" lon="2.36276">
        <ele>144.6</ele>
        <time>2019-06-16T06:06:42.000Z</time>
      </trkpt>
      <trkpt lat="43.1791" lon="2.36279">
        <ele>144.6</ele>
        <time>2019-06-16T06:06:43.000Z</time>
      </trkpt>
      <trkpt lat="43.17909" lon="2.36282">
        <ele>144.7</ele>
        <time>2019-06-16T06:06:44.000Z</time>
      </trkpt>
      <trkpt lat="43.17907" lon="2.36284">
        <ele>144.7</ele>
        <time>2019-06-16T06:06:45.000Z</time>
      </trkpt>
      <trkpt lat="43.17906" lon="2.36287">
        <ele>144.8</ele>
        <time>2019-06-16T06:06:46.000Z</time>
      </trkpt>
      <trkpt lat="43.17905" lon="2.36289">
        <ele>144.8</ele>
        <time>2019-06-16T06:06:47.000Z</time>
      </trkpt>
      <trkpt lat="43.17905" lon="2.36292">
        <ele>144.9</ele>
        <time>2019-06-16T06:06:48.000Z</time>
      </trkpt>
      <trkpt lat="43.17904" lon="2.36294">
        <ele>144.9</ele>
        <time>2019-06-16T06:06:49.000Z</time>
      </trkpt>
      <trkpt lat="43.17903" lon="2.36296">
        <ele>144.9</ele>
        <time>2019-06-16T06:06:50.000Z</time>
      </trkpt>
      <trkpt lat="43.17902" lon="2.36299">
        <ele>145</ele>
        <time>2019-06-16T06:06:51.000Z</time>
      </trkpt>
      <trkpt lat="43.17901" lon="2.36301">
        <ele>145</ele>
        <time>2019-06-16T06:06:52.000Z</time>
      </trkpt>
      <trkpt lat="43.179" lon="2.36303">
        <ele>145.1</ele>
        <time>2019-06-16T06:06:53.000Z</time>
      </trkpt>
      <trkpt lat="43.17899" lon="2.36305">
        <ele>145.1</ele>
        <time>2019-06-16T06:06:54.000Z</time>
      </trkpt>
      <trkpt lat="43.17899" lon="2.36307">
        <ele>145.1</ele>
        <time>2019-06-16T06:06:55.000Z</time>
      </trkpt>
      <trkpt lat="43.17898" lon="2.36309">
        <ele>145.2</ele>
        <time>2019-06-16T06:06:56.000Z</time>
      </trkpt>
      <trkpt lat="43.17897" lon="2.36311">
        <ele>145.2</ele>
        <time>2019-06-16T06:06:57.000Z</time>
      </trkpt>
      <trkpt lat="43.17896" lon="2.36314">
        <ele>145.3</ele>
        <time>2019-06-16T06:06:58.000Z</time>
      </trkpt>
      <trkpt lat="43.17895" lon="2.36316">
        <ele>145.3</ele>
        <time>2019-06-16T06:06:59.000Z</time>
      </trkpt>
      <trkpt lat="43.17894" lon="2.36319">
        <ele>145.4</ele>
        <time>2019-06-16T06:07:00.000Z</time>
      </trkpt>
      <trkpt lat="43.17893" lon="2.36321">
        <ele>145.4</ele>
        <time>2019-06-16T06:07:01.000Z</time>
      </trkpt>
      <trkpt lat="43.17891" lon="2.36324">
        <ele>145.5</ele>
        <time>2019-06-16T06:07:02.000Z</time>
      </trkpt>
      <trkpt lat="43.1789" lon="2.36326">
        <ele>145.5</ele>
        <time>2019-06-16T06:07:03.000Z</time>
      </trkpt>
      <trkpt lat="43.17889" lon="2.36329">
        <ele>145.6</ele>
        <time>2019-06-16T06:07:04.000Z</time>
      </trkpt>
      <trkpt lat="43.17888" lon="2.36331">
        <ele>145.6</ele>
        <time>2019-06-16T06:07:05.000Z</time>
      </trkpt>
      <trkpt lat="43.17887" lon="2.36333">
        <ele>145.6</ele>
        <time>2019-06-16T06:07:06.000Z</time>
      </trkpt>
      <trkpt lat="43.17886" lon="2.36336">
        <ele>145.7</ele>
        <time>2019-06-16T06:07:07.000Z</time>
      </trkpt>
      <trkpt lat="43.17886" lon="2.36337">
        <ele>145.7</ele>
        <time>2019-06-16T06:07:08.000Z</time>
      </trkpt>
      <trkpt lat="43.17885" lon="2.36339">
        <ele>145.7</ele>
        <time>2019-06-16T06:07:09.000Z</time>
      </trkpt>
      <trkpt lat="43.17884" lon="2.36341">
        <ele>145.8</ele>
        <time>2019-06-16T06:07:10.000Z</time>
      </trkpt>
      <trkpt lat="43.17884" lon="2.36343">
        <ele>145.8</ele>
        <time>2019-06-16T06:07:11.000Z</time>
      </trkpt>
      <trkpt lat="43.17883" lon="2.36345">
        <ele>145.8</ele>
        <time>2019-06-16T06:07:12.000Z</time>
      </trkpt>
      <trkpt lat="43.17882" lon="2.36347">
        <ele>145.9</ele>
        <time>2019-06-16T06:07:13.000Z</time>
      </trkpt>
      <trkpt lat="43.17882" lon="2.3635">
        <ele>145.9</ele>
        <time>2019-06-16T06:07:14.000Z</time>
      </trkpt>
      <trkpt lat="43.17881" lon="2.36352">
        <ele>146</ele>
        <time>2019-06-16T06:07:15.000Z</time>
      </trkpt>
      <trkpt lat="43.1788" lon="2.36355">
        <ele>146</ele>
        <time>2019-06-16T06:07:16.000Z</time>
      </trkpt>
      <trkpt lat="43.17879" lon="2.36357">
        <ele>146.1</ele>
        <time>2019-06-16T06:07:17.000Z</time>
      </trkpt>
      <trkpt lat="43.17879" lon="2.3636">
        <ele>146.1</ele>
        <time>2019-06-16T06:07:18.000Z</time>
      </trkpt>
      <trkpt lat="43.17878" lon="2.36362">
        <ele>146.2</ele>
        <time>2019-06-16T06:07:19.000Z</time>
      </trkpt>
      <trkpt lat="43.17877" lon="2.36364">
        <ele>146.2</ele>
        <time>2019-06-16T06:07:20.000Z</time>
      </trkpt>
      <trkpt lat="43.17877" lon="2.36366">
        <ele>146.3</ele>
        <time>2019-06-16T06:07:21.000Z</time>
      </trkpt>
      <trkpt lat="43.17876" lon="2.36367">
        <ele>146.3</ele>
        <time>2019-06-16T06:07:22.000Z</time>
      </trkpt>
      <trkpt lat="43.17876" lon="2.36368">
        <ele>146.3</ele>
        <time>2019-06-16T06:07:23.000Z</time>
      </trkpt>
      <trkpt lat="43.17876" lon="2.36369">
        <ele>146.3</ele>
        <time>2019-06-16T06:07:24.000Z</time>
      </trkpt>
      <trkpt lat="43.17876" lon="2.36369">
        <ele>146.4</ele>
        <time>2019-06-16T06:07:25.000Z</time>
      </trkpt>
      <trkpt lat="43.17875" lon="2.36369">
        <ele>146.4</ele>
        <time>2019-06-16T06:07:26.000Z</time>
      </trkpt>
      <trkpt lat="43.17875" lon="2.3637">
        <ele>146.4</ele>
        <time>2019-06-16T06:07:27.000Z</time>
      </trkpt>
      <trkpt lat="43.17875" lon="2.3637">
        <ele>146.4</ele>
        <time>2019-06-16T06:07:28.000Z</time>
      </trkpt>
      <trkpt lat="43.17875" lon="2.36371">
        <ele>146.4</ele>
        <time>2019-06-16T06:07:29.000Z</time>
      </trkpt>
      <trkpt lat="43.17875" lon="2.36371">
        <ele>146.4</ele>
        <time>2019-06-16T06:07:30.000Z</time>
      </trkpt>
      <trkpt lat="43.17875" lon="2.36372">
        <ele>146.4</ele>
        <time>2019-06-16T06:07:31.000Z</time>
      </trkpt>
      <trkpt lat="43.17875" lon="2.36373">
        <ele>146.4</ele>
        <time>2019-06-16T06:07:32.000Z</time>
      </trkpt>
      <trkpt lat="43.17874" lon="2.36373">
        <ele>146.5</ele>
        <time>2019-06-16T06:07:33.000Z</time>
      </trkpt>
      <trkpt lat="43.17874" lon="2.36374">
        <ele>146.5</ele>
        <time>2019-06-16T06:07:34.000Z</time>
      </trkpt>
      <trkpt lat="43.17874" lon="2.36375">
        <ele>146.5</ele>
        <time>2019-06-16T06:07:35.000Z</time>
      </trkpt>
      <trkpt lat="43.17874" lon="2.36376">
        <ele>146.6</ele>
        <time>2019-06-16T06:07:36.000Z</time>
      </trkpt>
      <trkpt lat="43.17873" lon="2.36378">
        <ele>146.6</ele>
        <time>2019-06-16T06:07:37.000Z</time>
      </trkpt>
      <trkpt lat="43.17873" lon="2.36379">
        <ele>146.6</ele>
        <time>2019-06-16T06:07:38.000Z</time>
      </trkpt>
      <trkpt lat="43.17873" lon="2.3638">
        <ele>146.6</ele>
        <time>2019-06-16T06:07:39.000Z</time>
      </trkpt>
      <trkpt lat="43.17873" lon="2.3638">
        <ele>146.7</ele>
        <time>2019-06-16T06:07:40.000Z</time>
      </trkpt>
      <trkpt lat="43.17873" lon="2.36381">
        <ele>146.7</ele>
        <time>2019-06-16T06:07:41.000Z</time>
      </trkpt>
      <trkpt lat="43.17873" lon="2.36382">
        <ele>146.7</ele>
        <time>2019-06-16T06:07:42.000Z</time>
      </trkpt>
      <trkpt lat="43.17873" lon="2.36382">
        <ele>146.7</ele>
        <time>2019-06-16T06:07:43.000Z</time>
      </trkpt>
      <trkpt lat="43.17873" lon="2.36383">
        <ele>146.7</ele>
        <time>2019-06-16T06:07:44.000Z</time>
      </trkpt>
      <trkpt lat="43.17873" lon="2.36383">
        <ele>146.7</ele>
        <time>2019-06-16T06:07:45.000Z</time>
      </trkpt>
      <trkpt lat="43.17873" lon="2.36383">
        <ele>146.7</ele>
        <time>2019-06-16T06:07:46.000Z</time>
      </trkpt>
      <trkpt lat="43.17873" lon="2.36383">
        <ele>146.7</ele>
        <time>2019-06-16T06:07:47.000Z</time>
      </trkpt>
      <trkpt lat="43.17873" lon="2.36382">
        <ele>146.7</ele>
        <time>2019-06-16T06:07:48.000Z</time>
      </trkpt>
      <trkpt lat="43.17873" lon="2.36382">
        <ele>146.7</ele>
        <time>2019-06-16T06:07:49.000Z</time>
      </trkpt>
      <trkpt lat="43.17874" lon="2.36382">
        <ele>146.7</ele>
        <time>2019-06-16T06:07:50.000Z</time>
      </trkpt>
      <trkpt lat="43.17874" lon="2.36381">
        <ele>146.7</ele>
        <time>2019-06-16T06:07:51.000Z</time>
      </trkpt>
      <trkpt lat="43.17874" lon="2.36381">
        <ele>146.7</ele>
        <time>2019-06-16T06:07:52.000Z</time>
      </trkpt>
      <trkpt lat="43.17874" lon="2.3638">
        <ele>146.6</ele>
        <time>2019-06-16T06:07:53.000Z</time>
      </trkpt>
      <trkpt lat="43.17874" lon="2.3638">
        <ele>146.6</ele>
        <time>2019-06-16T06:07:54.000Z</time>
      </trkpt>
      <trkpt lat="43.17874" lon="2.3638">
        <ele>146.6</ele>
        <time>2019-06-16T06:07:55.000Z</time>
      </trkpt>
      <trkpt lat="43.17874" lon="2.36381">
        <ele>146.6</ele>
        <time>2019-06-16T06:07:56.000Z</time>
      </trkpt>
      <trkpt lat="43.17874" lon="2.36381">
        <ele>146.7</ele>
        <time>2019-06-16T06:07:57.000Z</time>
      </trkpt>
      <trkpt lat="43.17874" lon="2.36382">
        <ele>146.7</ele>
        <time>2019-06-16T06:07:58.000Z</time>
      </trkpt>
      <trkpt lat="43.17875" lon="2.36383">
        <ele>146.7</ele>
        <time>2019-06-16T06:07:59.000Z</time>
      </trkpt>
      <trkpt lat="43.17875" lon="2.36385">
        <ele>146.7</ele>
        <time>2019-06-16T06:08:00.000Z</time>
      </trkpt>
      <trkpt lat="43.17875" lon="2.36387">
        <ele>146.8</ele>
        <time>2019-06-16T06:08:01.000Z</time>
      </trkpt>
      <trkpt lat="43.17874" lon="2.36389">
        <ele>146.9</ele>
        <time>2019-06-16T06:08:02.000Z</time>
      </trkpt>
      <trkpt lat="43.17874" lon="2.36392">
        <ele>146.9</ele>
        <time>2019-06-16T06:08:03.000Z</time>
      </trkpt>
      <trkpt lat="43.17873" lon="2.36394">
        <ele>147</ele>
        <time>2019-06-16T06:08:04.000Z</time>
      </trkpt>
      <trkpt lat="43.17872" lon="2.36397">
        <ele>147.1</ele>
        <time>2019-06-16T06:08:05.000Z</time>
      </trkpt>
      <trkpt lat="43.1787" lon="2.364">
        <ele>147.2</ele>
        <time>2019-06-16T06:08:06.000Z</time>
      </trkpt>
      <trkpt lat="43.17869" lon="2.36403">
        <ele>147.3</ele>
        <time>2019-06-16T06:08:07.000Z</time>
      </trkpt>
      <trkpt lat="43.17868" lon="2.36406">
        <ele>147.5</ele>
        <time>2019-06-16T06:08:08.000Z</time>
      </trkpt>
      <trkpt lat="43.17867" lon="2.36409">
        <ele>147.6</ele>
        <time>2019-06-16T06:08:09.000Z</time>
      </trkpt>
      <trkpt lat="43.17866" lon="2.36412">
        <ele>147.7</ele>
        <time>2019-06-16T06:08:10.000Z</time>
      </trkpt>
      <trkpt lat="43.17865" lon="2.36415">
        <ele>147.8</ele>
        <time>2019-06-16T06:08:11.000Z</time>
      </trkpt>
      <trkpt lat="43.17864" lon="2.36418">
        <ele>147.9</ele>
        <time>2019-06-16T06:08:12.000Z</time>
      </trkpt>
      <trkpt lat="43.17863" lon="2.36421">
        <ele>148</ele>
        <time>2019-06-16T06:08:13.000Z</time>
      </trkpt>
      <trkpt lat="43.17862" lon="2.36424">
        <ele>148.1</ele>
        <time>2019-06-16T06:08:14.000Z</time>
      </trkpt>
      <trkpt lat="43.17862" lon="2.36427">
        <ele>148.2</ele>
        <time>2019-06-16T06:08:15.000Z</time>
      </trkpt>
      <trkpt lat="43.17861" lon="2.3643">
        <ele>148.3</ele>
        <time>2019-06-16T06:08:16.000Z</time>
      </trkpt>
      <trkpt lat="43.1786" lon="2.36433">
        <ele>148.4</ele>
        <time>2019-06-16T06:08:17.000Z</time>
      </trkpt>
      <trkpt lat="43.17859" lon="2.36436">
        <ele>148.5</ele>
        <time>2019-06-16T06:08:18.000Z</time>
      </trkpt>
      <trkpt lat="43.17858" lon="2.36439">
        <ele>148.6</ele>
        <time>2019-06-16T06:08:19.000Z</time>
      </trkpt>
      <trkpt lat="43.17858" lon="2.36442">
        <ele>148.6</ele>
        <time>2019-06-16T06:08:20.000Z</time>
      </trkpt>
      <trkpt lat="43.17857" lon="2.36445">
        <ele>148.7</ele>
        <time>2019-06-16T06:08:21.000Z</time>
      </trkpt>
      <trkpt lat="43.17856" lon="2.36448">
        <ele>148.8</ele>
        <time>2019-06-16T06:08:22.000Z</time>
      </trkpt>
      <trkpt lat="43.17855" lon="2.36451">
        <ele>148.9</ele>
        <time>2019-06-16T06:08:23.000Z</time>
      </trkpt>
      <trkpt lat="43.17854" lon="2.36454">
        <ele>149</ele>
        <time>2019-06-16T06:08:24.000Z</time>
      </trkpt>
      <trkpt lat="43.17853" lon="2.36456">
        <ele>149.2</ele>
        <time>2019-06-16T06:08:25.000Z</time>
      </trkpt>
      <trkpt lat="43.17852" lon="2.36459">
        <ele>149.3</ele>
        <time>2019-06-16T06:08:26.000Z</time>
      </trkpt>
      <trkpt lat="43.17851" lon="2.36462">
        <ele>149.4</ele>
        <time>2019-06-16T06:08:27.000Z</time>
      </trkpt>
      <trkpt lat="43.17849" lon="2.36465">
        <ele>149.5</ele>
        <time>2019-06-16T06:08:28.000Z</time>
      </trkpt>
      <trkpt lat="43.17848" lon="2.36468">
        <ele>149.6</ele>
        <time>2019-06-16T06:08:29.000Z</time>
      </trkpt>
      <trkpt lat="43.17847" lon="2.36471">
        <ele>149.7</ele>
        <time>2019-06-16T06:08:30.000Z</time>
      </trkpt>
      <trkpt lat="43.17846" lon="2.36474">
        <ele>149.8</ele>
        <time>2019-06-16T06:08:31.000Z</time>
      </trkpt>
      <trkpt lat="43.17845" lon="2.36476">
        <ele>149.9</ele>
        <time>2019-06-16T06:08:32.000Z</time>
      </trkpt>
      <trkpt lat="43.17844" lon="2.36479">
        <ele>150</ele>
        <time>2019-06-16T06:08:33.000Z</time>
      </trkpt>
      <trkpt lat="43.17843" lon="2.36482">
        <ele>150.1</ele>
        <time>2019-06-16T06:08:34.000Z</time>
      </trkpt>
      <trkpt lat="43.17842" lon="2.36485">
        <ele>150.2</ele>
        <time>2019-06-16T06:08:35.000Z</time>
      </trkpt>
      <trkpt lat="43.17841" lon="2.36488">
        <ele>150.3</ele>
        <time>2019-06-16T06:08:36.000Z</time>
      </trkpt>
      <trkpt lat="43.17841" lon="2.3649">
        <ele>150.4</ele>
        <time>2019-06-16T06:08:37.000Z</time>
      </trkpt>
      <trkpt lat="43.1784" lon="2.36493">
        <ele>150.5</ele>
        <time>2019-06-16T06:08:38.000Z</time>
      </trkpt>
      <trkpt lat="43.17839" lon="2.36496">
        <ele>150.6</ele>
        <time>2019-06-16T06:08:39.000Z</time>
      </trkpt>
      <trkpt lat="43.17838" lon="2.36499">
        <ele>150.8</ele>
        <time>2019-06-16T06:08:40.000Z</time>
      </trkpt>
      <trkpt lat="43.17837" lon="2.36502">
        <ele>150.9</ele>
        <time>2019-06-16T06:08:41.000Z</time>
      </trkpt>
      <trkpt lat="43.17836" lon="2.36504">
        <ele>150.9</ele>
        <time>2019-06-16T06:08:42.000Z</time>
      </trkpt>
      <trkpt lat="43.17835" lon="2.36507">
        <ele>151</ele>
        <time>2019-06-16T06:08:43.000Z</time>
      </trkpt>
      <trkpt lat="43.17834" lon="2.3651">
        <ele>151.1</ele>
        <time>2019-06-16T06:08:44.000Z</time>
      </trkpt>
      <trkpt lat="43.17833" lon="2.36513">
        <ele>151.2</ele>
        <time>2019-06-16T06:08:45.000Z</time>
      </trkpt>
      <trkpt lat="43.17832" lon="2.36515">
        <ele>151.2</ele>
        <time>2019-06-16T06:08:46.000Z</time>
      </trkpt>
      <trkpt lat="43.17832" lon="2.36518">
        <ele>151.2</ele>
        <time>2019-06-16T06:08:47.000Z</time>
      </trkpt>
      <trkpt lat="43.17831" lon="2.36521">
        <ele>151.2</ele>
        <time>2019-06-16T06:08:48.000Z</time>
      </trkpt>
      <trkpt lat="43.1783" lon="2.36524">
        <ele>151.2</ele>
        <time>2019-06-16T06:08:49.000Z</time>
      </trkpt>
      <trkpt lat="43.17829" lon="2.36526">
        <ele>151.2</ele>
        <time>2019-06-16T06:08:50.000Z</time>
      </trkpt>
      <trkpt lat="43.17828" lon="2.36529">
        <ele>151.2</ele>
        <time>2019-06-16T06:08:51.000Z</time>
      </trkpt>
      <trkpt lat="43.17827" lon="2.36532">
        <ele>151.2</ele>
        <time>2019-06-16T06:08:52.000Z</time>
      </trkpt>
      <trkpt lat="43.17826" lon="2.36535">
        <ele>151.2</ele>
        <time>2019-06-16T06:08:53.000Z</time>
      </trkpt>
      <trkpt lat="43.17825" lon="2.36537">
        <ele>151.2</ele>
        <time>2019-06-16T06:08:54.000Z</time>
      </trkpt>
      <trkpt lat="43.17825" lon="2.3654">
        <ele>151.3</ele>
        <time>2019-06-16T06:08:55.000Z</time>
      </trkpt>
      <trkpt lat="43.17824" lon="2.36543">
        <ele>151.3</ele>
        <time>2019-06-16T06:08:56.000Z</time>
      </trkpt>
      <trkpt lat="43.17823" lon="2.36546">
        <ele>151.3</ele>
        <time>2019-06-16T06:08:57.000Z</time>
      </trkpt>
      <trkpt lat="43.17822" lon="2.36549">
        <ele>151.3</ele>
        <time>2019-06-16T06:08:58.000Z</time>
      </trkpt>
      <trkpt lat="43.17821" lon="2.36551">
        <ele>151.4</ele>
        <time>2019-06-16T06:08:59.000Z</time>
      </trkpt>
      <trkpt lat="43.1782" lon="2.36554">
        <ele>151.4</ele>
        <time>2019-06-16T06:09:00.000Z</time>
      </trkpt>
      <trkpt lat="43.1782" lon="2.36557">
        <ele>151.4</ele>
        <time>2019-06-16T06:09:01.000Z</time>
      </trkpt>
      <trkpt lat="43.17819" lon="2.3656">
        <ele>151.4</ele>
        <time>2019-06-16T06:09:02.000Z</time>
      </trkpt>
      <trkpt lat="43.17818" lon="2.36563">
        <ele>151.5</ele>
        <time>2019-06-16T06:09:03.000Z</time>
      </trkpt>
      <trkpt lat="43.17817" lon="2.36566">
        <ele>151.5</ele>
        <time>2019-06-16T06:09:04.000Z</time>
      </trkpt>
      <trkpt lat="43.17816" lon="2.36569">
        <ele>151.5</ele>
        <time>2019-06-16T06:09:05.000Z</time>
      </trkpt>
      <trkpt lat="43.17816" lon="2.36572">
        <ele>151.6</ele>
        <time>2019-06-16T06:09:06.000Z</time>
      </trkpt>
      <trkpt lat="43.17815" lon="2.36575">
        <ele>151.6</ele>
        <time>2019-06-16T06:09:07.000Z</time>
      </trkpt>
      <trkpt lat="43.17814" lon="2.36578">
        <ele>151.7</ele>
        <time>2019-06-16T06:09:08.000Z</time>
      </trkpt>
      <trkpt lat="43.17813" lon="2.3658">
        <ele>151.7</ele>
        <time>2019-06-16T06:09:09.000Z</time>
      </trkpt>
      <trkpt lat="43.17813" lon="2.36583">
        <ele>151.8</ele>
        <time>2019-06-16T06:09:10.000Z</time>
      </trkpt>
      <trkpt lat="43.17812" lon="2.36586">
        <ele>151.8</ele>
        <time>2019-06-16T06:09:11.000Z</time>
      </trkpt>
      <trkpt lat="43.17811" lon="2.36589">
        <ele>151.8</ele>
        <time>2019-06-16T06:09:12.000Z</time>
      </trkpt>
      <trkpt lat="43.1781" lon="2.36592">
        <ele>151.9</ele>
        <time>2019-06-16T06:09:13.000Z</time>
      </trkpt>
      <trkpt lat="43.17809" lon="2.36595">
        <ele>151.9</ele>
        <time>2019-06-16T06:09:14.000Z</time>
      </trkpt>
      <trkpt lat="43.17809" lon="2.36598">
        <ele>151.9</ele>
        <time>2019-06-16T06:09:15.000Z</time>
      </trkpt>
      <trkpt lat="43.17808" lon="2.36601">
        <ele>152</ele>
        <time>2019-06-16T06:09:16.000Z</time>
      </trkpt>
      <trkpt lat="43.17807" lon="2.36604">
        <ele>152</ele>
        <time>2019-06-16T06:09:17.000Z</time>
      </trkpt>
      <trkpt lat="43.17806" lon="2.36607">
        <ele>152</ele>
        <time>2019-06-16T06:09:18.000Z</time>
      </trkpt>
      <trkpt lat="43.17806" lon="2.3661">
        <ele>152.1</ele>
        <time>2019-06-16T06:09:19.000Z</time>
      </trkpt>
      <trkpt lat="43.17805" lon="2.36612">
        <ele>152.1</ele>
        <time>2019-06-16T06:09:20.000Z</time>
      </trkpt>
      <trkpt lat="43.17804" lon="2.36615">
        <ele>152.2</ele>
        <time>2019-06-16T06:09:21.000Z</time>
      </trkpt>
      <trkpt lat="43.17803" lon="2.36618">
        <ele>152.2</ele>
        <time>2019-06-16T06:09:22.000Z</time>
      </trkpt>
      <trkpt lat="43.17802" lon="2.3662">
        <ele>152.2</ele>
        <time>2019-06-16T06:09:23.000Z</time>
      </trkpt>
      <trkpt lat="43.17802" lon="2.36623">
        <ele>152.3</ele>
        <time>2019-06-16T06:09:24.000Z</time>
      </trkpt>
      <trkpt lat="43.17801" lon="2.36626">
        <ele>152.3</ele>
        <time>2019-06-16T06:09:25.000Z</time>
      </trkpt>
      <trkpt lat="43.178" lon="2.36628">
        <ele>152.4</ele>
        <time>2019-06-16T06:09:26.000Z</time>
      </trkpt>
      <trkpt lat="43.17799" lon="2.36631">
        <ele>152.4</ele>
        <time>2019-06-16T06:09:27.000Z</time>
      </trkpt>
      <trkpt lat="43.17798" lon="2.36634">
        <ele>152.4</ele>
        <time>2019-06-16T06:09:28.000Z</time>
      </trkpt>
      <trkpt lat="43.17797" lon="2.36637">
        <ele>152.5</ele>
        <time>2019-06-16T06:09:29.000Z</time>
      </trkpt>
      <trkpt lat="43.17796" lon="2.36639">
        <ele>152.5</ele>
        <time>2019-06-16T06:09:30.000Z</time>
      </trkpt>
      <trkpt lat="43.17795" lon="2.36642">
        <ele>152.6</ele>
        <time>2019-06-16T06:09:31.000Z</time>
      </trkpt>
      <trkpt lat="43.17795" lon="2.36645">
        <ele>152.6</ele>
        <time>2019-06-16T06:09:32.000Z</time>
      </trkpt>
      <trkpt lat="43.17794" lon="2.36648">
        <ele>152.7</ele>
        <time>2019-06-16T06:09:33.000Z</time>
      </trkpt>
      <trkpt lat="43.17793" lon="2.36651">
        <ele>152.7</ele>
        <time>2019-06-16T06:09:34.000Z</time>
      </trkpt>
      <trkpt lat="43.17792" lon="2.36654">
        <ele>152.8</ele>
        <time>2019-06-16T06:09:35.000Z</time>
      </trkpt>
      <trkpt lat="43.17791" lon="2.36657">
        <ele>152.8</ele>
        <time>2019-06-16T06:09:36.000Z</time>
      </trkpt>
      <trkpt lat="43.1779" lon="2.3666">
        <ele>152.9</ele>
        <time>2019-06-16T06:09:37.000Z</time>
      </trkpt>
      <trkpt lat="43.17789" lon="2.36663">
        <ele>152.9</ele>
        <time>2019-06-16T06:09:38.000Z</time>
      </trkpt>
      <trkpt lat="43.17788" lon="2.36666">
        <ele>153</ele>
        <time>2019-06-16T06:09:39.000Z</time>
      </trkpt>
      <trkpt lat="43.17788" lon="2.36669">
        <ele>153</ele>
        <time>2019-06-16T06:09:40.000Z</time>
      </trkpt>
      <trkpt lat="43.17787" lon="2.36672">
        <ele>153</ele>
        <time>2019-06-16T06:09:41.000Z</time>
      </trkpt>
      <trkpt lat="43.17786" lon="2.36674">
        <ele>153</ele>
        <time>2019-06-16T06:09:42.000Z</time>
      </trkpt>
      <trkpt lat="43.17785" lon="2.36677">
        <ele>153</ele>
        <time>2019-06-16T06:09:43.000Z</time>
      </trkpt>
      <trkpt lat="43.17785" lon="2.3668">
        <ele>153.1</ele>
        <time>2019-06-16T06:09:44.000Z</time>
      </trkpt>
      <trkpt lat="43.17784" lon="2.36683">
        <ele>153.1</ele>
        <time>2019-06-16T06:09:45.000Z</time>
      </trkpt>
      <trkpt lat="43.17783" lon="2.36686">
        <ele>153.1</ele>
        <time>2019-06-16T06:09:46.000Z</time>
      </trkpt>
      <trkpt lat="43.17782" lon="2.36689">
        <ele>153.1</ele>
        <time>2019-06-16T06:09:47.000Z</time>
      </trkpt>
      <trkpt lat="43.17781" lon="2.36692">
        <ele>153.2</ele>
        <time>2019-06-16T06:09:48.000Z</time>
      </trkpt>
      <trkpt lat="43.1778" lon="2.36695">
        <ele>153.2</ele>
        <time>2019-06-16T06:09:49.000Z</time>
      </trkpt>
      <trkpt lat="43.17779" lon="2.36698">
        <ele>153.2</ele>
        <time>2019-06-16T06:09:50.000Z</time>
      </trkpt>
      <trkpt lat="43.17778" lon="2.36701">
        <ele>153.3</ele>
        <time>2019-06-16T06:09:51.000Z</time>
      </trkpt>
      <trkpt lat="43.17777" lon="2.36703">
        <ele>153.3</ele>
        <time>2019-06-16T06:09:52.000Z</time>
      </trkpt>
      <trkpt lat="43.17776" lon="2.36706">
        <ele>153.4</ele>
        <time>2019-06-16T06:09:53.000Z</time>
      </trkpt>
      <trkpt lat="43.17775" lon="2.36709">
        <ele>153.4</ele>
        <time>2019-06-16T06:09:54.000Z</time>
      </trkpt>
      <trkpt lat="43.17774" lon="2.36712">
        <ele>153.5</ele>
        <time>2019-06-16T06:09:55.000Z</time>
      </trkpt>
      <trkpt lat="43.17773" lon="2.36715">
        <ele>153.5</ele>
        <time>2019-06-16T06:09:56.000Z</time>
      </trkpt>
      <trkpt lat="43.17773" lon="2.36717">
        <ele>153.6</ele>
        <time>2019-06-16T06:09:57.000Z</time>
      </trkpt>
      <trkpt lat="43.17772" lon="2.3672">
        <ele>153.6</ele>
        <time>2019-06-16T06:09:58.000Z</time>
      </trkpt>
      <trkpt lat="43.17771" lon="2.36723">
        <ele>153.7</ele>
        <time>2019-06-16T06:09:59.000Z</time>
      </trkpt>
      <trkpt lat="43.1777" lon="2.36725">
        <ele>153.7</ele>
        <time>2019-06-16T06:10:00.000Z</time>
      </trkpt>
      <trkpt lat="43.17769" lon="2.36728">
        <ele>153.8</ele>
        <time>2019-06-16T06:10:01.000Z</time>
      </trkpt>
      <trkpt lat="43.17768" lon="2.36731">
        <ele>153.9</ele>
        <time>2019-06-16T06:10:02.000Z</time>
      </trkpt>
      <trkpt lat="43.17767" lon="2.36734">
        <ele>153.9</ele>
        <time>2019-06-16T06:10:03.000Z</time>
      </trkpt>
      <trkpt lat="43.17767" lon="2.36736">
        <ele>154</ele>
        <time>2019-06-16T06:10:04.000Z</time>
      </trkpt>
      <trkpt lat="43.17766" lon="2.36739">
        <ele>154.1</ele>
        <time>2019-06-16T06:10:05.000Z</time>
      </trkpt>
      <trkpt lat="43.17765" lon="2.36742">
        <ele>154.2</ele>
        <time>2019-06-16T06:10:06.000Z</time>
      </trkpt>
      <trkpt lat="43.17764" lon="2.36745">
        <ele>154.2</ele>
        <time>2019-06-16T06:10:07.000Z</time>
      </trkpt>
      <trkpt lat="43.17763" lon="2.36747">
        <ele>154.3</ele>
        <time>2019-06-16T06:10:08.000Z</time>
      </trkpt>
      <trkpt lat="43.17762" lon="2.3675">
        <ele>154.4</ele>
        <time>2019-06-16T06:10:09.000Z</time>
      </trkpt>
      <trkpt lat="43.17762" lon="2.36753">
        <ele>154.4</ele>
        <time>2019-06-16T06:10:10.000Z</time>
      </trkpt>
      <trkpt lat="43.17761" lon="2.36756">
        <ele>154.5</ele>
        <time>2019-06-16T06:10:11.000Z</time>
      </trkpt>
      <trkpt lat="43.1776" lon="2.36759">
        <ele>154.5</ele>
        <time>2019-06-16T06:10:12.000Z</time>
      </trkpt>
      <trkpt lat="43.17759" lon="2.36762">
        <ele>154.5</ele>
        <time>2019-06-16T06:10:13.000Z</time>
      </trkpt>
      <trkpt lat="43.17758" lon="2.36764">
        <ele>154.6</ele>
        <time>2019-06-16T06:10:14.000Z</time>
      </trkpt>
      <trkpt lat="43.17757" lon="2.36767">
        <ele>154.6</ele>
        <time>2019-06-16T06:10:15.000Z</time>
      </trkpt>
      <trkpt lat="43.17757" lon="2.3677">
        <ele>154.6</ele>
        <time>2019-06-16T06:10:16.000Z</time>
      </trkpt>
      <trkpt lat="43.17756" lon="2.36773">
        <ele>154.7</ele>
        <time>2019-06-16T06:10:17.000Z</time>
      </trkpt>
      <trkpt lat="43.17755" lon="2.36776">
        <ele>154.7</ele>
        <time>2019-06-16T06:10:18.000Z</time>
      </trkpt>
      <trkpt lat="43.17754" lon="2.36779">
        <ele>154.8</ele>
        <time>2019-06-16T06:10:19.000Z</time>
      </trkpt>
      <trkpt lat="43.17754" lon="2.36782">
        <ele>154.8</ele>
        <time>2019-06-16T06:10:20.000Z</time>
      </trkpt>
      <trkpt lat="43.17753" lon="2.36784">
        <ele>154.8</ele>
        <time>2019-06-16T06:10:21.000Z</time>
      </trkpt>
      <trkpt lat="43.17752" lon="2.36787">
        <ele>154.9</ele>
        <time>2019-06-16T06:10:22.000Z</time>
      </trkpt>
      <trkpt lat="43.17751" lon="2.3679">
        <ele>154.9</ele>
        <time>2019-06-16T06:10:23.000Z</time>
      </trkpt>
      <trkpt lat="43.1775" lon="2.36793">
        <ele>155</ele>
        <time>2019-06-16T06:10:24.000Z</time>
      </trkpt>
      <trkpt lat="43.1775" lon="2.36796">
        <ele>155</ele>
        <time>2019-06-16T06:10:25.000Z</time>
      </trkpt>
      <trkpt lat="43.17749" lon="2.36799">
        <ele>155</ele>
        <time>2019-06-16T06:10:26.000Z</time>
      </trkpt>
      <trkpt lat="43.17748" lon="2.36801">
        <ele>155</ele>
        <time>2019-06-16T06:10:27.000Z</time>
      </trkpt>
      <trkpt lat="43.17747" lon="2.36804">
        <ele>154.9</ele>
        <time>2019-06-16T06:10:28.000Z</time>
      </trkpt>
      <trkpt lat="43.17747" lon="2.36807">
        <ele>154.9</ele>
        <time>2019-06-16T06:10:29.000Z</time>
      </trkpt>
      <trkpt lat="43.17746" lon="2.3681">
        <ele>154.9</ele>
        <time>2019-06-16T06:10:30.000Z</time>
      </trkpt>
      <trkpt lat="43.17745" lon="2.36812">
        <ele>154.9</ele>
        <time>2019-06-16T06:10:31.000Z</time>
      </trkpt>
      <trkpt lat="43.17744" lon="2.36815">
        <ele>154.9</ele>
        <time>2019-06-16T06:10:32.000Z</time>
      </trkpt>
      <trkpt lat="43.17744" lon="2.36818">
        <ele>154.8</ele>
        <time>2019-06-16T06:10:33.000Z</time>
      </trkpt>
      <trkpt lat="43.17743" lon="2.36821">
        <ele>154.8</ele>
        <time>2019-06-16T06:10:34.000Z</time>
      </trkpt>
      <trkpt lat="43.17742" lon="2.36823">
        <ele>154.8</ele>
        <time>2019-06-16T06:10:35.000Z</time>
      </trkpt>
      <trkpt lat="43.17741" lon="2.36826">
        <ele>154.8</ele>
        <time>2019-06-16T06:10:36.000Z</time>
      </trkpt>
      <trkpt lat="43.17741" lon="2.36829">
        <ele>154.8</ele>
        <time>2019-06-16T06:10:37.000Z</time>
      </trkpt>
      <trkpt lat="43.1774" lon="2.36832">
        <ele>154.8</ele>
        <time>2019-06-16T06:10:38.000Z</time>
      </trkpt>
      <trkpt lat="43.17739" lon="2.36834">
        <ele>154.7</ele>
        <time>2019-06-16T06:10:39.000Z</time>
      </trkpt>
      <trkpt lat="43.17738" lon="2.36837">
        <ele>154.7</ele>
        <time>2019-06-16T06:10:40.000Z</time>
      </trkpt>
      <trkpt lat="43.17737" lon="2.3684">
        <ele>154.7</ele>
        <time>2019-06-16T06:10:41.000Z</time>
      </trkpt>
      <trkpt lat="43.17736" lon="2.36842">
        <ele>154.7</ele>
        <time>2019-06-16T06:10:42.000Z</time>
      </trkpt>
      <trkpt lat="43.17735" lon="2.36845">
        <ele>154.7</ele>
        <time>2019-06-16T06:10:43.000Z</time>
      </trkpt>
      <trkpt lat="43.17735" lon="2.36848">
        <ele>154.7</ele>
        <time>2019-06-16T06:10:44.000Z</time>
      </trkpt>
      <trkpt lat="43.17734" lon="2.36851">
        <ele>154.7</ele>
        <time>2019-06-16T06:10:45.000Z</time>
      </trkpt>
      <trkpt lat="43.17733" lon="2.36853">
        <ele>154.7</ele>
        <time>2019-06-16T06:10:46.000Z</time>
      </trkpt>
      <trkpt lat="43.17732" lon="2.36856">
        <ele>154.7</ele>
        <time>2019-06-16T06:10:47.000Z</time>
      </trkpt>
      <trkpt lat="43.17731" lon="2.36859">
        <ele>154.7</ele>
        <time>2019-06-16T06:10:48.000Z</time>
      </trkpt>
      <trkpt lat="43.1773" lon="2.36861">
        <ele>154.7</ele>
        <time>2019-06-16T06:10:49.000Z</time>
      </trkpt>
      <trkpt lat="43.17729" lon="2.36864">
        <ele>154.7</ele>
        <time>2019-06-16T06:10:50.000Z</time>
      </trkpt>
      <trkpt lat="43.17728" lon="2.36867">
        <ele>154.7</ele>
        <time>2019-06-16T06:10:51.000Z</time>
      </trkpt>
      <trkpt lat="43.17728" lon="2.36869">
        <ele>154.7</ele>
        <time>2019-06-16T06:10:52.000Z</time>
      </trkpt>
      <trkpt lat="43.17727" lon="2.36872">
        <ele>154.7</ele>
        <time>2019-06-16T06:10:53.000Z</time>
      </trkpt>
      <trkpt lat="43.17726" lon="2.36874">
        <ele>154.7</ele>
        <time>2019-06-16T06:10:54.000Z</time>
      </trkpt>
      <trkpt lat="43.17725" lon="2.36877">
        <ele>154.7</ele>
        <time>2019-06-16T06:10:55.000Z</time>
      </trkpt>
      <trkpt lat="43.17724" lon="2.36879">
        <ele>154.7</ele>
        <time>2019-06-16T06:10:56.000Z</time>
      </trkpt>
      <trkpt lat="43.17723" lon="2.36882">
        <ele>154.7</ele>
        <time>2019-06-16T06:10:57.000Z</time>
      </trkpt>
      <trkpt lat="43.17723" lon="2.36884">
        <ele>154.7</ele>
        <time>2019-06-16T06:10:58.000Z</time>
      </trkpt>
      <trkpt lat="43.17722" lon="2.36887">
        <ele>154.8</ele>
        <time>2019-06-16T06:10:59.000Z</time>
      </trkpt>
      <trkpt lat="43.17721" lon="2.36889">
        <ele>154.8</ele>
        <time>2019-06-16T06:11:00.000Z</time>
      </trkpt>
      <trkpt lat="43.1772" lon="2.36892">
        <ele>154.8</ele>
        <time>2019-06-16T06:11:01.000Z</time>
      </trkpt>
      <trkpt lat="43.17719" lon="2.36894">
        <ele>154.8</ele>
        <time>2019-06-16T06:11:02.000Z</time>
      </trkpt>
      <trkpt lat="43.17718" lon="2.36897">
        <ele>154.8</ele>
        <time>2019-06-16T06:11:03.000Z</time>
      </trkpt>
      <trkpt lat="43.17717" lon="2.36899">
        <ele>154.8</ele>
        <time>2019-06-16T06:11:04.000Z</time>
      </trkpt>
      <trkpt lat="43.17717" lon="2.36901">
        <ele>154.9</ele>
        <time>2019-06-16T06:11:05.000Z</time>
      </trkpt>
      <trkpt lat="43.17716" lon="2.36904">
        <ele>154.9</ele>
        <time>2019-06-16T06:11:06.000Z</time>
      </trkpt>
      <trkpt lat="43.17715" lon="2.36906">
        <ele>154.9</ele>
        <time>2019-06-16T06:11:07.000Z</time>
      </trkpt>
      <trkpt lat="43.17714" lon="2.36909">
        <ele>154.9</ele>
        <time>2019-06-16T06:11:08.000Z</time>
      </trkpt>
      <trkpt lat="43.17713" lon="2.36912">
        <ele>154.9</ele>
        <time>2019-06-16T06:11:09.000Z</time>
      </trkpt>
      <trkpt lat="43.17712" lon="2.36914">
        <ele>155</ele>
        <time>2019-06-16T06:11:10.000Z</time>
      </trkpt>
      <trkpt lat="43.17711" lon="2.36917">
        <ele>155</ele>
        <time>2019-06-16T06:11:11.000Z</time>
      </trkpt>
      <trkpt lat="43.1771" lon="2.36919">
        <ele>155</ele>
        <time>2019-06-16T06:11:12.000Z</time>
      </trkpt>
      <trkpt lat="43.17709" lon="2.36922">
        <ele>155.1</ele>
        <time>2019-06-16T06:11:13.000Z</time>
      </trkpt>
      <trkpt lat="43.17708" lon="2.36925">
        <ele>155.1</ele>
        <time>2019-06-16T06:11:14.000Z</time>
      </trkpt>
      <trkpt lat="43.17707" lon="2.36927">
        <ele>155.1</ele>
        <time>2019-06-16T06:11:15.000Z</time>
      </trkpt>
      <trkpt lat="43.17706" lon="2.3693">
        <ele>155.2</ele>
        <time>2019-06-16T06:11:16.000Z</time>
      </trkpt>
      <trkpt lat="43.17705" lon="2.36933">
        <ele>155.2</ele>
        <time>2019-06-16T06:11:17.000Z</time>
      </trkpt>
      <trkpt lat="43.17705" lon="2.36936">
        <ele>155.3</ele>
        <time>2019-06-16T06:11:18.000Z</time>
      </trkpt>
      <trkpt lat="43.17704" lon="2.36939">
        <ele>155.3</ele>
        <time>2019-06-16T06:11:19.000Z</time>
      </trkpt>
      <trkpt lat="43.17703" lon="2.36941">
        <ele>155.4</ele>
        <time>2019-06-16T06:11:20.000Z</time>
      </trkpt>
      <trkpt lat="43.17703" lon="2.36944">
        <ele>155.4</ele>
        <time>2019-06-16T06:11:21.000Z</time>
      </trkpt>
      <trkpt lat="43.17702" lon="2.36947">
        <ele>155.5</ele>
        <time>2019-06-16T06:11:22.000Z</time>
      </trkpt>
      <trkpt lat="43.17701" lon="2.3695">
        <ele>155.5</ele>
        <time>2019-06-16T06:11:23.000Z</time>
      </trkpt>
      <trkpt lat="43.17701" lon="2.36953">
        <ele>155.6</ele>
        <time>2019-06-16T06:11:24.000Z</time>
      </trkpt>
      <trkpt lat="43.177" lon="2.36956">
        <ele>155.7</ele>
        <time>2019-06-16T06:11:25.000Z</time>
      </trkpt>
      <trkpt lat="43.17699" lon="2.36959">
        <ele>155.7</ele>
        <time>2019-06-16T06:11:26.000Z</time>
      </trkpt>
      <trkpt lat="43.17698" lon="2.36962">
        <ele>155.8</ele>
        <time>2019-06-16T06:11:27.000Z</time>
      </trkpt>
      <trkpt lat="43.17698" lon="2.36965">
        <ele>155.9</ele>
        <time>2019-06-16T06:11:28.000Z</time>
      </trkpt>
      <trkpt lat="43.17697" lon="2.36968">
        <ele>155.9</ele>
        <time>2019-06-16T06:11:29.000Z</time>
      </trkpt>
      <trkpt lat="43.17696" lon="2.3697">
        <ele>156</ele>
        <time>2019-06-16T06:11:30.000Z</time>
      </trkpt>
      <trkpt lat="43.17695" lon="2.36973">
        <ele>156.1</ele>
        <time>2019-06-16T06:11:31.000Z</time>
      </trkpt>
      <trkpt lat="43.17695" lon="2.36976">
        <ele>156.2</ele>
        <time>2019-06-16T06:11:32.000Z</time>
      </trkpt>
      <trkpt lat="43.17694" lon="2.36979">
        <ele>156.3</ele>
        <time>2019-06-16T06:11:33.000Z</time>
      </trkpt>
      <trkpt lat="43.17693" lon="2.36982">
        <ele>156.4</ele>
        <time>2019-06-16T06:11:34.000Z</time>
      </trkpt>
      <trkpt lat="43.17692" lon="2.36985">
        <ele>156.5</ele>
        <time>2019-06-16T06:11:35.000Z</time>
      </trkpt>
      <trkpt lat="43.17691" lon="2.36988">
        <ele>156.6</ele>
        <time>2019-06-16T06:11:36.000Z</time>
      </trkpt>
      <trkpt lat="43.1769" lon="2.36991">
        <ele>156.7</ele>
        <time>2019-06-16T06:11:37.000Z</time>
      </trkpt>
      <trkpt lat="43.17689" lon="2.36994">
        <ele>156.8</ele>
        <time>2019-06-16T06:11:38.000Z</time>
      </trkpt>
      <trkpt lat="43.17688" lon="2.36997">
        <ele>156.9</ele>
        <time>2019-06-16T06:11:39.000Z</time>
      </trkpt>
      <trkpt lat="43.17688" lon="2.37">
        <ele>157</ele>
        <time>2019-06-16T06:11:40.000Z</time>
      </trkpt>
      <trkpt lat="43.17687" lon="2.37002">
        <ele>157</ele>
        <time>2019-06-16T06:11:41.000Z</time>
      </trkpt>
      <trkpt lat="43.17686" lon="2.37005">
        <ele>157.1</ele>
        <time>2019-06-16T06:11:42.000Z</time>
      </trkpt>
      <trkpt lat="43.17685" lon="2.37008">
        <ele>157.1</ele>
        <time>2019-06-16T06:11:43.000Z</time>
      </trkpt>
      <trkpt lat="43.17684" lon="2.37011">
        <ele>157.2</ele>
        <time>2019-06-16T06:11:44.000Z</time>
      </trkpt>
      <trkpt lat="43.17683" lon="2.37014">
        <ele>157.3</ele>
        <time>2019-06-16T06:11:45.000Z</time>
      </trkpt>
      <trkpt lat="43.17682" lon="2.37017">
        <ele>157.3</ele>
        <time>2019-06-16T06:11:46.000Z</time>
      </trkpt>
      <trkpt lat="43.17681" lon="2.3702">
        <ele>157.4</ele>
        <time>2019-06-16T06:11:47.000Z</time>
      </trkpt>
      <trkpt lat="43.1768" lon="2.37023">
        <ele>157.4</ele>
        <time>2019-06-16T06:11:48.000Z</time>
      </trkpt>
      <trkpt lat="43.17679" lon="2.37026">
        <ele>157.5</ele>
        <time>2019-06-16T06:11:49.000Z</time>
      </trkpt>
      <trkpt lat="43.17678" lon="2.37029">
        <ele>157.6</ele>
        <time>2019-06-16T06:11:50.000Z</time>
      </trkpt>
      <trkpt lat="43.17678" lon="2.37032">
        <ele>157.7</ele>
        <time>2019-06-16T06:11:51.000Z</time>
      </trkpt>
      <trkpt lat="43.17677" lon="2.37035">
        <ele>157.7</ele>
        <time>2019-06-16T06:11:52.000Z</time>
      </trkpt>
      <trkpt lat="43.17676" lon="2.37038">
        <ele>157.8</ele>
        <time>2019-06-16T06:11:53.000Z</time>
      </trkpt>
      <trkpt lat="43.17675" lon="2.37041">
        <ele>157.9</ele>
        <time>2019-06-16T06:11:54.000Z</time>
      </trkpt>
      <trkpt lat="43.17674" lon="2.37044">
        <ele>158</ele>
        <time>2019-06-16T06:11:55.000Z</time>
      </trkpt>
      <trkpt lat="43.17673" lon="2.37047">
        <ele>158.1</ele>
        <time>2019-06-16T06:11:56.000Z</time>
      </trkpt>
      <trkpt lat="43.17672" lon="2.3705">
        <ele>158.2</ele>
        <time>2019-06-16T06:11:57.000Z</time>
      </trkpt>
      <trkpt lat="43.17671" lon="2.37053">
        <ele>158.3</ele>
        <time>2019-06-16T06:11:58.000Z</time>
      </trkpt>
      <trkpt lat="43.1767" lon="2.37056">
        <ele>158.4</ele>
        <time>2019-06-16T06:11:59.000Z</time>
      </trkpt>
      <trkpt lat="43.17669" lon="2.37059">
        <ele>158.5</ele>
        <time>2019-06-16T06:12:00.000Z</time>
      </trkpt>
      <trkpt lat="43.17668" lon="2.37061">
        <ele>158.6</ele>
        <time>2019-06-16T06:12:01.000Z</time>
      </trkpt>
      <trkpt lat="43.17668" lon="2.37064">
        <ele>158.7</ele>
        <time>2019-06-16T06:12:02.000Z</time>
      </trkpt>
      <trkpt lat="43.17667" lon="2.37067">
        <ele>158.8</ele>
        <time>2019-06-16T06:12:03.000Z</time>
      </trkpt>
      <trkpt lat="43.17666" lon="2.3707">
        <ele>158.9</ele>
        <time>2019-06-16T06:12:04.000Z</time>
      </trkpt>
      <trkpt lat="43.17665" lon="2.37073">
        <ele>158.9</ele>
        <time>2019-06-16T06:12:05.000Z</time>
      </trkpt>
      <trkpt lat="43.17665" lon="2.37076">
        <ele>159</ele>
        <time>2019-06-16T06:12:06.000Z</time>
      </trkpt>
      <trkpt lat="43.17664" lon="2.37079">
        <ele>159</ele>
        <time>2019-06-16T06:12:07.000Z</time>
      </trkpt>
      <trkpt lat="43.17663" lon="2.37082">
        <ele>159.1</ele>
        <time>2019-06-16T06:12:08.000Z</time>
      </trkpt>
      <trkpt lat="43.17663" lon="2.37085">
        <ele>159.1</ele>
        <time>2019-06-16T06:12:09.000Z</time>
      </trkpt>
      <trkpt lat="43.17662" lon="2.37088">
        <ele>159.1</ele>
        <time>2019-06-16T06:12:10.000Z</time>
      </trkpt>
      <trkpt lat="43.17661" lon="2.37091">
        <ele>159.1</ele>
        <time>2019-06-16T06:12:11.000Z</time>
      </trkpt>
      <trkpt lat="43.1766" lon="2.37094">
        <ele>159.2</ele>
        <time>2019-06-16T06:12:12.000Z</time>
      </trkpt>
      <trkpt lat="43.17659" lon="2.37097">
        <ele>159.2</ele>
        <time>2019-06-16T06:12:13.000Z</time>
      </trkpt>
      <trkpt lat="43.17658" lon="2.371">
        <ele>159.2</ele>
        <time>2019-06-16T06:12:14.000Z</time>
      </trkpt>
      <trkpt lat="43.17657" lon="2.37103">
        <ele>159.3</ele>
        <time>2019-06-16T06:12:15.000Z</time>
      </trkpt>
      <trkpt lat="43.17656" lon="2.37106">
        <ele>159.3</ele>
        <time>2019-06-16T06:12:16.000Z</time>
      </trkpt>
      <trkpt lat="43.17655" lon="2.37109">
        <ele>159.3</ele>
        <time>2019-06-16T06:12:17.000Z</time>
      </trkpt>
      <trkpt lat="43.17654" lon="2.37111">
        <ele>159.3</ele>
        <time>2019-06-16T06:12:18.000Z</time>
      </trkpt>
      <trkpt lat="43.17654" lon="2.37113">
        <ele>159.4</ele>
        <time>2019-06-16T06:12:19.000Z</time>
      </trkpt>
      <trkpt lat="43.17653" lon="2.37116">
        <ele>159.4</ele>
        <time>2019-06-16T06:12:20.000Z</time>
      </trkpt>
      <trkpt lat="43.17653" lon="2.37117">
        <ele>159.4</ele>
        <time>2019-06-16T06:12:21.000Z</time>
      </trkpt>
      <trkpt lat="43.17654" lon="2.37119">
        <ele>159.4</ele>
        <time>2019-06-16T06:12:22.000Z</time>
      </trkpt>
      <trkpt lat="43.17654" lon="2.37121">
        <ele>159.4</ele>
        <time>2019-06-16T06:12:23.000Z</time>
      </trkpt>
      <trkpt lat="43.17655" lon="2.37122">
        <ele>159.4</ele>
        <time>2019-06-16T06:12:24.000Z</time>
      </trkpt>
      <trkpt lat="43.17656" lon="2.37123">
        <ele>159.3</ele>
        <time>2019-06-16T06:12:25.000Z</time>
      </trkpt>
      <trkpt lat="43.17657" lon="2.37124">
        <ele>159.3</ele>
        <time>2019-06-16T06:12:26.000Z</time>
      </trkpt>
      <trkpt lat="43.17658" lon="2.37125">
        <ele>159.3</ele>
        <time>2019-06-16T06:12:27.000Z</time>
      </trkpt>
      <trkpt lat="43.17659" lon="2.37126">
        <ele>159.2</ele>
        <time>2019-06-16T06:12:28.000Z</time>
      </trkpt>
      <trkpt lat="43.1766" lon="2.37127">
        <ele>159.2</ele>
        <time>2019-06-16T06:12:29.000Z</time>
      </trkpt>
      <trkpt lat="43.17662" lon="2.37127">
        <ele>159.2</ele>
        <time>2019-06-16T06:12:30.000Z</time>
      </trkpt>
      <trkpt lat="43.17663" lon="2.37128">
        <ele>159.1</ele>
        <time>2019-06-16T06:12:31.000Z</time>
      </trkpt>
      <trkpt lat="43.17664" lon="2.37128">
        <ele>159.1</ele>
        <time>2019-06-16T06:12:32.000Z</time>
      </trkpt>
      <trkpt lat="43.17666" lon="2.37129">
        <ele>159</ele>
        <time>2019-06-16T06:12:33.000Z</time>
      </trkpt>
      <trkpt lat="43.17667" lon="2.3713">
        <ele>159</ele>
        <time>2019-06-16T06:12:34.000Z</time>
      </trkpt>
      <trkpt lat="43.17668" lon="2.3713">
        <ele>158.8</ele>
        <time>2019-06-16T06:12:35.000Z</time>
      </trkpt>
      <trkpt lat="43.1767" lon="2.37131">
        <ele>158.7</ele>
        <time>2019-06-16T06:12:36.000Z</time>
      </trkpt>
      <trkpt lat="43.17671" lon="2.37132">
        <ele>158.6</ele>
        <time>2019-06-16T06:12:37.000Z</time>
      </trkpt>
      <trkpt lat="43.17672" lon="2.37133">
        <ele>158.4</ele>
        <time>2019-06-16T06:12:38.000Z</time>
      </trkpt>
      <trkpt lat="43.17673" lon="2.37134">
        <ele>158.3</ele>
        <time>2019-06-16T06:12:39.000Z</time>
      </trkpt>
      <trkpt lat="43.17674" lon="2.37135">
        <ele>158.2</ele>
        <time>2019-06-16T06:12:40.000Z</time>
      </trkpt>
      <trkpt lat="43.17675" lon="2.37136">
        <ele>158.1</ele>
        <time>2019-06-16T06:12:41.000Z</time>
      </trkpt>
      <trkpt lat="43.17676" lon="2.37137">
        <ele>158</ele>
        <time>2019-06-16T06:12:42.000Z</time>
      </trkpt>
      <trkpt lat="43.17677" lon="2.37138">
        <ele>157.9</ele>
        <time>2019-06-16T06:12:43.000Z</time>
      </trkpt>
      <trkpt lat="43.17678" lon="2.37139">
        <ele>157.8</ele>
        <time>2019-06-16T06:12:44.000Z</time>
      </trkpt>
      <trkpt lat="43.17679" lon="2.3714">
        <ele>157.6</ele>
        <time>2019-06-16T06:12:45.000Z</time>
      </trkpt>
      <trkpt lat="43.1768" lon="2.37141">
        <ele>157.5</ele>
        <time>2019-06-16T06:12:46.000Z</time>
      </trkpt>
      <trkpt lat="43.17681" lon="2.37142">
        <ele>157.4</ele>
        <time>2019-06-16T06:12:47.000Z</time>
      </trkpt>
      <trkpt lat="43.17682" lon="2.37143">
        <ele>157.3</ele>
        <time>2019-06-16T06:12:48.000Z</time>
      </trkpt>
      <trkpt lat="43.17683" lon="2.37144">
        <ele>157.2</ele>
        <time>2019-06-16T06:12:49.000Z</time>
      </trkpt>
      <trkpt lat="43.17684" lon="2.37145">
        <ele>157.1</ele>
        <time>2019-06-16T06:12:50.000Z</time>
      </trkpt>
      <trkpt lat="43.17685" lon="2.37147">
        <ele>157</ele>
        <time>2019-06-16T06:12:51.000Z</time>
      </trkpt>
      <trkpt lat="43.17686" lon="2.37148">
        <ele>156.8</ele>
        <time>2019-06-16T06:12:52.000Z</time>
      </trkpt>
      <trkpt lat="43.17687" lon="2.37149">
        <ele>156.7</ele>
        <time>2019-06-16T06:12:53.000Z</time>
      </trkpt>
      <trkpt lat="43.17688" lon="2.3715">
        <ele>156.6</ele>
        <time>2019-06-16T06:12:54.000Z</time>
      </trkpt>
      <trkpt lat="43.17689" lon="2.37152">
        <ele>156.4</ele>
        <time>2019-06-16T06:12:55.000Z</time>
      </trkpt>
      <trkpt lat="43.1769" lon="2.37153">
        <ele>156.3</ele>
        <time>2019-06-16T06:12:56.000Z</time>
      </trkpt>
      <trkpt lat="43.17691" lon="2.37155">
        <ele>156.2</ele>
        <time>2019-06-16T06:12:57.000Z</time>
      </trkpt>
      <trkpt lat="43.17692" lon="2.37157">
        <ele>156</ele>
        <time>2019-06-16T06:12:58.000Z</time>
      </trkpt>
      <trkpt lat="43.17694" lon="2.37159">
        <ele>155.8</ele>
        <time>2019-06-16T06:12:59.000Z</time>
      </trkpt>
      <trkpt lat="43.17695" lon="2.37161">
        <ele>155.7</ele>
        <time>2019-06-16T06:13:00.000Z</time>
      </trkpt>
      <trkpt lat="43.17696" lon="2.37163">
        <ele>155.5</ele>
        <time>2019-06-16T06:13:01.000Z</time>
      </trkpt>
      <trkpt lat="43.17697" lon="2.37165">
        <ele>155.4</ele>
        <time>2019-06-16T06:13:02.000Z</time>
      </trkpt>
      <trkpt lat="43.17698" lon="2.37167">
        <ele>155.2</ele>
        <time>2019-06-16T06:13:03.000Z</time>
      </trkpt>
      <trkpt lat="43.17699" lon="2.3717">
        <ele>155.1</ele>
        <time>2019-06-16T06:13:04.000Z</time>
      </trkpt>
      <trkpt lat="43.177" lon="2.37172">
        <ele>155</ele>
        <time>2019-06-16T06:13:05.000Z</time>
      </trkpt>
      <trkpt lat="43.177" lon="2.37175">
        <ele>154.9</ele>
        <time>2019-06-16T06:13:06.000Z</time>
      </trkpt>
      <trkpt lat="43.17701" lon="2.37177">
        <ele>154.9</ele>
        <time>2019-06-16T06:13:07.000Z</time>
      </trkpt>
      <trkpt lat="43.17701" lon="2.3718">
        <ele>154.8</ele>
        <time>2019-06-16T06:13:08.000Z</time>
      </trkpt>
      <trkpt lat="43.17701" lon="2.37182">
        <ele>154.8</ele>
        <time>2019-06-16T06:13:09.000Z</time>
      </trkpt>
      <trkpt lat="43.17701" lon="2.37185">
        <ele>154.8</ele>
        <time>2019-06-16T06:13:10.000Z</time>
      </trkpt>
      <trkpt lat="43.17701" lon="2.37187">
        <ele>154.8</ele>
        <time>2019-06-16T06:13:11.000Z</time>
      </trkpt>
      <trkpt lat="43.17701" lon="2.37189">
        <ele>154.7</ele>
        <time>2019-06-16T06:13:12.000Z</time>
      </trkpt>
      <trkpt lat="43.17701" lon="2.37191">
        <ele>154.7</ele>
        <time>2019-06-16T06:13:13.000Z</time>
      </trkpt>
      <trkpt lat="43.17701" lon="2.37193">
        <ele>154.7</ele>
        <time>2019-06-16T06:13:14.000Z</time>
      </trkpt>
      <trkpt lat="43.17701" lon="2.37194">
        <ele>154.7</ele>
        <time>2019-06-16T06:13:15.000Z</time>
      </trkpt>
      <trkpt lat="43.17701" lon="2.37195">
        <ele>154.6</ele>
        <time>2019-06-16T06:13:16.000Z</time>
      </trkpt>
      <trkpt lat="43.17702" lon="2.37195">
        <ele>154.6</ele>
        <time>2019-06-16T06:13:17.000Z</time>
      </trkpt>
      <trkpt lat="43.17702" lon="2.37195">
        <ele>154.5</ele>
        <time>2019-06-16T06:13:18.000Z</time>
      </trkpt>
      <trkpt lat="43.17703" lon="2.37195">
        <ele>154.4</ele>
        <time>2019-06-16T06:13:19.000Z</time>
      </trkpt>
      <trkpt lat="43.17704" lon="2.37195">
        <ele>154.3</ele>
        <time>2019-06-16T06:13:20.000Z</time>
      </trkpt>
      <trkpt lat="43.17705" lon="2.37195">
        <ele>154.3</ele>
        <time>2019-06-16T06:13:21.000Z</time>
      </trkpt>
      <trkpt lat="43.17705" lon="2.37195">
        <ele>154.2</ele>
        <time>2019-06-16T06:13:22.000Z</time>
      </trkpt>
      <trkpt lat="43.17706" lon="2.37195">
        <ele>154.1</ele>
        <time>2019-06-16T06:13:23.000Z</time>
      </trkpt>
      <trkpt lat="43.17706" lon="2.37194">
        <ele>154.1</ele>
        <time>2019-06-16T06:13:24.000Z</time>
      </trkpt>
      <trkpt lat="43.17706" lon="2.37194">
        <ele>154.1</ele>
        <time>2019-06-16T06:13:25.000Z</time>
      </trkpt>
      <trkpt lat="43.17706" lon="2.37194">
        <ele>154.1</ele>
        <time>2019-06-16T06:13:26.000Z</time>
      </trkpt>
      <trkpt lat="43.17706" lon="2.37194">
        <ele>154.1</ele>
        <time>2019-06-16T06:13:27.000Z</time>
      </trkpt>
      <trkpt lat="43.17706" lon="2.37194">
        <ele>154.1</ele>
        <time>2019-06-16T06:13:28.000Z</time>
      </trkpt>
      <trkpt lat="43.17706" lon="2.37194">
        <ele>154.1</ele>
        <time>2019-06-16T06:13:29.000Z</time>
      </trkpt>
      <trkpt lat="43.17706" lon="2.37194">
        <ele>154.1</ele>
        <time>2019-06-16T06:13:30.000Z</time>
      </trkpt>
      <trkpt lat="43.17706" lon="2.37194">
        <ele>154.1</ele>
        <time>2019-06-16T06:13:31.000Z</time>
      </trkpt>
      <trkpt lat="43.17706" lon="2.37194">
        <ele>154.1</ele>
        <time>2019-06-16T06:13:32.000Z</time>
      </trkpt>
      <trkpt lat="43.17706" lon="2.37194">
        <ele>154.1</ele>
        <time>2019-06-16T06:13:33.000Z</time>
      </trkpt>
      <trkpt lat="43.17706" lon="2.37194">
        <ele>154.1</ele>
        <time>2019-06-16T06:13:34.000Z</time>
      </trkpt>
      <trkpt lat="43.17706" lon="2.37194">
        <ele>154.1</ele>
        <time>2019-06-16T06:13:35.000Z</time>
      </trkpt>
      <trkpt lat="43.17706" lon="2.37194">
        <ele>154.1</ele>
        <time>2019-06-16T06:13:36.000Z</time>
      </trkpt>
      <trkpt lat="43.17706" lon="2.37194">
        <ele>154.1</ele>
        <time>2019-06-16T06:13:37.000Z</time>
      </trkpt>
      <trkpt lat="43.17706" lon="2.37194">
        <ele>154.1</ele>
        <time>2019-06-16T06:13:38.000Z</time>
      </trkpt>
      <trkpt lat="43.17706" lon="2.37194">
        <ele>154.1</ele>
        <time>2019-06-16T06:13:39.000Z</time>
      </trkpt>
      <trkpt lat="43.17706" lon="2.37194">
        <ele>154.1</ele>
        <time>2019-06-16T06:13:40.000Z</time>
      </trkpt>
      <trkpt lat="43.17706" lon="2.37194">
        <ele>154.1</ele>
        <time>2019-06-16T06:13:41.000Z</time>
      </trkpt>
      <trkpt lat="43.17706" lon="2.37194">
        <ele>154.1</ele>
        <time>2019-06-16T06:13:42.000Z</time>
      </trkpt>
      <trkpt lat="43.17706" lon="2.37194">
        <ele>154.1</ele>
        <time>2019-06-16T06:13:43.000Z</time>
      </trkpt>
      <trkpt lat="43.17706" lon="2.37194">
        <ele>154.1</ele>
        <time>2019-06-16T06:13:44.000Z</time>
      </trkpt>
      <trkpt lat="43.17706" lon="2.37194">
        <ele>154.1</ele>
        <time>2019-06-16T06:13:45.000Z</time>
      </trkpt>
      <trkpt lat="43.17706" lon="2.37195">
        <ele>154.1</ele>
        <time>2019-06-16T06:13:46.000Z</time>
      </trkpt>
      <trkpt lat="43.17706" lon="2.37195">
        <ele>154.1</ele>
        <time>2019-06-16T06:13:47.000Z</time>
      </trkpt>
      <trkpt lat="43.17706" lon="2.37195">
        <ele>154.1</ele>
        <time>2019-06-16T06:13:48.000Z</time>
      </trkpt>
      <trkpt lat="43.17706" lon="2.37195">
        <ele>154.1</ele>
        <time>2019-06-16T06:13:49.000Z</time>
      </trkpt>
      <trkpt lat="43.17706" lon="2.37195">
        <ele>154.1</ele>
        <time>2019-06-16T06:13:50.000Z</time>
      </trkpt>
      <trkpt lat="43.17707" lon="2.37195">
        <ele>154</ele>
        <time>2019-06-16T06:13:51.000Z</time>
      </trkpt>
      <trkpt lat="43.17707" lon="2.37195">
        <ele>154</ele>
        <time>2019-06-16T06:13:52.000Z</time>
      </trkpt>
      <trkpt lat="43.17708" lon="2.37195">
        <ele>153.9</ele>
        <time>2019-06-16T06:13:53.000Z</time>
      </trkpt>
      <trkpt lat="43.17709" lon="2.37194">
        <ele>153.8</ele>
        <time>2019-06-16T06:13:54.000Z</time>
      </trkpt>
      <trkpt lat="43.1771" lon="2.37194">
        <ele>153.7</ele>
        <time>2019-06-16T06:13:55.000Z</time>
      </trkpt>
      <trkpt lat="43.17711" lon="2.37194">
        <ele>153.5</ele>
        <time>2019-06-16T06:13:56.000Z</time>
      </trkpt>
      <trkpt lat="43.17713" lon="2.37194">
        <ele>153.3</ele>
        <time>2019-06-16T06:13:57.000Z</time>
      </trkpt>
      <trkpt lat="43.17714" lon="2.37193">
        <ele>153.2</ele>
        <time>2019-06-16T06:13:58.000Z</time>
      </trkpt>
      <trkpt lat="43.17716" lon="2.37193">
        <ele>153</ele>
        <time>2019-06-16T06:13:59.000Z</time>
      </trkpt>
      <trkpt lat="43.17717" lon="2.37193">
        <ele>152.8</ele>
        <time>2019-06-16T06:14:00.000Z</time>
      </trkpt>
      <trkpt lat="43.17719" lon="2.37193">
        <ele>152.6</ele>
        <time>2019-06-16T06:14:01.000Z</time>
      </trkpt>
      <trkpt lat="43.1772" lon="2.37193">
        <ele>152.5</ele>
        <time>2019-06-16T06:14:02.000Z</time>
      </trkpt>
      <trkpt lat="43.17721" lon="2.37193">
        <ele>152.3</ele>
        <time>2019-06-16T06:14:03.000Z</time>
      </trkpt>
      <trkpt lat="43.17723" lon="2.37193">
        <ele>152.2</ele>
        <time>2019-06-16T06:14:04.000Z</time>
      </trkpt>
      <trkpt lat="43.17724" lon="2.37193">
        <ele>152</ele>
        <time>2019-06-16T06:14:05.000Z</time>
      </trkpt>
      <trkpt lat="43.17725" lon="2.37193">
        <ele>151.9</ele>
        <time>2019-06-16T06:14:06.000Z</time>
      </trkpt>
      <trkpt lat="43.17726" lon="2.37193">
        <ele>151.8</ele>
        <time>2019-06-16T06:14:07.000Z</time>
      </trkpt>
      <trkpt lat="43.17728" lon="2.37193">
        <ele>151.6</ele>
        <time>2019-06-16T06:14:08.000Z</time>
      </trkpt>
      <trkpt lat="43.17729" lon="2.37193">
        <ele>151.5</ele>
        <time>2019-06-16T06:14:09.000Z</time>
      </trkpt>
      <trkpt lat="43.1773" lon="2.37193">
        <ele>151.3</ele>
        <time>2019-06-16T06:14:10.000Z</time>
      </trkpt>
      <trkpt lat="43.17731" lon="2.37192">
        <ele>151.2</ele>
        <time>2019-06-16T06:14:11.000Z</time>
      </trkpt>
      <trkpt lat="43.17733" lon="2.37192">
        <ele>151</ele>
        <time>2019-06-16T06:14:12.000Z</time>
      </trkpt>
      <trkpt lat="43.17734" lon="2.37192">
        <ele>150.8</ele>
        <time>2019-06-16T06:14:13.000Z</time>
      </trkpt>
      <trkpt lat="43.17736" lon="2.37191">
        <ele>150.7</ele>
        <time>2019-06-16T06:14:14.000Z</time>
      </trkpt>
      <trkpt lat="43.17737" lon="2.37191">
        <ele>150.5</ele>
        <time>2019-06-16T06:14:15.000Z</time>
      </trkpt>
      <trkpt lat="43.17739" lon="2.3719">
        <ele>150.3</ele>
        <time>2019-06-16T06:14:16.000Z</time>
      </trkpt>
      <trkpt lat="43.1774" lon="2.3719">
        <ele>150.1</ele>
        <time>2019-06-16T06:14:17.000Z</time>
      </trkpt>
      <trkpt lat="43.17742" lon="2.37189">
        <ele>150</ele>
        <time>2019-06-16T06:14:18.000Z</time>
      </trkpt>
      <trkpt lat="43.17743" lon="2.37189">
        <ele>149.8</ele>
        <time>2019-06-16T06:14:19.000Z</time>
      </trkpt>
      <trkpt lat="43.17745" lon="2.37188">
        <ele>149.6</ele>
        <time>2019-06-16T06:14:20.000Z</time>
      </trkpt>
      <trkpt lat="43.17747" lon="2.37188">
        <ele>149.4</ele>
        <time>2019-06-16T06:14:21.000Z</time>
      </trkpt>
      <trkpt lat="43.17748" lon="2.37188">
        <ele>149.2</ele>
        <time>2019-06-16T06:14:22.000Z</time>
      </trkpt>
      <trkpt lat="43.1775" lon="2.37188">
        <ele>149</ele>
        <time>2019-06-16T06:14:23.000Z</time>
      </trkpt>
      <trkpt lat="43.17752" lon="2.37187">
        <ele>148.9</ele>
        <time>2019-06-16T06:14:24.000Z</time>
      </trkpt>
      <trkpt lat="43.17754" lon="2.37187">
        <ele>148.9</ele>
        <time>2019-06-16T06:14:25.000Z</time>
      </trkpt>
      <trkpt lat="43.17756" lon="2.37187">
        <ele>148.8</ele>
        <time>2019-06-16T06:14:26.000Z</time>
      </trkpt>
      <trkpt lat="43.17759" lon="2.37187">
        <ele>148.7</ele>
        <time>2019-06-16T06:14:27.000Z</time>
      </trkpt>
      <trkpt lat="43.17761" lon="2.37187">
        <ele>148.6</ele>
        <time>2019-06-16T06:14:28.000Z</time>
      </trkpt>
      <trkpt lat="43.17763" lon="2.37187">
        <ele>148.6</ele>
        <time>2019-06-16T06:14:29.000Z</time>
      </trkpt>
      <trkpt lat="43.17765" lon="2.37188">
        <ele>148.5</ele>
        <time>2019-06-16T06:14:30.000Z</time>
      </trkpt>
      <trkpt lat="43.17767" lon="2.37188">
        <ele>148.4</ele>
        <time>2019-06-16T06:14:31.000Z</time>
      </trkpt>
      <trkpt lat="43.17769" lon="2.37189">
        <ele>148.4</ele>
        <time>2019-06-16T06:14:32.000Z</time>
      </trkpt>
      <trkpt lat="43.17771" lon="2.3719">
        <ele>148.3</ele>
        <time>2019-06-16T06:14:33.000Z</time>
      </trkpt>
      <trkpt lat="43.17773" lon="2.37191">
        <ele>148.2</ele>
        <time>2019-06-16T06:14:34.000Z</time>
      </trkpt>
      <trkpt lat="43.17775" lon="2.37192">
        <ele>148.2</ele>
        <time>2019-06-16T06:14:35.000Z</time>
      </trkpt>
      <trkpt lat="43.17777" lon="2.37193">
        <ele>148.1</ele>
        <time>2019-06-16T06:14:36.000Z</time>
      </trkpt>
      <trkpt lat="43.17779" lon="2.37194">
        <ele>148.1</ele>
        <time>2019-06-16T06:14:37.000Z</time>
      </trkpt>
      <trkpt lat="43.17781" lon="2.37195">
        <ele>148</ele>
        <time>2019-06-16T06:14:38.000Z</time>
      </trkpt>
      <trkpt lat="43.17783" lon="2.37196">
        <ele>147.9</ele>
        <time>2019-06-16T06:14:39.000Z</time>
      </trkpt>
      <trkpt lat="43.17785" lon="2.37197">
        <ele>147.9</ele>
        <time>2019-06-16T06:14:40.000Z</time>
      </trkpt>
      <trkpt lat="43.17787" lon="2.37197">
        <ele>147.8</ele>
        <time>2019-06-16T06:14:41.000Z</time>
      </trkpt>
      <trkpt lat="43.17789" lon="2.37198">
        <ele>147.8</ele>
        <time>2019-06-16T06:14:42.000Z</time>
      </trkpt>
      <trkpt lat="43.17791" lon="2.37199">
        <ele>147.7</ele>
        <time>2019-06-16T06:14:43.000Z</time>
      </trkpt>
      <trkpt lat="43.17793" lon="2.37199">
        <ele>147.7</ele>
        <time>2019-06-16T06:14:44.000Z</time>
      </trkpt>
      <trkpt lat="43.17795" lon="2.372">
        <ele>147.6</ele>
        <time>2019-06-16T06:14:45.000Z</time>
      </trkpt>
      <trkpt lat="43.17797" lon="2.372">
        <ele>147.5</ele>
        <time>2019-06-16T06:14:46.000Z</time>
      </trkpt>
      <trkpt lat="43.17799" lon="2.37201">
        <ele>147.5</ele>
        <time>2019-06-16T06:14:47.000Z</time>
      </trkpt>
      <trkpt lat="43.17801" lon="2.37201">
        <ele>147.4</ele>
        <time>2019-06-16T06:14:48.000Z</time>
      </trkpt>
      <trkpt lat="43.17803" lon="2.37202">
        <ele>147.4</ele>
        <time>2019-06-16T06:14:49.000Z</time>
      </trkpt>
      <trkpt lat="43.17805" lon="2.37203">
        <ele>147.3</ele>
        <time>2019-06-16T06:14:50.000Z</time>
      </trkpt>
      <trkpt lat="43.17807" lon="2.37203">
        <ele>147.2</ele>
        <time>2019-06-16T06:14:51.000Z</time>
      </trkpt>
      <trkpt lat="43.17809" lon="2.37204">
        <ele>147.2</ele>
        <time>2019-06-16T06:14:52.000Z</time>
      </trkpt>
      <trkpt lat="43.17811" lon="2.37205">
        <ele>147.1</ele>
        <time>2019-06-16T06:14:53.000Z</time>
      </trkpt>
      <trkpt lat="43.17813" lon="2.37206">
        <ele>147.1</ele>
        <time>2019-06-16T06:14:54.000Z</time>
      </trkpt>
      <trkpt lat="43.17816" lon="2.37207">
        <ele>147</ele>
        <time>2019-06-16T06:14:55.000Z</time>
      </trkpt>
      <trkpt lat="43.17818" lon="2.37207">
        <ele>147</ele>
        <time>2019-06-16T06:14:56.000Z</time>
      </trkpt>
      <trkpt lat="43.1782" lon="2.37208">
        <ele>146.9</ele>
        <time>2019-06-16T06:14:57.000Z</time>
      </trkpt>
      <trkpt lat="43.17822" lon="2.37209">
        <ele>146.8</ele>
        <time>2019-06-16T06:14:58.000Z</time>
      </trkpt>
      <trkpt lat="43.17825" lon="2.3721">
        <ele>146.8</ele>
        <time>2019-06-16T06:14:59.000Z</time>
      </trkpt>
      <trkpt lat="43.17827" lon="2.3721">
        <ele>146.7</ele>
        <time>2019-06-16T06:15:00.000Z</time>
      </trkpt>
      <trkpt lat="43.17829" lon="2.37211">
        <ele>146.7</ele>
        <time>2019-06-16T06:15:01.000Z</time>
      </trkpt>
      <trkpt lat="43.17832" lon="2.37212">
        <ele>146.6</ele>
        <time>2019-06-16T06:15:02.000Z</time>
      </trkpt>
      <trkpt lat="43.17834" lon="2.37213">
        <ele>146.6</ele>
        <time>2019-06-16T06:15:03.000Z</time>
      </trkpt>
      <trkpt lat="43.17836" lon="2.37214">
        <ele>146.7</ele>
        <time>2019-06-16T06:15:04.000Z</time>
      </trkpt>
      <trkpt lat="43.17838" lon="2.37215">
        <ele>146.8</ele>
        <time>2019-06-16T06:15:05.000Z</time>
      </trkpt>
      <trkpt lat="43.1784" lon="2.37216">
        <ele>146.9</ele>
        <time>2019-06-16T06:15:06.000Z</time>
      </trkpt>
      <trkpt lat="43.17842" lon="2.37217">
        <ele>147.1</ele>
        <time>2019-06-16T06:15:07.000Z</time>
      </trkpt>
      <trkpt lat="43.17843" lon="2.37218">
        <ele>147.2</ele>
        <time>2019-06-16T06:15:08.000Z</time>
      </trkpt>
      <trkpt lat="43.17845" lon="2.37219">
        <ele>147.3</ele>
        <time>2019-06-16T06:15:09.000Z</time>
      </trkpt>
      <trkpt lat="43.17847" lon="2.3722">
        <ele>147.4</ele>
        <time>2019-06-16T06:15:10.000Z</time>
      </trkpt>
      <trkpt lat="43.17849" lon="2.37221">
        <ele>147.5</ele>
        <time>2019-06-16T06:15:11.000Z</time>
      </trkpt>
      <trkpt lat="43.1785" lon="2.37222">
        <ele>147.6</ele>
        <time>2019-06-16T06:15:12.000Z</time>
      </trkpt>
      <trkpt lat="43.17852" lon="2.37223">
        <ele>147.7</ele>
        <time>2019-06-16T06:15:13.000Z</time>
      </trkpt>
      <trkpt lat="43.17854" lon="2.37224">
        <ele>147.8</ele>
        <time>2019-06-16T06:15:14.000Z</time>
      </trkpt>
      <trkpt lat="43.17855" lon="2.37225">
        <ele>147.9</ele>
        <time>2019-06-16T06:15:15.000Z</time>
      </trkpt>
      <trkpt lat="43.17857" lon="2.37226">
        <ele>148.1</ele>
        <time>2019-06-16T06:15:16.000Z</time>
      </trkpt>
      <trkpt lat="43.17859" lon="2.37227">
        <ele>148.2</ele>
        <time>2019-06-16T06:15:17.000Z</time>
      </trkpt>
      <trkpt lat="43.17861" lon="2.37228">
        <ele>148.3</ele>
        <time>2019-06-16T06:15:18.000Z</time>
      </trkpt>
      <trkpt lat="43.17862" lon="2.37229">
        <ele>148.4</ele>
        <time>2019-06-16T06:15:19.000Z</time>
      </trkpt>
      <trkpt lat="43.17864" lon="2.3723">
        <ele>148.5</ele>
        <time>2019-06-16T06:15:20.000Z</time>
      </trkpt>
      <trkpt lat="43.17866" lon="2.37231">
        <ele>148.6</ele>
        <time>2019-06-16T06:15:21.000Z</time>
      </trkpt>
      <trkpt lat="43.17868" lon="2.37231">
        <ele>148.8</ele>
        <time>2019-06-16T06:15:22.000Z</time>
      </trkpt>
      <trkpt lat="43.1787" lon="2.37232">
        <ele>148.9</ele>
        <time>2019-06-16T06:15:23.000Z</time>
      </trkpt>
      <trkpt lat="43.17872" lon="2.37233">
        <ele>149</ele>
        <time>2019-06-16T06:15:24.000Z</time>
      </trkpt>
      <trkpt lat="43.17875" lon="2.37233">
        <ele>149.2</ele>
        <time>2019-06-16T06:15:25.000Z</time>
      </trkpt>
      <trkpt lat="43.17877" lon="2.37234">
        <ele>149.3</ele>
        <time>2019-06-16T06:15:26.000Z</time>
      </trkpt>
      <trkpt lat="43.17879" lon="2.37234">
        <ele>149.4</ele>
        <time>2019-06-16T06:15:27.000Z</time>
      </trkpt>
      <trkpt lat="43.17881" lon="2.37235">
        <ele>149.6</ele>
        <time>2019-06-16T06:15:28.000Z</time>
      </trkpt>
      <trkpt lat="43.17884" lon="2.37235">
        <ele>149.7</ele>
        <time>2019-06-16T06:15:29.000Z</time>
      </trkpt>
      <trkpt lat="43.17886" lon="2.37236">
        <ele>149.9</ele>
        <time>2019-06-16T06:15:30.000Z</time>
      </trkpt>
      <trkpt lat="43.17888" lon="2.37236">
        <ele>150</ele>
        <time>2019-06-16T06:15:31.000Z</time>
      </trkpt>
      <trkpt lat="43.17891" lon="2.37237">
        <ele>150.2</ele>
        <time>2019-06-16T06:15:32.000Z</time>
      </trkpt>
      <trkpt lat="43.17893" lon="2.37237">
        <ele>150.3</ele>
        <time>2019-06-16T06:15:33.000Z</time>
      </trkpt>
      <trkpt lat="43.17895" lon="2.37238">
        <ele>150.5</ele>
        <time>2019-06-16T06:15:34.000Z</time>
      </trkpt>
      <trkpt lat="43.17898" lon="2.37238">
        <ele>150.6</ele>
        <time>2019-06-16T06:15:35.000Z</time>
      </trkpt>
      <trkpt lat="43.179" lon="2.37239">
        <ele>150.8</ele>
        <time>2019-06-16T06:15:36.000Z</time>
      </trkpt>
      <trkpt lat="43.17902" lon="2.3724">
        <ele>150.9</ele>
        <time>2019-06-16T06:15:37.000Z</time>
      </trkpt>
      <trkpt lat="43.17904" lon="2.3724">
        <ele>151</ele>
        <time>2019-06-16T06:15:38.000Z</time>
      </trkpt>
      <trkpt lat="43.17907" lon="2.37241">
        <ele>151.2</ele>
        <time>2019-06-16T06:15:39.000Z</time>
      </trkpt>
      <trkpt lat="43.17909" lon="2.37242">
        <ele>151.3</ele>
        <time>2019-06-16T06:15:40.000Z</time>
      </trkpt>
      <trkpt lat="43.17911" lon="2.37242">
        <ele>151.5</ele>
        <time>2019-06-16T06:15:41.000Z</time>
      </trkpt>
      <trkpt lat="43.17913" lon="2.37243">
        <ele>151.6</ele>
        <time>2019-06-16T06:15:42.000Z</time>
      </trkpt>
      <trkpt lat="43.17916" lon="2.37243">
        <ele>151.8</ele>
        <time>2019-06-16T06:15:43.000Z</time>
      </trkpt>
      <trkpt lat="43.17918" lon="2.37244">
        <ele>151.8</ele>
        <time>2019-06-16T06:15:44.000Z</time>
      </trkpt>
      <trkpt lat="43.1792" lon="2.37244">
        <ele>151.8</ele>
        <time>2019-06-16T06:15:45.000Z</time>
      </trkpt>
      <trkpt lat="43.17922" lon="2.37245">
        <ele>151.7</ele>
        <time>2019-06-16T06:15:46.000Z</time>
      </trkpt>
      <trkpt lat="43.17924" lon="2.37245">
        <ele>151.6</ele>
        <time>2019-06-16T06:15:47.000Z</time>
      </trkpt>
      <trkpt lat="43.17926" lon="2.37245">
        <ele>151.6</ele>
        <time>2019-06-16T06:15:48.000Z</time>
      </trkpt>
      <trkpt lat="43.17928" lon="2.37246">
        <ele>151.5</ele>
        <time>2019-06-16T06:15:49.000Z</time>
      </trkpt>
      <trkpt lat="43.1793" lon="2.37246">
        <ele>151.5</ele>
        <time>2019-06-16T06:15:50.000Z</time>
      </trkpt>
      <trkpt lat="43.17932" lon="2.37247">
        <ele>151.4</ele>
        <time>2019-06-16T06:15:51.000Z</time>
      </trkpt>
      <trkpt lat="43.17933" lon="2.37247">
        <ele>151.4</ele>
        <time>2019-06-16T06:15:52.000Z</time>
      </trkpt>
      <trkpt lat="43.17935" lon="2.37247">
        <ele>151.3</ele>
        <time>2019-06-16T06:15:53.000Z</time>
      </trkpt>
      <trkpt lat="43.17936" lon="2.37248">
        <ele>151.3</ele>
        <time>2019-06-16T06:15:54.000Z</time>
      </trkpt>
      <trkpt lat="43.17938" lon="2.37248">
        <ele>151.2</ele>
        <time>2019-06-16T06:15:55.000Z</time>
      </trkpt>
      <trkpt lat="43.17939" lon="2.37248">
        <ele>151.2</ele>
        <time>2019-06-16T06:15:56.000Z</time>
      </trkpt>
      <trkpt lat="43.1794" lon="2.37249">
        <ele>151.2</ele>
        <time>2019-06-16T06:15:57.000Z</time>
      </trkpt>
      <trkpt lat="43.17941" lon="2.37249">
        <ele>151.1</ele>
        <time>2019-06-16T06:15:58.000Z</time>
      </trkpt>
      <trkpt lat="43.17942" lon="2.37249">
        <ele>151.1</ele>
        <time>2019-06-16T06:15:59.000Z</time>
      </trkpt>
      <trkpt lat="43.17943" lon="2.37248">
        <ele>151</ele>
        <time>2019-06-16T06:16:00.000Z</time>
      </trkpt>
      <trkpt lat="43.17944" lon="2.37248">
        <ele>151</ele>
        <time>2019-06-16T06:16:01.000Z</time>
      </trkpt>
      <trkpt lat="43.17945" lon="2.37247">
        <ele>151</ele>
        <time>2019-06-16T06:16:02.000Z</time>
      </trkpt>
      <trkpt lat="43.17946" lon="2.37247">
        <ele>151</ele>
        <time>2019-06-16T06:16:03.000Z</time>
      </trkpt>
      <trkpt lat="43.17947" lon="2.37246">
        <ele>150.9</ele>
        <time>2019-06-16T06:16:04.000Z</time>
      </trkpt>
      <trkpt lat="43.17947" lon="2.37245">
        <ele>150.9</ele>
        <time>2019-06-16T06:16:05.000Z</time>
      </trkpt>
      <trkpt lat="43.17948" lon="2.37244">
        <ele>150.9</ele>
        <time>2019-06-16T06:16:06.000Z</time>
      </trkpt>
      <trkpt lat="43.17949" lon="2.37244">
        <ele>150.9</ele>
        <time>2019-06-16T06:16:07.000Z</time>
      </trkpt>
      <trkpt lat="43.1795" lon="2.37243">
        <ele>150.8</ele>
        <time>2019-06-16T06:16:08.000Z</time>
      </trkpt>
      <trkpt lat="43.1795" lon="2.37242">
        <ele>150.8</ele>
        <time>2019-06-16T06:16:09.000Z</time>
      </trkpt>
      <trkpt lat="43.17951" lon="2.37241">
        <ele>150.8</ele>
        <time>2019-06-16T06:16:10.000Z</time>
      </trkpt>
      <trkpt lat="43.17952" lon="2.37241">
        <ele>150.8</ele>
        <time>2019-06-16T06:16:11.000Z</time>
      </trkpt>
      <trkpt lat="43.17953" lon="2.3724">
        <ele>150.8</ele>
        <time>2019-06-16T06:16:12.000Z</time>
      </trkpt>
      <trkpt lat="43.17953" lon="2.37239">
        <ele>150.8</ele>
        <time>2019-06-16T06:16:13.000Z</time>
      </trkpt>
      <trkpt lat="43.17954" lon="2.37239">
        <ele>150.7</ele>
        <time>2019-06-16T06:16:14.000Z</time>
      </trkpt>
      <trkpt lat="43.17955" lon="2.37239">
        <ele>150.7</ele>
        <time>2019-06-16T06:16:15.000Z</time>
      </trkpt>
      <trkpt lat="43.17956" lon="2.37238">
        <ele>150.7</ele>
        <time>2019-06-16T06:16:16.000Z</time>
      </trkpt>
      <trkpt lat="43.17957" lon="2.37238">
        <ele>150.7</ele>
        <time>2019-06-16T06:16:17.000Z</time>
      </trkpt>
      <trkpt lat="43.17957" lon="2.37238">
        <ele>150.7</ele>
        <time>2019-06-16T06:16:18.000Z</time>
      </trkpt>
      <trkpt lat="43.17958" lon="2.37238">
        <ele>150.6</ele>
        <time>2019-06-16T06:16:19.000Z</time>
      </trkpt>
      <trkpt lat="43.17959" lon="2.37238">
        <ele>150.6</ele>
        <time>2019-06-16T06:16:20.000Z</time>
      </trkpt>
      <trkpt lat="43.1796" lon="2.37238">
        <ele>150.6</ele>
        <time>2019-06-16T06:16:21.000Z</time>
      </trkpt>
      <trkpt lat="43.17961" lon="2.37237">
        <ele>150.6</ele>
        <time>2019-06-16T06:16:22.000Z</time>
      </trkpt>
      <trkpt lat="43.17962" lon="2.37237">
        <ele>150.6</ele>
        <time>2019-06-16T06:16:23.000Z</time>
      </trkpt>
      <trkpt lat="43.17963" lon="2.37237">
        <ele>150.6</ele>
        <time>2019-06-16T06:16:24.000Z</time>
      </trkpt>
      <trkpt lat="43.17963" lon="2.37237">
        <ele>150.5</ele>
        <time>2019-06-16T06:16:25.000Z</time>
      </trkpt>
      <trkpt lat="43.17964" lon="2.37236">
        <ele>150.5</ele>
        <time>2019-06-16T06:16:26.000Z</time>
      </trkpt>
      <trkpt lat="43.17965" lon="2.37236">
        <ele>150.5</ele>
        <time>2019-06-16T06:16:27.000Z</time>
      </trkpt>
      <trkpt lat="43.17966" lon="2.37235">
        <ele>150.5</ele>
        <time>2019-06-16T06:16:28.000Z</time>
      </trkpt>
      <trkpt lat="43.17967" lon="2.37235">
        <ele>150.5</ele>
        <time>2019-06-16T06:16:29.000Z</time>
      </trkpt>
      <trkpt lat="43.17967" lon="2.37234">
        <ele>150.5</ele>
        <time>2019-06-16T06:16:30.000Z</time>
      </trkpt>
      <trkpt lat="43.17968" lon="2.37234">
        <ele>150.5</ele>
        <time>2019-06-16T06:16:31.000Z</time>
      </trkpt>
      <trkpt lat="43.17969" lon="2.37234">
        <ele>150.5</ele>
        <time>2019-06-16T06:16:32.000Z</time>
      </trkpt>
      <trkpt lat="43.1797" lon="2.37234">
        <ele>150.5</ele>
        <time>2019-06-16T06:16:33.000Z</time>
      </trkpt>
      <trkpt lat="43.1797" lon="2.37233">
        <ele>150.4</ele>
        <time>2019-06-16T06:16:34.000Z</time>
      </trkpt>
      <trkpt lat="43.17971" lon="2.37233">
        <ele>150.4</ele>
        <time>2019-06-16T06:16:35.000Z</time>
      </trkpt>
      <trkpt lat="43.17972" lon="2.37233">
        <ele>150.4</ele>
        <time>2019-06-16T06:16:36.000Z</time>
      </trkpt>
      <trkpt lat="43.17972" lon="2.37233">
        <ele>150.4</ele>
        <time>2019-06-16T06:16:37.000Z</time>
      </trkpt>
      <trkpt lat="43.17972" lon="2.37234">
        <ele>150.4</ele>
        <time>2019-06-16T06:16:38.000Z</time>
      </trkpt>
      <trkpt lat="43.17972" lon="2.37234">
        <ele>150.4</ele>
        <time>2019-06-16T06:16:39.000Z</time>
      </trkpt>
      <trkpt lat="43.17971" lon="2.37235">
        <ele>150.4</ele>
        <time>2019-06-16T06:16:40.000Z</time>
      </trkpt>
      <trkpt lat="43.1797" lon="2.37235">
        <ele>150.4</ele>
        <time>2019-06-16T06:16:41.000Z</time>
      </trkpt>
      <trkpt lat="43.1797" lon="2.37235">
        <ele>150.4</ele>
        <time>2019-06-16T06:16:42.000Z</time>
      </trkpt>
      <trkpt lat="43.17969" lon="2.37235">
        <ele>150.4</ele>
        <time>2019-06-16T06:16:43.000Z</time>
      </trkpt>
      <trkpt lat="43.17968" lon="2.37235">
        <ele>150.5</ele>
        <time>2019-06-16T06:16:44.000Z</time>
      </trkpt>
      <trkpt lat="43.17967" lon="2.37235">
        <ele>150.5</ele>
        <time>2019-06-16T06:16:45.000Z</time>
      </trkpt>
      <trkpt lat="43.17967" lon="2.37235">
        <ele>150.5</ele>
        <time>2019-06-16T06:16:46.000Z</time>
      </trkpt>
      <trkpt lat="43.17966" lon="2.37235">
        <ele>150.5</ele>
        <time>2019-06-16T06:16:47.000Z</time>
      </trkpt>
      <trkpt lat="43.17965" lon="2.37235">
        <ele>150.5</ele>
        <time>2019-06-16T06:16:48.000Z</time>
      </trkpt>
      <trkpt lat="43.17965" lon="2.37235">
        <ele>150.5</ele>
        <time>2019-06-16T06:16:49.000Z</time>
      </trkpt>
      <trkpt lat="43.17964" lon="2.37235">
        <ele>150.5</ele>
        <time>2019-06-16T06:16:50.000Z</time>
      </trkpt>
      <trkpt lat="43.17964" lon="2.37235">
        <ele>150.5</ele>
        <time>2019-06-16T06:16:51.000Z</time>
      </trkpt>
      <trkpt lat="43.17964" lon="2.37236">
        <ele>150.5</ele>
        <time>2019-06-16T06:16:52.000Z</time>
      </trkpt>
      <trkpt lat="43.17964" lon="2.37236">
        <ele>150.5</ele>
        <time>2019-06-16T06:16:53.000Z</time>
      </trkpt>
      <trkpt lat="43.17964" lon="2.37236">
        <ele>150.5</ele>
        <time>2019-06-16T06:16:54.000Z</time>
      </trkpt>
      <trkpt lat="43.17964" lon="2.37236">
        <ele>150.5</ele>
        <time>2019-06-16T06:16:55.000Z</time>
      </trkpt>
      <trkpt lat="43.17964" lon="2.37236">
        <ele>150.5</ele>
        <time>2019-06-16T06:16:56.000Z</time>
      </trkpt>
      <trkpt lat="43.17964" lon="2.37236">
        <ele>150.5</ele>
        <time>2019-06-16T06:16:57.000Z</time>
      </trkpt>
      <trkpt lat="43.17964" lon="2.37236">
        <ele>150.5</ele>
        <time>2019-06-16T06:16:58.000Z</time>
      </trkpt>
      <trkpt lat="43.17964" lon="2.37236">
        <ele>150.5</ele>
        <time>2019-06-16T06:16:59.000Z</time>
      </trkpt>
      <trkpt lat="43.17964" lon="2.37236">
        <ele>150.5</ele>
        <time>2019-06-16T06:17:00.000Z</time>
      </trkpt>
      <trkpt lat="43.17964" lon="2.37236">
        <ele>150.5</ele>
        <time>2019-06-16T06:17:01.000Z</time>
      </trkpt>
      <trkpt lat="43.17964" lon="2.37236">
        <ele>150.5</ele>
        <time>2019-06-16T06:17:02.000Z</time>
      </trkpt>
      <trkpt lat="43.17964" lon="2.37236">
        <ele>150.5</ele>
        <time>2019-06-16T06:17:03.000Z</time>
      </trkpt>
      <trkpt lat="43.17964" lon="2.37236">
        <ele>150.5</ele>
        <time>2019-06-16T06:17:04.000Z</time>
      </trkpt>
      <trkpt lat="43.17964" lon="2.37236">
        <ele>150.5</ele>
        <time>2019-06-16T06:17:05.000Z</time>
      </trkpt>
      <trkpt lat="43.17964" lon="2.37236">
        <ele>150.5</ele>
        <time>2019-06-16T06:17:06.000Z</time>
      </trkpt>
      <trkpt lat="43.17964" lon="2.37236">
        <ele>150.5</ele>
        <time>2019-06-16T06:17:07.000Z</time>
      </trkpt>
      <trkpt lat="43.17964" lon="2.37236">
        <ele>150.5</ele>
        <time>2019-06-16T06:17:08.000Z</time>
      </trkpt>
      <trkpt lat="43.17964" lon="2.37236">
        <ele>150.5</ele>
        <time>2019-06-16T06:17:09.000Z</time>
      </trkpt>
      <trkpt lat="43.17964" lon="2.37236">
        <ele>150.5</ele>
        <time>2019-06-16T06:17:10.000Z</time>
      </trkpt>
      <trkpt lat="43.17964" lon="2.37236">
        <ele>150.5</ele>
        <time>2019-06-16T06:17:11.000Z</time>
      </trkpt>
      <trkpt lat="43.17964" lon="2.37236">
        <ele>150.5</ele>
        <time>2019-06-16T06:17:12.000Z</time>
      </trkpt>
      <trkpt lat="43.17964" lon="2.37236">
        <ele>150.5</ele>
        <time>2019-06-16T06:17:13.000Z</time>
      </trkpt>
      <trkpt lat="43.17964" lon="2.37236">
        <ele>150.5</ele>
        <time>2019-06-16T06:17:14.000Z</time>
      </trkpt>
      <trkpt lat="43.17964" lon="2.37236">
        <ele>150.5</ele>
        <time>2019-06-16T06:17:15.000Z</time>
      </trkpt>
      <trkpt lat="43.17964" lon="2.37235">
        <ele>150.5</ele>
        <time>2019-06-16T06:17:16.000Z</time>
      </trkpt>
      <trkpt lat="43.17965" lon="2.37235">
        <ele>150.5</ele>
        <time>2019-06-16T06:17:17.000Z</time>
      </trkpt>
      <trkpt lat="43.17965" lon="2.37235">
        <ele>150.5</ele>
        <time>2019-06-16T06:17:18.000Z</time>
      </trkpt>
      <trkpt lat="43.17966" lon="2.37234">
        <ele>150.5</ele>
        <time>2019-06-16T06:17:19.000Z</time>
      </trkpt>
      <trkpt lat="43.17967" lon="2.37234">
        <ele>150.5</ele>
        <time>2019-06-16T06:17:20.000Z</time>
      </trkpt>
      <trkpt lat="43.17968" lon="2.37234">
        <ele>150.5</ele>
        <time>2019-06-16T06:17:21.000Z</time>
      </trkpt>
      <trkpt lat="43.17969" lon="2.37233">
        <ele>150.5</ele>
        <time>2019-06-16T06:17:22.000Z</time>
      </trkpt>
      <trkpt lat="43.1797" lon="2.37233">
        <ele>150.5</ele>
        <time>2019-06-16T06:17:23.000Z</time>
      </trkpt>
      <trkpt lat="43.17971" lon="2.37233">
        <ele>150.4</ele>
        <time>2019-06-16T06:17:24.000Z</time>
      </trkpt>
      <trkpt lat="43.17972" lon="2.37233">
        <ele>150.4</ele>
        <time>2019-06-16T06:17:25.000Z</time>
      </trkpt>
      <trkpt lat="43.17973" lon="2.37233">
        <ele>150.4</ele>
        <time>2019-06-16T06:17:26.000Z</time>
      </trkpt>
      <trkpt lat="43.17973" lon="2.37234">
        <ele>150.4</ele>
        <time>2019-06-16T06:17:27.000Z</time>
      </trkpt>
      <trkpt lat="43.17974" lon="2.37234">
        <ele>150.3</ele>
        <time>2019-06-16T06:17:28.000Z</time>
      </trkpt>
      <trkpt lat="43.17975" lon="2.37234">
        <ele>150.3</ele>
        <time>2019-06-16T06:17:29.000Z</time>
      </trkpt>
      <trkpt lat="43.17976" lon="2.37235">
        <ele>150.3</ele>
        <time>2019-06-16T06:17:30.000Z</time>
      </trkpt>
      <trkpt lat="43.17977" lon="2.37235">
        <ele>150.3</ele>
        <time>2019-06-16T06:17:31.000Z</time>
      </trkpt>
      <trkpt lat="43.17978" lon="2.37235">
        <ele>150.2</ele>
        <time>2019-06-16T06:17:32.000Z</time>
      </trkpt>
      <trkpt lat="43.17979" lon="2.37236">
        <ele>150.2</ele>
        <time>2019-06-16T06:17:33.000Z</time>
      </trkpt>
      <trkpt lat="43.17979" lon="2.37237">
        <ele>150.2</ele>
        <time>2019-06-16T06:17:34.000Z</time>
      </trkpt>
      <trkpt lat="43.1798" lon="2.37237">
        <ele>150.1</ele>
        <time>2019-06-16T06:17:35.000Z</time>
      </trkpt>
      <trkpt lat="43.17981" lon="2.37238">
        <ele>150.1</ele>
        <time>2019-06-16T06:17:36.000Z</time>
      </trkpt>
      <trkpt lat="43.17982" lon="2.37238">
        <ele>150</ele>
        <time>2019-06-16T06:17:37.000Z</time>
      </trkpt>
      <trkpt lat="43.17983" lon="2.37239">
        <ele>150</ele>
        <time>2019-06-16T06:17:38.000Z</time>
      </trkpt>
      <trkpt lat="43.17984" lon="2.3724">
        <ele>149.9</ele>
        <time>2019-06-16T06:17:39.000Z</time>
      </trkpt>
      <trkpt lat="43.17985" lon="2.3724">
        <ele>149.9</ele>
        <time>2019-06-16T06:17:40.000Z</time>
      </trkpt>
      <trkpt lat="43.17987" lon="2.37241">
        <ele>149.8</ele>
        <time>2019-06-16T06:17:41.000Z</time>
      </trkpt>
      <trkpt lat="43.17988" lon="2.37242">
        <ele>149.7</ele>
        <time>2019-06-16T06:17:42.000Z</time>
      </trkpt>
      <trkpt lat="43.17989" lon="2.37242">
        <ele>149.7</ele>
        <time>2019-06-16T06:17:43.000Z</time>
      </trkpt>
      <trkpt lat="43.17991" lon="2.37243">
        <ele>149.6</ele>
        <time>2019-06-16T06:17:44.000Z</time>
      </trkpt>
      <trkpt lat="43.17992" lon="2.37244">
        <ele>149.5</ele>
        <time>2019-06-16T06:17:45.000Z</time>
      </trkpt>
      <trkpt lat="43.17994" lon="2.37245">
        <ele>149.4</ele>
        <time>2019-06-16T06:17:46.000Z</time>
      </trkpt>
      <trkpt lat="43.17995" lon="2.37246">
        <ele>149.3</ele>
        <time>2019-06-16T06:17:47.000Z</time>
      </trkpt>
      <trkpt lat="43.17997" lon="2.37247">
        <ele>149.3</ele>
        <time>2019-06-16T06:17:48.000Z</time>
      </trkpt>
      <trkpt lat="43.17998" lon="2.37248">
        <ele>149.1</ele>
        <time>2019-06-16T06:17:49.000Z</time>
      </trkpt>
      <trkpt lat="43.18" lon="2.3725">
        <ele>149</ele>
        <time>2019-06-16T06:17:50.000Z</time>
      </trkpt>
      <trkpt lat="43.18001" lon="2.37251">
        <ele>148.9</ele>
        <time>2019-06-16T06:17:51.000Z</time>
      </trkpt>
      <trkpt lat="43.18002" lon="2.37252">
        <ele>148.8</ele>
        <time>2019-06-16T06:17:52.000Z</time>
      </trkpt>
      <trkpt lat="43.18003" lon="2.37254">
        <ele>148.7</ele>
        <time>2019-06-16T06:17:53.000Z</time>
      </trkpt>
      <trkpt lat="43.18005" lon="2.37256">
        <ele>148.6</ele>
        <time>2019-06-16T06:17:54.000Z</time>
      </trkpt>
      <trkpt lat="43.18006" lon="2.37257">
        <ele>148.5</ele>
        <time>2019-06-16T06:17:55.000Z</time>
      </trkpt>
      <trkpt lat="43.18008" lon="2.37259">
        <ele>148.3</ele>
        <time>2019-06-16T06:17:56.000Z</time>
      </trkpt>
      <trkpt lat="43.1801" lon="2.3726">
        <ele>148.2</ele>
        <time>2019-06-16T06:17:57.000Z</time>
      </trkpt>
      <trkpt lat="43.18012" lon="2.37262">
        <ele>148.1</ele>
        <time>2019-06-16T06:17:58.000Z</time>
      </trkpt>
      <trkpt lat="43.18014" lon="2.37263">
        <ele>147.9</ele>
        <time>2019-06-16T06:17:59.000Z</time>
      </trkpt>
      <trkpt lat="43.18016" lon="2.37264">
        <ele>147.7</ele>
        <time>2019-06-16T06:18:00.000Z</time>
      </trkpt>
      <trkpt lat="43.18019" lon="2.37265">
        <ele>147.6</ele>
        <time>2019-06-16T06:18:01.000Z</time>
      </trkpt>
      <trkpt lat="43.18021" lon="2.37267">
        <ele>147.4</ele>
        <time>2019-06-16T06:18:02.000Z</time>
      </trkpt>
      <trkpt lat="43.18024" lon="2.37268">
        <ele>147.3</ele>
        <time>2019-06-16T06:18:03.000Z</time>
      </trkpt>
      <trkpt lat="43.18026" lon="2.3727">
        <ele>147.1</ele>
        <time>2019-06-16T06:18:04.000Z</time>
      </trkpt>
      <trkpt lat="43.18029" lon="2.37271">
        <ele>146.9</ele>
        <time>2019-06-16T06:18:05.000Z</time>
      </trkpt>
      <trkpt lat="43.18031" lon="2.37273">
        <ele>146.8</ele>
        <time>2019-06-16T06:18:06.000Z</time>
      </trkpt>
      <trkpt lat="43.18033" lon="2.37275">
        <ele>146.6</ele>
        <time>2019-06-16T06:18:07.000Z</time>
      </trkpt>
      <trkpt lat="43.18035" lon="2.37277">
        <ele>146.5</ele>
        <time>2019-06-16T06:18:08.000Z</time>
      </trkpt>
      <trkpt lat="43.18037" lon="2.37279">
        <ele>146.4</ele>
        <time>2019-06-16T06:18:09.000Z</time>
      </trkpt>
      <trkpt lat="43.18039" lon="2.37281">
        <ele>146.2</ele>
        <time>2019-06-16T06:18:10.000Z</time>
      </trkpt>
      <trkpt lat="43.18041" lon="2.37284">
        <ele>146.1</ele>
        <time>2019-06-16T06:18:11.000Z</time>
      </trkpt>
      <trkpt lat="43.18043" lon="2.37286">
        <ele>146</ele>
        <time>2019-06-16T06:18:12.000Z</time>
      </trkpt>
      <trkpt lat="43.18045" lon="2.37288">
        <ele>145.9</ele>
        <time>2019-06-16T06:18:13.000Z</time>
      </trkpt>
      <trkpt lat="43.18047" lon="2.3729">
        <ele>145.8</ele>
        <time>2019-06-16T06:18:14.000Z</time>
      </trkpt>
      <trkpt lat="43.18049" lon="2.37293">
        <ele>145.6</ele>
        <time>2019-06-16T06:18:15.000Z</time>
      </trkpt>
      <trkpt lat="43.18051" lon="2.37295">
        <ele>145.5</ele>
        <time>2019-06-16T06:18:16.000Z</time>
      </trkpt>
      <trkpt lat="43.18053" lon="2.37297">
        <ele>145.4</ele>
        <time>2019-06-16T06:18:17.000Z</time>
      </trkpt>
      <trkpt lat="43.18055" lon="2.37299">
        <ele>145.3</ele>
        <time>2019-06-16T06:18:18.000Z</time>
      </trkpt>
      <trkpt lat="43.18057" lon="2.37301">
        <ele>145.2</ele>
        <time>2019-06-16T06:18:19.000Z</time>
      </trkpt>
      <trkpt lat="43.18059" lon="2.37303">
        <ele>145.1</ele>
        <time>2019-06-16T06:18:20.000Z</time>
      </trkpt>
      <trkpt lat="43.18061" lon="2.37305">
        <ele>145</ele>
        <time>2019-06-16T06:18:21.000Z</time>
      </trkpt>
      <trkpt lat="43.18063" lon="2.37307">
        <ele>144.9</ele>
        <time>2019-06-16T06:18:22.000Z</time>
      </trkpt>
      <trkpt lat="43.18065" lon="2.37309">
        <ele>144.8</ele>
        <time>2019-06-16T06:18:23.000Z</time>
      </trkpt>
      <trkpt lat="43.18067" lon="2.37311">
        <ele>144.7</ele>
        <time>2019-06-16T06:18:24.000Z</time>
      </trkpt>
      <trkpt lat="43.18069" lon="2.37313">
        <ele>144.6</ele>
        <time>2019-06-16T06:18:25.000Z</time>
      </trkpt>
      <trkpt lat="43.18071" lon="2.37315">
        <ele>144.5</ele>
        <time>2019-06-16T06:18:26.000Z</time>
      </trkpt>
      <trkpt lat="43.18073" lon="2.37317">
        <ele>144.4</ele>
        <time>2019-06-16T06:18:27.000Z</time>
      </trkpt>
      <trkpt lat="43.18075" lon="2.37319">
        <ele>144.3</ele>
        <time>2019-06-16T06:18:28.000Z</time>
      </trkpt>
      <trkpt lat="43.18077" lon="2.37321">
        <ele>144.2</ele>
        <time>2019-06-16T06:18:29.000Z</time>
      </trkpt>
      <trkpt lat="43.18079" lon="2.37323">
        <ele>144.2</ele>
        <time>2019-06-16T06:18:30.000Z</time>
      </trkpt>
      <trkpt lat="43.18081" lon="2.37325">
        <ele>144.1</ele>
        <time>2019-06-16T06:18:31.000Z</time>
      </trkpt>
      <trkpt lat="43.18083" lon="2.37327">
        <ele>144</ele>
        <time>2019-06-16T06:18:32.000Z</time>
      </trkpt>
      <trkpt lat="43.18085" lon="2.37329">
        <ele>144</ele>
        <time>2019-06-16T06:18:33.000Z</time>
      </trkpt>
      <trkpt lat="43.18086" lon="2.37331">
        <ele>144</ele>
        <time>2019-06-16T06:18:34.000Z</time>
      </trkpt>
      <trkpt lat="43.18087" lon="2.37333">
        <ele>144</ele>
        <time>2019-06-16T06:18:35.000Z</time>
      </trkpt>
      <trkpt lat="43.18088" lon="2.37335">
        <ele>144.1</ele>
        <time>2019-06-16T06:18:36.000Z</time>
      </trkpt>
      <trkpt lat="43.18088" lon="2.37338">
        <ele>144.1</ele>
        <time>2019-06-16T06:18:37.000Z</time>
      </trkpt>
      <trkpt lat="43.18087" lon="2.3734">
        <ele>144.1</ele>
        <time>2019-06-16T06:18:38.000Z</time>
      </trkpt>
      <trkpt lat="43.18087" lon="2.37343">
        <ele>144.1</ele>
        <time>2019-06-16T06:18:39.000Z</time>
      </trkpt>
      <trkpt lat="43.18085" lon="2.37345">
        <ele>144.2</ele>
        <time>2019-06-16T06:18:40.000Z</time>
      </trkpt>
      <trkpt lat="43.18084" lon="2.37348">
        <ele>144.2</ele>
        <time>2019-06-16T06:18:41.000Z</time>
      </trkpt>
      <trkpt lat="43.18082" lon="2.37351">
        <ele>144.2</ele>
        <time>2019-06-16T06:18:42.000Z</time>
      </trkpt>
      <trkpt lat="43.1808" lon="2.37354">
        <ele>144.3</ele>
        <time>2019-06-16T06:18:43.000Z</time>
      </trkpt>
      <trkpt lat="43.18079" lon="2.37356">
        <ele>144.4</ele>
        <time>2019-06-16T06:18:44.000Z</time>
      </trkpt>
      <trkpt lat="43.18077" lon="2.37359">
        <ele>144.5</ele>
        <time>2019-06-16T06:18:45.000Z</time>
      </trkpt>
      <trkpt lat="43.18076" lon="2.37362">
        <ele>144.5</ele>
        <time>2019-06-16T06:18:46.000Z</time>
      </trkpt>
      <trkpt lat="43.18074" lon="2.37364">
        <ele>144.6</ele>
        <time>2019-06-16T06:18:47.000Z</time>
      </trkpt>
      <trkpt lat="43.18073" lon="2.37367">
        <ele>144.6</ele>
        <time>2019-06-16T06:18:48.000Z</time>
      </trkpt>
      <trkpt lat="43.18071" lon="2.37369">
        <ele>144.7</ele>
        <time>2019-06-16T06:18:49.000Z</time>
      </trkpt>
      <trkpt lat="43.1807" lon="2.37372">
        <ele>144.7</ele>
        <time>2019-06-16T06:18:50.000Z</time>
      </trkpt>
      <trkpt lat="43.18069" lon="2.37374">
        <ele>144.8</ele>
        <time>2019-06-16T06:18:51.000Z</time>
      </trkpt>
      <trkpt lat="43.18068" lon="2.37377">
        <ele>144.8</ele>
        <time>2019-06-16T06:18:52.000Z</time>
      </trkpt>
      <trkpt lat="43.18068" lon="2.37379">
        <ele>144.8</ele>
        <time>2019-06-16T06:18:53.000Z</time>
      </trkpt>
      <trkpt lat="43.1807" lon="2.3738">
        <ele>144.8</ele>
        <time>2019-06-16T06:18:54.000Z</time>
      </trkpt>
      <trkpt lat="43.18071" lon="2.3738">
        <ele>144.7</ele>
        <time>2019-06-16T06:18:55.000Z</time>
      </trkpt>
      <trkpt lat="43.18073" lon="2.37379">
        <ele>144.7</ele>
        <time>2019-06-16T06:18:56.000Z</time>
      </trkpt>
      <trkpt lat="43.18074" lon="2.37377">
        <ele>144.7</ele>
        <time>2019-06-16T06:18:57.000Z</time>
      </trkpt>
      <trkpt lat="43.18075" lon="2.37375">
        <ele>144.6</ele>
        <time>2019-06-16T06:18:58.000Z</time>
      </trkpt>
      <trkpt lat="43.18076" lon="2.37373">
        <ele>144.6</ele>
        <time>2019-06-16T06:18:59.000Z</time>
      </trkpt>
      <trkpt lat="43.18077" lon="2.37371">
        <ele>144.6</ele>
        <time>2019-06-16T06:19:00.000Z</time>
      </trkpt>
      <trkpt lat="43.18077" lon="2.37369">
        <ele>144.5</ele>
        <time>2019-06-16T06:19:01.000Z</time>
      </trkpt>
      <trkpt lat="43.18078" lon="2.37367">
        <ele>144.5</ele>
        <time>2019-06-16T06:19:02.000Z</time>
      </trkpt>
      <trkpt lat="43.18079" lon="2.37365">
        <ele>144.5</ele>
        <time>2019-06-16T06:19:03.000Z</time>
      </trkpt>
      <trkpt lat="43.1808" lon="2.37363">
        <ele>144.4</ele>
        <time>2019-06-16T06:19:04.000Z</time>
      </trkpt>
      <trkpt lat="43.18081" lon="2.37361">
        <ele>144.4</ele>
        <time>2019-06-16T06:19:05.000Z</time>
      </trkpt>
      <trkpt lat="43.18082" lon="2.3736">
        <ele>144.3</ele>
        <time>2019-06-16T06:19:06.000Z</time>
      </trkpt>
      <trkpt lat="43.18083" lon="2.37358">
        <ele>144.3</ele>
        <time>2019-06-16T06:19:07.000Z</time>
      </trkpt>
      <trkpt lat="43.18084" lon="2.37357">
        <ele>144.3</ele>
        <time>2019-06-16T06:19:08.000Z</time>
      </trkpt>
      <trkpt lat="43.18085" lon="2.37355">
        <ele>144.3</ele>
        <time>2019-06-16T06:19:09.000Z</time>
      </trkpt>
      <trkpt lat="43.18086" lon="2.37354">
        <ele>144.3</ele>
        <time>2019-06-16T06:19:10.000Z</time>
      </trkpt>
      <trkpt lat="43.18086" lon="2.37353">
        <ele>144.3</ele>
        <time>2019-06-16T06:19:11.000Z</time>
      </trkpt>
      <trkpt lat="43.18087" lon="2.37352">
        <ele>144.2</ele>
        <time>2019-06-16T06:19:12.000Z</time>
      </trkpt>
      <trkpt lat="43.18088" lon="2.3735">
        <ele>144.2</ele>
        <time>2019-06-16T06:19:13.000Z</time>
      </trkpt>
      <trkpt lat="43.18089" lon="2.37349">
        <ele>144.2</ele>
        <time>2019-06-16T06:19:14.000Z</time>
      </trkpt>
      <trkpt lat="43.1809" lon="2.37348">
        <ele>144.2</ele>
        <time>2019-06-16T06:19:15.000Z</time>
      </trkpt>
      <trkpt lat="43.18091" lon="2.37347">
        <ele>144.2</ele>
        <time>2019-06-16T06:19:16.000Z</time>
      </trkpt>
      <trkpt lat="43.18092" lon="2.37346">
        <ele>144.2</ele>
        <time>2019-06-16T06:19:17.000Z</time>
      </trkpt>
      <trkpt lat="43.18093" lon="2.37345">
        <ele>144.2</ele>
        <time>2019-06-16T06:19:18.000Z</time>
      </trkpt>
      <trkpt lat="43.18094" lon="2.37344">
        <ele>144.2</ele>
        <time>2019-06-16T06:19:19.000Z</time>
      </trkpt>
      <trkpt lat="43.18095" lon="2.37344">
        <ele>144.2</ele>
        <time>2019-06-16T06:19:20.000Z</time>
      </trkpt>
      <trkpt lat="43.18097" lon="2.37343">
        <ele>144.2</ele>
        <time>2019-06-16T06:19:21.000Z</time>
      </trkpt>
      <trkpt lat="43.18098" lon="2.37342">
        <ele>144.2</ele>
        <time>2019-06-16T06:19:22.000Z</time>
      </trkpt>
      <trkpt lat="43.18099" lon="2.37341">
        <ele>144.2</ele>
        <time>2019-06-16T06:19:23.000Z</time>
      </trkpt>
      <trkpt lat="43.181" lon="2.3734">
        <ele>144.2</ele>
        <time>2019-06-16T06:19:24.000Z</time>
      </trkpt>
      <trkpt lat="43.18101" lon="2.37339">
        <ele>144.3</ele>
        <time>2019-06-16T06:19:25.000Z</time>
      </trkpt>
      <trkpt lat="43.18102" lon="2.37338">
        <ele>144.3</ele>
        <time>2019-06-16T06:19:26.000Z</time>
      </trkpt>
      <trkpt lat="43.18103" lon="2.37338">
        <ele>144.3</ele>
        <time>2019-06-16T06:19:27.000Z</time>
      </trkpt>
      <trkpt lat="43.18104" lon="2.37337">
        <ele>144.3</ele>
        <time>2019-06-16T06:19:28.000Z</time>
      </trkpt>
      <trkpt lat="43.18105" lon="2.37336">
        <ele>144.3</ele>
        <time>2019-06-16T06:19:29.000Z</time>
      </trkpt>
      <trkpt lat="43.18106" lon="2.37335">
        <ele>144.3</ele>
        <time>2019-06-16T06:19:30.000Z</time>
      </trkpt>
      <trkpt lat="43.18107" lon="2.37334">
        <ele>144.3</ele>
        <time>2019-06-16T06:19:31.000Z</time>
      </trkpt>
      <trkpt lat="43.18108" lon="2.37333">
        <ele>144.3</ele>
        <time>2019-06-16T06:19:32.000Z</time>
      </trkpt>
      <trkpt lat="43.18109" lon="2.37333">
        <ele>144.3</ele>
        <time>2019-06-16T06:19:33.000Z</time>
      </trkpt>
      <trkpt lat="43.1811" lon="2.37332">
        <ele>144.3</ele>
        <time>2019-06-16T06:19:34.000Z</time>
      </trkpt>
      <trkpt lat="43.18111" lon="2.37331">
        <ele>144.3</ele>
        <time>2019-06-16T06:19:35.000Z</time>
      </trkpt>
      <trkpt lat="43.18111" lon="2.37331">
        <ele>144.3</ele>
        <time>2019-06-16T06:19:36.000Z</time>
      </trkpt>
      <trkpt lat="43.18112" lon="2.37332">
        <ele>144.3</ele>
        <time>2019-06-16T06:19:37.000Z</time>
      </trkpt>
      <trkpt lat="43.18112" lon="2.37333">
        <ele>144.3</ele>
        <time>2019-06-16T06:19:38.000Z</time>
      </trkpt>
      <trkpt lat="43.18112" lon="2.37334">
        <ele>144.3</ele>
        <time>2019-06-16T06:19:39.000Z</time>
      </trkpt>
      <trkpt lat="43.18111" lon="2.37336">
        <ele>144.3</ele>
        <time>2019-06-16T06:19:40.000Z</time>
      </trkpt>
      <trkpt lat="43.18111" lon="2.37337">
        <ele>144.3</ele>
        <time>2019-06-16T06:19:41.000Z</time>
      </trkpt>
      <trkpt lat="43.1811" lon="2.37339">
        <ele>144.3</ele>
        <time>2019-06-16T06:19:42.000Z</time>
      </trkpt>
      <trkpt lat="43.1811" lon="2.3734">
        <ele>144.3</ele>
        <time>2019-06-16T06:19:43.000Z</time>
      </trkpt>
      <trkpt lat="43.1811" lon="2.37341">
        <ele>144.4</ele>
        <time>2019-06-16T06:19:44.000Z</time>
      </trkpt>
      <trkpt lat="43.1811" lon="2.37342">
        <ele>144.4</ele>
        <time>2019-06-16T06:19:45.000Z</time>
      </trkpt>
      <trkpt lat="43.1811" lon="2.37343">
        <ele>144.4</ele>
        <time>2019-06-16T06:19:46.000Z</time>
      </trkpt>
      <trkpt lat="43.1811" lon="2.37344">
        <ele>144.4</ele>
        <time>2019-06-16T06:19:47.000Z</time>
      </trkpt>
      <trkpt lat="43.1811" lon="2.37344">
        <ele>144.4</ele>
        <time>2019-06-16T06:19:48.000Z</time>
      </trkpt>
      <trkpt lat="43.18111" lon="2.37345">
        <ele>144.4</ele>
        <time>2019-06-16T06:19:49.000Z</time>
      </trkpt>
      <trkpt lat="43.18111" lon="2.37345">
        <ele>144.4</ele>
        <time>2019-06-16T06:19:50.000Z</time>
      </trkpt>
      <trkpt lat="43.18112" lon="2.37346">
        <ele>144.4</ele>
        <time>2019-06-16T06:19:51.000Z</time>
      </trkpt>
      <trkpt lat="43.18112" lon="2.37347">
        <ele>144.4</ele>
        <time>2019-06-16T06:19:52.000Z</time>
      </trkpt>
      <trkpt lat="43.18112" lon="2.37347">
        <ele>144.4</ele>
        <time>2019-06-16T06:19:53.000Z</time>
      </trkpt>
      <trkpt lat="43.18113" lon="2.37347">
        <ele>144.4</ele>
        <time>2019-06-16T06:19:54.000Z</time>
      </trkpt>
      <trkpt lat="43.18113" lon="2.37348">
        <ele>144.4</ele>
        <time>2019-06-16T06:19:55.000Z</time>
      </trkpt>
      <trkpt lat="43.18113" lon="2.37348">
        <ele>144.4</ele>
        <time>2019-06-16T06:19:56.000Z</time>
      </trkpt>
      <trkpt lat="43.18113" lon="2.37348">
        <ele>144.4</ele>
        <time>2019-06-16T06:19:57.000Z</time>
      </trkpt>
      <trkpt lat="43.18113" lon="2.37349">
        <ele>144.4</ele>
        <time>2019-06-16T06:19:58.000Z</time>
      </trkpt>
      <trkpt lat="43.18114" lon="2.37349">
        <ele>144.4</ele>
        <time>2019-06-16T06:19:59.000Z</time>
      </trkpt>
      <trkpt lat="43.18114" lon="2.37349">
        <ele>144.4</ele>
        <time>2019-06-16T06:20:00.000Z</time>
      </trkpt>
      <trkpt lat="43.18114" lon="2.37349">
        <ele>144.4</ele>
        <time>2019-06-16T06:20:01.000Z</time>
      </trkpt>
      <trkpt lat="43.18114" lon="2.37349">
        <ele>144.4</ele>
        <time>2019-06-16T06:20:02.000Z</time>
      </trkpt>
      <trkpt lat="43.18114" lon="2.37349">
        <ele>144.4</ele>
        <time>2019-06-16T06:20:03.000Z</time>
      </trkpt>
      <trkpt lat="43.18114" lon="2.37349">
        <ele>144.4</ele>
        <time>2019-06-16T06:20:04.000Z</time>
      </trkpt>
      <trkpt lat="43.18114" lon="2.37349">
        <ele>144.4</ele>
        <time>2019-06-16T06:20:05.000Z</time>
      </trkpt>
      <trkpt lat="43.18114" lon="2.37349">
        <ele>144.4</ele>
        <time>2019-06-16T06:20:06.000Z</time>
      </trkpt>
      <trkpt lat="43.18114" lon="2.37349">
        <ele>144.4</ele>
        <time>2019-06-16T06:20:07.000Z</time>
      </trkpt>
      <trkpt lat="43.18114" lon="2.37349">
        <ele>144.4</ele>
        <time>2019-06-16T06:20:08.000Z</time>
      </trkpt>
      <trkpt lat="43.18114" lon="2.37349">
        <ele>144.4</ele>
        <time>2019-06-16T06:20:09.000Z</time>
      </trkpt>
      <trkpt lat="43.18114" lon="2.37349">
        <ele>144.4</ele>
        <time>2019-06-16T06:20:10.000Z</time>
      </trkpt>
      <trkpt lat="43.18114" lon="2.37349">
        <ele>144.4</ele>
        <time>2019-06-16T06:20:11.000Z</time>
      </trkpt>
      <trkpt lat="43.18114" lon="2.37349">
        <ele>144.4</ele>
        <time>2019-06-16T06:20:12.000Z</time>
      </trkpt>
      <trkpt lat="43.18114" lon="2.37349">
        <ele>144.4</ele>
        <time>2019-06-16T06:20:13.000Z</time>
      </trkpt>
      <trkpt lat="43.18114" lon="2.37349">
        <ele>144.4</ele>
        <time>2019-06-16T06:20:14.000Z</time>
      </trkpt>
      <trkpt lat="43.18114" lon="2.37349">
        <ele>144.4</ele>
        <time>2019-06-16T06:20:15.000Z</time>
      </trkpt>
      <trkpt lat="43.18114" lon="2.37349">
        <ele>144.4</ele>
        <time>2019-06-16T06:20:16.000Z</time>
      </trkpt>
      <trkpt lat="43.18114" lon="2.37349">
        <ele>144.4</ele>
        <time>2019-06-16T06:20:17.000Z</time>
      </trkpt>
      <trkpt lat="43.18114" lon="2.37349">
        <ele>144.4</ele>
        <time>2019-06-16T06:20:18.000Z</time>
      </trkpt>
      <trkpt lat="43.18114" lon="2.37349">
        <ele>144.4</ele>
        <time>2019-06-16T06:20:19.000Z</time>
      </trkpt>
      <trkpt lat="43.18114" lon="2.37349">
        <ele>144.4</ele>
        <time>2019-06-16T06:20:20.000Z</time>
      </trkpt>
      <trkpt lat="43.18114" lon="2.37349">
        <ele>144.4</ele>
        <time>2019-06-16T06:20:21.000Z</time>
      </trkpt>
      <trkpt lat="43.18114" lon="2.37349">
        <ele>144.4</ele>
        <time>2019-06-16T06:20:22.000Z</time>
      </trkpt>
      <trkpt lat="43.18114" lon="2.37349">
        <ele>144.4</ele>
        <time>2019-06-16T06:20:23.000Z</time>
      </trkpt>
      <trkpt lat="43.18114" lon="2.37349">
        <ele>144.4</ele>
        <time>2019-06-16T06:20:24.000Z</time>
      </trkpt>
      <trkpt lat="43.18114" lon="2.37349">
        <ele>144.4</ele>
        <time>2019-06-16T06:20:25.000Z</time>
      </trkpt>
      <trkpt lat="43.18114" lon="2.37349">
        <ele>144.4</ele>
        <time>2019-06-16T06:20:26.000Z</time>
      </trkpt>
      <trkpt lat="43.18114" lon="2.37349">
        <ele>144.4</ele>
        <time>2019-06-16T06:20:27.000Z</time>
      </trkpt>
      <trkpt lat="43.18114" lon="2.37349">
        <ele>144.4</ele>
        <time>2019-06-16T06:20:28.000Z</time>
      </trkpt>
      <trkpt lat="43.18114" lon="2.37349">
        <ele>144.4</ele>
        <time>2019-06-16T06:20:29.000Z</time>
      </trkpt>
      <trkpt lat="43.18114" lon="2.37349">
        <ele>144.4</ele>
        <time>2019-06-16T06:20:30.000Z</time>
      </trkpt>
      <trkpt lat="43.18114" lon="2.37349">
        <ele>144.4</ele>
        <time>2019-06-16T06:20:31.000Z</time>
      </trkpt>
      <trkpt lat="43.18114" lon="2.37349">
        <ele>144.4</ele>
        <time>2019-06-16T06:20:32.000Z</time>
      </trkpt>
      <trkpt lat="43.18114" lon="2.37349">
        <ele>144.4</ele>
        <time>2019-06-16T06:20:33.000Z</time>
      </trkpt>
      <trkpt lat="43.18114" lon="2.37349">
        <ele>144.4</ele>
        <time>2019-06-16T06:20:34.000Z</time>
      </trkpt>
      <trkpt lat="43.18114" lon="2.37349">
        <ele>144.4</ele>
        <time>2019-06-16T06:20:35.000Z</time>
      </trkpt>
      <trkpt lat="43.18114" lon="2.37349">
        <ele>144.4</ele>
        <time>2019-06-16T06:20:36.000Z</time>
      </trkpt>
      <trkpt lat="43.18114" lon="2.37349">
        <ele>144.4</ele>
        <time>2019-06-16T06:20:37.000Z</time>
      </trkpt>
      <trkpt lat="43.18114" lon="2.37349">
        <ele>144.4</ele>
        <time>2019-06-16T06:20:38.000Z</time>
      </trkpt>
      <trkpt lat="43.18114" lon="2.37349">
        <ele>144.4</ele>
        <time>2019-06-16T06:20:39.000Z</time>
      </trkpt>
      <trkpt lat="43.18114" lon="2.37349">
        <ele>144.4</ele>
        <time>2019-06-16T06:20:40.000Z</time>
      </trkpt>
      <trkpt lat="43.18114" lon="2.37349">
        <ele>144.4</ele>
        <time>2019-06-16T06:20:41.000Z</time>
      </trkpt>
      <trkpt lat="43.18114" lon="2.37349">
        <ele>144.4</ele>
        <time>2019-06-16T06:20:42.000Z</time>
      </trkpt>
      <trkpt lat="43.18114" lon="2.37349">
        <ele>144.4</ele>
        <time>2019-06-16T06:20:43.000Z</time>
      </trkpt>
      <trkpt lat="43.18114" lon="2.37349">
        <ele>144.4</ele>
        <time>2019-06-16T06:20:44.000Z</time>
      </trkpt>
      <trkpt lat="43.18114" lon="2.37349">
        <ele>144.4</ele>
        <time>2019-06-16T06:20:45.000Z</time>
      </trkpt>
      <trkpt lat="43.18114" lon="2.37349">
        <ele>144.4</ele>
        <time>2019-06-16T06:20:46.000Z</time>
      </trkpt>
      <trkpt lat="43.18114" lon="2.37349">
        <ele>144.4</ele>
        <time>2019-06-16T06:20:47.000Z</time>
      </trkpt>
      <trkpt lat="43.18114" lon="2.37349">
        <ele>144.4</ele>
        <time>2019-06-16T06:20:48.000Z</time>
      </trkpt>
      <trkpt lat="43.18114" lon="2.37349">
        <ele>144.4</ele>
        <time>2019-06-16T06:20:49.000Z</time>
      </trkpt>
      <trkpt lat="43.18114" lon="2.37349">
        <ele>144.4</ele>
        <time>2019-06-16T06:20:50.000Z</time>
      </trkpt>
      <trkpt lat="43.18114" lon="2.37349">
        <ele>144.4</ele>
        <time>2019-06-16T06:20:51.000Z</time>
      </trkpt>
      <trkpt lat="43.18114" lon="2.37349">
        <ele>144.4</ele>
        <time>2019-06-16T06:20:52.000Z</time>
      </trkpt>
      <trkpt lat="43.18114" lon="2.37349">
        <ele>144.4</ele>
        <time>2019-06-16T06:20:53.000Z</time>
      </trkpt>
      <trkpt lat="43.18114" lon="2.37349">
        <ele>144.4</ele>
        <time>2019-06-16T06:20:54.000Z</time>
      </trkpt>
      <trkpt lat="43.18114" lon="2.37349">
        <ele>144.4</ele>
        <time>2019-06-16T06:20:55.000Z</time>
      </trkpt>
      <trkpt lat="43.18114" lon="2.37349">
        <ele>144.4</ele>
        <time>2019-06-16T06:20:56.000Z</time>
      </trkpt>
      <trkpt lat="43.18114" lon="2.37349">
        <ele>144.4</ele>
        <time>2019-06-16T06:20:57.000Z</time>
      </trkpt>
      <trkpt lat="43.18114" lon="2.37349">
        <ele>144.4</ele>
        <time>2019-06-16T06:20:58.000Z</time>
      </trkpt>
      <trkpt lat="43.18114" lon="2.37349">
        <ele>144.4</ele>
        <time>2019-06-16T06:20:59.000Z</time>
      </trkpt>
      <trkpt lat="43.18114" lon="2.37349">
        <ele>144.4</ele>
        <time>2019-06-16T06:21:00.000Z</time>
      </trkpt>
      <trkpt lat="43.18114" lon="2.37349">
        <ele>144.4</ele>
        <time>2019-06-16T06:21:01.000Z</time>
      </trkpt>
      <trkpt lat="43.18114" lon="2.37349">
        <ele>144.4</ele>
        <time>2019-06-16T06:21:02.000Z</time>
      </trkpt>
      <trkpt lat="43.18114" lon="2.37349">
        <ele>144.4</ele>
        <time>2019-06-16T06:21:03.000Z</time>
      </trkpt>
      <trkpt lat="43.18114" lon="2.37349">
        <ele>144.4</ele>
        <time>2019-06-16T06:21:04.000Z</time>
      </trkpt>
      <trkpt lat="43.18114" lon="2.37349">
        <ele>144.4</ele>
        <time>2019-06-16T06:21:05.000Z</time>
      </trkpt>
      <trkpt lat="43.18114" lon="2.37349">
        <ele>144.4</ele>
        <time>2019-06-16T06:21:06.000Z</time>
      </trkpt>
      <trkpt lat="43.18114" lon="2.37349">
        <ele>144.4</ele>
        <time>2019-06-16T06:21:07.000Z</time>
      </trkpt>
      <trkpt lat="43.18114" lon="2.37349">
        <ele>144.4</ele>
        <time>2019-06-16T06:21:08.000Z</time>
      </trkpt>
      <trkpt lat="43.18114" lon="2.37349">
        <ele>144.4</ele>
        <time>2019-06-16T06:21:09.000Z</time>
      </trkpt>
      <trkpt lat="43.18114" lon="2.37349">
        <ele>144.4</ele>
        <time>2019-06-16T06:21:10.000Z</time>
      </trkpt>
      <trkpt lat="43.18114" lon="2.37349">
        <ele>144.4</ele>
        <time>2019-06-16T06:21:11.000Z</time>
      </trkpt>
      <trkpt lat="43.18114" lon="2.37349">
        <ele>144.4</ele>
        <time>2019-06-16T06:21:12.000Z</time>
      </trkpt>
      <trkpt lat="43.18114" lon="2.37349">
        <ele>144.4</ele>
        <time>2019-06-16T06:21:13.000Z</time>
      </trkpt>
      <trkpt lat="43.18114" lon="2.37349">
        <ele>144.4</ele>
        <time>2019-06-16T06:21:14.000Z</time>
      </trkpt>
      <trkpt lat="43.18114" lon="2.37349">
        <ele>144.4</ele>
        <time>2019-06-16T06:21:15.000Z</time>
      </trkpt>
      <trkpt lat="43.18114" lon="2.37349">
        <ele>144.4</ele>
        <time>2019-06-16T06:21:16.000Z</time>
      </trkpt>
      <trkpt lat="43.18114" lon="2.37349">
        <ele>144.4</ele>
        <time>2019-06-16T06:21:17.000Z</time>
      </trkpt>
      <trkpt lat="43.18114" lon="2.37349">
        <ele>144.4</ele>
        <time>2019-06-16T06:21:18.000Z</time>
      </trkpt>
      <trkpt lat="43.18114" lon="2.37349">
        <ele>144.4</ele>
        <time>2019-06-16T06:21:19.000Z</time>
      </trkpt>
      <trkpt lat="43.18114" lon="2.37349">
        <ele>144.4</ele>
        <time>2019-06-16T06:21:20.000Z</time>
      </trkpt>
      <trkpt lat="43.18114" lon="2.37349">
        <ele>144.4</ele>
        <time>2019-06-16T06:21:21.000Z</time>
      </trkpt>
      <trkpt lat="43.18114" lon="2.37349">
        <ele>144.4</ele>
        <time>2019-06-16T06:21:22.000Z</time>
      </trkpt>
      <trkpt lat="43.18114" lon="2.37349">
        <ele>144.4</ele>
        <time>2019-06-16T06:21:23.000Z</time>
      </trkpt>
      <trkpt lat="43.18114" lon="2.37349">
        <ele>144.4</ele>
        <time>2019-06-16T06:21:24.000Z</time>
      </trkpt>
      <trkpt lat="43.18114" lon="2.37349">
        <ele>144.4</ele>
        <time>2019-06-16T06:21:25.000Z</time>
      </trkpt>
      <trkpt lat="43.18114" lon="2.37349">
        <ele>144.4</ele>
        <time>2019-06-16T06:21:26.000Z</time>
      </trkpt>
      <trkpt lat="43.18114" lon="2.37349">
        <ele>144.4</ele>
        <time>2019-06-16T06:21:27.000Z</time>
      </trkpt>
      <trkpt lat="43.18114" lon="2.37349">
        <ele>144.4</ele>
        <time>2019-06-16T06:21:28.000Z</time>
      </trkpt>
      <trkpt lat="43.18114" lon="2.37349">
        <ele>144.4</ele>
        <time>2019-06-16T06:21:29.000Z</time>
      </trkpt>
      <trkpt lat="43.18114" lon="2.37349">
        <ele>144.4</ele>
        <time>2019-06-16T06:21:30.000Z</time>
      </trkpt>
      <trkpt lat="43.18114" lon="2.37349">
        <ele>144.4</ele>
        <time>2019-06-16T06:21:31.000Z</time>
      </trkpt>
      <trkpt lat="43.18114" lon="2.37349">
        <ele>144.4</ele>
        <time>2019-06-16T06:21:32.000Z</time>
      </trkpt>
      <trkpt lat="43.18114" lon="2.37349">
        <ele>144.4</ele>
        <time>2019-06-16T06:21:33.000Z</time>
      </trkpt>
      <trkpt lat="43.18114" lon="2.37349">
        <ele>144.4</ele>
        <time>2019-06-16T06:21:34.000Z</time>
      </trkpt>
      <trkpt lat="43.18114" lon="2.37349">
        <ele>144.4</ele>
        <time>2019-06-16T06:21:35.000Z</time>
      </trkpt>
      <trkpt lat="43.18114" lon="2.37349">
        <ele>144.4</ele>
        <time>2019-06-16T06:21:36.000Z</time>
      </trkpt>
      <trkpt lat="43.18114" lon="2.37349">
        <ele>144.4</ele>
        <time>2019-06-16T06:21:37.000Z</time>
      </trkpt>
      <trkpt lat="43.18114" lon="2.37349">
        <ele>144.4</ele>
        <time>2019-06-16T06:21:38.000Z</time>
      </trkpt>
      <trkpt lat="43.18114" lon="2.37349">
        <ele>144.4</ele>
        <time>2019-06-16T06:21:39.000Z</time>
      </trkpt>
      <trkpt lat="43.18114" lon="2.37349">
        <ele>144.4</ele>
        <time>2019-06-16T06:21:40.000Z</time>
      </trkpt>
      <trkpt lat="43.18114" lon="2.37349">
        <ele>144.4</ele>
        <time>2019-06-16T06:21:41.000Z</time>
      </trkpt>
      <trkpt lat="43.18114" lon="2.37349">
        <ele>144.4</ele>
        <time>2019-06-16T06:21:42.000Z</time>
      </trkpt>
      <trkpt lat="43.18113" lon="2.37348">
        <ele>144.4</ele>
        <time>2019-06-16T06:21:43.000Z</time>
      </trkpt>
      <trkpt lat="43.18113" lon="2.37348">
        <ele>144.4</ele>
        <time>2019-06-16T06:21:44.000Z</time>
      </trkpt>
      <trkpt lat="43.18112" lon="2.37347">
        <ele>144.4</ele>
        <time>2019-06-16T06:21:45.000Z</time>
      </trkpt>
      <trkpt lat="43.18112" lon="2.37347">
        <ele>144.4</ele>
        <time>2019-06-16T06:21:46.000Z</time>
      </trkpt>
      <trkpt lat="43.18112" lon="2.37346">
        <ele>144.4</ele>
        <time>2019-06-16T06:21:47.000Z</time>
      </trkpt>
      <trkpt lat="43.18113" lon="2.37345">
        <ele>144.4</ele>
        <time>2019-06-16T06:21:48.000Z</time>
      </trkpt>
      <trkpt lat="43.18113" lon="2.37344">
        <ele>144.4</ele>
        <time>2019-06-16T06:21:49.000Z</time>
      </trkpt>
      <trkpt lat="43.18114" lon="2.37344">
        <ele>144.4</ele>
        <time>2019-06-16T06:21:50.000Z</time>
      </trkpt>
      <trkpt lat="43.18115" lon="2.37343">
        <ele>144.4</ele>
        <time>2019-06-16T06:21:51.000Z</time>
      </trkpt>
      <trkpt lat="43.18115" lon="2.37342">
        <ele>144.4</ele>
        <time>2019-06-16T06:21:52.000Z</time>
      </trkpt>
      <trkpt lat="43.18116" lon="2.37341">
        <ele>144.4</ele>
        <time>2019-06-16T06:21:53.000Z</time>
      </trkpt>
      <trkpt lat="43.18117" lon="2.37341">
        <ele>144.4</ele>
        <time>2019-06-16T06:21:54.000Z</time>
      </trkpt>
      <trkpt lat="43.18118" lon="2.3734">
        <ele>144.4</ele>
        <time>2019-06-16T06:21:55.000Z</time>
      </trkpt>
      <trkpt lat="43.18118" lon="2.3734">
        <ele>144.4</ele>
        <time>2019-06-16T06:21:56.000Z</time>
      </trkpt>
      <trkpt lat="43.18119" lon="2.37339">
        <ele>144.4</ele>
        <time>2019-06-16T06:21:57.000Z</time>
      </trkpt>
      <trkpt lat="43.18119" lon="2.37339">
        <ele>144.4</ele>
        <time>2019-06-16T06:21:58.000Z</time>
      </trkpt>
      <trkpt lat="43.1812" lon="2.37338">
        <ele>144.4</ele>
        <time>2019-06-16T06:21:59.000Z</time>
      </trkpt>
      <trkpt lat="43.1812" lon="2.37338">
        <ele>144.4</ele>
        <time>2019-06-16T06:22:00.000Z</time>
      </trkpt>
      <trkpt lat="43.1812" lon="2.37337">
        <ele>144.4</ele>
        <time>2019-06-16T06:22:01.000Z</time>
      </trkpt>
      <trkpt lat="43.18121" lon="2.37337">
        <ele>144.5</ele>
        <time>2019-06-16T06:22:02.000Z</time>
      </trkpt>
      <trkpt lat="43.18121" lon="2.37336">
        <ele>144.5</ele>
        <time>2019-06-16T06:22:03.000Z</time>
      </trkpt>
      <trkpt lat="43.18121" lon="2.37335">
        <ele>144.5</ele>
        <time>2019-06-16T06:22:04.000Z</time>
      </trkpt>
      <trkpt lat="43.18121" lon="2.37335">
        <ele>144.5</ele>
        <time>2019-06-16T06:22:05.000Z</time>
      </trkpt>
      <trkpt lat="43.18121" lon="2.37334">
        <ele>144.4</ele>
        <time>2019-06-16T06:22:06.000Z</time>
      </trkpt>
      <trkpt lat="43.1812" lon="2.37333">
        <ele>144.4</ele>
        <time>2019-06-16T06:22:07.000Z</time>
      </trkpt>
      <trkpt lat="43.1812" lon="2.37332">
        <ele>144.4</ele>
        <time>2019-06-16T06:22:08.000Z</time>
      </trkpt>
      <trkpt lat="43.18119" lon="2.37331">
        <ele>144.4</ele>
        <time>2019-06-16T06:22:09.000Z</time>
      </trkpt>
      <trkpt lat="43.18119" lon="2.3733">
        <ele>144.4</ele>
        <time>2019-06-16T06:22:10.000Z</time>
      </trkpt>
      <trkpt lat="43.18118" lon="2.37329">
        <ele>144.4</ele>
        <time>2019-06-16T06:22:11.000Z</time>
      </trkpt>
      <trkpt lat="43.18117" lon="2.37328">
        <ele>144.4</ele>
        <time>2019-06-16T06:22:12.000Z</time>
      </trkpt>
      <trkpt lat="43.18116" lon="2.37327">
        <ele>144.4</ele>
        <time>2019-06-16T06:22:13.000Z</time>
      </trkpt>
      <trkpt lat="43.18116" lon="2.37326">
        <ele>144.4</ele>
        <time>2019-06-16T06:22:14.000Z</time>
      </trkpt>
      <trkpt lat="43.18115" lon="2.37325">
        <ele>144.3</ele>
        <time>2019-06-16T06:22:15.000Z</time>
      </trkpt>
      <trkpt lat="43.18115" lon="2.37324">
        <ele>144.3</ele>
        <time>2019-06-16T06:22:16.000Z</time>
      </trkpt>
      <trkpt lat="43.18114" lon="2.37324">
        <ele>144.3</ele>
        <time>2019-06-16T06:22:17.000Z</time>
      </trkpt>
      <trkpt lat="43.18114" lon="2.37323">
        <ele>144.3</ele>
        <time>2019-06-16T06:22:18.000Z</time>
      </trkpt>
      <trkpt lat="43.18114" lon="2.37323">
        <ele>144.3</ele>
        <time>2019-06-16T06:22:19.000Z</time>
      </trkpt>
      <trkpt lat="43.18114" lon="2.37323">
        <ele>144.3</ele>
        <time>2019-06-16T06:22:20.000Z</time>
      </trkpt>
      <trkpt lat="43.18113" lon="2.37323">
        <ele>144.3</ele>
        <time>2019-06-16T06:22:21.000Z</time>
      </trkpt>
      <trkpt lat="43.18113" lon="2.37323">
        <ele>144.3</ele>
        <time>2019-06-16T06:22:22.000Z</time>
      </trkpt>
      <trkpt lat="43.18113" lon="2.37323">
        <ele>144.3</ele>
        <time>2019-06-16T06:22:23.000Z</time>
      </trkpt>
      <trkpt lat="43.18114" lon="2.37323">
        <ele>144.3</ele>
        <time>2019-06-16T06:22:24.000Z</time>
      </trkpt>
      <trkpt lat="43.18114" lon="2.37323">
        <ele>144.3</ele>
        <time>2019-06-16T06:22:25.000Z</time>
      </trkpt>
      <trkpt lat="43.18114" lon="2.37323">
        <ele>144.3</ele>
        <time>2019-06-16T06:22:26.000Z</time>
      </trkpt>
      <trkpt lat="43.18114" lon="2.37323">
        <ele>144.3</ele>
        <time>2019-06-16T06:22:27.000Z</time>
      </trkpt>
      <trkpt lat="43.18114" lon="2.37323">
        <ele>144.3</ele>
        <time>2019-06-16T06:22:28.000Z</time>
      </trkpt>
      <trkpt lat="43.18114" lon="2.37323">
        <ele>144.3</ele>
        <time>2019-06-16T06:22:29.000Z</time>
      </trkpt>
      <trkpt lat="43.18114" lon="2.37323">
        <ele>144.3</ele>
        <time>2019-06-16T06:22:30.000Z</time>
      </trkpt>
      <trkpt lat="43.18114" lon="2.37323">
        <ele>144.3</ele>
        <time>2019-06-16T06:22:31.000Z</time>
      </trkpt>
      <trkpt lat="43.18114" lon="2.37323">
        <ele>144.3</ele>
        <time>2019-06-16T06:22:32.000Z</time>
      </trkpt>
      <trkpt lat="43.18114" lon="2.37323">
        <ele>144.3</ele>
        <time>2019-06-16T06:22:33.000Z</time>
      </trkpt>
      <trkpt lat="43.18114" lon="2.37323">
        <ele>144.3</ele>
        <time>2019-06-16T06:22:34.000Z</time>
      </trkpt>
      <trkpt lat="43.18114" lon="2.37323">
        <ele>144.3</ele>
        <time>2019-06-16T06:22:35.000Z</time>
      </trkpt>
      <trkpt lat="43.18114" lon="2.37323">
        <ele>144.3</ele>
        <time>2019-06-16T06:22:36.000Z</time>
      </trkpt>
      <trkpt lat="43.18114" lon="2.37323">
        <ele>144.3</ele>
        <time>2019-06-16T06:22:37.000Z</time>
      </trkpt>
      <trkpt lat="43.18114" lon="2.37323">
        <ele>144.3</ele>
        <time>2019-06-16T06:22:38.000Z</time>
      </trkpt>
      <trkpt lat="43.18114" lon="2.37323">
        <ele>144.3</ele>
        <time>2019-06-16T06:22:39.000Z</time>
      </trkpt>
      <trkpt lat="43.18114" lon="2.37323">
        <ele>144.3</ele>
        <time>2019-06-16T06:22:40.000Z</time>
      </trkpt>
      <trkpt lat="43.18114" lon="2.37323">
        <ele>144.3</ele>
        <time>2019-06-16T06:22:41.000Z</time>
      </trkpt>
      <trkpt lat="43.18114" lon="2.37323">
        <ele>144.3</ele>
        <time>2019-06-16T06:22:42.000Z</time>
      </trkpt>
      <trkpt lat="43.18114" lon="2.37323">
        <ele>144.3</ele>
        <time>2019-06-16T06:22:43.000Z</time>
      </trkpt>
      <trkpt lat="43.18114" lon="2.37322">
        <ele>144.3</ele>
        <time>2019-06-16T06:22:44.000Z</time>
      </trkpt>
      <trkpt lat="43.18114" lon="2.37321">
        <ele>144.3</ele>
        <time>2019-06-16T06:22:45.000Z</time>
      </trkpt>
      <trkpt lat="43.18114" lon="2.37321">
        <ele>144.3</ele>
        <time>2019-06-16T06:22:46.000Z</time>
      </trkpt>
      <trkpt lat="43.18114" lon="2.37321">
        <ele>144.3</ele>
        <time>2019-06-16T06:22:47.000Z</time>
      </trkpt>
      <trkpt lat="43.18114" lon="2.37321">
        <ele>144.3</ele>
        <time>2019-06-16T06:22:48.000Z</time>
      </trkpt>
      <trkpt lat="43.18114" lon="2.37321">
        <ele>144.3</ele>
        <time>2019-06-16T06:22:49.000Z</time>
      </trkpt>
      <trkpt lat="43.18114" lon="2.37321">
        <ele>144.3</ele>
        <time>2019-06-16T06:22:50.000Z</time>
      </trkpt>
      <trkpt lat="43.18114" lon="2.37321">
        <ele>144.3</ele>
        <time>2019-06-16T06:22:51.000Z</time>
      </trkpt>
      <trkpt lat="43.18114" lon="2.37321">
        <ele>144.3</ele>
        <time>2019-06-16T06:22:52.000Z</time>
      </trkpt>
      <trkpt lat="43.18114" lon="2.37321">
        <ele>144.3</ele>
        <time>2019-06-16T06:22:53.000Z</time>
      </trkpt>
      <trkpt lat="43.18114" lon="2.37321">
        <ele>144.3</ele>
        <time>2019-06-16T06:22:54.000Z</time>
      </trkpt>
      <trkpt lat="43.18114" lon="2.37321">
        <ele>144.3</ele>
        <time>2019-06-16T06:22:55.000Z</time>
      </trkpt>
      <trkpt lat="43.18114" lon="2.37321">
        <ele>144.3</ele>
        <time>2019-06-16T06:22:56.000Z</time>
      </trkpt>
      <trkpt lat="43.18114" lon="2.3732">
        <ele>144.3</ele>
        <time>2019-06-16T06:22:57.000Z</time>
      </trkpt>
      <trkpt lat="43.18115" lon="2.3732">
        <ele>144.3</ele>
        <time>2019-06-16T06:22:58.000Z</time>
      </trkpt>
      <trkpt lat="43.18115" lon="2.37319">
        <ele>144.3</ele>
        <time>2019-06-16T06:22:59.000Z</time>
      </trkpt>
      <trkpt lat="43.18115" lon="2.37318">
        <ele>144.3</ele>
        <time>2019-06-16T06:23:00.000Z</time>
      </trkpt>
      <trkpt lat="43.18116" lon="2.37317">
        <ele>144.3</ele>
        <time>2019-06-16T06:23:01.000Z</time>
      </trkpt>
      <trkpt lat="43.18116" lon="2.37316">
        <ele>144.3</ele>
        <time>2019-06-16T06:23:02.000Z</time>
      </trkpt>
      <trkpt lat="43.18116" lon="2.37315">
        <ele>144.3</ele>
        <time>2019-06-16T06:23:03.000Z</time>
      </trkpt>
      <trkpt lat="43.18117" lon="2.37314">
        <ele>144.3</ele>
        <time>2019-06-16T06:23:04.000Z</time>
      </trkpt>
      <trkpt lat="43.18117" lon="2.37313">
        <ele>144.3</ele>
        <time>2019-06-16T06:23:05.000Z</time>
      </trkpt>
      <trkpt lat="43.18118" lon="2.37312">
        <ele>144.3</ele>
        <time>2019-06-16T06:23:06.000Z</time>
      </trkpt>
      <trkpt lat="43.18118" lon="2.37311">
        <ele>144.3</ele>
        <time>2019-06-16T06:23:07.000Z</time>
      </trkpt>
      <trkpt lat="43.18119" lon="2.3731">
        <ele>144.3</ele>
        <time>2019-06-16T06:23:08.000Z</time>
      </trkpt>
      <trkpt lat="43.18119" lon="2.37308">
        <ele>144.3</ele>
        <time>2019-06-16T06:23:09.000Z</time>
      </trkpt>
      <trkpt lat="43.1812" lon="2.37307">
        <ele>144.3</ele>
        <time>2019-06-16T06:23:10.000Z</time>
      </trkpt>
      <trkpt lat="43.1812" lon="2.37306">
        <ele>144.3</ele>
        <time>2019-06-16T06:23:11.000Z</time>
      </trkpt>
      <trkpt lat="43.18121" lon="2.37305">
        <ele>144.3</ele>
        <time>2019-06-16T06:23:12.000Z</time>
      </trkpt>
      <trkpt lat="43.18121" lon="2.37304">
        <ele>144.3</ele>
        <time>2019-06-16T06:23:13.000Z</time>
      </trkpt>
      <trkpt lat="43.18122" lon="2.37303">
        <ele>144.3</ele>
        <time>2019-06-16T06:23:14.000Z</time>
      </trkpt>
      <trkpt lat="43.18122" lon="2.37302">
        <ele>144.3</ele>
        <time>2019-06-16T06:23:15.000Z</time>
      </trkpt>
      <trkpt lat="43.18122" lon="2.37301">
        <ele>144.3</ele>
        <time>2019-06-16T06:23:16.000Z</time>
      </trkpt>
      <trkpt lat="43.18123" lon="2.373">
        <ele>144.3</ele>
        <time>2019-06-16T06:23:17.000Z</time>
      </trkpt>
      <trkpt lat="43.18123" lon="2.37299">
        <ele>144.3</ele>
        <time>2019-06-16T06:23:18.000Z</time>
      </trkpt>
      <trkpt lat="43.18124" lon="2.37298">
        <ele>144.3</ele>
        <time>2019-06-16T06:23:19.000Z</time>
      </trkpt>
      <trkpt lat="43.18124" lon="2.37297">
        <ele>144.3</ele>
        <time>2019-06-16T06:23:20.000Z</time>
      </trkpt>
      <trkpt lat="43.18125" lon="2.37296">
        <ele>144.3</ele>
        <time>2019-06-16T06:23:21.000Z</time>
      </trkpt>
      <trkpt lat="43.18125" lon="2.37295">
        <ele>144.3</ele>
        <time>2019-06-16T06:23:22.000Z</time>
      </trkpt>
      <trkpt lat="43.18125" lon="2.37294">
        <ele>144.3</ele>
        <time>2019-06-16T06:23:23.000Z</time>
      </trkpt>
      <trkpt lat="43.18126" lon="2.37293">
        <ele>144.3</ele>
        <time>2019-06-16T06:23:24.000Z</time>
      </trkpt>
      <trkpt lat="43.18126" lon="2.37292">
        <ele>144.3</ele>
        <time>2019-06-16T06:23:25.000Z</time>
      </trkpt>
      <trkpt lat="43.18127" lon="2.37291">
        <ele>144.3</ele>
        <time>2019-06-16T06:23:26.000Z</time>
      </trkpt>
      <trkpt lat="43.18127" lon="2.3729">
        <ele>144.3</ele>
        <time>2019-06-16T06:23:27.000Z</time>
      </trkpt>
      <trkpt lat="43.18128" lon="2.37289">
        <ele>144.3</ele>
        <time>2019-06-16T06:23:28.000Z</time>
      </trkpt>
      <trkpt lat="43.18128" lon="2.37288">
        <ele>144.2</ele>
        <time>2019-06-16T06:23:29.000Z</time>
      </trkpt>
      <trkpt lat="43.18129" lon="2.37287">
        <ele>144.2</ele>
        <time>2019-06-16T06:23:30.000Z</time>
      </trkpt>
      <trkpt lat="43.18129" lon="2.37286">
        <ele>144.2</ele>
        <time>2019-06-16T06:23:31.000Z</time>
      </trkpt>
      <trkpt lat="43.1813" lon="2.37285">
        <ele>144.2</ele>
        <time>2019-06-16T06:23:32.000Z</time>
      </trkpt>
      <trkpt lat="43.1813" lon="2.37284">
        <ele>144.2</ele>
        <time>2019-06-16T06:23:33.000Z</time>
      </trkpt>
      <trkpt lat="43.18131" lon="2.37283">
        <ele>144.2</ele>
        <time>2019-06-16T06:23:34.000Z</time>
      </trkpt>
      <trkpt lat="43.18132" lon="2.37282">
        <ele>144.2</ele>
        <time>2019-06-16T06:23:35.000Z</time>
      </trkpt>
      <trkpt lat="43.18132" lon="2.37282">
        <ele>144.2</ele>
        <time>2019-06-16T06:23:36.000Z</time>
      </trkpt>
      <trkpt lat="43.18133" lon="2.37281">
        <ele>144.2</ele>
        <time>2019-06-16T06:23:37.000Z</time>
      </trkpt>
      <trkpt lat="43.18133" lon="2.3728">
        <ele>144.2</ele>
        <time>2019-06-16T06:23:38.000Z</time>
      </trkpt>
      <trkpt lat="43.18134" lon="2.37278">
        <ele>144.2</ele>
        <time>2019-06-16T06:23:39.000Z</time>
      </trkpt>
      <trkpt lat="43.18134" lon="2.37277">
        <ele>144.2</ele>
        <time>2019-06-16T06:23:40.000Z</time>
      </trkpt>
      <trkpt lat="43.18135" lon="2.37276">
        <ele>144.2</ele>
        <time>2019-06-16T06:23:41.000Z</time>
      </trkpt>
      <trkpt lat="43.18136" lon="2.37275">
        <ele>144.2</ele>
        <time>2019-06-16T06:23:42.000Z</time>
      </trkpt>
      <trkpt lat="43.18136" lon="2.37274">
        <ele>144.2</ele>
        <time>2019-06-16T06:23:43.000Z</time>
      </trkpt>
      <trkpt lat="43.18137" lon="2.37273">
        <ele>144.2</ele>
        <time>2019-06-16T06:23:44.000Z</time>
      </trkpt>
      <trkpt lat="43.18137" lon="2.37272">
        <ele>144.2</ele>
        <time>2019-06-16T06:23:45.000Z</time>
      </trkpt>
      <trkpt lat="43.18138" lon="2.37271">
        <ele>144.2</ele>
        <time>2019-06-16T06:23:46.000Z</time>
      </trkpt>
      <trkpt lat="43.18138" lon="2.3727">
        <ele>144.2</ele>
        <time>2019-06-16T06:23:47.000Z</time>
      </trkpt>
      <trkpt lat="43.18139" lon="2.37269">
        <ele>144.1</ele>
        <time>2019-06-16T06:23:48.000Z</time>
      </trkpt>
      <trkpt lat="43.18139" lon="2.37268">
        <ele>144.1</ele>
        <time>2019-06-16T06:23:49.000Z</time>
      </trkpt>
      <trkpt lat="43.1814" lon="2.37267">
        <ele>144.1</ele>
        <time>2019-06-16T06:23:50.000Z</time>
      </trkpt>
      <trkpt lat="43.1814" lon="2.37266">
        <ele>144.1</ele>
        <time>2019-06-16T06:23:51.000Z</time>
      </trkpt>
      <trkpt lat="43.18141" lon="2.37264">
        <ele>144.1</ele>
        <time>2019-06-16T06:23:52.000Z</time>
      </trkpt>
      <trkpt lat="43.18141" lon="2.37263">
        <ele>144.1</ele>
        <time>2019-06-16T06:23:53.000Z</time>
      </trkpt>
      <trkpt lat="43.18142" lon="2.37262">
        <ele>144.1</ele>
        <time>2019-06-16T06:23:54.000Z</time>
      </trkpt>
      <trkpt lat="43.18142" lon="2.37261">
        <ele>144.1</ele>
        <time>2019-06-16T06:23:55.000Z</time>
      </trkpt>
      <trkpt lat="43.18143" lon="2.3726">
        <ele>144.1</ele>
        <time>2019-06-16T06:23:56.000Z</time>
      </trkpt>
      <trkpt lat="43.18144" lon="2.37259">
        <ele>144.1</ele>
        <time>2019-06-16T06:23:57.000Z</time>
      </trkpt>
      <trkpt lat="43.18144" lon="2.37257">
        <ele>144.1</ele>
        <time>2019-06-16T06:23:58.000Z</time>
      </trkpt>
      <trkpt lat="43.18145" lon="2.37256">
        <ele>144.1</ele>
        <time>2019-06-16T06:23:59.000Z</time>
      </trkpt>
      <trkpt lat="43.18146" lon="2.37255">
        <ele>144</ele>
        <time>2019-06-16T06:24:00.000Z</time>
      </trkpt>
      <trkpt lat="43.18147" lon="2.37254">
        <ele>144</ele>
        <time>2019-06-16T06:24:01.000Z</time>
      </trkpt>
      <trkpt lat="43.18148" lon="2.37253">
        <ele>144</ele>
        <time>2019-06-16T06:24:02.000Z</time>
      </trkpt>
      <trkpt lat="43.18149" lon="2.37252">
        <ele>144</ele>
        <time>2019-06-16T06:24:03.000Z</time>
      </trkpt>
      <trkpt lat="43.18149" lon="2.37251">
        <ele>144</ele>
        <time>2019-06-16T06:24:04.000Z</time>
      </trkpt>
      <trkpt lat="43.1815" lon="2.37249">
        <ele>144</ele>
        <time>2019-06-16T06:24:05.000Z</time>
      </trkpt>
      <trkpt lat="43.18151" lon="2.37248">
        <ele>144</ele>
        <time>2019-06-16T06:24:06.000Z</time>
      </trkpt>
      <trkpt lat="43.18152" lon="2.37247">
        <ele>144</ele>
        <time>2019-06-16T06:24:07.000Z</time>
      </trkpt>
      <trkpt lat="43.18152" lon="2.37245">
        <ele>144</ele>
        <time>2019-06-16T06:24:08.000Z</time>
      </trkpt>
      <trkpt lat="43.18153" lon="2.37244">
        <ele>143.9</ele>
        <time>2019-06-16T06:24:09.000Z</time>
      </trkpt>
      <trkpt lat="43.18153" lon="2.37243">
        <ele>143.9</ele>
        <time>2019-06-16T06:24:10.000Z</time>
      </trkpt>
      <trkpt lat="43.18154" lon="2.37242">
        <ele>143.9</ele>
        <time>2019-06-16T06:24:11.000Z</time>
      </trkpt>
      <trkpt lat="43.18154" lon="2.3724">
        <ele>143.9</ele>
        <time>2019-06-16T06:24:12.000Z</time>
      </trkpt>
      <trkpt lat="43.18155" lon="2.37239">
        <ele>143.9</ele>
        <time>2019-06-16T06:24:13.000Z</time>
      </trkpt>
      <trkpt lat="43.18156" lon="2.37238">
        <ele>143.9</ele>
        <time>2019-06-16T06:24:14.000Z</time>
      </trkpt>
      <trkpt lat="43.18156" lon="2.37236">
        <ele>143.9</ele>
        <time>2019-06-16T06:24:15.000Z</time>
      </trkpt>
      <trkpt lat="43.18157" lon="2.37235">
        <ele>143.8</ele>
        <time>2019-06-16T06:24:16.000Z</time>
      </trkpt>
      <trkpt lat="43.18158" lon="2.37234">
        <ele>143.8</ele>
        <time>2019-06-16T06:24:17.000Z</time>
      </trkpt>
      <trkpt lat="43.18159" lon="2.37233">
        <ele>143.8</ele>
        <time>2019-06-16T06:24:18.000Z</time>
      </trkpt>
      <trkpt lat="43.18159" lon="2.37232">
        <ele>143.8</ele>
        <time>2019-06-16T06:24:19.000Z</time>
      </trkpt>
      <trkpt lat="43.1816" lon="2.37231">
        <ele>143.8</ele>
        <time>2019-06-16T06:24:20.000Z</time>
      </trkpt>
      <trkpt lat="43.18161" lon="2.37229">
        <ele>143.8</ele>
        <time>2019-06-16T06:24:21.000Z</time>
      </trkpt>
      <trkpt lat="43.18162" lon="2.37228">
        <ele>143.8</ele>
        <time>2019-06-16T06:24:22.000Z</time>
      </trkpt>
      <trkpt lat="43.18163" lon="2.37227">
        <ele>143.7</ele>
        <time>2019-06-16T06:24:23.000Z</time>
      </trkpt>
      <trkpt lat="43.18164" lon="2.37226">
        <ele>143.7</ele>
        <time>2019-06-16T06:24:24.000Z</time>
      </trkpt>
      <trkpt lat="43.18165" lon="2.37224">
        <ele>143.7</ele>
        <time>2019-06-16T06:24:25.000Z</time>
      </trkpt>
      <trkpt lat="43.18166" lon="2.37223">
        <ele>143.7</ele>
        <time>2019-06-16T06:24:26.000Z</time>
      </trkpt>
      <trkpt lat="43.18167" lon="2.37222">
        <ele>143.7</ele>
        <time>2019-06-16T06:24:27.000Z</time>
      </trkpt>
      <trkpt lat="43.18169" lon="2.3722">
        <ele>143.7</ele>
        <time>2019-06-16T06:24:28.000Z</time>
      </trkpt>
      <trkpt lat="43.1817" lon="2.37219">
        <ele>143.8</ele>
        <time>2019-06-16T06:24:29.000Z</time>
      </trkpt>
      <trkpt lat="43.18171" lon="2.37217">
        <ele>143.8</ele>
        <time>2019-06-16T06:24:30.000Z</time>
      </trkpt>
      <trkpt lat="43.18173" lon="2.37215">
        <ele>143.8</ele>
        <time>2019-06-16T06:24:31.000Z</time>
      </trkpt>
      <trkpt lat="43.18174" lon="2.37214">
        <ele>143.9</ele>
        <time>2019-06-16T06:24:32.000Z</time>
      </trkpt>
      <trkpt lat="43.18175" lon="2.37212">
        <ele>143.9</ele>
        <time>2019-06-16T06:24:33.000Z</time>
      </trkpt>
      <trkpt lat="43.18177" lon="2.3721">
        <ele>143.9</ele>
        <time>2019-06-16T06:24:34.000Z</time>
      </trkpt>
      <trkpt lat="43.18178" lon="2.37208">
        <ele>144</ele>
        <time>2019-06-16T06:24:35.000Z</time>
      </trkpt>
      <trkpt lat="43.1818" lon="2.37207">
        <ele>144</ele>
        <time>2019-06-16T06:24:36.000Z</time>
      </trkpt>
      <trkpt lat="43.18182" lon="2.37205">
        <ele>144.1</ele>
        <time>2019-06-16T06:24:37.000Z</time>
      </trkpt>
      <trkpt lat="43.18184" lon="2.37203">
        <ele>144.2</ele>
        <time>2019-06-16T06:24:38.000Z</time>
      </trkpt>
      <trkpt lat="43.18186" lon="2.37202">
        <ele>144.2</ele>
        <time>2019-06-16T06:24:39.000Z</time>
      </trkpt>
      <trkpt lat="43.18188" lon="2.372">
        <ele>144.3</ele>
        <time>2019-06-16T06:24:40.000Z</time>
      </trkpt>
      <trkpt lat="43.1819" lon="2.37199">
        <ele>144.4</ele>
        <time>2019-06-16T06:24:41.000Z</time>
      </trkpt>
      <trkpt lat="43.18192" lon="2.37198">
        <ele>144.5</ele>
        <time>2019-06-16T06:24:42.000Z</time>
      </trkpt>
      <trkpt lat="43.18194" lon="2.37197">
        <ele>144.6</ele>
        <time>2019-06-16T06:24:43.000Z</time>
      </trkpt>
      <trkpt lat="43.18196" lon="2.37196">
        <ele>144.6</ele>
        <time>2019-06-16T06:24:44.000Z</time>
      </trkpt>
      <trkpt lat="43.18199" lon="2.37195">
        <ele>144.7</ele>
        <time>2019-06-16T06:24:45.000Z</time>
      </trkpt>
      <trkpt lat="43.18201" lon="2.37193">
        <ele>144.8</ele>
        <time>2019-06-16T06:24:46.000Z</time>
      </trkpt>
      <trkpt lat="43.18204" lon="2.37192">
        <ele>144.9</ele>
        <time>2019-06-16T06:24:47.000Z</time>
      </trkpt>
      <trkpt lat="43.18206" lon="2.37191">
        <ele>145.1</ele>
        <time>2019-06-16T06:24:48.000Z</time>
      </trkpt>
      <trkpt lat="43.18209" lon="2.37191">
        <ele>145.2</ele>
        <time>2019-06-16T06:24:49.000Z</time>
      </trkpt>
      <trkpt lat="43.18211" lon="2.3719">
        <ele>145.3</ele>
        <time>2019-06-16T06:24:50.000Z</time>
      </trkpt>
      <trkpt lat="43.18214" lon="2.37189">
        <ele>145.4</ele>
        <time>2019-06-16T06:24:51.000Z</time>
      </trkpt>
      <trkpt lat="43.18216" lon="2.37188">
        <ele>145.5</ele>
        <time>2019-06-16T06:24:52.000Z</time>
      </trkpt>
      <trkpt lat="43.18219" lon="2.37187">
        <ele>145.6</ele>
        <time>2019-06-16T06:24:53.000Z</time>
      </trkpt>
      <trkpt lat="43.18221" lon="2.37186">
        <ele>145.7</ele>
        <time>2019-06-16T06:24:54.000Z</time>
      </trkpt>
      <trkpt lat="43.18224" lon="2.37186">
        <ele>145.8</ele>
        <time>2019-06-16T06:24:55.000Z</time>
      </trkpt>
      <trkpt lat="43.18226" lon="2.37185">
        <ele>145.9</ele>
        <time>2019-06-16T06:24:56.000Z</time>
      </trkpt>
      <trkpt lat="43.18228" lon="2.37184">
        <ele>146</ele>
        <time>2019-06-16T06:24:57.000Z</time>
      </trkpt>
      <trkpt lat="43.18231" lon="2.37183">
        <ele>146.1</ele>
        <time>2019-06-16T06:24:58.000Z</time>
      </trkpt>
      <trkpt lat="43.18233" lon="2.37183">
        <ele>146.2</ele>
        <time>2019-06-16T06:24:59.000Z</time>
      </trkpt>
      <trkpt lat="43.18235" lon="2.37182">
        <ele>146.3</ele>
        <time>2019-06-16T06:25:00.000Z</time>
      </trkpt>
      <trkpt lat="43.18237" lon="2.37181">
        <ele>146.4</ele>
        <time>2019-06-16T06:25:01.000Z</time>
      </trkpt>
      <trkpt lat="43.18239" lon="2.3718">
        <ele>146.5</ele>
        <time>2019-06-16T06:25:02.000Z</time>
      </trkpt>
      <trkpt lat="43.18242" lon="2.37179">
        <ele>146.6</ele>
        <time>2019-06-16T06:25:03.000Z</time>
      </trkpt>
      <trkpt lat="43.18244" lon="2.37178">
        <ele>146.7</ele>
        <time>2019-06-16T06:25:04.000Z</time>
      </trkpt>
      <trkpt lat="43.18246" lon="2.37178">
        <ele>146.8</ele>
        <time>2019-06-16T06:25:05.000Z</time>
      </trkpt>
      <trkpt lat="43.18248" lon="2.37177">
        <ele>146.9</ele>
        <time>2019-06-16T06:25:06.000Z</time>
      </trkpt>
      <trkpt lat="43.1825" lon="2.37176">
        <ele>147</ele>
        <time>2019-06-16T06:25:07.000Z</time>
      </trkpt>
      <trkpt lat="43.18252" lon="2.37175">
        <ele>147.1</ele>
        <time>2019-06-16T06:25:08.000Z</time>
      </trkpt>
      <trkpt lat="43.18255" lon="2.37174">
        <ele>147.2</ele>
        <time>2019-06-16T06:25:09.000Z</time>
      </trkpt>
      <trkpt lat="43.18257" lon="2.37173">
        <ele>147.3</ele>
        <time>2019-06-16T06:25:10.000Z</time>
      </trkpt>
      <trkpt lat="43.18259" lon="2.37173">
        <ele>147.4</ele>
        <time>2019-06-16T06:25:11.000Z</time>
      </trkpt>
      <trkpt lat="43.18261" lon="2.37172">
        <ele>147.5</ele>
        <time>2019-06-16T06:25:12.000Z</time>
      </trkpt>
      <trkpt lat="43.18263" lon="2.37172">
        <ele>147.6</ele>
        <time>2019-06-16T06:25:13.000Z</time>
      </trkpt>
      <trkpt lat="43.18265" lon="2.37172">
        <ele>147.7</ele>
        <time>2019-06-16T06:25:14.000Z</time>
      </trkpt>
      <trkpt lat="43.18268" lon="2.37172">
        <ele>147.8</ele>
        <time>2019-06-16T06:25:15.000Z</time>
      </trkpt>
      <trkpt lat="43.1827" lon="2.37172">
        <ele>147.9</ele>
        <time>2019-06-16T06:25:16.000Z</time>
      </trkpt>
      <trkpt lat="43.18272" lon="2.37172">
        <ele>148</ele>
        <time>2019-06-16T06:25:17.000Z</time>
      </trkpt>
      <trkpt lat="43.18274" lon="2.37173">
        <ele>148.1</ele>
        <time>2019-06-16T06:25:18.000Z</time>
      </trkpt>
      <trkpt lat="43.18276" lon="2.37174">
        <ele>148.2</ele>
        <time>2019-06-16T06:25:19.000Z</time>
      </trkpt>
      <trkpt lat="43.18279" lon="2.37175">
        <ele>148.3</ele>
        <time>2019-06-16T06:25:20.000Z</time>
      </trkpt>
      <trkpt lat="43.18281" lon="2.37176">
        <ele>148.4</ele>
        <time>2019-06-16T06:25:21.000Z</time>
      </trkpt>
      <trkpt lat="43.18283" lon="2.37177">
        <ele>148.4</ele>
        <time>2019-06-16T06:25:22.000Z</time>
      </trkpt>
      <trkpt lat="43.18285" lon="2.37179">
        <ele>148.5</ele>
        <time>2019-06-16T06:25:23.000Z</time>
      </trkpt>
      <trkpt lat="43.18288" lon="2.3718">
        <ele>148.6</ele>
        <time>2019-06-16T06:25:24.000Z</time>
      </trkpt>
      <trkpt lat="43.1829" lon="2.37181">
        <ele>148.7</ele>
        <time>2019-06-16T06:25:25.000Z</time>
      </trkpt>
      <trkpt lat="43.18292" lon="2.37183">
        <ele>148.7</ele>
        <time>2019-06-16T06:25:26.000Z</time>
      </trkpt>
      <trkpt lat="43.18294" lon="2.37184">
        <ele>148.8</ele>
        <time>2019-06-16T06:25:27.000Z</time>
      </trkpt>
      <trkpt lat="43.18296" lon="2.37185">
        <ele>148.9</ele>
        <time>2019-06-16T06:25:28.000Z</time>
      </trkpt>
      <trkpt lat="43.18299" lon="2.37186">
        <ele>148.9</ele>
        <time>2019-06-16T06:25:29.000Z</time>
      </trkpt>
      <trkpt lat="43.18301" lon="2.37187">
        <ele>149</ele>
        <time>2019-06-16T06:25:30.000Z</time>
      </trkpt>
      <trkpt lat="43.18303" lon="2.37187">
        <ele>149.1</ele>
        <time>2019-06-16T06:25:31.000Z</time>
      </trkpt>
      <trkpt lat="43.18305" lon="2.37188">
        <ele>149.1</ele>
        <time>2019-06-16T06:25:32.000Z</time>
      </trkpt>
      <trkpt lat="43.18308" lon="2.37188">
        <ele>149.2</ele>
        <time>2019-06-16T06:25:33.000Z</time>
      </trkpt>
      <trkpt lat="43.1831" lon="2.37188">
        <ele>149.3</ele>
        <time>2019-06-16T06:25:34.000Z</time>
      </trkpt>
      <trkpt lat="43.18312" lon="2.37187">
        <ele>149.4</ele>
        <time>2019-06-16T06:25:35.000Z</time>
      </trkpt>
      <trkpt lat="43.18314" lon="2.37187">
        <ele>149.5</ele>
        <time>2019-06-16T06:25:36.000Z</time>
      </trkpt>
      <trkpt lat="43.18316" lon="2.37186">
        <ele>149.6</ele>
        <time>2019-06-16T06:25:37.000Z</time>
      </trkpt>
      <trkpt lat="43.18318" lon="2.37185">
        <ele>149.7</ele>
        <time>2019-06-16T06:25:38.000Z</time>
      </trkpt>
      <trkpt lat="43.18321" lon="2.37184">
        <ele>149.9</ele>
        <time>2019-06-16T06:25:39.000Z</time>
      </trkpt>
      <trkpt lat="43.18323" lon="2.37183">
        <ele>150</ele>
        <time>2019-06-16T06:25:40.000Z</time>
      </trkpt>
      <trkpt lat="43.18325" lon="2.37181">
        <ele>150.1</ele>
        <time>2019-06-16T06:25:41.000Z</time>
      </trkpt>
      <trkpt lat="43.18327" lon="2.3718">
        <ele>150.3</ele>
        <time>2019-06-16T06:25:42.000Z</time>
      </trkpt>
      <trkpt lat="43.18329" lon="2.37178">
        <ele>150.4</ele>
        <time>2019-06-16T06:25:43.000Z</time>
      </trkpt>
      <trkpt lat="43.18331" lon="2.37177">
        <ele>150.5</ele>
        <time>2019-06-16T06:25:44.000Z</time>
      </trkpt>
      <trkpt lat="43.18333" lon="2.37176">
        <ele>150.7</ele>
        <time>2019-06-16T06:25:45.000Z</time>
      </trkpt>
      <trkpt lat="43.18336" lon="2.37174">
        <ele>150.6</ele>
        <time>2019-06-16T06:25:46.000Z</time>
      </trkpt>
      <trkpt lat="43.18338" lon="2.37173">
        <ele>150.6</ele>
        <time>2019-06-16T06:25:47.000Z</time>
      </trkpt>
      <trkpt lat="43.1834" lon="2.37171">
        <ele>150.5</ele>
        <time>2019-06-16T06:25:48.000Z</time>
      </trkpt>
      <trkpt lat="43.18342" lon="2.3717">
        <ele>150.5</ele>
        <time>2019-06-16T06:25:49.000Z</time>
      </trkpt>
      <trkpt lat="43.18344" lon="2.37168">
        <ele>150.4</ele>
        <time>2019-06-16T06:25:50.000Z</time>
      </trkpt>
      <trkpt lat="43.18347" lon="2.37167">
        <ele>150.4</ele>
        <time>2019-06-16T06:25:51.000Z</time>
      </trkpt>
      <trkpt lat="43.18349" lon="2.37165">
        <ele>150.3</ele>
        <time>2019-06-16T06:25:52.000Z</time>
      </trkpt>
      <trkpt lat="43.18351" lon="2.37164">
        <ele>150.2</ele>
        <time>2019-06-16T06:25:53.000Z</time>
      </trkpt>
      <trkpt lat="43.18352" lon="2.37162">
        <ele>150.2</ele>
        <time>2019-06-16T06:25:54.000Z</time>
      </trkpt>
      <trkpt lat="43.18354" lon="2.37161">
        <ele>150.1</ele>
        <time>2019-06-16T06:25:55.000Z</time>
      </trkpt>
      <trkpt lat="43.18355" lon="2.3716">
        <ele>150.1</ele>
        <time>2019-06-16T06:25:56.000Z</time>
      </trkpt>
      <trkpt lat="43.18355" lon="2.37159">
        <ele>150.1</ele>
        <time>2019-06-16T06:25:57.000Z</time>
      </trkpt>
      <trkpt lat="43.18356" lon="2.37159">
        <ele>150.1</ele>
        <time>2019-06-16T06:25:58.000Z</time>
      </trkpt>
      <trkpt lat="43.18356" lon="2.37159">
        <ele>150.1</ele>
        <time>2019-06-16T06:25:59.000Z</time>
      </trkpt>
      <trkpt lat="43.18356" lon="2.37159">
        <ele>150.1</ele>
        <time>2019-06-16T06:26:00.000Z</time>
      </trkpt>
      <trkpt lat="43.18356" lon="2.37159">
        <ele>150.1</ele>
        <time>2019-06-16T06:26:01.000Z</time>
      </trkpt>
      <trkpt lat="43.18355" lon="2.37159">
        <ele>150.1</ele>
        <time>2019-06-16T06:26:02.000Z</time>
      </trkpt>
      <trkpt lat="43.18356" lon="2.37159">
        <ele>150.1</ele>
        <time>2019-06-16T06:26:03.000Z</time>
      </trkpt>
      <trkpt lat="43.18356" lon="2.37159">
        <ele>150</ele>
        <time>2019-06-16T06:26:04.000Z</time>
      </trkpt>
      <trkpt lat="43.18357" lon="2.3716">
        <ele>150</ele>
        <time>2019-06-16T06:26:05.000Z</time>
      </trkpt>
      <trkpt lat="43.18357" lon="2.37161">
        <ele>149.9</ele>
        <time>2019-06-16T06:26:06.000Z</time>
      </trkpt>
      <trkpt lat="43.18358" lon="2.37162">
        <ele>149.9</ele>
        <time>2019-06-16T06:26:07.000Z</time>
      </trkpt>
      <trkpt lat="43.18359" lon="2.37164">
        <ele>149.8</ele>
        <time>2019-06-16T06:26:08.000Z</time>
      </trkpt>
      <trkpt lat="43.18359" lon="2.37165">
        <ele>149.8</ele>
        <time>2019-06-16T06:26:09.000Z</time>
      </trkpt>
      <trkpt lat="43.1836" lon="2.37166">
        <ele>149.7</ele>
        <time>2019-06-16T06:26:10.000Z</time>
      </trkpt>
      <trkpt lat="43.18361" lon="2.37167">
        <ele>149.7</ele>
        <time>2019-06-16T06:26:11.000Z</time>
      </trkpt>
      <trkpt lat="43.18361" lon="2.37168">
        <ele>149.7</ele>
        <time>2019-06-16T06:26:12.000Z</time>
      </trkpt>
      <trkpt lat="43.18361" lon="2.37168">
        <ele>149.7</ele>
        <time>2019-06-16T06:26:13.000Z</time>
      </trkpt>
      <trkpt lat="43.18361" lon="2.37168">
        <ele>149.6</ele>
        <time>2019-06-16T06:26:14.000Z</time>
      </trkpt>
      <trkpt lat="43.18361" lon="2.37168">
        <ele>149.6</ele>
        <time>2019-06-16T06:26:15.000Z</time>
      </trkpt>
      <trkpt lat="43.18361" lon="2.37168">
        <ele>149.7</ele>
        <time>2019-06-16T06:26:16.000Z</time>
      </trkpt>
      <trkpt lat="43.18361" lon="2.37168">
        <ele>149.7</ele>
        <time>2019-06-16T06:26:17.000Z</time>
      </trkpt>
      <trkpt lat="43.18361" lon="2.37168">
        <ele>149.7</ele>
        <time>2019-06-16T06:26:18.000Z</time>
      </trkpt>
      <trkpt lat="43.18361" lon="2.37168">
        <ele>149.6</ele>
        <time>2019-06-16T06:26:19.000Z</time>
      </trkpt>
      <trkpt lat="43.18361" lon="2.37168">
        <ele>149.6</ele>
        <time>2019-06-16T06:26:20.000Z</time>
      </trkpt>
      <trkpt lat="43.18362" lon="2.37168">
        <ele>149.6</ele>
        <time>2019-06-16T06:26:21.000Z</time>
      </trkpt>
      <trkpt lat="43.18362" lon="2.37168">
        <ele>149.6</ele>
        <time>2019-06-16T06:26:22.000Z</time>
      </trkpt>
      <trkpt lat="43.18362" lon="2.37167">
        <ele>149.6</ele>
        <time>2019-06-16T06:26:23.000Z</time>
      </trkpt>
      <trkpt lat="43.18362" lon="2.37167">
        <ele>149.6</ele>
        <time>2019-06-16T06:26:24.000Z</time>
      </trkpt>
      <trkpt lat="43.18361" lon="2.37166">
        <ele>149.7</ele>
        <time>2019-06-16T06:26:25.000Z</time>
      </trkpt>
      <trkpt lat="43.18361" lon="2.37165">
        <ele>149.7</ele>
        <time>2019-06-16T06:26:26.000Z</time>
      </trkpt>
      <trkpt lat="43.1836" lon="2.37164">
        <ele>149.7</ele>
        <time>2019-06-16T06:26:27.000Z</time>
      </trkpt>
      <trkpt lat="43.1836" lon="2.37163">
        <ele>149.8</ele>
        <time>2019-06-16T06:26:28.000Z</time>
      </trkpt>
      <trkpt lat="43.1836" lon="2.37163">
        <ele>149.8</ele>
        <time>2019-06-16T06:26:29.000Z</time>
      </trkpt>
      <trkpt lat="43.1836" lon="2.37163">
        <ele>149.8</ele>
        <time>2019-06-16T06:26:30.000Z</time>
      </trkpt>
      <trkpt lat="43.18361" lon="2.37164">
        <ele>149.7</ele>
        <time>2019-06-16T06:26:31.000Z</time>
      </trkpt>
      <trkpt lat="43.18361" lon="2.37166">
        <ele>149.7</ele>
        <time>2019-06-16T06:26:32.000Z</time>
      </trkpt>
      <trkpt lat="43.18362" lon="2.37168">
        <ele>149.6</ele>
        <time>2019-06-16T06:26:33.000Z</time>
      </trkpt>
      <trkpt lat="43.18363" lon="2.3717">
        <ele>149.5</ele>
        <time>2019-06-16T06:26:34.000Z</time>
      </trkpt>
      <trkpt lat="43.18364" lon="2.37173">
        <ele>149.4</ele>
        <time>2019-06-16T06:26:35.000Z</time>
      </trkpt>
      <trkpt lat="43.18365" lon="2.37177">
        <ele>149.3</ele>
        <time>2019-06-16T06:26:36.000Z</time>
      </trkpt>
      <trkpt lat="43.18366" lon="2.3718">
        <ele>149.3</ele>
        <time>2019-06-16T06:26:37.000Z</time>
      </trkpt>
      <trkpt lat="43.18367" lon="2.37183">
        <ele>149.2</ele>
        <time>2019-06-16T06:26:38.000Z</time>
      </trkpt>
      <trkpt lat="43.18367" lon="2.37186">
        <ele>149.1</ele>
        <time>2019-06-16T06:26:39.000Z</time>
      </trkpt>
      <trkpt lat="43.18368" lon="2.3719">
        <ele>149.1</ele>
        <time>2019-06-16T06:26:40.000Z</time>
      </trkpt>
      <trkpt lat="43.18369" lon="2.37193">
        <ele>149</ele>
        <time>2019-06-16T06:26:41.000Z</time>
      </trkpt>
      <trkpt lat="43.18369" lon="2.37196">
        <ele>149</ele>
        <time>2019-06-16T06:26:42.000Z</time>
      </trkpt>
      <trkpt lat="43.1837" lon="2.37199">
        <ele>148.9</ele>
        <time>2019-06-16T06:26:43.000Z</time>
      </trkpt>
      <trkpt lat="43.18371" lon="2.37202">
        <ele>148.9</ele>
        <time>2019-06-16T06:26:44.000Z</time>
      </trkpt>
      <trkpt lat="43.18371" lon="2.37205">
        <ele>148.8</ele>
        <time>2019-06-16T06:26:45.000Z</time>
      </trkpt>
      <trkpt lat="43.18372" lon="2.37209">
        <ele>148.8</ele>
        <time>2019-06-16T06:26:46.000Z</time>
      </trkpt>
      <trkpt lat="43.18372" lon="2.37212">
        <ele>148.8</ele>
        <time>2019-06-16T06:26:47.000Z</time>
      </trkpt>
      <trkpt lat="43.18373" lon="2.37216">
        <ele>148.7</ele>
        <time>2019-06-16T06:26:48.000Z</time>
      </trkpt>
      <trkpt lat="43.18374" lon="2.37219">
        <ele>148.7</ele>
        <time>2019-06-16T06:26:49.000Z</time>
      </trkpt>
      <trkpt lat="43.18374" lon="2.37223">
        <ele>148.7</ele>
        <time>2019-06-16T06:26:50.000Z</time>
      </trkpt>
      <trkpt lat="43.18375" lon="2.37226">
        <ele>148.6</ele>
        <time>2019-06-16T06:26:51.000Z</time>
      </trkpt>
      <trkpt lat="43.18376" lon="2.37229">
        <ele>148.6</ele>
        <time>2019-06-16T06:26:52.000Z</time>
      </trkpt>
      <trkpt lat="43.18376" lon="2.37233">
        <ele>148.6</ele>
        <time>2019-06-16T06:26:53.000Z</time>
      </trkpt>
      <trkpt lat="43.18377" lon="2.37236">
        <ele>148.6</ele>
        <time>2019-06-16T06:26:54.000Z</time>
      </trkpt>
      <trkpt lat="43.18378" lon="2.3724">
        <ele>148.6</ele>
        <time>2019-06-16T06:26:55.000Z</time>
      </trkpt>
      <trkpt lat="43.18379" lon="2.37243">
        <ele>148.6</ele>
        <time>2019-06-16T06:26:56.000Z</time>
      </trkpt>
      <trkpt lat="43.18379" lon="2.37246">
        <ele>148.6</ele>
        <time>2019-06-16T06:26:57.000Z</time>
      </trkpt>
      <trkpt lat="43.1838" lon="2.3725">
        <ele>148.6</ele>
        <time>2019-06-16T06:26:58.000Z</time>
      </trkpt>
      <trkpt lat="43.18381" lon="2.37253">
        <ele>148.6</ele>
        <time>2019-06-16T06:26:59.000Z</time>
      </trkpt>
      <trkpt lat="43.18382" lon="2.37256">
        <ele>148.7</ele>
        <time>2019-06-16T06:27:00.000Z</time>
      </trkpt>
      <trkpt lat="43.18383" lon="2.3726">
        <ele>148.8</ele>
        <time>2019-06-16T06:27:01.000Z</time>
      </trkpt>
      <trkpt lat="43.18383" lon="2.37263">
        <ele>148.8</ele>
        <time>2019-06-16T06:27:02.000Z</time>
      </trkpt>
      <trkpt lat="43.18384" lon="2.37267">
        <ele>148.9</ele>
        <time>2019-06-16T06:27:03.000Z</time>
      </trkpt>
      <trkpt lat="43.18385" lon="2.3727">
        <ele>149</ele>
        <time>2019-06-16T06:27:04.000Z</time>
      </trkpt>
      <trkpt lat="43.18386" lon="2.37273">
        <ele>149</ele>
        <time>2019-06-16T06:27:05.000Z</time>
      </trkpt>
      <trkpt lat="43.18386" lon="2.37277">
        <ele>149.1</ele>
        <time>2019-06-16T06:27:06.000Z</time>
      </trkpt>
      <trkpt lat="43.18387" lon="2.3728">
        <ele>149.1</ele>
        <time>2019-06-16T06:27:07.000Z</time>
      </trkpt>
      <trkpt lat="43.18388" lon="2.37284">
        <ele>149.2</ele>
        <time>2019-06-16T06:27:08.000Z</time>
      </trkpt>
      <trkpt lat="43.18388" lon="2.37287">
        <ele>149.3</ele>
        <time>2019-06-16T06:27:09.000Z</time>
      </trkpt>
      <trkpt lat="43.18389" lon="2.37291">
        <ele>149.3</ele>
        <time>2019-06-16T06:27:10.000Z</time>
      </trkpt>
      <trkpt lat="43.18389" lon="2.37294">
        <ele>149.4</ele>
        <time>2019-06-16T06:27:11.000Z</time>
      </trkpt>
      <trkpt lat="43.18389" lon="2.37298">
        <ele>149.4</ele>
        <time>2019-06-16T06:27:12.000Z</time>
      </trkpt>
      <trkpt lat="43.1839" lon="2.37301">
        <ele>149.5</ele>
        <time>2019-06-16T06:27:13.000Z</time>
      </trkpt>
      <trkpt lat="43.1839" lon="2.37305">
        <ele>149.5</ele>
        <time>2019-06-16T06:27:14.000Z</time>
      </trkpt>
      <trkpt lat="43.18391" lon="2.37308">
        <ele>149.6</ele>
        <time>2019-06-16T06:27:15.000Z</time>
      </trkpt>
      <trkpt lat="43.18391" lon="2.37312">
        <ele>149.7</ele>
        <time>2019-06-16T06:27:16.000Z</time>
      </trkpt>
      <trkpt lat="43.18391" lon="2.37315">
        <ele>149.7</ele>
        <time>2019-06-16T06:27:17.000Z</time>
      </trkpt>
      <trkpt lat="43.18392" lon="2.37319">
        <ele>149.8</ele>
        <time>2019-06-16T06:27:18.000Z</time>
      </trkpt>
      <trkpt lat="43.18392" lon="2.37322">
        <ele>149.8</ele>
        <time>2019-06-16T06:27:19.000Z</time>
      </trkpt>
      <trkpt lat="43.18393" lon="2.37325">
        <ele>149.9</ele>
        <time>2019-06-16T06:27:20.000Z</time>
      </trkpt>
      <trkpt lat="43.18393" lon="2.37329">
        <ele>149.9</ele>
        <time>2019-06-16T06:27:21.000Z</time>
      </trkpt>
      <trkpt lat="43.18394" lon="2.37332">
        <ele>150</ele>
        <time>2019-06-16T06:27:22.000Z</time>
      </trkpt>
      <trkpt lat="43.18395" lon="2.37335">
        <ele>150.1</ele>
        <time>2019-06-16T06:27:23.000Z</time>
      </trkpt>
      <trkpt lat="43.18396" lon="2.37338">
        <ele>150.2</ele>
        <time>2019-06-16T06:27:24.000Z</time>
      </trkpt>
      <trkpt lat="43.18397" lon="2.37341">
        <ele>150.3</ele>
        <time>2019-06-16T06:27:25.000Z</time>
      </trkpt>
      <trkpt lat="43.18398" lon="2.37344">
        <ele>150.5</ele>
        <time>2019-06-16T06:27:26.000Z</time>
      </trkpt>
      <trkpt lat="43.18399" lon="2.37347">
        <ele>150.6</ele>
        <time>2019-06-16T06:27:27.000Z</time>
      </trkpt>
      <trkpt lat="43.184" lon="2.37349">
        <ele>150.7</ele>
        <time>2019-06-16T06:27:28.000Z</time>
      </trkpt>
      <trkpt lat="43.18401" lon="2.37352">
        <ele>150.9</ele>
        <time>2019-06-16T06:27:29.000Z</time>
      </trkpt>
      <trkpt lat="43.18401" lon="2.37355">
        <ele>151</ele>
        <time>2019-06-16T06:27:30.000Z</time>
      </trkpt>
      <trkpt lat="43.18402" lon="2.37358">
        <ele>151.1</ele>
        <time>2019-06-16T06:27:31.000Z</time>
      </trkpt>
      <trkpt lat="43.18402" lon="2.3736">
        <ele>151.2</ele>
        <time>2019-06-16T06:27:32.000Z</time>
      </trkpt>
      <trkpt lat="43.18402" lon="2.37363">
        <ele>151.4</ele>
        <time>2019-06-16T06:27:33.000Z</time>
      </trkpt>
      <trkpt lat="43.18402" lon="2.37365">
        <ele>151.5</ele>
        <time>2019-06-16T06:27:34.000Z</time>
      </trkpt>
      <trkpt lat="43.18402" lon="2.37368">
        <ele>151.6</ele>
        <time>2019-06-16T06:27:35.000Z</time>
      </trkpt>
      <trkpt lat="43.18402" lon="2.37371">
        <ele>151.7</ele>
        <time>2019-06-16T06:27:36.000Z</time>
      </trkpt>
      <trkpt lat="43.18402" lon="2.37373">
        <ele>151.8</ele>
        <time>2019-06-16T06:27:37.000Z</time>
      </trkpt>
      <trkpt lat="43.18403" lon="2.37376">
        <ele>151.9</ele>
        <time>2019-06-16T06:27:38.000Z</time>
      </trkpt>
      <trkpt lat="43.18403" lon="2.37378">
        <ele>152.1</ele>
        <time>2019-06-16T06:27:39.000Z</time>
      </trkpt>
      <trkpt lat="43.18404" lon="2.37381">
        <ele>152.2</ele>
        <time>2019-06-16T06:27:40.000Z</time>
      </trkpt>
      <trkpt lat="43.18405" lon="2.37383">
        <ele>152.3</ele>
        <time>2019-06-16T06:27:41.000Z</time>
      </trkpt>
      <trkpt lat="43.18406" lon="2.37385">
        <ele>152.4</ele>
        <time>2019-06-16T06:27:42.000Z</time>
      </trkpt>
      <trkpt lat="43.18408" lon="2.37387">
        <ele>152.5</ele>
        <time>2019-06-16T06:27:43.000Z</time>
      </trkpt>
      <trkpt lat="43.18409" lon="2.37388">
        <ele>152.6</ele>
        <time>2019-06-16T06:27:44.000Z</time>
      </trkpt>
      <trkpt lat="43.18411" lon="2.37389">
        <ele>152.6</ele>
        <time>2019-06-16T06:27:45.000Z</time>
      </trkpt>
      <trkpt lat="43.18412" lon="2.37389">
        <ele>152.6</ele>
        <time>2019-06-16T06:27:46.000Z</time>
      </trkpt>
      <trkpt lat="43.18414" lon="2.37389">
        <ele>152.6</ele>
        <time>2019-06-16T06:27:47.000Z</time>
      </trkpt>
      <trkpt lat="43.18416" lon="2.37388">
        <ele>152.6</ele>
        <time>2019-06-16T06:27:48.000Z</time>
      </trkpt>
      <trkpt lat="43.18418" lon="2.37387">
        <ele>152.6</ele>
        <time>2019-06-16T06:27:49.000Z</time>
      </trkpt>
      <trkpt lat="43.18419" lon="2.37387">
        <ele>152.6</ele>
        <time>2019-06-16T06:27:50.000Z</time>
      </trkpt>
      <trkpt lat="43.18422" lon="2.37386">
        <ele>152.7</ele>
        <time>2019-06-16T06:27:51.000Z</time>
      </trkpt>
      <trkpt lat="43.18424" lon="2.37385">
        <ele>152.7</ele>
        <time>2019-06-16T06:27:52.000Z</time>
      </trkpt>
      <trkpt lat="43.18426" lon="2.37385">
        <ele>152.8</ele>
        <time>2019-06-16T06:27:53.000Z</time>
      </trkpt>
      <trkpt lat="43.18428" lon="2.37385">
        <ele>152.8</ele>
        <time>2019-06-16T06:27:54.000Z</time>
      </trkpt>
      <trkpt lat="43.1843" lon="2.37384">
        <ele>152.9</ele>
        <time>2019-06-16T06:27:55.000Z</time>
      </trkpt>
      <trkpt lat="43.18432" lon="2.37384">
        <ele>152.9</ele>
        <time>2019-06-16T06:27:56.000Z</time>
      </trkpt>
      <trkpt lat="43.18434" lon="2.37383">
        <ele>153</ele>
        <time>2019-06-16T06:27:57.000Z</time>
      </trkpt>
      <trkpt lat="43.18436" lon="2.37382">
        <ele>153</ele>
        <time>2019-06-16T06:27:58.000Z</time>
      </trkpt>
      <trkpt lat="43.18438" lon="2.37381">
        <ele>153</ele>
        <time>2019-06-16T06:27:59.000Z</time>
      </trkpt>
      <trkpt lat="43.1844" lon="2.37381">
        <ele>153.1</ele>
        <time>2019-06-16T06:28:00.000Z</time>
      </trkpt>
      <trkpt lat="43.18442" lon="2.3738">
        <ele>153.1</ele>
        <time>2019-06-16T06:28:01.000Z</time>
      </trkpt>
      <trkpt lat="43.18444" lon="2.37379">
        <ele>153.1</ele>
        <time>2019-06-16T06:28:02.000Z</time>
      </trkpt>
      <trkpt lat="43.18446" lon="2.37379">
        <ele>153.2</ele>
        <time>2019-06-16T06:28:03.000Z</time>
      </trkpt>
      <trkpt lat="43.18448" lon="2.37378">
        <ele>153.2</ele>
        <time>2019-06-16T06:28:04.000Z</time>
      </trkpt>
      <trkpt lat="43.1845" lon="2.37378">
        <ele>153.3</ele>
        <time>2019-06-16T06:28:05.000Z</time>
      </trkpt>
      <trkpt lat="43.18452" lon="2.37378">
        <ele>153.4</ele>
        <time>2019-06-16T06:28:06.000Z</time>
      </trkpt>
      <trkpt lat="43.18454" lon="2.37377">
        <ele>153.4</ele>
        <time>2019-06-16T06:28:07.000Z</time>
      </trkpt>
      <trkpt lat="43.18456" lon="2.37377">
        <ele>153.5</ele>
        <time>2019-06-16T06:28:08.000Z</time>
      </trkpt>
      <trkpt lat="43.18459" lon="2.37377">
        <ele>153.6</ele>
        <time>2019-06-16T06:28:09.000Z</time>
      </trkpt>
      <trkpt lat="43.18461" lon="2.37377">
        <ele>153.6</ele>
        <time>2019-06-16T06:28:10.000Z</time>
      </trkpt>
      <trkpt lat="43.18463" lon="2.37376">
        <ele>153.7</ele>
        <time>2019-06-16T06:28:11.000Z</time>
      </trkpt>
      <trkpt lat="43.18466" lon="2.37376">
        <ele>153.8</ele>
        <time>2019-06-16T06:28:12.000Z</time>
      </trkpt>
      <trkpt lat="43.18468" lon="2.37376">
        <ele>153.9</ele>
        <time>2019-06-16T06:28:13.000Z</time>
      </trkpt>
      <trkpt lat="43.1847" lon="2.37375">
        <ele>153.9</ele>
        <time>2019-06-16T06:28:14.000Z</time>
      </trkpt>
      <trkpt lat="43.18473" lon="2.37375">
        <ele>154</ele>
        <time>2019-06-16T06:28:15.000Z</time>
      </trkpt>
      <trkpt lat="43.18475" lon="2.37375">
        <ele>154.1</ele>
        <time>2019-06-16T06:28:16.000Z</time>
      </trkpt>
      <trkpt lat="43.18477" lon="2.37375">
        <ele>154.2</ele>
        <time>2019-06-16T06:28:17.000Z</time>
      </trkpt>
      <trkpt lat="43.1848" lon="2.37375">
        <ele>154.3</ele>
        <time>2019-06-16T06:28:18.000Z</time>
      </trkpt>
      <trkpt lat="43.18482" lon="2.37374">
        <ele>154.3</ele>
        <time>2019-06-16T06:28:19.000Z</time>
      </trkpt>
      <trkpt lat="43.18484" lon="2.37375">
        <ele>154.4</ele>
        <time>2019-06-16T06:28:20.000Z</time>
      </trkpt>
      <trkpt lat="43.18486" lon="2.37375">
        <ele>154.5</ele>
        <time>2019-06-16T06:28:21.000Z</time>
      </trkpt>
      <trkpt lat="43.18488" lon="2.37375">
        <ele>154.6</ele>
        <time>2019-06-16T06:28:22.000Z</time>
      </trkpt>
      <trkpt lat="43.18491" lon="2.37375">
        <ele>154.7</ele>
        <time>2019-06-16T06:28:23.000Z</time>
      </trkpt>
      <trkpt lat="43.18493" lon="2.37376">
        <ele>154.8</ele>
        <time>2019-06-16T06:28:24.000Z</time>
      </trkpt>
      <trkpt lat="43.18495" lon="2.37377">
        <ele>154.9</ele>
        <time>2019-06-16T06:28:25.000Z</time>
      </trkpt>
      <trkpt lat="43.18498" lon="2.37378">
        <ele>155</ele>
        <time>2019-06-16T06:28:26.000Z</time>
      </trkpt>
      <trkpt lat="43.185" lon="2.37379">
        <ele>155.1</ele>
        <time>2019-06-16T06:28:27.000Z</time>
      </trkpt>
      <trkpt lat="43.18501" lon="2.37381">
        <ele>155.3</ele>
        <time>2019-06-16T06:28:28.000Z</time>
      </trkpt>
      <trkpt lat="43.18503" lon="2.37384">
        <ele>155.4</ele>
        <time>2019-06-16T06:28:29.000Z</time>
      </trkpt>
      <trkpt lat="43.18503" lon="2.37387">
        <ele>155.5</ele>
        <time>2019-06-16T06:28:30.000Z</time>
      </trkpt>
      <trkpt lat="43.18503" lon="2.3739">
        <ele>155.6</ele>
        <time>2019-06-16T06:28:31.000Z</time>
      </trkpt>
      <trkpt lat="43.18502" lon="2.37393">
        <ele>155.6</ele>
        <time>2019-06-16T06:28:32.000Z</time>
      </trkpt>
      <trkpt lat="43.18501" lon="2.37395">
        <ele>155.5</ele>
        <time>2019-06-16T06:28:33.000Z</time>
      </trkpt>
      <trkpt lat="43.18499" lon="2.37397">
        <ele>155.5</ele>
        <time>2019-06-16T06:28:34.000Z</time>
      </trkpt>
      <trkpt lat="43.18497" lon="2.37398">
        <ele>155.5</ele>
        <time>2019-06-16T06:28:35.000Z</time>
      </trkpt>
      <trkpt lat="43.18495" lon="2.37399">
        <ele>155.4</ele>
        <time>2019-06-16T06:28:36.000Z</time>
      </trkpt>
      <trkpt lat="43.18493" lon="2.374">
        <ele>155.4</ele>
        <time>2019-06-16T06:28:37.000Z</time>
      </trkpt>
      <trkpt lat="43.18491" lon="2.374">
        <ele>155.3</ele>
        <time>2019-06-16T06:28:38.000Z</time>
      </trkpt>
      <trkpt lat="43.18488" lon="2.37401">
        <ele>155.3</ele>
        <time>2019-06-16T06:28:39.000Z</time>
      </trkpt>
      <trkpt lat="43.18486" lon="2.37401">
        <ele>155.2</ele>
        <time>2019-06-16T06:28:40.000Z</time>
      </trkpt>
      <trkpt lat="43.18484" lon="2.37402">
        <ele>155.2</ele>
        <time>2019-06-16T06:28:41.000Z</time>
      </trkpt>
      <trkpt lat="43.18483" lon="2.37404">
        <ele>155.2</ele>
        <time>2019-06-16T06:28:42.000Z</time>
      </trkpt>
      <trkpt lat="43.18481" lon="2.37406">
        <ele>155.2</ele>
        <time>2019-06-16T06:28:43.000Z</time>
      </trkpt>
      <trkpt lat="43.1848" lon="2.37408">
        <ele>155.3</ele>
        <time>2019-06-16T06:28:44.000Z</time>
      </trkpt>
      <trkpt lat="43.18479" lon="2.3741">
        <ele>155.3</ele>
        <time>2019-06-16T06:28:45.000Z</time>
      </trkpt>
      <trkpt lat="43.18479" lon="2.37413">
        <ele>155.4</ele>
        <time>2019-06-16T06:28:46.000Z</time>
      </trkpt>
      <trkpt lat="43.18478" lon="2.37416">
        <ele>155.5</ele>
        <time>2019-06-16T06:28:47.000Z</time>
      </trkpt>
      <trkpt lat="43.18478" lon="2.37419">
        <ele>155.6</ele>
        <time>2019-06-16T06:28:48.000Z</time>
      </trkpt>
      <trkpt lat="43.18478" lon="2.37422">
        <ele>155.7</ele>
        <time>2019-06-16T06:28:49.000Z</time>
      </trkpt>
      <trkpt lat="43.18479" lon="2.37425">
        <ele>155.8</ele>
        <time>2019-06-16T06:28:50.000Z</time>
      </trkpt>
      <trkpt lat="43.18479" lon="2.37428">
        <ele>155.9</ele>
        <time>2019-06-16T06:28:51.000Z</time>
      </trkpt>
      <trkpt lat="43.1848" lon="2.37431">
        <ele>156</ele>
        <time>2019-06-16T06:28:52.000Z</time>
      </trkpt>
      <trkpt lat="43.18481" lon="2.37434">
        <ele>156.1</ele>
        <time>2019-06-16T06:28:53.000Z</time>
      </trkpt>
      <trkpt lat="43.18482" lon="2.37437">
        <ele>156.2</ele>
        <time>2019-06-16T06:28:54.000Z</time>
      </trkpt>
      <trkpt lat="43.18483" lon="2.37439">
        <ele>156.4</ele>
        <time>2019-06-16T06:28:55.000Z</time>
      </trkpt>
      <trkpt lat="43.18484" lon="2.37442">
        <ele>156.5</ele>
        <time>2019-06-16T06:28:56.000Z</time>
      </trkpt>
      <trkpt lat="43.18485" lon="2.37445">
        <ele>156.6</ele>
        <time>2019-06-16T06:28:57.000Z</time>
      </trkpt>
      <trkpt lat="43.18486" lon="2.37448">
        <ele>156.6</ele>
        <time>2019-06-16T06:28:58.000Z</time>
      </trkpt>
      <trkpt lat="43.18487" lon="2.3745">
        <ele>156.7</ele>
        <time>2019-06-16T06:28:59.000Z</time>
      </trkpt>
      <trkpt lat="43.18488" lon="2.37453">
        <ele>156.8</ele>
        <time>2019-06-16T06:29:00.000Z</time>
      </trkpt>
      <trkpt lat="43.18489" lon="2.37456">
        <ele>156.9</ele>
        <time>2019-06-16T06:29:01.000Z</time>
      </trkpt>
      <trkpt lat="43.1849" lon="2.37459">
        <ele>157</ele>
        <time>2019-06-16T06:29:02.000Z</time>
      </trkpt>
      <trkpt lat="43.1849" lon="2.37461">
        <ele>157.1</ele>
        <time>2019-06-16T06:29:03.000Z</time>
      </trkpt>
      <trkpt lat="43.18491" lon="2.37464">
        <ele>157.2</ele>
        <time>2019-06-16T06:29:04.000Z</time>
      </trkpt>
      <trkpt lat="43.18492" lon="2.37467">
        <ele>157.2</ele>
        <time>2019-06-16T06:29:05.000Z</time>
      </trkpt>
      <trkpt lat="43.18493" lon="2.37469">
        <ele>157.3</ele>
        <time>2019-06-16T06:29:06.000Z</time>
      </trkpt>
      <trkpt lat="43.18494" lon="2.37472">
        <ele>157.4</ele>
        <time>2019-06-16T06:29:07.000Z</time>
      </trkpt>
      <trkpt lat="43.18495" lon="2.37475">
        <ele>157.4</ele>
        <time>2019-06-16T06:29:08.000Z</time>
      </trkpt>
      <trkpt lat="43.18496" lon="2.37477">
        <ele>157.5</ele>
        <time>2019-06-16T06:29:09.000Z</time>
      </trkpt>
      <trkpt lat="43.18497" lon="2.3748">
        <ele>157.5</ele>
        <time>2019-06-16T06:29:10.000Z</time>
      </trkpt>
      <trkpt lat="43.18498" lon="2.37482">
        <ele>157.6</ele>
        <time>2019-06-16T06:29:11.000Z</time>
      </trkpt>
      <trkpt lat="43.18499" lon="2.37485">
        <ele>157.6</ele>
        <time>2019-06-16T06:29:12.000Z</time>
      </trkpt>
      <trkpt lat="43.185" lon="2.37487">
        <ele>157.7</ele>
        <time>2019-06-16T06:29:13.000Z</time>
      </trkpt>
      <trkpt lat="43.18501" lon="2.3749">
        <ele>157.8</ele>
        <time>2019-06-16T06:29:14.000Z</time>
      </trkpt>
      <trkpt lat="43.18502" lon="2.37492">
        <ele>157.9</ele>
        <time>2019-06-16T06:29:15.000Z</time>
      </trkpt>
      <trkpt lat="43.18504" lon="2.37494">
        <ele>158</ele>
        <time>2019-06-16T06:29:16.000Z</time>
      </trkpt>
      <trkpt lat="43.18505" lon="2.37496">
        <ele>158.1</ele>
        <time>2019-06-16T06:29:17.000Z</time>
      </trkpt>
      <trkpt lat="43.18506" lon="2.37498">
        <ele>158.2</ele>
        <time>2019-06-16T06:29:18.000Z</time>
      </trkpt>
      <trkpt lat="43.18508" lon="2.375">
        <ele>158.3</ele>
        <time>2019-06-16T06:29:19.000Z</time>
      </trkpt>
      <trkpt lat="43.1851" lon="2.37502">
        <ele>158.5</ele>
        <time>2019-06-16T06:29:20.000Z</time>
      </trkpt>
      <trkpt lat="43.18512" lon="2.37503">
        <ele>158.6</ele>
        <time>2019-06-16T06:29:21.000Z</time>
      </trkpt>
      <trkpt lat="43.18514" lon="2.37505">
        <ele>158.8</ele>
        <time>2019-06-16T06:29:22.000Z</time>
      </trkpt>
      <trkpt lat="43.18516" lon="2.37506">
        <ele>159</ele>
        <time>2019-06-16T06:29:23.000Z</time>
      </trkpt>
      <trkpt lat="43.18518" lon="2.37507">
        <ele>159.1</ele>
        <time>2019-06-16T06:29:24.000Z</time>
      </trkpt>
      <trkpt lat="43.18521" lon="2.37509">
        <ele>159.3</ele>
        <time>2019-06-16T06:29:25.000Z</time>
      </trkpt>
      <trkpt lat="43.18523" lon="2.3751">
        <ele>159.4</ele>
        <time>2019-06-16T06:29:26.000Z</time>
      </trkpt>
      <trkpt lat="43.18526" lon="2.37512">
        <ele>159.6</ele>
        <time>2019-06-16T06:29:27.000Z</time>
      </trkpt>
      <trkpt lat="43.18528" lon="2.37513">
        <ele>159.7</ele>
        <time>2019-06-16T06:29:28.000Z</time>
      </trkpt>
      <trkpt lat="43.1853" lon="2.37515">
        <ele>159.9</ele>
        <time>2019-06-16T06:29:29.000Z</time>
      </trkpt>
      <trkpt lat="43.18532" lon="2.37516">
        <ele>160</ele>
        <time>2019-06-16T06:29:30.000Z</time>
      </trkpt>
      <trkpt lat="43.18534" lon="2.37518">
        <ele>160.1</ele>
        <time>2019-06-16T06:29:31.000Z</time>
      </trkpt>
      <trkpt lat="43.18536" lon="2.3752">
        <ele>160.2</ele>
        <time>2019-06-16T06:29:32.000Z</time>
      </trkpt>
      <trkpt lat="43.18538" lon="2.37522">
        <ele>160.3</ele>
        <time>2019-06-16T06:29:33.000Z</time>
      </trkpt>
      <trkpt lat="43.1854" lon="2.37523">
        <ele>160.5</ele>
        <time>2019-06-16T06:29:34.000Z</time>
      </trkpt>
      <trkpt lat="43.18541" lon="2.37525">
        <ele>160.6</ele>
        <time>2019-06-16T06:29:35.000Z</time>
      </trkpt>
      <trkpt lat="43.18543" lon="2.37527">
        <ele>160.7</ele>
        <time>2019-06-16T06:29:36.000Z</time>
      </trkpt>
      <trkpt lat="43.18545" lon="2.37529">
        <ele>160.7</ele>
        <time>2019-06-16T06:29:37.000Z</time>
      </trkpt>
      <trkpt lat="43.18547" lon="2.37531">
        <ele>160.8</ele>
        <time>2019-06-16T06:29:38.000Z</time>
      </trkpt>
      <trkpt lat="43.18548" lon="2.37533">
        <ele>160.9</ele>
        <time>2019-06-16T06:29:39.000Z</time>
      </trkpt>
      <trkpt lat="43.1855" lon="2.37535">
        <ele>161</ele>
        <time>2019-06-16T06:29:40.000Z</time>
      </trkpt>
      <trkpt lat="43.18552" lon="2.37537">
        <ele>161</ele>
        <time>2019-06-16T06:29:41.000Z</time>
      </trkpt>
      <trkpt lat="43.18554" lon="2.37538">
        <ele>161.1</ele>
        <time>2019-06-16T06:29:42.000Z</time>
      </trkpt>
      <trkpt lat="43.18555" lon="2.3754">
        <ele>161.1</ele>
        <time>2019-06-16T06:29:43.000Z</time>
      </trkpt>
      <trkpt lat="43.18557" lon="2.37542">
        <ele>161.2</ele>
        <time>2019-06-16T06:29:44.000Z</time>
      </trkpt>
      <trkpt lat="43.18559" lon="2.37544">
        <ele>161.2</ele>
        <time>2019-06-16T06:29:45.000Z</time>
      </trkpt>
      <trkpt lat="43.18561" lon="2.37546">
        <ele>161.2</ele>
        <time>2019-06-16T06:29:46.000Z</time>
      </trkpt>
      <trkpt lat="43.18563" lon="2.37547">
        <ele>161.2</ele>
        <time>2019-06-16T06:29:47.000Z</time>
      </trkpt>
      <trkpt lat="43.18565" lon="2.37549">
        <ele>161.3</ele>
        <time>2019-06-16T06:29:48.000Z</time>
      </trkpt>
      <trkpt lat="43.18567" lon="2.37551">
        <ele>161.3</ele>
        <time>2019-06-16T06:29:49.000Z</time>
      </trkpt>
      <trkpt lat="43.18568" lon="2.37553">
        <ele>161.3</ele>
        <time>2019-06-16T06:29:50.000Z</time>
      </trkpt>
      <trkpt lat="43.1857" lon="2.37555">
        <ele>161.2</ele>
        <time>2019-06-16T06:29:51.000Z</time>
      </trkpt>
      <trkpt lat="43.18572" lon="2.37557">
        <ele>161.2</ele>
        <time>2019-06-16T06:29:52.000Z</time>
      </trkpt>
      <trkpt lat="43.18574" lon="2.37559">
        <ele>161.2</ele>
        <time>2019-06-16T06:29:53.000Z</time>
      </trkpt>
      <trkpt lat="43.18576" lon="2.37561">
        <ele>161.2</ele>
        <time>2019-06-16T06:29:54.000Z</time>
      </trkpt>
      <trkpt lat="43.18578" lon="2.37563">
        <ele>161.2</ele>
        <time>2019-06-16T06:29:55.000Z</time>
      </trkpt>
      <trkpt lat="43.18579" lon="2.37565">
        <ele>161.1</ele>
        <time>2019-06-16T06:29:56.000Z</time>
      </trkpt>
      <trkpt lat="43.18581" lon="2.37568">
        <ele>161.1</ele>
        <time>2019-06-16T06:29:57.000Z</time>
      </trkpt>
      <trkpt lat="43.18582" lon="2.3757">
        <ele>161</ele>
        <time>2019-06-16T06:29:58.000Z</time>
      </trkpt>
      <trkpt lat="43.18584" lon="2.37573">
        <ele>161</ele>
        <time>2019-06-16T06:29:59.000Z</time>
      </trkpt>
      <trkpt lat="43.18585" lon="2.37576">
        <ele>161.2</ele>
        <time>2019-06-16T06:30:00.000Z</time>
      </trkpt>
      <trkpt lat="43.18587" lon="2.37579">
        <ele>161.3</ele>
        <time>2019-06-16T06:30:01.000Z</time>
      </trkpt>
      <trkpt lat="43.18588" lon="2.37582">
        <ele>161.4</ele>
        <time>2019-06-16T06:30:02.000Z</time>
      </trkpt>
      <trkpt lat="43.18589" lon="2.37584">
        <ele>161.6</ele>
        <time>2019-06-16T06:30:03.000Z</time>
      </trkpt>
      <trkpt lat="43.1859" lon="2.37587">
        <ele>161.7</ele>
        <time>2019-06-16T06:30:04.000Z</time>
      </trkpt>
      <trkpt lat="43.18591" lon="2.3759">
        <ele>161.9</ele>
        <time>2019-06-16T06:30:05.000Z</time>
      </trkpt>
      <trkpt lat="43.18592" lon="2.37592">
        <ele>162</ele>
        <time>2019-06-16T06:30:06.000Z</time>
      </trkpt>
      <trkpt lat="43.18592" lon="2.37594">
        <ele>162.1</ele>
        <time>2019-06-16T06:30:07.000Z</time>
      </trkpt>
      <trkpt lat="43.18593" lon="2.37595">
        <ele>162.2</ele>
        <time>2019-06-16T06:30:08.000Z</time>
      </trkpt>
      <trkpt lat="43.18593" lon="2.37596">
        <ele>162.2</ele>
        <time>2019-06-16T06:30:09.000Z</time>
      </trkpt>
      <trkpt lat="43.18594" lon="2.37597">
        <ele>162.3</ele>
        <time>2019-06-16T06:30:10.000Z</time>
      </trkpt>
      <trkpt lat="43.18594" lon="2.37597">
        <ele>162.3</ele>
        <time>2019-06-16T06:30:11.000Z</time>
      </trkpt>
      <trkpt lat="43.18594" lon="2.37598">
        <ele>162.3</ele>
        <time>2019-06-16T06:30:12.000Z</time>
      </trkpt>
      <trkpt lat="43.18594" lon="2.37598">
        <ele>162.4</ele>
        <time>2019-06-16T06:30:13.000Z</time>
      </trkpt>
      <trkpt lat="43.18595" lon="2.37598">
        <ele>162.4</ele>
        <time>2019-06-16T06:30:14.000Z</time>
      </trkpt>
      <trkpt lat="43.18595" lon="2.37599">
        <ele>162.4</ele>
        <time>2019-06-16T06:30:15.000Z</time>
      </trkpt>
      <trkpt lat="43.18595" lon="2.37599">
        <ele>162.5</ele>
        <time>2019-06-16T06:30:16.000Z</time>
      </trkpt>
      <trkpt lat="43.18595" lon="2.376">
        <ele>162.5</ele>
        <time>2019-06-16T06:30:17.000Z</time>
      </trkpt>
      <trkpt lat="43.18595" lon="2.37601">
        <ele>162.5</ele>
        <time>2019-06-16T06:30:18.000Z</time>
      </trkpt>
      <trkpt lat="43.18596" lon="2.37602">
        <ele>162.6</ele>
        <time>2019-06-16T06:30:19.000Z</time>
      </trkpt>
      <trkpt lat="43.18596" lon="2.37604">
        <ele>162.6</ele>
        <time>2019-06-16T06:30:20.000Z</time>
      </trkpt>
      <trkpt lat="43.18596" lon="2.37605">
        <ele>162.6</ele>
        <time>2019-06-16T06:30:21.000Z</time>
      </trkpt>
      <trkpt lat="43.18596" lon="2.37607">
        <ele>162.7</ele>
        <time>2019-06-16T06:30:22.000Z</time>
      </trkpt>
      <trkpt lat="43.18596" lon="2.37607">
        <ele>162.7</ele>
        <time>2019-06-16T06:30:23.000Z</time>
      </trkpt>
      <trkpt lat="43.18596" lon="2.37608">
        <ele>162.7</ele>
        <time>2019-06-16T06:30:24.000Z</time>
      </trkpt>
      <trkpt lat="43.18596" lon="2.37608">
        <ele>162.7</ele>
        <time>2019-06-16T06:30:25.000Z</time>
      </trkpt>
      <trkpt lat="43.18596" lon="2.37609">
        <ele>162.7</ele>
        <time>2019-06-16T06:30:26.000Z</time>
      </trkpt>
      <trkpt lat="43.18596" lon="2.37609">
        <ele>162.7</ele>
        <time>2019-06-16T06:30:27.000Z</time>
      </trkpt>
      <trkpt lat="43.18596" lon="2.37609">
        <ele>162.7</ele>
        <time>2019-06-16T06:30:28.000Z</time>
      </trkpt>
      <trkpt lat="43.18596" lon="2.3761">
        <ele>162.7</ele>
        <time>2019-06-16T06:30:29.000Z</time>
      </trkpt>
      <trkpt lat="43.18595" lon="2.3761">
        <ele>162.7</ele>
        <time>2019-06-16T06:30:30.000Z</time>
      </trkpt>
      <trkpt lat="43.18595" lon="2.37611">
        <ele>162.7</ele>
        <time>2019-06-16T06:30:31.000Z</time>
      </trkpt>
      <trkpt lat="43.18595" lon="2.37612">
        <ele>162.7</ele>
        <time>2019-06-16T06:30:32.000Z</time>
      </trkpt>
      <trkpt lat="43.18595" lon="2.37613">
        <ele>162.7</ele>
        <time>2019-06-16T06:30:33.000Z</time>
      </trkpt>
      <trkpt lat="43.18594" lon="2.37614">
        <ele>162.7</ele>
        <time>2019-06-16T06:30:34.000Z</time>
      </trkpt>
      <trkpt lat="43.18594" lon="2.37616">
        <ele>162.7</ele>
        <time>2019-06-16T06:30:35.000Z</time>
      </trkpt>
      <trkpt lat="43.18594" lon="2.37617">
        <ele>162.7</ele>
        <time>2019-06-16T06:30:36.000Z</time>
      </trkpt>
      <trkpt lat="43.18593" lon="2.37618">
        <ele>162.7</ele>
        <time>2019-06-16T06:30:37.000Z</time>
      </trkpt>
      <trkpt lat="43.18592" lon="2.3762">
        <ele>162.6</ele>
        <time>2019-06-16T06:30:38.000Z</time>
      </trkpt>
      <trkpt lat="43.18592" lon="2.37621">
        <ele>162.6</ele>
        <time>2019-06-16T06:30:39.000Z</time>
      </trkpt>
      <trkpt lat="43.18591" lon="2.37622">
        <ele>162.6</ele>
        <time>2019-06-16T06:30:40.000Z</time>
      </trkpt>
      <trkpt lat="43.1859" lon="2.37622">
        <ele>162.5</ele>
        <time>2019-06-16T06:30:41.000Z</time>
      </trkpt>
      <trkpt lat="43.18589" lon="2.37623">
        <ele>162.5</ele>
        <time>2019-06-16T06:30:42.000Z</time>
      </trkpt>
      <trkpt lat="43.18589" lon="2.37624">
        <ele>162.4</ele>
        <time>2019-06-16T06:30:43.000Z</time>
      </trkpt>
      <trkpt lat="43.18588" lon="2.37625">
        <ele>162.4</ele>
        <time>2019-06-16T06:30:44.000Z</time>
      </trkpt>
      <trkpt lat="43.18587" lon="2.37626">
        <ele>162.3</ele>
        <time>2019-06-16T06:30:45.000Z</time>
      </trkpt>
      <trkpt lat="43.18587" lon="2.37627">
        <ele>162.3</ele>
        <time>2019-06-16T06:30:46.000Z</time>
      </trkpt>
      <trkpt lat="43.18587" lon="2.37628">
        <ele>162.3</ele>
        <time>2019-06-16T06:30:47.000Z</time>
      </trkpt>
      <trkpt lat="43.18586" lon="2.37629">
        <ele>162.4</ele>
        <time>2019-06-16T06:30:48.000Z</time>
      </trkpt>
      <trkpt lat="43.18586" lon="2.37631">
        <ele>162.4</ele>
        <time>2019-06-16T06:30:49.000Z</time>
      </trkpt>
      <trkpt lat="43.18586" lon="2.37632">
        <ele>162.4</ele>
        <time>2019-06-16T06:30:50.000Z</time>
      </trkpt>
      <trkpt lat="43.18586" lon="2.37634">
        <ele>162.5</ele>
        <time>2019-06-16T06:30:51.000Z</time>
      </trkpt>
      <trkpt lat="43.18586" lon="2.37636">
        <ele>162.5</ele>
        <time>2019-06-16T06:30:52.000Z</time>
      </trkpt>
      <trkpt lat="43.18586" lon="2.37638">
        <ele>162.5</ele>
        <time>2019-06-16T06:30:53.000Z</time>
      </trkpt>
      <trkpt lat="43.18586" lon="2.3764">
        <ele>162.6</ele>
        <time>2019-06-16T06:30:54.000Z</time>
      </trkpt>
      <trkpt lat="43.18586" lon="2.37643">
        <ele>162.6</ele>
        <time>2019-06-16T06:30:55.000Z</time>
      </trkpt>
      <trkpt lat="43.18586" lon="2.37646">
        <ele>162.7</ele>
        <time>2019-06-16T06:30:56.000Z</time>
      </trkpt>
      <trkpt lat="43.18585" lon="2.37648">
        <ele>162.7</ele>
        <time>2019-06-16T06:30:57.000Z</time>
      </trkpt>
      <trkpt lat="43.18585" lon="2.37651">
        <ele>162.7</ele>
        <time>2019-06-16T06:30:58.000Z</time>
      </trkpt>
      <trkpt lat="43.18584" lon="2.37654">
        <ele>162.8</ele>
        <time>2019-06-16T06:30:59.000Z</time>
      </trkpt>
      <trkpt lat="43.18584" lon="2.37657">
        <ele>162.8</ele>
        <time>2019-06-16T06:31:00.000Z</time>
      </trkpt>
      <trkpt lat="43.18584" lon="2.3766">
        <ele>162.9</ele>
        <time>2019-06-16T06:31:01.000Z</time>
      </trkpt>
      <trkpt lat="43.18583" lon="2.37663">
        <ele>162.9</ele>
        <time>2019-06-16T06:31:02.000Z</time>
      </trkpt>
      <trkpt lat="43.18583" lon="2.37666">
        <ele>163</ele>
        <time>2019-06-16T06:31:03.000Z</time>
      </trkpt>
      <trkpt lat="43.18583" lon="2.37669">
        <ele>163.1</ele>
        <time>2019-06-16T06:31:04.000Z</time>
      </trkpt>
      <trkpt lat="43.18583" lon="2.37672">
        <ele>163.2</ele>
        <time>2019-06-16T06:31:05.000Z</time>
      </trkpt>
      <trkpt lat="43.18583" lon="2.37676">
        <ele>163.3</ele>
        <time>2019-06-16T06:31:06.000Z</time>
      </trkpt>
      <trkpt lat="43.18583" lon="2.37679">
        <ele>163.5</ele>
        <time>2019-06-16T06:31:07.000Z</time>
      </trkpt>
      <trkpt lat="43.18583" lon="2.37682">
        <ele>163.6</ele>
        <time>2019-06-16T06:31:08.000Z</time>
      </trkpt>
      <trkpt lat="43.18583" lon="2.37685">
        <ele>163.7</ele>
        <time>2019-06-16T06:31:09.000Z</time>
      </trkpt>
      <trkpt lat="43.18583" lon="2.37689">
        <ele>163.8</ele>
        <time>2019-06-16T06:31:10.000Z</time>
      </trkpt>
      <trkpt lat="43.18583" lon="2.37692">
        <ele>163.9</ele>
        <time>2019-06-16T06:31:11.000Z</time>
      </trkpt>
      <trkpt lat="43.18583" lon="2.37696">
        <ele>164.1</ele>
        <time>2019-06-16T06:31:12.000Z</time>
      </trkpt>
      <trkpt lat="43.18583" lon="2.377">
        <ele>164.2</ele>
        <time>2019-06-16T06:31:13.000Z</time>
      </trkpt>
      <trkpt lat="43.18583" lon="2.37703">
        <ele>164.4</ele>
        <time>2019-06-16T06:31:14.000Z</time>
      </trkpt>
      <trkpt lat="43.18582" lon="2.37707">
        <ele>164.6</ele>
        <time>2019-06-16T06:31:15.000Z</time>
      </trkpt>
      <trkpt lat="43.18582" lon="2.3771">
        <ele>164.7</ele>
        <time>2019-06-16T06:31:16.000Z</time>
      </trkpt>
      <trkpt lat="43.18581" lon="2.37714">
        <ele>164.9</ele>
        <time>2019-06-16T06:31:17.000Z</time>
      </trkpt>
      <trkpt lat="43.18581" lon="2.37717">
        <ele>165.1</ele>
        <time>2019-06-16T06:31:18.000Z</time>
      </trkpt>
      <trkpt lat="43.1858" lon="2.37721">
        <ele>165.3</ele>
        <time>2019-06-16T06:31:19.000Z</time>
      </trkpt>
      <trkpt lat="43.18579" lon="2.37724">
        <ele>165.5</ele>
        <time>2019-06-16T06:31:20.000Z</time>
      </trkpt>
      <trkpt lat="43.18579" lon="2.37727">
        <ele>165.7</ele>
        <time>2019-06-16T06:31:21.000Z</time>
      </trkpt>
      <trkpt lat="43.18578" lon="2.3773">
        <ele>165.9</ele>
        <time>2019-06-16T06:31:22.000Z</time>
      </trkpt>
      <trkpt lat="43.18577" lon="2.37733">
        <ele>166.1</ele>
        <time>2019-06-16T06:31:23.000Z</time>
      </trkpt>
      <trkpt lat="43.18576" lon="2.37736">
        <ele>166.3</ele>
        <time>2019-06-16T06:31:24.000Z</time>
      </trkpt>
      <trkpt lat="43.18575" lon="2.37739">
        <ele>166.5</ele>
        <time>2019-06-16T06:31:25.000Z</time>
      </trkpt>
      <trkpt lat="43.18574" lon="2.37742">
        <ele>166.7</ele>
        <time>2019-06-16T06:31:26.000Z</time>
      </trkpt>
      <trkpt lat="43.18573" lon="2.37744">
        <ele>167</ele>
        <time>2019-06-16T06:31:27.000Z</time>
      </trkpt>
      <trkpt lat="43.18571" lon="2.37747">
        <ele>167.2</ele>
        <time>2019-06-16T06:31:28.000Z</time>
      </trkpt>
      <trkpt lat="43.1857" lon="2.3775">
        <ele>167.4</ele>
        <time>2019-06-16T06:31:29.000Z</time>
      </trkpt>
      <trkpt lat="43.18569" lon="2.37752">
        <ele>167.7</ele>
        <time>2019-06-16T06:31:30.000Z</time>
      </trkpt>
      <trkpt lat="43.18568" lon="2.37755">
        <ele>168</ele>
        <time>2019-06-16T06:31:31.000Z</time>
      </trkpt>
      <trkpt lat="43.18566" lon="2.37758">
        <ele>168.2</ele>
        <time>2019-06-16T06:31:32.000Z</time>
      </trkpt>
      <trkpt lat="43.18565" lon="2.3776">
        <ele>168.5</ele>
        <time>2019-06-16T06:31:33.000Z</time>
      </trkpt>
      <trkpt lat="43.18564" lon="2.37763">
        <ele>168.8</ele>
        <time>2019-06-16T06:31:34.000Z</time>
      </trkpt>
      <trkpt lat="43.18562" lon="2.37765">
        <ele>169</ele>
        <time>2019-06-16T06:31:35.000Z</time>
      </trkpt>
      <trkpt lat="43.18561" lon="2.37768">
        <ele>169.3</ele>
        <time>2019-06-16T06:31:36.000Z</time>
      </trkpt>
      <trkpt lat="43.1856" lon="2.3777">
        <ele>169.6</ele>
        <time>2019-06-16T06:31:37.000Z</time>
      </trkpt>
      <trkpt lat="43.18558" lon="2.37773">
        <ele>169.8</ele>
        <time>2019-06-16T06:31:38.000Z</time>
      </trkpt>
      <trkpt lat="43.18557" lon="2.37775">
        <ele>170.1</ele>
        <time>2019-06-16T06:31:39.000Z</time>
      </trkpt>
      <trkpt lat="43.18556" lon="2.37778">
        <ele>170.3</ele>
        <time>2019-06-16T06:31:40.000Z</time>
      </trkpt>
      <trkpt lat="43.18555" lon="2.37781">
        <ele>170.5</ele>
        <time>2019-06-16T06:31:41.000Z</time>
      </trkpt>
      <trkpt lat="43.18554" lon="2.37784">
        <ele>170.7</ele>
        <time>2019-06-16T06:31:42.000Z</time>
      </trkpt>
      <trkpt lat="43.18553" lon="2.37787">
        <ele>171</ele>
        <time>2019-06-16T06:31:43.000Z</time>
      </trkpt>
      <trkpt lat="43.18553" lon="2.3779">
        <ele>171.2</ele>
        <time>2019-06-16T06:31:44.000Z</time>
      </trkpt>
      <trkpt lat="43.18552" lon="2.37793">
        <ele>171.4</ele>
        <time>2019-06-16T06:31:45.000Z</time>
      </trkpt>
      <trkpt lat="43.18551" lon="2.37796">
        <ele>171.6</ele>
        <time>2019-06-16T06:31:46.000Z</time>
      </trkpt>
      <trkpt lat="43.18551" lon="2.37799">
        <ele>171.8</ele>
        <time>2019-06-16T06:31:47.000Z</time>
      </trkpt>
      <trkpt lat="43.1855" lon="2.37802">
        <ele>172</ele>
        <time>2019-06-16T06:31:48.000Z</time>
      </trkpt>
      <trkpt lat="43.1855" lon="2.37805">
        <ele>172.1</ele>
        <time>2019-06-16T06:31:49.000Z</time>
      </trkpt>
      <trkpt lat="43.18549" lon="2.37808">
        <ele>172.3</ele>
        <time>2019-06-16T06:31:50.000Z</time>
      </trkpt>
      <trkpt lat="43.18549" lon="2.37811">
        <ele>172.5</ele>
        <time>2019-06-16T06:31:51.000Z</time>
      </trkpt>
      <trkpt lat="43.18548" lon="2.37814">
        <ele>172.7</ele>
        <time>2019-06-16T06:31:52.000Z</time>
      </trkpt>
      <trkpt lat="43.18548" lon="2.37817">
        <ele>172.8</ele>
        <time>2019-06-16T06:31:53.000Z</time>
      </trkpt>
      <trkpt lat="43.18547" lon="2.37819">
        <ele>173</ele>
        <time>2019-06-16T06:31:54.000Z</time>
      </trkpt>
      <trkpt lat="43.18547" lon="2.37822">
        <ele>173.1</ele>
        <time>2019-06-16T06:31:55.000Z</time>
      </trkpt>
      <trkpt lat="43.18546" lon="2.37825">
        <ele>173.3</ele>
        <time>2019-06-16T06:31:56.000Z</time>
      </trkpt>
      <trkpt lat="43.18546" lon="2.37828">
        <ele>173.4</ele>
        <time>2019-06-16T06:31:57.000Z</time>
      </trkpt>
      <trkpt lat="43.18546" lon="2.3783">
        <ele>173.6</ele>
        <time>2019-06-16T06:31:58.000Z</time>
      </trkpt>
      <trkpt lat="43.18545" lon="2.37833">
        <ele>173.7</ele>
        <time>2019-06-16T06:31:59.000Z</time>
      </trkpt>
      <trkpt lat="43.18545" lon="2.37836">
        <ele>173.9</ele>
        <time>2019-06-16T06:32:00.000Z</time>
      </trkpt>
      <trkpt lat="43.18544" lon="2.37838">
        <ele>174</ele>
        <time>2019-06-16T06:32:01.000Z</time>
      </trkpt>
      <trkpt lat="43.18544" lon="2.37841">
        <ele>174.2</ele>
        <time>2019-06-16T06:32:02.000Z</time>
      </trkpt>
      <trkpt lat="43.18544" lon="2.37844">
        <ele>174.3</ele>
        <time>2019-06-16T06:32:03.000Z</time>
      </trkpt>
      <trkpt lat="43.18543" lon="2.37847">
        <ele>174.5</ele>
        <time>2019-06-16T06:32:04.000Z</time>
      </trkpt>
      <trkpt lat="43.18543" lon="2.37849">
        <ele>174.6</ele>
        <time>2019-06-16T06:32:05.000Z</time>
      </trkpt>
      <trkpt lat="43.18542" lon="2.37852">
        <ele>174.7</ele>
        <time>2019-06-16T06:32:06.000Z</time>
      </trkpt>
      <trkpt lat="43.18542" lon="2.37855">
        <ele>174.9</ele>
        <time>2019-06-16T06:32:07.000Z</time>
      </trkpt>
      <trkpt lat="43.18542" lon="2.37858">
        <ele>175</ele>
        <time>2019-06-16T06:32:08.000Z</time>
      </trkpt>
      <trkpt lat="43.18541" lon="2.37861">
        <ele>175.2</ele>
        <time>2019-06-16T06:32:09.000Z</time>
      </trkpt>
      <trkpt lat="43.18541" lon="2.37864">
        <ele>175.3</ele>
        <time>2019-06-16T06:32:10.000Z</time>
      </trkpt>
      <trkpt lat="43.18541" lon="2.37867">
        <ele>175.5</ele>
        <time>2019-06-16T06:32:11.000Z</time>
      </trkpt>
      <trkpt lat="43.1854" lon="2.3787">
        <ele>175.6</ele>
        <time>2019-06-16T06:32:12.000Z</time>
      </trkpt>
      <trkpt lat="43.1854" lon="2.37873">
        <ele>175.8</ele>
        <time>2019-06-16T06:32:13.000Z</time>
      </trkpt>
      <trkpt lat="43.1854" lon="2.37876">
        <ele>175.9</ele>
        <time>2019-06-16T06:32:14.000Z</time>
      </trkpt>
      <trkpt lat="43.18539" lon="2.37879">
        <ele>176.1</ele>
        <time>2019-06-16T06:32:15.000Z</time>
      </trkpt>
      <trkpt lat="43.18539" lon="2.37882">
        <ele>176.2</ele>
        <time>2019-06-16T06:32:16.000Z</time>
      </trkpt>
      <trkpt lat="43.18539" lon="2.37885">
        <ele>176.3</ele>
        <time>2019-06-16T06:32:17.000Z</time>
      </trkpt>
      <trkpt lat="43.18538" lon="2.37888">
        <ele>176.5</ele>
        <time>2019-06-16T06:32:18.000Z</time>
      </trkpt>
      <trkpt lat="43.18538" lon="2.37891">
        <ele>176.6</ele>
        <time>2019-06-16T06:32:19.000Z</time>
      </trkpt>
      <trkpt lat="43.18537" lon="2.37894">
        <ele>176.7</ele>
        <time>2019-06-16T06:32:20.000Z</time>
      </trkpt>
      <trkpt lat="43.18537" lon="2.37897">
        <ele>176.9</ele>
        <time>2019-06-16T06:32:21.000Z</time>
      </trkpt>
      <trkpt lat="43.18536" lon="2.37899">
        <ele>177</ele>
        <time>2019-06-16T06:32:22.000Z</time>
      </trkpt>
      <trkpt lat="43.18536" lon="2.37902">
        <ele>177.1</ele>
        <time>2019-06-16T06:32:23.000Z</time>
      </trkpt>
      <trkpt lat="43.18536" lon="2.37905">
        <ele>177.3</ele>
        <time>2019-06-16T06:32:24.000Z</time>
      </trkpt>
      <trkpt lat="43.18535" lon="2.37907">
        <ele>177.4</ele>
        <time>2019-06-16T06:32:25.000Z</time>
      </trkpt>
      <trkpt lat="43.18535" lon="2.3791">
        <ele>177.5</ele>
        <time>2019-06-16T06:32:26.000Z</time>
      </trkpt>
      <trkpt lat="43.18534" lon="2.37913">
        <ele>177.6</ele>
        <time>2019-06-16T06:32:27.000Z</time>
      </trkpt>
      <trkpt lat="43.18534" lon="2.37916">
        <ele>177.7</ele>
        <time>2019-06-16T06:32:28.000Z</time>
      </trkpt>
      <trkpt lat="43.18534" lon="2.37918">
        <ele>177.9</ele>
        <time>2019-06-16T06:32:29.000Z</time>
      </trkpt>
      <trkpt lat="43.18533" lon="2.37921">
        <ele>178.1</ele>
        <time>2019-06-16T06:32:30.000Z</time>
      </trkpt>
      <trkpt lat="43.18533" lon="2.37924">
        <ele>178.2</ele>
        <time>2019-06-16T06:32:31.000Z</time>
      </trkpt>
      <trkpt lat="43.18533" lon="2.37927">
        <ele>178.4</ele>
        <time>2019-06-16T06:32:32.000Z</time>
      </trkpt>
      <trkpt lat="43.18533" lon="2.3793">
        <ele>178.6</ele>
        <time>2019-06-16T06:32:33.000Z</time>
      </trkpt>
      <trkpt lat="43.18533" lon="2.37933">
        <ele>178.8</ele>
        <time>2019-06-16T06:32:34.000Z</time>
      </trkpt>
      <trkpt lat="43.18532" lon="2.37936">
        <ele>179</ele>
        <time>2019-06-16T06:32:35.000Z</time>
      </trkpt>
      <trkpt lat="43.18532" lon="2.37939">
        <ele>179.1</ele>
        <time>2019-06-16T06:32:36.000Z</time>
      </trkpt>
      <trkpt lat="43.18532" lon="2.37942">
        <ele>179.3</ele>
        <time>2019-06-16T06:32:37.000Z</time>
      </trkpt>
      <trkpt lat="43.18531" lon="2.37945">
        <ele>179.5</ele>
        <time>2019-06-16T06:32:38.000Z</time>
      </trkpt>
      <trkpt lat="43.18531" lon="2.37948">
        <ele>179.7</ele>
        <time>2019-06-16T06:32:39.000Z</time>
      </trkpt>
      <trkpt lat="43.1853" lon="2.37951">
        <ele>179.8</ele>
        <time>2019-06-16T06:32:40.000Z</time>
      </trkpt>
      <trkpt lat="43.1853" lon="2.37953">
        <ele>180</ele>
        <time>2019-06-16T06:32:41.000Z</time>
      </trkpt>
      <trkpt lat="43.1853" lon="2.37956">
        <ele>180.2</ele>
        <time>2019-06-16T06:32:42.000Z</time>
      </trkpt>
      <trkpt lat="43.18529" lon="2.37959">
        <ele>180.3</ele>
        <time>2019-06-16T06:32:43.000Z</time>
      </trkpt>
      <trkpt lat="43.18529" lon="2.37962">
        <ele>180.5</ele>
        <time>2019-06-16T06:32:44.000Z</time>
      </trkpt>
      <trkpt lat="43.18529" lon="2.37965">
        <ele>180.7</ele>
        <time>2019-06-16T06:32:45.000Z</time>
      </trkpt>
      <trkpt lat="43.18529" lon="2.37968">
        <ele>180.8</ele>
        <time>2019-06-16T06:32:46.000Z</time>
      </trkpt>
      <trkpt lat="43.18529" lon="2.37971">
        <ele>181</ele>
        <time>2019-06-16T06:32:47.000Z</time>
      </trkpt>
      <trkpt lat="43.18529" lon="2.37973">
        <ele>181.2</ele>
        <time>2019-06-16T06:32:48.000Z</time>
      </trkpt>
      <trkpt lat="43.18529" lon="2.37976">
        <ele>181.3</ele>
        <time>2019-06-16T06:32:49.000Z</time>
      </trkpt>
      <trkpt lat="43.18529" lon="2.37979">
        <ele>181.5</ele>
        <time>2019-06-16T06:32:50.000Z</time>
      </trkpt>
      <trkpt lat="43.18529" lon="2.37982">
        <ele>181.6</ele>
        <time>2019-06-16T06:32:51.000Z</time>
      </trkpt>
      <trkpt lat="43.18529" lon="2.37985">
        <ele>181.8</ele>
        <time>2019-06-16T06:32:52.000Z</time>
      </trkpt>
      <trkpt lat="43.18529" lon="2.37988">
        <ele>182</ele>
        <time>2019-06-16T06:32:53.000Z</time>
      </trkpt>
      <trkpt lat="43.18529" lon="2.37991">
        <ele>182.1</ele>
        <time>2019-06-16T06:32:54.000Z</time>
      </trkpt>
      <trkpt lat="43.18529" lon="2.37993">
        <ele>182.3</ele>
        <time>2019-06-16T06:32:55.000Z</time>
      </trkpt>
      <trkpt lat="43.18528" lon="2.37996">
        <ele>182.4</ele>
        <time>2019-06-16T06:32:56.000Z</time>
      </trkpt>
      <trkpt lat="43.18528" lon="2.37999">
        <ele>182.6</ele>
        <time>2019-06-16T06:32:57.000Z</time>
      </trkpt>
      <trkpt lat="43.18528" lon="2.38002">
        <ele>182.7</ele>
        <time>2019-06-16T06:32:58.000Z</time>
      </trkpt>
      <trkpt lat="43.18527" lon="2.38004">
        <ele>182.8</ele>
        <time>2019-06-16T06:32:59.000Z</time>
      </trkpt>
      <trkpt lat="43.18527" lon="2.38007">
        <ele>182.9</ele>
        <time>2019-06-16T06:33:00.000Z</time>
      </trkpt>
      <trkpt lat="43.18526" lon="2.3801">
        <ele>183</ele>
        <time>2019-06-16T06:33:01.000Z</time>
      </trkpt>
      <trkpt lat="43.18526" lon="2.38013">
        <ele>183.1</ele>
        <time>2019-06-16T06:33:02.000Z</time>
      </trkpt>
      <trkpt lat="43.18525" lon="2.38015">
        <ele>183.2</ele>
        <time>2019-06-16T06:33:03.000Z</time>
      </trkpt>
      <trkpt lat="43.18525" lon="2.38018">
        <ele>183.3</ele>
        <time>2019-06-16T06:33:04.000Z</time>
      </trkpt>
      <trkpt lat="43.18524" lon="2.3802">
        <ele>183.4</ele>
        <time>2019-06-16T06:33:05.000Z</time>
      </trkpt>
      <trkpt lat="43.18524" lon="2.38023">
        <ele>183.5</ele>
        <time>2019-06-16T06:33:06.000Z</time>
      </trkpt>
      <trkpt lat="43.18523" lon="2.38026">
        <ele>183.5</ele>
        <time>2019-06-16T06:33:07.000Z</time>
      </trkpt>
      <trkpt lat="43.18523" lon="2.38028">
        <ele>183.6</ele>
        <time>2019-06-16T06:33:08.000Z</time>
      </trkpt>
      <trkpt lat="43.18522" lon="2.38031">
        <ele>183.7</ele>
        <time>2019-06-16T06:33:09.000Z</time>
      </trkpt>
      <trkpt lat="43.18521" lon="2.38033">
        <ele>183.7</ele>
        <time>2019-06-16T06:33:10.000Z</time>
      </trkpt>
      <trkpt lat="43.18521" lon="2.38035">
        <ele>183.8</ele>
        <time>2019-06-16T06:33:11.000Z</time>
      </trkpt>
      <trkpt lat="43.1852" lon="2.38038">
        <ele>183.9</ele>
        <time>2019-06-16T06:33:12.000Z</time>
      </trkpt>
      <trkpt lat="43.1852" lon="2.3804">
        <ele>183.9</ele>
        <time>2019-06-16T06:33:13.000Z</time>
      </trkpt>
      <trkpt lat="43.18519" lon="2.38043">
        <ele>184</ele>
        <time>2019-06-16T06:33:14.000Z</time>
      </trkpt>
      <trkpt lat="43.18518" lon="2.38046">
        <ele>184</ele>
        <time>2019-06-16T06:33:15.000Z</time>
      </trkpt>
      <trkpt lat="43.18518" lon="2.38048">
        <ele>184.1</ele>
        <time>2019-06-16T06:33:16.000Z</time>
      </trkpt>
      <trkpt lat="43.18517" lon="2.38051">
        <ele>184.2</ele>
        <time>2019-06-16T06:33:17.000Z</time>
      </trkpt>
      <trkpt lat="43.18516" lon="2.38054">
        <ele>184.2</ele>
        <time>2019-06-16T06:33:18.000Z</time>
      </trkpt>
      <trkpt lat="43.18515" lon="2.38057">
        <ele>184.3</ele>
        <time>2019-06-16T06:33:19.000Z</time>
      </trkpt>
      <trkpt lat="43.18515" lon="2.3806">
        <ele>184.3</ele>
        <time>2019-06-16T06:33:20.000Z</time>
      </trkpt>
      <trkpt lat="43.18514" lon="2.38063">
        <ele>184.3</ele>
        <time>2019-06-16T06:33:21.000Z</time>
      </trkpt>
      <trkpt lat="43.18513" lon="2.38066">
        <ele>184.4</ele>
        <time>2019-06-16T06:33:22.000Z</time>
      </trkpt>
      <trkpt lat="43.18512" lon="2.38069">
        <ele>184.4</ele>
        <time>2019-06-16T06:33:23.000Z</time>
      </trkpt>
      <trkpt lat="43.18512" lon="2.38071">
        <ele>184.4</ele>
        <time>2019-06-16T06:33:24.000Z</time>
      </trkpt>
      <trkpt lat="43.18511" lon="2.38074">
        <ele>184.5</ele>
        <time>2019-06-16T06:33:25.000Z</time>
      </trkpt>
      <trkpt lat="43.18511" lon="2.38077">
        <ele>184.5</ele>
        <time>2019-06-16T06:33:26.000Z</time>
      </trkpt>
      <trkpt lat="43.1851" lon="2.38079">
        <ele>184.5</ele>
        <time>2019-06-16T06:33:27.000Z</time>
      </trkpt>
      <trkpt lat="43.1851" lon="2.38082">
        <ele>184.5</ele>
        <time>2019-06-16T06:33:28.000Z</time>
      </trkpt>
      <trkpt lat="43.18509" lon="2.38084">
        <ele>184.6</ele>
        <time>2019-06-16T06:33:29.000Z</time>
      </trkpt>
      <trkpt lat="43.18508" lon="2.38087">
        <ele>184.6</ele>
        <time>2019-06-16T06:33:30.000Z</time>
      </trkpt>
      <trkpt lat="43.18508" lon="2.38089">
        <ele>184.6</ele>
        <time>2019-06-16T06:33:31.000Z</time>
      </trkpt>
      <trkpt lat="43.18507" lon="2.38092">
        <ele>184.5</ele>
        <time>2019-06-16T06:33:32.000Z</time>
      </trkpt>
      <trkpt lat="43.18506" lon="2.38094">
        <ele>184.5</ele>
        <time>2019-06-16T06:33:33.000Z</time>
      </trkpt>
      <trkpt lat="43.18505" lon="2.38097">
        <ele>184.5</ele>
        <time>2019-06-16T06:33:34.000Z</time>
      </trkpt>
      <trkpt lat="43.18504" lon="2.38099">
        <ele>184.5</ele>
        <time>2019-06-16T06:33:35.000Z</time>
      </trkpt>
      <trkpt lat="43.18504" lon="2.38102">
        <ele>184.5</ele>
        <time>2019-06-16T06:33:36.000Z</time>
      </trkpt>
      <trkpt lat="43.18503" lon="2.38105">
        <ele>184.5</ele>
        <time>2019-06-16T06:33:37.000Z</time>
      </trkpt>
      <trkpt lat="43.18503" lon="2.38107">
        <ele>184.5</ele>
        <time>2019-06-16T06:33:38.000Z</time>
      </trkpt>
      <trkpt lat="43.18503" lon="2.3811">
        <ele>184.5</ele>
        <time>2019-06-16T06:33:39.000Z</time>
      </trkpt>
      <trkpt lat="43.18503" lon="2.38113">
        <ele>184.6</ele>
        <time>2019-06-16T06:33:40.000Z</time>
      </trkpt>
      <trkpt lat="43.18503" lon="2.38116">
        <ele>184.7</ele>
        <time>2019-06-16T06:33:41.000Z</time>
      </trkpt>
      <trkpt lat="43.18504" lon="2.38119">
        <ele>184.8</ele>
        <time>2019-06-16T06:33:42.000Z</time>
      </trkpt>
      <trkpt lat="43.18505" lon="2.38122">
        <ele>184.9</ele>
        <time>2019-06-16T06:33:43.000Z</time>
      </trkpt>
      <trkpt lat="43.18505" lon="2.38125">
        <ele>185</ele>
        <time>2019-06-16T06:33:44.000Z</time>
      </trkpt>
      <trkpt lat="43.18506" lon="2.38128">
        <ele>185.1</ele>
        <time>2019-06-16T06:33:45.000Z</time>
      </trkpt>
      <trkpt lat="43.18507" lon="2.3813">
        <ele>185.2</ele>
        <time>2019-06-16T06:33:46.000Z</time>
      </trkpt>
      <trkpt lat="43.18508" lon="2.38133">
        <ele>185.3</ele>
        <time>2019-06-16T06:33:47.000Z</time>
      </trkpt>
      <trkpt lat="43.18508" lon="2.38136">
        <ele>185.5</ele>
        <time>2019-06-16T06:33:48.000Z</time>
      </trkpt>
      <trkpt lat="43.18509" lon="2.3814">
        <ele>185.6</ele>
        <time>2019-06-16T06:33:49.000Z</time>
      </trkpt>
      <trkpt lat="43.1851" lon="2.38143">
        <ele>185.7</ele>
        <time>2019-06-16T06:33:50.000Z</time>
      </trkpt>
      <trkpt lat="43.1851" lon="2.38146">
        <ele>185.8</ele>
        <time>2019-06-16T06:33:51.000Z</time>
      </trkpt>
      <trkpt lat="43.18511" lon="2.38148">
        <ele>186</ele>
        <time>2019-06-16T06:33:52.000Z</time>
      </trkpt>
      <trkpt lat="43.18513" lon="2.38151">
        <ele>186.2</ele>
        <time>2019-06-16T06:33:53.000Z</time>
      </trkpt>
      <trkpt lat="43.18514" lon="2.38153">
        <ele>186.4</ele>
        <time>2019-06-16T06:33:54.000Z</time>
      </trkpt>
      <trkpt lat="43.18516" lon="2.38154">
        <ele>186.6</ele>
        <time>2019-06-16T06:33:55.000Z</time>
      </trkpt>
      <trkpt lat="43.18518" lon="2.38156">
        <ele>186.9</ele>
        <time>2019-06-16T06:33:56.000Z</time>
      </trkpt>
      <trkpt lat="43.1852" lon="2.38157">
        <ele>187.1</ele>
        <time>2019-06-16T06:33:57.000Z</time>
      </trkpt>
      <trkpt lat="43.18522" lon="2.38158">
        <ele>187.4</ele>
        <time>2019-06-16T06:33:58.000Z</time>
      </trkpt>
      <trkpt lat="43.18524" lon="2.38158">
        <ele>187.7</ele>
        <time>2019-06-16T06:33:59.000Z</time>
      </trkpt>
      <trkpt lat="43.18527" lon="2.38159">
        <ele>188</ele>
        <time>2019-06-16T06:34:00.000Z</time>
      </trkpt>
      <trkpt lat="43.18529" lon="2.38159">
        <ele>188.2</ele>
        <time>2019-06-16T06:34:01.000Z</time>
      </trkpt>
      <trkpt lat="43.18532" lon="2.38159">
        <ele>188.5</ele>
        <time>2019-06-16T06:34:02.000Z</time>
      </trkpt>
      <trkpt lat="43.18534" lon="2.38159">
        <ele>188.8</ele>
        <time>2019-06-16T06:34:03.000Z</time>
      </trkpt>
      <trkpt lat="43.18536" lon="2.38159">
        <ele>189</ele>
        <time>2019-06-16T06:34:04.000Z</time>
      </trkpt>
      <trkpt lat="43.18538" lon="2.38158">
        <ele>189.2</ele>
        <time>2019-06-16T06:34:05.000Z</time>
      </trkpt>
      <trkpt lat="43.1854" lon="2.38158">
        <ele>189.5</ele>
        <time>2019-06-16T06:34:06.000Z</time>
      </trkpt>
      <trkpt lat="43.18542" lon="2.38158">
        <ele>189.7</ele>
        <time>2019-06-16T06:34:07.000Z</time>
      </trkpt>
      <trkpt lat="43.18544" lon="2.38157">
        <ele>189.8</ele>
        <time>2019-06-16T06:34:08.000Z</time>
      </trkpt>
      <trkpt lat="43.18546" lon="2.38156">
        <ele>190</ele>
        <time>2019-06-16T06:34:09.000Z</time>
      </trkpt>
      <trkpt lat="43.18547" lon="2.38155">
        <ele>190.2</ele>
        <time>2019-06-16T06:34:10.000Z</time>
      </trkpt>
      <trkpt lat="43.18549" lon="2.38155">
        <ele>190.3</ele>
        <time>2019-06-16T06:34:11.000Z</time>
      </trkpt>
      <trkpt lat="43.18551" lon="2.38154">
        <ele>190.4</ele>
        <time>2019-06-16T06:34:12.000Z</time>
      </trkpt>
      <trkpt lat="43.18552" lon="2.38153">
        <ele>190.6</ele>
        <time>2019-06-16T06:34:13.000Z</time>
      </trkpt>
      <trkpt lat="43.18554" lon="2.38151">
        <ele>190.7</ele>
        <time>2019-06-16T06:34:14.000Z</time>
      </trkpt>
      <trkpt lat="43.18555" lon="2.3815">
        <ele>190.8</ele>
        <time>2019-06-16T06:34:15.000Z</time>
      </trkpt>
      <trkpt lat="43.18557" lon="2.38149">
        <ele>190.9</ele>
        <time>2019-06-16T06:34:16.000Z</time>
      </trkpt>
      <trkpt lat="43.18559" lon="2.38148">
        <ele>191</ele>
        <time>2019-06-16T06:34:17.000Z</time>
      </trkpt>
      <trkpt lat="43.1856" lon="2.38147">
        <ele>191.1</ele>
        <time>2019-06-16T06:34:18.000Z</time>
      </trkpt>
      <trkpt lat="43.18562" lon="2.38146">
        <ele>191.2</ele>
        <time>2019-06-16T06:34:19.000Z</time>
      </trkpt>
      <trkpt lat="43.18563" lon="2.38145">
        <ele>191.3</ele>
        <time>2019-06-16T06:34:20.000Z</time>
      </trkpt>
      <trkpt lat="43.18565" lon="2.38145">
        <ele>191.4</ele>
        <time>2019-06-16T06:34:21.000Z</time>
      </trkpt>
      <trkpt lat="43.18566" lon="2.38144">
        <ele>191.6</ele>
        <time>2019-06-16T06:34:22.000Z</time>
      </trkpt>
      <trkpt lat="43.18567" lon="2.38143">
        <ele>191.7</ele>
        <time>2019-06-16T06:34:23.000Z</time>
      </trkpt>
      <trkpt lat="43.18569" lon="2.38143">
        <ele>191.8</ele>
        <time>2019-06-16T06:34:24.000Z</time>
      </trkpt>
      <trkpt lat="43.1857" lon="2.38143">
        <ele>191.9</ele>
        <time>2019-06-16T06:34:25.000Z</time>
      </trkpt>
      <trkpt lat="43.18571" lon="2.38143">
        <ele>192.1</ele>
        <time>2019-06-16T06:34:26.000Z</time>
      </trkpt>
      <trkpt lat="43.18573" lon="2.38144">
        <ele>192.2</ele>
        <time>2019-06-16T06:34:27.000Z</time>
      </trkpt>
      <trkpt lat="43.18574" lon="2.38144">
        <ele>192.4</ele>
        <time>2019-06-16T06:34:28.000Z</time>
      </trkpt>
      <trkpt lat="43.18575" lon="2.38145">
        <ele>192.6</ele>
        <time>2019-06-16T06:34:29.000Z</time>
      </trkpt>
      <trkpt lat="43.18576" lon="2.38146">
        <ele>192.8</ele>
        <time>2019-06-16T06:34:30.000Z</time>
      </trkpt>
      <trkpt lat="43.18578" lon="2.38147">
        <ele>193</ele>
        <time>2019-06-16T06:34:31.000Z</time>
      </trkpt>
      <trkpt lat="43.18579" lon="2.38149">
        <ele>193.2</ele>
        <time>2019-06-16T06:34:32.000Z</time>
      </trkpt>
      <trkpt lat="43.1858" lon="2.3815">
        <ele>193.4</ele>
        <time>2019-06-16T06:34:33.000Z</time>
      </trkpt>
      <trkpt lat="43.18581" lon="2.38151">
        <ele>193.6</ele>
        <time>2019-06-16T06:34:34.000Z</time>
      </trkpt>
      <trkpt lat="43.18582" lon="2.38153">
        <ele>193.9</ele>
        <time>2019-06-16T06:34:35.000Z</time>
      </trkpt>
      <trkpt lat="43.18583" lon="2.38154">
        <ele>194.1</ele>
        <time>2019-06-16T06:34:36.000Z</time>
      </trkpt>
      <trkpt lat="43.18584" lon="2.38156">
        <ele>194.2</ele>
        <time>2019-06-16T06:34:37.000Z</time>
      </trkpt>
      <trkpt lat="43.18585" lon="2.38157">
        <ele>194.4</ele>
        <time>2019-06-16T06:34:38.000Z</time>
      </trkpt>
      <trkpt lat="43.18586" lon="2.38159">
        <ele>194.5</ele>
        <time>2019-06-16T06:34:39.000Z</time>
      </trkpt>
      <trkpt lat="43.18587" lon="2.3816">
        <ele>194.6</ele>
        <time>2019-06-16T06:34:40.000Z</time>
      </trkpt>
      <trkpt lat="43.18588" lon="2.38162">
        <ele>194.8</ele>
        <time>2019-06-16T06:34:41.000Z</time>
      </trkpt>
      <trkpt lat="43.18589" lon="2.38163">
        <ele>194.9</ele>
        <time>2019-06-16T06:34:42.000Z</time>
      </trkpt>
      <trkpt lat="43.1859" lon="2.38165">
        <ele>195</ele>
        <time>2019-06-16T06:34:43.000Z</time>
      </trkpt>
      <trkpt lat="43.1859" lon="2.38167">
        <ele>195.2</ele>
        <time>2019-06-16T06:34:44.000Z</time>
      </trkpt>
      <trkpt lat="43.18591" lon="2.38168">
        <ele>195.3</ele>
        <time>2019-06-16T06:34:45.000Z</time>
      </trkpt>
      <trkpt lat="43.18592" lon="2.3817">
        <ele>195.4</ele>
        <time>2019-06-16T06:34:46.000Z</time>
      </trkpt>
      <trkpt lat="43.18592" lon="2.38172">
        <ele>195.5</ele>
        <time>2019-06-16T06:34:47.000Z</time>
      </trkpt>
      <trkpt lat="43.18593" lon="2.38173">
        <ele>195.6</ele>
        <time>2019-06-16T06:34:48.000Z</time>
      </trkpt>
      <trkpt lat="43.18593" lon="2.38175">
        <ele>195.7</ele>
        <time>2019-06-16T06:34:49.000Z</time>
      </trkpt>
      <trkpt lat="43.18594" lon="2.38177">
        <ele>195.9</ele>
        <time>2019-06-16T06:34:50.000Z</time>
      </trkpt>
      <trkpt lat="43.18594" lon="2.38179">
        <ele>196</ele>
        <time>2019-06-16T06:34:51.000Z</time>
      </trkpt>
      <trkpt lat="43.18595" lon="2.38181">
        <ele>196.1</ele>
        <time>2019-06-16T06:34:52.000Z</time>
      </trkpt>
      <trkpt lat="43.18595" lon="2.38183">
        <ele>196.2</ele>
        <time>2019-06-16T06:34:53.000Z</time>
      </trkpt>
      <trkpt lat="43.18595" lon="2.38185">
        <ele>196.3</ele>
        <time>2019-06-16T06:34:54.000Z</time>
      </trkpt>
      <trkpt lat="43.18595" lon="2.38187">
        <ele>196.4</ele>
        <time>2019-06-16T06:34:55.000Z</time>
      </trkpt>
      <trkpt lat="43.18595" lon="2.38189">
        <ele>196.6</ele>
        <time>2019-06-16T06:34:56.000Z</time>
      </trkpt>
      <trkpt lat="43.18595" lon="2.38191">
        <ele>196.7</ele>
        <time>2019-06-16T06:34:57.000Z</time>
      </trkpt>
      <trkpt lat="43.18594" lon="2.38193">
        <ele>196.8</ele>
        <time>2019-06-16T06:34:58.000Z</time>
      </trkpt>
      <trkpt lat="43.18594" lon="2.38195">
        <ele>196.9</ele>
        <time>2019-06-16T06:34:59.000Z</time>
      </trkpt>
      <trkpt lat="43.18594" lon="2.38197">
        <ele>197</ele>
        <time>2019-06-16T06:35:00.000Z</time>
      </trkpt>
      <trkpt lat="43.18593" lon="2.38199">
        <ele>197.2</ele>
        <time>2019-06-16T06:35:01.000Z</time>
      </trkpt>
      <trkpt lat="43.18593" lon="2.38201">
        <ele>197.3</ele>
        <time>2019-06-16T06:35:02.000Z</time>
      </trkpt>
      <trkpt lat="43.18593" lon="2.38203">
        <ele>197.4</ele>
        <time>2019-06-16T06:35:03.000Z</time>
      </trkpt>
      <trkpt lat="43.18593" lon="2.38205">
        <ele>197.5</ele>
        <time>2019-06-16T06:35:04.000Z</time>
      </trkpt>
      <trkpt lat="43.18594" lon="2.38207">
        <ele>197.6</ele>
        <time>2019-06-16T06:35:05.000Z</time>
      </trkpt>
      <trkpt lat="43.18595" lon="2.38208">
        <ele>197.7</ele>
        <time>2019-06-16T06:35:06.000Z</time>
      </trkpt>
      <trkpt lat="43.18596" lon="2.3821">
        <ele>197.8</ele>
        <time>2019-06-16T06:35:07.000Z</time>
      </trkpt>
      <trkpt lat="43.18597" lon="2.38211">
        <ele>197.9</ele>
        <time>2019-06-16T06:35:08.000Z</time>
      </trkpt>
      <trkpt lat="43.18598" lon="2.38213">
        <ele>198</ele>
        <time>2019-06-16T06:35:09.000Z</time>
      </trkpt>
      <trkpt lat="43.18599" lon="2.38214">
        <ele>198.1</ele>
        <time>2019-06-16T06:35:10.000Z</time>
      </trkpt>
      <trkpt lat="43.186" lon="2.38217">
        <ele>198.3</ele>
        <time>2019-06-16T06:35:11.000Z</time>
      </trkpt>
      <trkpt lat="43.18601" lon="2.38219">
        <ele>198.4</ele>
        <time>2019-06-16T06:35:12.000Z</time>
      </trkpt>
      <trkpt lat="43.18602" lon="2.38221">
        <ele>198.6</ele>
        <time>2019-06-16T06:35:13.000Z</time>
      </trkpt>
      <trkpt lat="43.18603" lon="2.38223">
        <ele>198.7</ele>
        <time>2019-06-16T06:35:14.000Z</time>
      </trkpt>
      <trkpt lat="43.18604" lon="2.38225">
        <ele>198.8</ele>
        <time>2019-06-16T06:35:15.000Z</time>
      </trkpt>
      <trkpt lat="43.18605" lon="2.38227">
        <ele>198.9</ele>
        <time>2019-06-16T06:35:16.000Z</time>
      </trkpt>
      <trkpt lat="43.18606" lon="2.38228">
        <ele>199</ele>
        <time>2019-06-16T06:35:17.000Z</time>
      </trkpt>
      <trkpt lat="43.18606" lon="2.38229">
        <ele>199.1</ele>
        <time>2019-06-16T06:35:18.000Z</time>
      </trkpt>
      <trkpt lat="43.18607" lon="2.38231">
        <ele>199.2</ele>
        <time>2019-06-16T06:35:19.000Z</time>
      </trkpt>
      <trkpt lat="43.18608" lon="2.38233">
        <ele>199.3</ele>
        <time>2019-06-16T06:35:20.000Z</time>
      </trkpt>
      <trkpt lat="43.18609" lon="2.38234">
        <ele>199.4</ele>
        <time>2019-06-16T06:35:21.000Z</time>
      </trkpt>
      <trkpt lat="43.18609" lon="2.38236">
        <ele>199.5</ele>
        <time>2019-06-16T06:35:22.000Z</time>
      </trkpt>
      <trkpt lat="43.1861" lon="2.38238">
        <ele>199.7</ele>
        <time>2019-06-16T06:35:23.000Z</time>
      </trkpt>
      <trkpt lat="43.18611" lon="2.38241">
        <ele>199.8</ele>
        <time>2019-06-16T06:35:24.000Z</time>
      </trkpt>
      <trkpt lat="43.18611" lon="2.38243">
        <ele>199.9</ele>
        <time>2019-06-16T06:35:25.000Z</time>
      </trkpt>
      <trkpt lat="43.18612" lon="2.38245">
        <ele>200.1</ele>
        <time>2019-06-16T06:35:26.000Z</time>
      </trkpt>
      <trkpt lat="43.18613" lon="2.38248">
        <ele>200.2</ele>
        <time>2019-06-16T06:35:27.000Z</time>
      </trkpt>
      <trkpt lat="43.18613" lon="2.3825">
        <ele>200.4</ele>
        <time>2019-06-16T06:35:28.000Z</time>
      </trkpt>
      <trkpt lat="43.18614" lon="2.38252">
        <ele>200.4</ele>
        <time>2019-06-16T06:35:29.000Z</time>
      </trkpt>
      <trkpt lat="43.18615" lon="2.38255">
        <ele>200.5</ele>
        <time>2019-06-16T06:35:30.000Z</time>
      </trkpt>
      <trkpt lat="43.18616" lon="2.38257">
        <ele>200.5</ele>
        <time>2019-06-16T06:35:31.000Z</time>
      </trkpt>
      <trkpt lat="43.18617" lon="2.38259">
        <ele>200.6</ele>
        <time>2019-06-16T06:35:32.000Z</time>
      </trkpt>
      <trkpt lat="43.18618" lon="2.38262">
        <ele>200.7</ele>
        <time>2019-06-16T06:35:33.000Z</time>
      </trkpt>
      <trkpt lat="43.18619" lon="2.38264">
        <ele>200.7</ele>
        <time>2019-06-16T06:35:34.000Z</time>
      </trkpt>
      <trkpt lat="43.1862" lon="2.38266">
        <ele>200.8</ele>
        <time>2019-06-16T06:35:35.000Z</time>
      </trkpt>
      <trkpt lat="43.18621" lon="2.38269">
        <ele>200.9</ele>
        <time>2019-06-16T06:35:36.000Z</time>
      </trkpt>
      <trkpt lat="43.18622" lon="2.38271">
        <ele>200.9</ele>
        <time>2019-06-16T06:35:37.000Z</time>
      </trkpt>
      <trkpt lat="43.18623" lon="2.38273">
        <ele>201</ele>
        <time>2019-06-16T06:35:38.000Z</time>
      </trkpt>
      <trkpt lat="43.18623" lon="2.38275">
        <ele>201.1</ele>
        <time>2019-06-16T06:35:39.000Z</time>
      </trkpt>
      <trkpt lat="43.18624" lon="2.38278">
        <ele>201.1</ele>
        <time>2019-06-16T06:35:40.000Z</time>
      </trkpt>
      <trkpt lat="43.18624" lon="2.3828">
        <ele>201.2</ele>
        <time>2019-06-16T06:35:41.000Z</time>
      </trkpt>
      <trkpt lat="43.18625" lon="2.38282">
        <ele>201.3</ele>
        <time>2019-06-16T06:35:42.000Z</time>
      </trkpt>
      <trkpt lat="43.18625" lon="2.38285">
        <ele>201.3</ele>
        <time>2019-06-16T06:35:43.000Z</time>
      </trkpt>
      <trkpt lat="43.18625" lon="2.38287">
        <ele>201.4</ele>
        <time>2019-06-16T06:35:44.000Z</time>
      </trkpt>
      <trkpt lat="43.18625" lon="2.3829">
        <ele>201.5</ele>
        <time>2019-06-16T06:35:45.000Z</time>
      </trkpt>
      <trkpt lat="43.18625" lon="2.38293">
        <ele>201.5</ele>
        <time>2019-06-16T06:35:46.000Z</time>
      </trkpt>
      <trkpt lat="43.18625" lon="2.38295">
        <ele>201.6</ele>
        <time>2019-06-16T06:35:47.000Z</time>
      </trkpt>
      <trkpt lat="43.18625" lon="2.38298">
        <ele>201.7</ele>
        <time>2019-06-16T06:35:48.000Z</time>
      </trkpt>
      <trkpt lat="43.18626" lon="2.38301">
        <ele>201.7</ele>
        <time>2019-06-16T06:35:49.000Z</time>
      </trkpt>
      <trkpt lat="43.18626" lon="2.38303">
        <ele>201.8</ele>
        <time>2019-06-16T06:35:50.000Z</time>
      </trkpt>
      <trkpt lat="43.18626" lon="2.38306">
        <ele>201.9</ele>
        <time>2019-06-16T06:35:51.000Z</time>
      </trkpt>
      <trkpt lat="43.18626" lon="2.38309">
        <ele>202</ele>
        <time>2019-06-16T06:35:52.000Z</time>
      </trkpt>
      <trkpt lat="43.18627" lon="2.38312">
        <ele>202.1</ele>
        <time>2019-06-16T06:35:53.000Z</time>
      </trkpt>
      <trkpt lat="43.18627" lon="2.38314">
        <ele>202.1</ele>
        <time>2019-06-16T06:35:54.000Z</time>
      </trkpt>
      <trkpt lat="43.18628" lon="2.38317">
        <ele>202.2</ele>
        <time>2019-06-16T06:35:55.000Z</time>
      </trkpt>
      <trkpt lat="43.18628" lon="2.3832">
        <ele>202.3</ele>
        <time>2019-06-16T06:35:56.000Z</time>
      </trkpt>
      <trkpt lat="43.18629" lon="2.38322">
        <ele>202.4</ele>
        <time>2019-06-16T06:35:57.000Z</time>
      </trkpt>
      <trkpt lat="43.1863" lon="2.38324">
        <ele>202.5</ele>
        <time>2019-06-16T06:35:58.000Z</time>
      </trkpt>
      <trkpt lat="43.1863" lon="2.38327">
        <ele>202.6</ele>
        <time>2019-06-16T06:35:59.000Z</time>
      </trkpt>
      <trkpt lat="43.18631" lon="2.38329">
        <ele>202.7</ele>
        <time>2019-06-16T06:36:00.000Z</time>
      </trkpt>
      <trkpt lat="43.18631" lon="2.38331">
        <ele>202.8</ele>
        <time>2019-06-16T06:36:01.000Z</time>
      </trkpt>
      <trkpt lat="43.18632" lon="2.38333">
        <ele>202.9</ele>
        <time>2019-06-16T06:36:02.000Z</time>
      </trkpt>
      <trkpt lat="43.18632" lon="2.38335">
        <ele>203</ele>
        <time>2019-06-16T06:36:03.000Z</time>
      </trkpt>
      <trkpt lat="43.18633" lon="2.38337">
        <ele>203.1</ele>
        <time>2019-06-16T06:36:04.000Z</time>
      </trkpt>
      <trkpt lat="43.18633" lon="2.38339">
        <ele>203.1</ele>
        <time>2019-06-16T06:36:05.000Z</time>
      </trkpt>
      <trkpt lat="43.18633" lon="2.38341">
        <ele>203.2</ele>
        <time>2019-06-16T06:36:06.000Z</time>
      </trkpt>
      <trkpt lat="43.18634" lon="2.38343">
        <ele>203.3</ele>
        <time>2019-06-16T06:36:07.000Z</time>
      </trkpt>
      <trkpt lat="43.18634" lon="2.38344">
        <ele>203.4</ele>
        <time>2019-06-16T06:36:08.000Z</time>
      </trkpt>
      <trkpt lat="43.18634" lon="2.38346">
        <ele>203.4</ele>
        <time>2019-06-16T06:36:09.000Z</time>
      </trkpt>
      <trkpt lat="43.18635" lon="2.38348">
        <ele>203.5</ele>
        <time>2019-06-16T06:36:10.000Z</time>
      </trkpt>
      <trkpt lat="43.18635" lon="2.3835">
        <ele>203.6</ele>
        <time>2019-06-16T06:36:11.000Z</time>
      </trkpt>
      <trkpt lat="43.18635" lon="2.38351">
        <ele>203.6</ele>
        <time>2019-06-16T06:36:12.000Z</time>
      </trkpt>
      <trkpt lat="43.18636" lon="2.38352">
        <ele>203.7</ele>
        <time>2019-06-16T06:36:13.000Z</time>
      </trkpt>
      <trkpt lat="43.18636" lon="2.38353">
        <ele>203.8</ele>
        <time>2019-06-16T06:36:14.000Z</time>
      </trkpt>
      <trkpt lat="43.18636" lon="2.38354">
        <ele>203.8</ele>
        <time>2019-06-16T06:36:15.000Z</time>
      </trkpt>
      <trkpt lat="43.18637" lon="2.38354">
        <ele>203.8</ele>
        <time>2019-06-16T06:36:16.000Z</time>
      </trkpt>
      <trkpt lat="43.18637" lon="2.38355">
        <ele>203.9</ele>
        <time>2019-06-16T06:36:17.000Z</time>
      </trkpt>
      <trkpt lat="43.18637" lon="2.38355">
        <ele>203.9</ele>
        <time>2019-06-16T06:36:18.000Z</time>
      </trkpt>
      <trkpt lat="43.18637" lon="2.38355">
        <ele>203.9</ele>
        <time>2019-06-16T06:36:19.000Z</time>
      </trkpt>
      <trkpt lat="43.18637" lon="2.38355">
        <ele>203.9</ele>
        <time>2019-06-16T06:36:20.000Z</time>
      </trkpt>
      <trkpt lat="43.18637" lon="2.38355">
        <ele>203.9</ele>
        <time>2019-06-16T06:36:21.000Z</time>
      </trkpt>
      <trkpt lat="43.18637" lon="2.38355">
        <ele>203.9</ele>
        <time>2019-06-16T06:36:22.000Z</time>
      </trkpt>
      <trkpt lat="43.18637" lon="2.38355">
        <ele>203.9</ele>
        <time>2019-06-16T06:36:23.000Z</time>
      </trkpt>
      <trkpt lat="43.18637" lon="2.38355">
        <ele>203.9</ele>
        <time>2019-06-16T06:36:24.000Z</time>
      </trkpt>
      <trkpt lat="43.18637" lon="2.38355">
        <ele>203.9</ele>
        <time>2019-06-16T06:36:25.000Z</time>
      </trkpt>
      <trkpt lat="43.18637" lon="2.38355">
        <ele>203.9</ele>
        <time>2019-06-16T06:36:26.000Z</time>
      </trkpt>
      <trkpt lat="43.18637" lon="2.38355">
        <ele>203.9</ele>
        <time>2019-06-16T06:36:27.000Z</time>
      </trkpt>
      <trkpt lat="43.18637" lon="2.38355">
        <ele>203.9</ele>
        <time>2019-06-16T06:36:28.000Z</time>
      </trkpt>
      <trkpt lat="43.18637" lon="2.38355">
        <ele>203.9</ele>
        <time>2019-06-16T06:36:29.000Z</time>
      </trkpt>
      <trkpt lat="43.18637" lon="2.38355">
        <ele>203.9</ele>
        <time>2019-06-16T06:36:30.000Z</time>
      </trkpt>
      <trkpt lat="43.18637" lon="2.38355">
        <ele>203.9</ele>
        <time>2019-06-16T06:36:31.000Z</time>
      </trkpt>
      <trkpt lat="43.18637" lon="2.38355">
        <ele>203.9</ele>
        <time>2019-06-16T06:36:32.000Z</time>
      </trkpt>
      <trkpt lat="43.18637" lon="2.38355">
        <ele>203.9</ele>
        <time>2019-06-16T06:36:33.000Z</time>
      </trkpt>
      <trkpt lat="43.18638" lon="2.38356">
        <ele>203.9</ele>
        <time>2019-06-16T06:36:34.000Z</time>
      </trkpt>
      <trkpt lat="43.18638" lon="2.38356">
        <ele>204</ele>
        <time>2019-06-16T06:36:35.000Z</time>
      </trkpt>
      <trkpt lat="43.18638" lon="2.38356">
        <ele>204</ele>
        <time>2019-06-16T06:36:36.000Z</time>
      </trkpt>
      <trkpt lat="43.18638" lon="2.38356">
        <ele>204</ele>
        <time>2019-06-16T06:36:37.000Z</time>
      </trkpt>
      <trkpt lat="43.18638" lon="2.38356">
        <ele>204</ele>
        <time>2019-06-16T06:36:38.000Z</time>
      </trkpt>
      <trkpt lat="43.18638" lon="2.38356">
        <ele>204</ele>
        <time>2019-06-16T06:36:39.000Z</time>
      </trkpt>
      <trkpt lat="43.18638" lon="2.38356">
        <ele>204</ele>
        <time>2019-06-16T06:36:40.000Z</time>
      </trkpt>
      <trkpt lat="43.18638" lon="2.38356">
        <ele>204</ele>
        <time>2019-06-16T06:36:41.000Z</time>
      </trkpt>
      <trkpt lat="43.18638" lon="2.38356">
        <ele>204</ele>
        <time>2019-06-16T06:36:42.000Z</time>
      </trkpt>
      <trkpt lat="43.18638" lon="2.38356">
        <ele>204</ele>
        <time>2019-06-16T06:36:43.000Z</time>
      </trkpt>
      <trkpt lat="43.18638" lon="2.38356">
        <ele>204</ele>
        <time>2019-06-16T06:36:44.000Z</time>
      </trkpt>
      <trkpt lat="43.18638" lon="2.38356">
        <ele>204</ele>
        <time>2019-06-16T06:36:45.000Z</time>
      </trkpt>
      <trkpt lat="43.18637" lon="2.38356">
        <ele>203.9</ele>
        <time>2019-06-16T06:36:46.000Z</time>
      </trkpt>
      <trkpt lat="43.18637" lon="2.38355">
        <ele>203.9</ele>
        <time>2019-06-16T06:36:47.000Z</time>
      </trkpt>
      <trkpt lat="43.18636" lon="2.38355">
        <ele>203.8</ele>
        <time>2019-06-16T06:36:48.000Z</time>
      </trkpt>
      <trkpt lat="43.18635" lon="2.38354">
        <ele>203.7</ele>
        <time>2019-06-16T06:36:49.000Z</time>
      </trkpt>
      <trkpt lat="43.18634" lon="2.38353">
        <ele>203.6</ele>
        <time>2019-06-16T06:36:50.000Z</time>
      </trkpt>
      <trkpt lat="43.18633" lon="2.38352">
        <ele>203.5</ele>
        <time>2019-06-16T06:36:51.000Z</time>
      </trkpt>
      <trkpt lat="43.18632" lon="2.38351">
        <ele>203.4</ele>
        <time>2019-06-16T06:36:52.000Z</time>
      </trkpt>
      <trkpt lat="43.18631" lon="2.38349">
        <ele>203.3</ele>
        <time>2019-06-16T06:36:53.000Z</time>
      </trkpt>
      <trkpt lat="43.18631" lon="2.38347">
        <ele>203.3</ele>
        <time>2019-06-16T06:36:54.000Z</time>
      </trkpt>
      <trkpt lat="43.18631" lon="2.38346">
        <ele>203.2</ele>
        <time>2019-06-16T06:36:55.000Z</time>
      </trkpt>
      <trkpt lat="43.18631" lon="2.38343">
        <ele>203.2</ele>
        <time>2019-06-16T06:36:56.000Z</time>
      </trkpt>
      <trkpt lat="43.18632" lon="2.38341">
        <ele>203.1</ele>
        <time>2019-06-16T06:36:57.000Z</time>
      </trkpt>
      <trkpt lat="43.18632" lon="2.38339">
        <ele>203.1</ele>
        <time>2019-06-16T06:36:58.000Z</time>
      </trkpt>
      <trkpt lat="43.18633" lon="2.38336">
        <ele>203</ele>
        <time>2019-06-16T06:36:59.000Z</time>
      </trkpt>
      <trkpt lat="43.18633" lon="2.38334">
        <ele>203</ele>
        <time>2019-06-16T06:37:00.000Z</time>
      </trkpt>
      <trkpt lat="43.18634" lon="2.38331">
        <ele>203</ele>
        <time>2019-06-16T06:37:01.000Z</time>
      </trkpt>
      <trkpt lat="43.18634" lon="2.38329">
        <ele>202.9</ele>
        <time>2019-06-16T06:37:02.000Z</time>
      </trkpt>
      <trkpt lat="43.18634" lon="2.38327">
        <ele>202.8</ele>
        <time>2019-06-16T06:37:03.000Z</time>
      </trkpt>
      <trkpt lat="43.18634" lon="2.38324">
        <ele>202.8</ele>
        <time>2019-06-16T06:37:04.000Z</time>
      </trkpt>
      <trkpt lat="43.18633" lon="2.38322">
        <ele>202.7</ele>
        <time>2019-06-16T06:37:05.000Z</time>
      </trkpt>
      <trkpt lat="43.18633" lon="2.3832">
        <ele>202.6</ele>
        <time>2019-06-16T06:37:06.000Z</time>
      </trkpt>
      <trkpt lat="43.18632" lon="2.38318">
        <ele>202.5</ele>
        <time>2019-06-16T06:37:07.000Z</time>
      </trkpt>
      <trkpt lat="43.18632" lon="2.38316">
        <ele>202.5</ele>
        <time>2019-06-16T06:37:08.000Z</time>
      </trkpt>
      <trkpt lat="43.18633" lon="2.38315">
        <ele>202.5</ele>
        <time>2019-06-16T06:37:09.000Z</time>
      </trkpt>
      <trkpt lat="43.18634" lon="2.38315">
        <ele>202.5</ele>
        <time>2019-06-16T06:37:10.000Z</time>
      </trkpt>
      <trkpt lat="43.18635" lon="2.38314">
        <ele>202.5</ele>
        <time>2019-06-16T06:37:11.000Z</time>
      </trkpt>
      <trkpt lat="43.18636" lon="2.38314">
        <ele>202.6</ele>
        <time>2019-06-16T06:37:12.000Z</time>
      </trkpt>
      <trkpt lat="43.18636" lon="2.38315">
        <ele>202.6</ele>
        <time>2019-06-16T06:37:13.000Z</time>
      </trkpt>
      <trkpt lat="43.18636" lon="2.38316">
        <ele>202.6</ele>
        <time>2019-06-16T06:37:14.000Z</time>
      </trkpt>
      <trkpt lat="43.18637" lon="2.38317">
        <ele>202.7</ele>
        <time>2019-06-16T06:37:15.000Z</time>
      </trkpt>
      <trkpt lat="43.18636" lon="2.38319">
        <ele>202.7</ele>
        <time>2019-06-16T06:37:16.000Z</time>
      </trkpt>
      <trkpt lat="43.18636" lon="2.38321">
        <ele>202.8</ele>
        <time>2019-06-16T06:37:17.000Z</time>
      </trkpt>
      <trkpt lat="43.18636" lon="2.38323">
        <ele>202.8</ele>
        <time>2019-06-16T06:37:18.000Z</time>
      </trkpt>
      <trkpt lat="43.18636" lon="2.38325">
        <ele>202.9</ele>
        <time>2019-06-16T06:37:19.000Z</time>
      </trkpt>
      <trkpt lat="43.18635" lon="2.38327">
        <ele>202.9</ele>
        <time>2019-06-16T06:37:20.000Z</time>
      </trkpt>
      <trkpt lat="43.18635" lon="2.38329">
        <ele>203</ele>
        <time>2019-06-16T06:37:21.000Z</time>
      </trkpt>
      <trkpt lat="43.18635" lon="2.38331">
        <ele>203</ele>
        <time>2019-06-16T06:37:22.000Z</time>
      </trkpt>
      <trkpt lat="43.18635" lon="2.38333">
        <ele>203.1</ele>
        <time>2019-06-16T06:37:23.000Z</time>
      </trkpt>
      <trkpt lat="43.18635" lon="2.38335">
        <ele>203.1</ele>
        <time>2019-06-16T06:37:24.000Z</time>
      </trkpt>
      <trkpt lat="43.18635" lon="2.38337">
        <ele>203.2</ele>
        <time>2019-06-16T06:37:25.000Z</time>
      </trkpt>
      <trkpt lat="43.18635" lon="2.3834">
        <ele>203.3</ele>
        <time>2019-06-16T06:37:26.000Z</time>
      </trkpt>
      <trkpt lat="43.18635" lon="2.38342">
        <ele>203.3</ele>
        <time>2019-06-16T06:37:27.000Z</time>
      </trkpt>
      <trkpt lat="43.18635" lon="2.38344">
        <ele>203.4</ele>
        <time>2019-06-16T06:37:28.000Z</time>
      </trkpt>
      <trkpt lat="43.18636" lon="2.38346">
        <ele>203.5</ele>
        <time>2019-06-16T06:37:29.000Z</time>
      </trkpt>
      <trkpt lat="43.18636" lon="2.38348">
        <ele>203.6</ele>
        <time>2019-06-16T06:37:30.000Z</time>
      </trkpt>
      <trkpt lat="43.18636" lon="2.38351">
        <ele>203.7</ele>
        <time>2019-06-16T06:37:31.000Z</time>
      </trkpt>
      <trkpt lat="43.18637" lon="2.38353">
        <ele>203.8</ele>
        <time>2019-06-16T06:37:32.000Z</time>
      </trkpt>
      <trkpt lat="43.18638" lon="2.38355">
        <ele>203.9</ele>
        <time>2019-06-16T06:37:33.000Z</time>
      </trkpt>
      <trkpt lat="43.18638" lon="2.38357">
        <ele>204.1</ele>
        <time>2019-06-16T06:37:34.000Z</time>
      </trkpt>
      <trkpt lat="43.18639" lon="2.38359">
        <ele>204.2</ele>
        <time>2019-06-16T06:37:35.000Z</time>
      </trkpt>
      <trkpt lat="43.1864" lon="2.38361">
        <ele>204.3</ele>
        <time>2019-06-16T06:37:36.000Z</time>
      </trkpt>
      <trkpt lat="43.18641" lon="2.38363">
        <ele>204.5</ele>
        <time>2019-06-16T06:37:37.000Z</time>
      </trkpt>
      <trkpt lat="43.18642" lon="2.38365">
        <ele>204.6</ele>
        <time>2019-06-16T06:37:38.000Z</time>
      </trkpt>
      <trkpt lat="43.18643" lon="2.38367">
        <ele>204.8</ele>
        <time>2019-06-16T06:37:39.000Z</time>
      </trkpt>
      <trkpt lat="43.18644" lon="2.3837">
        <ele>204.9</ele>
        <time>2019-06-16T06:37:40.000Z</time>
      </trkpt>
      <trkpt lat="43.18644" lon="2.38372">
        <ele>205</ele>
        <time>2019-06-16T06:37:41.000Z</time>
      </trkpt>
      <trkpt lat="43.18644" lon="2.38374">
        <ele>205.1</ele>
        <time>2019-06-16T06:37:42.000Z</time>
      </trkpt>
      <trkpt lat="43.18644" lon="2.38376">
        <ele>205.1</ele>
        <time>2019-06-16T06:37:43.000Z</time>
      </trkpt>
      <trkpt lat="43.18644" lon="2.38378">
        <ele>205.2</ele>
        <time>2019-06-16T06:37:44.000Z</time>
      </trkpt>
      <trkpt lat="43.18644" lon="2.3838">
        <ele>205.3</ele>
        <time>2019-06-16T06:37:45.000Z</time>
      </trkpt>
      <trkpt lat="43.18644" lon="2.38382">
        <ele>205.4</ele>
        <time>2019-06-16T06:37:46.000Z</time>
      </trkpt>
      <trkpt lat="43.18644" lon="2.38384">
        <ele>205.4</ele>
        <time>2019-06-16T06:37:47.000Z</time>
      </trkpt>
      <trkpt lat="43.18645" lon="2.38385">
        <ele>205.5</ele>
        <time>2019-06-16T06:37:48.000Z</time>
      </trkpt>
      <trkpt lat="43.18646" lon="2.38386">
        <ele>205.6</ele>
        <time>2019-06-16T06:37:49.000Z</time>
      </trkpt>
      <trkpt lat="43.18647" lon="2.38387">
        <ele>205.8</ele>
        <time>2019-06-16T06:37:50.000Z</time>
      </trkpt>
      <trkpt lat="43.18647" lon="2.38389">
        <ele>205.9</ele>
        <time>2019-06-16T06:37:51.000Z</time>
      </trkpt>
      <trkpt lat="43.18648" lon="2.3839">
        <ele>206</ele>
        <time>2019-06-16T06:37:52.000Z</time>
      </trkpt>
      <trkpt lat="43.18649" lon="2.38391">
        <ele>206.1</ele>
        <time>2019-06-16T06:37:53.000Z</time>
      </trkpt>
      <trkpt lat="43.18649" lon="2.38392">
        <ele>206.2</ele>
        <time>2019-06-16T06:37:54.000Z</time>
      </trkpt>
      <trkpt lat="43.1865" lon="2.38393">
        <ele>206.3</ele>
        <time>2019-06-16T06:37:55.000Z</time>
      </trkpt>
      <trkpt lat="43.1865" lon="2.38394">
        <ele>206.4</ele>
        <time>2019-06-16T06:37:56.000Z</time>
      </trkpt>
      <trkpt lat="43.18651" lon="2.38396">
        <ele>206.5</ele>
        <time>2019-06-16T06:37:57.000Z</time>
      </trkpt>
      <trkpt lat="43.18651" lon="2.38397">
        <ele>206.5</ele>
        <time>2019-06-16T06:37:58.000Z</time>
      </trkpt>
      <trkpt lat="43.18651" lon="2.38398">
        <ele>206.6</ele>
        <time>2019-06-16T06:37:59.000Z</time>
      </trkpt>
      <trkpt lat="43.18652" lon="2.38399">
        <ele>206.7</ele>
        <time>2019-06-16T06:38:00.000Z</time>
      </trkpt>
      <trkpt lat="43.18652" lon="2.384">
        <ele>206.8</ele>
        <time>2019-06-16T06:38:01.000Z</time>
      </trkpt>
      <trkpt lat="43.18652" lon="2.38401">
        <ele>206.8</ele>
        <time>2019-06-16T06:38:02.000Z</time>
      </trkpt>
      <trkpt lat="43.18652" lon="2.38402">
        <ele>206.9</ele>
        <time>2019-06-16T06:38:03.000Z</time>
      </trkpt>
      <trkpt lat="43.18653" lon="2.38403">
        <ele>207</ele>
        <time>2019-06-16T06:38:04.000Z</time>
      </trkpt>
      <trkpt lat="43.18653" lon="2.38404">
        <ele>207</ele>
        <time>2019-06-16T06:38:05.000Z</time>
      </trkpt>
      <trkpt lat="43.18653" lon="2.38405">
        <ele>207.1</ele>
        <time>2019-06-16T06:38:06.000Z</time>
      </trkpt>
      <trkpt lat="43.18653" lon="2.38405">
        <ele>207.1</ele>
        <time>2019-06-16T06:38:07.000Z</time>
      </trkpt>
      <trkpt lat="43.18654" lon="2.38406">
        <ele>207.1</ele>
        <time>2019-06-16T06:38:08.000Z</time>
      </trkpt>
      <trkpt lat="43.18654" lon="2.38406">
        <ele>207.2</ele>
        <time>2019-06-16T06:38:09.000Z</time>
      </trkpt>
      <trkpt lat="43.18654" lon="2.38407">
        <ele>207.2</ele>
        <time>2019-06-16T06:38:10.000Z</time>
      </trkpt>
      <trkpt lat="43.18655" lon="2.38407">
        <ele>207.3</ele>
        <time>2019-06-16T06:38:11.000Z</time>
      </trkpt>
      <trkpt lat="43.18655" lon="2.38408">
        <ele>207.4</ele>
        <time>2019-06-16T06:38:12.000Z</time>
      </trkpt>
      <trkpt lat="43.18655" lon="2.38409">
        <ele>207.5</ele>
        <time>2019-06-16T06:38:13.000Z</time>
      </trkpt>
      <trkpt lat="43.18656" lon="2.3841">
        <ele>207.5</ele>
        <time>2019-06-16T06:38:14.000Z</time>
      </trkpt>
      <trkpt lat="43.18656" lon="2.38411">
        <ele>207.6</ele>
        <time>2019-06-16T06:38:15.000Z</time>
      </trkpt>
      <trkpt lat="43.18656" lon="2.38412">
        <ele>207.7</ele>
        <time>2019-06-16T06:38:16.000Z</time>
      </trkpt>
      <trkpt lat="43.18656" lon="2.38413">
        <ele>207.7</ele>
        <time>2019-06-16T06:38:17.000Z</time>
      </trkpt>
      <trkpt lat="43.18656" lon="2.38414">
        <ele>207.8</ele>
        <time>2019-06-16T06:38:18.000Z</time>
      </trkpt>
      <trkpt lat="43.18656" lon="2.38414">
        <ele>207.8</ele>
        <time>2019-06-16T06:38:19.000Z</time>
      </trkpt>
      <trkpt lat="43.18656" lon="2.38414">
        <ele>207.8</ele>
        <time>2019-06-16T06:38:20.000Z</time>
      </trkpt>
      <trkpt lat="43.18657" lon="2.38414">
        <ele>207.8</ele>
        <time>2019-06-16T06:38:21.000Z</time>
      </trkpt>
      <trkpt lat="43.18657" lon="2.38414">
        <ele>207.8</ele>
        <time>2019-06-16T06:38:22.000Z</time>
      </trkpt>
      <trkpt lat="43.18657" lon="2.38415">
        <ele>207.8</ele>
        <time>2019-06-16T06:38:23.000Z</time>
      </trkpt>
      <trkpt lat="43.18657" lon="2.38415">
        <ele>207.9</ele>
        <time>2019-06-16T06:38:24.000Z</time>
      </trkpt>
      <trkpt lat="43.18657" lon="2.38417">
        <ele>207.9</ele>
        <time>2019-06-16T06:38:25.000Z</time>
      </trkpt>
      <trkpt lat="43.18657" lon="2.38418">
        <ele>208</ele>
        <time>2019-06-16T06:38:26.000Z</time>
      </trkpt>
      <trkpt lat="43.18657" lon="2.38419">
        <ele>208</ele>
        <time>2019-06-16T06:38:27.000Z</time>
      </trkpt>
      <trkpt lat="43.18658" lon="2.38421">
        <ele>208</ele>
        <time>2019-06-16T06:38:28.000Z</time>
      </trkpt>
      <trkpt lat="43.18658" lon="2.38423">
        <ele>208</ele>
        <time>2019-06-16T06:38:29.000Z</time>
      </trkpt>
      <trkpt lat="43.18658" lon="2.38424">
        <ele>208</ele>
        <time>2019-06-16T06:38:30.000Z</time>
      </trkpt>
      <trkpt lat="43.18659" lon="2.38426">
        <ele>208</ele>
        <time>2019-06-16T06:38:31.000Z</time>
      </trkpt>
      <trkpt lat="43.18659" lon="2.38427">
        <ele>208</ele>
        <time>2019-06-16T06:38:32.000Z</time>
      </trkpt>
      <trkpt lat="43.18659" lon="2.38428">
        <ele>208.1</ele>
        <time>2019-06-16T06:38:33.000Z</time>
      </trkpt>
      <trkpt lat="43.1866" lon="2.38429">
        <ele>208.1</ele>
        <time>2019-06-16T06:38:34.000Z</time>
      </trkpt>
      <trkpt lat="43.1866" lon="2.38431">
        <ele>208.1</ele>
        <time>2019-06-16T06:38:35.000Z</time>
      </trkpt>
      <trkpt lat="43.18661" lon="2.38432">
        <ele>208.2</ele>
        <time>2019-06-16T06:38:36.000Z</time>
      </trkpt>
      <trkpt lat="43.18662" lon="2.38433">
        <ele>208.3</ele>
        <time>2019-06-16T06:38:37.000Z</time>
      </trkpt>
      <trkpt lat="43.18663" lon="2.38434">
        <ele>208.4</ele>
        <time>2019-06-16T06:38:38.000Z</time>
      </trkpt>
      <trkpt lat="43.18664" lon="2.38435">
        <ele>208.5</ele>
        <time>2019-06-16T06:38:39.000Z</time>
      </trkpt>
      <trkpt lat="43.18665" lon="2.38436">
        <ele>208.6</ele>
        <time>2019-06-16T06:38:40.000Z</time>
      </trkpt>
      <trkpt lat="43.18666" lon="2.38437">
        <ele>208.7</ele>
        <time>2019-06-16T06:38:41.000Z</time>
      </trkpt>
      <trkpt lat="43.18667" lon="2.38438">
        <ele>208.8</ele>
        <time>2019-06-16T06:38:42.000Z</time>
      </trkpt>
      <trkpt lat="43.18668" lon="2.38439">
        <ele>208.8</ele>
        <time>2019-06-16T06:38:43.000Z</time>
      </trkpt>
      <trkpt lat="43.18669" lon="2.3844">
        <ele>208.8</ele>
        <time>2019-06-16T06:38:44.000Z</time>
      </trkpt>
      <trkpt lat="43.1867" lon="2.38441">
        <ele>208.8</ele>
        <time>2019-06-16T06:38:45.000Z</time>
      </trkpt>
      <trkpt lat="43.18671" lon="2.38442">
        <ele>208.8</ele>
        <time>2019-06-16T06:38:46.000Z</time>
      </trkpt>
      <trkpt lat="43.18672" lon="2.38443">
        <ele>208.8</ele>
        <time>2019-06-16T06:38:47.000Z</time>
      </trkpt>
      <trkpt lat="43.18673" lon="2.38444">
        <ele>208.8</ele>
        <time>2019-06-16T06:38:48.000Z</time>
      </trkpt>
      <trkpt lat="43.18674" lon="2.38445">
        <ele>208.8</ele>
        <time>2019-06-16T06:38:49.000Z</time>
      </trkpt>
      <trkpt lat="43.18675" lon="2.38446">
        <ele>208.8</ele>
        <time>2019-06-16T06:38:50.000Z</time>
      </trkpt>
      <trkpt lat="43.18676" lon="2.38447">
        <ele>208.8</ele>
        <time>2019-06-16T06:38:51.000Z</time>
      </trkpt>
      <trkpt lat="43.18676" lon="2.38448">
        <ele>208.8</ele>
        <time>2019-06-16T06:38:52.000Z</time>
      </trkpt>
      <trkpt lat="43.18677" lon="2.38449">
        <ele>208.8</ele>
        <time>2019-06-16T06:38:53.000Z</time>
      </trkpt>
      <trkpt lat="43.18678" lon="2.3845">
        <ele>208.8</ele>
        <time>2019-06-16T06:38:54.000Z</time>
      </trkpt>
      <trkpt lat="43.18679" lon="2.38452">
        <ele>208.8</ele>
        <time>2019-06-16T06:38:55.000Z</time>
      </trkpt>
      <trkpt lat="43.18679" lon="2.38453">
        <ele>208.8</ele>
        <time>2019-06-16T06:38:56.000Z</time>
      </trkpt>
      <trkpt lat="43.1868" lon="2.38454">
        <ele>208.8</ele>
        <time>2019-06-16T06:38:57.000Z</time>
      </trkpt>
      <trkpt lat="43.18681" lon="2.38455">
        <ele>208.8</ele>
        <time>2019-06-16T06:38:58.000Z</time>
      </trkpt>
      <trkpt lat="43.18682" lon="2.38457">
        <ele>208.9</ele>
        <time>2019-06-16T06:38:59.000Z</time>
      </trkpt>
      <trkpt lat="43.18682" lon="2.38458">
        <ele>208.9</ele>
        <time>2019-06-16T06:39:00.000Z</time>
      </trkpt>
      <trkpt lat="43.18683" lon="2.38459">
        <ele>208.9</ele>
        <time>2019-06-16T06:39:01.000Z</time>
      </trkpt>
      <trkpt lat="43.18684" lon="2.3846">
        <ele>208.9</ele>
        <time>2019-06-16T06:39:02.000Z</time>
      </trkpt>
      <trkpt lat="43.18685" lon="2.38461">
        <ele>208.9</ele>
        <time>2019-06-16T06:39:03.000Z</time>
      </trkpt>
      <trkpt lat="43.18686" lon="2.38462">
        <ele>209</ele>
        <time>2019-06-16T06:39:04.000Z</time>
      </trkpt>
      <trkpt lat="43.18687" lon="2.38463">
        <ele>209</ele>
        <time>2019-06-16T06:39:05.000Z</time>
      </trkpt>
      <trkpt lat="43.18688" lon="2.38464">
        <ele>209</ele>
        <time>2019-06-16T06:39:06.000Z</time>
      </trkpt>
      <trkpt lat="43.18689" lon="2.38465">
        <ele>209</ele>
        <time>2019-06-16T06:39:07.000Z</time>
      </trkpt>
      <trkpt lat="43.1869" lon="2.38465">
        <ele>209.1</ele>
        <time>2019-06-16T06:39:08.000Z</time>
      </trkpt>
      <trkpt lat="43.18691" lon="2.38466">
        <ele>209.1</ele>
        <time>2019-06-16T06:39:09.000Z</time>
      </trkpt>
      <trkpt lat="43.18692" lon="2.38467">
        <ele>209.1</ele>
        <time>2019-06-16T06:39:10.000Z</time>
      </trkpt>
      <trkpt lat="43.18693" lon="2.38467">
        <ele>209.2</ele>
        <time>2019-06-16T06:39:11.000Z</time>
      </trkpt>
      <trkpt lat="43.18695" lon="2.38468">
        <ele>209.2</ele>
        <time>2019-06-16T06:39:12.000Z</time>
      </trkpt>
      <trkpt lat="43.18696" lon="2.38468">
        <ele>209.2</ele>
        <time>2019-06-16T06:39:13.000Z</time>
      </trkpt>
      <trkpt lat="43.18697" lon="2.38468">
        <ele>209.3</ele>
        <time>2019-06-16T06:39:14.000Z</time>
      </trkpt>
      <trkpt lat="43.18698" lon="2.38468">
        <ele>209.3</ele>
        <time>2019-06-16T06:39:15.000Z</time>
      </trkpt>
      <trkpt lat="43.18699" lon="2.38468">
        <ele>209.3</ele>
        <time>2019-06-16T06:39:16.000Z</time>
      </trkpt>
      <trkpt lat="43.187" lon="2.38468">
        <ele>209.4</ele>
        <time>2019-06-16T06:39:17.000Z</time>
      </trkpt>
      <trkpt lat="43.18702" lon="2.38468">
        <ele>209.4</ele>
        <time>2019-06-16T06:39:18.000Z</time>
      </trkpt>
      <trkpt lat="43.18703" lon="2.38468">
        <ele>209.5</ele>
        <time>2019-06-16T06:39:19.000Z</time>
      </trkpt>
      <trkpt lat="43.18704" lon="2.38469">
        <ele>209.5</ele>
        <time>2019-06-16T06:39:20.000Z</time>
      </trkpt>
      <trkpt lat="43.18706" lon="2.3847">
        <ele>209.6</ele>
        <time>2019-06-16T06:39:21.000Z</time>
      </trkpt>
      <trkpt lat="43.18707" lon="2.38471">
        <ele>209.6</ele>
        <time>2019-06-16T06:39:22.000Z</time>
      </trkpt>
      <trkpt lat="43.18707" lon="2.38473">
        <ele>209.6</ele>
        <time>2019-06-16T06:39:23.000Z</time>
      </trkpt>
      <trkpt lat="43.18708" lon="2.38475">
        <ele>209.7</ele>
        <time>2019-06-16T06:39:24.000Z</time>
      </trkpt>
      <trkpt lat="43.18709" lon="2.38478">
        <ele>209.7</ele>
        <time>2019-06-16T06:39:25.000Z</time>
      </trkpt>
      <trkpt lat="43.18709" lon="2.3848">
        <ele>209.8</ele>
        <time>2019-06-16T06:39:26.000Z</time>
      </trkpt>
      <trkpt lat="43.1871" lon="2.38482">
        <ele>209.8</ele>
        <time>2019-06-16T06:39:27.000Z</time>
      </trkpt>
      <trkpt lat="43.1871" lon="2.38485">
        <ele>209.9</ele>
        <time>2019-06-16T06:39:28.000Z</time>
      </trkpt>
      <trkpt lat="43.1871" lon="2.38487">
        <ele>209.9</ele>
        <time>2019-06-16T06:39:29.000Z</time>
      </trkpt>
      <trkpt lat="43.1871" lon="2.3849">
        <ele>210</ele>
        <time>2019-06-16T06:39:30.000Z</time>
      </trkpt>
      <trkpt lat="43.18711" lon="2.38492">
        <ele>210</ele>
        <time>2019-06-16T06:39:31.000Z</time>
      </trkpt>
      <trkpt lat="43.1871" lon="2.38495">
        <ele>210</ele>
        <time>2019-06-16T06:39:32.000Z</time>
      </trkpt>
      <trkpt lat="43.1871" lon="2.38498">
        <ele>210.1</ele>
        <time>2019-06-16T06:39:33.000Z</time>
      </trkpt>
      <trkpt lat="43.1871" lon="2.385">
        <ele>210.1</ele>
        <time>2019-06-16T06:39:34.000Z</time>
      </trkpt>
      <trkpt lat="43.18709" lon="2.38503">
        <ele>210.1</ele>
        <time>2019-06-16T06:39:35.000Z</time>
      </trkpt>
      <trkpt lat="43.18709" lon="2.38506">
        <ele>210.1</ele>
        <time>2019-06-16T06:39:36.000Z</time>
      </trkpt>
      <trkpt lat="43.18708" lon="2.38508">
        <ele>210.1</ele>
        <time>2019-06-16T06:39:37.000Z</time>
      </trkpt>
      <trkpt lat="43.18707" lon="2.38511">
        <ele>210.1</ele>
        <time>2019-06-16T06:39:38.000Z</time>
      </trkpt>
      <trkpt lat="43.18706" lon="2.38513">
        <ele>210.1</ele>
        <time>2019-06-16T06:39:39.000Z</time>
      </trkpt>
      <trkpt lat="43.18706" lon="2.38516">
        <ele>210.1</ele>
        <time>2019-06-16T06:39:40.000Z</time>
      </trkpt>
      <trkpt lat="43.18705" lon="2.38518">
        <ele>210.1</ele>
        <time>2019-06-16T06:39:41.000Z</time>
      </trkpt>
      <trkpt lat="43.18705" lon="2.3852">
        <ele>210.1</ele>
        <time>2019-06-16T06:39:42.000Z</time>
      </trkpt>
      <trkpt lat="43.18704" lon="2.38522">
        <ele>210.1</ele>
        <time>2019-06-16T06:39:43.000Z</time>
      </trkpt>
      <trkpt lat="43.18704" lon="2.38524">
        <ele>210.2</ele>
        <time>2019-06-16T06:39:44.000Z</time>
      </trkpt>
      <trkpt lat="43.18704" lon="2.38526">
        <ele>210.2</ele>
        <time>2019-06-16T06:39:45.000Z</time>
      </trkpt>
      <trkpt lat="43.18704" lon="2.38528">
        <ele>210.2</ele>
        <time>2019-06-16T06:39:46.000Z</time>
      </trkpt>
      <trkpt lat="43.18703" lon="2.3853">
        <ele>210.2</ele>
        <time>2019-06-16T06:39:47.000Z</time>
      </trkpt>
      <trkpt lat="43.18703" lon="2.38532">
        <ele>210.2</ele>
        <time>2019-06-16T06:39:48.000Z</time>
      </trkpt>
      <trkpt lat="43.18702" lon="2.38534">
        <ele>210.2</ele>
        <time>2019-06-16T06:39:49.000Z</time>
      </trkpt>
      <trkpt lat="43.18702" lon="2.38535">
        <ele>210.1</ele>
        <time>2019-06-16T06:39:50.000Z</time>
      </trkpt>
      <trkpt lat="43.18701" lon="2.38537">
        <ele>210.1</ele>
        <time>2019-06-16T06:39:51.000Z</time>
      </trkpt>
      <trkpt lat="43.18701" lon="2.38539">
        <ele>210.1</ele>
        <time>2019-06-16T06:39:52.000Z</time>
      </trkpt>
      <trkpt lat="43.187" lon="2.38541">
        <ele>210.1</ele>
        <time>2019-06-16T06:39:53.000Z</time>
      </trkpt>
      <trkpt lat="43.187" lon="2.38543">
        <ele>210.1</ele>
        <time>2019-06-16T06:39:54.000Z</time>
      </trkpt>
      <trkpt lat="43.187" lon="2.38545">
        <ele>210.1</ele>
        <time>2019-06-16T06:39:55.000Z</time>
      </trkpt>
      <trkpt lat="43.187" lon="2.38547">
        <ele>210.1</ele>
        <time>2019-06-16T06:39:56.000Z</time>
      </trkpt>
      <trkpt lat="43.187" lon="2.38549">
        <ele>210.2</ele>
        <time>2019-06-16T06:39:57.000Z</time>
      </trkpt>
      <trkpt lat="43.187" lon="2.38551">
        <ele>210.2</ele>
        <time>2019-06-16T06:39:58.000Z</time>
      </trkpt>
      <trkpt lat="43.18701" lon="2.38553">
        <ele>210.3</ele>
        <time>2019-06-16T06:39:59.000Z</time>
      </trkpt>
      <trkpt lat="43.18702" lon="2.38554">
        <ele>210.4</ele>
        <time>2019-06-16T06:40:00.000Z</time>
      </trkpt>
      <trkpt lat="43.18702" lon="2.38556">
        <ele>210.5</ele>
        <time>2019-06-16T06:40:01.000Z</time>
      </trkpt>
      <trkpt lat="43.18703" lon="2.38558">
        <ele>210.6</ele>
        <time>2019-06-16T06:40:02.000Z</time>
      </trkpt>
      <trkpt lat="43.18704" lon="2.3856">
        <ele>210.7</ele>
        <time>2019-06-16T06:40:03.000Z</time>
      </trkpt>
      <trkpt lat="43.18705" lon="2.38562">
        <ele>210.8</ele>
        <time>2019-06-16T06:40:04.000Z</time>
      </trkpt>
      <trkpt lat="43.18706" lon="2.38564">
        <ele>210.9</ele>
        <time>2019-06-16T06:40:05.000Z</time>
      </trkpt>
      <trkpt lat="43.18707" lon="2.38567">
        <ele>211.1</ele>
        <time>2019-06-16T06:40:06.000Z</time>
      </trkpt>
      <trkpt lat="43.18708" lon="2.38569">
        <ele>211.2</ele>
        <time>2019-06-16T06:40:07.000Z</time>
      </trkpt>
      <trkpt lat="43.18708" lon="2.38571">
        <ele>211.3</ele>
        <time>2019-06-16T06:40:08.000Z</time>
      </trkpt>
      <trkpt lat="43.18709" lon="2.38574">
        <ele>211.4</ele>
        <time>2019-06-16T06:40:09.000Z</time>
      </trkpt>
      <trkpt lat="43.1871" lon="2.38576">
        <ele>211.5</ele>
        <time>2019-06-16T06:40:10.000Z</time>
      </trkpt>
      <trkpt lat="43.1871" lon="2.38579">
        <ele>211.6</ele>
        <time>2019-06-16T06:40:11.000Z</time>
      </trkpt>
      <trkpt lat="43.1871" lon="2.38582">
        <ele>211.6</ele>
        <time>2019-06-16T06:40:12.000Z</time>
      </trkpt>
      <trkpt lat="43.1871" lon="2.38584">
        <ele>211.7</ele>
        <time>2019-06-16T06:40:13.000Z</time>
      </trkpt>
      <trkpt lat="43.1871" lon="2.38587">
        <ele>211.7</ele>
        <time>2019-06-16T06:40:14.000Z</time>
      </trkpt>
      <trkpt lat="43.18709" lon="2.3859">
        <ele>211.7</ele>
        <time>2019-06-16T06:40:15.000Z</time>
      </trkpt>
      <trkpt lat="43.18709" lon="2.38593">
        <ele>211.7</ele>
        <time>2019-06-16T06:40:16.000Z</time>
      </trkpt>
      <trkpt lat="43.18708" lon="2.38596">
        <ele>211.7</ele>
        <time>2019-06-16T06:40:17.000Z</time>
      </trkpt>
      <trkpt lat="43.18707" lon="2.38599">
        <ele>211.7</ele>
        <time>2019-06-16T06:40:18.000Z</time>
      </trkpt>
      <trkpt lat="43.18707" lon="2.38602">
        <ele>211.6</ele>
        <time>2019-06-16T06:40:19.000Z</time>
      </trkpt>
      <trkpt lat="43.18706" lon="2.38606">
        <ele>211.6</ele>
        <time>2019-06-16T06:40:20.000Z</time>
      </trkpt>
      <trkpt lat="43.18705" lon="2.38609">
        <ele>211.5</ele>
        <time>2019-06-16T06:40:21.000Z</time>
      </trkpt>
      <trkpt lat="43.18704" lon="2.38612">
        <ele>211.5</ele>
        <time>2019-06-16T06:40:22.000Z</time>
      </trkpt>
      <trkpt lat="43.18703" lon="2.38615">
        <ele>211.4</ele>
        <time>2019-06-16T06:40:23.000Z</time>
      </trkpt>
      <trkpt lat="43.18702" lon="2.38618">
        <ele>211.3</ele>
        <time>2019-06-16T06:40:24.000Z</time>
      </trkpt>
      <trkpt lat="43.18701" lon="2.38621">
        <ele>211.3</ele>
        <time>2019-06-16T06:40:25.000Z</time>
      </trkpt>
      <trkpt lat="43.187" lon="2.38624">
        <ele>211.2</ele>
        <time>2019-06-16T06:40:26.000Z</time>
      </trkpt>
      <trkpt lat="43.187" lon="2.38628">
        <ele>211.2</ele>
        <time>2019-06-16T06:40:27.000Z</time>
      </trkpt>
      <trkpt lat="43.18699" lon="2.38631">
        <ele>211.2</ele>
        <time>2019-06-16T06:40:28.000Z</time>
      </trkpt>
      <trkpt lat="43.18699" lon="2.38634">
        <ele>211.1</ele>
        <time>2019-06-16T06:40:29.000Z</time>
      </trkpt>
      <trkpt lat="43.18698" lon="2.38636">
        <ele>211.1</ele>
        <time>2019-06-16T06:40:30.000Z</time>
      </trkpt>
      <trkpt lat="43.18698" lon="2.38639">
        <ele>211.1</ele>
        <time>2019-06-16T06:40:31.000Z</time>
      </trkpt>
      <trkpt lat="43.18698" lon="2.38642">
        <ele>211.1</ele>
        <time>2019-06-16T06:40:32.000Z</time>
      </trkpt>
      <trkpt lat="43.18697" lon="2.38645">
        <ele>211.1</ele>
        <time>2019-06-16T06:40:33.000Z</time>
      </trkpt>
      <trkpt lat="43.18697" lon="2.38648">
        <ele>211.1</ele>
        <time>2019-06-16T06:40:34.000Z</time>
      </trkpt>
      <trkpt lat="43.18697" lon="2.38651">
        <ele>211.1</ele>
        <time>2019-06-16T06:40:35.000Z</time>
      </trkpt>
      <trkpt lat="43.18696" lon="2.38654">
        <ele>211.1</ele>
        <time>2019-06-16T06:40:36.000Z</time>
      </trkpt>
      <trkpt lat="43.18696" lon="2.38657">
        <ele>211</ele>
        <time>2019-06-16T06:40:37.000Z</time>
      </trkpt>
      <trkpt lat="43.18695" lon="2.3866">
        <ele>211</ele>
        <time>2019-06-16T06:40:38.000Z</time>
      </trkpt>
      <trkpt lat="43.18694" lon="2.38663">
        <ele>210.9</ele>
        <time>2019-06-16T06:40:39.000Z</time>
      </trkpt>
      <trkpt lat="43.18694" lon="2.38666">
        <ele>210.9</ele>
        <time>2019-06-16T06:40:40.000Z</time>
      </trkpt>
      <trkpt lat="43.18693" lon="2.38669">
        <ele>210.8</ele>
        <time>2019-06-16T06:40:41.000Z</time>
      </trkpt>
      <trkpt lat="43.18692" lon="2.38672">
        <ele>210.7</ele>
        <time>2019-06-16T06:40:42.000Z</time>
      </trkpt>
      <trkpt lat="43.18691" lon="2.38675">
        <ele>210.6</ele>
        <time>2019-06-16T06:40:43.000Z</time>
      </trkpt>
      <trkpt lat="43.18691" lon="2.38678">
        <ele>210.5</ele>
        <time>2019-06-16T06:40:44.000Z</time>
      </trkpt>
      <trkpt lat="43.1869" lon="2.38681">
        <ele>210.4</ele>
        <time>2019-06-16T06:40:45.000Z</time>
      </trkpt>
      <trkpt lat="43.1869" lon="2.38684">
        <ele>210.4</ele>
        <time>2019-06-16T06:40:46.000Z</time>
      </trkpt>
      <trkpt lat="43.18689" lon="2.38687">
        <ele>210.3</ele>
        <time>2019-06-16T06:40:47.000Z</time>
      </trkpt>
      <trkpt lat="43.18689" lon="2.38689">
        <ele>210.2</ele>
        <time>2019-06-16T06:40:48.000Z</time>
      </trkpt>
      <trkpt lat="43.18688" lon="2.38692">
        <ele>210.2</ele>
        <time>2019-06-16T06:40:49.000Z</time>
      </trkpt>
      <trkpt lat="43.18687" lon="2.38695">
        <ele>210.1</ele>
        <time>2019-06-16T06:40:50.000Z</time>
      </trkpt>
      <trkpt lat="43.18687" lon="2.38698">
        <ele>210</ele>
        <time>2019-06-16T06:40:51.000Z</time>
      </trkpt>
      <trkpt lat="43.18686" lon="2.387">
        <ele>209.8</ele>
        <time>2019-06-16T06:40:52.000Z</time>
      </trkpt>
      <trkpt lat="43.18685" lon="2.38703">
        <ele>209.7</ele>
        <time>2019-06-16T06:40:53.000Z</time>
      </trkpt>
      <trkpt lat="43.18684" lon="2.38706">
        <ele>209.5</ele>
        <time>2019-06-16T06:40:54.000Z</time>
      </trkpt>
      <trkpt lat="43.18683" lon="2.38708">
        <ele>209.3</ele>
        <time>2019-06-16T06:40:55.000Z</time>
      </trkpt>
      <trkpt lat="43.18682" lon="2.38711">
        <ele>209.1</ele>
        <time>2019-06-16T06:40:56.000Z</time>
      </trkpt>
      <trkpt lat="43.18681" lon="2.38714">
        <ele>209</ele>
        <time>2019-06-16T06:40:57.000Z</time>
      </trkpt>
      <trkpt lat="43.1868" lon="2.38717">
        <ele>208.8</ele>
        <time>2019-06-16T06:40:58.000Z</time>
      </trkpt>
      <trkpt lat="43.18679" lon="2.3872">
        <ele>208.6</ele>
        <time>2019-06-16T06:40:59.000Z</time>
      </trkpt>
      <trkpt lat="43.18678" lon="2.38722">
        <ele>208.4</ele>
        <time>2019-06-16T06:41:00.000Z</time>
      </trkpt>
      <trkpt lat="43.18677" lon="2.38725">
        <ele>208.2</ele>
        <time>2019-06-16T06:41:01.000Z</time>
      </trkpt>
      <trkpt lat="43.18676" lon="2.38728">
        <ele>208</ele>
        <time>2019-06-16T06:41:02.000Z</time>
      </trkpt>
      <trkpt lat="43.18675" lon="2.38731">
        <ele>207.8</ele>
        <time>2019-06-16T06:41:03.000Z</time>
      </trkpt>
      <trkpt lat="43.18674" lon="2.38734">
        <ele>207.6</ele>
        <time>2019-06-16T06:41:04.000Z</time>
      </trkpt>
      <trkpt lat="43.18673" lon="2.38738">
        <ele>207.4</ele>
        <time>2019-06-16T06:41:05.000Z</time>
      </trkpt>
      <trkpt lat="43.18672" lon="2.38741">
        <ele>207.2</ele>
        <time>2019-06-16T06:41:06.000Z</time>
      </trkpt>
      <trkpt lat="43.18672" lon="2.38744">
        <ele>207</ele>
        <time>2019-06-16T06:41:07.000Z</time>
      </trkpt>
      <trkpt lat="43.18671" lon="2.38747">
        <ele>206.9</ele>
        <time>2019-06-16T06:41:08.000Z</time>
      </trkpt>
      <trkpt lat="43.1867" lon="2.3875">
        <ele>206.6</ele>
        <time>2019-06-16T06:41:09.000Z</time>
      </trkpt>
      <trkpt lat="43.18669" lon="2.38753">
        <ele>206.5</ele>
        <time>2019-06-16T06:41:10.000Z</time>
      </trkpt>
      <trkpt lat="43.18668" lon="2.38756">
        <ele>206.4</ele>
        <time>2019-06-16T06:41:11.000Z</time>
      </trkpt>
      <trkpt lat="43.18667" lon="2.38759">
        <ele>206.2</ele>
        <time>2019-06-16T06:41:12.000Z</time>
      </trkpt>
      <trkpt lat="43.18667" lon="2.38762">
        <ele>206.1</ele>
        <time>2019-06-16T06:41:13.000Z</time>
      </trkpt>
      <trkpt lat="43.18666" lon="2.38765">
        <ele>206.1</ele>
        <time>2019-06-16T06:41:14.000Z</time>
      </trkpt>
      <trkpt lat="43.18665" lon="2.38768">
        <ele>206</ele>
        <time>2019-06-16T06:41:15.000Z</time>
      </trkpt>
      <trkpt lat="43.18664" lon="2.38771">
        <ele>205.9</ele>
        <time>2019-06-16T06:41:16.000Z</time>
      </trkpt>
      <trkpt lat="43.18663" lon="2.38774">
        <ele>205.8</ele>
        <time>2019-06-16T06:41:17.000Z</time>
      </trkpt>
      <trkpt lat="43.18662" lon="2.38777">
        <ele>205.8</ele>
        <time>2019-06-16T06:41:18.000Z</time>
      </trkpt>
      <trkpt lat="43.18661" lon="2.3878">
        <ele>205.7</ele>
        <time>2019-06-16T06:41:19.000Z</time>
      </trkpt>
      <trkpt lat="43.1866" lon="2.38783">
        <ele>205.6</ele>
        <time>2019-06-16T06:41:20.000Z</time>
      </trkpt>
      <trkpt lat="43.18659" lon="2.38786">
        <ele>205.6</ele>
        <time>2019-06-16T06:41:21.000Z</time>
      </trkpt>
      <trkpt lat="43.18658" lon="2.38789">
        <ele>205.5</ele>
        <time>2019-06-16T06:41:22.000Z</time>
      </trkpt>
      <trkpt lat="43.18657" lon="2.38792">
        <ele>205.5</ele>
        <time>2019-06-16T06:41:23.000Z</time>
      </trkpt>
      <trkpt lat="43.18656" lon="2.38795">
        <ele>205.4</ele>
        <time>2019-06-16T06:41:24.000Z</time>
      </trkpt>
      <trkpt lat="43.18655" lon="2.38798">
        <ele>205.4</ele>
        <time>2019-06-16T06:41:25.000Z</time>
      </trkpt>
      <trkpt lat="43.18654" lon="2.38801">
        <ele>205.4</ele>
        <time>2019-06-16T06:41:26.000Z</time>
      </trkpt>
      <trkpt lat="43.18654" lon="2.38805">
        <ele>205.3</ele>
        <time>2019-06-16T06:41:27.000Z</time>
      </trkpt>
      <trkpt lat="43.18653" lon="2.38808">
        <ele>205.3</ele>
        <time>2019-06-16T06:41:28.000Z</time>
      </trkpt>
      <trkpt lat="43.18652" lon="2.38811">
        <ele>205.3</ele>
        <time>2019-06-16T06:41:29.000Z</time>
      </trkpt>
      <trkpt lat="43.18651" lon="2.38814">
        <ele>205.3</ele>
        <time>2019-06-16T06:41:30.000Z</time>
      </trkpt>
      <trkpt lat="43.18651" lon="2.38817">
        <ele>205.3</ele>
        <time>2019-06-16T06:41:31.000Z</time>
      </trkpt>
      <trkpt lat="43.1865" lon="2.3882">
        <ele>205.3</ele>
        <time>2019-06-16T06:41:32.000Z</time>
      </trkpt>
      <trkpt lat="43.1865" lon="2.38823">
        <ele>205.3</ele>
        <time>2019-06-16T06:41:33.000Z</time>
      </trkpt>
      <trkpt lat="43.18649" lon="2.38826">
        <ele>205.4</ele>
        <time>2019-06-16T06:41:34.000Z</time>
      </trkpt>
      <trkpt lat="43.18648" lon="2.38829">
        <ele>205.4</ele>
        <time>2019-06-16T06:41:35.000Z</time>
      </trkpt>
      <trkpt lat="43.18647" lon="2.38831">
        <ele>205.3</ele>
        <time>2019-06-16T06:41:36.000Z</time>
      </trkpt>
      <trkpt lat="43.18646" lon="2.38833">
        <ele>205.3</ele>
        <time>2019-06-16T06:41:37.000Z</time>
      </trkpt>
      <trkpt lat="43.18645" lon="2.38835">
        <ele>205.3</ele>
        <time>2019-06-16T06:41:38.000Z</time>
      </trkpt>
      <trkpt lat="43.18644" lon="2.38837">
        <ele>205.3</ele>
        <time>2019-06-16T06:41:39.000Z</time>
      </trkpt>
      <trkpt lat="43.18644" lon="2.38839">
        <ele>205.3</ele>
        <time>2019-06-16T06:41:40.000Z</time>
      </trkpt>
      <trkpt lat="43.18643" lon="2.38841">
        <ele>205.3</ele>
        <time>2019-06-16T06:41:41.000Z</time>
      </trkpt>
      <trkpt lat="43.18642" lon="2.38843">
        <ele>205.3</ele>
        <time>2019-06-16T06:41:42.000Z</time>
      </trkpt>
      <trkpt lat="43.18641" lon="2.38845">
        <ele>205.4</ele>
        <time>2019-06-16T06:41:43.000Z</time>
      </trkpt>
      <trkpt lat="43.1864" lon="2.38847">
        <ele>205.4</ele>
        <time>2019-06-16T06:41:44.000Z</time>
      </trkpt>
      <trkpt lat="43.1864" lon="2.3885">
        <ele>205.4</ele>
        <time>2019-06-16T06:41:45.000Z</time>
      </trkpt>
      <trkpt lat="43.18639" lon="2.38852">
        <ele>205.5</ele>
        <time>2019-06-16T06:41:46.000Z</time>
      </trkpt>
      <trkpt lat="43.18639" lon="2.38854">
        <ele>205.6</ele>
        <time>2019-06-16T06:41:47.000Z</time>
      </trkpt>
      <trkpt lat="43.18638" lon="2.38857">
        <ele>205.6</ele>
        <time>2019-06-16T06:41:48.000Z</time>
      </trkpt>
      <trkpt lat="43.18638" lon="2.38859">
        <ele>205.7</ele>
        <time>2019-06-16T06:41:49.000Z</time>
      </trkpt>
      <trkpt lat="43.18637" lon="2.38861">
        <ele>205.8</ele>
        <time>2019-06-16T06:41:50.000Z</time>
      </trkpt>
      <trkpt lat="43.18637" lon="2.38864">
        <ele>205.8</ele>
        <time>2019-06-16T06:41:51.000Z</time>
      </trkpt>
      <trkpt lat="43.18637" lon="2.38866">
        <ele>205.9</ele>
        <time>2019-06-16T06:41:52.000Z</time>
      </trkpt>
      <trkpt lat="43.18637" lon="2.38868">
        <ele>206</ele>
        <time>2019-06-16T06:41:53.000Z</time>
      </trkpt>
      <trkpt lat="43.18636" lon="2.3887">
        <ele>206.1</ele>
        <time>2019-06-16T06:41:54.000Z</time>
      </trkpt>
      <trkpt lat="43.18636" lon="2.38872">
        <ele>206.1</ele>
        <time>2019-06-16T06:41:55.000Z</time>
      </trkpt>
      <trkpt lat="43.18636" lon="2.38874">
        <ele>206.2</ele>
        <time>2019-06-16T06:41:56.000Z</time>
      </trkpt>
      <trkpt lat="43.18636" lon="2.38876">
        <ele>206.3</ele>
        <time>2019-06-16T06:41:57.000Z</time>
      </trkpt>
      <trkpt lat="43.18636" lon="2.38878">
        <ele>206.3</ele>
        <time>2019-06-16T06:41:58.000Z</time>
      </trkpt>
      <trkpt lat="43.18635" lon="2.3888">
        <ele>206.4</ele>
        <time>2019-06-16T06:41:59.000Z</time>
      </trkpt>
      <trkpt lat="43.18635" lon="2.38882">
        <ele>206.4</ele>
        <time>2019-06-16T06:42:00.000Z</time>
      </trkpt>
      <trkpt lat="43.18634" lon="2.38885">
        <ele>206.5</ele>
        <time>2019-06-16T06:42:01.000Z</time>
      </trkpt>
      <trkpt lat="43.18634" lon="2.38887">
        <ele>206.6</ele>
        <time>2019-06-16T06:42:02.000Z</time>
      </trkpt>
      <trkpt lat="43.18633" lon="2.3889">
        <ele>206.6</ele>
        <time>2019-06-16T06:42:03.000Z</time>
      </trkpt>
      <trkpt lat="43.18633" lon="2.38892">
        <ele>206.6</ele>
        <time>2019-06-16T06:42:04.000Z</time>
      </trkpt>
      <trkpt lat="43.18632" lon="2.38894">
        <ele>206.7</ele>
        <time>2019-06-16T06:42:05.000Z</time>
      </trkpt>
      <trkpt lat="43.18632" lon="2.38896">
        <ele>206.7</ele>
        <time>2019-06-16T06:42:06.000Z</time>
      </trkpt>
      <trkpt lat="43.18631" lon="2.38898">
        <ele>206.8</ele>
        <time>2019-06-16T06:42:07.000Z</time>
      </trkpt>
      <trkpt lat="43.18631" lon="2.389">
        <ele>206.8</ele>
        <time>2019-06-16T06:42:08.000Z</time>
      </trkpt>
      <trkpt lat="43.1863" lon="2.38902">
        <ele>206.9</ele>
        <time>2019-06-16T06:42:09.000Z</time>
      </trkpt>
      <trkpt lat="43.1863" lon="2.38904">
        <ele>206.9</ele>
        <time>2019-06-16T06:42:10.000Z</time>
      </trkpt>
      <trkpt lat="43.18629" lon="2.38907">
        <ele>207</ele>
        <time>2019-06-16T06:42:11.000Z</time>
      </trkpt>
      <trkpt lat="43.18629" lon="2.38909">
        <ele>207</ele>
        <time>2019-06-16T06:42:12.000Z</time>
      </trkpt>
      <trkpt lat="43.18628" lon="2.38912">
        <ele>207.1</ele>
        <time>2019-06-16T06:42:13.000Z</time>
      </trkpt>
      <trkpt lat="43.18628" lon="2.38915">
        <ele>207.2</ele>
        <time>2019-06-16T06:42:14.000Z</time>
      </trkpt>
      <trkpt lat="43.18627" lon="2.38918">
        <ele>207.2</ele>
        <time>2019-06-16T06:42:15.000Z</time>
      </trkpt>
      <trkpt lat="43.18627" lon="2.3892">
        <ele>207.2</ele>
        <time>2019-06-16T06:42:16.000Z</time>
      </trkpt>
      <trkpt lat="43.18626" lon="2.38923">
        <ele>207.1</ele>
        <time>2019-06-16T06:42:17.000Z</time>
      </trkpt>
      <trkpt lat="43.18626" lon="2.38926">
        <ele>207.1</ele>
        <time>2019-06-16T06:42:18.000Z</time>
      </trkpt>
      <trkpt lat="43.18625" lon="2.38929">
        <ele>207</ele>
        <time>2019-06-16T06:42:19.000Z</time>
      </trkpt>
      <trkpt lat="43.18625" lon="2.38932">
        <ele>207</ele>
        <time>2019-06-16T06:42:20.000Z</time>
      </trkpt>
      <trkpt lat="43.18624" lon="2.38935">
        <ele>206.9</ele>
        <time>2019-06-16T06:42:21.000Z</time>
      </trkpt>
      <trkpt lat="43.18624" lon="2.38937">
        <ele>206.9</ele>
        <time>2019-06-16T06:42:22.000Z</time>
      </trkpt>
      <trkpt lat="43.18623" lon="2.3894">
        <ele>206.8</ele>
        <time>2019-06-16T06:42:23.000Z</time>
      </trkpt>
      <trkpt lat="43.18623" lon="2.38943">
        <ele>206.8</ele>
        <time>2019-06-16T06:42:24.000Z</time>
      </trkpt>
      <trkpt lat="43.18622" lon="2.38946">
        <ele>206.7</ele>
        <time>2019-06-16T06:42:25.000Z</time>
      </trkpt>
      <trkpt lat="43.18621" lon="2.38948">
        <ele>206.7</ele>
        <time>2019-06-16T06:42:26.000Z</time>
      </trkpt>
      <trkpt lat="43.18621" lon="2.38951">
        <ele>206.6</ele>
        <time>2019-06-16T06:42:27.000Z</time>
      </trkpt>
      <trkpt lat="43.1862" lon="2.38954">
        <ele>206.6</ele>
        <time>2019-06-16T06:42:28.000Z</time>
      </trkpt>
      <trkpt lat="43.1862" lon="2.38956">
        <ele>206.5</ele>
        <time>2019-06-16T06:42:29.000Z</time>
      </trkpt>
      <trkpt lat="43.18619" lon="2.38959">
        <ele>206.5</ele>
        <time>2019-06-16T06:42:30.000Z</time>
      </trkpt>
      <trkpt lat="43.18618" lon="2.38961">
        <ele>206.4</ele>
        <time>2019-06-16T06:42:31.000Z</time>
      </trkpt>
      <trkpt lat="43.18618" lon="2.38964">
        <ele>206.4</ele>
        <time>2019-06-16T06:42:32.000Z</time>
      </trkpt>
      <trkpt lat="43.18617" lon="2.38966">
        <ele>206.3</ele>
        <time>2019-06-16T06:42:33.000Z</time>
      </trkpt>
      <trkpt lat="43.18616" lon="2.38968">
        <ele>206.3</ele>
        <time>2019-06-16T06:42:34.000Z</time>
      </trkpt>
      <trkpt lat="43.18616" lon="2.38971">
        <ele>206.2</ele>
        <time>2019-06-16T06:42:35.000Z</time>
      </trkpt>
      <trkpt lat="43.18615" lon="2.38973">
        <ele>206.2</ele>
        <time>2019-06-16T06:42:36.000Z</time>
      </trkpt>
      <trkpt lat="43.18614" lon="2.38975">
        <ele>206.1</ele>
        <time>2019-06-16T06:42:37.000Z</time>
      </trkpt>
      <trkpt lat="43.18613" lon="2.38977">
        <ele>206.1</ele>
        <time>2019-06-16T06:42:38.000Z</time>
      </trkpt>
      <trkpt lat="43.18613" lon="2.3898">
        <ele>206</ele>
        <time>2019-06-16T06:42:39.000Z</time>
      </trkpt>
      <trkpt lat="43.18612" lon="2.38982">
        <ele>206</ele>
        <time>2019-06-16T06:42:40.000Z</time>
      </trkpt>
      <trkpt lat="43.18611" lon="2.38985">
        <ele>205.9</ele>
        <time>2019-06-16T06:42:41.000Z</time>
      </trkpt>
      <trkpt lat="43.1861" lon="2.38987">
        <ele>205.9</ele>
        <time>2019-06-16T06:42:42.000Z</time>
      </trkpt>
      <trkpt lat="43.18609" lon="2.3899">
        <ele>205.8</ele>
        <time>2019-06-16T06:42:43.000Z</time>
      </trkpt>
      <trkpt lat="43.18609" lon="2.38993">
        <ele>205.8</ele>
        <time>2019-06-16T06:42:44.000Z</time>
      </trkpt>
      <trkpt lat="43.18608" lon="2.38995">
        <ele>205.7</ele>
        <time>2019-06-16T06:42:45.000Z</time>
      </trkpt>
      <trkpt lat="43.18607" lon="2.38998">
        <ele>205.7</ele>
        <time>2019-06-16T06:42:46.000Z</time>
      </trkpt>
      <trkpt lat="43.18606" lon="2.39001">
        <ele>205.6</ele>
        <time>2019-06-16T06:42:47.000Z</time>
      </trkpt>
      <trkpt lat="43.18604" lon="2.39003">
        <ele>205.5</ele>
        <time>2019-06-16T06:42:48.000Z</time>
      </trkpt>
      <trkpt lat="43.18603" lon="2.39006">
        <ele>205.4</ele>
        <time>2019-06-16T06:42:49.000Z</time>
      </trkpt>
      <trkpt lat="43.18602" lon="2.39008">
        <ele>205.3</ele>
        <time>2019-06-16T06:42:50.000Z</time>
      </trkpt>
      <trkpt lat="43.18601" lon="2.3901">
        <ele>205.1</ele>
        <time>2019-06-16T06:42:51.000Z</time>
      </trkpt>
      <trkpt lat="43.18599" lon="2.39012">
        <ele>205</ele>
        <time>2019-06-16T06:42:52.000Z</time>
      </trkpt>
      <trkpt lat="43.18598" lon="2.39014">
        <ele>204.9</ele>
        <time>2019-06-16T06:42:53.000Z</time>
      </trkpt>
      <trkpt lat="43.18596" lon="2.39016">
        <ele>204.8</ele>
        <time>2019-06-16T06:42:54.000Z</time>
      </trkpt>
      <trkpt lat="43.18595" lon="2.39017">
        <ele>204.6</ele>
        <time>2019-06-16T06:42:55.000Z</time>
      </trkpt>
      <trkpt lat="43.18593" lon="2.39019">
        <ele>204.5</ele>
        <time>2019-06-16T06:42:56.000Z</time>
      </trkpt>
      <trkpt lat="43.18592" lon="2.3902">
        <ele>204.4</ele>
        <time>2019-06-16T06:42:57.000Z</time>
      </trkpt>
      <trkpt lat="43.18591" lon="2.39021">
        <ele>204.3</ele>
        <time>2019-06-16T06:42:58.000Z</time>
      </trkpt>
      <trkpt lat="43.18589" lon="2.39023">
        <ele>204.1</ele>
        <time>2019-06-16T06:42:59.000Z</time>
      </trkpt>
      <trkpt lat="43.18587" lon="2.39024">
        <ele>204</ele>
        <time>2019-06-16T06:43:00.000Z</time>
      </trkpt>
      <trkpt lat="43.18586" lon="2.39026">
        <ele>203.9</ele>
        <time>2019-06-16T06:43:01.000Z</time>
      </trkpt>
      <trkpt lat="43.18584" lon="2.39028">
        <ele>203.7</ele>
        <time>2019-06-16T06:43:02.000Z</time>
      </trkpt>
      <trkpt lat="43.18582" lon="2.3903">
        <ele>203.5</ele>
        <time>2019-06-16T06:43:03.000Z</time>
      </trkpt>
      <trkpt lat="43.1858" lon="2.39031">
        <ele>203.3</ele>
        <time>2019-06-16T06:43:04.000Z</time>
      </trkpt>
      <trkpt lat="43.18578" lon="2.39032">
        <ele>203.1</ele>
        <time>2019-06-16T06:43:05.000Z</time>
      </trkpt>
      <trkpt lat="43.18576" lon="2.39032">
        <ele>202.9</ele>
        <time>2019-06-16T06:43:06.000Z</time>
      </trkpt>
      <trkpt lat="43.18574" lon="2.39032">
        <ele>202.6</ele>
        <time>2019-06-16T06:43:07.000Z</time>
      </trkpt>
      <trkpt lat="43.18571" lon="2.39032">
        <ele>202.4</ele>
        <time>2019-06-16T06:43:08.000Z</time>
      </trkpt>
      <trkpt lat="43.18569" lon="2.39031">
        <ele>202.3</ele>
        <time>2019-06-16T06:43:09.000Z</time>
      </trkpt>
      <trkpt lat="43.18568" lon="2.3903">
        <ele>202.1</ele>
        <time>2019-06-16T06:43:10.000Z</time>
      </trkpt>
      <trkpt lat="43.18566" lon="2.39029">
        <ele>202</ele>
        <time>2019-06-16T06:43:11.000Z</time>
      </trkpt>
      <trkpt lat="43.18565" lon="2.39027">
        <ele>201.9</ele>
        <time>2019-06-16T06:43:12.000Z</time>
      </trkpt>
      <trkpt lat="43.18564" lon="2.39025">
        <ele>201.8</ele>
        <time>2019-06-16T06:43:13.000Z</time>
      </trkpt>
      <trkpt lat="43.18563" lon="2.39023">
        <ele>201.8</ele>
        <time>2019-06-16T06:43:14.000Z</time>
      </trkpt>
      <trkpt lat="43.18563" lon="2.39021">
        <ele>201.8</ele>
        <time>2019-06-16T06:43:15.000Z</time>
      </trkpt>
      <trkpt lat="43.18562" lon="2.39019">
        <ele>201.8</ele>
        <time>2019-06-16T06:43:16.000Z</time>
      </trkpt>
      <trkpt lat="43.18562" lon="2.39017">
        <ele>201.9</ele>
        <time>2019-06-16T06:43:17.000Z</time>
      </trkpt>
      <trkpt lat="43.18562" lon="2.39015">
        <ele>201.9</ele>
        <time>2019-06-16T06:43:18.000Z</time>
      </trkpt>
      <trkpt lat="43.18561" lon="2.39013">
        <ele>201.9</ele>
        <time>2019-06-16T06:43:19.000Z</time>
      </trkpt>
      <trkpt lat="43.18561" lon="2.39011">
        <ele>201.9</ele>
        <time>2019-06-16T06:43:20.000Z</time>
      </trkpt>
      <trkpt lat="43.1856" lon="2.39009">
        <ele>201.8</ele>
        <time>2019-06-16T06:43:21.000Z</time>
      </trkpt>
      <trkpt lat="43.18559" lon="2.39008">
        <ele>201.7</ele>
        <time>2019-06-16T06:43:22.000Z</time>
      </trkpt>
      <trkpt lat="43.18557" lon="2.39007">
        <ele>201.7</ele>
        <time>2019-06-16T06:43:23.000Z</time>
      </trkpt>
      <trkpt lat="43.18556" lon="2.39006">
        <ele>201.6</ele>
        <time>2019-06-16T06:43:24.000Z</time>
      </trkpt>
      <trkpt lat="43.18555" lon="2.39006">
        <ele>201.5</ele>
        <time>2019-06-16T06:43:25.000Z</time>
      </trkpt>
      <trkpt lat="43.18553" lon="2.39005">
        <ele>201.3</ele>
        <time>2019-06-16T06:43:26.000Z</time>
      </trkpt>
      <trkpt lat="43.18552" lon="2.39005">
        <ele>201.2</ele>
        <time>2019-06-16T06:43:27.000Z</time>
      </trkpt>
      <trkpt lat="43.18551" lon="2.39005">
        <ele>201.1</ele>
        <time>2019-06-16T06:43:28.000Z</time>
      </trkpt>
      <trkpt lat="43.1855" lon="2.39006">
        <ele>201</ele>
        <time>2019-06-16T06:43:29.000Z</time>
      </trkpt>
      <trkpt lat="43.18549" lon="2.39006">
        <ele>200.9</ele>
        <time>2019-06-16T06:43:30.000Z</time>
      </trkpt>
      <trkpt lat="43.18548" lon="2.39007">
        <ele>200.8</ele>
        <time>2019-06-16T06:43:31.000Z</time>
      </trkpt>
      <trkpt lat="43.18547" lon="2.39007">
        <ele>200.7</ele>
        <time>2019-06-16T06:43:32.000Z</time>
      </trkpt>
      <trkpt lat="43.18546" lon="2.39008">
        <ele>200.6</ele>
        <time>2019-06-16T06:43:33.000Z</time>
      </trkpt>
      <trkpt lat="43.18545" lon="2.39009">
        <ele>200.5</ele>
        <time>2019-06-16T06:43:34.000Z</time>
      </trkpt>
      <trkpt lat="43.18544" lon="2.3901">
        <ele>200.4</ele>
        <time>2019-06-16T06:43:35.000Z</time>
      </trkpt>
      <trkpt lat="43.18543" lon="2.39011">
        <ele>200.3</ele>
        <time>2019-06-16T06:43:36.000Z</time>
      </trkpt>
      <trkpt lat="43.18542" lon="2.39012">
        <ele>200.1</ele>
        <time>2019-06-16T06:43:37.000Z</time>
      </trkpt>
      <trkpt lat="43.1854" lon="2.39013">
        <ele>200</ele>
        <time>2019-06-16T06:43:38.000Z</time>
      </trkpt>
      <trkpt lat="43.18539" lon="2.39014">
        <ele>199.8</ele>
        <time>2019-06-16T06:43:39.000Z</time>
      </trkpt>
      <trkpt lat="43.18538" lon="2.39015">
        <ele>199.7</ele>
        <time>2019-06-16T06:43:40.000Z</time>
      </trkpt>
      <trkpt lat="43.18536" lon="2.39016">
        <ele>199.5</ele>
        <time>2019-06-16T06:43:41.000Z</time>
      </trkpt>
      <trkpt lat="43.18535" lon="2.39016">
        <ele>199.4</ele>
        <time>2019-06-16T06:43:42.000Z</time>
      </trkpt>
      <trkpt lat="43.18533" lon="2.39017">
        <ele>199.2</ele>
        <time>2019-06-16T06:43:43.000Z</time>
      </trkpt>
      <trkpt lat="43.18532" lon="2.39017">
        <ele>199.1</ele>
        <time>2019-06-16T06:43:44.000Z</time>
      </trkpt>
      <trkpt lat="43.1853" lon="2.39017">
        <ele>199</ele>
        <time>2019-06-16T06:43:45.000Z</time>
      </trkpt>
      <trkpt lat="43.18529" lon="2.39017">
        <ele>198.9</ele>
        <time>2019-06-16T06:43:46.000Z</time>
      </trkpt>
      <trkpt lat="43.18528" lon="2.39016">
        <ele>198.8</ele>
        <time>2019-06-16T06:43:47.000Z</time>
      </trkpt>
      <trkpt lat="43.18527" lon="2.39016">
        <ele>198.7</ele>
        <time>2019-06-16T06:43:48.000Z</time>
      </trkpt>
      <trkpt lat="43.18525" lon="2.39015">
        <ele>198.6</ele>
        <time>2019-06-16T06:43:49.000Z</time>
      </trkpt>
      <trkpt lat="43.18524" lon="2.39014">
        <ele>198.5</ele>
        <time>2019-06-16T06:43:50.000Z</time>
      </trkpt>
      <trkpt lat="43.18523" lon="2.39014">
        <ele>198.4</ele>
        <time>2019-06-16T06:43:51.000Z</time>
      </trkpt>
      <trkpt lat="43.18521" lon="2.39013">
        <ele>198.3</ele>
        <time>2019-06-16T06:43:52.000Z</time>
      </trkpt>
      <trkpt lat="43.1852" lon="2.39013">
        <ele>198.1</ele>
        <time>2019-06-16T06:43:53.000Z</time>
      </trkpt>
      <trkpt lat="43.18518" lon="2.39012">
        <ele>198</ele>
        <time>2019-06-16T06:43:54.000Z</time>
      </trkpt>
      <trkpt lat="43.18517" lon="2.39012">
        <ele>197.9</ele>
        <time>2019-06-16T06:43:55.000Z</time>
      </trkpt>
      <trkpt lat="43.18515" lon="2.39012">
        <ele>197.8</ele>
        <time>2019-06-16T06:43:56.000Z</time>
      </trkpt>
      <trkpt lat="43.18514" lon="2.39011">
        <ele>197.7</ele>
        <time>2019-06-16T06:43:57.000Z</time>
      </trkpt>
      <trkpt lat="43.18513" lon="2.39011">
        <ele>197.6</ele>
        <time>2019-06-16T06:43:58.000Z</time>
      </trkpt>
      <trkpt lat="43.18511" lon="2.3901">
        <ele>197.5</ele>
        <time>2019-06-16T06:43:59.000Z</time>
      </trkpt>
      <trkpt lat="43.1851" lon="2.3901">
        <ele>197.4</ele>
        <time>2019-06-16T06:44:00.000Z</time>
      </trkpt>
      <trkpt lat="43.18509" lon="2.39009">
        <ele>197.3</ele>
        <time>2019-06-16T06:44:01.000Z</time>
      </trkpt>
      <trkpt lat="43.18507" lon="2.39009">
        <ele>197.2</ele>
        <time>2019-06-16T06:44:02.000Z</time>
      </trkpt>
      <trkpt lat="43.18506" lon="2.39008">
        <ele>197.1</ele>
        <time>2019-06-16T06:44:03.000Z</time>
      </trkpt>
      <trkpt lat="43.18505" lon="2.39008">
        <ele>197.1</ele>
        <time>2019-06-16T06:44:04.000Z</time>
      </trkpt>
      <trkpt lat="43.18504" lon="2.39007">
        <ele>197</ele>
        <time>2019-06-16T06:44:05.000Z</time>
      </trkpt>
      <trkpt lat="43.18502" lon="2.39006">
        <ele>196.9</ele>
        <time>2019-06-16T06:44:06.000Z</time>
      </trkpt>
      <trkpt lat="43.18501" lon="2.39006">
        <ele>196.8</ele>
        <time>2019-06-16T06:44:07.000Z</time>
      </trkpt>
      <trkpt lat="43.18499" lon="2.39005">
        <ele>196.7</ele>
        <time>2019-06-16T06:44:08.000Z</time>
      </trkpt>
      <trkpt lat="43.18498" lon="2.39004">
        <ele>196.5</ele>
        <time>2019-06-16T06:44:09.000Z</time>
      </trkpt>
      <trkpt lat="43.18496" lon="2.39004">
        <ele>196.3</ele>
        <time>2019-06-16T06:44:10.000Z</time>
      </trkpt>
      <trkpt lat="43.18495" lon="2.39003">
        <ele>196.1</ele>
        <time>2019-06-16T06:44:11.000Z</time>
      </trkpt>
      <trkpt lat="43.18493" lon="2.39003">
        <ele>195.9</ele>
        <time>2019-06-16T06:44:12.000Z</time>
      </trkpt>
      <trkpt lat="43.18492" lon="2.39003">
        <ele>195.7</ele>
        <time>2019-06-16T06:44:13.000Z</time>
      </trkpt>
      <trkpt lat="43.18491" lon="2.39004">
        <ele>195.5</ele>
        <time>2019-06-16T06:44:14.000Z</time>
      </trkpt>
      <trkpt lat="43.18489" lon="2.39004">
        <ele>195.3</ele>
        <time>2019-06-16T06:44:15.000Z</time>
      </trkpt>
      <trkpt lat="43.18488" lon="2.39006">
        <ele>195.1</ele>
        <time>2019-06-16T06:44:16.000Z</time>
      </trkpt>
      <trkpt lat="43.18487" lon="2.39007">
        <ele>194.9</ele>
        <time>2019-06-16T06:44:17.000Z</time>
      </trkpt>
      <trkpt lat="43.18486" lon="2.39009">
        <ele>194.8</ele>
        <time>2019-06-16T06:44:18.000Z</time>
      </trkpt>
      <trkpt lat="43.18486" lon="2.3901">
        <ele>194.6</ele>
        <time>2019-06-16T06:44:19.000Z</time>
      </trkpt>
      <trkpt lat="43.18485" lon="2.39013">
        <ele>194.5</ele>
        <time>2019-06-16T06:44:20.000Z</time>
      </trkpt>
      <trkpt lat="43.18485" lon="2.39015">
        <ele>194.4</ele>
        <time>2019-06-16T06:44:21.000Z</time>
      </trkpt>
      <trkpt lat="43.18485" lon="2.39017">
        <ele>194.4</ele>
        <time>2019-06-16T06:44:22.000Z</time>
      </trkpt>
      <trkpt lat="43.18485" lon="2.39019">
        <ele>194.4</ele>
        <time>2019-06-16T06:44:23.000Z</time>
      </trkpt>
      <trkpt lat="43.18486" lon="2.39022">
        <ele>194.4</ele>
        <time>2019-06-16T06:44:24.000Z</time>
      </trkpt>
      <trkpt lat="43.18487" lon="2.39024">
        <ele>194.4</ele>
        <time>2019-06-16T06:44:25.000Z</time>
      </trkpt>
      <trkpt lat="43.18488" lon="2.39026">
        <ele>194.4</ele>
        <time>2019-06-16T06:44:26.000Z</time>
      </trkpt>
      <trkpt lat="43.18489" lon="2.39028">
        <ele>194.5</ele>
        <time>2019-06-16T06:44:27.000Z</time>
      </trkpt>
      <trkpt lat="43.1849" lon="2.39029">
        <ele>194.5</ele>
        <time>2019-06-16T06:44:28.000Z</time>
      </trkpt>
      <trkpt lat="43.1849" lon="2.39031">
        <ele>194.6</ele>
        <time>2019-06-16T06:44:29.000Z</time>
      </trkpt>
      <trkpt lat="43.18491" lon="2.39032">
        <ele>194.6</ele>
        <time>2019-06-16T06:44:30.000Z</time>
      </trkpt>
      <trkpt lat="43.18493" lon="2.39033">
        <ele>194.7</ele>
        <time>2019-06-16T06:44:31.000Z</time>
      </trkpt>
      <trkpt lat="43.18494" lon="2.39034">
        <ele>194.8</ele>
        <time>2019-06-16T06:44:32.000Z</time>
      </trkpt>
      <trkpt lat="43.18496" lon="2.39035">
        <ele>194.9</ele>
        <time>2019-06-16T06:44:33.000Z</time>
      </trkpt>
      <trkpt lat="43.18497" lon="2.39037">
        <ele>195</ele>
        <time>2019-06-16T06:44:34.000Z</time>
      </trkpt>
      <trkpt lat="43.18498" lon="2.39038">
        <ele>195</ele>
        <time>2019-06-16T06:44:35.000Z</time>
      </trkpt>
      <trkpt lat="43.18499" lon="2.3904">
        <ele>195</ele>
        <time>2019-06-16T06:44:36.000Z</time>
      </trkpt>
      <trkpt lat="43.185" lon="2.39042">
        <ele>195</ele>
        <time>2019-06-16T06:44:37.000Z</time>
      </trkpt>
      <trkpt lat="43.185" lon="2.39044">
        <ele>194.9</ele>
        <time>2019-06-16T06:44:38.000Z</time>
      </trkpt>
      <trkpt lat="43.185" lon="2.39046">
        <ele>194.8</ele>
        <time>2019-06-16T06:44:39.000Z</time>
      </trkpt>
      <trkpt lat="43.18501" lon="2.39048">
        <ele>194.7</ele>
        <time>2019-06-16T06:44:40.000Z</time>
      </trkpt>
      <trkpt lat="43.18501" lon="2.3905">
        <ele>194.7</ele>
        <time>2019-06-16T06:44:41.000Z</time>
      </trkpt>
      <trkpt lat="43.18501" lon="2.39052">
        <ele>194.6</ele>
        <time>2019-06-16T06:44:42.000Z</time>
      </trkpt>
      <trkpt lat="43.18502" lon="2.39055">
        <ele>194.6</ele>
        <time>2019-06-16T06:44:43.000Z</time>
      </trkpt>
      <trkpt lat="43.18502" lon="2.39057">
        <ele>194.5</ele>
        <time>2019-06-16T06:44:44.000Z</time>
      </trkpt>
      <trkpt lat="43.18503" lon="2.39058">
        <ele>194.5</ele>
        <time>2019-06-16T06:44:45.000Z</time>
      </trkpt>
      <trkpt lat="43.18504" lon="2.3906">
        <ele>194.5</ele>
        <time>2019-06-16T06:44:46.000Z</time>
      </trkpt>
      <trkpt lat="43.18505" lon="2.39062">
        <ele>194.5</ele>
        <time>2019-06-16T06:44:47.000Z</time>
      </trkpt>
      <trkpt lat="43.18505" lon="2.39063">
        <ele>194.6</ele>
        <time>2019-06-16T06:44:48.000Z</time>
      </trkpt>
      <trkpt lat="43.18506" lon="2.39064">
        <ele>194.6</ele>
        <time>2019-06-16T06:44:49.000Z</time>
      </trkpt>
      <trkpt lat="43.18507" lon="2.39065">
        <ele>194.7</ele>
        <time>2019-06-16T06:44:50.000Z</time>
      </trkpt>
      <trkpt lat="43.18508" lon="2.39066">
        <ele>194.8</ele>
        <time>2019-06-16T06:44:51.000Z</time>
      </trkpt>
      <trkpt lat="43.1851" lon="2.39067">
        <ele>194.9</ele>
        <time>2019-06-16T06:44:52.000Z</time>
      </trkpt>
      <trkpt lat="43.18511" lon="2.39068">
        <ele>195</ele>
        <time>2019-06-16T06:44:53.000Z</time>
      </trkpt>
      <trkpt lat="43.18512" lon="2.39068">
        <ele>195.1</ele>
        <time>2019-06-16T06:44:54.000Z</time>
      </trkpt>
      <trkpt lat="43.18513" lon="2.39069">
        <ele>195.2</ele>
        <time>2019-06-16T06:44:55.000Z</time>
      </trkpt>
      <trkpt lat="43.18515" lon="2.39069">
        <ele>195.3</ele>
        <time>2019-06-16T06:44:56.000Z</time>
      </trkpt>
      <trkpt lat="43.18516" lon="2.3907">
        <ele>195.5</ele>
        <time>2019-06-16T06:44:57.000Z</time>
      </trkpt>
      <trkpt lat="43.18517" lon="2.3907">
        <ele>195.6</ele>
        <time>2019-06-16T06:44:58.000Z</time>
      </trkpt>
      <trkpt lat="43.18519" lon="2.39071">
        <ele>195.8</ele>
        <time>2019-06-16T06:44:59.000Z</time>
      </trkpt>
      <trkpt lat="43.1852" lon="2.39071">
        <ele>195.9</ele>
        <time>2019-06-16T06:45:00.000Z</time>
      </trkpt>
      <trkpt lat="43.18522" lon="2.39072">
        <ele>196</ele>
        <time>2019-06-16T06:45:01.000Z</time>
      </trkpt>
      <trkpt lat="43.18523" lon="2.39073">
        <ele>196.2</ele>
        <time>2019-06-16T06:45:02.000Z</time>
      </trkpt>
      <trkpt lat="43.18524" lon="2.39073">
        <ele>196.3</ele>
        <time>2019-06-16T06:45:03.000Z</time>
      </trkpt>
      <trkpt lat="43.18526" lon="2.39074">
        <ele>196.4</ele>
        <time>2019-06-16T06:45:04.000Z</time>
      </trkpt>
      <trkpt lat="43.18527" lon="2.39075">
        <ele>196.5</ele>
        <time>2019-06-16T06:45:05.000Z</time>
      </trkpt>
      <trkpt lat="43.18528" lon="2.39076">
        <ele>196.6</ele>
        <time>2019-06-16T06:45:06.000Z</time>
      </trkpt>
      <trkpt lat="43.18529" lon="2.39077">
        <ele>196.7</ele>
        <time>2019-06-16T06:45:07.000Z</time>
      </trkpt>
      <trkpt lat="43.1853" lon="2.39079">
        <ele>196.7</ele>
        <time>2019-06-16T06:45:08.000Z</time>
      </trkpt>
      <trkpt lat="43.1853" lon="2.39081">
        <ele>196.7</ele>
        <time>2019-06-16T06:45:09.000Z</time>
      </trkpt>
      <trkpt lat="43.18531" lon="2.39083">
        <ele>196.7</ele>
        <time>2019-06-16T06:45:10.000Z</time>
      </trkpt>
      <trkpt lat="43.18531" lon="2.39086">
        <ele>196.8</ele>
        <time>2019-06-16T06:45:11.000Z</time>
      </trkpt>
      <trkpt lat="43.18531" lon="2.39088">
        <ele>197</ele>
        <time>2019-06-16T06:45:12.000Z</time>
      </trkpt>
      <trkpt lat="43.1853" lon="2.39091">
        <ele>197</ele>
        <time>2019-06-16T06:45:13.000Z</time>
      </trkpt>
      <trkpt lat="43.1853" lon="2.39093">
        <ele>197.1</ele>
        <time>2019-06-16T06:45:14.000Z</time>
      </trkpt>
      <trkpt lat="43.18529" lon="2.39094">
        <ele>197.1</ele>
        <time>2019-06-16T06:45:15.000Z</time>
      </trkpt>
      <trkpt lat="43.18528" lon="2.39095">
        <ele>197</ele>
        <time>2019-06-16T06:45:16.000Z</time>
      </trkpt>
      <trkpt lat="43.18527" lon="2.39095">
        <ele>196.9</ele>
        <time>2019-06-16T06:45:17.000Z</time>
      </trkpt>
      <trkpt lat="43.18526" lon="2.39095">
        <ele>196.8</ele>
        <time>2019-06-16T06:45:18.000Z</time>
      </trkpt>
      <trkpt lat="43.18525" lon="2.39096">
        <ele>196.7</ele>
        <time>2019-06-16T06:45:19.000Z</time>
      </trkpt>
      <trkpt lat="43.18524" lon="2.39096">
        <ele>196.6</ele>
        <time>2019-06-16T06:45:20.000Z</time>
      </trkpt>
      <trkpt lat="43.18523" lon="2.39097">
        <ele>196.5</ele>
        <time>2019-06-16T06:45:21.000Z</time>
      </trkpt>
      <trkpt lat="43.18522" lon="2.39097">
        <ele>196.4</ele>
        <time>2019-06-16T06:45:22.000Z</time>
      </trkpt>
      <trkpt lat="43.18521" lon="2.39098">
        <ele>196.4</ele>
        <time>2019-06-16T06:45:23.000Z</time>
      </trkpt>
      <trkpt lat="43.1852" lon="2.39099">
        <ele>196.3</ele>
        <time>2019-06-16T06:45:24.000Z</time>
      </trkpt>
      <trkpt lat="43.1852" lon="2.391">
        <ele>196.3</ele>
        <time>2019-06-16T06:45:25.000Z</time>
      </trkpt>
      <trkpt lat="43.1852" lon="2.39101">
        <ele>196.4</ele>
        <time>2019-06-16T06:45:26.000Z</time>
      </trkpt>
      <trkpt lat="43.1852" lon="2.39102">
        <ele>196.5</ele>
        <time>2019-06-16T06:45:27.000Z</time>
      </trkpt>
      <trkpt lat="43.18521" lon="2.39102">
        <ele>196.6</ele>
        <time>2019-06-16T06:45:28.000Z</time>
      </trkpt>
      <trkpt lat="43.18521" lon="2.39103">
        <ele>196.7</ele>
        <time>2019-06-16T06:45:29.000Z</time>
      </trkpt>
      <trkpt lat="43.18522" lon="2.39104">
        <ele>196.8</ele>
        <time>2019-06-16T06:45:30.000Z</time>
      </trkpt>
      <trkpt lat="43.18523" lon="2.39105">
        <ele>197</ele>
        <time>2019-06-16T06:45:31.000Z</time>
      </trkpt>
      <trkpt lat="43.18525" lon="2.39105">
        <ele>197.2</ele>
        <time>2019-06-16T06:45:32.000Z</time>
      </trkpt>
      <trkpt lat="43.18526" lon="2.39106">
        <ele>197.4</ele>
        <time>2019-06-16T06:45:33.000Z</time>
      </trkpt>
      <trkpt lat="43.18527" lon="2.39106">
        <ele>197.6</ele>
        <time>2019-06-16T06:45:34.000Z</time>
      </trkpt>
      <trkpt lat="43.18529" lon="2.39107">
        <ele>197.7</ele>
        <time>2019-06-16T06:45:35.000Z</time>
      </trkpt>
      <trkpt lat="43.1853" lon="2.39107">
        <ele>197.9</ele>
        <time>2019-06-16T06:45:36.000Z</time>
      </trkpt>
      <trkpt lat="43.18531" lon="2.39108">
        <ele>198.1</ele>
        <time>2019-06-16T06:45:37.000Z</time>
      </trkpt>
      <trkpt lat="43.18533" lon="2.39108">
        <ele>198.3</ele>
        <time>2019-06-16T06:45:38.000Z</time>
      </trkpt>
      <trkpt lat="43.18534" lon="2.39108">
        <ele>198.5</ele>
        <time>2019-06-16T06:45:39.000Z</time>
      </trkpt>
      <trkpt lat="43.18536" lon="2.39109">
        <ele>198.7</ele>
        <time>2019-06-16T06:45:40.000Z</time>
      </trkpt>
      <trkpt lat="43.18537" lon="2.39109">
        <ele>198.9</ele>
        <time>2019-06-16T06:45:41.000Z</time>
      </trkpt>
      <trkpt lat="43.18539" lon="2.39109">
        <ele>199.1</ele>
        <time>2019-06-16T06:45:42.000Z</time>
      </trkpt>
      <trkpt lat="43.18541" lon="2.3911">
        <ele>199.3</ele>
        <time>2019-06-16T06:45:43.000Z</time>
      </trkpt>
      <trkpt lat="43.18542" lon="2.39111">
        <ele>199.5</ele>
        <time>2019-06-16T06:45:44.000Z</time>
      </trkpt>
      <trkpt lat="43.18544" lon="2.39112">
        <ele>199.8</ele>
        <time>2019-06-16T06:45:45.000Z</time>
      </trkpt>
      <trkpt lat="43.18546" lon="2.39112">
        <ele>200</ele>
        <time>2019-06-16T06:45:46.000Z</time>
      </trkpt>
      <trkpt lat="43.18548" lon="2.39113">
        <ele>200.3</ele>
        <time>2019-06-16T06:45:47.000Z</time>
      </trkpt>
      <trkpt lat="43.18549" lon="2.39115">
        <ele>200.6</ele>
        <time>2019-06-16T06:45:48.000Z</time>
      </trkpt>
      <trkpt lat="43.18551" lon="2.39116">
        <ele>200.8</ele>
        <time>2019-06-16T06:45:49.000Z</time>
      </trkpt>
      <trkpt lat="43.18553" lon="2.39117">
        <ele>201.1</ele>
        <time>2019-06-16T06:45:50.000Z</time>
      </trkpt>
      <trkpt lat="43.18554" lon="2.39118">
        <ele>201.3</ele>
        <time>2019-06-16T06:45:51.000Z</time>
      </trkpt>
      <trkpt lat="43.18556" lon="2.3912">
        <ele>201.6</ele>
        <time>2019-06-16T06:45:52.000Z</time>
      </trkpt>
      <trkpt lat="43.18557" lon="2.39122">
        <ele>201.9</ele>
        <time>2019-06-16T06:45:53.000Z</time>
      </trkpt>
      <trkpt lat="43.18559" lon="2.39123">
        <ele>202.1</ele>
        <time>2019-06-16T06:45:54.000Z</time>
      </trkpt>
      <trkpt lat="43.1856" lon="2.39125">
        <ele>202.4</ele>
        <time>2019-06-16T06:45:55.000Z</time>
      </trkpt>
      <trkpt lat="43.18561" lon="2.39127">
        <ele>202.6</ele>
        <time>2019-06-16T06:45:56.000Z</time>
      </trkpt>
      <trkpt lat="43.18562" lon="2.39129">
        <ele>202.8</ele>
        <time>2019-06-16T06:45:57.000Z</time>
      </trkpt>
      <trkpt lat="43.18563" lon="2.39131">
        <ele>203</ele>
        <time>2019-06-16T06:45:58.000Z</time>
      </trkpt>
      <trkpt lat="43.18564" lon="2.39133">
        <ele>203.2</ele>
        <time>2019-06-16T06:45:59.000Z</time>
      </trkpt>
      <trkpt lat="43.18564" lon="2.39136">
        <ele>203.4</ele>
        <time>2019-06-16T06:46:00.000Z</time>
      </trkpt>
      <trkpt lat="43.18565" lon="2.39138">
        <ele>203.6</ele>
        <time>2019-06-16T06:46:01.000Z</time>
      </trkpt>
      <trkpt lat="43.18565" lon="2.39141">
        <ele>203.7</ele>
        <time>2019-06-16T06:46:02.000Z</time>
      </trkpt>
      <trkpt lat="43.18565" lon="2.39143">
        <ele>203.9</ele>
        <time>2019-06-16T06:46:03.000Z</time>
      </trkpt>
      <trkpt lat="43.18566" lon="2.39146">
        <ele>204</ele>
        <time>2019-06-16T06:46:04.000Z</time>
      </trkpt>
      <trkpt lat="43.18566" lon="2.39149">
        <ele>204.2</ele>
        <time>2019-06-16T06:46:05.000Z</time>
      </trkpt>
      <trkpt lat="43.18566" lon="2.39152">
        <ele>204.3</ele>
        <time>2019-06-16T06:46:06.000Z</time>
      </trkpt>
      <trkpt lat="43.18566" lon="2.39155">
        <ele>204.5</ele>
        <time>2019-06-16T06:46:07.000Z</time>
      </trkpt>
      <trkpt lat="43.18566" lon="2.39158">
        <ele>204.6</ele>
        <time>2019-06-16T06:46:08.000Z</time>
      </trkpt>
      <trkpt lat="43.18565" lon="2.39161">
        <ele>204.8</ele>
        <time>2019-06-16T06:46:09.000Z</time>
      </trkpt>
      <trkpt lat="43.18565" lon="2.39164">
        <ele>204.9</ele>
        <time>2019-06-16T06:46:10.000Z</time>
      </trkpt>
      <trkpt lat="43.18565" lon="2.39166">
        <ele>205</ele>
        <time>2019-06-16T06:46:11.000Z</time>
      </trkpt>
      <trkpt lat="43.18565" lon="2.39169">
        <ele>205.2</ele>
        <time>2019-06-16T06:46:12.000Z</time>
      </trkpt>
      <trkpt lat="43.18565" lon="2.39172">
        <ele>205.3</ele>
        <time>2019-06-16T06:46:13.000Z</time>
      </trkpt>
      <trkpt lat="43.18565" lon="2.39175">
        <ele>205.5</ele>
        <time>2019-06-16T06:46:14.000Z</time>
      </trkpt>
      <trkpt lat="43.18565" lon="2.39178">
        <ele>205.6</ele>
        <time>2019-06-16T06:46:15.000Z</time>
      </trkpt>
      <trkpt lat="43.18565" lon="2.3918">
        <ele>205.8</ele>
        <time>2019-06-16T06:46:16.000Z</time>
      </trkpt>
      <trkpt lat="43.18565" lon="2.39183">
        <ele>205.9</ele>
        <time>2019-06-16T06:46:17.000Z</time>
      </trkpt>
      <trkpt lat="43.18564" lon="2.39185">
        <ele>206</ele>
        <time>2019-06-16T06:46:18.000Z</time>
      </trkpt>
      <trkpt lat="43.18564" lon="2.39188">
        <ele>206.2</ele>
        <time>2019-06-16T06:46:19.000Z</time>
      </trkpt>
      <trkpt lat="43.18564" lon="2.3919">
        <ele>206.3</ele>
        <time>2019-06-16T06:46:20.000Z</time>
      </trkpt>
      <trkpt lat="43.18564" lon="2.39193">
        <ele>206.4</ele>
        <time>2019-06-16T06:46:21.000Z</time>
      </trkpt>
      <trkpt lat="43.18564" lon="2.39195">
        <ele>206.5</ele>
        <time>2019-06-16T06:46:22.000Z</time>
      </trkpt>
      <trkpt lat="43.18564" lon="2.39197">
        <ele>206.6</ele>
        <time>2019-06-16T06:46:23.000Z</time>
      </trkpt>
      <trkpt lat="43.18563" lon="2.392">
        <ele>206.7</ele>
        <time>2019-06-16T06:46:24.000Z</time>
      </trkpt>
      <trkpt lat="43.18563" lon="2.39202">
        <ele>206.8</ele>
        <time>2019-06-16T06:46:25.000Z</time>
      </trkpt>
      <trkpt lat="43.18563" lon="2.39204">
        <ele>206.9</ele>
        <time>2019-06-16T06:46:26.000Z</time>
      </trkpt>
      <trkpt lat="43.18563" lon="2.39207">
        <ele>207</ele>
        <time>2019-06-16T06:46:27.000Z</time>
      </trkpt>
      <trkpt lat="43.18562" lon="2.39209">
        <ele>207.1</ele>
        <time>2019-06-16T06:46:28.000Z</time>
      </trkpt>
      <trkpt lat="43.18562" lon="2.39212">
        <ele>207.2</ele>
        <time>2019-06-16T06:46:29.000Z</time>
      </trkpt>
      <trkpt lat="43.18561" lon="2.39214">
        <ele>207.3</ele>
        <time>2019-06-16T06:46:30.000Z</time>
      </trkpt>
      <trkpt lat="43.18561" lon="2.39217">
        <ele>207.4</ele>
        <time>2019-06-16T06:46:31.000Z</time>
      </trkpt>
      <trkpt lat="43.1856" lon="2.39219">
        <ele>207.4</ele>
        <time>2019-06-16T06:46:32.000Z</time>
      </trkpt>
      <trkpt lat="43.18559" lon="2.39222">
        <ele>207.5</ele>
        <time>2019-06-16T06:46:33.000Z</time>
      </trkpt>
      <trkpt lat="43.18559" lon="2.39224">
        <ele>207.6</ele>
        <time>2019-06-16T06:46:34.000Z</time>
      </trkpt>
      <trkpt lat="43.18558" lon="2.39227">
        <ele>207.6</ele>
        <time>2019-06-16T06:46:35.000Z</time>
      </trkpt>
      <trkpt lat="43.18557" lon="2.39229">
        <ele>207.7</ele>
        <time>2019-06-16T06:46:36.000Z</time>
      </trkpt>
      <trkpt lat="43.18557" lon="2.39232">
        <ele>207.8</ele>
        <time>2019-06-16T06:46:37.000Z</time>
      </trkpt>
      <trkpt lat="43.18556" lon="2.39235">
        <ele>207.8</ele>
        <time>2019-06-16T06:46:38.000Z</time>
      </trkpt>
      <trkpt lat="43.18555" lon="2.39238">
        <ele>207.9</ele>
        <time>2019-06-16T06:46:39.000Z</time>
      </trkpt>
      <trkpt lat="43.18554" lon="2.3924">
        <ele>208</ele>
        <time>2019-06-16T06:46:40.000Z</time>
      </trkpt>
      <trkpt lat="43.18553" lon="2.39243">
        <ele>208</ele>
        <time>2019-06-16T06:46:41.000Z</time>
      </trkpt>
      <trkpt lat="43.18552" lon="2.39246">
        <ele>208</ele>
        <time>2019-06-16T06:46:42.000Z</time>
      </trkpt>
      <trkpt lat="43.18551" lon="2.39248">
        <ele>208</ele>
        <time>2019-06-16T06:46:43.000Z</time>
      </trkpt>
      <trkpt lat="43.18549" lon="2.3925">
        <ele>207.9</ele>
        <time>2019-06-16T06:46:44.000Z</time>
      </trkpt>
      <trkpt lat="43.18548" lon="2.39252">
        <ele>207.8</ele>
        <time>2019-06-16T06:46:45.000Z</time>
      </trkpt>
      <trkpt lat="43.18546" lon="2.39254">
        <ele>207.7</ele>
        <time>2019-06-16T06:46:46.000Z</time>
      </trkpt>
      <trkpt lat="43.18544" lon="2.39256">
        <ele>207.5</ele>
        <time>2019-06-16T06:46:47.000Z</time>
      </trkpt>
      <trkpt lat="43.18542" lon="2.39258">
        <ele>207.4</ele>
        <time>2019-06-16T06:46:48.000Z</time>
      </trkpt>
      <trkpt lat="43.18541" lon="2.3926">
        <ele>207.2</ele>
        <time>2019-06-16T06:46:49.000Z</time>
      </trkpt>
      <trkpt lat="43.18539" lon="2.39261">
        <ele>207.1</ele>
        <time>2019-06-16T06:46:50.000Z</time>
      </trkpt>
      <trkpt lat="43.18537" lon="2.39262">
        <ele>206.9</ele>
        <time>2019-06-16T06:46:51.000Z</time>
      </trkpt>
      <trkpt lat="43.18535" lon="2.39264">
        <ele>206.7</ele>
        <time>2019-06-16T06:46:52.000Z</time>
      </trkpt>
      <trkpt lat="43.18533" lon="2.39265">
        <ele>206.5</ele>
        <time>2019-06-16T06:46:53.000Z</time>
      </trkpt>
      <trkpt lat="43.18531" lon="2.39266">
        <ele>206.3</ele>
        <time>2019-06-16T06:46:54.000Z</time>
      </trkpt>
      <trkpt lat="43.1853" lon="2.39267">
        <ele>206.2</ele>
        <time>2019-06-16T06:46:55.000Z</time>
      </trkpt>
      <trkpt lat="43.18528" lon="2.39268">
        <ele>206</ele>
        <time>2019-06-16T06:46:56.000Z</time>
      </trkpt>
      <trkpt lat="43.18526" lon="2.39269">
        <ele>205.8</ele>
        <time>2019-06-16T06:46:57.000Z</time>
      </trkpt>
      <trkpt lat="43.18525" lon="2.39269">
        <ele>205.6</ele>
        <time>2019-06-16T06:46:58.000Z</time>
      </trkpt>
      <trkpt lat="43.18523" lon="2.3927">
        <ele>205.5</ele>
        <time>2019-06-16T06:46:59.000Z</time>
      </trkpt>
      <trkpt lat="43.18521" lon="2.39271">
        <ele>205.3</ele>
        <time>2019-06-16T06:47:00.000Z</time>
      </trkpt>
      <trkpt lat="43.1852" lon="2.39272">
        <ele>205.2</ele>
        <time>2019-06-16T06:47:01.000Z</time>
      </trkpt>
      <trkpt lat="43.18519" lon="2.39273">
        <ele>205.1</ele>
        <time>2019-06-16T06:47:02.000Z</time>
      </trkpt>
      <trkpt lat="43.18517" lon="2.39274">
        <ele>204.9</ele>
        <time>2019-06-16T06:47:03.000Z</time>
      </trkpt>
      <trkpt lat="43.18516" lon="2.39276">
        <ele>204.8</ele>
        <time>2019-06-16T06:47:04.000Z</time>
      </trkpt>
      <trkpt lat="43.18515" lon="2.39277">
        <ele>204.7</ele>
        <time>2019-06-16T06:47:05.000Z</time>
      </trkpt>
      <trkpt lat="43.18513" lon="2.39278">
        <ele>204.6</ele>
        <time>2019-06-16T06:47:06.000Z</time>
      </trkpt>
      <trkpt lat="43.18512" lon="2.39278">
        <ele>204.5</ele>
        <time>2019-06-16T06:47:07.000Z</time>
      </trkpt>
      <trkpt lat="43.18512" lon="2.39279">
        <ele>204.4</ele>
        <time>2019-06-16T06:47:08.000Z</time>
      </trkpt>
      <trkpt lat="43.18511" lon="2.39278">
        <ele>204.3</ele>
        <time>2019-06-16T06:47:09.000Z</time>
      </trkpt>
      <trkpt lat="43.18511" lon="2.39278">
        <ele>204.3</ele>
        <time>2019-06-16T06:47:10.000Z</time>
      </trkpt>
      <trkpt lat="43.1851" lon="2.39278">
        <ele>204.2</ele>
        <time>2019-06-16T06:47:11.000Z</time>
      </trkpt>
      <trkpt lat="43.1851" lon="2.39278">
        <ele>204.2</ele>
        <time>2019-06-16T06:47:12.000Z</time>
      </trkpt>
      <trkpt lat="43.1851" lon="2.39278">
        <ele>204.2</ele>
        <time>2019-06-16T06:47:13.000Z</time>
      </trkpt>
      <trkpt lat="43.1851" lon="2.39278">
        <ele>204.2</ele>
        <time>2019-06-16T06:47:14.000Z</time>
      </trkpt>
      <trkpt lat="43.1851" lon="2.39278">
        <ele>204.2</ele>
        <time>2019-06-16T06:47:15.000Z</time>
      </trkpt>
      <trkpt lat="43.1851" lon="2.39278">
        <ele>204.2</ele>
        <time>2019-06-16T06:47:16.000Z</time>
      </trkpt>
      <trkpt lat="43.1851" lon="2.39277">
        <ele>204.2</ele>
        <time>2019-06-16T06:47:17.000Z</time>
      </trkpt>
      <trkpt lat="43.1851" lon="2.39277">
        <ele>204.1</ele>
        <time>2019-06-16T06:47:18.000Z</time>
      </trkpt>
      <trkpt lat="43.1851" lon="2.39277">
        <ele>204.1</ele>
        <time>2019-06-16T06:47:19.000Z</time>
      </trkpt>
      <trkpt lat="43.18509" lon="2.39276">
        <ele>204.1</ele>
        <time>2019-06-16T06:47:20.000Z</time>
      </trkpt>
      <trkpt lat="43.1851" lon="2.39276">
        <ele>204.1</ele>
        <time>2019-06-16T06:47:21.000Z</time>
      </trkpt>
      <trkpt lat="43.1851" lon="2.39276">
        <ele>204.1</ele>
        <time>2019-06-16T06:47:22.000Z</time>
      </trkpt>
      <trkpt lat="43.1851" lon="2.39276">
        <ele>204.1</ele>
        <time>2019-06-16T06:47:23.000Z</time>
      </trkpt>
      <trkpt lat="43.1851" lon="2.39276">
        <ele>204.1</ele>
        <time>2019-06-16T06:47:24.000Z</time>
      </trkpt>
      <trkpt lat="43.1851" lon="2.39276">
        <ele>204.1</ele>
        <time>2019-06-16T06:47:25.000Z</time>
      </trkpt>
      <trkpt lat="43.1851" lon="2.39276">
        <ele>204.1</ele>
        <time>2019-06-16T06:47:26.000Z</time>
      </trkpt>
      <trkpt lat="43.1851" lon="2.39276">
        <ele>204.1</ele>
        <time>2019-06-16T06:47:27.000Z</time>
      </trkpt>
      <trkpt lat="43.1851" lon="2.39276">
        <ele>204.1</ele>
        <time>2019-06-16T06:47:28.000Z</time>
      </trkpt>
      <trkpt lat="43.1851" lon="2.39276">
        <ele>204.1</ele>
        <time>2019-06-16T06:47:29.000Z</time>
      </trkpt>
      <trkpt lat="43.1851" lon="2.39276">
        <ele>204.1</ele>
        <time>2019-06-16T06:47:30.000Z</time>
      </trkpt>
      <trkpt lat="43.1851" lon="2.39276">
        <ele>204.1</ele>
        <time>2019-06-16T06:47:31.000Z</time>
      </trkpt>
      <trkpt lat="43.1851" lon="2.39276">
        <ele>204.1</ele>
        <time>2019-06-16T06:47:32.000Z</time>
      </trkpt>
      <trkpt lat="43.1851" lon="2.39276">
        <ele>204.1</ele>
        <time>2019-06-16T06:47:33.000Z</time>
      </trkpt>
      <trkpt lat="43.1851" lon="2.39276">
        <ele>204.1</ele>
        <time>2019-06-16T06:47:34.000Z</time>
      </trkpt>
      <trkpt lat="43.1851" lon="2.39276">
        <ele>204.1</ele>
        <time>2019-06-16T06:47:35.000Z</time>
      </trkpt>
      <trkpt lat="43.1851" lon="2.39276">
        <ele>204.1</ele>
        <time>2019-06-16T06:47:36.000Z</time>
      </trkpt>
      <trkpt lat="43.1851" lon="2.39276">
        <ele>204.1</ele>
        <time>2019-06-16T06:47:37.000Z</time>
      </trkpt>
      <trkpt lat="43.1851" lon="2.39276">
        <ele>204.1</ele>
        <time>2019-06-16T06:47:38.000Z</time>
      </trkpt>
      <trkpt lat="43.1851" lon="2.39276">
        <ele>204.1</ele>
        <time>2019-06-16T06:47:39.000Z</time>
      </trkpt>
      <trkpt lat="43.1851" lon="2.39276">
        <ele>204.1</ele>
        <time>2019-06-16T06:47:40.000Z</time>
      </trkpt>
      <trkpt lat="43.1851" lon="2.39276">
        <ele>204.1</ele>
        <time>2019-06-16T06:47:41.000Z</time>
      </trkpt>
      <trkpt lat="43.1851" lon="2.39276">
        <ele>204.1</ele>
        <time>2019-06-16T06:47:42.000Z</time>
      </trkpt>
      <trkpt lat="43.1851" lon="2.39276">
        <ele>204.1</ele>
        <time>2019-06-16T06:47:43.000Z</time>
      </trkpt>
      <trkpt lat="43.1851" lon="2.39276">
        <ele>204.1</ele>
        <time>2019-06-16T06:47:44.000Z</time>
      </trkpt>
      <trkpt lat="43.1851" lon="2.39276">
        <ele>204.1</ele>
        <time>2019-06-16T06:47:45.000Z</time>
      </trkpt>
      <trkpt lat="43.1851" lon="2.39276">
        <ele>204.1</ele>
        <time>2019-06-16T06:47:46.000Z</time>
      </trkpt>
      <trkpt lat="43.1851" lon="2.39276">
        <ele>204.1</ele>
        <time>2019-06-16T06:47:47.000Z</time>
      </trkpt>
      <trkpt lat="43.1851" lon="2.39276">
        <ele>204.1</ele>
        <time>2019-06-16T06:47:48.000Z</time>
      </trkpt>
      <trkpt lat="43.1851" lon="2.39276">
        <ele>204.1</ele>
        <time>2019-06-16T06:47:49.000Z</time>
      </trkpt>
      <trkpt lat="43.1851" lon="2.39276">
        <ele>204.1</ele>
        <time>2019-06-16T06:47:50.000Z</time>
      </trkpt>
      <trkpt lat="43.1851" lon="2.39276">
        <ele>204.1</ele>
        <time>2019-06-16T06:47:51.000Z</time>
      </trkpt>
      <trkpt lat="43.1851" lon="2.39276">
        <ele>204.1</ele>
        <time>2019-06-16T06:47:52.000Z</time>
      </trkpt>
      <trkpt lat="43.1851" lon="2.39276">
        <ele>204.1</ele>
        <time>2019-06-16T06:47:53.000Z</time>
      </trkpt>
      <trkpt lat="43.1851" lon="2.39276">
        <ele>204.1</ele>
        <time>2019-06-16T06:47:54.000Z</time>
      </trkpt>
      <trkpt lat="43.1851" lon="2.39276">
        <ele>204.1</ele>
        <time>2019-06-16T06:47:55.000Z</time>
      </trkpt>
      <trkpt lat="43.1851" lon="2.39276">
        <ele>204.1</ele>
        <time>2019-06-16T06:47:56.000Z</time>
      </trkpt>
      <trkpt lat="43.1851" lon="2.39276">
        <ele>204.1</ele>
        <time>2019-06-16T06:47:57.000Z</time>
      </trkpt>
      <trkpt lat="43.1851" lon="2.39276">
        <ele>204.1</ele>
        <time>2019-06-16T06:47:58.000Z</time>
      </trkpt>
      <trkpt lat="43.1851" lon="2.39276">
        <ele>204.1</ele>
        <time>2019-06-16T06:47:59.000Z</time>
      </trkpt>
      <trkpt lat="43.1851" lon="2.39276">
        <ele>204.1</ele>
        <time>2019-06-16T06:48:00.000Z</time>
      </trkpt>
      <trkpt lat="43.1851" lon="2.39276">
        <ele>204.1</ele>
        <time>2019-06-16T06:48:01.000Z</time>
      </trkpt>
      <trkpt lat="43.1851" lon="2.39276">
        <ele>204.1</ele>
        <time>2019-06-16T06:48:02.000Z</time>
      </trkpt>
      <trkpt lat="43.1851" lon="2.39276">
        <ele>204.1</ele>
        <time>2019-06-16T06:48:03.000Z</time>
      </trkpt>
      <trkpt lat="43.1851" lon="2.39276">
        <ele>204.1</ele>
        <time>2019-06-16T06:48:04.000Z</time>
      </trkpt>
      <trkpt lat="43.1851" lon="2.39276">
        <ele>204.1</ele>
        <time>2019-06-16T06:48:05.000Z</time>
      </trkpt>
      <trkpt lat="43.1851" lon="2.39276">
        <ele>204.1</ele>
        <time>2019-06-16T06:48:06.000Z</time>
      </trkpt>
      <trkpt lat="43.1851" lon="2.39276">
        <ele>204.1</ele>
        <time>2019-06-16T06:48:07.000Z</time>
      </trkpt>
      <trkpt lat="43.1851" lon="2.39276">
        <ele>204.1</ele>
        <time>2019-06-16T06:48:08.000Z</time>
      </trkpt>
      <trkpt lat="43.1851" lon="2.39276">
        <ele>204.1</ele>
        <time>2019-06-16T06:48:09.000Z</time>
      </trkpt>
      <trkpt lat="43.1851" lon="2.39276">
        <ele>204.1</ele>
        <time>2019-06-16T06:48:10.000Z</time>
      </trkpt>
      <trkpt lat="43.1851" lon="2.39276">
        <ele>204.1</ele>
        <time>2019-06-16T06:48:11.000Z</time>
      </trkpt>
      <trkpt lat="43.1851" lon="2.39276">
        <ele>204.1</ele>
        <time>2019-06-16T06:48:12.000Z</time>
      </trkpt>
      <trkpt lat="43.1851" lon="2.39276">
        <ele>204.1</ele>
        <time>2019-06-16T06:48:13.000Z</time>
      </trkpt>
      <trkpt lat="43.1851" lon="2.39276">
        <ele>204.1</ele>
        <time>2019-06-16T06:48:14.000Z</time>
      </trkpt>
      <trkpt lat="43.1851" lon="2.39276">
        <ele>204.1</ele>
        <time>2019-06-16T06:48:15.000Z</time>
      </trkpt>
      <trkpt lat="43.1851" lon="2.39276">
        <ele>204.1</ele>
        <time>2019-06-16T06:48:16.000Z</time>
      </trkpt>
      <trkpt lat="43.1851" lon="2.39276">
        <ele>204.1</ele>
        <time>2019-06-16T06:48:17.000Z</time>
      </trkpt>
      <trkpt lat="43.1851" lon="2.39276">
        <ele>204.1</ele>
        <time>2019-06-16T06:48:18.000Z</time>
      </trkpt>
      <trkpt lat="43.1851" lon="2.39276">
        <ele>204.1</ele>
        <time>2019-06-16T06:48:19.000Z</time>
      </trkpt>
      <trkpt lat="43.1851" lon="2.39276">
        <ele>204.1</ele>
        <time>2019-06-16T06:48:20.000Z</time>
      </trkpt>
      <trkpt lat="43.1851" lon="2.39276">
        <ele>204.1</ele>
        <time>2019-06-16T06:48:21.000Z</time>
      </trkpt>
      <trkpt lat="43.1851" lon="2.39276">
        <ele>204.1</ele>
        <time>2019-06-16T06:48:22.000Z</time>
      </trkpt>
      <trkpt lat="43.1851" lon="2.39276">
        <ele>204.1</ele>
        <time>2019-06-16T06:48:23.000Z</time>
      </trkpt>
      <trkpt lat="43.1851" lon="2.39276">
        <ele>204.1</ele>
        <time>2019-06-16T06:48:24.000Z</time>
      </trkpt>
      <trkpt lat="43.1851" lon="2.39276">
        <ele>204.1</ele>
        <time>2019-06-16T06:48:25.000Z</time>
      </trkpt>
      <trkpt lat="43.1851" lon="2.39276">
        <ele>204.1</ele>
        <time>2019-06-16T06:48:26.000Z</time>
      </trkpt>
      <trkpt lat="43.1851" lon="2.39276">
        <ele>204.1</ele>
        <time>2019-06-16T06:48:27.000Z</time>
      </trkpt>
      <trkpt lat="43.1851" lon="2.39276">
        <ele>204.1</ele>
        <time>2019-06-16T06:48:28.000Z</time>
      </trkpt>
      <trkpt lat="43.1851" lon="2.39276">
        <ele>204.1</ele>
        <time>2019-06-16T06:48:29.000Z</time>
      </trkpt>
      <trkpt lat="43.1851" lon="2.39276">
        <ele>204.1</ele>
        <time>2019-06-16T06:48:30.000Z</time>
      </trkpt>
      <trkpt lat="43.1851" lon="2.39276">
        <ele>204.1</ele>
        <time>2019-06-16T06:48:31.000Z</time>
      </trkpt>
      <trkpt lat="43.1851" lon="2.39276">
        <ele>204.1</ele>
        <time>2019-06-16T06:48:32.000Z</time>
      </trkpt>
      <trkpt lat="43.1851" lon="2.39276">
        <ele>204.1</ele>
        <time>2019-06-16T06:48:33.000Z</time>
      </trkpt>
      <trkpt lat="43.1851" lon="2.39276">
        <ele>204.1</ele>
        <time>2019-06-16T06:48:34.000Z</time>
      </trkpt>
      <trkpt lat="43.1851" lon="2.39276">
        <ele>204.1</ele>
        <time>2019-06-16T06:48:35.000Z</time>
      </trkpt>
      <trkpt lat="43.1851" lon="2.39276">
        <ele>204.1</ele>
        <time>2019-06-16T06:48:36.000Z</time>
      </trkpt>
      <trkpt lat="43.1851" lon="2.39276">
        <ele>204.1</ele>
        <time>2019-06-16T06:48:37.000Z</time>
      </trkpt>
      <trkpt lat="43.1851" lon="2.39276">
        <ele>204.1</ele>
        <time>2019-06-16T06:48:38.000Z</time>
      </trkpt>
      <trkpt lat="43.1851" lon="2.39276">
        <ele>204.1</ele>
        <time>2019-06-16T06:48:39.000Z</time>
      </trkpt>
      <trkpt lat="43.1851" lon="2.39276">
        <ele>204.1</ele>
        <time>2019-06-16T06:48:40.000Z</time>
      </trkpt>
      <trkpt lat="43.1851" lon="2.39276">
        <ele>204.1</ele>
        <time>2019-06-16T06:48:41.000Z</time>
      </trkpt>
      <trkpt lat="43.1851" lon="2.39276">
        <ele>204.1</ele>
        <time>2019-06-16T06:48:42.000Z</time>
      </trkpt>
      <trkpt lat="43.1851" lon="2.39276">
        <ele>204.1</ele>
        <time>2019-06-16T06:48:43.000Z</time>
      </trkpt>
      <trkpt lat="43.1851" lon="2.39276">
        <ele>204.1</ele>
        <time>2019-06-16T06:48:44.000Z</time>
      </trkpt>
      <trkpt lat="43.1851" lon="2.39276">
        <ele>204.1</ele>
        <time>2019-06-16T06:48:45.000Z</time>
      </trkpt>
      <trkpt lat="43.1851" lon="2.39276">
        <ele>204.1</ele>
        <time>2019-06-16T06:48:46.000Z</time>
      </trkpt>
      <trkpt lat="43.1851" lon="2.39276">
        <ele>204.1</ele>
        <time>2019-06-16T06:48:47.000Z</time>
      </trkpt>
      <trkpt lat="43.1851" lon="2.39276">
        <ele>204.1</ele>
        <time>2019-06-16T06:48:48.000Z</time>
      </trkpt>
      <trkpt lat="43.1851" lon="2.39276">
        <ele>204.1</ele>
        <time>2019-06-16T06:48:49.000Z</time>
      </trkpt>
      <trkpt lat="43.1851" lon="2.39276">
        <ele>204.1</ele>
        <time>2019-06-16T06:48:50.000Z</time>
      </trkpt>
      <trkpt lat="43.1851" lon="2.39275">
        <ele>204.1</ele>
        <time>2019-06-16T06:48:51.000Z</time>
      </trkpt>
      <trkpt lat="43.1851" lon="2.39275">
        <ele>204.1</ele>
        <time>2019-06-16T06:48:52.000Z</time>
      </trkpt>
      <trkpt lat="43.1851" lon="2.39275">
        <ele>204.1</ele>
        <time>2019-06-16T06:48:53.000Z</time>
      </trkpt>
      <trkpt lat="43.1851" lon="2.39275">
        <ele>204.1</ele>
        <time>2019-06-16T06:48:54.000Z</time>
      </trkpt>
      <trkpt lat="43.1851" lon="2.39275">
        <ele>204</ele>
        <time>2019-06-16T06:48:55.000Z</time>
      </trkpt>
      <trkpt lat="43.18509" lon="2.39274">
        <ele>204</ele>
        <time>2019-06-16T06:48:56.000Z</time>
      </trkpt>
      <trkpt lat="43.18509" lon="2.39274">
        <ele>204</ele>
        <time>2019-06-16T06:48:57.000Z</time>
      </trkpt>
      <trkpt lat="43.18509" lon="2.39274">
        <ele>203.9</ele>
        <time>2019-06-16T06:48:58.000Z</time>
      </trkpt>
      <trkpt lat="43.18509" lon="2.39274">
        <ele>203.9</ele>
        <time>2019-06-16T06:48:59.000Z</time>
      </trkpt>
      <trkpt lat="43.18509" lon="2.39273">
        <ele>203.9</ele>
        <time>2019-06-16T06:49:00.000Z</time>
      </trkpt>
      <trkpt lat="43.18509" lon="2.39273">
        <ele>203.9</ele>
        <time>2019-06-16T06:49:01.000Z</time>
      </trkpt>
      <trkpt lat="43.18509" lon="2.39273">
        <ele>203.9</ele>
        <time>2019-06-16T06:49:02.000Z</time>
      </trkpt>
      <trkpt lat="43.18509" lon="2.39273">
        <ele>203.9</ele>
        <time>2019-06-16T06:49:03.000Z</time>
      </trkpt>
      <trkpt lat="43.18509" lon="2.39273">
        <ele>203.9</ele>
        <time>2019-06-16T06:49:04.000Z</time>
      </trkpt>
      <trkpt lat="43.18509" lon="2.39273">
        <ele>203.9</ele>
        <time>2019-06-16T06:49:05.000Z</time>
      </trkpt>
      <trkpt lat="43.18509" lon="2.39273">
        <ele>203.9</ele>
        <time>2019-06-16T06:49:06.000Z</time>
      </trkpt>
      <trkpt lat="43.18509" lon="2.39273">
        <ele>203.9</ele>
        <time>2019-06-16T06:49:07.000Z</time>
      </trkpt>
      <trkpt lat="43.18509" lon="2.39273">
        <ele>203.9</ele>
        <time>2019-06-16T06:49:08.000Z</time>
      </trkpt>
      <trkpt lat="43.18509" lon="2.39273">
        <ele>203.9</ele>
        <time>2019-06-16T06:49:09.000Z</time>
      </trkpt>
      <trkpt lat="43.18509" lon="2.39273">
        <ele>203.9</ele>
        <time>2019-06-16T06:49:10.000Z</time>
      </trkpt>
      <trkpt lat="43.18509" lon="2.39273">
        <ele>203.9</ele>
        <time>2019-06-16T06:49:11.000Z</time>
      </trkpt>
      <trkpt lat="43.18509" lon="2.39273">
        <ele>203.9</ele>
        <time>2019-06-16T06:49:12.000Z</time>
      </trkpt>
      <trkpt lat="43.18509" lon="2.39273">
        <ele>203.9</ele>
        <time>2019-06-16T06:49:13.000Z</time>
      </trkpt>
      <trkpt lat="43.18509" lon="2.39273">
        <ele>203.9</ele>
        <time>2019-06-16T06:49:14.000Z</time>
      </trkpt>
      <trkpt lat="43.18509" lon="2.39273">
        <ele>203.9</ele>
        <time>2019-06-16T06:49:15.000Z</time>
      </trkpt>
      <trkpt lat="43.18509" lon="2.39272">
        <ele>203.9</ele>
        <time>2019-06-16T06:49:16.000Z</time>
      </trkpt>
      <trkpt lat="43.18509" lon="2.39272">
        <ele>203.8</ele>
        <time>2019-06-16T06:49:17.000Z</time>
      </trkpt>
      <trkpt lat="43.18509" lon="2.39271">
        <ele>203.8</ele>
        <time>2019-06-16T06:49:18.000Z</time>
      </trkpt>
      <trkpt lat="43.18509" lon="2.3927">
        <ele>203.8</ele>
        <time>2019-06-16T06:49:19.000Z</time>
      </trkpt>
      <trkpt lat="43.18508" lon="2.3927">
        <ele>203.7</ele>
        <time>2019-06-16T06:49:20.000Z</time>
      </trkpt>
      <trkpt lat="43.18508" lon="2.39269">
        <ele>203.7</ele>
        <time>2019-06-16T06:49:21.000Z</time>
      </trkpt>
      <trkpt lat="43.18508" lon="2.39268">
        <ele>203.6</ele>
        <time>2019-06-16T06:49:22.000Z</time>
      </trkpt>
      <trkpt lat="43.18508" lon="2.39267">
        <ele>203.6</ele>
        <time>2019-06-16T06:49:23.000Z</time>
      </trkpt>
      <trkpt lat="43.18508" lon="2.39267">
        <ele>203.6</ele>
        <time>2019-06-16T06:49:24.000Z</time>
      </trkpt>
      <trkpt lat="43.18508" lon="2.39266">
        <ele>203.5</ele>
        <time>2019-06-16T06:49:25.000Z</time>
      </trkpt>
      <trkpt lat="43.18508" lon="2.39265">
        <ele>203.5</ele>
        <time>2019-06-16T06:49:26.000Z</time>
      </trkpt>
      <trkpt lat="43.18508" lon="2.39264">
        <ele>203.5</ele>
        <time>2019-06-16T06:49:27.000Z</time>
      </trkpt>
      <trkpt lat="43.18508" lon="2.39264">
        <ele>203.4</ele>
        <time>2019-06-16T06:49:28.000Z</time>
      </trkpt>
      <trkpt lat="43.18508" lon="2.39263">
        <ele>203.4</ele>
        <time>2019-06-16T06:49:29.000Z</time>
      </trkpt>
      <trkpt lat="43.18507" lon="2.39262">
        <ele>203.3</ele>
        <time>2019-06-16T06:49:30.000Z</time>
      </trkpt>
      <trkpt lat="43.18507" lon="2.39261">
        <ele>203.3</ele>
        <time>2019-06-16T06:49:31.000Z</time>
      </trkpt>
      <trkpt lat="43.18507" lon="2.39261">
        <ele>203.2</ele>
        <time>2019-06-16T06:49:32.000Z</time>
      </trkpt>
      <trkpt lat="43.18507" lon="2.3926">
        <ele>203.1</ele>
        <time>2019-06-16T06:49:33.000Z</time>
      </trkpt>
      <trkpt lat="43.18506" lon="2.39259">
        <ele>203.1</ele>
        <time>2019-06-16T06:49:34.000Z</time>
      </trkpt>
      <trkpt lat="43.18506" lon="2.39258">
        <ele>203</ele>
        <time>2019-06-16T06:49:35.000Z</time>
      </trkpt>
      <trkpt lat="43.18506" lon="2.39257">
        <ele>202.9</ele>
        <time>2019-06-16T06:49:36.000Z</time>
      </trkpt>
      <trkpt lat="43.18506" lon="2.39256">
        <ele>202.9</ele>
        <time>2019-06-16T06:49:37.000Z</time>
      </trkpt>
      <trkpt lat="43.18505" lon="2.39255">
        <ele>202.8</ele>
        <time>2019-06-16T06:49:38.000Z</time>
      </trkpt>
      <trkpt lat="43.18505" lon="2.39254">
        <ele>202.7</ele>
        <time>2019-06-16T06:49:39.000Z</time>
      </trkpt>
      <trkpt lat="43.18505" lon="2.39252">
        <ele>202.7</ele>
        <time>2019-06-16T06:49:40.000Z</time>
      </trkpt>
      <trkpt lat="43.18504" lon="2.39251">
        <ele>202.6</ele>
        <time>2019-06-16T06:49:41.000Z</time>
      </trkpt>
      <trkpt lat="43.18504" lon="2.3925">
        <ele>202.5</ele>
        <time>2019-06-16T06:49:42.000Z</time>
      </trkpt>
      <trkpt lat="43.18504" lon="2.39249">
        <ele>202.4</ele>
        <time>2019-06-16T06:49:43.000Z</time>
      </trkpt>
      <trkpt lat="43.18503" lon="2.39248">
        <ele>202.3</ele>
        <time>2019-06-16T06:49:44.000Z</time>
      </trkpt>
      <trkpt lat="43.18503" lon="2.39247">
        <ele>202.2</ele>
        <time>2019-06-16T06:49:45.000Z</time>
      </trkpt>
      <trkpt lat="43.18502" lon="2.39247">
        <ele>202.1</ele>
        <time>2019-06-16T06:49:46.000Z</time>
      </trkpt>
      <trkpt lat="43.18501" lon="2.39246">
        <ele>201.9</ele>
        <time>2019-06-16T06:49:47.000Z</time>
      </trkpt>
      <trkpt lat="43.18501" lon="2.39246">
        <ele>201.8</ele>
        <time>2019-06-16T06:49:48.000Z</time>
      </trkpt>
      <trkpt lat="43.185" lon="2.39245">
        <ele>201.8</ele>
        <time>2019-06-16T06:49:49.000Z</time>
      </trkpt>
      <trkpt lat="43.185" lon="2.39245">
        <ele>201.7</ele>
        <time>2019-06-16T06:49:50.000Z</time>
      </trkpt>
      <trkpt lat="43.185" lon="2.39245">
        <ele>201.7</ele>
        <time>2019-06-16T06:49:51.000Z</time>
      </trkpt>
      <trkpt lat="43.18499" lon="2.39245">
        <ele>201.7</ele>
        <time>2019-06-16T06:49:52.000Z</time>
      </trkpt>
      <trkpt lat="43.18499" lon="2.39245">
        <ele>201.7</ele>
        <time>2019-06-16T06:49:53.000Z</time>
      </trkpt>
      <trkpt lat="43.18499" lon="2.39245">
        <ele>201.7</ele>
        <time>2019-06-16T06:49:54.000Z</time>
      </trkpt>
      <trkpt lat="43.18499" lon="2.39245">
        <ele>201.7</ele>
        <time>2019-06-16T06:49:55.000Z</time>
      </trkpt>
      <trkpt lat="43.18499" lon="2.39245">
        <ele>201.7</ele>
        <time>2019-06-16T06:49:56.000Z</time>
      </trkpt>
      <trkpt lat="43.18499" lon="2.39245">
        <ele>201.7</ele>
        <time>2019-06-16T06:49:57.000Z</time>
      </trkpt>
      <trkpt lat="43.18499" lon="2.39245">
        <ele>201.7</ele>
        <time>2019-06-16T06:49:58.000Z</time>
      </trkpt>
      <trkpt lat="43.18499" lon="2.39245">
        <ele>201.7</ele>
        <time>2019-06-16T06:49:59.000Z</time>
      </trkpt>
      <trkpt lat="43.18499" lon="2.39245">
        <ele>201.7</ele>
        <time>2019-06-16T06:50:00.000Z</time>
      </trkpt>
      <trkpt lat="43.18499" lon="2.39245">
        <ele>201.7</ele>
        <time>2019-06-16T06:50:01.000Z</time>
      </trkpt>
      <trkpt lat="43.18499" lon="2.39245">
        <ele>201.7</ele>
        <time>2019-06-16T06:50:02.000Z</time>
      </trkpt>
      <trkpt lat="43.18499" lon="2.39245">
        <ele>201.7</ele>
        <time>2019-06-16T06:50:03.000Z</time>
      </trkpt>
      <trkpt lat="43.18499" lon="2.39245">
        <ele>201.7</ele>
        <time>2019-06-16T06:50:04.000Z</time>
      </trkpt>
      <trkpt lat="43.18499" lon="2.39245">
        <ele>201.7</ele>
        <time>2019-06-16T06:50:05.000Z</time>
      </trkpt>
      <trkpt lat="43.18499" lon="2.39245">
        <ele>201.7</ele>
        <time>2019-06-16T06:50:06.000Z</time>
      </trkpt>
      <trkpt lat="43.18499" lon="2.39245">
        <ele>201.7</ele>
        <time>2019-06-16T06:50:07.000Z</time>
      </trkpt>
      <trkpt lat="43.18499" lon="2.39245">
        <ele>201.7</ele>
        <time>2019-06-16T06:50:08.000Z</time>
      </trkpt>
      <trkpt lat="43.18499" lon="2.39245">
        <ele>201.7</ele>
        <time>2019-06-16T06:50:09.000Z</time>
      </trkpt>
      <trkpt lat="43.18499" lon="2.39245">
        <ele>201.7</ele>
        <time>2019-06-16T06:50:10.000Z</time>
      </trkpt>
      <trkpt lat="43.18499" lon="2.39245">
        <ele>201.7</ele>
        <time>2019-06-16T06:50:11.000Z</time>
      </trkpt>
      <trkpt lat="43.18499" lon="2.39245">
        <ele>201.7</ele>
        <time>2019-06-16T06:50:12.000Z</time>
      </trkpt>
      <trkpt lat="43.18499" lon="2.39245">
        <ele>201.7</ele>
        <time>2019-06-16T06:50:13.000Z</time>
      </trkpt>
      <trkpt lat="43.18499" lon="2.39245">
        <ele>201.7</ele>
        <time>2019-06-16T06:50:14.000Z</time>
      </trkpt>
      <trkpt lat="43.18499" lon="2.39246">
        <ele>201.7</ele>
        <time>2019-06-16T06:50:15.000Z</time>
      </trkpt>
      <trkpt lat="43.18498" lon="2.39246">
        <ele>201.7</ele>
        <time>2019-06-16T06:50:16.000Z</time>
      </trkpt>
      <trkpt lat="43.18497" lon="2.39246">
        <ele>201.7</ele>
        <time>2019-06-16T06:50:17.000Z</time>
      </trkpt>
      <trkpt lat="43.18497" lon="2.39247">
        <ele>201.7</ele>
        <time>2019-06-16T06:50:18.000Z</time>
      </trkpt>
      <trkpt lat="43.18496" lon="2.39247">
        <ele>201.6</ele>
        <time>2019-06-16T06:50:19.000Z</time>
      </trkpt>
      <trkpt lat="43.18495" lon="2.39248">
        <ele>201.6</ele>
        <time>2019-06-16T06:50:20.000Z</time>
      </trkpt>
      <trkpt lat="43.18494" lon="2.39249">
        <ele>201.6</ele>
        <time>2019-06-16T06:50:21.000Z</time>
      </trkpt>
      <trkpt lat="43.18493" lon="2.39249">
        <ele>201.5</ele>
        <time>2019-06-16T06:50:22.000Z</time>
      </trkpt>
      <trkpt lat="43.18492" lon="2.3925">
        <ele>201.5</ele>
        <time>2019-06-16T06:50:23.000Z</time>
      </trkpt>
      <trkpt lat="43.18491" lon="2.39251">
        <ele>201.5</ele>
        <time>2019-06-16T06:50:24.000Z</time>
      </trkpt>
      <trkpt lat="43.18489" lon="2.39252">
        <ele>201.4</ele>
        <time>2019-06-16T06:50:25.000Z</time>
      </trkpt>
      <trkpt lat="43.18488" lon="2.39252">
        <ele>201.4</ele>
        <time>2019-06-16T06:50:26.000Z</time>
      </trkpt>
      <trkpt lat="43.18487" lon="2.39253">
        <ele>201.3</ele>
        <time>2019-06-16T06:50:27.000Z</time>
      </trkpt>
      <trkpt lat="43.18485" lon="2.39254">
        <ele>201.2</ele>
        <time>2019-06-16T06:50:28.000Z</time>
      </trkpt>
      <trkpt lat="43.18484" lon="2.39255">
        <ele>201.2</ele>
        <time>2019-06-16T06:50:29.000Z</time>
      </trkpt>
      <trkpt lat="43.18482" lon="2.39257">
        <ele>201.1</ele>
        <time>2019-06-16T06:50:30.000Z</time>
      </trkpt>
      <trkpt lat="43.18481" lon="2.39258">
        <ele>201.1</ele>
        <time>2019-06-16T06:50:31.000Z</time>
      </trkpt>
      <trkpt lat="43.18479" lon="2.3926">
        <ele>201</ele>
        <time>2019-06-16T06:50:32.000Z</time>
      </trkpt>
      <trkpt lat="43.18478" lon="2.39262">
        <ele>201</ele>
        <time>2019-06-16T06:50:33.000Z</time>
      </trkpt>
      <trkpt lat="43.18476" lon="2.39264">
        <ele>200.9</ele>
        <time>2019-06-16T06:50:34.000Z</time>
      </trkpt>
      <trkpt lat="43.18474" lon="2.39266">
        <ele>200.9</ele>
        <time>2019-06-16T06:50:35.000Z</time>
      </trkpt>
      <trkpt lat="43.18473" lon="2.39268">
        <ele>200.8</ele>
        <time>2019-06-16T06:50:36.000Z</time>
      </trkpt>
      <trkpt lat="43.18472" lon="2.3927">
        <ele>200.8</ele>
        <time>2019-06-16T06:50:37.000Z</time>
      </trkpt>
      <trkpt lat="43.18471" lon="2.39272">
        <ele>200.8</ele>
        <time>2019-06-16T06:50:38.000Z</time>
      </trkpt>
      <trkpt lat="43.1847" lon="2.39275">
        <ele>200.8</ele>
        <time>2019-06-16T06:50:39.000Z</time>
      </trkpt>
      <trkpt lat="43.18469" lon="2.39277">
        <ele>200.7</ele>
        <time>2019-06-16T06:50:40.000Z</time>
      </trkpt>
      <trkpt lat="43.18468" lon="2.39279">
        <ele>200.7</ele>
        <time>2019-06-16T06:50:41.000Z</time>
      </trkpt>
      <trkpt lat="43.18467" lon="2.39281">
        <ele>200.7</ele>
        <time>2019-06-16T06:50:42.000Z</time>
      </trkpt>
      <trkpt lat="43.18465" lon="2.39283">
        <ele>200.6</ele>
        <time>2019-06-16T06:50:43.000Z</time>
      </trkpt>
      <trkpt lat="43.18464" lon="2.39286">
        <ele>200.6</ele>
        <time>2019-06-16T06:50:44.000Z</time>
      </trkpt>
      <trkpt lat="43.18463" lon="2.39288">
        <ele>200.5</ele>
        <time>2019-06-16T06:50:45.000Z</time>
      </trkpt>
      <trkpt lat="43.18462" lon="2.39291">
        <ele>200.5</ele>
        <time>2019-06-16T06:50:46.000Z</time>
      </trkpt>
      <trkpt lat="43.18461" lon="2.39293">
        <ele>200.4</ele>
        <time>2019-06-16T06:50:47.000Z</time>
      </trkpt>
      <trkpt lat="43.1846" lon="2.39296">
        <ele>200.4</ele>
        <time>2019-06-16T06:50:48.000Z</time>
      </trkpt>
      <trkpt lat="43.18459" lon="2.39299">
        <ele>200.4</ele>
        <time>2019-06-16T06:50:49.000Z</time>
      </trkpt>
      <trkpt lat="43.18459" lon="2.39302">
        <ele>200.5</ele>
        <time>2019-06-16T06:50:50.000Z</time>
      </trkpt>
      <trkpt lat="43.18459" lon="2.39306">
        <ele>200.5</ele>
        <time>2019-06-16T06:50:51.000Z</time>
      </trkpt>
      <trkpt lat="43.18458" lon="2.39309">
        <ele>200.6</ele>
        <time>2019-06-16T06:50:52.000Z</time>
      </trkpt>
      <trkpt lat="43.18459" lon="2.39313">
        <ele>200.6</ele>
        <time>2019-06-16T06:50:53.000Z</time>
      </trkpt>
      <trkpt lat="43.18459" lon="2.39316">
        <ele>200.7</ele>
        <time>2019-06-16T06:50:54.000Z</time>
      </trkpt>
      <trkpt lat="43.18459" lon="2.39319">
        <ele>200.8</ele>
        <time>2019-06-16T06:50:55.000Z</time>
      </trkpt>
      <trkpt lat="43.18459" lon="2.39323">
        <ele>200.9</ele>
        <time>2019-06-16T06:50:56.000Z</time>
      </trkpt>
      <trkpt lat="43.1846" lon="2.39326">
        <ele>201</ele>
        <time>2019-06-16T06:50:57.000Z</time>
      </trkpt>
      <trkpt lat="43.1846" lon="2.39329">
        <ele>201.1</ele>
        <time>2019-06-16T06:50:58.000Z</time>
      </trkpt>
      <trkpt lat="43.1846" lon="2.39332">
        <ele>201.1</ele>
        <time>2019-06-16T06:50:59.000Z</time>
      </trkpt>
      <trkpt lat="43.1846" lon="2.39335">
        <ele>201.2</ele>
        <time>2019-06-16T06:51:00.000Z</time>
      </trkpt>
      <trkpt lat="43.1846" lon="2.39338">
        <ele>201.3</ele>
        <time>2019-06-16T06:51:01.000Z</time>
      </trkpt>
      <trkpt lat="43.1846" lon="2.39341">
        <ele>201.4</ele>
        <time>2019-06-16T06:51:02.000Z</time>
      </trkpt>
      <trkpt lat="43.1846" lon="2.39344">
        <ele>201.4</ele>
        <time>2019-06-16T06:51:03.000Z</time>
      </trkpt>
      <trkpt lat="43.18459" lon="2.39347">
        <ele>201.5</ele>
        <time>2019-06-16T06:51:04.000Z</time>
      </trkpt>
      <trkpt lat="43.18459" lon="2.3935">
        <ele>201.6</ele>
        <time>2019-06-16T06:51:05.000Z</time>
      </trkpt>
      <trkpt lat="43.1846" lon="2.39353">
        <ele>201.7</ele>
        <time>2019-06-16T06:51:06.000Z</time>
      </trkpt>
      <trkpt lat="43.1846" lon="2.39356">
        <ele>201.8</ele>
        <time>2019-06-16T06:51:07.000Z</time>
      </trkpt>
      <trkpt lat="43.1846" lon="2.39359">
        <ele>201.9</ele>
        <time>2019-06-16T06:51:08.000Z</time>
      </trkpt>
      <trkpt lat="43.18459" lon="2.39362">
        <ele>202</ele>
        <time>2019-06-16T06:51:09.000Z</time>
      </trkpt>
      <trkpt lat="43.18459" lon="2.39365">
        <ele>202</ele>
        <time>2019-06-16T06:51:10.000Z</time>
      </trkpt>
      <trkpt lat="43.18458" lon="2.39367">
        <ele>201.9</ele>
        <time>2019-06-16T06:51:11.000Z</time>
      </trkpt>
      <trkpt lat="43.18456" lon="2.3937">
        <ele>201.8</ele>
        <time>2019-06-16T06:51:12.000Z</time>
      </trkpt>
      <trkpt lat="43.18454" lon="2.39371">
        <ele>201.7</ele>
        <time>2019-06-16T06:51:13.000Z</time>
      </trkpt>
      <trkpt lat="43.18452" lon="2.39373">
        <ele>201.5</ele>
        <time>2019-06-16T06:51:14.000Z</time>
      </trkpt>
      <trkpt lat="43.1845" lon="2.39373">
        <ele>201.3</ele>
        <time>2019-06-16T06:51:15.000Z</time>
      </trkpt>
      <trkpt lat="43.18448" lon="2.39373">
        <ele>201</ele>
        <time>2019-06-16T06:51:16.000Z</time>
      </trkpt>
      <trkpt lat="43.18446" lon="2.39373">
        <ele>200.8</ele>
        <time>2019-06-16T06:51:17.000Z</time>
      </trkpt>
      <trkpt lat="43.18443" lon="2.39372">
        <ele>200.5</ele>
        <time>2019-06-16T06:51:18.000Z</time>
      </trkpt>
      <trkpt lat="43.18441" lon="2.39371">
        <ele>200.2</ele>
        <time>2019-06-16T06:51:19.000Z</time>
      </trkpt>
      <trkpt lat="43.18439" lon="2.3937">
        <ele>200</ele>
        <time>2019-06-16T06:51:20.000Z</time>
      </trkpt>
      <trkpt lat="43.18437" lon="2.39369">
        <ele>199.7</ele>
        <time>2019-06-16T06:51:21.000Z</time>
      </trkpt>
      <trkpt lat="43.18436" lon="2.39368">
        <ele>199.5</ele>
        <time>2019-06-16T06:51:22.000Z</time>
      </trkpt>
      <trkpt lat="43.18434" lon="2.39367">
        <ele>199.3</ele>
        <time>2019-06-16T06:51:23.000Z</time>
      </trkpt>
      <trkpt lat="43.18432" lon="2.39366">
        <ele>199.1</ele>
        <time>2019-06-16T06:51:24.000Z</time>
      </trkpt>
      <trkpt lat="43.18431" lon="2.39364">
        <ele>198.9</ele>
        <time>2019-06-16T06:51:25.000Z</time>
      </trkpt>
      <trkpt lat="43.18429" lon="2.39363">
        <ele>198.7</ele>
        <time>2019-06-16T06:51:26.000Z</time>
      </trkpt>
      <trkpt lat="43.18427" lon="2.39361">
        <ele>198.5</ele>
        <time>2019-06-16T06:51:27.000Z</time>
      </trkpt>
      <trkpt lat="43.18426" lon="2.3936">
        <ele>198.3</ele>
        <time>2019-06-16T06:51:28.000Z</time>
      </trkpt>
      <trkpt lat="43.18424" lon="2.39358">
        <ele>198.1</ele>
        <time>2019-06-16T06:51:29.000Z</time>
      </trkpt>
      <trkpt lat="43.18422" lon="2.39356">
        <ele>197.8</ele>
        <time>2019-06-16T06:51:30.000Z</time>
      </trkpt>
      <trkpt lat="43.1842" lon="2.39354">
        <ele>197.6</ele>
        <time>2019-06-16T06:51:31.000Z</time>
      </trkpt>
      <trkpt lat="43.18418" lon="2.39352">
        <ele>197.4</ele>
        <time>2019-06-16T06:51:32.000Z</time>
      </trkpt>
      <trkpt lat="43.18416" lon="2.39351">
        <ele>197.2</ele>
        <time>2019-06-16T06:51:33.000Z</time>
      </trkpt>
      <trkpt lat="43.18415" lon="2.39349">
        <ele>197</ele>
        <time>2019-06-16T06:51:34.000Z</time>
      </trkpt>
      <trkpt lat="43.18413" lon="2.39347">
        <ele>196.8</ele>
        <time>2019-06-16T06:51:35.000Z</time>
      </trkpt>
      <trkpt lat="43.18411" lon="2.39345">
        <ele>196.6</ele>
        <time>2019-06-16T06:51:36.000Z</time>
      </trkpt>
      <trkpt lat="43.18409" lon="2.39344">
        <ele>196.5</ele>
        <time>2019-06-16T06:51:37.000Z</time>
      </trkpt>
      <trkpt lat="43.18407" lon="2.39342">
        <ele>196.3</ele>
        <time>2019-06-16T06:51:38.000Z</time>
      </trkpt>
      <trkpt lat="43.18406" lon="2.39341">
        <ele>196.2</ele>
        <time>2019-06-16T06:51:39.000Z</time>
      </trkpt>
      <trkpt lat="43.18404" lon="2.39341">
        <ele>196</ele>
        <time>2019-06-16T06:51:40.000Z</time>
      </trkpt>
      <trkpt lat="43.18402" lon="2.3934">
        <ele>195.9</ele>
        <time>2019-06-16T06:51:41.000Z</time>
      </trkpt>
      <trkpt lat="43.18401" lon="2.39341">
        <ele>195.7</ele>
        <time>2019-06-16T06:51:42.000Z</time>
      </trkpt>
      <trkpt lat="43.18399" lon="2.39342">
        <ele>195.6</ele>
        <time>2019-06-16T06:51:43.000Z</time>
      </trkpt>
      <trkpt lat="43.18397" lon="2.39343">
        <ele>195.5</ele>
        <time>2019-06-16T06:51:44.000Z</time>
      </trkpt>
      <trkpt lat="43.18396" lon="2.39345">
        <ele>195.3</ele>
        <time>2019-06-16T06:51:45.000Z</time>
      </trkpt>
      <trkpt lat="43.18394" lon="2.39347">
        <ele>195.2</ele>
        <time>2019-06-16T06:51:46.000Z</time>
      </trkpt>
      <trkpt lat="43.18392" lon="2.39349">
        <ele>195.1</ele>
        <time>2019-06-16T06:51:47.000Z</time>
      </trkpt>
      <trkpt lat="43.1839" lon="2.39352">
        <ele>194.9</ele>
        <time>2019-06-16T06:51:48.000Z</time>
      </trkpt>
      <trkpt lat="43.18389" lon="2.39354">
        <ele>194.8</ele>
        <time>2019-06-16T06:51:49.000Z</time>
      </trkpt>
      <trkpt lat="43.18387" lon="2.39356">
        <ele>194.7</ele>
        <time>2019-06-16T06:51:50.000Z</time>
      </trkpt>
      <trkpt lat="43.18385" lon="2.39358">
        <ele>194.5</ele>
        <time>2019-06-16T06:51:51.000Z</time>
      </trkpt>
      <trkpt lat="43.18383" lon="2.39359">
        <ele>194.4</ele>
        <time>2019-06-16T06:51:52.000Z</time>
      </trkpt>
      <trkpt lat="43.18381" lon="2.3936">
        <ele>194.2</ele>
        <time>2019-06-16T06:51:53.000Z</time>
      </trkpt>
      <trkpt lat="43.18379" lon="2.39361">
        <ele>194.1</ele>
        <time>2019-06-16T06:51:54.000Z</time>
      </trkpt>
      <trkpt lat="43.18377" lon="2.39361">
        <ele>193.9</ele>
        <time>2019-06-16T06:51:55.000Z</time>
      </trkpt>
      <trkpt lat="43.18375" lon="2.39362">
        <ele>193.7</ele>
        <time>2019-06-16T06:51:56.000Z</time>
      </trkpt>
      <trkpt lat="43.18373" lon="2.39362">
        <ele>193.5</ele>
        <time>2019-06-16T06:51:57.000Z</time>
      </trkpt>
      <trkpt lat="43.18371" lon="2.39363">
        <ele>193.3</ele>
        <time>2019-06-16T06:51:58.000Z</time>
      </trkpt>
      <trkpt lat="43.18369" lon="2.39363">
        <ele>193.2</ele>
        <time>2019-06-16T06:51:59.000Z</time>
      </trkpt>
      <trkpt lat="43.18367" lon="2.39364">
        <ele>193</ele>
        <time>2019-06-16T06:52:00.000Z</time>
      </trkpt>
      <trkpt lat="43.18365" lon="2.39364">
        <ele>192.8</ele>
        <time>2019-06-16T06:52:01.000Z</time>
      </trkpt>
      <trkpt lat="43.18363" lon="2.39364">
        <ele>192.6</ele>
        <time>2019-06-16T06:52:02.000Z</time>
      </trkpt>
      <trkpt lat="43.18361" lon="2.39363">
        <ele>192.5</ele>
        <time>2019-06-16T06:52:03.000Z</time>
      </trkpt>
      <trkpt lat="43.18359" lon="2.39362">
        <ele>192.3</ele>
        <time>2019-06-16T06:52:04.000Z</time>
      </trkpt>
      <trkpt lat="43.18357" lon="2.39361">
        <ele>192.1</ele>
        <time>2019-06-16T06:52:05.000Z</time>
      </trkpt>
      <trkpt lat="43.18355" lon="2.3936">
        <ele>191.9</ele>
        <time>2019-06-16T06:52:06.000Z</time>
      </trkpt>
      <trkpt lat="43.18354" lon="2.39358">
        <ele>191.8</ele>
        <time>2019-06-16T06:52:07.000Z</time>
      </trkpt>
      <trkpt lat="43.18352" lon="2.39358">
        <ele>191.7</ele>
        <time>2019-06-16T06:52:08.000Z</time>
      </trkpt>
      <trkpt lat="43.18351" lon="2.39357">
        <ele>191.6</ele>
        <time>2019-06-16T06:52:09.000Z</time>
      </trkpt>
      <trkpt lat="43.1835" lon="2.39357">
        <ele>191.5</ele>
        <time>2019-06-16T06:52:10.000Z</time>
      </trkpt>
      <trkpt lat="43.18349" lon="2.39357">
        <ele>191.4</ele>
        <time>2019-06-16T06:52:11.000Z</time>
      </trkpt>
      <trkpt lat="43.18349" lon="2.39357">
        <ele>191.3</ele>
        <time>2019-06-16T06:52:12.000Z</time>
      </trkpt>
      <trkpt lat="43.18348" lon="2.39357">
        <ele>191.3</ele>
        <time>2019-06-16T06:52:13.000Z</time>
      </trkpt>
      <trkpt lat="43.18347" lon="2.39357">
        <ele>191.2</ele>
        <time>2019-06-16T06:52:14.000Z</time>
      </trkpt>
      <trkpt lat="43.18347" lon="2.39356">
        <ele>191.2</ele>
        <time>2019-06-16T06:52:15.000Z</time>
      </trkpt>
      <trkpt lat="43.18346" lon="2.39356">
        <ele>191.1</ele>
        <time>2019-06-16T06:52:16.000Z</time>
      </trkpt>
      <trkpt lat="43.18345" lon="2.39355">
        <ele>191</ele>
        <time>2019-06-16T06:52:17.000Z</time>
      </trkpt>
      <trkpt lat="43.18344" lon="2.39354">
        <ele>190.9</ele>
        <time>2019-06-16T06:52:18.000Z</time>
      </trkpt>
      <trkpt lat="43.18343" lon="2.39353">
        <ele>190.8</ele>
        <time>2019-06-16T06:52:19.000Z</time>
      </trkpt>
      <trkpt lat="43.18342" lon="2.39352">
        <ele>190.7</ele>
        <time>2019-06-16T06:52:20.000Z</time>
      </trkpt>
      <trkpt lat="43.18341" lon="2.39351">
        <ele>190.6</ele>
        <time>2019-06-16T06:52:21.000Z</time>
      </trkpt>
      <trkpt lat="43.18339" lon="2.3935">
        <ele>190.5</ele>
        <time>2019-06-16T06:52:22.000Z</time>
      </trkpt>
      <trkpt lat="43.18338" lon="2.39348">
        <ele>190.4</ele>
        <time>2019-06-16T06:52:23.000Z</time>
      </trkpt>
      <trkpt lat="43.18336" lon="2.39347">
        <ele>190.3</ele>
        <time>2019-06-16T06:52:24.000Z</time>
      </trkpt>
      <trkpt lat="43.18335" lon="2.39345">
        <ele>190.1</ele>
        <time>2019-06-16T06:52:25.000Z</time>
      </trkpt>
      <trkpt lat="43.18333" lon="2.39344">
        <ele>190</ele>
        <time>2019-06-16T06:52:26.000Z</time>
      </trkpt>
      <trkpt lat="43.18331" lon="2.39342">
        <ele>189.8</ele>
        <time>2019-06-16T06:52:27.000Z</time>
      </trkpt>
      <trkpt lat="43.18329" lon="2.3934">
        <ele>189.7</ele>
        <time>2019-06-16T06:52:28.000Z</time>
      </trkpt>
      <trkpt lat="43.18327" lon="2.39338">
        <ele>189.6</ele>
        <time>2019-06-16T06:52:29.000Z</time>
      </trkpt>
      <trkpt lat="43.18325" lon="2.39336">
        <ele>189.4</ele>
        <time>2019-06-16T06:52:30.000Z</time>
      </trkpt>
      <trkpt lat="43.18323" lon="2.39334">
        <ele>189.3</ele>
        <time>2019-06-16T06:52:31.000Z</time>
      </trkpt>
      <trkpt lat="43.18321" lon="2.39331">
        <ele>189.1</ele>
        <time>2019-06-16T06:52:32.000Z</time>
      </trkpt>
      <trkpt lat="43.18319" lon="2.39329">
        <ele>189</ele>
        <time>2019-06-16T06:52:33.000Z</time>
      </trkpt>
      <trkpt lat="43.18317" lon="2.39327">
        <ele>188.8</ele>
        <time>2019-06-16T06:52:34.000Z</time>
      </trkpt>
      <trkpt lat="43.18315" lon="2.39325">
        <ele>188.6</ele>
        <time>2019-06-16T06:52:35.000Z</time>
      </trkpt>
      <trkpt lat="43.18313" lon="2.39322">
        <ele>188.5</ele>
        <time>2019-06-16T06:52:36.000Z</time>
      </trkpt>
      <trkpt lat="43.18311" lon="2.3932">
        <ele>188.3</ele>
        <time>2019-06-16T06:52:37.000Z</time>
      </trkpt>
      <trkpt lat="43.18309" lon="2.39318">
        <ele>188.2</ele>
        <time>2019-06-16T06:52:38.000Z</time>
      </trkpt>
      <trkpt lat="43.18308" lon="2.39315">
        <ele>188.1</ele>
        <time>2019-06-16T06:52:39.000Z</time>
      </trkpt>
      <trkpt lat="43.18307" lon="2.39313">
        <ele>188</ele>
        <time>2019-06-16T06:52:40.000Z</time>
      </trkpt>
      <trkpt lat="43.18305" lon="2.3931">
        <ele>187.9</ele>
        <time>2019-06-16T06:52:41.000Z</time>
      </trkpt>
      <trkpt lat="43.18304" lon="2.39308">
        <ele>187.8</ele>
        <time>2019-06-16T06:52:42.000Z</time>
      </trkpt>
      <trkpt lat="43.18303" lon="2.39305">
        <ele>187.7</ele>
        <time>2019-06-16T06:52:43.000Z</time>
      </trkpt>
      <trkpt lat="43.18303" lon="2.39303">
        <ele>187.6</ele>
        <time>2019-06-16T06:52:44.000Z</time>
      </trkpt>
      <trkpt lat="43.18302" lon="2.393">
        <ele>187.6</ele>
        <time>2019-06-16T06:52:45.000Z</time>
      </trkpt>
      <trkpt lat="43.18301" lon="2.39298">
        <ele>187.5</ele>
        <time>2019-06-16T06:52:46.000Z</time>
      </trkpt>
      <trkpt lat="43.183" lon="2.39296">
        <ele>187.4</ele>
        <time>2019-06-16T06:52:47.000Z</time>
      </trkpt>
      <trkpt lat="43.18299" lon="2.39293">
        <ele>187.4</ele>
        <time>2019-06-16T06:52:48.000Z</time>
      </trkpt>
      <trkpt lat="43.18299" lon="2.39291">
        <ele>187.3</ele>
        <time>2019-06-16T06:52:49.000Z</time>
      </trkpt>
      <trkpt lat="43.18299" lon="2.39288">
        <ele>187.3</ele>
        <time>2019-06-16T06:52:50.000Z</time>
      </trkpt>
      <trkpt lat="43.18299" lon="2.39285">
        <ele>187.3</ele>
        <time>2019-06-16T06:52:51.000Z</time>
      </trkpt>
      <trkpt lat="43.18299" lon="2.39282">
        <ele>187.3</ele>
        <time>2019-06-16T06:52:52.000Z</time>
      </trkpt>
      <trkpt lat="43.18299" lon="2.39278">
        <ele>187.2</ele>
        <time>2019-06-16T06:52:53.000Z</time>
      </trkpt>
      <trkpt lat="43.18299" lon="2.39275">
        <ele>187.2</ele>
        <time>2019-06-16T06:52:54.000Z</time>
      </trkpt>
      <trkpt lat="43.18298" lon="2.39272">
        <ele>187.2</ele>
        <time>2019-06-16T06:52:55.000Z</time>
      </trkpt>
      <trkpt lat="43.18298" lon="2.3927">
        <ele>187.1</ele>
        <time>2019-06-16T06:52:56.000Z</time>
      </trkpt>
      <trkpt lat="43.18296" lon="2.39268">
        <ele>187</ele>
        <time>2019-06-16T06:52:57.000Z</time>
      </trkpt>
      <trkpt lat="43.18295" lon="2.39266">
        <ele>186.9</ele>
        <time>2019-06-16T06:52:58.000Z</time>
      </trkpt>
      <trkpt lat="43.18293" lon="2.39264">
        <ele>186.7</ele>
        <time>2019-06-16T06:52:59.000Z</time>
      </trkpt>
      <trkpt lat="43.18292" lon="2.39262">
        <ele>186.6</ele>
        <time>2019-06-16T06:53:00.000Z</time>
      </trkpt>
      <trkpt lat="43.1829" lon="2.39261">
        <ele>186.4</ele>
        <time>2019-06-16T06:53:01.000Z</time>
      </trkpt>
      <trkpt lat="43.18288" lon="2.39259">
        <ele>186.2</ele>
        <time>2019-06-16T06:53:02.000Z</time>
      </trkpt>
      <trkpt lat="43.18285" lon="2.39258">
        <ele>186</ele>
        <time>2019-06-16T06:53:03.000Z</time>
      </trkpt>
      <trkpt lat="43.18283" lon="2.39256">
        <ele>185.8</ele>
        <time>2019-06-16T06:53:04.000Z</time>
      </trkpt>
      <trkpt lat="43.18281" lon="2.39255">
        <ele>185.6</ele>
        <time>2019-06-16T06:53:05.000Z</time>
      </trkpt>
      <trkpt lat="43.18279" lon="2.39254">
        <ele>185.4</ele>
        <time>2019-06-16T06:53:06.000Z</time>
      </trkpt>
      <trkpt lat="43.18276" lon="2.39253">
        <ele>185.2</ele>
        <time>2019-06-16T06:53:07.000Z</time>
      </trkpt>
      <trkpt lat="43.18274" lon="2.39252">
        <ele>185</ele>
        <time>2019-06-16T06:53:08.000Z</time>
      </trkpt>
      <trkpt lat="43.18272" lon="2.39252">
        <ele>184.8</ele>
        <time>2019-06-16T06:53:09.000Z</time>
      </trkpt>
      <trkpt lat="43.18269" lon="2.39251">
        <ele>184.6</ele>
        <time>2019-06-16T06:53:10.000Z</time>
      </trkpt>
      <trkpt lat="43.18267" lon="2.39251">
        <ele>184.4</ele>
        <time>2019-06-16T06:53:11.000Z</time>
      </trkpt>
      <trkpt lat="43.18264" lon="2.3925">
        <ele>184.2</ele>
        <time>2019-06-16T06:53:12.000Z</time>
      </trkpt>
      <trkpt lat="43.18262" lon="2.3925">
        <ele>184</ele>
        <time>2019-06-16T06:53:13.000Z</time>
      </trkpt>
      <trkpt lat="43.1826" lon="2.39249">
        <ele>183.8</ele>
        <time>2019-06-16T06:53:14.000Z</time>
      </trkpt>
      <trkpt lat="43.18258" lon="2.39248">
        <ele>183.7</ele>
        <time>2019-06-16T06:53:15.000Z</time>
      </trkpt>
      <trkpt lat="43.18256" lon="2.39246">
        <ele>183.5</ele>
        <time>2019-06-16T06:53:16.000Z</time>
      </trkpt>
      <trkpt lat="43.18254" lon="2.39244">
        <ele>183.4</ele>
        <time>2019-06-16T06:53:17.000Z</time>
      </trkpt>
      <trkpt lat="43.18252" lon="2.39242">
        <ele>183.3</ele>
        <time>2019-06-16T06:53:18.000Z</time>
      </trkpt>
      <trkpt lat="43.18251" lon="2.39239">
        <ele>183.2</ele>
        <time>2019-06-16T06:53:19.000Z</time>
      </trkpt>
      <trkpt lat="43.18249" lon="2.39236">
        <ele>183</ele>
        <time>2019-06-16T06:53:20.000Z</time>
      </trkpt>
      <trkpt lat="43.18248" lon="2.39234">
        <ele>182.9</ele>
        <time>2019-06-16T06:53:21.000Z</time>
      </trkpt>
      <trkpt lat="43.18246" lon="2.39231">
        <ele>182.7</ele>
        <time>2019-06-16T06:53:22.000Z</time>
      </trkpt>
      <trkpt lat="43.18245" lon="2.39228">
        <ele>182.6</ele>
        <time>2019-06-16T06:53:23.000Z</time>
      </trkpt>
      <trkpt lat="43.18243" lon="2.39226">
        <ele>182.5</ele>
        <time>2019-06-16T06:53:24.000Z</time>
      </trkpt>
      <trkpt lat="43.18242" lon="2.39223">
        <ele>182.3</ele>
        <time>2019-06-16T06:53:25.000Z</time>
      </trkpt>
      <trkpt lat="43.1824" lon="2.39221">
        <ele>182.1</ele>
        <time>2019-06-16T06:53:26.000Z</time>
      </trkpt>
      <trkpt lat="43.18238" lon="2.39219">
        <ele>182</ele>
        <time>2019-06-16T06:53:27.000Z</time>
      </trkpt>
      <trkpt lat="43.18236" lon="2.39217">
        <ele>181.8</ele>
        <time>2019-06-16T06:53:28.000Z</time>
      </trkpt>
      <trkpt lat="43.18235" lon="2.39216">
        <ele>181.6</ele>
        <time>2019-06-16T06:53:29.000Z</time>
      </trkpt>
      <trkpt lat="43.18233" lon="2.39214">
        <ele>181.4</ele>
        <time>2019-06-16T06:53:30.000Z</time>
      </trkpt>
      <trkpt lat="43.18231" lon="2.39212">
        <ele>181.1</ele>
        <time>2019-06-16T06:53:31.000Z</time>
      </trkpt>
      <trkpt lat="43.18229" lon="2.39211">
        <ele>180.9</ele>
        <time>2019-06-16T06:53:32.000Z</time>
      </trkpt>
      <trkpt lat="43.18227" lon="2.39209">
        <ele>180.7</ele>
        <time>2019-06-16T06:53:33.000Z</time>
      </trkpt>
      <trkpt lat="43.18225" lon="2.39207">
        <ele>180.5</ele>
        <time>2019-06-16T06:53:34.000Z</time>
      </trkpt>
      <trkpt lat="43.18222" lon="2.39206">
        <ele>180.2</ele>
        <time>2019-06-16T06:53:35.000Z</time>
      </trkpt>
      <trkpt lat="43.1822" lon="2.39204">
        <ele>180</ele>
        <time>2019-06-16T06:53:36.000Z</time>
      </trkpt>
      <trkpt lat="43.18218" lon="2.39202">
        <ele>179.7</ele>
        <time>2019-06-16T06:53:37.000Z</time>
      </trkpt>
      <trkpt lat="43.18216" lon="2.392">
        <ele>179.5</ele>
        <time>2019-06-16T06:53:38.000Z</time>
      </trkpt>
      <trkpt lat="43.18214" lon="2.39198">
        <ele>179.3</ele>
        <time>2019-06-16T06:53:39.000Z</time>
      </trkpt>
      <trkpt lat="43.18212" lon="2.39197">
        <ele>179</ele>
        <time>2019-06-16T06:53:40.000Z</time>
      </trkpt>
      <trkpt lat="43.18209" lon="2.39195">
        <ele>178.8</ele>
        <time>2019-06-16T06:53:41.000Z</time>
      </trkpt>
      <trkpt lat="43.18207" lon="2.39193">
        <ele>178.6</ele>
        <time>2019-06-16T06:53:42.000Z</time>
      </trkpt>
      <trkpt lat="43.18205" lon="2.39192">
        <ele>178.3</ele>
        <time>2019-06-16T06:53:43.000Z</time>
      </trkpt>
      <trkpt lat="43.18203" lon="2.3919">
        <ele>178.1</ele>
        <time>2019-06-16T06:53:44.000Z</time>
      </trkpt>
      <trkpt lat="43.18201" lon="2.39188">
        <ele>177.9</ele>
        <time>2019-06-16T06:53:45.000Z</time>
      </trkpt>
      <trkpt lat="43.18199" lon="2.39187">
        <ele>177.6</ele>
        <time>2019-06-16T06:53:46.000Z</time>
      </trkpt>
      <trkpt lat="43.18197" lon="2.39185">
        <ele>177.4</ele>
        <time>2019-06-16T06:53:47.000Z</time>
      </trkpt>
      <trkpt lat="43.18195" lon="2.39184">
        <ele>177.2</ele>
        <time>2019-06-16T06:53:48.000Z</time>
      </trkpt>
      <trkpt lat="43.18193" lon="2.39182">
        <ele>176.9</ele>
        <time>2019-06-16T06:53:49.000Z</time>
      </trkpt>
      <trkpt lat="43.18191" lon="2.39181">
        <ele>176.7</ele>
        <time>2019-06-16T06:53:50.000Z</time>
      </trkpt>
      <trkpt lat="43.18188" lon="2.39179">
        <ele>176.5</ele>
        <time>2019-06-16T06:53:51.000Z</time>
      </trkpt>
      <trkpt lat="43.18186" lon="2.39177">
        <ele>176.2</ele>
        <time>2019-06-16T06:53:52.000Z</time>
      </trkpt>
      <trkpt lat="43.18184" lon="2.39176">
        <ele>176</ele>
        <time>2019-06-16T06:53:53.000Z</time>
      </trkpt>
      <trkpt lat="43.18182" lon="2.39174">
        <ele>175.7</ele>
        <time>2019-06-16T06:53:54.000Z</time>
      </trkpt>
      <trkpt lat="43.1818" lon="2.39173">
        <ele>175.5</ele>
        <time>2019-06-16T06:53:55.000Z</time>
      </trkpt>
      <trkpt lat="43.18177" lon="2.39171">
        <ele>175.2</ele>
        <time>2019-06-16T06:53:56.000Z</time>
      </trkpt>
      <trkpt lat="43.18175" lon="2.3917">
        <ele>175</ele>
        <time>2019-06-16T06:53:57.000Z</time>
      </trkpt>
      <trkpt lat="43.18173" lon="2.39168">
        <ele>174.7</ele>
        <time>2019-06-16T06:53:58.000Z</time>
      </trkpt>
      <trkpt lat="43.1817" lon="2.39167">
        <ele>174.4</ele>
        <time>2019-06-16T06:53:59.000Z</time>
      </trkpt>
      <trkpt lat="43.18168" lon="2.39166">
        <ele>174.1</ele>
        <time>2019-06-16T06:54:00.000Z</time>
      </trkpt>
      <trkpt lat="43.18165" lon="2.39165">
        <ele>173.9</ele>
        <time>2019-06-16T06:54:01.000Z</time>
      </trkpt>
      <trkpt lat="43.18163" lon="2.39164">
        <ele>173.7</ele>
        <time>2019-06-16T06:54:02.000Z</time>
      </trkpt>
      <trkpt lat="43.18161" lon="2.39163">
        <ele>173.6</ele>
        <time>2019-06-16T06:54:03.000Z</time>
      </trkpt>
      <trkpt lat="43.18158" lon="2.39162">
        <ele>173.4</ele>
        <time>2019-06-16T06:54:04.000Z</time>
      </trkpt>
      <trkpt lat="43.18156" lon="2.39161">
        <ele>173.2</ele>
        <time>2019-06-16T06:54:05.000Z</time>
      </trkpt>
      <trkpt lat="43.18153" lon="2.39161">
        <ele>173</ele>
        <time>2019-06-16T06:54:06.000Z</time>
      </trkpt>
      <trkpt lat="43.18151" lon="2.3916">
        <ele>172.8</ele>
        <time>2019-06-16T06:54:07.000Z</time>
      </trkpt>
      <trkpt lat="43.18148" lon="2.3916">
        <ele>172.6</ele>
        <time>2019-06-16T06:54:08.000Z</time>
      </trkpt>
      <trkpt lat="43.18145" lon="2.3916">
        <ele>172.5</ele>
        <time>2019-06-16T06:54:09.000Z</time>
      </trkpt>
      <trkpt lat="43.18143" lon="2.39159">
        <ele>172.3</ele>
        <time>2019-06-16T06:54:10.000Z</time>
      </trkpt>
      <trkpt lat="43.1814" lon="2.39159">
        <ele>172.1</ele>
        <time>2019-06-16T06:54:11.000Z</time>
      </trkpt>
      <trkpt lat="43.18138" lon="2.39159">
        <ele>171.9</ele>
        <time>2019-06-16T06:54:12.000Z</time>
      </trkpt>
      <trkpt lat="43.18135" lon="2.39159">
        <ele>171.7</ele>
        <time>2019-06-16T06:54:13.000Z</time>
      </trkpt>
      <trkpt lat="43.18132" lon="2.39159">
        <ele>171.5</ele>
        <time>2019-06-16T06:54:14.000Z</time>
      </trkpt>
      <trkpt lat="43.1813" lon="2.39159">
        <ele>171.3</ele>
        <time>2019-06-16T06:54:15.000Z</time>
      </trkpt>
      <trkpt lat="43.18127" lon="2.39159">
        <ele>171.1</ele>
        <time>2019-06-16T06:54:16.000Z</time>
      </trkpt>
      <trkpt lat="43.18124" lon="2.39158">
        <ele>171</ele>
        <time>2019-06-16T06:54:17.000Z</time>
      </trkpt>
      <trkpt lat="43.18122" lon="2.39158">
        <ele>170.8</ele>
        <time>2019-06-16T06:54:18.000Z</time>
      </trkpt>
      <trkpt lat="43.18119" lon="2.39158">
        <ele>170.6</ele>
        <time>2019-06-16T06:54:19.000Z</time>
      </trkpt>
      <trkpt lat="43.18117" lon="2.39157">
        <ele>170.4</ele>
        <time>2019-06-16T06:54:20.000Z</time>
      </trkpt>
      <trkpt lat="43.18114" lon="2.39157">
        <ele>170.2</ele>
        <time>2019-06-16T06:54:21.000Z</time>
      </trkpt>
      <trkpt lat="43.18112" lon="2.39156">
        <ele>170</ele>
        <time>2019-06-16T06:54:22.000Z</time>
      </trkpt>
      <trkpt lat="43.18109" lon="2.39155">
        <ele>169.8</ele>
        <time>2019-06-16T06:54:23.000Z</time>
      </trkpt>
      <trkpt lat="43.18107" lon="2.39155">
        <ele>169.7</ele>
        <time>2019-06-16T06:54:24.000Z</time>
      </trkpt>
      <trkpt lat="43.18104" lon="2.39154">
        <ele>169.5</ele>
        <time>2019-06-16T06:54:25.000Z</time>
      </trkpt>
      <trkpt lat="43.18102" lon="2.39153">
        <ele>169.3</ele>
        <time>2019-06-16T06:54:26.000Z</time>
      </trkpt>
      <trkpt lat="43.18099" lon="2.39152">
        <ele>169.2</ele>
        <time>2019-06-16T06:54:27.000Z</time>
      </trkpt>
      <trkpt lat="43.18097" lon="2.3915">
        <ele>169</ele>
        <time>2019-06-16T06:54:28.000Z</time>
      </trkpt>
      <trkpt lat="43.18095" lon="2.39149">
        <ele>168.8</ele>
        <time>2019-06-16T06:54:29.000Z</time>
      </trkpt>
      <trkpt lat="43.18093" lon="2.39148">
        <ele>168.7</ele>
        <time>2019-06-16T06:54:30.000Z</time>
      </trkpt>
      <trkpt lat="43.18091" lon="2.39146">
        <ele>168.5</ele>
        <time>2019-06-16T06:54:31.000Z</time>
      </trkpt>
      <trkpt lat="43.18089" lon="2.39144">
        <ele>168.4</ele>
        <time>2019-06-16T06:54:32.000Z</time>
      </trkpt>
      <trkpt lat="43.18087" lon="2.39143">
        <ele>168.3</ele>
        <time>2019-06-16T06:54:33.000Z</time>
      </trkpt>
      <trkpt lat="43.18085" lon="2.39141">
        <ele>168.1</ele>
        <time>2019-06-16T06:54:34.000Z</time>
      </trkpt>
      <trkpt lat="43.18084" lon="2.39139">
        <ele>168</ele>
        <time>2019-06-16T06:54:35.000Z</time>
      </trkpt>
      <trkpt lat="43.18082" lon="2.39137">
        <ele>167.9</ele>
        <time>2019-06-16T06:54:36.000Z</time>
      </trkpt>
      <trkpt lat="43.18081" lon="2.39135">
        <ele>167.9</ele>
        <time>2019-06-16T06:54:37.000Z</time>
      </trkpt>
      <trkpt lat="43.18079" lon="2.39133">
        <ele>167.8</ele>
        <time>2019-06-16T06:54:38.000Z</time>
      </trkpt>
      <trkpt lat="43.18078" lon="2.39132">
        <ele>167.7</ele>
        <time>2019-06-16T06:54:39.000Z</time>
      </trkpt>
      <trkpt lat="43.18077" lon="2.3913">
        <ele>167.7</ele>
        <time>2019-06-16T06:54:40.000Z</time>
      </trkpt>
      <trkpt lat="43.18076" lon="2.39129">
        <ele>167.6</ele>
        <time>2019-06-16T06:54:41.000Z</time>
      </trkpt>
      <trkpt lat="43.18074" lon="2.39127">
        <ele>167.6</ele>
        <time>2019-06-16T06:54:42.000Z</time>
      </trkpt>
      <trkpt lat="43.18073" lon="2.39126">
        <ele>167.5</ele>
        <time>2019-06-16T06:54:43.000Z</time>
      </trkpt>
      <trkpt lat="43.18072" lon="2.39125">
        <ele>167.5</ele>
        <time>2019-06-16T06:54:44.000Z</time>
      </trkpt>
      <trkpt lat="43.18071" lon="2.39125">
        <ele>167.4</ele>
        <time>2019-06-16T06:54:45.000Z</time>
      </trkpt>
      <trkpt lat="43.1807" lon="2.39124">
        <ele>167.3</ele>
        <time>2019-06-16T06:54:46.000Z</time>
      </trkpt>
      <trkpt lat="43.18068" lon="2.39123">
        <ele>167.3</ele>
        <time>2019-06-16T06:54:47.000Z</time>
      </trkpt>
      <trkpt lat="43.18067" lon="2.39122">
        <ele>167.2</ele>
        <time>2019-06-16T06:54:48.000Z</time>
      </trkpt>
      <trkpt lat="43.18065" lon="2.39121">
        <ele>167.1</ele>
        <time>2019-06-16T06:54:49.000Z</time>
      </trkpt>
      <trkpt lat="43.18064" lon="2.3912">
        <ele>167</ele>
        <time>2019-06-16T06:54:50.000Z</time>
      </trkpt>
      <trkpt lat="43.18062" lon="2.39118">
        <ele>166.9</ele>
        <time>2019-06-16T06:54:51.000Z</time>
      </trkpt>
      <trkpt lat="43.1806" lon="2.39117">
        <ele>166.8</ele>
        <time>2019-06-16T06:54:52.000Z</time>
      </trkpt>
      <trkpt lat="43.18058" lon="2.39115">
        <ele>166.7</ele>
        <time>2019-06-16T06:54:53.000Z</time>
      </trkpt>
      <trkpt lat="43.18056" lon="2.39113">
        <ele>166.6</ele>
        <time>2019-06-16T06:54:54.000Z</time>
      </trkpt>
      <trkpt lat="43.18054" lon="2.39112">
        <ele>166.5</ele>
        <time>2019-06-16T06:54:55.000Z</time>
      </trkpt>
      <trkpt lat="43.18052" lon="2.3911">
        <ele>166.3</ele>
        <time>2019-06-16T06:54:56.000Z</time>
      </trkpt>
      <trkpt lat="43.18049" lon="2.39108">
        <ele>166.2</ele>
        <time>2019-06-16T06:54:57.000Z</time>
      </trkpt>
      <trkpt lat="43.18047" lon="2.39106">
        <ele>166.1</ele>
        <time>2019-06-16T06:54:58.000Z</time>
      </trkpt>
      <trkpt lat="43.18045" lon="2.39104">
        <ele>165.9</ele>
        <time>2019-06-16T06:54:59.000Z</time>
      </trkpt>
      <trkpt lat="43.18043" lon="2.39103">
        <ele>165.8</ele>
        <time>2019-06-16T06:55:00.000Z</time>
      </trkpt>
      <trkpt lat="43.18041" lon="2.39101">
        <ele>165.7</ele>
        <time>2019-06-16T06:55:01.000Z</time>
      </trkpt>
      <trkpt lat="43.18038" lon="2.391">
        <ele>165.5</ele>
        <time>2019-06-16T06:55:02.000Z</time>
      </trkpt>
      <trkpt lat="43.18036" lon="2.39098">
        <ele>165.4</ele>
        <time>2019-06-16T06:55:03.000Z</time>
      </trkpt>
      <trkpt lat="43.18034" lon="2.39097">
        <ele>165.2</ele>
        <time>2019-06-16T06:55:04.000Z</time>
      </trkpt>
      <trkpt lat="43.18032" lon="2.39095">
        <ele>165.1</ele>
        <time>2019-06-16T06:55:05.000Z</time>
      </trkpt>
      <trkpt lat="43.1803" lon="2.39094">
        <ele>164.9</ele>
        <time>2019-06-16T06:55:06.000Z</time>
      </trkpt>
      <trkpt lat="43.18027" lon="2.39091">
        <ele>164.8</ele>
        <time>2019-06-16T06:55:07.000Z</time>
      </trkpt>
      <trkpt lat="43.18025" lon="2.39089">
        <ele>164.6</ele>
        <time>2019-06-16T06:55:08.000Z</time>
      </trkpt>
      <trkpt lat="43.18023" lon="2.39087">
        <ele>164.4</ele>
        <time>2019-06-16T06:55:09.000Z</time>
      </trkpt>
      <trkpt lat="43.18021" lon="2.39084">
        <ele>164.2</ele>
        <time>2019-06-16T06:55:10.000Z</time>
      </trkpt>
      <trkpt lat="43.18019" lon="2.39081">
        <ele>164.1</ele>
        <time>2019-06-16T06:55:11.000Z</time>
      </trkpt>
      <trkpt lat="43.18018" lon="2.39077">
        <ele>164</ele>
        <time>2019-06-16T06:55:12.000Z</time>
      </trkpt>
      <trkpt lat="43.18017" lon="2.39074">
        <ele>164</ele>
        <time>2019-06-16T06:55:13.000Z</time>
      </trkpt>
      <trkpt lat="43.18017" lon="2.3907">
        <ele>163.9</ele>
        <time>2019-06-16T06:55:14.000Z</time>
      </trkpt>
      <trkpt lat="43.18016" lon="2.39067">
        <ele>163.9</ele>
        <time>2019-06-16T06:55:15.000Z</time>
      </trkpt>
      <trkpt lat="43.18016" lon="2.39064">
        <ele>163.8</ele>
        <time>2019-06-16T06:55:16.000Z</time>
      </trkpt>
      <trkpt lat="43.18015" lon="2.39061">
        <ele>163.7</ele>
        <time>2019-06-16T06:55:17.000Z</time>
      </trkpt>
      <trkpt lat="43.18015" lon="2.39059">
        <ele>163.7</ele>
        <time>2019-06-16T06:55:18.000Z</time>
      </trkpt>
      <trkpt lat="43.18014" lon="2.39056">
        <ele>163.6</ele>
        <time>2019-06-16T06:55:19.000Z</time>
      </trkpt>
      <trkpt lat="43.18014" lon="2.39053">
        <ele>163.6</ele>
        <time>2019-06-16T06:55:20.000Z</time>
      </trkpt>
      <trkpt lat="43.18015" lon="2.3905">
        <ele>163.6</ele>
        <time>2019-06-16T06:55:21.000Z</time>
      </trkpt>
      <trkpt lat="43.18015" lon="2.39047">
        <ele>163.7</ele>
        <time>2019-06-16T06:55:22.000Z</time>
      </trkpt>
      <trkpt lat="43.18016" lon="2.39045">
        <ele>163.7</ele>
        <time>2019-06-16T06:55:23.000Z</time>
      </trkpt>
      <trkpt lat="43.18017" lon="2.39042">
        <ele>163.7</ele>
        <time>2019-06-16T06:55:24.000Z</time>
      </trkpt>
      <trkpt lat="43.18017" lon="2.3904">
        <ele>163.7</ele>
        <time>2019-06-16T06:55:25.000Z</time>
      </trkpt>
      <trkpt lat="43.18018" lon="2.39038">
        <ele>163.8</ele>
        <time>2019-06-16T06:55:26.000Z</time>
      </trkpt>
      <trkpt lat="43.18019" lon="2.39035">
        <ele>163.8</ele>
        <time>2019-06-16T06:55:27.000Z</time>
      </trkpt>
      <trkpt lat="43.1802" lon="2.39033">
        <ele>163.9</ele>
        <time>2019-06-16T06:55:28.000Z</time>
      </trkpt>
      <trkpt lat="43.18021" lon="2.39031">
        <ele>163.9</ele>
        <time>2019-06-16T06:55:29.000Z</time>
      </trkpt>
      <trkpt lat="43.18021" lon="2.39028">
        <ele>164</ele>
        <time>2019-06-16T06:55:30.000Z</time>
      </trkpt>
      <trkpt lat="43.18022" lon="2.39026">
        <ele>164</ele>
        <time>2019-06-16T06:55:31.000Z</time>
      </trkpt>
      <trkpt lat="43.18023" lon="2.39023">
        <ele>164.1</ele>
        <time>2019-06-16T06:55:32.000Z</time>
      </trkpt>
      <trkpt lat="43.18024" lon="2.3902">
        <ele>164.1</ele>
        <time>2019-06-16T06:55:33.000Z</time>
      </trkpt>
      <trkpt lat="43.18025" lon="2.39017">
        <ele>164.2</ele>
        <time>2019-06-16T06:55:34.000Z</time>
      </trkpt>
      <trkpt lat="43.18026" lon="2.39014">
        <ele>164.2</ele>
        <time>2019-06-16T06:55:35.000Z</time>
      </trkpt>
      <trkpt lat="43.18026" lon="2.39011">
        <ele>164.3</ele>
        <time>2019-06-16T06:55:36.000Z</time>
      </trkpt>
      <trkpt lat="43.18027" lon="2.39008">
        <ele>164.3</ele>
        <time>2019-06-16T06:55:37.000Z</time>
      </trkpt>
      <trkpt lat="43.18028" lon="2.39005">
        <ele>164.4</ele>
        <time>2019-06-16T06:55:38.000Z</time>
      </trkpt>
      <trkpt lat="43.18029" lon="2.39002">
        <ele>164.4</ele>
        <time>2019-06-16T06:55:39.000Z</time>
      </trkpt>
      <trkpt lat="43.1803" lon="2.38999">
        <ele>164.5</ele>
        <time>2019-06-16T06:55:40.000Z</time>
      </trkpt>
      <trkpt lat="43.18031" lon="2.38996">
        <ele>164.5</ele>
        <time>2019-06-16T06:55:41.000Z</time>
      </trkpt>
      <trkpt lat="43.18032" lon="2.38993">
        <ele>164.5</ele>
        <time>2019-06-16T06:55:42.000Z</time>
      </trkpt>
      <trkpt lat="43.18032" lon="2.3899">
        <ele>164.6</ele>
        <time>2019-06-16T06:55:43.000Z</time>
      </trkpt>
      <trkpt lat="43.18033" lon="2.38987">
        <ele>164.6</ele>
        <time>2019-06-16T06:55:44.000Z</time>
      </trkpt>
      <trkpt lat="43.18034" lon="2.38984">
        <ele>164.6</ele>
        <time>2019-06-16T06:55:45.000Z</time>
      </trkpt>
      <trkpt lat="43.18035" lon="2.38981">
        <ele>164.6</ele>
        <time>2019-06-16T06:55:46.000Z</time>
      </trkpt>
      <trkpt lat="43.18036" lon="2.38978">
        <ele>164.6</ele>
        <time>2019-06-16T06:55:47.000Z</time>
      </trkpt>
      <trkpt lat="43.18036" lon="2.38975">
        <ele>164.6</ele>
        <time>2019-06-16T06:55:48.000Z</time>
      </trkpt>
      <trkpt lat="43.18037" lon="2.38972">
        <ele>164.6</ele>
        <time>2019-06-16T06:55:49.000Z</time>
      </trkpt>
      <trkpt lat="43.18038" lon="2.38969">
        <ele>164.6</ele>
        <time>2019-06-16T06:55:50.000Z</time>
      </trkpt>
      <trkpt lat="43.18039" lon="2.38966">
        <ele>164.6</ele>
        <time>2019-06-16T06:55:51.000Z</time>
      </trkpt>
      <trkpt lat="43.18039" lon="2.38963">
        <ele>164.6</ele>
        <time>2019-06-16T06:55:52.000Z</time>
      </trkpt>
      <trkpt lat="43.1804" lon="2.3896">
        <ele>164.6</ele>
        <time>2019-06-16T06:55:53.000Z</time>
      </trkpt>
      <trkpt lat="43.18041" lon="2.38957">
        <ele>164.6</ele>
        <time>2019-06-16T06:55:54.000Z</time>
      </trkpt>
      <trkpt lat="43.18041" lon="2.38953">
        <ele>164.6</ele>
        <time>2019-06-16T06:55:55.000Z</time>
      </trkpt>
      <trkpt lat="43.18042" lon="2.3895">
        <ele>164.6</ele>
        <time>2019-06-16T06:55:56.000Z</time>
      </trkpt>
      <trkpt lat="43.18043" lon="2.38947">
        <ele>164.6</ele>
        <time>2019-06-16T06:55:57.000Z</time>
      </trkpt>
      <trkpt lat="43.18043" lon="2.38944">
        <ele>164.6</ele>
        <time>2019-06-16T06:55:58.000Z</time>
      </trkpt>
      <trkpt lat="43.18044" lon="2.3894">
        <ele>164.6</ele>
        <time>2019-06-16T06:55:59.000Z</time>
      </trkpt>
      <trkpt lat="43.18045" lon="2.38937">
        <ele>164.6</ele>
        <time>2019-06-16T06:56:00.000Z</time>
      </trkpt>
      <trkpt lat="43.18045" lon="2.38934">
        <ele>164.6</ele>
        <time>2019-06-16T06:56:01.000Z</time>
      </trkpt>
      <trkpt lat="43.18046" lon="2.38931">
        <ele>164.6</ele>
        <time>2019-06-16T06:56:02.000Z</time>
      </trkpt>
      <trkpt lat="43.18047" lon="2.38928">
        <ele>164.6</ele>
        <time>2019-06-16T06:56:03.000Z</time>
      </trkpt>
      <trkpt lat="43.18047" lon="2.38925">
        <ele>164.6</ele>
        <time>2019-06-16T06:56:04.000Z</time>
      </trkpt>
      <trkpt lat="43.18048" lon="2.38922">
        <ele>164.5</ele>
        <time>2019-06-16T06:56:05.000Z</time>
      </trkpt>
      <trkpt lat="43.18049" lon="2.38919">
        <ele>164.5</ele>
        <time>2019-06-16T06:56:06.000Z</time>
      </trkpt>
      <trkpt lat="43.18049" lon="2.38916">
        <ele>164.5</ele>
        <time>2019-06-16T06:56:07.000Z</time>
      </trkpt>
      <trkpt lat="43.1805" lon="2.38913">
        <ele>164.5</ele>
        <time>2019-06-16T06:56:08.000Z</time>
      </trkpt>
      <trkpt lat="43.18051" lon="2.3891">
        <ele>164.6</ele>
        <time>2019-06-16T06:56:09.000Z</time>
      </trkpt>
      <trkpt lat="43.18052" lon="2.38908">
        <ele>164.6</ele>
        <time>2019-06-16T06:56:10.000Z</time>
      </trkpt>
      <trkpt lat="43.18052" lon="2.38905">
        <ele>164.6</ele>
        <time>2019-06-16T06:56:11.000Z</time>
      </trkpt>
      <trkpt lat="43.18053" lon="2.38903">
        <ele>164.6</ele>
        <time>2019-06-16T06:56:12.000Z</time>
      </trkpt>
      <trkpt lat="43.18054" lon="2.38901">
        <ele>164.6</ele>
        <time>2019-06-16T06:56:13.000Z</time>
      </trkpt>
      <trkpt lat="43.18056" lon="2.38899">
        <ele>164.7</ele>
        <time>2019-06-16T06:56:14.000Z</time>
      </trkpt>
      <trkpt lat="43.18058" lon="2.38897">
        <ele>164.7</ele>
        <time>2019-06-16T06:56:15.000Z</time>
      </trkpt>
      <trkpt lat="43.1806" lon="2.38895">
        <ele>164.8</ele>
        <time>2019-06-16T06:56:16.000Z</time>
      </trkpt>
      <trkpt lat="43.18062" lon="2.38894">
        <ele>164.9</ele>
        <time>2019-06-16T06:56:17.000Z</time>
      </trkpt>
      <trkpt lat="43.18063" lon="2.38893">
        <ele>165</ele>
        <time>2019-06-16T06:56:18.000Z</time>
      </trkpt>
      <trkpt lat="43.18065" lon="2.38891">
        <ele>165</ele>
        <time>2019-06-16T06:56:19.000Z</time>
      </trkpt>
      <trkpt lat="43.18066" lon="2.3889">
        <ele>165.1</ele>
        <time>2019-06-16T06:56:20.000Z</time>
      </trkpt>
      <trkpt lat="43.18068" lon="2.38889">
        <ele>165.1</ele>
        <time>2019-06-16T06:56:21.000Z</time>
      </trkpt>
      <trkpt lat="43.18069" lon="2.38887">
        <ele>165.1</ele>
        <time>2019-06-16T06:56:22.000Z</time>
      </trkpt>
      <trkpt lat="43.1807" lon="2.38885">
        <ele>165.1</ele>
        <time>2019-06-16T06:56:23.000Z</time>
      </trkpt>
      <trkpt lat="43.1807" lon="2.38884">
        <ele>165.1</ele>
        <time>2019-06-16T06:56:24.000Z</time>
      </trkpt>
      <trkpt lat="43.18071" lon="2.38881">
        <ele>165.1</ele>
        <time>2019-06-16T06:56:25.000Z</time>
      </trkpt>
      <trkpt lat="43.18073" lon="2.38879">
        <ele>165.1</ele>
        <time>2019-06-16T06:56:26.000Z</time>
      </trkpt>
      <trkpt lat="43.18074" lon="2.38877">
        <ele>165.1</ele>
        <time>2019-06-16T06:56:27.000Z</time>
      </trkpt>
      <trkpt lat="43.18075" lon="2.38874">
        <ele>165.1</ele>
        <time>2019-06-16T06:56:28.000Z</time>
      </trkpt>
      <trkpt lat="43.18076" lon="2.38871">
        <ele>165.1</ele>
        <time>2019-06-16T06:56:29.000Z</time>
      </trkpt>
      <trkpt lat="43.18078" lon="2.38869">
        <ele>165</ele>
        <time>2019-06-16T06:56:30.000Z</time>
      </trkpt>
      <trkpt lat="43.18079" lon="2.38866">
        <ele>165</ele>
        <time>2019-06-16T06:56:31.000Z</time>
      </trkpt>
      <trkpt lat="43.1808" lon="2.38864">
        <ele>165</ele>
        <time>2019-06-16T06:56:32.000Z</time>
      </trkpt>
      <trkpt lat="43.18082" lon="2.38861">
        <ele>164.9</ele>
        <time>2019-06-16T06:56:33.000Z</time>
      </trkpt>
      <trkpt lat="43.18083" lon="2.38859">
        <ele>164.9</ele>
        <time>2019-06-16T06:56:34.000Z</time>
      </trkpt>
      <trkpt lat="43.18084" lon="2.38857">
        <ele>164.9</ele>
        <time>2019-06-16T06:56:35.000Z</time>
      </trkpt>
      <trkpt lat="43.18085" lon="2.38855">
        <ele>164.9</ele>
        <time>2019-06-16T06:56:36.000Z</time>
      </trkpt>
      <trkpt lat="43.18086" lon="2.38853">
        <ele>164.9</ele>
        <time>2019-06-16T06:56:37.000Z</time>
      </trkpt>
      <trkpt lat="43.18087" lon="2.38851">
        <ele>164.9</ele>
        <time>2019-06-16T06:56:38.000Z</time>
      </trkpt>
      <trkpt lat="43.18088" lon="2.38848">
        <ele>164.8</ele>
        <time>2019-06-16T06:56:39.000Z</time>
      </trkpt>
      <trkpt lat="43.18089" lon="2.38845">
        <ele>164.8</ele>
        <time>2019-06-16T06:56:40.000Z</time>
      </trkpt>
      <trkpt lat="43.18089" lon="2.38843">
        <ele>164.8</ele>
        <time>2019-06-16T06:56:41.000Z</time>
      </trkpt>
      <trkpt lat="43.1809" lon="2.3884">
        <ele>164.7</ele>
        <time>2019-06-16T06:56:42.000Z</time>
      </trkpt>
      <trkpt lat="43.18091" lon="2.38838">
        <ele>164.7</ele>
        <time>2019-06-16T06:56:43.000Z</time>
      </trkpt>
      <trkpt lat="43.18092" lon="2.38836">
        <ele>164.7</ele>
        <time>2019-06-16T06:56:44.000Z</time>
      </trkpt>
      <trkpt lat="43.18093" lon="2.38833">
        <ele>164.7</ele>
        <time>2019-06-16T06:56:45.000Z</time>
      </trkpt>
      <trkpt lat="43.18094" lon="2.38831">
        <ele>164.7</ele>
        <time>2019-06-16T06:56:46.000Z</time>
      </trkpt>
      <trkpt lat="43.18095" lon="2.38828">
        <ele>164.7</ele>
        <time>2019-06-16T06:56:47.000Z</time>
      </trkpt>
      <trkpt lat="43.18096" lon="2.38826">
        <ele>164.7</ele>
        <time>2019-06-16T06:56:48.000Z</time>
      </trkpt>
      <trkpt lat="43.18097" lon="2.38823">
        <ele>164.7</ele>
        <time>2019-06-16T06:56:49.000Z</time>
      </trkpt>
      <trkpt lat="43.18098" lon="2.3882">
        <ele>164.7</ele>
        <time>2019-06-16T06:56:50.000Z</time>
      </trkpt>
      <trkpt lat="43.18099" lon="2.38818">
        <ele>164.7</ele>
        <time>2019-06-16T06:56:51.000Z</time>
      </trkpt>
      <trkpt lat="43.18101" lon="2.38815">
        <ele>164.7</ele>
        <time>2019-06-16T06:56:52.000Z</time>
      </trkpt>
      <trkpt lat="43.18102" lon="2.38812">
        <ele>164.7</ele>
        <time>2019-06-16T06:56:53.000Z</time>
      </trkpt>
      <trkpt lat="43.18102" lon="2.38809">
        <ele>164.7</ele>
        <time>2019-06-16T06:56:54.000Z</time>
      </trkpt>
      <trkpt lat="43.18103" lon="2.38807">
        <ele>164.7</ele>
        <time>2019-06-16T06:56:55.000Z</time>
      </trkpt>
      <trkpt lat="43.18104" lon="2.38804">
        <ele>164.7</ele>
        <time>2019-06-16T06:56:56.000Z</time>
      </trkpt>
      <trkpt lat="43.18105" lon="2.38802">
        <ele>164.7</ele>
        <time>2019-06-16T06:56:57.000Z</time>
      </trkpt>
      <trkpt lat="43.18106" lon="2.38801">
        <ele>164.7</ele>
        <time>2019-06-16T06:56:58.000Z</time>
      </trkpt>
      <trkpt lat="43.18106" lon="2.38799">
        <ele>164.7</ele>
        <time>2019-06-16T06:56:59.000Z</time>
      </trkpt>
      <trkpt lat="43.18107" lon="2.38798">
        <ele>164.7</ele>
        <time>2019-06-16T06:57:00.000Z</time>
      </trkpt>
      <trkpt lat="43.18107" lon="2.38797">
        <ele>164.7</ele>
        <time>2019-06-16T06:57:01.000Z</time>
      </trkpt>
      <trkpt lat="43.18107" lon="2.38796">
        <ele>164.7</ele>
        <time>2019-06-16T06:57:02.000Z</time>
      </trkpt>
      <trkpt lat="43.18107" lon="2.38796">
        <ele>164.7</ele>
        <time>2019-06-16T06:57:03.000Z</time>
      </trkpt>
      <trkpt lat="43.18107" lon="2.38796">
        <ele>164.6</ele>
        <time>2019-06-16T06:57:04.000Z</time>
      </trkpt>
      <trkpt lat="43.18106" lon="2.38796">
        <ele>164.6</ele>
        <time>2019-06-16T06:57:05.000Z</time>
      </trkpt>
      <trkpt lat="43.18106" lon="2.38795">
        <ele>164.6</ele>
        <time>2019-06-16T06:57:06.000Z</time>
      </trkpt>
      <trkpt lat="43.18105" lon="2.38795">
        <ele>164.5</ele>
        <time>2019-06-16T06:57:07.000Z</time>
      </trkpt>
      <trkpt lat="43.18105" lon="2.38794">
        <ele>164.5</ele>
        <time>2019-06-16T06:57:08.000Z</time>
      </trkpt>
      <trkpt lat="43.18104" lon="2.38793">
        <ele>164.4</ele>
        <time>2019-06-16T06:57:09.000Z</time>
      </trkpt>
      <trkpt lat="43.18104" lon="2.38793">
        <ele>164.4</ele>
        <time>2019-06-16T06:57:10.000Z</time>
      </trkpt>
      <trkpt lat="43.18103" lon="2.38792">
        <ele>164.3</ele>
        <time>2019-06-16T06:57:11.000Z</time>
      </trkpt>
      <trkpt lat="43.18103" lon="2.38792">
        <ele>164.3</ele>
        <time>2019-06-16T06:57:12.000Z</time>
      </trkpt>
      <trkpt lat="43.18102" lon="2.38791">
        <ele>164.2</ele>
        <time>2019-06-16T06:57:13.000Z</time>
      </trkpt>
      <trkpt lat="43.18102" lon="2.38791">
        <ele>164.2</ele>
        <time>2019-06-16T06:57:14.000Z</time>
      </trkpt>
      <trkpt lat="43.18102" lon="2.38791">
        <ele>164.2</ele>
        <time>2019-06-16T06:57:15.000Z</time>
      </trkpt>
      <trkpt lat="43.18102" lon="2.38791">
        <ele>164.2</ele>
        <time>2019-06-16T06:57:16.000Z</time>
      </trkpt>
      <trkpt lat="43.18102" lon="2.38791">
        <ele>164.2</ele>
        <time>2019-06-16T06:57:17.000Z</time>
      </trkpt>
      <trkpt lat="43.18102" lon="2.38791">
        <ele>164.2</ele>
        <time>2019-06-16T06:57:18.000Z</time>
      </trkpt>
      <trkpt lat="43.18102" lon="2.3879">
        <ele>164.2</ele>
        <time>2019-06-16T06:57:19.000Z</time>
      </trkpt>
      <trkpt lat="43.18101" lon="2.3879">
        <ele>164.1</ele>
        <time>2019-06-16T06:57:20.000Z</time>
      </trkpt>
      <trkpt lat="43.18101" lon="2.38789">
        <ele>164.1</ele>
        <time>2019-06-16T06:57:21.000Z</time>
      </trkpt>
      <trkpt lat="43.18101" lon="2.38787">
        <ele>164.1</ele>
        <time>2019-06-16T06:57:22.000Z</time>
      </trkpt>
      <trkpt lat="43.18102" lon="2.38786">
        <ele>164</ele>
        <time>2019-06-16T06:57:23.000Z</time>
      </trkpt>
      <trkpt lat="43.18102" lon="2.38784">
        <ele>164</ele>
        <time>2019-06-16T06:57:24.000Z</time>
      </trkpt>
      <trkpt lat="43.18103" lon="2.38782">
        <ele>164</ele>
        <time>2019-06-16T06:57:25.000Z</time>
      </trkpt>
      <trkpt lat="43.18103" lon="2.38781">
        <ele>164</ele>
        <time>2019-06-16T06:57:26.000Z</time>
      </trkpt>
      <trkpt lat="43.18104" lon="2.38779">
        <ele>164</ele>
        <time>2019-06-16T06:57:27.000Z</time>
      </trkpt>
      <trkpt lat="43.18105" lon="2.38778">
        <ele>164</ele>
        <time>2019-06-16T06:57:28.000Z</time>
      </trkpt>
      <trkpt lat="43.18105" lon="2.38777">
        <ele>164.1</ele>
        <time>2019-06-16T06:57:29.000Z</time>
      </trkpt>
      <trkpt lat="43.18106" lon="2.38776">
        <ele>164.1</ele>
        <time>2019-06-16T06:57:30.000Z</time>
      </trkpt>
      <trkpt lat="43.18107" lon="2.38775">
        <ele>164.1</ele>
        <time>2019-06-16T06:57:31.000Z</time>
      </trkpt>
      <trkpt lat="43.18107" lon="2.38775">
        <ele>164.1</ele>
        <time>2019-06-16T06:57:32.000Z</time>
      </trkpt>
      <trkpt lat="43.18108" lon="2.38774">
        <ele>164.1</ele>
        <time>2019-06-16T06:57:33.000Z</time>
      </trkpt>
      <trkpt lat="43.18108" lon="2.38774">
        <ele>164.1</ele>
        <time>2019-06-16T06:57:34.000Z</time>
      </trkpt>
      <trkpt lat="43.18109" lon="2.38773">
        <ele>164.1</ele>
        <time>2019-06-16T06:57:35.000Z</time>
      </trkpt>
      <trkpt lat="43.18109" lon="2.38771">
        <ele>164.1</ele>
        <time>2019-06-16T06:57:36.000Z</time>
      </trkpt>
      <trkpt lat="43.18109" lon="2.3877">
        <ele>164.1</ele>
        <time>2019-06-16T06:57:37.000Z</time>
      </trkpt>
      <trkpt lat="43.1811" lon="2.38768">
        <ele>164.1</ele>
        <time>2019-06-16T06:57:38.000Z</time>
      </trkpt>
      <trkpt lat="43.1811" lon="2.38767">
        <ele>164.1</ele>
        <time>2019-06-16T06:57:39.000Z</time>
      </trkpt>
      <trkpt lat="43.1811" lon="2.38767">
        <ele>164.1</ele>
        <time>2019-06-16T06:57:40.000Z</time>
      </trkpt>
      <trkpt lat="43.1811" lon="2.38766">
        <ele>164.1</ele>
        <time>2019-06-16T06:57:41.000Z</time>
      </trkpt>
      <trkpt lat="43.18111" lon="2.38765">
        <ele>164</ele>
        <time>2019-06-16T06:57:42.000Z</time>
      </trkpt>
      <trkpt lat="43.18111" lon="2.38763">
        <ele>164</ele>
        <time>2019-06-16T06:57:43.000Z</time>
      </trkpt>
      <trkpt lat="43.18111" lon="2.38762">
        <ele>164</ele>
        <time>2019-06-16T06:57:44.000Z</time>
      </trkpt>
      <trkpt lat="43.18111" lon="2.38761">
        <ele>164</ele>
        <time>2019-06-16T06:57:45.000Z</time>
      </trkpt>
      <trkpt lat="43.18111" lon="2.38759">
        <ele>163.9</ele>
        <time>2019-06-16T06:57:46.000Z</time>
      </trkpt>
      <trkpt lat="43.18112" lon="2.38758">
        <ele>163.9</ele>
        <time>2019-06-16T06:57:47.000Z</time>
      </trkpt>
      <trkpt lat="43.18112" lon="2.38757">
        <ele>163.9</ele>
        <time>2019-06-16T06:57:48.000Z</time>
      </trkpt>
      <trkpt lat="43.18112" lon="2.38756">
        <ele>163.9</ele>
        <time>2019-06-16T06:57:49.000Z</time>
      </trkpt>
      <trkpt lat="43.18113" lon="2.38754">
        <ele>163.9</ele>
        <time>2019-06-16T06:57:50.000Z</time>
      </trkpt>
      <trkpt lat="43.18113" lon="2.38753">
        <ele>163.9</ele>
        <time>2019-06-16T06:57:51.000Z</time>
      </trkpt>
      <trkpt lat="43.18114" lon="2.38752">
        <ele>163.9</ele>
        <time>2019-06-16T06:57:52.000Z</time>
      </trkpt>
      <trkpt lat="43.18114" lon="2.38751">
        <ele>163.9</ele>
        <time>2019-06-16T06:57:53.000Z</time>
      </trkpt>
      <trkpt lat="43.18114" lon="2.38749">
        <ele>163.9</ele>
        <time>2019-06-16T06:57:54.000Z</time>
      </trkpt>
      <trkpt lat="43.18115" lon="2.38748">
        <ele>163.9</ele>
        <time>2019-06-16T06:57:55.000Z</time>
      </trkpt>
      <trkpt lat="43.18115" lon="2.38747">
        <ele>163.9</ele>
        <time>2019-06-16T06:57:56.000Z</time>
      </trkpt>
      <trkpt lat="43.18115" lon="2.38745">
        <ele>163.9</ele>
        <time>2019-06-16T06:57:57.000Z</time>
      </trkpt>
      <trkpt lat="43.18116" lon="2.38744">
        <ele>163.9</ele>
        <time>2019-06-16T06:57:58.000Z</time>
      </trkpt>
      <trkpt lat="43.18116" lon="2.38743">
        <ele>163.9</ele>
        <time>2019-06-16T06:57:59.000Z</time>
      </trkpt>
      <trkpt lat="43.18116" lon="2.38741">
        <ele>164</ele>
        <time>2019-06-16T06:58:00.000Z</time>
      </trkpt>
      <trkpt lat="43.18116" lon="2.38739">
        <ele>164</ele>
        <time>2019-06-16T06:58:01.000Z</time>
      </trkpt>
      <trkpt lat="43.18116" lon="2.38738">
        <ele>164</ele>
        <time>2019-06-16T06:58:02.000Z</time>
      </trkpt>
      <trkpt lat="43.18116" lon="2.38736">
        <ele>163.9</ele>
        <time>2019-06-16T06:58:03.000Z</time>
      </trkpt>
      <trkpt lat="43.18116" lon="2.38734">
        <ele>163.9</ele>
        <time>2019-06-16T06:58:04.000Z</time>
      </trkpt>
      <trkpt lat="43.18116" lon="2.38733">
        <ele>163.9</ele>
        <time>2019-06-16T06:58:05.000Z</time>
      </trkpt>
      <trkpt lat="43.18116" lon="2.38731">
        <ele>163.9</ele>
        <time>2019-06-16T06:58:06.000Z</time>
      </trkpt>
      <trkpt lat="43.18116" lon="2.38729">
        <ele>163.9</ele>
        <time>2019-06-16T06:58:07.000Z</time>
      </trkpt>
      <trkpt lat="43.18116" lon="2.38728">
        <ele>163.9</ele>
        <time>2019-06-16T06:58:08.000Z</time>
      </trkpt>
      <trkpt lat="43.18116" lon="2.38726">
        <ele>163.9</ele>
        <time>2019-06-16T06:58:09.000Z</time>
      </trkpt>
      <trkpt lat="43.18116" lon="2.38725">
        <ele>164</ele>
        <time>2019-06-16T06:58:10.000Z</time>
      </trkpt>
      <trkpt lat="43.18116" lon="2.38723">
        <ele>164</ele>
        <time>2019-06-16T06:58:11.000Z</time>
      </trkpt>
      <trkpt lat="43.18117" lon="2.38721">
        <ele>164</ele>
        <time>2019-06-16T06:58:12.000Z</time>
      </trkpt>
      <trkpt lat="43.18117" lon="2.3872">
        <ele>164</ele>
        <time>2019-06-16T06:58:13.000Z</time>
      </trkpt>
      <trkpt lat="43.18118" lon="2.38719">
        <ele>164.1</ele>
        <time>2019-06-16T06:58:14.000Z</time>
      </trkpt>
      <trkpt lat="43.18118" lon="2.38717">
        <ele>164.1</ele>
        <time>2019-06-16T06:58:15.000Z</time>
      </trkpt>
      <trkpt lat="43.18119" lon="2.38716">
        <ele>164.1</ele>
        <time>2019-06-16T06:58:16.000Z</time>
      </trkpt>
      <trkpt lat="43.18119" lon="2.38715">
        <ele>164.2</ele>
        <time>2019-06-16T06:58:17.000Z</time>
      </trkpt>
      <trkpt lat="43.1812" lon="2.38713">
        <ele>164.2</ele>
        <time>2019-06-16T06:58:18.000Z</time>
      </trkpt>
      <trkpt lat="43.18121" lon="2.38712">
        <ele>164.2</ele>
        <time>2019-06-16T06:58:19.000Z</time>
      </trkpt>
      <trkpt lat="43.18121" lon="2.38711">
        <ele>164.3</ele>
        <time>2019-06-16T06:58:20.000Z</time>
      </trkpt>
      <trkpt lat="43.18122" lon="2.3871">
        <ele>164.3</ele>
        <time>2019-06-16T06:58:21.000Z</time>
      </trkpt>
      <trkpt lat="43.18123" lon="2.38708">
        <ele>164.3</ele>
        <time>2019-06-16T06:58:22.000Z</time>
      </trkpt>
      <trkpt lat="43.18123" lon="2.38707">
        <ele>164.4</ele>
        <time>2019-06-16T06:58:23.000Z</time>
      </trkpt>
      <trkpt lat="43.18124" lon="2.38706">
        <ele>164.4</ele>
        <time>2019-06-16T06:58:24.000Z</time>
      </trkpt>
      <trkpt lat="43.18125" lon="2.38705">
        <ele>164.5</ele>
        <time>2019-06-16T06:58:25.000Z</time>
      </trkpt>
      <trkpt lat="43.18125" lon="2.38704">
        <ele>164.5</ele>
        <time>2019-06-16T06:58:26.000Z</time>
      </trkpt>
      <trkpt lat="43.18126" lon="2.38702">
        <ele>164.5</ele>
        <time>2019-06-16T06:58:27.000Z</time>
      </trkpt>
      <trkpt lat="43.18126" lon="2.38701">
        <ele>164.6</ele>
        <time>2019-06-16T06:58:28.000Z</time>
      </trkpt>
      <trkpt lat="43.18127" lon="2.387">
        <ele>164.6</ele>
        <time>2019-06-16T06:58:29.000Z</time>
      </trkpt>
      <trkpt lat="43.18127" lon="2.38698">
        <ele>164.6</ele>
        <time>2019-06-16T06:58:30.000Z</time>
      </trkpt>
      <trkpt lat="43.18128" lon="2.38697">
        <ele>164.7</ele>
        <time>2019-06-16T06:58:31.000Z</time>
      </trkpt>
      <trkpt lat="43.18128" lon="2.38695">
        <ele>164.7</ele>
        <time>2019-06-16T06:58:32.000Z</time>
      </trkpt>
      <trkpt lat="43.18129" lon="2.38693">
        <ele>164.7</ele>
        <time>2019-06-16T06:58:33.000Z</time>
      </trkpt>
      <trkpt lat="43.18128" lon="2.38692">
        <ele>164.7</ele>
        <time>2019-06-16T06:58:34.000Z</time>
      </trkpt>
      <trkpt lat="43.18128" lon="2.3869">
        <ele>164.7</ele>
        <time>2019-06-16T06:58:35.000Z</time>
      </trkpt>
      <trkpt lat="43.18127" lon="2.38689">
        <ele>164.6</ele>
        <time>2019-06-16T06:58:36.000Z</time>
      </trkpt>
      <trkpt lat="43.18125" lon="2.38689">
        <ele>164.5</ele>
        <time>2019-06-16T06:58:37.000Z</time>
      </trkpt>
      <trkpt lat="43.18123" lon="2.38688">
        <ele>164.4</ele>
        <time>2019-06-16T06:58:38.000Z</time>
      </trkpt>
      <trkpt lat="43.18121" lon="2.38688">
        <ele>164.3</ele>
        <time>2019-06-16T06:58:39.000Z</time>
      </trkpt>
      <trkpt lat="43.18119" lon="2.38687">
        <ele>164.1</ele>
        <time>2019-06-16T06:58:40.000Z</time>
      </trkpt>
      <trkpt lat="43.18117" lon="2.38687">
        <ele>164</ele>
        <time>2019-06-16T06:58:41.000Z</time>
      </trkpt>
      <trkpt lat="43.18114" lon="2.38687">
        <ele>163.9</ele>
        <time>2019-06-16T06:58:42.000Z</time>
      </trkpt>
      <trkpt lat="43.18112" lon="2.38688">
        <ele>163.7</ele>
        <time>2019-06-16T06:58:43.000Z</time>
      </trkpt>
      <trkpt lat="43.1811" lon="2.38688">
        <ele>163.6</ele>
        <time>2019-06-16T06:58:44.000Z</time>
      </trkpt>
      <trkpt lat="43.18108" lon="2.38688">
        <ele>163.5</ele>
        <time>2019-06-16T06:58:45.000Z</time>
      </trkpt>
      <trkpt lat="43.18106" lon="2.38688">
        <ele>163.3</ele>
        <time>2019-06-16T06:58:46.000Z</time>
      </trkpt>
      <trkpt lat="43.18104" lon="2.38687">
        <ele>163.2</ele>
        <time>2019-06-16T06:58:47.000Z</time>
      </trkpt>
      <trkpt lat="43.18101" lon="2.38687">
        <ele>163.1</ele>
        <time>2019-06-16T06:58:48.000Z</time>
      </trkpt>
      <trkpt lat="43.18099" lon="2.38687">
        <ele>162.9</ele>
        <time>2019-06-16T06:58:49.000Z</time>
      </trkpt>
      <trkpt lat="43.18097" lon="2.38688">
        <ele>162.8</ele>
        <time>2019-06-16T06:58:50.000Z</time>
      </trkpt>
      <trkpt lat="43.18094" lon="2.38688">
        <ele>162.7</ele>
        <time>2019-06-16T06:58:51.000Z</time>
      </trkpt>
      <trkpt lat="43.18092" lon="2.38688">
        <ele>162.5</ele>
        <time>2019-06-16T06:58:52.000Z</time>
      </trkpt>
      <trkpt lat="43.18089" lon="2.38688">
        <ele>162.4</ele>
        <time>2019-06-16T06:58:53.000Z</time>
      </trkpt>
      <trkpt lat="43.18087" lon="2.38688">
        <ele>162.2</ele>
        <time>2019-06-16T06:58:54.000Z</time>
      </trkpt>
      <trkpt lat="43.18084" lon="2.38688">
        <ele>162</ele>
        <time>2019-06-16T06:58:55.000Z</time>
      </trkpt>
      <trkpt lat="43.18081" lon="2.38688">
        <ele>162</ele>
        <time>2019-06-16T06:58:56.000Z</time>
      </trkpt>
      <trkpt lat="43.18079" lon="2.38688">
        <ele>162</ele>
        <time>2019-06-16T06:58:57.000Z</time>
      </trkpt>
      <trkpt lat="43.18076" lon="2.38688">
        <ele>162</ele>
        <time>2019-06-16T06:58:58.000Z</time>
      </trkpt>
      <trkpt lat="43.18074" lon="2.38688">
        <ele>162</ele>
        <time>2019-06-16T06:58:59.000Z</time>
      </trkpt>
      <trkpt lat="43.18071" lon="2.38688">
        <ele>162</ele>
        <time>2019-06-16T06:59:00.000Z</time>
      </trkpt>
      <trkpt lat="43.18068" lon="2.38688">
        <ele>162</ele>
        <time>2019-06-16T06:59:01.000Z</time>
      </trkpt>
      <trkpt lat="43.18066" lon="2.38688">
        <ele>161.9</ele>
        <time>2019-06-16T06:59:02.000Z</time>
      </trkpt>
      <trkpt lat="43.18063" lon="2.38687">
        <ele>161.9</ele>
        <time>2019-06-16T06:59:03.000Z</time>
      </trkpt>
      <trkpt lat="43.18061" lon="2.38687">
        <ele>161.9</ele>
        <time>2019-06-16T06:59:04.000Z</time>
      </trkpt>
      <trkpt lat="43.18059" lon="2.38687">
        <ele>161.9</ele>
        <time>2019-06-16T06:59:05.000Z</time>
      </trkpt>
      <trkpt lat="43.18056" lon="2.38687">
        <ele>161.9</ele>
        <time>2019-06-16T06:59:06.000Z</time>
      </trkpt>
      <trkpt lat="43.18054" lon="2.38686">
        <ele>161.9</ele>
        <time>2019-06-16T06:59:07.000Z</time>
      </trkpt>
      <trkpt lat="43.18052" lon="2.38686">
        <ele>161.9</ele>
        <time>2019-06-16T06:59:08.000Z</time>
      </trkpt>
      <trkpt lat="43.1805" lon="2.38685">
        <ele>161.9</ele>
        <time>2019-06-16T06:59:09.000Z</time>
      </trkpt>
      <trkpt lat="43.18048" lon="2.38685">
        <ele>161.9</ele>
        <time>2019-06-16T06:59:10.000Z</time>
      </trkpt>
      <trkpt lat="43.18046" lon="2.38684">
        <ele>161.9</ele>
        <time>2019-06-16T06:59:11.000Z</time>
      </trkpt>
      <trkpt lat="43.18044" lon="2.38684">
        <ele>161.9</ele>
        <time>2019-06-16T06:59:12.000Z</time>
      </trkpt>
      <trkpt lat="43.18042" lon="2.38683">
        <ele>161.9</ele>
        <time>2019-06-16T06:59:13.000Z</time>
      </trkpt>
      <trkpt lat="43.1804" lon="2.38683">
        <ele>161.9</ele>
        <time>2019-06-16T06:59:14.000Z</time>
      </trkpt>
      <trkpt lat="43.18038" lon="2.38682">
        <ele>161.9</ele>
        <time>2019-06-16T06:59:15.000Z</time>
      </trkpt>
      <trkpt lat="43.18036" lon="2.38682">
        <ele>161.9</ele>
        <time>2019-06-16T06:59:16.000Z</time>
      </trkpt>
      <trkpt lat="43.18034" lon="2.38682">
        <ele>161.9</ele>
        <time>2019-06-16T06:59:17.000Z</time>
      </trkpt>
      <trkpt lat="43.18032" lon="2.38681">
        <ele>161.9</ele>
        <time>2019-06-16T06:59:18.000Z</time>
      </trkpt>
      <trkpt lat="43.1803" lon="2.38681">
        <ele>161.9</ele>
        <time>2019-06-16T06:59:19.000Z</time>
      </trkpt>
      <trkpt lat="43.18028" lon="2.3868">
        <ele>161.9</ele>
        <time>2019-06-16T06:59:20.000Z</time>
      </trkpt>
      <trkpt lat="43.18025" lon="2.3868">
        <ele>161.9</ele>
        <time>2019-06-16T06:59:21.000Z</time>
      </trkpt>
      <trkpt lat="43.18023" lon="2.3868">
        <ele>161.9</ele>
        <time>2019-06-16T06:59:22.000Z</time>
      </trkpt>
      <trkpt lat="43.1802" lon="2.3868">
        <ele>161.9</ele>
        <time>2019-06-16T06:59:23.000Z</time>
      </trkpt>
      <trkpt lat="43.18018" lon="2.38679">
        <ele>161.9</ele>
        <time>2019-06-16T06:59:24.000Z</time>
      </trkpt>
      <trkpt lat="43.18016" lon="2.38679">
        <ele>161.9</ele>
        <time>2019-06-16T06:59:25.000Z</time>
      </trkpt>
      <trkpt lat="43.18014" lon="2.38679">
        <ele>161.9</ele>
        <time>2019-06-16T06:59:26.000Z</time>
      </trkpt>
      <trkpt lat="43.18012" lon="2.38679">
        <ele>161.9</ele>
        <time>2019-06-16T06:59:27.000Z</time>
      </trkpt>
      <trkpt lat="43.1801" lon="2.38679">
        <ele>161.9</ele>
        <time>2019-06-16T06:59:28.000Z</time>
      </trkpt>
      <trkpt lat="43.18008" lon="2.38679">
        <ele>161.9</ele>
        <time>2019-06-16T06:59:29.000Z</time>
      </trkpt>
      <trkpt lat="43.18007" lon="2.38678">
        <ele>161.9</ele>
        <time>2019-06-16T06:59:30.000Z</time>
      </trkpt>
      <trkpt lat="43.18005" lon="2.38677">
        <ele>161.9</ele>
        <time>2019-06-16T06:59:31.000Z</time>
      </trkpt>
      <trkpt lat="43.18003" lon="2.38676">
        <ele>161.9</ele>
        <time>2019-06-16T06:59:32.000Z</time>
      </trkpt>
      <trkpt lat="43.18002" lon="2.38675">
        <ele>161.9</ele>
        <time>2019-06-16T06:59:33.000Z</time>
      </trkpt>
      <trkpt lat="43.18" lon="2.38673">
        <ele>161.9</ele>
        <time>2019-06-16T06:59:34.000Z</time>
      </trkpt>
      <trkpt lat="43.17998" lon="2.38673">
        <ele>162.1</ele>
        <time>2019-06-16T06:59:35.000Z</time>
      </trkpt>
      <trkpt lat="43.17996" lon="2.38672">
        <ele>162.3</ele>
        <time>2019-06-16T06:59:36.000Z</time>
      </trkpt>
      <trkpt lat="43.17995" lon="2.38671">
        <ele>162.5</ele>
        <time>2019-06-16T06:59:37.000Z</time>
      </trkpt>
      <trkpt lat="43.17993" lon="2.38671">
        <ele>162.6</ele>
        <time>2019-06-16T06:59:38.000Z</time>
      </trkpt>
      <trkpt lat="43.17991" lon="2.3867">
        <ele>162.8</ele>
        <time>2019-06-16T06:59:39.000Z</time>
      </trkpt>
      <trkpt lat="43.17989" lon="2.38669">
        <ele>163</ele>
        <time>2019-06-16T06:59:40.000Z</time>
      </trkpt>
      <trkpt lat="43.17988" lon="2.38668">
        <ele>163.2</ele>
        <time>2019-06-16T06:59:41.000Z</time>
      </trkpt>
      <trkpt lat="43.17986" lon="2.38667">
        <ele>163.4</ele>
        <time>2019-06-16T06:59:42.000Z</time>
      </trkpt>
      <trkpt lat="43.17984" lon="2.38666">
        <ele>163.5</ele>
        <time>2019-06-16T06:59:43.000Z</time>
      </trkpt>
      <trkpt lat="43.17982" lon="2.38665">
        <ele>163.8</ele>
        <time>2019-06-16T06:59:44.000Z</time>
      </trkpt>
      <trkpt lat="43.17981" lon="2.38664">
        <ele>164</ele>
        <time>2019-06-16T06:59:45.000Z</time>
      </trkpt>
      <trkpt lat="43.17979" lon="2.38662">
        <ele>164.2</ele>
        <time>2019-06-16T06:59:46.000Z</time>
      </trkpt>
      <trkpt lat="43.17977" lon="2.38661">
        <ele>164.4</ele>
        <time>2019-06-16T06:59:47.000Z</time>
      </trkpt>
      <trkpt lat="43.17975" lon="2.3866">
        <ele>164.6</ele>
        <time>2019-06-16T06:59:48.000Z</time>
      </trkpt>
      <trkpt lat="43.17974" lon="2.38659">
        <ele>164.8</ele>
        <time>2019-06-16T06:59:49.000Z</time>
      </trkpt>
      <trkpt lat="43.17972" lon="2.38658">
        <ele>164.9</ele>
        <time>2019-06-16T06:59:50.000Z</time>
      </trkpt>
      <trkpt lat="43.1797" lon="2.38657">
        <ele>165.1</ele>
        <time>2019-06-16T06:59:51.000Z</time>
      </trkpt>
      <trkpt lat="43.17968" lon="2.38656">
        <ele>165.3</ele>
        <time>2019-06-16T06:59:52.000Z</time>
      </trkpt>
      <trkpt lat="43.17967" lon="2.38655">
        <ele>165.5</ele>
        <time>2019-06-16T06:59:53.000Z</time>
      </trkpt>
      <trkpt lat="43.17965" lon="2.38654">
        <ele>165.7</ele>
        <time>2019-06-16T06:59:54.000Z</time>
      </trkpt>
      <trkpt lat="43.17963" lon="2.38653">
        <ele>165.8</ele>
        <time>2019-06-16T06:59:55.000Z</time>
      </trkpt>
      <trkpt lat="43.17961" lon="2.38652">
        <ele>166</ele>
        <time>2019-06-16T06:59:56.000Z</time>
      </trkpt>
      <trkpt lat="43.1796" lon="2.38652">
        <ele>166.2</ele>
        <time>2019-06-16T06:59:57.000Z</time>
      </trkpt>
      <trkpt lat="43.17958" lon="2.38651">
        <ele>166.3</ele>
        <time>2019-06-16T06:59:58.000Z</time>
      </trkpt>
      <trkpt lat="43.17956" lon="2.3865">
        <ele>166.5</ele>
        <time>2019-06-16T06:59:59.000Z</time>
      </trkpt>
      <trkpt lat="43.17955" lon="2.38649">
        <ele>166.6</ele>
        <time>2019-06-16T07:00:00.000Z</time>
      </trkpt>
      <trkpt lat="43.17953" lon="2.38648">
        <ele>166.8</ele>
        <time>2019-06-16T07:00:01.000Z</time>
      </trkpt>
      <trkpt lat="43.17951" lon="2.38647">
        <ele>166.9</ele>
        <time>2019-06-16T07:00:02.000Z</time>
      </trkpt>
      <trkpt lat="43.1795" lon="2.38646">
        <ele>167.1</ele>
        <time>2019-06-16T07:00:03.000Z</time>
      </trkpt>
      <trkpt lat="43.17948" lon="2.38645">
        <ele>167.2</ele>
        <time>2019-06-16T07:00:04.000Z</time>
      </trkpt>
      <trkpt lat="43.17947" lon="2.38644">
        <ele>167.4</ele>
        <time>2019-06-16T07:00:05.000Z</time>
      </trkpt>
      <trkpt lat="43.17945" lon="2.38643">
        <ele>167.5</ele>
        <time>2019-06-16T07:00:06.000Z</time>
      </trkpt>
      <trkpt lat="43.17944" lon="2.38641">
        <ele>167.6</ele>
        <time>2019-06-16T07:00:07.000Z</time>
      </trkpt>
      <trkpt lat="43.17942" lon="2.3864">
        <ele>167.7</ele>
        <time>2019-06-16T07:00:08.000Z</time>
      </trkpt>
      <trkpt lat="43.17941" lon="2.38638">
        <ele>167.8</ele>
        <time>2019-06-16T07:00:09.000Z</time>
      </trkpt>
      <trkpt lat="43.17939" lon="2.38637">
        <ele>167.9</ele>
        <time>2019-06-16T07:00:10.000Z</time>
      </trkpt>
      <trkpt lat="43.17938" lon="2.38635">
        <ele>168</ele>
        <time>2019-06-16T07:00:11.000Z</time>
      </trkpt>
      <trkpt lat="43.17937" lon="2.38634">
        <ele>168.1</ele>
        <time>2019-06-16T07:00:12.000Z</time>
      </trkpt>
      <trkpt lat="43.17936" lon="2.38633">
        <ele>168.2</ele>
        <time>2019-06-16T07:00:13.000Z</time>
      </trkpt>
      <trkpt lat="43.17934" lon="2.38632">
        <ele>168.3</ele>
        <time>2019-06-16T07:00:14.000Z</time>
      </trkpt>
      <trkpt lat="43.17933" lon="2.38631">
        <ele>168.4</ele>
        <time>2019-06-16T07:00:15.000Z</time>
      </trkpt>
      <trkpt lat="43.17932" lon="2.38631">
        <ele>168.5</ele>
        <time>2019-06-16T07:00:16.000Z</time>
      </trkpt>
      <trkpt lat="43.1793" lon="2.3863">
        <ele>168.6</ele>
        <time>2019-06-16T07:00:17.000Z</time>
      </trkpt>
      <trkpt lat="43.17929" lon="2.3863">
        <ele>168.7</ele>
        <time>2019-06-16T07:00:18.000Z</time>
      </trkpt>
      <trkpt lat="43.17928" lon="2.38629">
        <ele>168.8</ele>
        <time>2019-06-16T07:00:19.000Z</time>
      </trkpt>
      <trkpt lat="43.17927" lon="2.38629">
        <ele>168.9</ele>
        <time>2019-06-16T07:00:20.000Z</time>
      </trkpt>
      <trkpt lat="43.17925" lon="2.38629">
        <ele>169</ele>
        <time>2019-06-16T07:00:21.000Z</time>
      </trkpt>
      <trkpt lat="43.17924" lon="2.38629">
        <ele>169.1</ele>
        <time>2019-06-16T07:00:22.000Z</time>
      </trkpt>
      <trkpt lat="43.17922" lon="2.38629">
        <ele>169.1</ele>
        <time>2019-06-16T07:00:23.000Z</time>
      </trkpt>
      <trkpt lat="43.17921" lon="2.38628">
        <ele>169.3</ele>
        <time>2019-06-16T07:00:24.000Z</time>
      </trkpt>
      <trkpt lat="43.1792" lon="2.38628">
        <ele>169.3</ele>
        <time>2019-06-16T07:00:25.000Z</time>
      </trkpt>
      <trkpt lat="43.17918" lon="2.38628">
        <ele>169.4</ele>
        <time>2019-06-16T07:00:26.000Z</time>
      </trkpt>
      <trkpt lat="43.17916" lon="2.38628">
        <ele>169.5</ele>
        <time>2019-06-16T07:00:27.000Z</time>
      </trkpt>
      <trkpt lat="43.17915" lon="2.38627">
        <ele>169.6</ele>
        <time>2019-06-16T07:00:28.000Z</time>
      </trkpt>
      <trkpt lat="43.17913" lon="2.38627">
        <ele>169.7</ele>
        <time>2019-06-16T07:00:29.000Z</time>
      </trkpt>
      <trkpt lat="43.17912" lon="2.38626">
        <ele>169.8</ele>
        <time>2019-06-16T07:00:30.000Z</time>
      </trkpt>
      <trkpt lat="43.1791" lon="2.38626">
        <ele>169.9</ele>
        <time>2019-06-16T07:00:31.000Z</time>
      </trkpt>
      <trkpt lat="43.17908" lon="2.38625">
        <ele>170.1</ele>
        <time>2019-06-16T07:00:32.000Z</time>
      </trkpt>
      <trkpt lat="43.17907" lon="2.38624">
        <ele>170.2</ele>
        <time>2019-06-16T07:00:33.000Z</time>
      </trkpt>
      <trkpt lat="43.17905" lon="2.38623">
        <ele>170.3</ele>
        <time>2019-06-16T07:00:34.000Z</time>
      </trkpt>
      <trkpt lat="43.17903" lon="2.38622">
        <ele>170.3</ele>
        <time>2019-06-16T07:00:35.000Z</time>
      </trkpt>
      <trkpt lat="43.17902" lon="2.38621">
        <ele>170.4</ele>
        <time>2019-06-16T07:00:36.000Z</time>
      </trkpt>
      <trkpt lat="43.179" lon="2.38619">
        <ele>170.5</ele>
        <time>2019-06-16T07:00:37.000Z</time>
      </trkpt>
      <trkpt lat="43.17899" lon="2.38618">
        <ele>170.6</ele>
        <time>2019-06-16T07:00:38.000Z</time>
      </trkpt>
      <trkpt lat="43.17898" lon="2.38617">
        <ele>170.7</ele>
        <time>2019-06-16T07:00:39.000Z</time>
      </trkpt>
      <trkpt lat="43.17896" lon="2.38615">
        <ele>170.8</ele>
        <time>2019-06-16T07:00:40.000Z</time>
      </trkpt>
      <trkpt lat="43.17895" lon="2.38613">
        <ele>170.8</ele>
        <time>2019-06-16T07:00:41.000Z</time>
      </trkpt>
      <trkpt lat="43.17893" lon="2.38612">
        <ele>170.9</ele>
        <time>2019-06-16T07:00:42.000Z</time>
      </trkpt>
      <trkpt lat="43.17892" lon="2.38611">
        <ele>171</ele>
        <time>2019-06-16T07:00:43.000Z</time>
      </trkpt>
      <trkpt lat="43.1789" lon="2.38609">
        <ele>171.1</ele>
        <time>2019-06-16T07:00:44.000Z</time>
      </trkpt>
      <trkpt lat="43.17888" lon="2.38608">
        <ele>171.2</ele>
        <time>2019-06-16T07:00:45.000Z</time>
      </trkpt>
      <trkpt lat="43.17887" lon="2.38607">
        <ele>171.3</ele>
        <time>2019-06-16T07:00:46.000Z</time>
      </trkpt>
      <trkpt lat="43.17885" lon="2.38606">
        <ele>171.5</ele>
        <time>2019-06-16T07:00:47.000Z</time>
      </trkpt>
      <trkpt lat="43.17883" lon="2.38606">
        <ele>171.6</ele>
        <time>2019-06-16T07:00:48.000Z</time>
      </trkpt>
      <trkpt lat="43.17881" lon="2.38605">
        <ele>171.7</ele>
        <time>2019-06-16T07:00:49.000Z</time>
      </trkpt>
      <trkpt lat="43.17879" lon="2.38604">
        <ele>171.9</ele>
        <time>2019-06-16T07:00:50.000Z</time>
      </trkpt>
      <trkpt lat="43.17877" lon="2.38604">
        <ele>172</ele>
        <time>2019-06-16T07:00:51.000Z</time>
      </trkpt>
      <trkpt lat="43.17875" lon="2.38603">
        <ele>172.1</ele>
        <time>2019-06-16T07:00:52.000Z</time>
      </trkpt>
      <trkpt lat="43.17873" lon="2.38602">
        <ele>172.2</ele>
        <time>2019-06-16T07:00:53.000Z</time>
      </trkpt>
      <trkpt lat="43.17871" lon="2.38602">
        <ele>172.4</ele>
        <time>2019-06-16T07:00:54.000Z</time>
      </trkpt>
      <trkpt lat="43.1787" lon="2.38601">
        <ele>172.5</ele>
        <time>2019-06-16T07:00:55.000Z</time>
      </trkpt>
      <trkpt lat="43.17868" lon="2.386">
        <ele>172.6</ele>
        <time>2019-06-16T07:00:56.000Z</time>
      </trkpt>
      <trkpt lat="43.17866" lon="2.38599">
        <ele>172.7</ele>
        <time>2019-06-16T07:00:57.000Z</time>
      </trkpt>
      <trkpt lat="43.17865" lon="2.38598">
        <ele>172.8</ele>
        <time>2019-06-16T07:00:58.000Z</time>
      </trkpt>
      <trkpt lat="43.17863" lon="2.38597">
        <ele>172.9</ele>
        <time>2019-06-16T07:00:59.000Z</time>
      </trkpt>
      <trkpt lat="43.17861" lon="2.38596">
        <ele>173</ele>
        <time>2019-06-16T07:01:00.000Z</time>
      </trkpt>
      <trkpt lat="43.1786" lon="2.38595">
        <ele>173.1</ele>
        <time>2019-06-16T07:01:01.000Z</time>
      </trkpt>
      <trkpt lat="43.17859" lon="2.38594">
        <ele>173.2</ele>
        <time>2019-06-16T07:01:02.000Z</time>
      </trkpt>
      <trkpt lat="43.17857" lon="2.38593">
        <ele>173.3</ele>
        <time>2019-06-16T07:01:03.000Z</time>
      </trkpt>
      <trkpt lat="43.17856" lon="2.38592">
        <ele>173.4</ele>
        <time>2019-06-16T07:01:04.000Z</time>
      </trkpt>
      <trkpt lat="43.17854" lon="2.3859">
        <ele>173.5</ele>
        <time>2019-06-16T07:01:05.000Z</time>
      </trkpt>
      <trkpt lat="43.17853" lon="2.38589">
        <ele>173.6</ele>
        <time>2019-06-16T07:01:06.000Z</time>
      </trkpt>
      <trkpt lat="43.17852" lon="2.38588">
        <ele>173.7</ele>
        <time>2019-06-16T07:01:07.000Z</time>
      </trkpt>
      <trkpt lat="43.1785" lon="2.38587">
        <ele>173.8</ele>
        <time>2019-06-16T07:01:08.000Z</time>
      </trkpt>
      <trkpt lat="43.17849" lon="2.38586">
        <ele>173.9</ele>
        <time>2019-06-16T07:01:09.000Z</time>
      </trkpt>
      <trkpt lat="43.17847" lon="2.38585">
        <ele>174</ele>
        <time>2019-06-16T07:01:10.000Z</time>
      </trkpt>
      <trkpt lat="43.17845" lon="2.38584">
        <ele>174.2</ele>
        <time>2019-06-16T07:01:11.000Z</time>
      </trkpt>
      <trkpt lat="43.17843" lon="2.38584">
        <ele>174.3</ele>
        <time>2019-06-16T07:01:12.000Z</time>
      </trkpt>
      <trkpt lat="43.17842" lon="2.38583">
        <ele>174.4</ele>
        <time>2019-06-16T07:01:13.000Z</time>
      </trkpt>
      <trkpt lat="43.1784" lon="2.38582">
        <ele>174.6</ele>
        <time>2019-06-16T07:01:14.000Z</time>
      </trkpt>
      <trkpt lat="43.17838" lon="2.38581">
        <ele>174.7</ele>
        <time>2019-06-16T07:01:15.000Z</time>
      </trkpt>
      <trkpt lat="43.17836" lon="2.3858">
        <ele>174.9</ele>
        <time>2019-06-16T07:01:16.000Z</time>
      </trkpt>
      <trkpt lat="43.17835" lon="2.38579">
        <ele>175.1</ele>
        <time>2019-06-16T07:01:17.000Z</time>
      </trkpt>
      <trkpt lat="43.17833" lon="2.38578">
        <ele>175.3</ele>
        <time>2019-06-16T07:01:18.000Z</time>
      </trkpt>
      <trkpt lat="43.17831" lon="2.38577">
        <ele>175.5</ele>
        <time>2019-06-16T07:01:19.000Z</time>
      </trkpt>
      <trkpt lat="43.1783" lon="2.38576">
        <ele>175.7</ele>
        <time>2019-06-16T07:01:20.000Z</time>
      </trkpt>
      <trkpt lat="43.17828" lon="2.38575">
        <ele>175.9</ele>
        <time>2019-06-16T07:01:21.000Z</time>
      </trkpt>
      <trkpt lat="43.17826" lon="2.38574">
        <ele>176.1</ele>
        <time>2019-06-16T07:01:22.000Z</time>
      </trkpt>
      <trkpt lat="43.17825" lon="2.38573">
        <ele>176.2</ele>
        <time>2019-06-16T07:01:23.000Z</time>
      </trkpt>
      <trkpt lat="43.17824" lon="2.38572">
        <ele>176.4</ele>
        <time>2019-06-16T07:01:24.000Z</time>
      </trkpt>
      <trkpt lat="43.17822" lon="2.38572">
        <ele>176.5</ele>
        <time>2019-06-16T07:01:25.000Z</time>
      </trkpt>
      <trkpt lat="43.17821" lon="2.38571">
        <ele>176.7</ele>
        <time>2019-06-16T07:01:26.000Z</time>
      </trkpt>
      <trkpt lat="43.1782" lon="2.38571">
        <ele>176.8</ele>
        <time>2019-06-16T07:01:27.000Z</time>
      </trkpt>
      <trkpt lat="43.17819" lon="2.38571">
        <ele>176.9</ele>
        <time>2019-06-16T07:01:28.000Z</time>
      </trkpt>
      <trkpt lat="43.17818" lon="2.38571">
        <ele>177</ele>
        <time>2019-06-16T07:01:29.000Z</time>
      </trkpt>
      <trkpt lat="43.17817" lon="2.38571">
        <ele>177.1</ele>
        <time>2019-06-16T07:01:30.000Z</time>
      </trkpt>
      <trkpt lat="43.17816" lon="2.38571">
        <ele>177.2</ele>
        <time>2019-06-16T07:01:31.000Z</time>
      </trkpt>
      <trkpt lat="43.17815" lon="2.38571">
        <ele>177.3</ele>
        <time>2019-06-16T07:01:32.000Z</time>
      </trkpt>
      <trkpt lat="43.17814" lon="2.38572">
        <ele>177.3</ele>
        <time>2019-06-16T07:01:33.000Z</time>
      </trkpt>
      <trkpt lat="43.17814" lon="2.38572">
        <ele>177.4</ele>
        <time>2019-06-16T07:01:34.000Z</time>
      </trkpt>
      <trkpt lat="43.17813" lon="2.38572">
        <ele>177.5</ele>
        <time>2019-06-16T07:01:35.000Z</time>
      </trkpt>
      <trkpt lat="43.17812" lon="2.38572">
        <ele>177.6</ele>
        <time>2019-06-16T07:01:36.000Z</time>
      </trkpt>
      <trkpt lat="43.17812" lon="2.38572">
        <ele>177.6</ele>
        <time>2019-06-16T07:01:37.000Z</time>
      </trkpt>
      <trkpt lat="43.17811" lon="2.38572">
        <ele>177.7</ele>
        <time>2019-06-16T07:01:38.000Z</time>
      </trkpt>
      <trkpt lat="43.1781" lon="2.38572">
        <ele>177.7</ele>
        <time>2019-06-16T07:01:39.000Z</time>
      </trkpt>
      <trkpt lat="43.1781" lon="2.38571">
        <ele>177.8</ele>
        <time>2019-06-16T07:01:40.000Z</time>
      </trkpt>
      <trkpt lat="43.17809" lon="2.38571">
        <ele>177.9</ele>
        <time>2019-06-16T07:01:41.000Z</time>
      </trkpt>
      <trkpt lat="43.17809" lon="2.38571">
        <ele>177.9</ele>
        <time>2019-06-16T07:01:42.000Z</time>
      </trkpt>
      <trkpt lat="43.17808" lon="2.3857">
        <ele>178</ele>
        <time>2019-06-16T07:01:43.000Z</time>
      </trkpt>
      <trkpt lat="43.17808" lon="2.3857">
        <ele>178.1</ele>
        <time>2019-06-16T07:01:44.000Z</time>
      </trkpt>
      <trkpt lat="43.17807" lon="2.3857">
        <ele>178.1</ele>
        <time>2019-06-16T07:01:45.000Z</time>
      </trkpt>
      <trkpt lat="43.17807" lon="2.38569">
        <ele>178.2</ele>
        <time>2019-06-16T07:01:46.000Z</time>
      </trkpt>
      <trkpt lat="43.17807" lon="2.38569">
        <ele>178.2</ele>
        <time>2019-06-16T07:01:47.000Z</time>
      </trkpt>
      <trkpt lat="43.17806" lon="2.38569">
        <ele>178.2</ele>
        <time>2019-06-16T07:01:48.000Z</time>
      </trkpt>
      <trkpt lat="43.17806" lon="2.38568">
        <ele>178.3</ele>
        <time>2019-06-16T07:01:49.000Z</time>
      </trkpt>
      <trkpt lat="43.17806" lon="2.38568">
        <ele>178.3</ele>
        <time>2019-06-16T07:01:50.000Z</time>
      </trkpt>
      <trkpt lat="43.17806" lon="2.38568">
        <ele>178.3</ele>
        <time>2019-06-16T07:01:51.000Z</time>
      </trkpt>
      <trkpt lat="43.17805" lon="2.38567">
        <ele>178.3</ele>
        <time>2019-06-16T07:01:52.000Z</time>
      </trkpt>
      <trkpt lat="43.17805" lon="2.38567">
        <ele>178.4</ele>
        <time>2019-06-16T07:01:53.000Z</time>
      </trkpt>
      <trkpt lat="43.17805" lon="2.38567">
        <ele>178.4</ele>
        <time>2019-06-16T07:01:54.000Z</time>
      </trkpt>
      <trkpt lat="43.17805" lon="2.38567">
        <ele>178.4</ele>
        <time>2019-06-16T07:01:55.000Z</time>
      </trkpt>
      <trkpt lat="43.17805" lon="2.38567">
        <ele>178.4</ele>
        <time>2019-06-16T07:01:56.000Z</time>
      </trkpt>
      <trkpt lat="43.17805" lon="2.38567">
        <ele>178.4</ele>
        <time>2019-06-16T07:01:57.000Z</time>
      </trkpt>
      <trkpt lat="43.17805" lon="2.38567">
        <ele>178.4</ele>
        <time>2019-06-16T07:01:58.000Z</time>
      </trkpt>
      <trkpt lat="43.17805" lon="2.38566">
        <ele>178.4</ele>
        <time>2019-06-16T07:01:59.000Z</time>
      </trkpt>
      <trkpt lat="43.17804" lon="2.38565">
        <ele>178.5</ele>
        <time>2019-06-16T07:02:00.000Z</time>
      </trkpt>
      <trkpt lat="43.17804" lon="2.38564">
        <ele>178.5</ele>
        <time>2019-06-16T07:02:01.000Z</time>
      </trkpt>
      <trkpt lat="43.17803" lon="2.38563">
        <ele>178.6</ele>
        <time>2019-06-16T07:02:02.000Z</time>
      </trkpt>
      <trkpt lat="43.17803" lon="2.38562">
        <ele>178.7</ele>
        <time>2019-06-16T07:02:03.000Z</time>
      </trkpt>
      <trkpt lat="43.17802" lon="2.38561">
        <ele>178.8</ele>
        <time>2019-06-16T07:02:04.000Z</time>
      </trkpt>
      <trkpt lat="43.17802" lon="2.3856">
        <ele>178.8</ele>
        <time>2019-06-16T07:02:05.000Z</time>
      </trkpt>
      <trkpt lat="43.17801" lon="2.38559">
        <ele>178.9</ele>
        <time>2019-06-16T07:02:06.000Z</time>
      </trkpt>
      <trkpt lat="43.17801" lon="2.38558">
        <ele>179</ele>
        <time>2019-06-16T07:02:07.000Z</time>
      </trkpt>
      <trkpt lat="43.178" lon="2.38557">
        <ele>179</ele>
        <time>2019-06-16T07:02:08.000Z</time>
      </trkpt>
      <trkpt lat="43.178" lon="2.38555">
        <ele>179.1</ele>
        <time>2019-06-16T07:02:09.000Z</time>
      </trkpt>
      <trkpt lat="43.178" lon="2.38554">
        <ele>179.1</ele>
        <time>2019-06-16T07:02:10.000Z</time>
      </trkpt>
      <trkpt lat="43.17799" lon="2.38553">
        <ele>179.2</ele>
        <time>2019-06-16T07:02:11.000Z</time>
      </trkpt>
      <trkpt lat="43.17799" lon="2.38552">
        <ele>179.2</ele>
        <time>2019-06-16T07:02:12.000Z</time>
      </trkpt>
      <trkpt lat="43.17799" lon="2.38551">
        <ele>179.3</ele>
        <time>2019-06-16T07:02:13.000Z</time>
      </trkpt>
      <trkpt lat="43.17798" lon="2.38549">
        <ele>179.3</ele>
        <time>2019-06-16T07:02:14.000Z</time>
      </trkpt>
      <trkpt lat="43.17798" lon="2.38548">
        <ele>179.4</ele>
        <time>2019-06-16T07:02:15.000Z</time>
      </trkpt>
      <trkpt lat="43.17798" lon="2.38546">
        <ele>179.4</ele>
        <time>2019-06-16T07:02:16.000Z</time>
      </trkpt>
      <trkpt lat="43.17797" lon="2.38545">
        <ele>179.5</ele>
        <time>2019-06-16T07:02:17.000Z</time>
      </trkpt>
      <trkpt lat="43.17797" lon="2.38543">
        <ele>179.6</ele>
        <time>2019-06-16T07:02:18.000Z</time>
      </trkpt>
      <trkpt lat="43.17796" lon="2.38541">
        <ele>179.6</ele>
        <time>2019-06-16T07:02:19.000Z</time>
      </trkpt>
      <trkpt lat="43.17796" lon="2.3854">
        <ele>179.7</ele>
        <time>2019-06-16T07:02:20.000Z</time>
      </trkpt>
      <trkpt lat="43.17795" lon="2.38538">
        <ele>179.7</ele>
        <time>2019-06-16T07:02:21.000Z</time>
      </trkpt>
      <trkpt lat="43.17795" lon="2.38536">
        <ele>179.8</ele>
        <time>2019-06-16T07:02:22.000Z</time>
      </trkpt>
      <trkpt lat="43.17795" lon="2.38535">
        <ele>179.9</ele>
        <time>2019-06-16T07:02:23.000Z</time>
      </trkpt>
      <trkpt lat="43.17794" lon="2.38533">
        <ele>179.9</ele>
        <time>2019-06-16T07:02:24.000Z</time>
      </trkpt>
      <trkpt lat="43.17794" lon="2.38531">
        <ele>180</ele>
        <time>2019-06-16T07:02:25.000Z</time>
      </trkpt>
      <trkpt lat="43.17793" lon="2.38528">
        <ele>180</ele>
        <time>2019-06-16T07:02:26.000Z</time>
      </trkpt>
      <trkpt lat="43.17793" lon="2.38526">
        <ele>180.1</ele>
        <time>2019-06-16T07:02:27.000Z</time>
      </trkpt>
      <trkpt lat="43.17793" lon="2.38524">
        <ele>180.1</ele>
        <time>2019-06-16T07:02:28.000Z</time>
      </trkpt>
      <trkpt lat="43.17792" lon="2.38521">
        <ele>180.2</ele>
        <time>2019-06-16T07:02:29.000Z</time>
      </trkpt>
      <trkpt lat="43.17792" lon="2.38518">
        <ele>180.2</ele>
        <time>2019-06-16T07:02:30.000Z</time>
      </trkpt>
      <trkpt lat="43.17792" lon="2.38516">
        <ele>180.3</ele>
        <time>2019-06-16T07:02:31.000Z</time>
      </trkpt>
      <trkpt lat="43.17792" lon="2.38513">
        <ele>180.3</ele>
        <time>2019-06-16T07:02:32.000Z</time>
      </trkpt>
      <trkpt lat="43.17792" lon="2.3851">
        <ele>180.4</ele>
        <time>2019-06-16T07:02:33.000Z</time>
      </trkpt>
      <trkpt lat="43.17792" lon="2.38507">
        <ele>180.4</ele>
        <time>2019-06-16T07:02:34.000Z</time>
      </trkpt>
      <trkpt lat="43.17792" lon="2.38505">
        <ele>180.4</ele>
        <time>2019-06-16T07:02:35.000Z</time>
      </trkpt>
      <trkpt lat="43.17793" lon="2.38502">
        <ele>180.4</ele>
        <time>2019-06-16T07:02:36.000Z</time>
      </trkpt>
      <trkpt lat="43.17793" lon="2.385">
        <ele>180.4</ele>
        <time>2019-06-16T07:02:37.000Z</time>
      </trkpt>
      <trkpt lat="43.17794" lon="2.38498">
        <ele>180.4</ele>
        <time>2019-06-16T07:02:38.000Z</time>
      </trkpt>
      <trkpt lat="43.17794" lon="2.38496">
        <ele>180.3</ele>
        <time>2019-06-16T07:02:39.000Z</time>
      </trkpt>
      <trkpt lat="43.17795" lon="2.38495">
        <ele>180.3</ele>
        <time>2019-06-16T07:02:40.000Z</time>
      </trkpt>
      <trkpt lat="43.17795" lon="2.38493">
        <ele>180.3</ele>
        <time>2019-06-16T07:02:41.000Z</time>
      </trkpt>
      <trkpt lat="43.17796" lon="2.38491">
        <ele>180.3</ele>
        <time>2019-06-16T07:02:42.000Z</time>
      </trkpt>
      <trkpt lat="43.17796" lon="2.3849">
        <ele>180.2</ele>
        <time>2019-06-16T07:02:43.000Z</time>
      </trkpt>
      <trkpt lat="43.17797" lon="2.38488">
        <ele>180.2</ele>
        <time>2019-06-16T07:02:44.000Z</time>
      </trkpt>
      <trkpt lat="43.17797" lon="2.38486">
        <ele>180.2</ele>
        <time>2019-06-16T07:02:45.000Z</time>
      </trkpt>
      <trkpt lat="43.17798" lon="2.38484">
        <ele>180.2</ele>
        <time>2019-06-16T07:02:46.000Z</time>
      </trkpt>
      <trkpt lat="43.17798" lon="2.38483">
        <ele>180.2</ele>
        <time>2019-06-16T07:02:47.000Z</time>
      </trkpt>
      <trkpt lat="43.17798" lon="2.38481">
        <ele>180.2</ele>
        <time>2019-06-16T07:02:48.000Z</time>
      </trkpt>
      <trkpt lat="43.17798" lon="2.38479">
        <ele>180.2</ele>
        <time>2019-06-16T07:02:49.000Z</time>
      </trkpt>
      <trkpt lat="43.17799" lon="2.38477">
        <ele>180.2</ele>
        <time>2019-06-16T07:02:50.000Z</time>
      </trkpt>
      <trkpt lat="43.17799" lon="2.38476">
        <ele>180.2</ele>
        <time>2019-06-16T07:02:51.000Z</time>
      </trkpt>
      <trkpt lat="43.17799" lon="2.38474">
        <ele>180.2</ele>
        <time>2019-06-16T07:02:52.000Z</time>
      </trkpt>
      <trkpt lat="43.17799" lon="2.38472">
        <ele>180.2</ele>
        <time>2019-06-16T07:02:53.000Z</time>
      </trkpt>
      <trkpt lat="43.17799" lon="2.3847">
        <ele>180.2</ele>
        <time>2019-06-16T07:02:54.000Z</time>
      </trkpt>
      <trkpt lat="43.17799" lon="2.38468">
        <ele>180.2</ele>
        <time>2019-06-16T07:02:55.000Z</time>
      </trkpt>
      <trkpt lat="43.178" lon="2.38467">
        <ele>180.2</ele>
        <time>2019-06-16T07:02:56.000Z</time>
      </trkpt>
      <trkpt lat="43.178" lon="2.38465">
        <ele>180.2</ele>
        <time>2019-06-16T07:02:57.000Z</time>
      </trkpt>
      <trkpt lat="43.178" lon="2.38463">
        <ele>180.2</ele>
        <time>2019-06-16T07:02:58.000Z</time>
      </trkpt>
      <trkpt lat="43.178" lon="2.38461">
        <ele>180.2</ele>
        <time>2019-06-16T07:02:59.000Z</time>
      </trkpt>
      <trkpt lat="43.17799" lon="2.38459">
        <ele>180.2</ele>
        <time>2019-06-16T07:03:00.000Z</time>
      </trkpt>
      <trkpt lat="43.17799" lon="2.38457">
        <ele>180.2</ele>
        <time>2019-06-16T07:03:01.000Z</time>
      </trkpt>
      <trkpt lat="43.17799" lon="2.38455">
        <ele>180.2</ele>
        <time>2019-06-16T07:03:02.000Z</time>
      </trkpt>
      <trkpt lat="43.17799" lon="2.38453">
        <ele>180.3</ele>
        <time>2019-06-16T07:03:03.000Z</time>
      </trkpt>
      <trkpt lat="43.17799" lon="2.38452">
        <ele>180.3</ele>
        <time>2019-06-16T07:03:04.000Z</time>
      </trkpt>
      <trkpt lat="43.17799" lon="2.3845">
        <ele>180.3</ele>
        <time>2019-06-16T07:03:05.000Z</time>
      </trkpt>
      <trkpt lat="43.17799" lon="2.38448">
        <ele>180.3</ele>
        <time>2019-06-16T07:03:06.000Z</time>
      </trkpt>
      <trkpt lat="43.178" lon="2.38446">
        <ele>180.3</ele>
        <time>2019-06-16T07:03:07.000Z</time>
      </trkpt>
      <trkpt lat="43.178" lon="2.38445">
        <ele>180.3</ele>
        <time>2019-06-16T07:03:08.000Z</time>
      </trkpt>
      <trkpt lat="43.17801" lon="2.38443">
        <ele>180.3</ele>
        <time>2019-06-16T07:03:09.000Z</time>
      </trkpt>
      <trkpt lat="43.17801" lon="2.38442">
        <ele>180.2</ele>
        <time>2019-06-16T07:03:10.000Z</time>
      </trkpt>
      <trkpt lat="43.17802" lon="2.38441">
        <ele>180.2</ele>
        <time>2019-06-16T07:03:11.000Z</time>
      </trkpt>
      <trkpt lat="43.17803" lon="2.38439">
        <ele>180.2</ele>
        <time>2019-06-16T07:03:12.000Z</time>
      </trkpt>
      <trkpt lat="43.17803" lon="2.38437">
        <ele>180.2</ele>
        <time>2019-06-16T07:03:13.000Z</time>
      </trkpt>
      <trkpt lat="43.17804" lon="2.38436">
        <ele>180.2</ele>
        <time>2019-06-16T07:03:14.000Z</time>
      </trkpt>
      <trkpt lat="43.17805" lon="2.38434">
        <ele>180.2</ele>
        <time>2019-06-16T07:03:15.000Z</time>
      </trkpt>
      <trkpt lat="43.17806" lon="2.38433">
        <ele>180.2</ele>
        <time>2019-06-16T07:03:16.000Z</time>
      </trkpt>
      <trkpt lat="43.17807" lon="2.38431">
        <ele>180.2</ele>
        <time>2019-06-16T07:03:17.000Z</time>
      </trkpt>
      <trkpt lat="43.17807" lon="2.3843">
        <ele>180.2</ele>
        <time>2019-06-16T07:03:18.000Z</time>
      </trkpt>
      <trkpt lat="43.17807" lon="2.3843">
        <ele>180.2</ele>
        <time>2019-06-16T07:03:19.000Z</time>
      </trkpt>
      <trkpt lat="43.17807" lon="2.38429">
        <ele>180.2</ele>
        <time>2019-06-16T07:03:20.000Z</time>
      </trkpt>
      <trkpt lat="43.17807" lon="2.38428">
        <ele>180.2</ele>
        <time>2019-06-16T07:03:21.000Z</time>
      </trkpt>
      <trkpt lat="43.17807" lon="2.38427">
        <ele>180.2</ele>
        <time>2019-06-16T07:03:22.000Z</time>
      </trkpt>
      <trkpt lat="43.17808" lon="2.38425">
        <ele>180.2</ele>
        <time>2019-06-16T07:03:23.000Z</time>
      </trkpt>
      <trkpt lat="43.17808" lon="2.38423">
        <ele>180.2</ele>
        <time>2019-06-16T07:03:24.000Z</time>
      </trkpt>
      <trkpt lat="43.17809" lon="2.38422">
        <ele>180.2</ele>
        <time>2019-06-16T07:03:25.000Z</time>
      </trkpt>
      <trkpt lat="43.17809" lon="2.3842">
        <ele>180.3</ele>
        <time>2019-06-16T07:03:26.000Z</time>
      </trkpt>
      <trkpt lat="43.1781" lon="2.38418">
        <ele>180.3</ele>
        <time>2019-06-16T07:03:27.000Z</time>
      </trkpt>
      <trkpt lat="43.1781" lon="2.38417">
        <ele>180.3</ele>
        <time>2019-06-16T07:03:28.000Z</time>
      </trkpt>
      <trkpt lat="43.17811" lon="2.38415">
        <ele>180.4</ele>
        <time>2019-06-16T07:03:29.000Z</time>
      </trkpt>
      <trkpt lat="43.17811" lon="2.38413">
        <ele>180.4</ele>
        <time>2019-06-16T07:03:30.000Z</time>
      </trkpt>
      <trkpt lat="43.17812" lon="2.38411">
        <ele>180.5</ele>
        <time>2019-06-16T07:03:31.000Z</time>
      </trkpt>
      <trkpt lat="43.17812" lon="2.3841">
        <ele>180.6</ele>
        <time>2019-06-16T07:03:32.000Z</time>
      </trkpt>
      <trkpt lat="43.17813" lon="2.38408">
        <ele>180.7</ele>
        <time>2019-06-16T07:03:33.000Z</time>
      </trkpt>
      <trkpt lat="43.17813" lon="2.38406">
        <ele>180.7</ele>
        <time>2019-06-16T07:03:34.000Z</time>
      </trkpt>
      <trkpt lat="43.17814" lon="2.38404">
        <ele>180.8</ele>
        <time>2019-06-16T07:03:35.000Z</time>
      </trkpt>
      <trkpt lat="43.17814" lon="2.38402">
        <ele>180.9</ele>
        <time>2019-06-16T07:03:36.000Z</time>
      </trkpt>
      <trkpt lat="43.17815" lon="2.38401">
        <ele>181</ele>
        <time>2019-06-16T07:03:37.000Z</time>
      </trkpt>
      <trkpt lat="43.17815" lon="2.38399">
        <ele>181.1</ele>
        <time>2019-06-16T07:03:38.000Z</time>
      </trkpt>
      <trkpt lat="43.17816" lon="2.38397">
        <ele>181.2</ele>
        <time>2019-06-16T07:03:39.000Z</time>
      </trkpt>
      <trkpt lat="43.17817" lon="2.38396">
        <ele>181.2</ele>
        <time>2019-06-16T07:03:40.000Z</time>
      </trkpt>
      <trkpt lat="43.17818" lon="2.38395">
        <ele>181.3</ele>
        <time>2019-06-16T07:03:41.000Z</time>
      </trkpt>
      <trkpt lat="43.17819" lon="2.38393">
        <ele>181.4</ele>
        <time>2019-06-16T07:03:42.000Z</time>
      </trkpt>
      <trkpt lat="43.1782" lon="2.38392">
        <ele>181.5</ele>
        <time>2019-06-16T07:03:43.000Z</time>
      </trkpt>
      <trkpt lat="43.17821" lon="2.38391">
        <ele>181.6</ele>
        <time>2019-06-16T07:03:44.000Z</time>
      </trkpt>
      <trkpt lat="43.17822" lon="2.3839">
        <ele>181.6</ele>
        <time>2019-06-16T07:03:45.000Z</time>
      </trkpt>
      <trkpt lat="43.17823" lon="2.3839">
        <ele>181.7</ele>
        <time>2019-06-16T07:03:46.000Z</time>
      </trkpt>
      <trkpt lat="43.17825" lon="2.38389">
        <ele>181.8</ele>
        <time>2019-06-16T07:03:47.000Z</time>
      </trkpt>
      <trkpt lat="43.17827" lon="2.38389">
        <ele>181.9</ele>
        <time>2019-06-16T07:03:48.000Z</time>
      </trkpt>
      <trkpt lat="43.17828" lon="2.38388">
        <ele>181.9</ele>
        <time>2019-06-16T07:03:49.000Z</time>
      </trkpt>
      <trkpt lat="43.1783" lon="2.38387">
        <ele>182</ele>
        <time>2019-06-16T07:03:50.000Z</time>
      </trkpt>
      <trkpt lat="43.17832" lon="2.38387">
        <ele>182.1</ele>
        <time>2019-06-16T07:03:51.000Z</time>
      </trkpt>
      <trkpt lat="43.17834" lon="2.38386">
        <ele>182.2</ele>
        <time>2019-06-16T07:03:52.000Z</time>
      </trkpt>
      <trkpt lat="43.17835" lon="2.38385">
        <ele>182</ele>
        <time>2019-06-16T07:03:53.000Z</time>
      </trkpt>
      <trkpt lat="43.17837" lon="2.38384">
        <ele>181.9</ele>
        <time>2019-06-16T07:03:54.000Z</time>
      </trkpt>
      <trkpt lat="43.17839" lon="2.38383">
        <ele>181.7</ele>
        <time>2019-06-16T07:03:55.000Z</time>
      </trkpt>
      <trkpt lat="43.17841" lon="2.38382">
        <ele>181.6</ele>
        <time>2019-06-16T07:03:56.000Z</time>
      </trkpt>
      <trkpt lat="43.17843" lon="2.38381">
        <ele>181.5</ele>
        <time>2019-06-16T07:03:57.000Z</time>
      </trkpt>
      <trkpt lat="43.17844" lon="2.3838">
        <ele>181.3</ele>
        <time>2019-06-16T07:03:58.000Z</time>
      </trkpt>
      <trkpt lat="43.17846" lon="2.38379">
        <ele>181.2</ele>
        <time>2019-06-16T07:03:59.000Z</time>
      </trkpt>
      <trkpt lat="43.17848" lon="2.38378">
        <ele>181.1</ele>
        <time>2019-06-16T07:04:00.000Z</time>
      </trkpt>
      <trkpt lat="43.17849" lon="2.38377">
        <ele>181</ele>
        <time>2019-06-16T07:04:01.000Z</time>
      </trkpt>
      <trkpt lat="43.1785" lon="2.38375">
        <ele>181</ele>
        <time>2019-06-16T07:04:02.000Z</time>
      </trkpt>
      <trkpt lat="43.17851" lon="2.38374">
        <ele>180.9</ele>
        <time>2019-06-16T07:04:03.000Z</time>
      </trkpt>
      <trkpt lat="43.17852" lon="2.38373">
        <ele>180.8</ele>
        <time>2019-06-16T07:04:04.000Z</time>
      </trkpt>
      <trkpt lat="43.17854" lon="2.38372">
        <ele>180.8</ele>
        <time>2019-06-16T07:04:05.000Z</time>
      </trkpt>
      <trkpt lat="43.17855" lon="2.38371">
        <ele>180.7</ele>
        <time>2019-06-16T07:04:06.000Z</time>
      </trkpt>
      <trkpt lat="43.17855" lon="2.3837">
        <ele>180.7</ele>
        <time>2019-06-16T07:04:07.000Z</time>
      </trkpt>
      <trkpt lat="43.17856" lon="2.3837">
        <ele>180.6</ele>
        <time>2019-06-16T07:04:08.000Z</time>
      </trkpt>
      <trkpt lat="43.17857" lon="2.3837">
        <ele>180.5</ele>
        <time>2019-06-16T07:04:09.000Z</time>
      </trkpt>
      <trkpt lat="43.17858" lon="2.3837">
        <ele>180.4</ele>
        <time>2019-06-16T07:04:10.000Z</time>
      </trkpt>
      <trkpt lat="43.17859" lon="2.38371">
        <ele>180.2</ele>
        <time>2019-06-16T07:04:11.000Z</time>
      </trkpt>
      <trkpt lat="43.1786" lon="2.38371">
        <ele>180.1</ele>
        <time>2019-06-16T07:04:12.000Z</time>
      </trkpt>
      <trkpt lat="43.1786" lon="2.38371">
        <ele>180</ele>
        <time>2019-06-16T07:04:13.000Z</time>
      </trkpt>
      <trkpt lat="43.17861" lon="2.38371">
        <ele>179.9</ele>
        <time>2019-06-16T07:04:14.000Z</time>
      </trkpt>
      <trkpt lat="43.17862" lon="2.38371">
        <ele>179.8</ele>
        <time>2019-06-16T07:04:15.000Z</time>
      </trkpt>
      <trkpt lat="43.17863" lon="2.3837">
        <ele>179.8</ele>
        <time>2019-06-16T07:04:16.000Z</time>
      </trkpt>
      <trkpt lat="43.17864" lon="2.38369">
        <ele>179.8</ele>
        <time>2019-06-16T07:04:17.000Z</time>
      </trkpt>
      <trkpt lat="43.17864" lon="2.38368">
        <ele>179.8</ele>
        <time>2019-06-16T07:04:18.000Z</time>
      </trkpt>
      <trkpt lat="43.17865" lon="2.38366">
        <ele>179.8</ele>
        <time>2019-06-16T07:04:19.000Z</time>
      </trkpt>
      <trkpt lat="43.17865" lon="2.38365">
        <ele>179.8</ele>
        <time>2019-06-16T07:04:20.000Z</time>
      </trkpt>
      <trkpt lat="43.17865" lon="2.38363">
        <ele>179.9</ele>
        <time>2019-06-16T07:04:21.000Z</time>
      </trkpt>
      <trkpt lat="43.17866" lon="2.38362">
        <ele>180</ele>
        <time>2019-06-16T07:04:22.000Z</time>
      </trkpt>
      <trkpt lat="43.17866" lon="2.3836">
        <ele>180.1</ele>
        <time>2019-06-16T07:04:23.000Z</time>
      </trkpt>
      <trkpt lat="43.17866" lon="2.38358">
        <ele>180.2</ele>
        <time>2019-06-16T07:04:24.000Z</time>
      </trkpt>
      <trkpt lat="43.17866" lon="2.38356">
        <ele>180.3</ele>
        <time>2019-06-16T07:04:25.000Z</time>
      </trkpt>
      <trkpt lat="43.17866" lon="2.38354">
        <ele>180.4</ele>
        <time>2019-06-16T07:04:26.000Z</time>
      </trkpt>
      <trkpt lat="43.17865" lon="2.38352">
        <ele>180.6</ele>
        <time>2019-06-16T07:04:27.000Z</time>
      </trkpt>
      <trkpt lat="43.17865" lon="2.3835">
        <ele>180.8</ele>
        <time>2019-06-16T07:04:28.000Z</time>
      </trkpt>
      <trkpt lat="43.17865" lon="2.38348">
        <ele>180.9</ele>
        <time>2019-06-16T07:04:29.000Z</time>
      </trkpt>
      <trkpt lat="43.17864" lon="2.38346">
        <ele>181.1</ele>
        <time>2019-06-16T07:04:30.000Z</time>
      </trkpt>
      <trkpt lat="43.17864" lon="2.38344">
        <ele>181.3</ele>
        <time>2019-06-16T07:04:31.000Z</time>
      </trkpt>
      <trkpt lat="43.17864" lon="2.38342">
        <ele>181.4</ele>
        <time>2019-06-16T07:04:32.000Z</time>
      </trkpt>
      <trkpt lat="43.17863" lon="2.3834">
        <ele>181.6</ele>
        <time>2019-06-16T07:04:33.000Z</time>
      </trkpt>
      <trkpt lat="43.17863" lon="2.38338">
        <ele>181.8</ele>
        <time>2019-06-16T07:04:34.000Z</time>
      </trkpt>
      <trkpt lat="43.17863" lon="2.38336">
        <ele>181.9</ele>
        <time>2019-06-16T07:04:35.000Z</time>
      </trkpt>
      <trkpt lat="43.17863" lon="2.38334">
        <ele>182.1</ele>
        <time>2019-06-16T07:04:36.000Z</time>
      </trkpt>
      <trkpt lat="43.17862" lon="2.38332">
        <ele>182.2</ele>
        <time>2019-06-16T07:04:37.000Z</time>
      </trkpt>
      <trkpt lat="43.17862" lon="2.3833">
        <ele>182.2</ele>
        <time>2019-06-16T07:04:38.000Z</time>
      </trkpt>
      <trkpt lat="43.17862" lon="2.38328">
        <ele>182.3</ele>
        <time>2019-06-16T07:04:39.000Z</time>
      </trkpt>
      <trkpt lat="43.17862" lon="2.38326">
        <ele>182.3</ele>
        <time>2019-06-16T07:04:40.000Z</time>
      </trkpt>
      <trkpt lat="43.17862" lon="2.38324">
        <ele>182.4</ele>
        <time>2019-06-16T07:04:41.000Z</time>
      </trkpt>
      <trkpt lat="43.17861" lon="2.38322">
        <ele>182.4</ele>
        <time>2019-06-16T07:04:42.000Z</time>
      </trkpt>
      <trkpt lat="43.17861" lon="2.38319">
        <ele>182.4</ele>
        <time>2019-06-16T07:04:43.000Z</time>
      </trkpt>
      <trkpt lat="43.17861" lon="2.38317">
        <ele>182.5</ele>
        <time>2019-06-16T07:04:44.000Z</time>
      </trkpt>
      <trkpt lat="43.17861" lon="2.38315">
        <ele>182.5</ele>
        <time>2019-06-16T07:04:45.000Z</time>
      </trkpt>
      <trkpt lat="43.1786" lon="2.38313">
        <ele>182.6</ele>
        <time>2019-06-16T07:04:46.000Z</time>
      </trkpt>
      <trkpt lat="43.1786" lon="2.3831">
        <ele>182.7</ele>
        <time>2019-06-16T07:04:47.000Z</time>
      </trkpt>
      <trkpt lat="43.1786" lon="2.38308">
        <ele>182.7</ele>
        <time>2019-06-16T07:04:48.000Z</time>
      </trkpt>
      <trkpt lat="43.17859" lon="2.38305">
        <ele>182.8</ele>
        <time>2019-06-16T07:04:49.000Z</time>
      </trkpt>
      <trkpt lat="43.17859" lon="2.38303">
        <ele>182.9</ele>
        <time>2019-06-16T07:04:50.000Z</time>
      </trkpt>
      <trkpt lat="43.17858" lon="2.38301">
        <ele>183</ele>
        <time>2019-06-16T07:04:51.000Z</time>
      </trkpt>
      <trkpt lat="43.17858" lon="2.38299">
        <ele>183.1</ele>
        <time>2019-06-16T07:04:52.000Z</time>
      </trkpt>
      <trkpt lat="43.17857" lon="2.38297">
        <ele>183.2</ele>
        <time>2019-06-16T07:04:53.000Z</time>
      </trkpt>
      <trkpt lat="43.17857" lon="2.38295">
        <ele>183.3</ele>
        <time>2019-06-16T07:04:54.000Z</time>
      </trkpt>
      <trkpt lat="43.17856" lon="2.38294">
        <ele>183.4</ele>
        <time>2019-06-16T07:04:55.000Z</time>
      </trkpt>
      <trkpt lat="43.17855" lon="2.38291">
        <ele>183.5</ele>
        <time>2019-06-16T07:04:56.000Z</time>
      </trkpt>
      <trkpt lat="43.17854" lon="2.38289">
        <ele>183.6</ele>
        <time>2019-06-16T07:04:57.000Z</time>
      </trkpt>
      <trkpt lat="43.17854" lon="2.38287">
        <ele>183.8</ele>
        <time>2019-06-16T07:04:58.000Z</time>
      </trkpt>
      <trkpt lat="43.17853" lon="2.38284">
        <ele>183.9</ele>
        <time>2019-06-16T07:04:59.000Z</time>
      </trkpt>
      <trkpt lat="43.17852" lon="2.38282">
        <ele>184</ele>
        <time>2019-06-16T07:05:00.000Z</time>
      </trkpt>
      <trkpt lat="43.17851" lon="2.38279">
        <ele>184.2</ele>
        <time>2019-06-16T07:05:01.000Z</time>
      </trkpt>
      <trkpt lat="43.1785" lon="2.38276">
        <ele>184.3</ele>
        <time>2019-06-16T07:05:02.000Z</time>
      </trkpt>
      <trkpt lat="43.17849" lon="2.38274">
        <ele>184.5</ele>
        <time>2019-06-16T07:05:03.000Z</time>
      </trkpt>
      <trkpt lat="43.17848" lon="2.38271">
        <ele>184.6</ele>
        <time>2019-06-16T07:05:04.000Z</time>
      </trkpt>
      <trkpt lat="43.17848" lon="2.38269">
        <ele>184.8</ele>
        <time>2019-06-16T07:05:05.000Z</time>
      </trkpt>
      <trkpt lat="43.17847" lon="2.38266">
        <ele>184.9</ele>
        <time>2019-06-16T07:05:06.000Z</time>
      </trkpt>
      <trkpt lat="43.17846" lon="2.38264">
        <ele>185</ele>
        <time>2019-06-16T07:05:07.000Z</time>
      </trkpt>
      <trkpt lat="43.17846" lon="2.38262">
        <ele>185.1</ele>
        <time>2019-06-16T07:05:08.000Z</time>
      </trkpt>
      <trkpt lat="43.17845" lon="2.3826">
        <ele>185.2</ele>
        <time>2019-06-16T07:05:09.000Z</time>
      </trkpt>
      <trkpt lat="43.17844" lon="2.38257">
        <ele>185.4</ele>
        <time>2019-06-16T07:05:10.000Z</time>
      </trkpt>
      <trkpt lat="43.17844" lon="2.38255">
        <ele>185.5</ele>
        <time>2019-06-16T07:05:11.000Z</time>
      </trkpt>
      <trkpt lat="43.17843" lon="2.38253">
        <ele>185.6</ele>
        <time>2019-06-16T07:05:12.000Z</time>
      </trkpt>
      <trkpt lat="43.17843" lon="2.38251">
        <ele>185.7</ele>
        <time>2019-06-16T07:05:13.000Z</time>
      </trkpt>
      <trkpt lat="43.17842" lon="2.38248">
        <ele>185.6</ele>
        <time>2019-06-16T07:05:14.000Z</time>
      </trkpt>
      <trkpt lat="43.17842" lon="2.38246">
        <ele>185.5</ele>
        <time>2019-06-16T07:05:15.000Z</time>
      </trkpt>
      <trkpt lat="43.17841" lon="2.38244">
        <ele>185.4</ele>
        <time>2019-06-16T07:05:16.000Z</time>
      </trkpt>
      <trkpt lat="43.17841" lon="2.38242">
        <ele>185.3</ele>
        <time>2019-06-16T07:05:17.000Z</time>
      </trkpt>
      <trkpt lat="43.1784" lon="2.3824">
        <ele>185.1</ele>
        <time>2019-06-16T07:05:18.000Z</time>
      </trkpt>
      <trkpt lat="43.1784" lon="2.38237">
        <ele>185</ele>
        <time>2019-06-16T07:05:19.000Z</time>
      </trkpt>
      <trkpt lat="43.17839" lon="2.38235">
        <ele>184.9</ele>
        <time>2019-06-16T07:05:20.000Z</time>
      </trkpt>
      <trkpt lat="43.17839" lon="2.38233">
        <ele>184.7</ele>
        <time>2019-06-16T07:05:21.000Z</time>
      </trkpt>
      <trkpt lat="43.17839" lon="2.3823">
        <ele>184.6</ele>
        <time>2019-06-16T07:05:22.000Z</time>
      </trkpt>
      <trkpt lat="43.17838" lon="2.38228">
        <ele>184.4</ele>
        <time>2019-06-16T07:05:23.000Z</time>
      </trkpt>
      <trkpt lat="43.17838" lon="2.38225">
        <ele>184.3</ele>
        <time>2019-06-16T07:05:24.000Z</time>
      </trkpt>
      <trkpt lat="43.17837" lon="2.38223">
        <ele>184.2</ele>
        <time>2019-06-16T07:05:25.000Z</time>
      </trkpt>
      <trkpt lat="43.17837" lon="2.3822">
        <ele>184</ele>
        <time>2019-06-16T07:05:26.000Z</time>
      </trkpt>
      <trkpt lat="43.17836" lon="2.38218">
        <ele>183.9</ele>
        <time>2019-06-16T07:05:27.000Z</time>
      </trkpt>
      <trkpt lat="43.17835" lon="2.38215">
        <ele>183.8</ele>
        <time>2019-06-16T07:05:28.000Z</time>
      </trkpt>
      <trkpt lat="43.17835" lon="2.38212">
        <ele>183.6</ele>
        <time>2019-06-16T07:05:29.000Z</time>
      </trkpt>
      <trkpt lat="43.17834" lon="2.3821">
        <ele>183.6</ele>
        <time>2019-06-16T07:05:30.000Z</time>
      </trkpt>
      <trkpt lat="43.17833" lon="2.38207">
        <ele>183.4</ele>
        <time>2019-06-16T07:05:31.000Z</time>
      </trkpt>
      <trkpt lat="43.17832" lon="2.38205">
        <ele>183.1</ele>
        <time>2019-06-16T07:05:32.000Z</time>
      </trkpt>
      <trkpt lat="43.17831" lon="2.38202">
        <ele>182.8</ele>
        <time>2019-06-16T07:05:33.000Z</time>
      </trkpt>
      <trkpt lat="43.1783" lon="2.382">
        <ele>182.6</ele>
        <time>2019-06-16T07:05:34.000Z</time>
      </trkpt>
      <trkpt lat="43.17829" lon="2.38198">
        <ele>182.4</ele>
        <time>2019-06-16T07:05:35.000Z</time>
      </trkpt>
      <trkpt lat="43.17828" lon="2.38197">
        <ele>182.1</ele>
        <time>2019-06-16T07:05:36.000Z</time>
      </trkpt>
      <trkpt lat="43.17827" lon="2.38195">
        <ele>181.9</ele>
        <time>2019-06-16T07:05:37.000Z</time>
      </trkpt>
      <trkpt lat="43.17827" lon="2.38193">
        <ele>181.7</ele>
        <time>2019-06-16T07:05:38.000Z</time>
      </trkpt>
      <trkpt lat="43.17826" lon="2.38191">
        <ele>181.5</ele>
        <time>2019-06-16T07:05:39.000Z</time>
      </trkpt>
      <trkpt lat="43.17824" lon="2.38188">
        <ele>181.2</ele>
        <time>2019-06-16T07:05:40.000Z</time>
      </trkpt>
      <trkpt lat="43.17823" lon="2.38185">
        <ele>180.9</ele>
        <time>2019-06-16T07:05:41.000Z</time>
      </trkpt>
      <trkpt lat="43.17822" lon="2.38182">
        <ele>180.6</ele>
        <time>2019-06-16T07:05:42.000Z</time>
      </trkpt>
      <trkpt lat="43.17821" lon="2.38179">
        <ele>180.3</ele>
        <time>2019-06-16T07:05:43.000Z</time>
      </trkpt>
      <trkpt lat="43.1782" lon="2.38177">
        <ele>180</ele>
        <time>2019-06-16T07:05:44.000Z</time>
      </trkpt>
      <trkpt lat="43.17819" lon="2.38174">
        <ele>179.8</ele>
        <time>2019-06-16T07:05:45.000Z</time>
      </trkpt>
      <trkpt lat="43.17818" lon="2.38172">
        <ele>179.5</ele>
        <time>2019-06-16T07:05:46.000Z</time>
      </trkpt>
      <trkpt lat="43.17818" lon="2.3817">
        <ele>179.3</ele>
        <time>2019-06-16T07:05:47.000Z</time>
      </trkpt>
      <trkpt lat="43.17817" lon="2.38168">
        <ele>179.1</ele>
        <time>2019-06-16T07:05:48.000Z</time>
      </trkpt>
      <trkpt lat="43.17816" lon="2.38166">
        <ele>178.9</ele>
        <time>2019-06-16T07:05:49.000Z</time>
      </trkpt>
      <trkpt lat="43.17815" lon="2.38164">
        <ele>178.7</ele>
        <time>2019-06-16T07:05:50.000Z</time>
      </trkpt>
      <trkpt lat="43.17814" lon="2.38162">
        <ele>178.4</ele>
        <time>2019-06-16T07:05:51.000Z</time>
      </trkpt>
      <trkpt lat="43.17813" lon="2.38159">
        <ele>178.1</ele>
        <time>2019-06-16T07:05:52.000Z</time>
      </trkpt>
      <trkpt lat="43.17812" lon="2.38156">
        <ele>177.7</ele>
        <time>2019-06-16T07:05:53.000Z</time>
      </trkpt>
      <trkpt lat="43.17811" lon="2.38153">
        <ele>177.3</ele>
        <time>2019-06-16T07:05:54.000Z</time>
      </trkpt>
      <trkpt lat="43.1781" lon="2.38148">
        <ele>176.8</ele>
        <time>2019-06-16T07:05:55.000Z</time>
      </trkpt>
      <trkpt lat="43.17809" lon="2.38143">
        <ele>176.3</ele>
        <time>2019-06-16T07:05:56.000Z</time>
      </trkpt>
      <trkpt lat="43.17809" lon="2.38138">
        <ele>175.7</ele>
        <time>2019-06-16T07:05:57.000Z</time>
      </trkpt>
      <trkpt lat="43.17808" lon="2.38133">
        <ele>175.2</ele>
        <time>2019-06-16T07:05:58.000Z</time>
      </trkpt>
      <trkpt lat="43.17807" lon="2.38128">
        <ele>174.7</ele>
        <time>2019-06-16T07:05:59.000Z</time>
      </trkpt>
      <trkpt lat="43.17807" lon="2.38123">
        <ele>174.2</ele>
        <time>2019-06-16T07:06:00.000Z</time>
      </trkpt>
      <trkpt lat="43.17807" lon="2.38118">
        <ele>173.7</ele>
        <time>2019-06-16T07:06:01.000Z</time>
      </trkpt>
      <trkpt lat="43.17807" lon="2.38114">
        <ele>173.3</ele>
        <time>2019-06-16T07:06:02.000Z</time>
      </trkpt>
      <trkpt lat="43.17806" lon="2.3811">
        <ele>172.9</ele>
        <time>2019-06-16T07:06:03.000Z</time>
      </trkpt>
      <trkpt lat="43.17806" lon="2.38106">
        <ele>172.5</ele>
        <time>2019-06-16T07:06:04.000Z</time>
      </trkpt>
      <trkpt lat="43.17806" lon="2.38102">
        <ele>172.1</ele>
        <time>2019-06-16T07:06:05.000Z</time>
      </trkpt>
      <trkpt lat="43.17806" lon="2.38098">
        <ele>171.7</ele>
        <time>2019-06-16T07:06:06.000Z</time>
      </trkpt>
      <trkpt lat="43.17806" lon="2.38094">
        <ele>171.4</ele>
        <time>2019-06-16T07:06:07.000Z</time>
      </trkpt>
      <trkpt lat="43.17806" lon="2.38091">
        <ele>171</ele>
        <time>2019-06-16T07:06:08.000Z</time>
      </trkpt>
      <trkpt lat="43.17806" lon="2.38087">
        <ele>170.7</ele>
        <time>2019-06-16T07:06:09.000Z</time>
      </trkpt>
      <trkpt lat="43.17807" lon="2.38084">
        <ele>170.4</ele>
        <time>2019-06-16T07:06:10.000Z</time>
      </trkpt>
      <trkpt lat="43.17807" lon="2.38081">
        <ele>170.2</ele>
        <time>2019-06-16T07:06:11.000Z</time>
      </trkpt>
      <trkpt lat="43.17808" lon="2.38078">
        <ele>170.1</ele>
        <time>2019-06-16T07:06:12.000Z</time>
      </trkpt>
      <trkpt lat="43.17808" lon="2.38076">
        <ele>169.9</ele>
        <time>2019-06-16T07:06:13.000Z</time>
      </trkpt>
      <trkpt lat="43.17808" lon="2.38073">
        <ele>169.8</ele>
        <time>2019-06-16T07:06:14.000Z</time>
      </trkpt>
      <trkpt lat="43.17808" lon="2.38071">
        <ele>169.7</ele>
        <time>2019-06-16T07:06:15.000Z</time>
      </trkpt>
      <trkpt lat="43.17808" lon="2.38069">
        <ele>169.5</ele>
        <time>2019-06-16T07:06:16.000Z</time>
      </trkpt>
      <trkpt lat="43.17808" lon="2.38067">
        <ele>169.4</ele>
        <time>2019-06-16T07:06:17.000Z</time>
      </trkpt>
      <trkpt lat="43.17808" lon="2.38065">
        <ele>169.3</ele>
        <time>2019-06-16T07:06:18.000Z</time>
      </trkpt>
      <trkpt lat="43.17808" lon="2.38063">
        <ele>169.2</ele>
        <time>2019-06-16T07:06:19.000Z</time>
      </trkpt>
      <trkpt lat="43.17809" lon="2.38061">
        <ele>169.1</ele>
        <time>2019-06-16T07:06:20.000Z</time>
      </trkpt>
      <trkpt lat="43.17809" lon="2.38059">
        <ele>168.9</ele>
        <time>2019-06-16T07:06:21.000Z</time>
      </trkpt>
      <trkpt lat="43.1781" lon="2.38057">
        <ele>168.8</ele>
        <time>2019-06-16T07:06:22.000Z</time>
      </trkpt>
      <trkpt lat="43.17811" lon="2.38055">
        <ele>168.7</ele>
        <time>2019-06-16T07:06:23.000Z</time>
      </trkpt>
      <trkpt lat="43.17812" lon="2.38053">
        <ele>168.6</ele>
        <time>2019-06-16T07:06:24.000Z</time>
      </trkpt>
      <trkpt lat="43.17813" lon="2.38051">
        <ele>168.5</ele>
        <time>2019-06-16T07:06:25.000Z</time>
      </trkpt>
      <trkpt lat="43.17814" lon="2.38049">
        <ele>168.5</ele>
        <time>2019-06-16T07:06:26.000Z</time>
      </trkpt>
      <trkpt lat="43.17815" lon="2.38047">
        <ele>168.4</ele>
        <time>2019-06-16T07:06:27.000Z</time>
      </trkpt>
      <trkpt lat="43.17816" lon="2.38045">
        <ele>168.3</ele>
        <time>2019-06-16T07:06:28.000Z</time>
      </trkpt>
      <trkpt lat="43.17817" lon="2.38043">
        <ele>168.2</ele>
        <time>2019-06-16T07:06:29.000Z</time>
      </trkpt>
      <trkpt lat="43.17818" lon="2.38041">
        <ele>168.1</ele>
        <time>2019-06-16T07:06:30.000Z</time>
      </trkpt>
      <trkpt lat="43.17819" lon="2.3804">
        <ele>168</ele>
        <time>2019-06-16T07:06:31.000Z</time>
      </trkpt>
      <trkpt lat="43.17819" lon="2.38038">
        <ele>167.9</ele>
        <time>2019-06-16T07:06:32.000Z</time>
      </trkpt>
      <trkpt lat="43.1782" lon="2.38036">
        <ele>167.8</ele>
        <time>2019-06-16T07:06:33.000Z</time>
      </trkpt>
      <trkpt lat="43.1782" lon="2.38034">
        <ele>167.7</ele>
        <time>2019-06-16T07:06:34.000Z</time>
      </trkpt>
      <trkpt lat="43.1782" lon="2.38032">
        <ele>167.6</ele>
        <time>2019-06-16T07:06:35.000Z</time>
      </trkpt>
      <trkpt lat="43.1782" lon="2.38031">
        <ele>167.5</ele>
        <time>2019-06-16T07:06:36.000Z</time>
      </trkpt>
      <trkpt lat="43.17821" lon="2.38029">
        <ele>167.4</ele>
        <time>2019-06-16T07:06:37.000Z</time>
      </trkpt>
      <trkpt lat="43.17821" lon="2.38027">
        <ele>167.3</ele>
        <time>2019-06-16T07:06:38.000Z</time>
      </trkpt>
      <trkpt lat="43.17821" lon="2.38026">
        <ele>167.2</ele>
        <time>2019-06-16T07:06:39.000Z</time>
      </trkpt>
      <trkpt lat="43.17821" lon="2.38024">
        <ele>167.1</ele>
        <time>2019-06-16T07:06:40.000Z</time>
      </trkpt>
      <trkpt lat="43.17822" lon="2.38022">
        <ele>167.1</ele>
        <time>2019-06-16T07:06:41.000Z</time>
      </trkpt>
      <trkpt lat="43.17822" lon="2.3802">
        <ele>166.9</ele>
        <time>2019-06-16T07:06:42.000Z</time>
      </trkpt>
      <trkpt lat="43.17822" lon="2.38018">
        <ele>166.8</ele>
        <time>2019-06-16T07:06:43.000Z</time>
      </trkpt>
      <trkpt lat="43.17822" lon="2.38016">
        <ele>166.7</ele>
        <time>2019-06-16T07:06:44.000Z</time>
      </trkpt>
      <trkpt lat="43.17823" lon="2.38014">
        <ele>166.6</ele>
        <time>2019-06-16T07:06:45.000Z</time>
      </trkpt>
      <trkpt lat="43.17823" lon="2.38012">
        <ele>166.4</ele>
        <time>2019-06-16T07:06:46.000Z</time>
      </trkpt>
      <trkpt lat="43.17823" lon="2.38009">
        <ele>166.3</ele>
        <time>2019-06-16T07:06:47.000Z</time>
      </trkpt>
      <trkpt lat="43.17823" lon="2.38007">
        <ele>166.2</ele>
        <time>2019-06-16T07:06:48.000Z</time>
      </trkpt>
      <trkpt lat="43.17823" lon="2.38005">
        <ele>166</ele>
        <time>2019-06-16T07:06:49.000Z</time>
      </trkpt>
      <trkpt lat="43.17823" lon="2.38003">
        <ele>165.9</ele>
        <time>2019-06-16T07:06:50.000Z</time>
      </trkpt>
      <trkpt lat="43.17823" lon="2.38001">
        <ele>165.8</ele>
        <time>2019-06-16T07:06:51.000Z</time>
      </trkpt>
      <trkpt lat="43.17823" lon="2.37998">
        <ele>165.6</ele>
        <time>2019-06-16T07:06:52.000Z</time>
      </trkpt>
      <trkpt lat="43.17823" lon="2.37996">
        <ele>165.5</ele>
        <time>2019-06-16T07:06:53.000Z</time>
      </trkpt>
      <trkpt lat="43.17823" lon="2.37994">
        <ele>165.4</ele>
        <time>2019-06-16T07:06:54.000Z</time>
      </trkpt>
      <trkpt lat="43.17823" lon="2.37992">
        <ele>165.3</ele>
        <time>2019-06-16T07:06:55.000Z</time>
      </trkpt>
      <trkpt lat="43.17823" lon="2.3799">
        <ele>165.1</ele>
        <time>2019-06-16T07:06:56.000Z</time>
      </trkpt>
      <trkpt lat="43.17823" lon="2.37988">
        <ele>165</ele>
        <time>2019-06-16T07:06:57.000Z</time>
      </trkpt>
      <trkpt lat="43.17823" lon="2.37986">
        <ele>164.9</ele>
        <time>2019-06-16T07:06:58.000Z</time>
      </trkpt>
      <trkpt lat="43.17823" lon="2.37985">
        <ele>164.8</ele>
        <time>2019-06-16T07:06:59.000Z</time>
      </trkpt>
      <trkpt lat="43.17822" lon="2.37983">
        <ele>164.7</ele>
        <time>2019-06-16T07:07:00.000Z</time>
      </trkpt>
      <trkpt lat="43.17822" lon="2.37981">
        <ele>164.6</ele>
        <time>2019-06-16T07:07:01.000Z</time>
      </trkpt>
      <trkpt lat="43.17822" lon="2.3798">
        <ele>164.5</ele>
        <time>2019-06-16T07:07:02.000Z</time>
      </trkpt>
      <trkpt lat="43.17822" lon="2.37978">
        <ele>164.4</ele>
        <time>2019-06-16T07:07:03.000Z</time>
      </trkpt>
      <trkpt lat="43.17822" lon="2.37977">
        <ele>164.3</ele>
        <time>2019-06-16T07:07:04.000Z</time>
      </trkpt>
      <trkpt lat="43.17821" lon="2.37975">
        <ele>164.2</ele>
        <time>2019-06-16T07:07:05.000Z</time>
      </trkpt>
      <trkpt lat="43.17821" lon="2.37974">
        <ele>164.1</ele>
        <time>2019-06-16T07:07:06.000Z</time>
      </trkpt>
      <trkpt lat="43.17821" lon="2.37973">
        <ele>164</ele>
        <time>2019-06-16T07:07:07.000Z</time>
      </trkpt>
      <trkpt lat="43.17821" lon="2.37972">
        <ele>163.9</ele>
        <time>2019-06-16T07:07:08.000Z</time>
      </trkpt>
      <trkpt lat="43.1782" lon="2.37971">
        <ele>163.9</ele>
        <time>2019-06-16T07:07:09.000Z</time>
      </trkpt>
      <trkpt lat="43.1782" lon="2.37969">
        <ele>163.8</ele>
        <time>2019-06-16T07:07:10.000Z</time>
      </trkpt>
      <trkpt lat="43.1782" lon="2.37968">
        <ele>163.7</ele>
        <time>2019-06-16T07:07:11.000Z</time>
      </trkpt>
      <trkpt lat="43.1782" lon="2.37968">
        <ele>163.7</ele>
        <time>2019-06-16T07:07:12.000Z</time>
      </trkpt>
      <trkpt lat="43.1782" lon="2.37967">
        <ele>163.6</ele>
        <time>2019-06-16T07:07:13.000Z</time>
      </trkpt>
      <trkpt lat="43.1782" lon="2.37966">
        <ele>163.5</ele>
        <time>2019-06-16T07:07:14.000Z</time>
      </trkpt>
      <trkpt lat="43.17819" lon="2.37965">
        <ele>163.5</ele>
        <time>2019-06-16T07:07:15.000Z</time>
      </trkpt>
      <trkpt lat="43.17819" lon="2.37964">
        <ele>163.4</ele>
        <time>2019-06-16T07:07:16.000Z</time>
      </trkpt>
      <trkpt lat="43.17819" lon="2.37963">
        <ele>163.3</ele>
        <time>2019-06-16T07:07:17.000Z</time>
      </trkpt>
      <trkpt lat="43.17819" lon="2.37962">
        <ele>163.3</ele>
        <time>2019-06-16T07:07:18.000Z</time>
      </trkpt>
      <trkpt lat="43.17819" lon="2.37961">
        <ele>163.2</ele>
        <time>2019-06-16T07:07:19.000Z</time>
      </trkpt>
      <trkpt lat="43.17819" lon="2.3796">
        <ele>163.2</ele>
        <time>2019-06-16T07:07:20.000Z</time>
      </trkpt>
      <trkpt lat="43.17819" lon="2.37959">
        <ele>163.1</ele>
        <time>2019-06-16T07:07:21.000Z</time>
      </trkpt>
      <trkpt lat="43.1782" lon="2.37958">
        <ele>163</ele>
        <time>2019-06-16T07:07:22.000Z</time>
      </trkpt>
      <trkpt lat="43.1782" lon="2.37956">
        <ele>163</ele>
        <time>2019-06-16T07:07:23.000Z</time>
      </trkpt>
      <trkpt lat="43.1782" lon="2.37955">
        <ele>162.9</ele>
        <time>2019-06-16T07:07:24.000Z</time>
      </trkpt>
      <trkpt lat="43.1782" lon="2.37954">
        <ele>162.8</ele>
        <time>2019-06-16T07:07:25.000Z</time>
      </trkpt>
      <trkpt lat="43.1782" lon="2.37953">
        <ele>162.8</ele>
        <time>2019-06-16T07:07:26.000Z</time>
      </trkpt>
      <trkpt lat="43.1782" lon="2.37952">
        <ele>162.7</ele>
        <time>2019-06-16T07:07:27.000Z</time>
      </trkpt>
      <trkpt lat="43.17821" lon="2.37951">
        <ele>162.6</ele>
        <time>2019-06-16T07:07:28.000Z</time>
      </trkpt>
      <trkpt lat="43.17821" lon="2.37949">
        <ele>162.6</ele>
        <time>2019-06-16T07:07:29.000Z</time>
      </trkpt>
      <trkpt lat="43.17821" lon="2.37948">
        <ele>162.5</ele>
        <time>2019-06-16T07:07:30.000Z</time>
      </trkpt>
      <trkpt lat="43.17821" lon="2.37947">
        <ele>162.4</ele>
        <time>2019-06-16T07:07:31.000Z</time>
      </trkpt>
      <trkpt lat="43.17822" lon="2.37946">
        <ele>162.4</ele>
        <time>2019-06-16T07:07:32.000Z</time>
      </trkpt>
      <trkpt lat="43.17822" lon="2.37945">
        <ele>162.3</ele>
        <time>2019-06-16T07:07:33.000Z</time>
      </trkpt>
      <trkpt lat="43.17822" lon="2.37943">
        <ele>162.2</ele>
        <time>2019-06-16T07:07:34.000Z</time>
      </trkpt>
      <trkpt lat="43.17822" lon="2.37942">
        <ele>162.2</ele>
        <time>2019-06-16T07:07:35.000Z</time>
      </trkpt>
      <trkpt lat="43.17823" lon="2.37941">
        <ele>162.1</ele>
        <time>2019-06-16T07:07:36.000Z</time>
      </trkpt>
      <trkpt lat="43.17823" lon="2.37939">
        <ele>162</ele>
        <time>2019-06-16T07:07:37.000Z</time>
      </trkpt>
      <trkpt lat="43.17823" lon="2.37938">
        <ele>161.9</ele>
        <time>2019-06-16T07:07:38.000Z</time>
      </trkpt>
      <trkpt lat="43.17824" lon="2.37936">
        <ele>161.8</ele>
        <time>2019-06-16T07:07:39.000Z</time>
      </trkpt>
      <trkpt lat="43.17824" lon="2.37934">
        <ele>161.8</ele>
        <time>2019-06-16T07:07:40.000Z</time>
      </trkpt>
      <trkpt lat="43.17824" lon="2.37933">
        <ele>161.7</ele>
        <time>2019-06-16T07:07:41.000Z</time>
      </trkpt>
      <trkpt lat="43.17825" lon="2.37931">
        <ele>161.6</ele>
        <time>2019-06-16T07:07:42.000Z</time>
      </trkpt>
      <trkpt lat="43.17825" lon="2.37929">
        <ele>161.5</ele>
        <time>2019-06-16T07:07:43.000Z</time>
      </trkpt>
      <trkpt lat="43.17826" lon="2.37927">
        <ele>161.4</ele>
        <time>2019-06-16T07:07:44.000Z</time>
      </trkpt>
      <trkpt lat="43.17826" lon="2.37926">
        <ele>161.3</ele>
        <time>2019-06-16T07:07:45.000Z</time>
      </trkpt>
      <trkpt lat="43.17827" lon="2.37924">
        <ele>161.2</ele>
        <time>2019-06-16T07:07:46.000Z</time>
      </trkpt>
      <trkpt lat="43.17828" lon="2.37923">
        <ele>161.2</ele>
        <time>2019-06-16T07:07:47.000Z</time>
      </trkpt>
      <trkpt lat="43.17829" lon="2.37922">
        <ele>161.1</ele>
        <time>2019-06-16T07:07:48.000Z</time>
      </trkpt>
      <trkpt lat="43.1783" lon="2.3792">
        <ele>161.1</ele>
        <time>2019-06-16T07:07:49.000Z</time>
      </trkpt>
      <trkpt lat="43.17831" lon="2.37918">
        <ele>161</ele>
        <time>2019-06-16T07:07:50.000Z</time>
      </trkpt>
      <trkpt lat="43.17832" lon="2.37916">
        <ele>160.9</ele>
        <time>2019-06-16T07:07:51.000Z</time>
      </trkpt>
      <trkpt lat="43.17833" lon="2.37914">
        <ele>160.8</ele>
        <time>2019-06-16T07:07:52.000Z</time>
      </trkpt>
      <trkpt lat="43.17833" lon="2.37911">
        <ele>160.7</ele>
        <time>2019-06-16T07:07:53.000Z</time>
      </trkpt>
      <trkpt lat="43.17834" lon="2.37909">
        <ele>160.6</ele>
        <time>2019-06-16T07:07:54.000Z</time>
      </trkpt>
      <trkpt lat="43.17835" lon="2.37906">
        <ele>160.4</ele>
        <time>2019-06-16T07:07:55.000Z</time>
      </trkpt>
      <trkpt lat="43.17836" lon="2.37903">
        <ele>160.2</ele>
        <time>2019-06-16T07:07:56.000Z</time>
      </trkpt>
      <trkpt lat="43.17837" lon="2.37901">
        <ele>160.1</ele>
        <time>2019-06-16T07:07:57.000Z</time>
      </trkpt>
      <trkpt lat="43.17838" lon="2.37898">
        <ele>159.9</ele>
        <time>2019-06-16T07:07:58.000Z</time>
      </trkpt>
      <trkpt lat="43.17839" lon="2.37895">
        <ele>159.8</ele>
        <time>2019-06-16T07:07:59.000Z</time>
      </trkpt>
      <trkpt lat="43.17839" lon="2.37892">
        <ele>159.6</ele>
        <time>2019-06-16T07:08:00.000Z</time>
      </trkpt>
      <trkpt lat="43.1784" lon="2.3789">
        <ele>159.5</ele>
        <time>2019-06-16T07:08:01.000Z</time>
      </trkpt>
      <trkpt lat="43.17841" lon="2.37887">
        <ele>159.3</ele>
        <time>2019-06-16T07:08:02.000Z</time>
      </trkpt>
      <trkpt lat="43.17842" lon="2.37884">
        <ele>159.1</ele>
        <time>2019-06-16T07:08:03.000Z</time>
      </trkpt>
      <trkpt lat="43.17842" lon="2.3788">
        <ele>158.9</ele>
        <time>2019-06-16T07:08:04.000Z</time>
      </trkpt>
      <trkpt lat="43.17843" lon="2.37877">
        <ele>158.8</ele>
        <time>2019-06-16T07:08:05.000Z</time>
      </trkpt>
      <trkpt lat="43.17844" lon="2.37874">
        <ele>158.6</ele>
        <time>2019-06-16T07:08:06.000Z</time>
      </trkpt>
      <trkpt lat="43.17844" lon="2.3787">
        <ele>158.4</ele>
        <time>2019-06-16T07:08:07.000Z</time>
      </trkpt>
      <trkpt lat="43.17845" lon="2.37866">
        <ele>158.2</ele>
        <time>2019-06-16T07:08:08.000Z</time>
      </trkpt>
      <trkpt lat="43.17845" lon="2.37863">
        <ele>158</ele>
        <time>2019-06-16T07:08:09.000Z</time>
      </trkpt>
      <trkpt lat="43.17845" lon="2.37859">
        <ele>157.8</ele>
        <time>2019-06-16T07:08:10.000Z</time>
      </trkpt>
      <trkpt lat="43.17845" lon="2.37855">
        <ele>157.7</ele>
        <time>2019-06-16T07:08:11.000Z</time>
      </trkpt>
      <trkpt lat="43.17844" lon="2.37852">
        <ele>157.5</ele>
        <time>2019-06-16T07:08:12.000Z</time>
      </trkpt>
      <trkpt lat="43.17843" lon="2.37849">
        <ele>157.4</ele>
        <time>2019-06-16T07:08:13.000Z</time>
      </trkpt>
      <trkpt lat="43.17842" lon="2.37845">
        <ele>157.3</ele>
        <time>2019-06-16T07:08:14.000Z</time>
      </trkpt>
      <trkpt lat="43.1784" lon="2.37842">
        <ele>157.2</ele>
        <time>2019-06-16T07:08:15.000Z</time>
      </trkpt>
      <trkpt lat="43.17839" lon="2.37839">
        <ele>157.1</ele>
        <time>2019-06-16T07:08:16.000Z</time>
      </trkpt>
      <trkpt lat="43.17838" lon="2.37837">
        <ele>157</ele>
        <time>2019-06-16T07:08:17.000Z</time>
      </trkpt>
      <trkpt lat="43.17836" lon="2.37834">
        <ele>156.9</ele>
        <time>2019-06-16T07:08:18.000Z</time>
      </trkpt>
      <trkpt lat="43.17835" lon="2.37831">
        <ele>156.9</ele>
        <time>2019-06-16T07:08:19.000Z</time>
      </trkpt>
      <trkpt lat="43.17834" lon="2.37829">
        <ele>156.8</ele>
        <time>2019-06-16T07:08:20.000Z</time>
      </trkpt>
      <trkpt lat="43.17832" lon="2.37826">
        <ele>156.7</ele>
        <time>2019-06-16T07:08:21.000Z</time>
      </trkpt>
      <trkpt lat="43.17831" lon="2.37823">
        <ele>156.6</ele>
        <time>2019-06-16T07:08:22.000Z</time>
      </trkpt>
      <trkpt lat="43.17829" lon="2.37819">
        <ele>156.4</ele>
        <time>2019-06-16T07:08:23.000Z</time>
      </trkpt>
      <trkpt lat="43.17828" lon="2.37816">
        <ele>156.3</ele>
        <time>2019-06-16T07:08:24.000Z</time>
      </trkpt>
      <trkpt lat="43.17827" lon="2.37813">
        <ele>156.1</ele>
        <time>2019-06-16T07:08:25.000Z</time>
      </trkpt>
      <trkpt lat="43.17825" lon="2.3781">
        <ele>156</ele>
        <time>2019-06-16T07:08:26.000Z</time>
      </trkpt>
      <trkpt lat="43.17824" lon="2.37807">
        <ele>155.9</ele>
        <time>2019-06-16T07:08:27.000Z</time>
      </trkpt>
      <trkpt lat="43.17823" lon="2.37804">
        <ele>155.8</ele>
        <time>2019-06-16T07:08:28.000Z</time>
      </trkpt>
      <trkpt lat="43.17822" lon="2.37801">
        <ele>155.7</ele>
        <time>2019-06-16T07:08:29.000Z</time>
      </trkpt>
      <trkpt lat="43.17822" lon="2.378">
        <ele>155.6</ele>
        <time>2019-06-16T07:08:30.000Z</time>
      </trkpt>
      <trkpt lat="43.17821" lon="2.37798">
        <ele>155.6</ele>
        <time>2019-06-16T07:08:31.000Z</time>
      </trkpt>
      <trkpt lat="43.17821" lon="2.37797">
        <ele>155.5</ele>
        <time>2019-06-16T07:08:32.000Z</time>
      </trkpt>
      <trkpt lat="43.17821" lon="2.37795">
        <ele>155.4</ele>
        <time>2019-06-16T07:08:33.000Z</time>
      </trkpt>
      <trkpt lat="43.17821" lon="2.37792">
        <ele>155.4</ele>
        <time>2019-06-16T07:08:34.000Z</time>
      </trkpt>
      <trkpt lat="43.17822" lon="2.37789">
        <ele>155.3</ele>
        <time>2019-06-16T07:08:35.000Z</time>
      </trkpt>
      <trkpt lat="43.17822" lon="2.37786">
        <ele>155.2</ele>
        <time>2019-06-16T07:08:36.000Z</time>
      </trkpt>
      <trkpt lat="43.17822" lon="2.37783">
        <ele>155.1</ele>
        <time>2019-06-16T07:08:37.000Z</time>
      </trkpt>
      <trkpt lat="43.17822" lon="2.3778">
        <ele>155</ele>
        <time>2019-06-16T07:08:38.000Z</time>
      </trkpt>
      <trkpt lat="43.17823" lon="2.37776">
        <ele>154.9</ele>
        <time>2019-06-16T07:08:39.000Z</time>
      </trkpt>
      <trkpt lat="43.17823" lon="2.37773">
        <ele>154.8</ele>
        <time>2019-06-16T07:08:40.000Z</time>
      </trkpt>
      <trkpt lat="43.17824" lon="2.3777">
        <ele>154.7</ele>
        <time>2019-06-16T07:08:41.000Z</time>
      </trkpt>
      <trkpt lat="43.17824" lon="2.37767">
        <ele>154.6</ele>
        <time>2019-06-16T07:08:42.000Z</time>
      </trkpt>
      <trkpt lat="43.17825" lon="2.37763">
        <ele>154.5</ele>
        <time>2019-06-16T07:08:43.000Z</time>
      </trkpt>
      <trkpt lat="43.17826" lon="2.3776">
        <ele>154.3</ele>
        <time>2019-06-16T07:08:44.000Z</time>
      </trkpt>
      <trkpt lat="43.17826" lon="2.37757">
        <ele>154.2</ele>
        <time>2019-06-16T07:08:45.000Z</time>
      </trkpt>
      <trkpt lat="43.17827" lon="2.37754">
        <ele>154.1</ele>
        <time>2019-06-16T07:08:46.000Z</time>
      </trkpt>
      <trkpt lat="43.17828" lon="2.37751">
        <ele>154</ele>
        <time>2019-06-16T07:08:47.000Z</time>
      </trkpt>
      <trkpt lat="43.17829" lon="2.37747">
        <ele>153.9</ele>
        <time>2019-06-16T07:08:48.000Z</time>
      </trkpt>
      <trkpt lat="43.1783" lon="2.37743">
        <ele>153.8</ele>
        <time>2019-06-16T07:08:49.000Z</time>
      </trkpt>
      <trkpt lat="43.1783" lon="2.37739">
        <ele>153.7</ele>
        <time>2019-06-16T07:08:50.000Z</time>
      </trkpt>
      <trkpt lat="43.1783" lon="2.37735">
        <ele>153.6</ele>
        <time>2019-06-16T07:08:51.000Z</time>
      </trkpt>
      <trkpt lat="43.1783" lon="2.37731">
        <ele>153.6</ele>
        <time>2019-06-16T07:08:52.000Z</time>
      </trkpt>
      <trkpt lat="43.17829" lon="2.37728">
        <ele>153.5</ele>
        <time>2019-06-16T07:08:53.000Z</time>
      </trkpt>
      <trkpt lat="43.17828" lon="2.37726">
        <ele>153.4</ele>
        <time>2019-06-16T07:08:54.000Z</time>
      </trkpt>
      <trkpt lat="43.17826" lon="2.37724">
        <ele>153.4</ele>
        <time>2019-06-16T07:08:55.000Z</time>
      </trkpt>
      <trkpt lat="43.17824" lon="2.37722">
        <ele>153.3</ele>
        <time>2019-06-16T07:08:56.000Z</time>
      </trkpt>
      <trkpt lat="43.17822" lon="2.3772">
        <ele>153.3</ele>
        <time>2019-06-16T07:08:57.000Z</time>
      </trkpt>
      <trkpt lat="43.1782" lon="2.37719">
        <ele>153.3</ele>
        <time>2019-06-16T07:08:58.000Z</time>
      </trkpt>
      <trkpt lat="43.17818" lon="2.37717">
        <ele>153.2</ele>
        <time>2019-06-16T07:08:59.000Z</time>
      </trkpt>
      <trkpt lat="43.17815" lon="2.37716">
        <ele>153.2</ele>
        <time>2019-06-16T07:09:00.000Z</time>
      </trkpt>
      <trkpt lat="43.17813" lon="2.37714">
        <ele>153.1</ele>
        <time>2019-06-16T07:09:01.000Z</time>
      </trkpt>
      <trkpt lat="43.17811" lon="2.37712">
        <ele>153.1</ele>
        <time>2019-06-16T07:09:02.000Z</time>
      </trkpt>
      <trkpt lat="43.17809" lon="2.37711">
        <ele>153.1</ele>
        <time>2019-06-16T07:09:03.000Z</time>
      </trkpt>
      <trkpt lat="43.17807" lon="2.37709">
        <ele>153</ele>
        <time>2019-06-16T07:09:04.000Z</time>
      </trkpt>
      <trkpt lat="43.17805" lon="2.37707">
        <ele>153</ele>
        <time>2019-06-16T07:09:05.000Z</time>
      </trkpt>
      <trkpt lat="43.17803" lon="2.37705">
        <ele>152.9</ele>
        <time>2019-06-16T07:09:06.000Z</time>
      </trkpt>
      <trkpt lat="43.178" lon="2.37704">
        <ele>152.9</ele>
        <time>2019-06-16T07:09:07.000Z</time>
      </trkpt>
      <trkpt lat="43.17798" lon="2.37702">
        <ele>152.8</ele>
        <time>2019-06-16T07:09:08.000Z</time>
      </trkpt>
      <trkpt lat="43.17795" lon="2.377">
        <ele>152.8</ele>
        <time>2019-06-16T07:09:09.000Z</time>
      </trkpt>
      <trkpt lat="43.17792" lon="2.37698">
        <ele>152.8</ele>
        <time>2019-06-16T07:09:10.000Z</time>
      </trkpt>
      <trkpt lat="43.1779" lon="2.37696">
        <ele>152.7</ele>
        <time>2019-06-16T07:09:11.000Z</time>
      </trkpt>
      <trkpt lat="43.17787" lon="2.37694">
        <ele>152.7</ele>
        <time>2019-06-16T07:09:12.000Z</time>
      </trkpt>
      <trkpt lat="43.17784" lon="2.37692">
        <ele>152.6</ele>
        <time>2019-06-16T07:09:13.000Z</time>
      </trkpt>
      <trkpt lat="43.17782" lon="2.3769">
        <ele>152.6</ele>
        <time>2019-06-16T07:09:14.000Z</time>
      </trkpt>
      <trkpt lat="43.17779" lon="2.37688">
        <ele>152.5</ele>
        <time>2019-06-16T07:09:15.000Z</time>
      </trkpt>
      <trkpt lat="43.17777" lon="2.37685">
        <ele>152.4</ele>
        <time>2019-06-16T07:09:16.000Z</time>
      </trkpt>
      <trkpt lat="43.17775" lon="2.37683">
        <ele>152.4</ele>
        <time>2019-06-16T07:09:17.000Z</time>
      </trkpt>
      <trkpt lat="43.17773" lon="2.3768">
        <ele>152.3</ele>
        <time>2019-06-16T07:09:18.000Z</time>
      </trkpt>
      <trkpt lat="43.17771" lon="2.37678">
        <ele>152.3</ele>
        <time>2019-06-16T07:09:19.000Z</time>
      </trkpt>
      <trkpt lat="43.17769" lon="2.37675">
        <ele>152.2</ele>
        <time>2019-06-16T07:09:20.000Z</time>
      </trkpt>
      <trkpt lat="43.17767" lon="2.37673">
        <ele>152.1</ele>
        <time>2019-06-16T07:09:21.000Z</time>
      </trkpt>
      <trkpt lat="43.17766" lon="2.37671">
        <ele>152.1</ele>
        <time>2019-06-16T07:09:22.000Z</time>
      </trkpt>
      <trkpt lat="43.17764" lon="2.37669">
        <ele>152</ele>
        <time>2019-06-16T07:09:23.000Z</time>
      </trkpt>
      <trkpt lat="43.17762" lon="2.37667">
        <ele>152</ele>
        <time>2019-06-16T07:09:24.000Z</time>
      </trkpt>
      <trkpt lat="43.1776" lon="2.37665">
        <ele>152</ele>
        <time>2019-06-16T07:09:25.000Z</time>
      </trkpt>
      <trkpt lat="43.17758" lon="2.37664">
        <ele>152</ele>
        <time>2019-06-16T07:09:26.000Z</time>
      </trkpt>
      <trkpt lat="43.17757" lon="2.37663">
        <ele>152</ele>
        <time>2019-06-16T07:09:27.000Z</time>
      </trkpt>
      <trkpt lat="43.17755" lon="2.37661">
        <ele>151.9</ele>
        <time>2019-06-16T07:09:28.000Z</time>
      </trkpt>
      <trkpt lat="43.17753" lon="2.3766">
        <ele>151.9</ele>
        <time>2019-06-16T07:09:29.000Z</time>
      </trkpt>
      <trkpt lat="43.17751" lon="2.37659">
        <ele>151.9</ele>
        <time>2019-06-16T07:09:30.000Z</time>
      </trkpt>
      <trkpt lat="43.17748" lon="2.37658">
        <ele>152</ele>
        <time>2019-06-16T07:09:31.000Z</time>
      </trkpt>
      <trkpt lat="43.17746" lon="2.37657">
        <ele>152</ele>
        <time>2019-06-16T07:09:32.000Z</time>
      </trkpt>
      <trkpt lat="43.17744" lon="2.37656">
        <ele>152.1</ele>
        <time>2019-06-16T07:09:33.000Z</time>
      </trkpt>
      <trkpt lat="43.17742" lon="2.37654">
        <ele>152.1</ele>
        <time>2019-06-16T07:09:34.000Z</time>
      </trkpt>
      <trkpt lat="43.1774" lon="2.37653">
        <ele>152.2</ele>
        <time>2019-06-16T07:09:35.000Z</time>
      </trkpt>
      <trkpt lat="43.17738" lon="2.37652">
        <ele>152.3</ele>
        <time>2019-06-16T07:09:36.000Z</time>
      </trkpt>
      <trkpt lat="43.17736" lon="2.3765">
        <ele>152.3</ele>
        <time>2019-06-16T07:09:37.000Z</time>
      </trkpt>
      <trkpt lat="43.17734" lon="2.37649">
        <ele>152.4</ele>
        <time>2019-06-16T07:09:38.000Z</time>
      </trkpt>
      <trkpt lat="43.17732" lon="2.37647">
        <ele>152.4</ele>
        <time>2019-06-16T07:09:39.000Z</time>
      </trkpt>
      <trkpt lat="43.1773" lon="2.37645">
        <ele>152.5</ele>
        <time>2019-06-16T07:09:40.000Z</time>
      </trkpt>
      <trkpt lat="43.17728" lon="2.37644">
        <ele>152.5</ele>
        <time>2019-06-16T07:09:41.000Z</time>
      </trkpt>
      <trkpt lat="43.17726" lon="2.37642">
        <ele>152.6</ele>
        <time>2019-06-16T07:09:42.000Z</time>
      </trkpt>
      <trkpt lat="43.17724" lon="2.3764">
        <ele>152.6</ele>
        <time>2019-06-16T07:09:43.000Z</time>
      </trkpt>
      <trkpt lat="43.17721" lon="2.37638">
        <ele>152.7</ele>
        <time>2019-06-16T07:09:44.000Z</time>
      </trkpt>
      <trkpt lat="43.17719" lon="2.37637">
        <ele>152.7</ele>
        <time>2019-06-16T07:09:45.000Z</time>
      </trkpt>
      <trkpt lat="43.17717" lon="2.37635">
        <ele>152.8</ele>
        <time>2019-06-16T07:09:46.000Z</time>
      </trkpt>
      <trkpt lat="43.17715" lon="2.37633">
        <ele>152.9</ele>
        <time>2019-06-16T07:09:47.000Z</time>
      </trkpt>
      <trkpt lat="43.17713" lon="2.37632">
        <ele>152.9</ele>
        <time>2019-06-16T07:09:48.000Z</time>
      </trkpt>
      <trkpt lat="43.17711" lon="2.3763">
        <ele>153</ele>
        <time>2019-06-16T07:09:49.000Z</time>
      </trkpt>
      <trkpt lat="43.17709" lon="2.37629">
        <ele>153</ele>
        <time>2019-06-16T07:09:50.000Z</time>
      </trkpt>
      <trkpt lat="43.17706" lon="2.37627">
        <ele>153.1</ele>
        <time>2019-06-16T07:09:51.000Z</time>
      </trkpt>
      <trkpt lat="43.17704" lon="2.37626">
        <ele>153.2</ele>
        <time>2019-06-16T07:09:52.000Z</time>
      </trkpt>
      <trkpt lat="43.17702" lon="2.37625">
        <ele>153.2</ele>
        <time>2019-06-16T07:09:53.000Z</time>
      </trkpt>
      <trkpt lat="43.17699" lon="2.37623">
        <ele>153.3</ele>
        <time>2019-06-16T07:09:54.000Z</time>
      </trkpt>
      <trkpt lat="43.17697" lon="2.37622">
        <ele>153.4</ele>
        <time>2019-06-16T07:09:55.000Z</time>
      </trkpt>
      <trkpt lat="43.17695" lon="2.37621">
        <ele>153.4</ele>
        <time>2019-06-16T07:09:56.000Z</time>
      </trkpt>
      <trkpt lat="43.17692" lon="2.37619">
        <ele>153.5</ele>
        <time>2019-06-16T07:09:57.000Z</time>
      </trkpt>
      <trkpt lat="43.1769" lon="2.37618">
        <ele>153.6</ele>
        <time>2019-06-16T07:09:58.000Z</time>
      </trkpt>
      <trkpt lat="43.17688" lon="2.37616">
        <ele>153.6</ele>
        <time>2019-06-16T07:09:59.000Z</time>
      </trkpt>
      <trkpt lat="43.17686" lon="2.37615">
        <ele>153.7</ele>
        <time>2019-06-16T07:10:00.000Z</time>
      </trkpt>
      <trkpt lat="43.17684" lon="2.37614">
        <ele>153.7</ele>
        <time>2019-06-16T07:10:01.000Z</time>
      </trkpt>
      <trkpt lat="43.17682" lon="2.37612">
        <ele>153.8</ele>
        <time>2019-06-16T07:10:02.000Z</time>
      </trkpt>
      <trkpt lat="43.1768" lon="2.3761">
        <ele>153.8</ele>
        <time>2019-06-16T07:10:03.000Z</time>
      </trkpt>
      <trkpt lat="43.17679" lon="2.37609">
        <ele>153.9</ele>
        <time>2019-06-16T07:10:04.000Z</time>
      </trkpt>
      <trkpt lat="43.17677" lon="2.37607">
        <ele>153.9</ele>
        <time>2019-06-16T07:10:05.000Z</time>
      </trkpt>
      <trkpt lat="43.17676" lon="2.37605">
        <ele>153.9</ele>
        <time>2019-06-16T07:10:06.000Z</time>
      </trkpt>
      <trkpt lat="43.17675" lon="2.37603">
        <ele>153.9</ele>
        <time>2019-06-16T07:10:07.000Z</time>
      </trkpt>
      <trkpt lat="43.17673" lon="2.37601">
        <ele>154</ele>
        <time>2019-06-16T07:10:08.000Z</time>
      </trkpt>
      <trkpt lat="43.17672" lon="2.37599">
        <ele>154</ele>
        <time>2019-06-16T07:10:09.000Z</time>
      </trkpt>
      <trkpt lat="43.17671" lon="2.37598">
        <ele>154</ele>
        <time>2019-06-16T07:10:10.000Z</time>
      </trkpt>
      <trkpt lat="43.1767" lon="2.37598">
        <ele>154</ele>
        <time>2019-06-16T07:10:11.000Z</time>
      </trkpt>
      <trkpt lat="43.17669" lon="2.37599">
        <ele>154.1</ele>
        <time>2019-06-16T07:10:12.000Z</time>
      </trkpt>
      <trkpt lat="43.17669" lon="2.376">
        <ele>154.1</ele>
        <time>2019-06-16T07:10:13.000Z</time>
      </trkpt>
      <trkpt lat="43.17668" lon="2.37602">
        <ele>154.2</ele>
        <time>2019-06-16T07:10:14.000Z</time>
      </trkpt>
      <trkpt lat="43.17667" lon="2.37605">
        <ele>154.3</ele>
        <time>2019-06-16T07:10:15.000Z</time>
      </trkpt>
      <trkpt lat="43.17666" lon="2.37607">
        <ele>154.4</ele>
        <time>2019-06-16T07:10:16.000Z</time>
      </trkpt>
      <trkpt lat="43.17665" lon="2.3761">
        <ele>154.5</ele>
        <time>2019-06-16T07:10:17.000Z</time>
      </trkpt>
      <trkpt lat="43.17665" lon="2.37614">
        <ele>154.6</ele>
        <time>2019-06-16T07:10:18.000Z</time>
      </trkpt>
      <trkpt lat="43.17664" lon="2.37617">
        <ele>154.7</ele>
        <time>2019-06-16T07:10:19.000Z</time>
      </trkpt>
      <trkpt lat="43.17663" lon="2.3762">
        <ele>154.8</ele>
        <time>2019-06-16T07:10:20.000Z</time>
      </trkpt>
      <trkpt lat="43.17663" lon="2.37623">
        <ele>154.9</ele>
        <time>2019-06-16T07:10:21.000Z</time>
      </trkpt>
      <trkpt lat="43.17662" lon="2.37625">
        <ele>155</ele>
        <time>2019-06-16T07:10:22.000Z</time>
      </trkpt>
      <trkpt lat="43.17661" lon="2.37628">
        <ele>155.1</ele>
        <time>2019-06-16T07:10:23.000Z</time>
      </trkpt>
      <trkpt lat="43.17661" lon="2.37631">
        <ele>155.2</ele>
        <time>2019-06-16T07:10:24.000Z</time>
      </trkpt>
      <trkpt lat="43.1766" lon="2.37634">
        <ele>155.3</ele>
        <time>2019-06-16T07:10:25.000Z</time>
      </trkpt>
      <trkpt lat="43.17659" lon="2.37637">
        <ele>155.3</ele>
        <time>2019-06-16T07:10:26.000Z</time>
      </trkpt>
      <trkpt lat="43.17659" lon="2.37639">
        <ele>155.4</ele>
        <time>2019-06-16T07:10:27.000Z</time>
      </trkpt>
      <trkpt lat="43.17658" lon="2.37642">
        <ele>155.5</ele>
        <time>2019-06-16T07:10:28.000Z</time>
      </trkpt>
      <trkpt lat="43.17658" lon="2.37645">
        <ele>155.6</ele>
        <time>2019-06-16T07:10:29.000Z</time>
      </trkpt>
      <trkpt lat="43.17657" lon="2.37648">
        <ele>155.7</ele>
        <time>2019-06-16T07:10:30.000Z</time>
      </trkpt>
      <trkpt lat="43.17656" lon="2.37651">
        <ele>155.8</ele>
        <time>2019-06-16T07:10:31.000Z</time>
      </trkpt>
      <trkpt lat="43.17655" lon="2.37653">
        <ele>155.9</ele>
        <time>2019-06-16T07:10:32.000Z</time>
      </trkpt>
      <trkpt lat="43.17655" lon="2.37656">
        <ele>155.9</ele>
        <time>2019-06-16T07:10:33.000Z</time>
      </trkpt>
      <trkpt lat="43.17654" lon="2.37659">
        <ele>156</ele>
        <time>2019-06-16T07:10:34.000Z</time>
      </trkpt>
      <trkpt lat="43.17653" lon="2.37662">
        <ele>156.1</ele>
        <time>2019-06-16T07:10:35.000Z</time>
      </trkpt>
      <trkpt lat="43.17653" lon="2.37665">
        <ele>156.2</ele>
        <time>2019-06-16T07:10:36.000Z</time>
      </trkpt>
      <trkpt lat="43.17652" lon="2.37668">
        <ele>156.2</ele>
        <time>2019-06-16T07:10:37.000Z</time>
      </trkpt>
      <trkpt lat="43.17651" lon="2.37671">
        <ele>156.3</ele>
        <time>2019-06-16T07:10:38.000Z</time>
      </trkpt>
      <trkpt lat="43.1765" lon="2.37674">
        <ele>156.3</ele>
        <time>2019-06-16T07:10:39.000Z</time>
      </trkpt>
      <trkpt lat="43.1765" lon="2.37677">
        <ele>156.4</ele>
        <time>2019-06-16T07:10:40.000Z</time>
      </trkpt>
      <trkpt lat="43.17649" lon="2.3768">
        <ele>156.4</ele>
        <time>2019-06-16T07:10:41.000Z</time>
      </trkpt>
      <trkpt lat="43.17649" lon="2.37683">
        <ele>156.5</ele>
        <time>2019-06-16T07:10:42.000Z</time>
      </trkpt>
      <trkpt lat="43.17648" lon="2.37686">
        <ele>156.5</ele>
        <time>2019-06-16T07:10:43.000Z</time>
      </trkpt>
      <trkpt lat="43.17647" lon="2.37689">
        <ele>156.6</ele>
        <time>2019-06-16T07:10:44.000Z</time>
      </trkpt>
      <trkpt lat="43.17647" lon="2.37692">
        <ele>156.6</ele>
        <time>2019-06-16T07:10:45.000Z</time>
      </trkpt>
      <trkpt lat="43.17646" lon="2.37695">
        <ele>156.6</ele>
        <time>2019-06-16T07:10:46.000Z</time>
      </trkpt>
      <trkpt lat="43.17646" lon="2.37698">
        <ele>156.7</ele>
        <time>2019-06-16T07:10:47.000Z</time>
      </trkpt>
      <trkpt lat="43.17645" lon="2.37701">
        <ele>156.7</ele>
        <time>2019-06-16T07:10:48.000Z</time>
      </trkpt>
      <trkpt lat="43.17644" lon="2.37705">
        <ele>156.7</ele>
        <time>2019-06-16T07:10:49.000Z</time>
      </trkpt>
      <trkpt lat="43.17644" lon="2.37708">
        <ele>156.8</ele>
        <time>2019-06-16T07:10:50.000Z</time>
      </trkpt>
      <trkpt lat="43.17643" lon="2.37711">
        <ele>156.9</ele>
        <time>2019-06-16T07:10:51.000Z</time>
      </trkpt>
      <trkpt lat="43.17642" lon="2.37714">
        <ele>156.9</ele>
        <time>2019-06-16T07:10:52.000Z</time>
      </trkpt>
      <trkpt lat="43.17641" lon="2.37717">
        <ele>157</ele>
        <time>2019-06-16T07:10:53.000Z</time>
      </trkpt>
      <trkpt lat="43.1764" lon="2.3772">
        <ele>157</ele>
        <time>2019-06-16T07:10:54.000Z</time>
      </trkpt>
      <trkpt lat="43.17639" lon="2.37723">
        <ele>157.1</ele>
        <time>2019-06-16T07:10:55.000Z</time>
      </trkpt>
      <trkpt lat="43.17638" lon="2.37727">
        <ele>157.2</ele>
        <time>2019-06-16T07:10:56.000Z</time>
      </trkpt>
      <trkpt lat="43.17637" lon="2.3773">
        <ele>157.2</ele>
        <time>2019-06-16T07:10:57.000Z</time>
      </trkpt>
      <trkpt lat="43.17636" lon="2.37733">
        <ele>157.3</ele>
        <time>2019-06-16T07:10:58.000Z</time>
      </trkpt>
      <trkpt lat="43.17636" lon="2.37736">
        <ele>157.3</ele>
        <time>2019-06-16T07:10:59.000Z</time>
      </trkpt>
      <trkpt lat="43.17635" lon="2.37739">
        <ele>157.3</ele>
        <time>2019-06-16T07:11:00.000Z</time>
      </trkpt>
      <trkpt lat="43.17635" lon="2.37743">
        <ele>157.4</ele>
        <time>2019-06-16T07:11:01.000Z</time>
      </trkpt>
      <trkpt lat="43.17634" lon="2.37746">
        <ele>157.4</ele>
        <time>2019-06-16T07:11:02.000Z</time>
      </trkpt>
      <trkpt lat="43.17634" lon="2.37749">
        <ele>157.4</ele>
        <time>2019-06-16T07:11:03.000Z</time>
      </trkpt>
      <trkpt lat="43.17633" lon="2.37752">
        <ele>157.4</ele>
        <time>2019-06-16T07:11:04.000Z</time>
      </trkpt>
      <trkpt lat="43.17633" lon="2.37755">
        <ele>157.5</ele>
        <time>2019-06-16T07:11:05.000Z</time>
      </trkpt>
      <trkpt lat="43.17632" lon="2.37758">
        <ele>157.5</ele>
        <time>2019-06-16T07:11:06.000Z</time>
      </trkpt>
      <trkpt lat="43.17632" lon="2.37761">
        <ele>157.6</ele>
        <time>2019-06-16T07:11:07.000Z</time>
      </trkpt>
      <trkpt lat="43.17631" lon="2.37765">
        <ele>157.6</ele>
        <time>2019-06-16T07:11:08.000Z</time>
      </trkpt>
      <trkpt lat="43.17631" lon="2.37768">
        <ele>157.7</ele>
        <time>2019-06-16T07:11:09.000Z</time>
      </trkpt>
      <trkpt lat="43.1763" lon="2.37771">
        <ele>157.7</ele>
        <time>2019-06-16T07:11:10.000Z</time>
      </trkpt>
      <trkpt lat="43.1763" lon="2.37774">
        <ele>157.8</ele>
        <time>2019-06-16T07:11:11.000Z</time>
      </trkpt>
      <trkpt lat="43.17629" lon="2.37777">
        <ele>157.8</ele>
        <time>2019-06-16T07:11:12.000Z</time>
      </trkpt>
      <trkpt lat="43.17629" lon="2.3778">
        <ele>157.9</ele>
        <time>2019-06-16T07:11:13.000Z</time>
      </trkpt>
      <trkpt lat="43.17629" lon="2.37783">
        <ele>157.9</ele>
        <time>2019-06-16T07:11:14.000Z</time>
      </trkpt>
      <trkpt lat="43.17628" lon="2.37786">
        <ele>158</ele>
        <time>2019-06-16T07:11:15.000Z</time>
      </trkpt>
      <trkpt lat="43.17628" lon="2.37789">
        <ele>158</ele>
        <time>2019-06-16T07:11:16.000Z</time>
      </trkpt>
      <trkpt lat="43.17628" lon="2.37792">
        <ele>158</ele>
        <time>2019-06-16T07:11:17.000Z</time>
      </trkpt>
      <trkpt lat="43.17628" lon="2.37794">
        <ele>158.1</ele>
        <time>2019-06-16T07:11:18.000Z</time>
      </trkpt>
      <trkpt lat="43.17627" lon="2.37797">
        <ele>158.1</ele>
        <time>2019-06-16T07:11:19.000Z</time>
      </trkpt>
      <trkpt lat="43.17627" lon="2.378">
        <ele>158.1</ele>
        <time>2019-06-16T07:11:20.000Z</time>
      </trkpt>
      <trkpt lat="43.17627" lon="2.37802">
        <ele>158.2</ele>
        <time>2019-06-16T07:11:21.000Z</time>
      </trkpt>
      <trkpt lat="43.17626" lon="2.37805">
        <ele>158.2</ele>
        <time>2019-06-16T07:11:22.000Z</time>
      </trkpt>
      <trkpt lat="43.17626" lon="2.37807">
        <ele>158.3</ele>
        <time>2019-06-16T07:11:23.000Z</time>
      </trkpt>
      <trkpt lat="43.17626" lon="2.3781">
        <ele>158.3</ele>
        <time>2019-06-16T07:11:24.000Z</time>
      </trkpt>
      <trkpt lat="43.17625" lon="2.37812">
        <ele>158.4</ele>
        <time>2019-06-16T07:11:25.000Z</time>
      </trkpt>
      <trkpt lat="43.17625" lon="2.37814">
        <ele>158.4</ele>
        <time>2019-06-16T07:11:26.000Z</time>
      </trkpt>
      <trkpt lat="43.17624" lon="2.37817">
        <ele>158.5</ele>
        <time>2019-06-16T07:11:27.000Z</time>
      </trkpt>
      <trkpt lat="43.17624" lon="2.37819">
        <ele>158.5</ele>
        <time>2019-06-16T07:11:28.000Z</time>
      </trkpt>
      <trkpt lat="43.17623" lon="2.37822">
        <ele>158.6</ele>
        <time>2019-06-16T07:11:29.000Z</time>
      </trkpt>
      <trkpt lat="43.17623" lon="2.37824">
        <ele>158.6</ele>
        <time>2019-06-16T07:11:30.000Z</time>
      </trkpt>
      <trkpt lat="43.17623" lon="2.37827">
        <ele>158.7</ele>
        <time>2019-06-16T07:11:31.000Z</time>
      </trkpt>
      <trkpt lat="43.17622" lon="2.3783">
        <ele>158.7</ele>
        <time>2019-06-16T07:11:32.000Z</time>
      </trkpt>
      <trkpt lat="43.17622" lon="2.37833">
        <ele>158.8</ele>
        <time>2019-06-16T07:11:33.000Z</time>
      </trkpt>
      <trkpt lat="43.17622" lon="2.37836">
        <ele>158.8</ele>
        <time>2019-06-16T07:11:34.000Z</time>
      </trkpt>
      <trkpt lat="43.17622" lon="2.37839">
        <ele>158.8</ele>
        <time>2019-06-16T07:11:35.000Z</time>
      </trkpt>
      <trkpt lat="43.17621" lon="2.37842">
        <ele>158.9</ele>
        <time>2019-06-16T07:11:36.000Z</time>
      </trkpt>
      <trkpt lat="43.17621" lon="2.37845">
        <ele>158.9</ele>
        <time>2019-06-16T07:11:37.000Z</time>
      </trkpt>
      <trkpt lat="43.17621" lon="2.37848">
        <ele>159</ele>
        <time>2019-06-16T07:11:38.000Z</time>
      </trkpt>
      <trkpt lat="43.17621" lon="2.37851">
        <ele>159</ele>
        <time>2019-06-16T07:11:39.000Z</time>
      </trkpt>
      <trkpt lat="43.1762" lon="2.37854">
        <ele>159</ele>
        <time>2019-06-16T07:11:40.000Z</time>
      </trkpt>
      <trkpt lat="43.1762" lon="2.37857">
        <ele>159.1</ele>
        <time>2019-06-16T07:11:41.000Z</time>
      </trkpt>
      <trkpt lat="43.17619" lon="2.3786">
        <ele>159.2</ele>
        <time>2019-06-16T07:11:42.000Z</time>
      </trkpt>
      <trkpt lat="43.17619" lon="2.37862">
        <ele>159.2</ele>
        <time>2019-06-16T07:11:43.000Z</time>
      </trkpt>
      <trkpt lat="43.17619" lon="2.37864">
        <ele>159.2</ele>
        <time>2019-06-16T07:11:44.000Z</time>
      </trkpt>
      <trkpt lat="43.17619" lon="2.37865">
        <ele>159.3</ele>
        <time>2019-06-16T07:11:45.000Z</time>
      </trkpt>
      <trkpt lat="43.17618" lon="2.37865">
        <ele>159.3</ele>
        <time>2019-06-16T07:11:46.000Z</time>
      </trkpt>
      <trkpt lat="43.17618" lon="2.37865">
        <ele>159.3</ele>
        <time>2019-06-16T07:11:47.000Z</time>
      </trkpt>
      <trkpt lat="43.17618" lon="2.37865">
        <ele>159.3</ele>
        <time>2019-06-16T07:11:48.000Z</time>
      </trkpt>
      <trkpt lat="43.17618" lon="2.37865">
        <ele>159.3</ele>
        <time>2019-06-16T07:11:49.000Z</time>
      </trkpt>
      <trkpt lat="43.17618" lon="2.37865">
        <ele>159.3</ele>
        <time>2019-06-16T07:11:50.000Z</time>
      </trkpt>
      <trkpt lat="43.17618" lon="2.37865">
        <ele>159.3</ele>
        <time>2019-06-16T07:11:51.000Z</time>
      </trkpt>
      <trkpt lat="43.17618" lon="2.37865">
        <ele>159.3</ele>
        <time>2019-06-16T07:11:52.000Z</time>
      </trkpt>
      <trkpt lat="43.17618" lon="2.37866">
        <ele>159.3</ele>
        <time>2019-06-16T07:11:53.000Z</time>
      </trkpt>
      <trkpt lat="43.17617" lon="2.37867">
        <ele>159.4</ele>
        <time>2019-06-16T07:11:54.000Z</time>
      </trkpt>
      <trkpt lat="43.17617" lon="2.37868">
        <ele>159.5</ele>
        <time>2019-06-16T07:11:55.000Z</time>
      </trkpt>
      <trkpt lat="43.17616" lon="2.3787">
        <ele>159.5</ele>
        <time>2019-06-16T07:11:56.000Z</time>
      </trkpt>
      <trkpt lat="43.17615" lon="2.37871">
        <ele>159.6</ele>
        <time>2019-06-16T07:11:57.000Z</time>
      </trkpt>
      <trkpt lat="43.17614" lon="2.37873">
        <ele>159.7</ele>
        <time>2019-06-16T07:11:58.000Z</time>
      </trkpt>
      <trkpt lat="43.17613" lon="2.37875">
        <ele>159.9</ele>
        <time>2019-06-16T07:11:59.000Z</time>
      </trkpt>
      <trkpt lat="43.17612" lon="2.37876">
        <ele>160</ele>
        <time>2019-06-16T07:12:00.000Z</time>
      </trkpt>
      <trkpt lat="43.1761" lon="2.37878">
        <ele>160.1</ele>
        <time>2019-06-16T07:12:01.000Z</time>
      </trkpt>
      <trkpt lat="43.17609" lon="2.3788">
        <ele>160.2</ele>
        <time>2019-06-16T07:12:02.000Z</time>
      </trkpt>
      <trkpt lat="43.17608" lon="2.37882">
        <ele>160.4</ele>
        <time>2019-06-16T07:12:03.000Z</time>
      </trkpt>
      <trkpt lat="43.17606" lon="2.37884">
        <ele>160.5</ele>
        <time>2019-06-16T07:12:04.000Z</time>
      </trkpt>
      <trkpt lat="43.17605" lon="2.37886">
        <ele>160.7</ele>
        <time>2019-06-16T07:12:05.000Z</time>
      </trkpt>
      <trkpt lat="43.17603" lon="2.37888">
        <ele>160.8</ele>
        <time>2019-06-16T07:12:06.000Z</time>
      </trkpt>
      <trkpt lat="43.17602" lon="2.3789">
        <ele>161</ele>
        <time>2019-06-16T07:12:07.000Z</time>
      </trkpt>
      <trkpt lat="43.17601" lon="2.37892">
        <ele>161.1</ele>
        <time>2019-06-16T07:12:08.000Z</time>
      </trkpt>
      <trkpt lat="43.17599" lon="2.37895">
        <ele>161.2</ele>
        <time>2019-06-16T07:12:09.000Z</time>
      </trkpt>
      <trkpt lat="43.17598" lon="2.37897">
        <ele>161.4</ele>
        <time>2019-06-16T07:12:10.000Z</time>
      </trkpt>
      <trkpt lat="43.17597" lon="2.379">
        <ele>161.5</ele>
        <time>2019-06-16T07:12:11.000Z</time>
      </trkpt>
      <trkpt lat="43.17596" lon="2.37902">
        <ele>161.7</ele>
        <time>2019-06-16T07:12:12.000Z</time>
      </trkpt>
      <trkpt lat="43.17595" lon="2.37905">
        <ele>161.8</ele>
        <time>2019-06-16T07:12:13.000Z</time>
      </trkpt>
      <trkpt lat="43.17593" lon="2.37908">
        <ele>161.9</ele>
        <time>2019-06-16T07:12:14.000Z</time>
      </trkpt>
      <trkpt lat="43.17592" lon="2.37911">
        <ele>162.1</ele>
        <time>2019-06-16T07:12:15.000Z</time>
      </trkpt>
      <trkpt lat="43.17591" lon="2.37913">
        <ele>162.2</ele>
        <time>2019-06-16T07:12:16.000Z</time>
      </trkpt>
      <trkpt lat="43.1759" lon="2.37916">
        <ele>162.4</ele>
        <time>2019-06-16T07:12:17.000Z</time>
      </trkpt>
      <trkpt lat="43.17589" lon="2.37919">
        <ele>162.4</ele>
        <time>2019-06-16T07:12:18.000Z</time>
      </trkpt>
      <trkpt lat="43.17587" lon="2.37922">
        <ele>162.4</ele>
        <time>2019-06-16T07:12:19.000Z</time>
      </trkpt>
      <trkpt lat="43.17586" lon="2.37924">
        <ele>162.4</ele>
        <time>2019-06-16T07:12:20.000Z</time>
      </trkpt>
      <trkpt lat="43.17585" lon="2.37927">
        <ele>162.4</ele>
        <time>2019-06-16T07:12:21.000Z</time>
      </trkpt>
      <trkpt lat="43.17584" lon="2.3793">
        <ele>162.4</ele>
        <time>2019-06-16T07:12:22.000Z</time>
      </trkpt>
      <trkpt lat="43.17582" lon="2.37932">
        <ele>162.3</ele>
        <time>2019-06-16T07:12:23.000Z</time>
      </trkpt>
      <trkpt lat="43.17581" lon="2.37935">
        <ele>162.3</ele>
        <time>2019-06-16T07:12:24.000Z</time>
      </trkpt>
      <trkpt lat="43.1758" lon="2.37938">
        <ele>162.2</ele>
        <time>2019-06-16T07:12:25.000Z</time>
      </trkpt>
      <trkpt lat="43.17579" lon="2.37941">
        <ele>162.2</ele>
        <time>2019-06-16T07:12:26.000Z</time>
      </trkpt>
      <trkpt lat="43.17578" lon="2.37943">
        <ele>162.1</ele>
        <time>2019-06-16T07:12:27.000Z</time>
      </trkpt>
      <trkpt lat="43.17577" lon="2.37946">
        <ele>162.1</ele>
        <time>2019-06-16T07:12:28.000Z</time>
      </trkpt>
      <trkpt lat="43.17576" lon="2.37949">
        <ele>162.1</ele>
        <time>2019-06-16T07:12:29.000Z</time>
      </trkpt>
      <trkpt lat="43.17575" lon="2.37951">
        <ele>162</ele>
        <time>2019-06-16T07:12:30.000Z</time>
      </trkpt>
      <trkpt lat="43.17574" lon="2.37954">
        <ele>162</ele>
        <time>2019-06-16T07:12:31.000Z</time>
      </trkpt>
      <trkpt lat="43.17573" lon="2.37957">
        <ele>161.9</ele>
        <time>2019-06-16T07:12:32.000Z</time>
      </trkpt>
      <trkpt lat="43.17572" lon="2.37959">
        <ele>161.9</ele>
        <time>2019-06-16T07:12:33.000Z</time>
      </trkpt>
      <trkpt lat="43.17571" lon="2.37962">
        <ele>161.9</ele>
        <time>2019-06-16T07:12:34.000Z</time>
      </trkpt>
      <trkpt lat="43.1757" lon="2.37965">
        <ele>161.8</ele>
        <time>2019-06-16T07:12:35.000Z</time>
      </trkpt>
      <trkpt lat="43.17569" lon="2.37968">
        <ele>161.8</ele>
        <time>2019-06-16T07:12:36.000Z</time>
      </trkpt>
      <trkpt lat="43.17568" lon="2.37971">
        <ele>161.8</ele>
        <time>2019-06-16T07:12:37.000Z</time>
      </trkpt>
      <trkpt lat="43.17567" lon="2.37973">
        <ele>161.8</ele>
        <time>2019-06-16T07:12:38.000Z</time>
      </trkpt>
      <trkpt lat="43.17565" lon="2.37976">
        <ele>161.7</ele>
        <time>2019-06-16T07:12:39.000Z</time>
      </trkpt>
      <trkpt lat="43.17564" lon="2.37979">
        <ele>161.7</ele>
        <time>2019-06-16T07:12:40.000Z</time>
      </trkpt>
      <trkpt lat="43.17563" lon="2.37982">
        <ele>161.7</ele>
        <time>2019-06-16T07:12:41.000Z</time>
      </trkpt>
      <trkpt lat="43.17562" lon="2.37985">
        <ele>161.7</ele>
        <time>2019-06-16T07:12:42.000Z</time>
      </trkpt>
      <trkpt lat="43.1756" lon="2.37988">
        <ele>161.7</ele>
        <time>2019-06-16T07:12:43.000Z</time>
      </trkpt>
      <trkpt lat="43.17559" lon="2.37991">
        <ele>161.7</ele>
        <time>2019-06-16T07:12:44.000Z</time>
      </trkpt>
      <trkpt lat="43.17558" lon="2.37994">
        <ele>161.7</ele>
        <time>2019-06-16T07:12:45.000Z</time>
      </trkpt>
      <trkpt lat="43.17556" lon="2.37997">
        <ele>161.7</ele>
        <time>2019-06-16T07:12:46.000Z</time>
      </trkpt>
      <trkpt lat="43.17555" lon="2.38">
        <ele>161.7</ele>
        <time>2019-06-16T07:12:47.000Z</time>
      </trkpt>
      <trkpt lat="43.17553" lon="2.38003">
        <ele>161.8</ele>
        <time>2019-06-16T07:12:48.000Z</time>
      </trkpt>
      <trkpt lat="43.17552" lon="2.38006">
        <ele>161.9</ele>
        <time>2019-06-16T07:12:49.000Z</time>
      </trkpt>
      <trkpt lat="43.17551" lon="2.38009">
        <ele>162</ele>
        <time>2019-06-16T07:12:50.000Z</time>
      </trkpt>
      <trkpt lat="43.17549" lon="2.38012">
        <ele>162.1</ele>
        <time>2019-06-16T07:12:51.000Z</time>
      </trkpt>
      <trkpt lat="43.17548" lon="2.38015">
        <ele>162.1</ele>
        <time>2019-06-16T07:12:52.000Z</time>
      </trkpt>
      <trkpt lat="43.17547" lon="2.38018">
        <ele>162.2</ele>
        <time>2019-06-16T07:12:53.000Z</time>
      </trkpt>
      <trkpt lat="43.17546" lon="2.38021">
        <ele>162.3</ele>
        <time>2019-06-16T07:12:54.000Z</time>
      </trkpt>
      <trkpt lat="43.17545" lon="2.38024">
        <ele>162.3</ele>
        <time>2019-06-16T07:12:55.000Z</time>
      </trkpt>
      <trkpt lat="43.17544" lon="2.38027">
        <ele>162.3</ele>
        <time>2019-06-16T07:12:56.000Z</time>
      </trkpt>
      <trkpt lat="43.17543" lon="2.3803">
        <ele>162.4</ele>
        <time>2019-06-16T07:12:57.000Z</time>
      </trkpt>
      <trkpt lat="43.17542" lon="2.38033">
        <ele>162.4</ele>
        <time>2019-06-16T07:12:58.000Z</time>
      </trkpt>
      <trkpt lat="43.17541" lon="2.38036">
        <ele>162.4</ele>
        <time>2019-06-16T07:12:59.000Z</time>
      </trkpt>
      <trkpt lat="43.1754" lon="2.38039">
        <ele>162.4</ele>
        <time>2019-06-16T07:13:00.000Z</time>
      </trkpt>
      <trkpt lat="43.17539" lon="2.38042">
        <ele>162.5</ele>
        <time>2019-06-16T07:13:01.000Z</time>
      </trkpt>
      <trkpt lat="43.17538" lon="2.38044">
        <ele>162.5</ele>
        <time>2019-06-16T07:13:02.000Z</time>
      </trkpt>
      <trkpt lat="43.17537" lon="2.38047">
        <ele>162.5</ele>
        <time>2019-06-16T07:13:03.000Z</time>
      </trkpt>
      <trkpt lat="43.17536" lon="2.38049">
        <ele>162.5</ele>
        <time>2019-06-16T07:13:04.000Z</time>
      </trkpt>
      <trkpt lat="43.17535" lon="2.38051">
        <ele>162.6</ele>
        <time>2019-06-16T07:13:05.000Z</time>
      </trkpt>
      <trkpt lat="43.17534" lon="2.38053">
        <ele>162.6</ele>
        <time>2019-06-16T07:13:06.000Z</time>
      </trkpt>
      <trkpt lat="43.17532" lon="2.38055">
        <ele>162.7</ele>
        <time>2019-06-16T07:13:07.000Z</time>
      </trkpt>
      <trkpt lat="43.17531" lon="2.38056">
        <ele>162.8</ele>
        <time>2019-06-16T07:13:08.000Z</time>
      </trkpt>
      <trkpt lat="43.17529" lon="2.38058">
        <ele>162.8</ele>
        <time>2019-06-16T07:13:09.000Z</time>
      </trkpt>
      <trkpt lat="43.17528" lon="2.38059">
        <ele>162.9</ele>
        <time>2019-06-16T07:13:10.000Z</time>
      </trkpt>
      <trkpt lat="43.17526" lon="2.38061">
        <ele>163</ele>
        <time>2019-06-16T07:13:11.000Z</time>
      </trkpt>
      <trkpt lat="43.17525" lon="2.38062">
        <ele>163.1</ele>
        <time>2019-06-16T07:13:12.000Z</time>
      </trkpt>
      <trkpt lat="43.17523" lon="2.38063">
        <ele>163.2</ele>
        <time>2019-06-16T07:13:13.000Z</time>
      </trkpt>
      <trkpt lat="43.17521" lon="2.38064">
        <ele>163.3</ele>
        <time>2019-06-16T07:13:14.000Z</time>
      </trkpt>
      <trkpt lat="43.17519" lon="2.38065">
        <ele>163.3</ele>
        <time>2019-06-16T07:13:15.000Z</time>
      </trkpt>
      <trkpt lat="43.17518" lon="2.38066">
        <ele>163.4</ele>
        <time>2019-06-16T07:13:16.000Z</time>
      </trkpt>
      <trkpt lat="43.17516" lon="2.38067">
        <ele>163.5</ele>
        <time>2019-06-16T07:13:17.000Z</time>
      </trkpt>
      <trkpt lat="43.17515" lon="2.38067">
        <ele>163.6</ele>
        <time>2019-06-16T07:13:18.000Z</time>
      </trkpt>
      <trkpt lat="43.17513" lon="2.38068">
        <ele>163.7</ele>
        <time>2019-06-16T07:13:19.000Z</time>
      </trkpt>
      <trkpt lat="43.17512" lon="2.38069">
        <ele>163.7</ele>
        <time>2019-06-16T07:13:20.000Z</time>
      </trkpt>
      <trkpt lat="43.17511" lon="2.3807">
        <ele>163.8</ele>
        <time>2019-06-16T07:13:21.000Z</time>
      </trkpt>
      <trkpt lat="43.1751" lon="2.3807">
        <ele>163.8</ele>
        <time>2019-06-16T07:13:22.000Z</time>
      </trkpt>
      <trkpt lat="43.17509" lon="2.38071">
        <ele>163.9</ele>
        <time>2019-06-16T07:13:23.000Z</time>
      </trkpt>
      <trkpt lat="43.17509" lon="2.38071">
        <ele>163.9</ele>
        <time>2019-06-16T07:13:24.000Z</time>
      </trkpt>
      <trkpt lat="43.17508" lon="2.38072">
        <ele>163.9</ele>
        <time>2019-06-16T07:13:25.000Z</time>
      </trkpt>
      <trkpt lat="43.17508" lon="2.38072">
        <ele>163.9</ele>
        <time>2019-06-16T07:13:26.000Z</time>
      </trkpt>
      <trkpt lat="43.17507" lon="2.38072">
        <ele>163.9</ele>
        <time>2019-06-16T07:13:27.000Z</time>
      </trkpt>
      <trkpt lat="43.17507" lon="2.38072">
        <ele>163.9</ele>
        <time>2019-06-16T07:13:28.000Z</time>
      </trkpt>
      <trkpt lat="43.17507" lon="2.38072">
        <ele>163.9</ele>
        <time>2019-06-16T07:13:29.000Z</time>
      </trkpt>
      <trkpt lat="43.17507" lon="2.38072">
        <ele>163.9</ele>
        <time>2019-06-16T07:13:30.000Z</time>
      </trkpt>
      <trkpt lat="43.17507" lon="2.38072">
        <ele>163.9</ele>
        <time>2019-06-16T07:13:31.000Z</time>
      </trkpt>
      <trkpt lat="43.17507" lon="2.38072">
        <ele>163.9</ele>
        <time>2019-06-16T07:13:32.000Z</time>
      </trkpt>
      <trkpt lat="43.17507" lon="2.38072">
        <ele>163.9</ele>
        <time>2019-06-16T07:13:33.000Z</time>
      </trkpt>
      <trkpt lat="43.17507" lon="2.38072">
        <ele>163.9</ele>
        <time>2019-06-16T07:13:34.000Z</time>
      </trkpt>
      <trkpt lat="43.17507" lon="2.38072">
        <ele>163.9</ele>
        <time>2019-06-16T07:13:35.000Z</time>
      </trkpt>
      <trkpt lat="43.17507" lon="2.38073">
        <ele>163.9</ele>
        <time>2019-06-16T07:13:36.000Z</time>
      </trkpt>
      <trkpt lat="43.17507" lon="2.38073">
        <ele>163.9</ele>
        <time>2019-06-16T07:13:37.000Z</time>
      </trkpt>
      <trkpt lat="43.17507" lon="2.38073">
        <ele>164</ele>
        <time>2019-06-16T07:13:38.000Z</time>
      </trkpt>
      <trkpt lat="43.17506" lon="2.38073">
        <ele>164</ele>
        <time>2019-06-16T07:13:39.000Z</time>
      </trkpt>
      <trkpt lat="43.17506" lon="2.38073">
        <ele>164</ele>
        <time>2019-06-16T07:13:40.000Z</time>
      </trkpt>
      <trkpt lat="43.17505" lon="2.38073">
        <ele>164</ele>
        <time>2019-06-16T07:13:41.000Z</time>
      </trkpt>
      <trkpt lat="43.17505" lon="2.38074">
        <ele>164</ele>
        <time>2019-06-16T07:13:42.000Z</time>
      </trkpt>
      <trkpt lat="43.17504" lon="2.38074">
        <ele>164.1</ele>
        <time>2019-06-16T07:13:43.000Z</time>
      </trkpt>
      <trkpt lat="43.17504" lon="2.38075">
        <ele>164.1</ele>
        <time>2019-06-16T07:13:44.000Z</time>
      </trkpt>
      <trkpt lat="43.17503" lon="2.38075">
        <ele>164.1</ele>
        <time>2019-06-16T07:13:45.000Z</time>
      </trkpt>
      <trkpt lat="43.17502" lon="2.38076">
        <ele>164.1</ele>
        <time>2019-06-16T07:13:46.000Z</time>
      </trkpt>
      <trkpt lat="43.17502" lon="2.38076">
        <ele>164.1</ele>
        <time>2019-06-16T07:13:47.000Z</time>
      </trkpt>
      <trkpt lat="43.17501" lon="2.38077">
        <ele>164.2</ele>
        <time>2019-06-16T07:13:48.000Z</time>
      </trkpt>
      <trkpt lat="43.175" lon="2.38078">
        <ele>164.2</ele>
        <time>2019-06-16T07:13:49.000Z</time>
      </trkpt>
      <trkpt lat="43.17499" lon="2.38079">
        <ele>164.2</ele>
        <time>2019-06-16T07:13:50.000Z</time>
      </trkpt>
      <trkpt lat="43.17498" lon="2.3808">
        <ele>164.2</ele>
        <time>2019-06-16T07:13:51.000Z</time>
      </trkpt>
      <trkpt lat="43.17497" lon="2.3808">
        <ele>164.3</ele>
        <time>2019-06-16T07:13:52.000Z</time>
      </trkpt>
      <trkpt lat="43.17496" lon="2.38081">
        <ele>164.3</ele>
        <time>2019-06-16T07:13:53.000Z</time>
      </trkpt>
      <trkpt lat="43.17495" lon="2.38082">
        <ele>164.3</ele>
        <time>2019-06-16T07:13:54.000Z</time>
      </trkpt>
      <trkpt lat="43.17494" lon="2.38084">
        <ele>164.4</ele>
        <time>2019-06-16T07:13:55.000Z</time>
      </trkpt>
      <trkpt lat="43.17492" lon="2.38085">
        <ele>164.4</ele>
        <time>2019-06-16T07:13:56.000Z</time>
      </trkpt>
      <trkpt lat="43.17491" lon="2.38086">
        <ele>164.4</ele>
        <time>2019-06-16T07:13:57.000Z</time>
      </trkpt>
      <trkpt lat="43.17489" lon="2.38088">
        <ele>164.4</ele>
        <time>2019-06-16T07:13:58.000Z</time>
      </trkpt>
      <trkpt lat="43.17488" lon="2.38089">
        <ele>164.4</ele>
        <time>2019-06-16T07:13:59.000Z</time>
      </trkpt>
      <trkpt lat="43.17487" lon="2.38091">
        <ele>164.4</ele>
        <time>2019-06-16T07:14:00.000Z</time>
      </trkpt>
      <trkpt lat="43.17486" lon="2.38093">
        <ele>164.4</ele>
        <time>2019-06-16T07:14:01.000Z</time>
      </trkpt>
      <trkpt lat="43.17484" lon="2.38095">
        <ele>164.4</ele>
        <time>2019-06-16T07:14:02.000Z</time>
      </trkpt>
      <trkpt lat="43.17483" lon="2.38097">
        <ele>164.4</ele>
        <time>2019-06-16T07:14:03.000Z</time>
      </trkpt>
      <trkpt lat="43.17482" lon="2.38099">
        <ele>164.4</ele>
        <time>2019-06-16T07:14:04.000Z</time>
      </trkpt>
      <trkpt lat="43.17481" lon="2.38101">
        <ele>164.4</ele>
        <time>2019-06-16T07:14:05.000Z</time>
      </trkpt>
      <trkpt lat="43.17479" lon="2.38103">
        <ele>164.3</ele>
        <time>2019-06-16T07:14:06.000Z</time>
      </trkpt>
      <trkpt lat="43.17478" lon="2.38105">
        <ele>164.3</ele>
        <time>2019-06-16T07:14:07.000Z</time>
      </trkpt>
      <trkpt lat="43.17477" lon="2.38108">
        <ele>164.3</ele>
        <time>2019-06-16T07:14:08.000Z</time>
      </trkpt>
      <trkpt lat="43.17476" lon="2.3811">
        <ele>164.3</ele>
        <time>2019-06-16T07:14:09.000Z</time>
      </trkpt>
      <trkpt lat="43.17474" lon="2.38112">
        <ele>164.3</ele>
        <time>2019-06-16T07:14:10.000Z</time>
      </trkpt>
      <trkpt lat="43.17473" lon="2.38113">
        <ele>164.3</ele>
        <time>2019-06-16T07:14:11.000Z</time>
      </trkpt>
      <trkpt lat="43.17471" lon="2.38115">
        <ele>164.3</ele>
        <time>2019-06-16T07:14:12.000Z</time>
      </trkpt>
      <trkpt lat="43.1747" lon="2.38116">
        <ele>164.4</ele>
        <time>2019-06-16T07:14:13.000Z</time>
      </trkpt>
      <trkpt lat="43.17468" lon="2.38117">
        <ele>164.5</ele>
        <time>2019-06-16T07:14:14.000Z</time>
      </trkpt>
      <trkpt lat="43.17466" lon="2.38117">
        <ele>164.6</ele>
        <time>2019-06-16T07:14:15.000Z</time>
      </trkpt>
      <trkpt lat="43.17464" lon="2.38118">
        <ele>164.7</ele>
        <time>2019-06-16T07:14:16.000Z</time>
      </trkpt>
      <trkpt lat="43.17462" lon="2.38118">
        <ele>164.8</ele>
        <time>2019-06-16T07:14:17.000Z</time>
      </trkpt>
      <trkpt lat="43.1746" lon="2.38118">
        <ele>164.9</ele>
        <time>2019-06-16T07:14:18.000Z</time>
      </trkpt>
      <trkpt lat="43.17458" lon="2.38118">
        <ele>165.1</ele>
        <time>2019-06-16T07:14:19.000Z</time>
      </trkpt>
      <trkpt lat="43.17456" lon="2.38118">
        <ele>165.2</ele>
        <time>2019-06-16T07:14:20.000Z</time>
      </trkpt>
      <trkpt lat="43.17454" lon="2.38118">
        <ele>165.3</ele>
        <time>2019-06-16T07:14:21.000Z</time>
      </trkpt>
      <trkpt lat="43.17453" lon="2.38118">
        <ele>165.4</ele>
        <time>2019-06-16T07:14:22.000Z</time>
      </trkpt>
      <trkpt lat="43.17451" lon="2.38118">
        <ele>165.5</ele>
        <time>2019-06-16T07:14:23.000Z</time>
      </trkpt>
      <trkpt lat="43.1745" lon="2.38119">
        <ele>165.6</ele>
        <time>2019-06-16T07:14:24.000Z</time>
      </trkpt>
      <trkpt lat="43.17448" lon="2.38119">
        <ele>165.7</ele>
        <time>2019-06-16T07:14:25.000Z</time>
      </trkpt>
      <trkpt lat="43.17447" lon="2.3812">
        <ele>165.7</ele>
        <time>2019-06-16T07:14:26.000Z</time>
      </trkpt>
      <trkpt lat="43.17446" lon="2.3812">
        <ele>165.8</ele>
        <time>2019-06-16T07:14:27.000Z</time>
      </trkpt>
      <trkpt lat="43.17445" lon="2.38121">
        <ele>165.8</ele>
        <time>2019-06-16T07:14:28.000Z</time>
      </trkpt>
      <trkpt lat="43.17444" lon="2.38121">
        <ele>165.9</ele>
        <time>2019-06-16T07:14:29.000Z</time>
      </trkpt>
      <trkpt lat="43.17443" lon="2.38121">
        <ele>165.9</ele>
        <time>2019-06-16T07:14:30.000Z</time>
      </trkpt>
      <trkpt lat="43.17442" lon="2.38122">
        <ele>166</ele>
        <time>2019-06-16T07:14:31.000Z</time>
      </trkpt>
      <trkpt lat="43.17441" lon="2.38122">
        <ele>166</ele>
        <time>2019-06-16T07:14:32.000Z</time>
      </trkpt>
      <trkpt lat="43.17439" lon="2.38123">
        <ele>166.1</ele>
        <time>2019-06-16T07:14:33.000Z</time>
      </trkpt>
      <trkpt lat="43.17438" lon="2.38123">
        <ele>166.1</ele>
        <time>2019-06-16T07:14:34.000Z</time>
      </trkpt>
      <trkpt lat="43.17437" lon="2.38123">
        <ele>166.2</ele>
        <time>2019-06-16T07:14:35.000Z</time>
      </trkpt>
      <trkpt lat="43.17436" lon="2.38124">
        <ele>166.3</ele>
        <time>2019-06-16T07:14:36.000Z</time>
      </trkpt>
      <trkpt lat="43.17436" lon="2.38124">
        <ele>166.3</ele>
        <time>2019-06-16T07:14:37.000Z</time>
      </trkpt>
      <trkpt lat="43.17435" lon="2.38125">
        <ele>166.3</ele>
        <time>2019-06-16T07:14:38.000Z</time>
      </trkpt>
      <trkpt lat="43.17434" lon="2.38125">
        <ele>166.4</ele>
        <time>2019-06-16T07:14:39.000Z</time>
      </trkpt>
      <trkpt lat="43.17433" lon="2.38126">
        <ele>166.4</ele>
        <time>2019-06-16T07:14:40.000Z</time>
      </trkpt>
      <trkpt lat="43.17432" lon="2.38126">
        <ele>166.5</ele>
        <time>2019-06-16T07:14:41.000Z</time>
      </trkpt>
      <trkpt lat="43.17431" lon="2.38127">
        <ele>166.5</ele>
        <time>2019-06-16T07:14:42.000Z</time>
      </trkpt>
      <trkpt lat="43.1743" lon="2.38127">
        <ele>166.5</ele>
        <time>2019-06-16T07:14:43.000Z</time>
      </trkpt>
      <trkpt lat="43.17429" lon="2.38128">
        <ele>166.6</ele>
        <time>2019-06-16T07:14:44.000Z</time>
      </trkpt>
      <trkpt lat="43.17428" lon="2.38128">
        <ele>166.6</ele>
        <time>2019-06-16T07:14:45.000Z</time>
      </trkpt>
      <trkpt lat="43.17427" lon="2.38129">
        <ele>166.7</ele>
        <time>2019-06-16T07:14:46.000Z</time>
      </trkpt>
      <trkpt lat="43.17426" lon="2.3813">
        <ele>166.7</ele>
        <time>2019-06-16T07:14:47.000Z</time>
      </trkpt>
      <trkpt lat="43.17425" lon="2.3813">
        <ele>166.8</ele>
        <time>2019-06-16T07:14:48.000Z</time>
      </trkpt>
      <trkpt lat="43.17424" lon="2.38131">
        <ele>166.8</ele>
        <time>2019-06-16T07:14:49.000Z</time>
      </trkpt>
      <trkpt lat="43.17423" lon="2.38132">
        <ele>166.9</ele>
        <time>2019-06-16T07:14:50.000Z</time>
      </trkpt>
      <trkpt lat="43.17421" lon="2.38132">
        <ele>166.9</ele>
        <time>2019-06-16T07:14:51.000Z</time>
      </trkpt>
      <trkpt lat="43.1742" lon="2.38133">
        <ele>167</ele>
        <time>2019-06-16T07:14:52.000Z</time>
      </trkpt>
      <trkpt lat="43.17419" lon="2.38133">
        <ele>167</ele>
        <time>2019-06-16T07:14:53.000Z</time>
      </trkpt>
      <trkpt lat="43.17418" lon="2.38134">
        <ele>167.1</ele>
        <time>2019-06-16T07:14:54.000Z</time>
      </trkpt>
      <trkpt lat="43.17417" lon="2.38135">
        <ele>167.1</ele>
        <time>2019-06-16T07:14:55.000Z</time>
      </trkpt>
      <trkpt lat="43.17416" lon="2.38136">
        <ele>167.1</ele>
        <time>2019-06-16T07:14:56.000Z</time>
      </trkpt>
      <trkpt lat="43.17415" lon="2.38136">
        <ele>167.2</ele>
        <time>2019-06-16T07:14:57.000Z</time>
      </trkpt>
      <trkpt lat="43.17414" lon="2.38137">
        <ele>167.2</ele>
        <time>2019-06-16T07:14:58.000Z</time>
      </trkpt>
      <trkpt lat="43.17414" lon="2.38138">
        <ele>167.2</ele>
        <time>2019-06-16T07:14:59.000Z</time>
      </trkpt>
      <trkpt lat="43.17413" lon="2.38139">
        <ele>167.2</ele>
        <time>2019-06-16T07:15:00.000Z</time>
      </trkpt>
      <trkpt lat="43.17412" lon="2.38139">
        <ele>167.2</ele>
        <time>2019-06-16T07:15:01.000Z</time>
      </trkpt>
      <trkpt lat="43.17411" lon="2.3814">
        <ele>167.2</ele>
        <time>2019-06-16T07:15:02.000Z</time>
      </trkpt>
      <trkpt lat="43.1741" lon="2.38141">
        <ele>167.2</ele>
        <time>2019-06-16T07:15:03.000Z</time>
      </trkpt>
      <trkpt lat="43.17409" lon="2.38142">
        <ele>167.2</ele>
        <time>2019-06-16T07:15:04.000Z</time>
      </trkpt>
      <trkpt lat="43.17408" lon="2.38143">
        <ele>167.2</ele>
        <time>2019-06-16T07:15:05.000Z</time>
      </trkpt>
      <trkpt lat="43.17407" lon="2.38144">
        <ele>167.2</ele>
        <time>2019-06-16T07:15:06.000Z</time>
      </trkpt>
      <trkpt lat="43.17407" lon="2.38145">
        <ele>167.3</ele>
        <time>2019-06-16T07:15:07.000Z</time>
      </trkpt>
      <trkpt lat="43.17406" lon="2.38146">
        <ele>167.3</ele>
        <time>2019-06-16T07:15:08.000Z</time>
      </trkpt>
      <trkpt lat="43.17405" lon="2.38146">
        <ele>167.3</ele>
        <time>2019-06-16T07:15:09.000Z</time>
      </trkpt>
      <trkpt lat="43.17404" lon="2.38147">
        <ele>167.3</ele>
        <time>2019-06-16T07:15:10.000Z</time>
      </trkpt>
      <trkpt lat="43.17403" lon="2.38148">
        <ele>167.3</ele>
        <time>2019-06-16T07:15:11.000Z</time>
      </trkpt>
      <trkpt lat="43.17402" lon="2.38149">
        <ele>167.3</ele>
        <time>2019-06-16T07:15:12.000Z</time>
      </trkpt>
      <trkpt lat="43.17401" lon="2.3815">
        <ele>167.3</ele>
        <time>2019-06-16T07:15:13.000Z</time>
      </trkpt>
      <trkpt lat="43.174" lon="2.38151">
        <ele>167.3</ele>
        <time>2019-06-16T07:15:14.000Z</time>
      </trkpt>
      <trkpt lat="43.174" lon="2.38152">
        <ele>167.3</ele>
        <time>2019-06-16T07:15:15.000Z</time>
      </trkpt>
      <trkpt lat="43.17399" lon="2.38153">
        <ele>167.3</ele>
        <time>2019-06-16T07:15:16.000Z</time>
      </trkpt>
      <trkpt lat="43.17398" lon="2.38153">
        <ele>167.3</ele>
        <time>2019-06-16T07:15:17.000Z</time>
      </trkpt>
      <trkpt lat="43.17397" lon="2.38154">
        <ele>167.4</ele>
        <time>2019-06-16T07:15:18.000Z</time>
      </trkpt>
      <trkpt lat="43.17396" lon="2.38155">
        <ele>167.4</ele>
        <time>2019-06-16T07:15:19.000Z</time>
      </trkpt>
      <trkpt lat="43.17395" lon="2.38156">
        <ele>167.4</ele>
        <time>2019-06-16T07:15:20.000Z</time>
      </trkpt>
      <trkpt lat="43.17395" lon="2.38156">
        <ele>167.4</ele>
        <time>2019-06-16T07:15:21.000Z</time>
      </trkpt>
      <trkpt lat="43.17394" lon="2.38157">
        <ele>167.4</ele>
        <time>2019-06-16T07:15:22.000Z</time>
      </trkpt>
      <trkpt lat="43.17393" lon="2.38158">
        <ele>167.4</ele>
        <time>2019-06-16T07:15:23.000Z</time>
      </trkpt>
      <trkpt lat="43.17392" lon="2.38158">
        <ele>167.4</ele>
        <time>2019-06-16T07:15:24.000Z</time>
      </trkpt>
      <trkpt lat="43.17392" lon="2.38159">
        <ele>167.4</ele>
        <time>2019-06-16T07:15:25.000Z</time>
      </trkpt>
      <trkpt lat="43.17391" lon="2.3816">
        <ele>167.4</ele>
        <time>2019-06-16T07:15:26.000Z</time>
      </trkpt>
      <trkpt lat="43.1739" lon="2.38161">
        <ele>167.5</ele>
        <time>2019-06-16T07:15:27.000Z</time>
      </trkpt>
      <trkpt lat="43.1739" lon="2.38162">
        <ele>167.5</ele>
        <time>2019-06-16T07:15:28.000Z</time>
      </trkpt>
      <trkpt lat="43.17389" lon="2.38163">
        <ele>167.5</ele>
        <time>2019-06-16T07:15:29.000Z</time>
      </trkpt>
      <trkpt lat="43.17388" lon="2.38163">
        <ele>167.5</ele>
        <time>2019-06-16T07:15:30.000Z</time>
      </trkpt>
      <trkpt lat="43.17388" lon="2.38164">
        <ele>167.5</ele>
        <time>2019-06-16T07:15:31.000Z</time>
      </trkpt>
      <trkpt lat="43.17387" lon="2.38165">
        <ele>167.5</ele>
        <time>2019-06-16T07:15:32.000Z</time>
      </trkpt>
      <trkpt lat="43.17386" lon="2.38166">
        <ele>167.5</ele>
        <time>2019-06-16T07:15:33.000Z</time>
      </trkpt>
      <trkpt lat="43.17385" lon="2.38167">
        <ele>167.5</ele>
        <time>2019-06-16T07:15:34.000Z</time>
      </trkpt>
      <trkpt lat="43.17383" lon="2.38168">
        <ele>167.6</ele>
        <time>2019-06-16T07:15:35.000Z</time>
      </trkpt>
      <trkpt lat="43.17382" lon="2.38169">
        <ele>167.6</ele>
        <time>2019-06-16T07:15:36.000Z</time>
      </trkpt>
      <trkpt lat="43.1738" lon="2.3817">
        <ele>167.6</ele>
        <time>2019-06-16T07:15:37.000Z</time>
      </trkpt>
      <trkpt lat="43.17379" lon="2.38172">
        <ele>167.7</ele>
        <time>2019-06-16T07:15:38.000Z</time>
      </trkpt>
      <trkpt lat="43.17377" lon="2.38173">
        <ele>167.7</ele>
        <time>2019-06-16T07:15:39.000Z</time>
      </trkpt>
      <trkpt lat="43.17375" lon="2.38175">
        <ele>167.8</ele>
        <time>2019-06-16T07:15:40.000Z</time>
      </trkpt>
      <trkpt lat="43.17374" lon="2.38176">
        <ele>167.8</ele>
        <time>2019-06-16T07:15:41.000Z</time>
      </trkpt>
      <trkpt lat="43.17372" lon="2.38178">
        <ele>167.8</ele>
        <time>2019-06-16T07:15:42.000Z</time>
      </trkpt>
      <trkpt lat="43.17371" lon="2.3818">
        <ele>167.8</ele>
        <time>2019-06-16T07:15:43.000Z</time>
      </trkpt>
      <trkpt lat="43.17369" lon="2.38182">
        <ele>167.8</ele>
        <time>2019-06-16T07:15:44.000Z</time>
      </trkpt>
      <trkpt lat="43.17368" lon="2.38183">
        <ele>167.8</ele>
        <time>2019-06-16T07:15:45.000Z</time>
      </trkpt>
      <trkpt lat="43.17366" lon="2.38185">
        <ele>167.9</ele>
        <time>2019-06-16T07:15:46.000Z</time>
      </trkpt>
      <trkpt lat="43.17364" lon="2.38186">
        <ele>167.9</ele>
        <time>2019-06-16T07:15:47.000Z</time>
      </trkpt>
      <trkpt lat="43.17362" lon="2.38186">
        <ele>168</ele>
        <time>2019-06-16T07:15:48.000Z</time>
      </trkpt>
      <trkpt lat="43.1736" lon="2.38187">
        <ele>168.1</ele>
        <time>2019-06-16T07:15:49.000Z</time>
      </trkpt>
      <trkpt lat="43.17358" lon="2.38187">
        <ele>168.2</ele>
        <time>2019-06-16T07:15:50.000Z</time>
      </trkpt>
      <trkpt lat="43.17355" lon="2.38187">
        <ele>168.3</ele>
        <time>2019-06-16T07:15:51.000Z</time>
      </trkpt>
      <trkpt lat="43.17353" lon="2.38186">
        <ele>168.4</ele>
        <time>2019-06-16T07:15:52.000Z</time>
      </trkpt>
      <trkpt lat="43.17351" lon="2.38186">
        <ele>168.5</ele>
        <time>2019-06-16T07:15:53.000Z</time>
      </trkpt>
      <trkpt lat="43.17349" lon="2.38185">
        <ele>168.7</ele>
        <time>2019-06-16T07:15:54.000Z</time>
      </trkpt>
      <trkpt lat="43.17347" lon="2.38183">
        <ele>168.8</ele>
        <time>2019-06-16T07:15:55.000Z</time>
      </trkpt>
      <trkpt lat="43.17345" lon="2.38182">
        <ele>168.9</ele>
        <time>2019-06-16T07:15:56.000Z</time>
      </trkpt>
      <trkpt lat="43.17343" lon="2.38181">
        <ele>169</ele>
        <time>2019-06-16T07:15:57.000Z</time>
      </trkpt>
      <trkpt lat="43.17342" lon="2.38179">
        <ele>169.2</ele>
        <time>2019-06-16T07:15:58.000Z</time>
      </trkpt>
      <trkpt lat="43.1734" lon="2.38177">
        <ele>169.3</ele>
        <time>2019-06-16T07:15:59.000Z</time>
      </trkpt>
      <trkpt lat="43.17339" lon="2.38176">
        <ele>169.4</ele>
        <time>2019-06-16T07:16:00.000Z</time>
      </trkpt>
      <trkpt lat="43.17338" lon="2.38174">
        <ele>169.5</ele>
        <time>2019-06-16T07:16:01.000Z</time>
      </trkpt>
      <trkpt lat="43.17336" lon="2.38172">
        <ele>169.7</ele>
        <time>2019-06-16T07:16:02.000Z</time>
      </trkpt>
      <trkpt lat="43.17334" lon="2.38171">
        <ele>169.8</ele>
        <time>2019-06-16T07:16:03.000Z</time>
      </trkpt>
      <trkpt lat="43.17332" lon="2.3817">
        <ele>169.9</ele>
        <time>2019-06-16T07:16:04.000Z</time>
      </trkpt>
      <trkpt lat="43.1733" lon="2.38168">
        <ele>170.1</ele>
        <time>2019-06-16T07:16:05.000Z</time>
      </trkpt>
      <trkpt lat="43.17328" lon="2.38167">
        <ele>170.2</ele>
        <time>2019-06-16T07:16:06.000Z</time>
      </trkpt>
      <trkpt lat="43.17326" lon="2.38166">
        <ele>170.3</ele>
        <time>2019-06-16T07:16:07.000Z</time>
      </trkpt>
      <trkpt lat="43.17324" lon="2.38165">
        <ele>170.4</ele>
        <time>2019-06-16T07:16:08.000Z</time>
      </trkpt>
      <trkpt lat="43.17321" lon="2.38164">
        <ele>170.5</ele>
        <time>2019-06-16T07:16:09.000Z</time>
      </trkpt>
      <trkpt lat="43.17319" lon="2.38163">
        <ele>170.6</ele>
        <time>2019-06-16T07:16:10.000Z</time>
      </trkpt>
      <trkpt lat="43.17317" lon="2.38162">
        <ele>170.7</ele>
        <time>2019-06-16T07:16:11.000Z</time>
      </trkpt>
      <trkpt lat="43.17315" lon="2.3816">
        <ele>170.8</ele>
        <time>2019-06-16T07:16:12.000Z</time>
      </trkpt>
      <trkpt lat="43.17313" lon="2.38159">
        <ele>170.9</ele>
        <time>2019-06-16T07:16:13.000Z</time>
      </trkpt>
      <trkpt lat="43.17311" lon="2.38157">
        <ele>171.1</ele>
        <time>2019-06-16T07:16:14.000Z</time>
      </trkpt>
      <trkpt lat="43.17309" lon="2.38156">
        <ele>171.2</ele>
        <time>2019-06-16T07:16:15.000Z</time>
      </trkpt>
      <trkpt lat="43.17307" lon="2.38154">
        <ele>171.3</ele>
        <time>2019-06-16T07:16:16.000Z</time>
      </trkpt>
      <trkpt lat="43.17305" lon="2.38153">
        <ele>171.4</ele>
        <time>2019-06-16T07:16:17.000Z</time>
      </trkpt>
      <trkpt lat="43.17303" lon="2.38151">
        <ele>171.5</ele>
        <time>2019-06-16T07:16:18.000Z</time>
      </trkpt>
      <trkpt lat="43.17301" lon="2.3815">
        <ele>171.6</ele>
        <time>2019-06-16T07:16:19.000Z</time>
      </trkpt>
      <trkpt lat="43.17299" lon="2.38149">
        <ele>171.7</ele>
        <time>2019-06-16T07:16:20.000Z</time>
      </trkpt>
      <trkpt lat="43.17297" lon="2.38148">
        <ele>171.8</ele>
        <time>2019-06-16T07:16:21.000Z</time>
      </trkpt>
      <trkpt lat="43.17295" lon="2.38147">
        <ele>172</ele>
        <time>2019-06-16T07:16:22.000Z</time>
      </trkpt>
      <trkpt lat="43.17293" lon="2.38146">
        <ele>172.1</ele>
        <time>2019-06-16T07:16:23.000Z</time>
      </trkpt>
      <trkpt lat="43.17291" lon="2.38145">
        <ele>172.2</ele>
        <time>2019-06-16T07:16:24.000Z</time>
      </trkpt>
      <trkpt lat="43.17289" lon="2.38144">
        <ele>172.3</ele>
        <time>2019-06-16T07:16:25.000Z</time>
      </trkpt>
      <trkpt lat="43.17286" lon="2.38144">
        <ele>172.4</ele>
        <time>2019-06-16T07:16:26.000Z</time>
      </trkpt>
      <trkpt lat="43.17284" lon="2.38143">
        <ele>172.5</ele>
        <time>2019-06-16T07:16:27.000Z</time>
      </trkpt>
      <trkpt lat="43.17282" lon="2.38143">
        <ele>172.6</ele>
        <time>2019-06-16T07:16:28.000Z</time>
      </trkpt>
      <trkpt lat="43.1728" lon="2.38142">
        <ele>172.7</ele>
        <time>2019-06-16T07:16:29.000Z</time>
      </trkpt>
      <trkpt lat="43.17277" lon="2.38141">
        <ele>172.8</ele>
        <time>2019-06-16T07:16:30.000Z</time>
      </trkpt>
      <trkpt lat="43.17275" lon="2.38141">
        <ele>172.9</ele>
        <time>2019-06-16T07:16:31.000Z</time>
      </trkpt>
      <trkpt lat="43.17273" lon="2.3814">
        <ele>173</ele>
        <time>2019-06-16T07:16:32.000Z</time>
      </trkpt>
      <trkpt lat="43.17271" lon="2.3814">
        <ele>173.1</ele>
        <time>2019-06-16T07:16:33.000Z</time>
      </trkpt>
      <trkpt lat="43.17268" lon="2.38139">
        <ele>173.3</ele>
        <time>2019-06-16T07:16:34.000Z</time>
      </trkpt>
      <trkpt lat="43.17266" lon="2.38139">
        <ele>173.4</ele>
        <time>2019-06-16T07:16:35.000Z</time>
      </trkpt>
      <trkpt lat="43.17264" lon="2.38138">
        <ele>173.5</ele>
        <time>2019-06-16T07:16:36.000Z</time>
      </trkpt>
      <trkpt lat="43.17262" lon="2.38137">
        <ele>173.6</ele>
        <time>2019-06-16T07:16:37.000Z</time>
      </trkpt>
      <trkpt lat="43.1726" lon="2.38137">
        <ele>173.7</ele>
        <time>2019-06-16T07:16:38.000Z</time>
      </trkpt>
      <trkpt lat="43.17257" lon="2.38136">
        <ele>173.8</ele>
        <time>2019-06-16T07:16:39.000Z</time>
      </trkpt>
      <trkpt lat="43.17255" lon="2.38135">
        <ele>173.9</ele>
        <time>2019-06-16T07:16:40.000Z</time>
      </trkpt>
      <trkpt lat="43.17253" lon="2.38135">
        <ele>174</ele>
        <time>2019-06-16T07:16:41.000Z</time>
      </trkpt>
      <trkpt lat="43.17251" lon="2.38134">
        <ele>174.1</ele>
        <time>2019-06-16T07:16:42.000Z</time>
      </trkpt>
      <trkpt lat="43.17249" lon="2.38133">
        <ele>174.2</ele>
        <time>2019-06-16T07:16:43.000Z</time>
      </trkpt>
      <trkpt lat="43.17247" lon="2.38133">
        <ele>174.3</ele>
        <time>2019-06-16T07:16:44.000Z</time>
      </trkpt>
      <trkpt lat="43.17245" lon="2.38132">
        <ele>174.4</ele>
        <time>2019-06-16T07:16:45.000Z</time>
      </trkpt>
      <trkpt lat="43.17243" lon="2.38131">
        <ele>174.5</ele>
        <time>2019-06-16T07:16:46.000Z</time>
      </trkpt>
      <trkpt lat="43.17241" lon="2.3813">
        <ele>174.6</ele>
        <time>2019-06-16T07:16:47.000Z</time>
      </trkpt>
      <trkpt lat="43.17239" lon="2.38129">
        <ele>174.7</ele>
        <time>2019-06-16T07:16:48.000Z</time>
      </trkpt>
      <trkpt lat="43.17237" lon="2.38129">
        <ele>174.8</ele>
        <time>2019-06-16T07:16:49.000Z</time>
      </trkpt>
      <trkpt lat="43.17235" lon="2.38128">
        <ele>174.9</ele>
        <time>2019-06-16T07:16:50.000Z</time>
      </trkpt>
      <trkpt lat="43.17233" lon="2.38127">
        <ele>175</ele>
        <time>2019-06-16T07:16:51.000Z</time>
      </trkpt>
      <trkpt lat="43.1723" lon="2.38126">
        <ele>175.1</ele>
        <time>2019-06-16T07:16:52.000Z</time>
      </trkpt>
      <trkpt lat="43.17228" lon="2.38125">
        <ele>175.1</ele>
        <time>2019-06-16T07:16:53.000Z</time>
      </trkpt>
      <trkpt lat="43.17226" lon="2.38124">
        <ele>175.2</ele>
        <time>2019-06-16T07:16:54.000Z</time>
      </trkpt>
      <trkpt lat="43.17224" lon="2.38123">
        <ele>175.3</ele>
        <time>2019-06-16T07:16:55.000Z</time>
      </trkpt>
      <trkpt lat="43.17222" lon="2.38123">
        <ele>175.4</ele>
        <time>2019-06-16T07:16:56.000Z</time>
      </trkpt>
      <trkpt lat="43.1722" lon="2.38122">
        <ele>175.5</ele>
        <time>2019-06-16T07:16:57.000Z</time>
      </trkpt>
      <trkpt lat="43.17218" lon="2.38121">
        <ele>175.6</ele>
        <time>2019-06-16T07:16:58.000Z</time>
      </trkpt>
      <trkpt lat="43.17216" lon="2.3812">
        <ele>175.7</ele>
        <time>2019-06-16T07:16:59.000Z</time>
      </trkpt>
      <trkpt lat="43.17214" lon="2.38119">
        <ele>175.8</ele>
        <time>2019-06-16T07:17:00.000Z</time>
      </trkpt>
      <trkpt lat="43.17212" lon="2.38118">
        <ele>175.9</ele>
        <time>2019-06-16T07:17:01.000Z</time>
      </trkpt>
      <trkpt lat="43.1721" lon="2.38118">
        <ele>175.9</ele>
        <time>2019-06-16T07:17:02.000Z</time>
      </trkpt>
      <trkpt lat="43.17208" lon="2.38117">
        <ele>176</ele>
        <time>2019-06-16T07:17:03.000Z</time>
      </trkpt>
      <trkpt lat="43.17206" lon="2.38118">
        <ele>176.1</ele>
        <time>2019-06-16T07:17:04.000Z</time>
      </trkpt>
      <trkpt lat="43.17204" lon="2.38118">
        <ele>176.1</ele>
        <time>2019-06-16T07:17:05.000Z</time>
      </trkpt>
      <trkpt lat="43.17203" lon="2.38119">
        <ele>176.1</ele>
        <time>2019-06-16T07:17:06.000Z</time>
      </trkpt>
      <trkpt lat="43.17201" lon="2.3812">
        <ele>176.1</ele>
        <time>2019-06-16T07:17:07.000Z</time>
      </trkpt>
      <trkpt lat="43.172" lon="2.38122">
        <ele>176.1</ele>
        <time>2019-06-16T07:17:08.000Z</time>
      </trkpt>
      <trkpt lat="43.17199" lon="2.38125">
        <ele>176</ele>
        <time>2019-06-16T07:17:09.000Z</time>
      </trkpt>
      <trkpt lat="43.17198" lon="2.38127">
        <ele>176</ele>
        <time>2019-06-16T07:17:10.000Z</time>
      </trkpt>
      <trkpt lat="43.17197" lon="2.3813">
        <ele>175.9</ele>
        <time>2019-06-16T07:17:11.000Z</time>
      </trkpt>
      <trkpt lat="43.17196" lon="2.38133">
        <ele>175.9</ele>
        <time>2019-06-16T07:17:12.000Z</time>
      </trkpt>
      <trkpt lat="43.17195" lon="2.38136">
        <ele>175.8</ele>
        <time>2019-06-16T07:17:13.000Z</time>
      </trkpt>
      <trkpt lat="43.17195" lon="2.38139">
        <ele>175.8</ele>
        <time>2019-06-16T07:17:14.000Z</time>
      </trkpt>
      <trkpt lat="43.17194" lon="2.38143">
        <ele>175.7</ele>
        <time>2019-06-16T07:17:15.000Z</time>
      </trkpt>
      <trkpt lat="43.17193" lon="2.38146">
        <ele>175.7</ele>
        <time>2019-06-16T07:17:16.000Z</time>
      </trkpt>
      <trkpt lat="43.17191" lon="2.38148">
        <ele>175.6</ele>
        <time>2019-06-16T07:17:17.000Z</time>
      </trkpt>
      <trkpt lat="43.1719" lon="2.38151">
        <ele>175.6</ele>
        <time>2019-06-16T07:17:18.000Z</time>
      </trkpt>
      <trkpt lat="43.17189" lon="2.38154">
        <ele>175.5</ele>
        <time>2019-06-16T07:17:19.000Z</time>
      </trkpt>
      <trkpt lat="43.17188" lon="2.38157">
        <ele>175.5</ele>
        <time>2019-06-16T07:17:20.000Z</time>
      </trkpt>
      <trkpt lat="43.17187" lon="2.3816">
        <ele>175.5</ele>
        <time>2019-06-16T07:17:21.000Z</time>
      </trkpt>
      <trkpt lat="43.17185" lon="2.38163">
        <ele>175.4</ele>
        <time>2019-06-16T07:17:22.000Z</time>
      </trkpt>
      <trkpt lat="43.17184" lon="2.38166">
        <ele>175.4</ele>
        <time>2019-06-16T07:17:23.000Z</time>
      </trkpt>
      <trkpt lat="43.17183" lon="2.38169">
        <ele>175.3</ele>
        <time>2019-06-16T07:17:24.000Z</time>
      </trkpt>
      <trkpt lat="43.17181" lon="2.38172">
        <ele>175.3</ele>
        <time>2019-06-16T07:17:25.000Z</time>
      </trkpt>
      <trkpt lat="43.1718" lon="2.38174">
        <ele>175.2</ele>
        <time>2019-06-16T07:17:26.000Z</time>
      </trkpt>
      <trkpt lat="43.17178" lon="2.38177">
        <ele>175.1</ele>
        <time>2019-06-16T07:17:27.000Z</time>
      </trkpt>
      <trkpt lat="43.17177" lon="2.3818">
        <ele>175</ele>
        <time>2019-06-16T07:17:28.000Z</time>
      </trkpt>
      <trkpt lat="43.17176" lon="2.38183">
        <ele>174.9</ele>
        <time>2019-06-16T07:17:29.000Z</time>
      </trkpt>
      <trkpt lat="43.17174" lon="2.38186">
        <ele>174.8</ele>
        <time>2019-06-16T07:17:30.000Z</time>
      </trkpt>
      <trkpt lat="43.17173" lon="2.38189">
        <ele>174.7</ele>
        <time>2019-06-16T07:17:31.000Z</time>
      </trkpt>
      <trkpt lat="43.17171" lon="2.38192">
        <ele>174.7</ele>
        <time>2019-06-16T07:17:32.000Z</time>
      </trkpt>
      <trkpt lat="43.1717" lon="2.38194">
        <ele>174.6</ele>
        <time>2019-06-16T07:17:33.000Z</time>
      </trkpt>
      <trkpt lat="43.17169" lon="2.38197">
        <ele>174.5</ele>
        <time>2019-06-16T07:17:34.000Z</time>
      </trkpt>
      <trkpt lat="43.17167" lon="2.382">
        <ele>174.4</ele>
        <time>2019-06-16T07:17:35.000Z</time>
      </trkpt>
      <trkpt lat="43.17166" lon="2.38203">
        <ele>174.3</ele>
        <time>2019-06-16T07:17:36.000Z</time>
      </trkpt>
      <trkpt lat="43.17165" lon="2.38206">
        <ele>174.2</ele>
        <time>2019-06-16T07:17:37.000Z</time>
      </trkpt>
      <trkpt lat="43.17163" lon="2.38208">
        <ele>174.1</ele>
        <time>2019-06-16T07:17:38.000Z</time>
      </trkpt>
      <trkpt lat="43.17162" lon="2.38211">
        <ele>174</ele>
        <time>2019-06-16T07:17:39.000Z</time>
      </trkpt>
      <trkpt lat="43.17161" lon="2.38214">
        <ele>173.9</ele>
        <time>2019-06-16T07:17:40.000Z</time>
      </trkpt>
      <trkpt lat="43.17159" lon="2.38217">
        <ele>173.8</ele>
        <time>2019-06-16T07:17:41.000Z</time>
      </trkpt>
      <trkpt lat="43.17158" lon="2.38219">
        <ele>173.7</ele>
        <time>2019-06-16T07:17:42.000Z</time>
      </trkpt>
      <trkpt lat="43.17156" lon="2.38222">
        <ele>173.7</ele>
        <time>2019-06-16T07:17:43.000Z</time>
      </trkpt>
      <trkpt lat="43.17155" lon="2.38225">
        <ele>173.6</ele>
        <time>2019-06-16T07:17:44.000Z</time>
      </trkpt>
      <trkpt lat="43.17154" lon="2.38228">
        <ele>173.5</ele>
        <time>2019-06-16T07:17:45.000Z</time>
      </trkpt>
      <trkpt lat="43.17152" lon="2.3823">
        <ele>173.5</ele>
        <time>2019-06-16T07:17:46.000Z</time>
      </trkpt>
      <trkpt lat="43.17151" lon="2.38233">
        <ele>173.4</ele>
        <time>2019-06-16T07:17:47.000Z</time>
      </trkpt>
      <trkpt lat="43.17149" lon="2.38236">
        <ele>173.4</ele>
        <time>2019-06-16T07:17:48.000Z</time>
      </trkpt>
      <trkpt lat="43.17147" lon="2.38239">
        <ele>173.4</ele>
        <time>2019-06-16T07:17:49.000Z</time>
      </trkpt>
      <trkpt lat="43.17146" lon="2.38242">
        <ele>173.3</ele>
        <time>2019-06-16T07:17:50.000Z</time>
      </trkpt>
      <trkpt lat="43.17144" lon="2.38244">
        <ele>173.3</ele>
        <time>2019-06-16T07:17:51.000Z</time>
      </trkpt>
      <trkpt lat="43.17142" lon="2.38247">
        <ele>173.3</ele>
        <time>2019-06-16T07:17:52.000Z</time>
      </trkpt>
      <trkpt lat="43.1714" lon="2.3825">
        <ele>173.3</ele>
        <time>2019-06-16T07:17:53.000Z</time>
      </trkpt>
      <trkpt lat="43.17139" lon="2.38252">
        <ele>173.3</ele>
        <time>2019-06-16T07:17:54.000Z</time>
      </trkpt>
      <trkpt lat="43.17137" lon="2.38255">
        <ele>173.3</ele>
        <time>2019-06-16T07:17:55.000Z</time>
      </trkpt>
      <trkpt lat="43.17135" lon="2.38257">
        <ele>173.4</ele>
        <time>2019-06-16T07:17:56.000Z</time>
      </trkpt>
      <trkpt lat="43.17133" lon="2.3826">
        <ele>173.4</ele>
        <time>2019-06-16T07:17:57.000Z</time>
      </trkpt>
      <trkpt lat="43.17132" lon="2.38262">
        <ele>173.4</ele>
        <time>2019-06-16T07:17:58.000Z</time>
      </trkpt>
      <trkpt lat="43.1713" lon="2.38265">
        <ele>173.5</ele>
        <time>2019-06-16T07:17:59.000Z</time>
      </trkpt>
      <trkpt lat="43.17128" lon="2.38267">
        <ele>173.5</ele>
        <time>2019-06-16T07:18:00.000Z</time>
      </trkpt>
      <trkpt lat="43.17126" lon="2.3827">
        <ele>173.6</ele>
        <time>2019-06-16T07:18:01.000Z</time>
      </trkpt>
      <trkpt lat="43.17125" lon="2.38272">
        <ele>173.6</ele>
        <time>2019-06-16T07:18:02.000Z</time>
      </trkpt>
      <trkpt lat="43.17123" lon="2.38274">
        <ele>173.7</ele>
        <time>2019-06-16T07:18:03.000Z</time>
      </trkpt>
      <trkpt lat="43.17122" lon="2.38277">
        <ele>173.7</ele>
        <time>2019-06-16T07:18:04.000Z</time>
      </trkpt>
      <trkpt lat="43.1712" lon="2.38279">
        <ele>173.7</ele>
        <time>2019-06-16T07:18:05.000Z</time>
      </trkpt>
      <trkpt lat="43.17118" lon="2.38281">
        <ele>173.8</ele>
        <time>2019-06-16T07:18:06.000Z</time>
      </trkpt>
      <trkpt lat="43.17117" lon="2.38283">
        <ele>173.8</ele>
        <time>2019-06-16T07:18:07.000Z</time>
      </trkpt>
      <trkpt lat="43.17115" lon="2.38285">
        <ele>173.9</ele>
        <time>2019-06-16T07:18:08.000Z</time>
      </trkpt>
      <trkpt lat="43.17114" lon="2.38287">
        <ele>173.9</ele>
        <time>2019-06-16T07:18:09.000Z</time>
      </trkpt>
      <trkpt lat="43.17112" lon="2.38289">
        <ele>174</ele>
        <time>2019-06-16T07:18:10.000Z</time>
      </trkpt>
      <trkpt lat="43.17111" lon="2.38291">
        <ele>174</ele>
        <time>2019-06-16T07:18:11.000Z</time>
      </trkpt>
      <trkpt lat="43.17109" lon="2.38293">
        <ele>174.1</ele>
        <time>2019-06-16T07:18:12.000Z</time>
      </trkpt>
      <trkpt lat="43.17107" lon="2.38295">
        <ele>174.2</ele>
        <time>2019-06-16T07:18:13.000Z</time>
      </trkpt>
      <trkpt lat="43.17105" lon="2.38297">
        <ele>174.2</ele>
        <time>2019-06-16T07:18:14.000Z</time>
      </trkpt>
      <trkpt lat="43.17103" lon="2.38299">
        <ele>174.3</ele>
        <time>2019-06-16T07:18:15.000Z</time>
      </trkpt>
      <trkpt lat="43.17102" lon="2.38301">
        <ele>174.4</ele>
        <time>2019-06-16T07:18:16.000Z</time>
      </trkpt>
      <trkpt lat="43.171" lon="2.38303">
        <ele>174.5</ele>
        <time>2019-06-16T07:18:17.000Z</time>
      </trkpt>
      <trkpt lat="43.17098" lon="2.38305">
        <ele>174.5</ele>
        <time>2019-06-16T07:18:18.000Z</time>
      </trkpt>
      <trkpt lat="43.17096" lon="2.38307">
        <ele>174.6</ele>
        <time>2019-06-16T07:18:19.000Z</time>
      </trkpt>
      <trkpt lat="43.17094" lon="2.38309">
        <ele>174.7</ele>
        <time>2019-06-16T07:18:20.000Z</time>
      </trkpt>
      <trkpt lat="43.17093" lon="2.38311">
        <ele>174.7</ele>
        <time>2019-06-16T07:18:21.000Z</time>
      </trkpt>
      <trkpt lat="43.17091" lon="2.38314">
        <ele>174.8</ele>
        <time>2019-06-16T07:18:22.000Z</time>
      </trkpt>
      <trkpt lat="43.1709" lon="2.38316">
        <ele>174.8</ele>
        <time>2019-06-16T07:18:23.000Z</time>
      </trkpt>
      <trkpt lat="43.1709" lon="2.38317">
        <ele>174.8</ele>
        <time>2019-06-16T07:18:24.000Z</time>
      </trkpt>
      <trkpt lat="43.17089" lon="2.38319">
        <ele>174.9</ele>
        <time>2019-06-16T07:18:25.000Z</time>
      </trkpt>
      <trkpt lat="43.17088" lon="2.38321">
        <ele>174.9</ele>
        <time>2019-06-16T07:18:26.000Z</time>
      </trkpt>
      <trkpt lat="43.17087" lon="2.38323">
        <ele>174.9</ele>
        <time>2019-06-16T07:18:27.000Z</time>
      </trkpt>
      <trkpt lat="43.17087" lon="2.38325">
        <ele>174.9</ele>
        <time>2019-06-16T07:18:28.000Z</time>
      </trkpt>
      <trkpt lat="43.17086" lon="2.38326">
        <ele>174.9</ele>
        <time>2019-06-16T07:18:29.000Z</time>
      </trkpt>
      <trkpt lat="43.17086" lon="2.38328">
        <ele>174.9</ele>
        <time>2019-06-16T07:18:30.000Z</time>
      </trkpt>
      <trkpt lat="43.17085" lon="2.3833">
        <ele>174.9</ele>
        <time>2019-06-16T07:18:31.000Z</time>
      </trkpt>
      <trkpt lat="43.17085" lon="2.38331">
        <ele>174.9</ele>
        <time>2019-06-16T07:18:32.000Z</time>
      </trkpt>
      <trkpt lat="43.17084" lon="2.38333">
        <ele>175</ele>
        <time>2019-06-16T07:18:33.000Z</time>
      </trkpt>
      <trkpt lat="43.17084" lon="2.38334">
        <ele>175</ele>
        <time>2019-06-16T07:18:34.000Z</time>
      </trkpt>
      <trkpt lat="43.17083" lon="2.38336">
        <ele>174.9</ele>
        <time>2019-06-16T07:18:35.000Z</time>
      </trkpt>
      <trkpt lat="43.17083" lon="2.38337">
        <ele>174.9</ele>
        <time>2019-06-16T07:18:36.000Z</time>
      </trkpt>
      <trkpt lat="43.17083" lon="2.38338">
        <ele>174.9</ele>
        <time>2019-06-16T07:18:37.000Z</time>
      </trkpt>
      <trkpt lat="43.17082" lon="2.3834">
        <ele>174.9</ele>
        <time>2019-06-16T07:18:38.000Z</time>
      </trkpt>
      <trkpt lat="43.17082" lon="2.38341">
        <ele>174.9</ele>
        <time>2019-06-16T07:18:39.000Z</time>
      </trkpt>
      <trkpt lat="43.17082" lon="2.38342">
        <ele>174.9</ele>
        <time>2019-06-16T07:18:40.000Z</time>
      </trkpt>
      <trkpt lat="43.17081" lon="2.38343">
        <ele>174.9</ele>
        <time>2019-06-16T07:18:41.000Z</time>
      </trkpt>
      <trkpt lat="43.17081" lon="2.38345">
        <ele>174.9</ele>
        <time>2019-06-16T07:18:42.000Z</time>
      </trkpt>
      <trkpt lat="43.1708" lon="2.38346">
        <ele>174.9</ele>
        <time>2019-06-16T07:18:43.000Z</time>
      </trkpt>
      <trkpt lat="43.1708" lon="2.38347">
        <ele>174.9</ele>
        <time>2019-06-16T07:18:44.000Z</time>
      </trkpt>
      <trkpt lat="43.17079" lon="2.38348">
        <ele>174.9</ele>
        <time>2019-06-16T07:18:45.000Z</time>
      </trkpt>
      <trkpt lat="43.17079" lon="2.38349">
        <ele>174.9</ele>
        <time>2019-06-16T07:18:46.000Z</time>
      </trkpt>
      <trkpt lat="43.17078" lon="2.3835">
        <ele>174.9</ele>
        <time>2019-06-16T07:18:47.000Z</time>
      </trkpt>
      <trkpt lat="43.17078" lon="2.38351">
        <ele>174.9</ele>
        <time>2019-06-16T07:18:48.000Z</time>
      </trkpt>
      <trkpt lat="43.17077" lon="2.38352">
        <ele>174.9</ele>
        <time>2019-06-16T07:18:49.000Z</time>
      </trkpt>
      <trkpt lat="43.17077" lon="2.38353">
        <ele>174.9</ele>
        <time>2019-06-16T07:18:50.000Z</time>
      </trkpt>
      <trkpt lat="43.17077" lon="2.38354">
        <ele>174.9</ele>
        <time>2019-06-16T07:18:51.000Z</time>
      </trkpt>
      <trkpt lat="43.17076" lon="2.38356">
        <ele>174.9</ele>
        <time>2019-06-16T07:18:52.000Z</time>
      </trkpt>
      <trkpt lat="43.17076" lon="2.38357">
        <ele>174.9</ele>
        <time>2019-06-16T07:18:53.000Z</time>
      </trkpt>
      <trkpt lat="43.17075" lon="2.38358">
        <ele>174.9</ele>
        <time>2019-06-16T07:18:54.000Z</time>
      </trkpt>
      <trkpt lat="43.17075" lon="2.38359">
        <ele>174.9</ele>
        <time>2019-06-16T07:18:55.000Z</time>
      </trkpt>
      <trkpt lat="43.17075" lon="2.38361">
        <ele>174.9</ele>
        <time>2019-06-16T07:18:56.000Z</time>
      </trkpt>
      <trkpt lat="43.17074" lon="2.38362">
        <ele>174.9</ele>
        <time>2019-06-16T07:18:57.000Z</time>
      </trkpt>
      <trkpt lat="43.17074" lon="2.38363">
        <ele>174.9</ele>
        <time>2019-06-16T07:18:58.000Z</time>
      </trkpt>
      <trkpt lat="43.17074" lon="2.38365">
        <ele>174.8</ele>
        <time>2019-06-16T07:18:59.000Z</time>
      </trkpt>
      <trkpt lat="43.17074" lon="2.38366">
        <ele>174.8</ele>
        <time>2019-06-16T07:19:00.000Z</time>
      </trkpt>
      <trkpt lat="43.17073" lon="2.38368">
        <ele>174.8</ele>
        <time>2019-06-16T07:19:01.000Z</time>
      </trkpt>
      <trkpt lat="43.17073" lon="2.38369">
        <ele>174.8</ele>
        <time>2019-06-16T07:19:02.000Z</time>
      </trkpt>
      <trkpt lat="43.17073" lon="2.38371">
        <ele>174.7</ele>
        <time>2019-06-16T07:19:03.000Z</time>
      </trkpt>
      <trkpt lat="43.17073" lon="2.38372">
        <ele>174.7</ele>
        <time>2019-06-16T07:19:04.000Z</time>
      </trkpt>
      <trkpt lat="43.17073" lon="2.38374">
        <ele>174.7</ele>
        <time>2019-06-16T07:19:05.000Z</time>
      </trkpt>
      <trkpt lat="43.17073" lon="2.38375">
        <ele>174.6</ele>
        <time>2019-06-16T07:19:06.000Z</time>
      </trkpt>
      <trkpt lat="43.17073" lon="2.38376">
        <ele>174.6</ele>
        <time>2019-06-16T07:19:07.000Z</time>
      </trkpt>
      <trkpt lat="43.17073" lon="2.38377">
        <ele>174.6</ele>
        <time>2019-06-16T07:19:08.000Z</time>
      </trkpt>
      <trkpt lat="43.17073" lon="2.38379">
        <ele>174.5</ele>
        <time>2019-06-16T07:19:09.000Z</time>
      </trkpt>
      <trkpt lat="43.17073" lon="2.38379">
        <ele>174.5</ele>
        <time>2019-06-16T07:19:10.000Z</time>
      </trkpt>
      <trkpt lat="43.17073" lon="2.3838">
        <ele>174.5</ele>
        <time>2019-06-16T07:19:11.000Z</time>
      </trkpt>
      <trkpt lat="43.17073" lon="2.38381">
        <ele>174.5</ele>
        <time>2019-06-16T07:19:12.000Z</time>
      </trkpt>
      <trkpt lat="43.17072" lon="2.38381">
        <ele>174.5</ele>
        <time>2019-06-16T07:19:13.000Z</time>
      </trkpt>
      <trkpt lat="43.17072" lon="2.38382">
        <ele>174.5</ele>
        <time>2019-06-16T07:19:14.000Z</time>
      </trkpt>
      <trkpt lat="43.17072" lon="2.38382">
        <ele>174.5</ele>
        <time>2019-06-16T07:19:15.000Z</time>
      </trkpt>
      <trkpt lat="43.17072" lon="2.38382">
        <ele>174.5</ele>
        <time>2019-06-16T07:19:16.000Z</time>
      </trkpt>
      <trkpt lat="43.17072" lon="2.38382">
        <ele>174.5</ele>
        <time>2019-06-16T07:19:17.000Z</time>
      </trkpt>
      <trkpt lat="43.17072" lon="2.38382">
        <ele>174.5</ele>
        <time>2019-06-16T07:19:18.000Z</time>
      </trkpt>
      <trkpt lat="43.17072" lon="2.38382">
        <ele>174.5</ele>
        <time>2019-06-16T07:19:19.000Z</time>
      </trkpt>
      <trkpt lat="43.17072" lon="2.38382">
        <ele>174.5</ele>
        <time>2019-06-16T07:19:20.000Z</time>
      </trkpt>
      <trkpt lat="43.17072" lon="2.38382">
        <ele>174.5</ele>
        <time>2019-06-16T07:19:21.000Z</time>
      </trkpt>
      <trkpt lat="43.17072" lon="2.38382">
        <ele>174.5</ele>
        <time>2019-06-16T07:19:22.000Z</time>
      </trkpt>
      <trkpt lat="43.17072" lon="2.38382">
        <ele>174.5</ele>
        <time>2019-06-16T07:19:23.000Z</time>
      </trkpt>
      <trkpt lat="43.17072" lon="2.38383">
        <ele>174.5</ele>
        <time>2019-06-16T07:19:24.000Z</time>
      </trkpt>
      <trkpt lat="43.17072" lon="2.38384">
        <ele>174.4</ele>
        <time>2019-06-16T07:19:25.000Z</time>
      </trkpt>
      <trkpt lat="43.17072" lon="2.38385">
        <ele>174.4</ele>
        <time>2019-06-16T07:19:26.000Z</time>
      </trkpt>
      <trkpt lat="43.17072" lon="2.38386">
        <ele>174.4</ele>
        <time>2019-06-16T07:19:27.000Z</time>
      </trkpt>
      <trkpt lat="43.17072" lon="2.38387">
        <ele>174.3</ele>
        <time>2019-06-16T07:19:28.000Z</time>
      </trkpt>
      <trkpt lat="43.17072" lon="2.38388">
        <ele>174.3</ele>
        <time>2019-06-16T07:19:29.000Z</time>
      </trkpt>
      <trkpt lat="43.17072" lon="2.3839">
        <ele>174.3</ele>
        <time>2019-06-16T07:19:30.000Z</time>
      </trkpt>
      <trkpt lat="43.17072" lon="2.38391">
        <ele>174.2</ele>
        <time>2019-06-16T07:19:31.000Z</time>
      </trkpt>
      <trkpt lat="43.17072" lon="2.38392">
        <ele>174.2</ele>
        <time>2019-06-16T07:19:32.000Z</time>
      </trkpt>
      <trkpt lat="43.17072" lon="2.38393">
        <ele>174.2</ele>
        <time>2019-06-16T07:19:33.000Z</time>
      </trkpt>
      <trkpt lat="43.17072" lon="2.38395">
        <ele>174.1</ele>
        <time>2019-06-16T07:19:34.000Z</time>
      </trkpt>
      <trkpt lat="43.17072" lon="2.38396">
        <ele>174.1</ele>
        <time>2019-06-16T07:19:35.000Z</time>
      </trkpt>
      <trkpt lat="43.17073" lon="2.38398">
        <ele>174</ele>
        <time>2019-06-16T07:19:36.000Z</time>
      </trkpt>
      <trkpt lat="43.17073" lon="2.384">
        <ele>174</ele>
        <time>2019-06-16T07:19:37.000Z</time>
      </trkpt>
      <trkpt lat="43.17073" lon="2.38402">
        <ele>173.9</ele>
        <time>2019-06-16T07:19:38.000Z</time>
      </trkpt>
      <trkpt lat="43.17073" lon="2.38403">
        <ele>173.9</ele>
        <time>2019-06-16T07:19:39.000Z</time>
      </trkpt>
      <trkpt lat="43.17073" lon="2.38405">
        <ele>173.8</ele>
        <time>2019-06-16T07:19:40.000Z</time>
      </trkpt>
      <trkpt lat="43.17073" lon="2.38407">
        <ele>173.8</ele>
        <time>2019-06-16T07:19:41.000Z</time>
      </trkpt>
      <trkpt lat="43.17073" lon="2.38408">
        <ele>173.7</ele>
        <time>2019-06-16T07:19:42.000Z</time>
      </trkpt>
      <trkpt lat="43.17074" lon="2.3841">
        <ele>173.6</ele>
        <time>2019-06-16T07:19:43.000Z</time>
      </trkpt>
      <trkpt lat="43.17074" lon="2.38411">
        <ele>173.6</ele>
        <time>2019-06-16T07:19:44.000Z</time>
      </trkpt>
      <trkpt lat="43.17075" lon="2.38412">
        <ele>173.5</ele>
        <time>2019-06-16T07:19:45.000Z</time>
      </trkpt>
      <trkpt lat="43.17075" lon="2.38414">
        <ele>173.5</ele>
        <time>2019-06-16T07:19:46.000Z</time>
      </trkpt>
      <trkpt lat="43.17075" lon="2.38416">
        <ele>173.4</ele>
        <time>2019-06-16T07:19:47.000Z</time>
      </trkpt>
      <trkpt lat="43.17075" lon="2.38418">
        <ele>173.4</ele>
        <time>2019-06-16T07:19:48.000Z</time>
      </trkpt>
      <trkpt lat="43.17075" lon="2.3842">
        <ele>173.3</ele>
        <time>2019-06-16T07:19:49.000Z</time>
      </trkpt>
      <trkpt lat="43.17075" lon="2.38423">
        <ele>173.3</ele>
        <time>2019-06-16T07:19:50.000Z</time>
      </trkpt>
      <trkpt lat="43.17075" lon="2.38426">
        <ele>173.3</ele>
        <time>2019-06-16T07:19:51.000Z</time>
      </trkpt>
      <trkpt lat="43.17075" lon="2.38428">
        <ele>173.2</ele>
        <time>2019-06-16T07:19:52.000Z</time>
      </trkpt>
      <trkpt lat="43.17075" lon="2.3843">
        <ele>173.2</ele>
        <time>2019-06-16T07:19:53.000Z</time>
      </trkpt>
      <trkpt lat="43.17075" lon="2.38432">
        <ele>173.2</ele>
        <time>2019-06-16T07:19:54.000Z</time>
      </trkpt>
      <trkpt lat="43.17075" lon="2.38434">
        <ele>173.1</ele>
        <time>2019-06-16T07:19:55.000Z</time>
      </trkpt>
      <trkpt lat="43.17075" lon="2.38435">
        <ele>173.1</ele>
        <time>2019-06-16T07:19:56.000Z</time>
      </trkpt>
      <trkpt lat="43.17076" lon="2.38437">
        <ele>173.1</ele>
        <time>2019-06-16T07:19:57.000Z</time>
      </trkpt>
      <trkpt lat="43.17076" lon="2.38439">
        <ele>173</ele>
        <time>2019-06-16T07:19:58.000Z</time>
      </trkpt>
      <trkpt lat="43.17076" lon="2.38441">
        <ele>173</ele>
        <time>2019-06-16T07:19:59.000Z</time>
      </trkpt>
      <trkpt lat="43.17076" lon="2.38443">
        <ele>173</ele>
        <time>2019-06-16T07:20:00.000Z</time>
      </trkpt>
      <trkpt lat="43.17077" lon="2.38446">
        <ele>172.9</ele>
        <time>2019-06-16T07:20:01.000Z</time>
      </trkpt>
      <trkpt lat="43.17077" lon="2.38448">
        <ele>172.9</ele>
        <time>2019-06-16T07:20:02.000Z</time>
      </trkpt>
      <trkpt lat="43.17077" lon="2.38451">
        <ele>172.8</ele>
        <time>2019-06-16T07:20:03.000Z</time>
      </trkpt>
      <trkpt lat="43.17077" lon="2.38453">
        <ele>172.8</ele>
        <time>2019-06-16T07:20:04.000Z</time>
      </trkpt>
      <trkpt lat="43.17078" lon="2.38456">
        <ele>172.7</ele>
        <time>2019-06-16T07:20:05.000Z</time>
      </trkpt>
      <trkpt lat="43.17078" lon="2.38459">
        <ele>172.7</ele>
        <time>2019-06-16T07:20:06.000Z</time>
      </trkpt>
      <trkpt lat="43.17078" lon="2.38462">
        <ele>172.6</ele>
        <time>2019-06-16T07:20:07.000Z</time>
      </trkpt>
      <trkpt lat="43.17078" lon="2.38464">
        <ele>172.6</ele>
        <time>2019-06-16T07:20:08.000Z</time>
      </trkpt>
      <trkpt lat="43.17079" lon="2.38467">
        <ele>172.6</ele>
        <time>2019-06-16T07:20:09.000Z</time>
      </trkpt>
      <trkpt lat="43.17079" lon="2.3847">
        <ele>172.5</ele>
        <time>2019-06-16T07:20:10.000Z</time>
      </trkpt>
      <trkpt lat="43.17079" lon="2.38473">
        <ele>172.5</ele>
        <time>2019-06-16T07:20:11.000Z</time>
      </trkpt>
      <trkpt lat="43.17079" lon="2.38476">
        <ele>172.4</ele>
        <time>2019-06-16T07:20:12.000Z</time>
      </trkpt>
      <trkpt lat="43.1708" lon="2.38479">
        <ele>172.4</ele>
        <time>2019-06-16T07:20:13.000Z</time>
      </trkpt>
      <trkpt lat="43.1708" lon="2.38481">
        <ele>172.3</ele>
        <time>2019-06-16T07:20:14.000Z</time>
      </trkpt>
      <trkpt lat="43.1708" lon="2.38484">
        <ele>172.3</ele>
        <time>2019-06-16T07:20:15.000Z</time>
      </trkpt>
      <trkpt lat="43.17081" lon="2.38487">
        <ele>172.2</ele>
        <time>2019-06-16T07:20:16.000Z</time>
      </trkpt>
      <trkpt lat="43.17081" lon="2.3849">
        <ele>172.2</ele>
        <time>2019-06-16T07:20:17.000Z</time>
      </trkpt>
      <trkpt lat="43.17081" lon="2.38493">
        <ele>172.1</ele>
        <time>2019-06-16T07:20:18.000Z</time>
      </trkpt>
      <trkpt lat="43.17082" lon="2.38496">
        <ele>172.1</ele>
        <time>2019-06-16T07:20:19.000Z</time>
      </trkpt>
      <trkpt lat="43.17082" lon="2.38499">
        <ele>172</ele>
        <time>2019-06-16T07:20:20.000Z</time>
      </trkpt>
      <trkpt lat="43.17083" lon="2.38502">
        <ele>172</ele>
        <time>2019-06-16T07:20:21.000Z</time>
      </trkpt>
      <trkpt lat="43.17083" lon="2.38505">
        <ele>172.1</ele>
        <time>2019-06-16T07:20:22.000Z</time>
      </trkpt>
      <trkpt lat="43.17083" lon="2.38508">
        <ele>172.1</ele>
        <time>2019-06-16T07:20:23.000Z</time>
      </trkpt>
      <trkpt lat="43.17084" lon="2.38511">
        <ele>172.1</ele>
        <time>2019-06-16T07:20:24.000Z</time>
      </trkpt>
      <trkpt lat="43.17084" lon="2.38514">
        <ele>172.2</ele>
        <time>2019-06-16T07:20:25.000Z</time>
      </trkpt>
      <trkpt lat="43.17085" lon="2.38517">
        <ele>172.2</ele>
        <time>2019-06-16T07:20:26.000Z</time>
      </trkpt>
      <trkpt lat="43.17085" lon="2.38521">
        <ele>172.3</ele>
        <time>2019-06-16T07:20:27.000Z</time>
      </trkpt>
      <trkpt lat="43.17086" lon="2.38524">
        <ele>172.3</ele>
        <time>2019-06-16T07:20:28.000Z</time>
      </trkpt>
      <trkpt lat="43.17086" lon="2.38528">
        <ele>172.4</ele>
        <time>2019-06-16T07:20:29.000Z</time>
      </trkpt>
      <trkpt lat="43.17087" lon="2.38531">
        <ele>172.4</ele>
        <time>2019-06-16T07:20:30.000Z</time>
      </trkpt>
      <trkpt lat="43.17087" lon="2.38535">
        <ele>172.5</ele>
        <time>2019-06-16T07:20:31.000Z</time>
      </trkpt>
      <trkpt lat="43.17087" lon="2.38538">
        <ele>172.6</ele>
        <time>2019-06-16T07:20:32.000Z</time>
      </trkpt>
      <trkpt lat="43.17088" lon="2.38542">
        <ele>172.6</ele>
        <time>2019-06-16T07:20:33.000Z</time>
      </trkpt>
      <trkpt lat="43.17088" lon="2.38546">
        <ele>172.7</ele>
        <time>2019-06-16T07:20:34.000Z</time>
      </trkpt>
      <trkpt lat="43.17088" lon="2.38549">
        <ele>172.7</ele>
        <time>2019-06-16T07:20:35.000Z</time>
      </trkpt>
      <trkpt lat="43.17089" lon="2.38553">
        <ele>172.8</ele>
        <time>2019-06-16T07:20:36.000Z</time>
      </trkpt>
      <trkpt lat="43.17089" lon="2.38556">
        <ele>172.8</ele>
        <time>2019-06-16T07:20:37.000Z</time>
      </trkpt>
      <trkpt lat="43.17089" lon="2.38559">
        <ele>172.9</ele>
        <time>2019-06-16T07:20:38.000Z</time>
      </trkpt>
      <trkpt lat="43.17089" lon="2.38562">
        <ele>172.9</ele>
        <time>2019-06-16T07:20:39.000Z</time>
      </trkpt>
      <trkpt lat="43.1709" lon="2.38565">
        <ele>173</ele>
        <time>2019-06-16T07:20:40.000Z</time>
      </trkpt>
      <trkpt lat="43.1709" lon="2.38568">
        <ele>173</ele>
        <time>2019-06-16T07:20:41.000Z</time>
      </trkpt>
      <trkpt lat="43.1709" lon="2.3857">
        <ele>173</ele>
        <time>2019-06-16T07:20:42.000Z</time>
      </trkpt>
      <trkpt lat="43.1709" lon="2.38573">
        <ele>173.1</ele>
        <time>2019-06-16T07:20:43.000Z</time>
      </trkpt>
      <trkpt lat="43.17089" lon="2.38575">
        <ele>173.1</ele>
        <time>2019-06-16T07:20:44.000Z</time>
      </trkpt>
      <trkpt lat="43.17089" lon="2.38577">
        <ele>173.1</ele>
        <time>2019-06-16T07:20:45.000Z</time>
      </trkpt>
      <trkpt lat="43.17088" lon="2.38578">
        <ele>173.1</ele>
        <time>2019-06-16T07:20:46.000Z</time>
      </trkpt>
      <trkpt lat="43.17088" lon="2.3858">
        <ele>173.1</ele>
        <time>2019-06-16T07:20:47.000Z</time>
      </trkpt>
      <trkpt lat="43.17087" lon="2.38582">
        <ele>173.1</ele>
        <time>2019-06-16T07:20:48.000Z</time>
      </trkpt>
      <trkpt lat="43.17086" lon="2.38584">
        <ele>173.1</ele>
        <time>2019-06-16T07:20:49.000Z</time>
      </trkpt>
      <trkpt lat="43.17085" lon="2.38586">
        <ele>173.1</ele>
        <time>2019-06-16T07:20:50.000Z</time>
      </trkpt>
      <trkpt lat="43.17084" lon="2.38589">
        <ele>173.2</ele>
        <time>2019-06-16T07:20:51.000Z</time>
      </trkpt>
      <trkpt lat="43.17083" lon="2.38592">
        <ele>173.2</ele>
        <time>2019-06-16T07:20:52.000Z</time>
      </trkpt>
      <trkpt lat="43.17082" lon="2.38595">
        <ele>173.3</ele>
        <time>2019-06-16T07:20:53.000Z</time>
      </trkpt>
      <trkpt lat="43.17081" lon="2.38599">
        <ele>173.4</ele>
        <time>2019-06-16T07:20:54.000Z</time>
      </trkpt>
      <trkpt lat="43.1708" lon="2.38602">
        <ele>173.5</ele>
        <time>2019-06-16T07:20:55.000Z</time>
      </trkpt>
      <trkpt lat="43.17079" lon="2.38605">
        <ele>173.6</ele>
        <time>2019-06-16T07:20:56.000Z</time>
      </trkpt>
      <trkpt lat="43.17078" lon="2.38608">
        <ele>173.7</ele>
        <time>2019-06-16T07:20:57.000Z</time>
      </trkpt>
      <trkpt lat="43.17077" lon="2.38611">
        <ele>173.7</ele>
        <time>2019-06-16T07:20:58.000Z</time>
      </trkpt>
      <trkpt lat="43.17076" lon="2.38613">
        <ele>173.8</ele>
        <time>2019-06-16T07:20:59.000Z</time>
      </trkpt>
      <trkpt lat="43.17075" lon="2.38616">
        <ele>173.9</ele>
        <time>2019-06-16T07:21:00.000Z</time>
      </trkpt>
      <trkpt lat="43.17074" lon="2.38619">
        <ele>174</ele>
        <time>2019-06-16T07:21:01.000Z</time>
      </trkpt>
      <trkpt lat="43.17073" lon="2.38622">
        <ele>174.1</ele>
        <time>2019-06-16T07:21:02.000Z</time>
      </trkpt>
      <trkpt lat="43.17071" lon="2.38625">
        <ele>174.1</ele>
        <time>2019-06-16T07:21:03.000Z</time>
      </trkpt>
      <trkpt lat="43.1707" lon="2.38627">
        <ele>174.2</ele>
        <time>2019-06-16T07:21:04.000Z</time>
      </trkpt>
      <trkpt lat="43.17069" lon="2.3863">
        <ele>174.3</ele>
        <time>2019-06-16T07:21:05.000Z</time>
      </trkpt>
      <trkpt lat="43.17068" lon="2.38632">
        <ele>174.4</ele>
        <time>2019-06-16T07:21:06.000Z</time>
      </trkpt>
      <trkpt lat="43.17067" lon="2.38635">
        <ele>174.4</ele>
        <time>2019-06-16T07:21:07.000Z</time>
      </trkpt>
      <trkpt lat="43.17066" lon="2.38638">
        <ele>174.5</ele>
        <time>2019-06-16T07:21:08.000Z</time>
      </trkpt>
      <trkpt lat="43.17065" lon="2.3864">
        <ele>174.6</ele>
        <time>2019-06-16T07:21:09.000Z</time>
      </trkpt>
      <trkpt lat="43.17064" lon="2.38643">
        <ele>174.6</ele>
        <time>2019-06-16T07:21:10.000Z</time>
      </trkpt>
      <trkpt lat="43.17063" lon="2.38645">
        <ele>174.7</ele>
        <time>2019-06-16T07:21:11.000Z</time>
      </trkpt>
      <trkpt lat="43.17062" lon="2.38647">
        <ele>174.8</ele>
        <time>2019-06-16T07:21:12.000Z</time>
      </trkpt>
      <trkpt lat="43.17061" lon="2.3865">
        <ele>174.9</ele>
        <time>2019-06-16T07:21:13.000Z</time>
      </trkpt>
      <trkpt lat="43.1706" lon="2.38652">
        <ele>174.9</ele>
        <time>2019-06-16T07:21:14.000Z</time>
      </trkpt>
      <trkpt lat="43.17059" lon="2.38655">
        <ele>175</ele>
        <time>2019-06-16T07:21:15.000Z</time>
      </trkpt>
      <trkpt lat="43.17058" lon="2.38657">
        <ele>175.1</ele>
        <time>2019-06-16T07:21:16.000Z</time>
      </trkpt>
      <trkpt lat="43.17058" lon="2.3866">
        <ele>175.2</ele>
        <time>2019-06-16T07:21:17.000Z</time>
      </trkpt>
      <trkpt lat="43.17057" lon="2.38663">
        <ele>175.2</ele>
        <time>2019-06-16T07:21:18.000Z</time>
      </trkpt>
      <trkpt lat="43.17056" lon="2.38665">
        <ele>175.3</ele>
        <time>2019-06-16T07:21:19.000Z</time>
      </trkpt>
      <trkpt lat="43.17055" lon="2.38668">
        <ele>175.4</ele>
        <time>2019-06-16T07:21:20.000Z</time>
      </trkpt>
      <trkpt lat="43.17054" lon="2.3867">
        <ele>175.5</ele>
        <time>2019-06-16T07:21:21.000Z</time>
      </trkpt>
      <trkpt lat="43.17053" lon="2.38673">
        <ele>175.5</ele>
        <time>2019-06-16T07:21:22.000Z</time>
      </trkpt>
      <trkpt lat="43.17053" lon="2.38675">
        <ele>175.6</ele>
        <time>2019-06-16T07:21:23.000Z</time>
      </trkpt>
      <trkpt lat="43.17052" lon="2.38678">
        <ele>175.7</ele>
        <time>2019-06-16T07:21:24.000Z</time>
      </trkpt>
      <trkpt lat="43.17051" lon="2.3868">
        <ele>175.8</ele>
        <time>2019-06-16T07:21:25.000Z</time>
      </trkpt>
      <trkpt lat="43.17051" lon="2.38682">
        <ele>175.9</ele>
        <time>2019-06-16T07:21:26.000Z</time>
      </trkpt>
      <trkpt lat="43.1705" lon="2.38684">
        <ele>175.9</ele>
        <time>2019-06-16T07:21:27.000Z</time>
      </trkpt>
      <trkpt lat="43.1705" lon="2.38687">
        <ele>176</ele>
        <time>2019-06-16T07:21:28.000Z</time>
      </trkpt>
      <trkpt lat="43.17049" lon="2.38689">
        <ele>176.1</ele>
        <time>2019-06-16T07:21:29.000Z</time>
      </trkpt>
      <trkpt lat="43.17049" lon="2.38691">
        <ele>176.2</ele>
        <time>2019-06-16T07:21:30.000Z</time>
      </trkpt>
      <trkpt lat="43.17049" lon="2.38693">
        <ele>176.2</ele>
        <time>2019-06-16T07:21:31.000Z</time>
      </trkpt>
      <trkpt lat="43.17049" lon="2.38695">
        <ele>176.3</ele>
        <time>2019-06-16T07:21:32.000Z</time>
      </trkpt>
      <trkpt lat="43.17049" lon="2.38697">
        <ele>176.4</ele>
        <time>2019-06-16T07:21:33.000Z</time>
      </trkpt>
      <trkpt lat="43.17049" lon="2.38699">
        <ele>176.4</ele>
        <time>2019-06-16T07:21:34.000Z</time>
      </trkpt>
      <trkpt lat="43.1705" lon="2.38701">
        <ele>176.5</ele>
        <time>2019-06-16T07:21:35.000Z</time>
      </trkpt>
      <trkpt lat="43.1705" lon="2.38703">
        <ele>176.5</ele>
        <time>2019-06-16T07:21:36.000Z</time>
      </trkpt>
      <trkpt lat="43.1705" lon="2.38706">
        <ele>176.6</ele>
        <time>2019-06-16T07:21:37.000Z</time>
      </trkpt>
      <trkpt lat="43.17051" lon="2.38708">
        <ele>176.7</ele>
        <time>2019-06-16T07:21:38.000Z</time>
      </trkpt>
      <trkpt lat="43.17051" lon="2.3871">
        <ele>176.7</ele>
        <time>2019-06-16T07:21:39.000Z</time>
      </trkpt>
      <trkpt lat="43.17051" lon="2.38712">
        <ele>176.8</ele>
        <time>2019-06-16T07:21:40.000Z</time>
      </trkpt>
      <trkpt lat="43.17051" lon="2.38715">
        <ele>176.9</ele>
        <time>2019-06-16T07:21:41.000Z</time>
      </trkpt>
      <trkpt lat="43.17051" lon="2.38717">
        <ele>177</ele>
        <time>2019-06-16T07:21:42.000Z</time>
      </trkpt>
      <trkpt lat="43.17051" lon="2.38719">
        <ele>177</ele>
        <time>2019-06-16T07:21:43.000Z</time>
      </trkpt>
      <trkpt lat="43.1705" lon="2.38722">
        <ele>177.1</ele>
        <time>2019-06-16T07:21:44.000Z</time>
      </trkpt>
      <trkpt lat="43.1705" lon="2.38724">
        <ele>177.2</ele>
        <time>2019-06-16T07:21:45.000Z</time>
      </trkpt>
      <trkpt lat="43.17049" lon="2.38727">
        <ele>177.3</ele>
        <time>2019-06-16T07:21:46.000Z</time>
      </trkpt>
      <trkpt lat="43.17048" lon="2.38729">
        <ele>177.4</ele>
        <time>2019-06-16T07:21:47.000Z</time>
      </trkpt>
      <trkpt lat="43.17048" lon="2.38732">
        <ele>177.4</ele>
        <time>2019-06-16T07:21:48.000Z</time>
      </trkpt>
      <trkpt lat="43.17047" lon="2.38734">
        <ele>177.5</ele>
        <time>2019-06-16T07:21:49.000Z</time>
      </trkpt>
      <trkpt lat="43.17046" lon="2.38737">
        <ele>177.6</ele>
        <time>2019-06-16T07:21:50.000Z</time>
      </trkpt>
      <trkpt lat="43.17045" lon="2.38739">
        <ele>177.7</ele>
        <time>2019-06-16T07:21:51.000Z</time>
      </trkpt>
      <trkpt lat="43.17043" lon="2.38742">
        <ele>177.7</ele>
        <time>2019-06-16T07:21:52.000Z</time>
      </trkpt>
      <trkpt lat="43.17042" lon="2.38744">
        <ele>177.8</ele>
        <time>2019-06-16T07:21:53.000Z</time>
      </trkpt>
      <trkpt lat="43.17041" lon="2.38747">
        <ele>177.9</ele>
        <time>2019-06-16T07:21:54.000Z</time>
      </trkpt>
      <trkpt lat="43.1704" lon="2.38749">
        <ele>178</ele>
        <time>2019-06-16T07:21:55.000Z</time>
      </trkpt>
      <trkpt lat="43.17038" lon="2.38752">
        <ele>178.1</ele>
        <time>2019-06-16T07:21:56.000Z</time>
      </trkpt>
      <trkpt lat="43.17037" lon="2.38754">
        <ele>178.2</ele>
        <time>2019-06-16T07:21:57.000Z</time>
      </trkpt>
      <trkpt lat="43.17035" lon="2.38757">
        <ele>178.3</ele>
        <time>2019-06-16T07:21:58.000Z</time>
      </trkpt>
      <trkpt lat="43.17034" lon="2.38759">
        <ele>178.4</ele>
        <time>2019-06-16T07:21:59.000Z</time>
      </trkpt>
      <trkpt lat="43.17033" lon="2.38762">
        <ele>178.5</ele>
        <time>2019-06-16T07:22:00.000Z</time>
      </trkpt>
      <trkpt lat="43.17031" lon="2.38765">
        <ele>178.6</ele>
        <time>2019-06-16T07:22:01.000Z</time>
      </trkpt>
      <trkpt lat="43.1703" lon="2.38767">
        <ele>178.7</ele>
        <time>2019-06-16T07:22:02.000Z</time>
      </trkpt>
      <trkpt lat="43.17028" lon="2.3877">
        <ele>178.8</ele>
        <time>2019-06-16T07:22:03.000Z</time>
      </trkpt>
      <trkpt lat="43.17027" lon="2.38772">
        <ele>178.9</ele>
        <time>2019-06-16T07:22:04.000Z</time>
      </trkpt>
      <trkpt lat="43.17026" lon="2.38775">
        <ele>179</ele>
        <time>2019-06-16T07:22:05.000Z</time>
      </trkpt>
      <trkpt lat="43.17024" lon="2.38778">
        <ele>179.1</ele>
        <time>2019-06-16T07:22:06.000Z</time>
      </trkpt>
      <trkpt lat="43.17023" lon="2.3878">
        <ele>179.2</ele>
        <time>2019-06-16T07:22:07.000Z</time>
      </trkpt>
      <trkpt lat="43.17022" lon="2.38783">
        <ele>179.4</ele>
        <time>2019-06-16T07:22:08.000Z</time>
      </trkpt>
      <trkpt lat="43.17021" lon="2.38786">
        <ele>179.5</ele>
        <time>2019-06-16T07:22:09.000Z</time>
      </trkpt>
      <trkpt lat="43.1702" lon="2.38788">
        <ele>179.6</ele>
        <time>2019-06-16T07:22:10.000Z</time>
      </trkpt>
      <trkpt lat="43.17019" lon="2.38791">
        <ele>179.7</ele>
        <time>2019-06-16T07:22:11.000Z</time>
      </trkpt>
      <trkpt lat="43.17018" lon="2.38794">
        <ele>179.9</ele>
        <time>2019-06-16T07:22:12.000Z</time>
      </trkpt>
      <trkpt lat="43.17017" lon="2.38796">
        <ele>180</ele>
        <time>2019-06-16T07:22:13.000Z</time>
      </trkpt>
      <trkpt lat="43.17016" lon="2.38799">
        <ele>180.1</ele>
        <time>2019-06-16T07:22:14.000Z</time>
      </trkpt>
      <trkpt lat="43.17015" lon="2.38802">
        <ele>180.3</ele>
        <time>2019-06-16T07:22:15.000Z</time>
      </trkpt>
      <trkpt lat="43.17014" lon="2.38805">
        <ele>180.4</ele>
        <time>2019-06-16T07:22:16.000Z</time>
      </trkpt>
      <trkpt lat="43.17013" lon="2.38808">
        <ele>180.5</ele>
        <time>2019-06-16T07:22:17.000Z</time>
      </trkpt>
      <trkpt lat="43.17013" lon="2.38811">
        <ele>180.7</ele>
        <time>2019-06-16T07:22:18.000Z</time>
      </trkpt>
      <trkpt lat="43.17012" lon="2.38814">
        <ele>180.8</ele>
        <time>2019-06-16T07:22:19.000Z</time>
      </trkpt>
      <trkpt lat="43.17011" lon="2.38817">
        <ele>181</ele>
        <time>2019-06-16T07:22:20.000Z</time>
      </trkpt>
      <trkpt lat="43.1701" lon="2.3882">
        <ele>181.1</ele>
        <time>2019-06-16T07:22:21.000Z</time>
      </trkpt>
      <trkpt lat="43.1701" lon="2.38823">
        <ele>181.3</ele>
        <time>2019-06-16T07:22:22.000Z</time>
      </trkpt>
      <trkpt lat="43.17009" lon="2.38826">
        <ele>181.4</ele>
        <time>2019-06-16T07:22:23.000Z</time>
      </trkpt>
      <trkpt lat="43.17009" lon="2.38829">
        <ele>181.6</ele>
        <time>2019-06-16T07:22:24.000Z</time>
      </trkpt>
      <trkpt lat="43.17008" lon="2.38832">
        <ele>181.8</ele>
        <time>2019-06-16T07:22:25.000Z</time>
      </trkpt>
      <trkpt lat="43.17008" lon="2.38835">
        <ele>181.9</ele>
        <time>2019-06-16T07:22:26.000Z</time>
      </trkpt>
      <trkpt lat="43.17007" lon="2.38838">
        <ele>181.9</ele>
        <time>2019-06-16T07:22:27.000Z</time>
      </trkpt>
      <trkpt lat="43.17006" lon="2.38842">
        <ele>182</ele>
        <time>2019-06-16T07:22:28.000Z</time>
      </trkpt>
      <trkpt lat="43.17006" lon="2.38845">
        <ele>182.1</ele>
        <time>2019-06-16T07:22:29.000Z</time>
      </trkpt>
      <trkpt lat="43.17005" lon="2.38848">
        <ele>182.2</ele>
        <time>2019-06-16T07:22:30.000Z</time>
      </trkpt>
      <trkpt lat="43.17004" lon="2.38851">
        <ele>182.3</ele>
        <time>2019-06-16T07:22:31.000Z</time>
      </trkpt>
      <trkpt lat="43.17004" lon="2.38853">
        <ele>182.4</ele>
        <time>2019-06-16T07:22:32.000Z</time>
      </trkpt>
      <trkpt lat="43.17003" lon="2.38856">
        <ele>182.5</ele>
        <time>2019-06-16T07:22:33.000Z</time>
      </trkpt>
      <trkpt lat="43.17003" lon="2.38859">
        <ele>182.5</ele>
        <time>2019-06-16T07:22:34.000Z</time>
      </trkpt>
      <trkpt lat="43.17002" lon="2.38862">
        <ele>182.6</ele>
        <time>2019-06-16T07:22:35.000Z</time>
      </trkpt>
      <trkpt lat="43.17002" lon="2.38865">
        <ele>182.7</ele>
        <time>2019-06-16T07:22:36.000Z</time>
      </trkpt>
      <trkpt lat="43.17001" lon="2.38868">
        <ele>182.8</ele>
        <time>2019-06-16T07:22:37.000Z</time>
      </trkpt>
      <trkpt lat="43.17001" lon="2.38871">
        <ele>182.9</ele>
        <time>2019-06-16T07:22:38.000Z</time>
      </trkpt>
      <trkpt lat="43.17" lon="2.38873">
        <ele>183</ele>
        <time>2019-06-16T07:22:39.000Z</time>
      </trkpt>
      <trkpt lat="43.16999" lon="2.38876">
        <ele>183</ele>
        <time>2019-06-16T07:22:40.000Z</time>
      </trkpt>
      <trkpt lat="43.16999" lon="2.38879">
        <ele>183.1</ele>
        <time>2019-06-16T07:22:41.000Z</time>
      </trkpt>
      <trkpt lat="43.16998" lon="2.38881">
        <ele>183.1</ele>
        <time>2019-06-16T07:22:42.000Z</time>
      </trkpt>
      <trkpt lat="43.16998" lon="2.38884">
        <ele>183.2</ele>
        <time>2019-06-16T07:22:43.000Z</time>
      </trkpt>
      <trkpt lat="43.16997" lon="2.38887">
        <ele>183.2</ele>
        <time>2019-06-16T07:22:44.000Z</time>
      </trkpt>
      <trkpt lat="43.16997" lon="2.38889">
        <ele>183.3</ele>
        <time>2019-06-16T07:22:45.000Z</time>
      </trkpt>
      <trkpt lat="43.16996" lon="2.38892">
        <ele>183.4</ele>
        <time>2019-06-16T07:22:46.000Z</time>
      </trkpt>
      <trkpt lat="43.16996" lon="2.38895">
        <ele>183.4</ele>
        <time>2019-06-16T07:22:47.000Z</time>
      </trkpt>
      <trkpt lat="43.16995" lon="2.38897">
        <ele>183.5</ele>
        <time>2019-06-16T07:22:48.000Z</time>
      </trkpt>
      <trkpt lat="43.16994" lon="2.389">
        <ele>183.5</ele>
        <time>2019-06-16T07:22:49.000Z</time>
      </trkpt>
      <trkpt lat="43.16994" lon="2.38903">
        <ele>183.6</ele>
        <time>2019-06-16T07:22:50.000Z</time>
      </trkpt>
      <trkpt lat="43.16993" lon="2.38905">
        <ele>183.6</ele>
        <time>2019-06-16T07:22:51.000Z</time>
      </trkpt>
      <trkpt lat="43.16993" lon="2.38908">
        <ele>183.7</ele>
        <time>2019-06-16T07:22:52.000Z</time>
      </trkpt>
      <trkpt lat="43.16992" lon="2.38911">
        <ele>183.8</ele>
        <time>2019-06-16T07:22:53.000Z</time>
      </trkpt>
      <trkpt lat="43.16991" lon="2.38914">
        <ele>183.8</ele>
        <time>2019-06-16T07:22:54.000Z</time>
      </trkpt>
      <trkpt lat="43.1699" lon="2.38916">
        <ele>183.9</ele>
        <time>2019-06-16T07:22:55.000Z</time>
      </trkpt>
      <trkpt lat="43.16989" lon="2.38919">
        <ele>183.9</ele>
        <time>2019-06-16T07:22:56.000Z</time>
      </trkpt>
      <trkpt lat="43.16988" lon="2.38922">
        <ele>183.9</ele>
        <time>2019-06-16T07:22:57.000Z</time>
      </trkpt>
      <trkpt lat="43.16987" lon="2.38925">
        <ele>184</ele>
        <time>2019-06-16T07:22:58.000Z</time>
      </trkpt>
      <trkpt lat="43.16987" lon="2.38927">
        <ele>184</ele>
        <time>2019-06-16T07:22:59.000Z</time>
      </trkpt>
      <trkpt lat="43.16986" lon="2.3893">
        <ele>184</ele>
        <time>2019-06-16T07:23:00.000Z</time>
      </trkpt>
      <trkpt lat="43.16985" lon="2.38933">
        <ele>184.1</ele>
        <time>2019-06-16T07:23:01.000Z</time>
      </trkpt>
      <trkpt lat="43.16984" lon="2.38935">
        <ele>184.1</ele>
        <time>2019-06-16T07:23:02.000Z</time>
      </trkpt>
      <trkpt lat="43.16982" lon="2.38938">
        <ele>184.1</ele>
        <time>2019-06-16T07:23:03.000Z</time>
      </trkpt>
      <trkpt lat="43.16981" lon="2.3894">
        <ele>184.2</ele>
        <time>2019-06-16T07:23:04.000Z</time>
      </trkpt>
      <trkpt lat="43.16981" lon="2.38943">
        <ele>184.2</ele>
        <time>2019-06-16T07:23:05.000Z</time>
      </trkpt>
      <trkpt lat="43.1698" lon="2.38946">
        <ele>184.3</ele>
        <time>2019-06-16T07:23:06.000Z</time>
      </trkpt>
      <trkpt lat="43.16979" lon="2.38948">
        <ele>184.3</ele>
        <time>2019-06-16T07:23:07.000Z</time>
      </trkpt>
      <trkpt lat="43.16978" lon="2.38951">
        <ele>184.4</ele>
        <time>2019-06-16T07:23:08.000Z</time>
      </trkpt>
      <trkpt lat="43.16977" lon="2.38954">
        <ele>184.4</ele>
        <time>2019-06-16T07:23:09.000Z</time>
      </trkpt>
      <trkpt lat="43.16976" lon="2.38957">
        <ele>184.5</ele>
        <time>2019-06-16T07:23:10.000Z</time>
      </trkpt>
      <trkpt lat="43.16975" lon="2.3896">
        <ele>184.5</ele>
        <time>2019-06-16T07:23:11.000Z</time>
      </trkpt>
      <trkpt lat="43.16975" lon="2.38963">
        <ele>184.6</ele>
        <time>2019-06-16T07:23:12.000Z</time>
      </trkpt>
      <trkpt lat="43.16974" lon="2.38966">
        <ele>184.7</ele>
        <time>2019-06-16T07:23:13.000Z</time>
      </trkpt>
      <trkpt lat="43.16973" lon="2.38969">
        <ele>184.7</ele>
        <time>2019-06-16T07:23:14.000Z</time>
      </trkpt>
      <trkpt lat="43.16972" lon="2.38972">
        <ele>184.8</ele>
        <time>2019-06-16T07:23:15.000Z</time>
      </trkpt>
      <trkpt lat="43.16971" lon="2.38975">
        <ele>184.8</ele>
        <time>2019-06-16T07:23:16.000Z</time>
      </trkpt>
      <trkpt lat="43.1697" lon="2.38978">
        <ele>184.9</ele>
        <time>2019-06-16T07:23:17.000Z</time>
      </trkpt>
      <trkpt lat="43.1697" lon="2.38981">
        <ele>185</ele>
        <time>2019-06-16T07:23:18.000Z</time>
      </trkpt>
      <trkpt lat="43.16969" lon="2.38983">
        <ele>185</ele>
        <time>2019-06-16T07:23:19.000Z</time>
      </trkpt>
      <trkpt lat="43.16968" lon="2.38986">
        <ele>185.1</ele>
        <time>2019-06-16T07:23:20.000Z</time>
      </trkpt>
      <trkpt lat="43.16967" lon="2.38989">
        <ele>185.2</ele>
        <time>2019-06-16T07:23:21.000Z</time>
      </trkpt>
      <trkpt lat="43.16966" lon="2.38991">
        <ele>185.2</ele>
        <time>2019-06-16T07:23:22.000Z</time>
      </trkpt>
      <trkpt lat="43.16965" lon="2.38994">
        <ele>185.3</ele>
        <time>2019-06-16T07:23:23.000Z</time>
      </trkpt>
      <trkpt lat="43.16964" lon="2.38997">
        <ele>185.4</ele>
        <time>2019-06-16T07:23:24.000Z</time>
      </trkpt>
      <trkpt lat="43.16963" lon="2.39">
        <ele>185.4</ele>
        <time>2019-06-16T07:23:25.000Z</time>
      </trkpt>
      <trkpt lat="43.16962" lon="2.39002">
        <ele>185.5</ele>
        <time>2019-06-16T07:23:26.000Z</time>
      </trkpt>
      <trkpt lat="43.16962" lon="2.39005">
        <ele>185.5</ele>
        <time>2019-06-16T07:23:27.000Z</time>
      </trkpt>
      <trkpt lat="43.16961" lon="2.39008">
        <ele>185.6</ele>
        <time>2019-06-16T07:23:28.000Z</time>
      </trkpt>
      <trkpt lat="43.1696" lon="2.39011">
        <ele>185.7</ele>
        <time>2019-06-16T07:23:29.000Z</time>
      </trkpt>
      <trkpt lat="43.16959" lon="2.39014">
        <ele>185.7</ele>
        <time>2019-06-16T07:23:30.000Z</time>
      </trkpt>
      <trkpt lat="43.16958" lon="2.39017">
        <ele>185.8</ele>
        <time>2019-06-16T07:23:31.000Z</time>
      </trkpt>
      <trkpt lat="43.16957" lon="2.3902">
        <ele>185.9</ele>
        <time>2019-06-16T07:23:32.000Z</time>
      </trkpt>
      <trkpt lat="43.16956" lon="2.39022">
        <ele>185.9</ele>
        <time>2019-06-16T07:23:33.000Z</time>
      </trkpt>
      <trkpt lat="43.16955" lon="2.39025">
        <ele>186</ele>
        <time>2019-06-16T07:23:34.000Z</time>
      </trkpt>
      <trkpt lat="43.16954" lon="2.39028">
        <ele>186.1</ele>
        <time>2019-06-16T07:23:35.000Z</time>
      </trkpt>
      <trkpt lat="43.16953" lon="2.39031">
        <ele>186.2</ele>
        <time>2019-06-16T07:23:36.000Z</time>
      </trkpt>
      <trkpt lat="43.16952" lon="2.39034">
        <ele>186.3</ele>
        <time>2019-06-16T07:23:37.000Z</time>
      </trkpt>
      <trkpt lat="43.16952" lon="2.39037">
        <ele>186.4</ele>
        <time>2019-06-16T07:23:38.000Z</time>
      </trkpt>
      <trkpt lat="43.16951" lon="2.3904">
        <ele>186.4</ele>
        <time>2019-06-16T07:23:39.000Z</time>
      </trkpt>
      <trkpt lat="43.1695" lon="2.39043">
        <ele>186.5</ele>
        <time>2019-06-16T07:23:40.000Z</time>
      </trkpt>
      <trkpt lat="43.16949" lon="2.39045">
        <ele>186.6</ele>
        <time>2019-06-16T07:23:41.000Z</time>
      </trkpt>
      <trkpt lat="43.16949" lon="2.39047">
        <ele>186.7</ele>
        <time>2019-06-16T07:23:42.000Z</time>
      </trkpt>
      <trkpt lat="43.16948" lon="2.39048">
        <ele>186.7</ele>
        <time>2019-06-16T07:23:43.000Z</time>
      </trkpt>
      <trkpt lat="43.16948" lon="2.3905">
        <ele>186.7</ele>
        <time>2019-06-16T07:23:44.000Z</time>
      </trkpt>
      <trkpt lat="43.16948" lon="2.3905">
        <ele>186.8</ele>
        <time>2019-06-16T07:23:45.000Z</time>
      </trkpt>
      <trkpt lat="43.16947" lon="2.39051">
        <ele>186.8</ele>
        <time>2019-06-16T07:23:46.000Z</time>
      </trkpt>
      <trkpt lat="43.16947" lon="2.39051">
        <ele>186.8</ele>
        <time>2019-06-16T07:23:47.000Z</time>
      </trkpt>
      <trkpt lat="43.16947" lon="2.39051">
        <ele>186.8</ele>
        <time>2019-06-16T07:23:48.000Z</time>
      </trkpt>
      <trkpt lat="43.16947" lon="2.39051">
        <ele>186.8</ele>
        <time>2019-06-16T07:23:49.000Z</time>
      </trkpt>
      <trkpt lat="43.16947" lon="2.39052">
        <ele>186.8</ele>
        <time>2019-06-16T07:23:50.000Z</time>
      </trkpt>
      <trkpt lat="43.16946" lon="2.39053">
        <ele>186.9</ele>
        <time>2019-06-16T07:23:51.000Z</time>
      </trkpt>
      <trkpt lat="43.16946" lon="2.39054">
        <ele>186.9</ele>
        <time>2019-06-16T07:23:52.000Z</time>
      </trkpt>
      <trkpt lat="43.16945" lon="2.39055">
        <ele>186.9</ele>
        <time>2019-06-16T07:23:53.000Z</time>
      </trkpt>
      <trkpt lat="43.16945" lon="2.39056">
        <ele>187</ele>
        <time>2019-06-16T07:23:54.000Z</time>
      </trkpt>
      <trkpt lat="43.16945" lon="2.39057">
        <ele>187</ele>
        <time>2019-06-16T07:23:55.000Z</time>
      </trkpt>
      <trkpt lat="43.16944" lon="2.39058">
        <ele>187.1</ele>
        <time>2019-06-16T07:23:56.000Z</time>
      </trkpt>
      <trkpt lat="43.16944" lon="2.39058">
        <ele>187.1</ele>
        <time>2019-06-16T07:23:57.000Z</time>
      </trkpt>
      <trkpt lat="43.16943" lon="2.39059">
        <ele>187.1</ele>
        <time>2019-06-16T07:23:58.000Z</time>
      </trkpt>
      <trkpt lat="43.16943" lon="2.39059">
        <ele>187.2</ele>
        <time>2019-06-16T07:23:59.000Z</time>
      </trkpt>
      <trkpt lat="43.16943" lon="2.3906">
        <ele>187.2</ele>
        <time>2019-06-16T07:24:00.000Z</time>
      </trkpt>
      <trkpt lat="43.16942" lon="2.3906">
        <ele>187.2</ele>
        <time>2019-06-16T07:24:01.000Z</time>
      </trkpt>
      <trkpt lat="43.16942" lon="2.3906">
        <ele>187.2</ele>
        <time>2019-06-16T07:24:02.000Z</time>
      </trkpt>
      <trkpt lat="43.16942" lon="2.3906">
        <ele>187.2</ele>
        <time>2019-06-16T07:24:03.000Z</time>
      </trkpt>
      <trkpt lat="43.16942" lon="2.3906">
        <ele>187.2</ele>
        <time>2019-06-16T07:24:04.000Z</time>
      </trkpt>
      <trkpt lat="43.16942" lon="2.3906">
        <ele>187.2</ele>
        <time>2019-06-16T07:24:05.000Z</time>
      </trkpt>
      <trkpt lat="43.16942" lon="2.3906">
        <ele>187.2</ele>
        <time>2019-06-16T07:24:06.000Z</time>
      </trkpt>
      <trkpt lat="43.16942" lon="2.3906">
        <ele>187.2</ele>
        <time>2019-06-16T07:24:07.000Z</time>
      </trkpt>
      <trkpt lat="43.16942" lon="2.3906">
        <ele>187.2</ele>
        <time>2019-06-16T07:24:08.000Z</time>
      </trkpt>
      <trkpt lat="43.16942" lon="2.3906">
        <ele>187.2</ele>
        <time>2019-06-16T07:24:09.000Z</time>
      </trkpt>
      <trkpt lat="43.16942" lon="2.3906">
        <ele>187.2</ele>
        <time>2019-06-16T07:24:10.000Z</time>
      </trkpt>
      <trkpt lat="43.16942" lon="2.3906">
        <ele>187.2</ele>
        <time>2019-06-16T07:24:11.000Z</time>
      </trkpt>
      <trkpt lat="43.16942" lon="2.3906">
        <ele>187.2</ele>
        <time>2019-06-16T07:24:12.000Z</time>
      </trkpt>
      <trkpt lat="43.16941" lon="2.3906">
        <ele>187.2</ele>
        <time>2019-06-16T07:24:13.000Z</time>
      </trkpt>
      <trkpt lat="43.16941" lon="2.3906">
        <ele>187.2</ele>
        <time>2019-06-16T07:24:14.000Z</time>
      </trkpt>
      <trkpt lat="43.16941" lon="2.3906">
        <ele>187.2</ele>
        <time>2019-06-16T07:24:15.000Z</time>
      </trkpt>
      <trkpt lat="43.16941" lon="2.3906">
        <ele>187.3</ele>
        <time>2019-06-16T07:24:16.000Z</time>
      </trkpt>
      <trkpt lat="43.1694" lon="2.3906">
        <ele>187.3</ele>
        <time>2019-06-16T07:24:17.000Z</time>
      </trkpt>
      <trkpt lat="43.1694" lon="2.3906">
        <ele>187.3</ele>
        <time>2019-06-16T07:24:18.000Z</time>
      </trkpt>
      <trkpt lat="43.1694" lon="2.3906">
        <ele>187.3</ele>
        <time>2019-06-16T07:24:19.000Z</time>
      </trkpt>
      <trkpt lat="43.1694" lon="2.3906">
        <ele>187.3</ele>
        <time>2019-06-16T07:24:20.000Z</time>
      </trkpt>
      <trkpt lat="43.1694" lon="2.3906">
        <ele>187.3</ele>
        <time>2019-06-16T07:24:21.000Z</time>
      </trkpt>
      <trkpt lat="43.1694" lon="2.3906">
        <ele>187.3</ele>
        <time>2019-06-16T07:24:22.000Z</time>
      </trkpt>
      <trkpt lat="43.1694" lon="2.3906">
        <ele>187.3</ele>
        <time>2019-06-16T07:24:23.000Z</time>
      </trkpt>
      <trkpt lat="43.1694" lon="2.3906">
        <ele>187.3</ele>
        <time>2019-06-16T07:24:24.000Z</time>
      </trkpt>
      <trkpt lat="43.1694" lon="2.3906">
        <ele>187.3</ele>
        <time>2019-06-16T07:24:25.000Z</time>
      </trkpt>
      <trkpt lat="43.1694" lon="2.3906">
        <ele>187.3</ele>
        <time>2019-06-16T07:24:26.000Z</time>
      </trkpt>
      <trkpt lat="43.1694" lon="2.3906">
        <ele>187.3</ele>
        <time>2019-06-16T07:24:27.000Z</time>
      </trkpt>
      <trkpt lat="43.16939" lon="2.39061">
        <ele>187.3</ele>
        <time>2019-06-16T07:24:28.000Z</time>
      </trkpt>
      <trkpt lat="43.16939" lon="2.39062">
        <ele>187.4</ele>
        <time>2019-06-16T07:24:29.000Z</time>
      </trkpt>
      <trkpt lat="43.16938" lon="2.39063">
        <ele>187.4</ele>
        <time>2019-06-16T07:24:30.000Z</time>
      </trkpt>
      <trkpt lat="43.16937" lon="2.39065">
        <ele>187.5</ele>
        <time>2019-06-16T07:24:31.000Z</time>
      </trkpt>
      <trkpt lat="43.16937" lon="2.39067">
        <ele>187.6</ele>
        <time>2019-06-16T07:24:32.000Z</time>
      </trkpt>
      <trkpt lat="43.16936" lon="2.3907">
        <ele>187.7</ele>
        <time>2019-06-16T07:24:33.000Z</time>
      </trkpt>
      <trkpt lat="43.16935" lon="2.39073">
        <ele>187.8</ele>
        <time>2019-06-16T07:24:34.000Z</time>
      </trkpt>
      <trkpt lat="43.16933" lon="2.39076">
        <ele>188</ele>
        <time>2019-06-16T07:24:35.000Z</time>
      </trkpt>
      <trkpt lat="43.16932" lon="2.39079">
        <ele>188.1</ele>
        <time>2019-06-16T07:24:36.000Z</time>
      </trkpt>
      <trkpt lat="43.16931" lon="2.39082">
        <ele>188.3</ele>
        <time>2019-06-16T07:24:37.000Z</time>
      </trkpt>
      <trkpt lat="43.16929" lon="2.39085">
        <ele>188.4</ele>
        <time>2019-06-16T07:24:38.000Z</time>
      </trkpt>
      <trkpt lat="43.16928" lon="2.39088">
        <ele>188.4</ele>
        <time>2019-06-16T07:24:39.000Z</time>
      </trkpt>
      <trkpt lat="43.16927" lon="2.39091">
        <ele>188.5</ele>
        <time>2019-06-16T07:24:40.000Z</time>
      </trkpt>
      <trkpt lat="43.16926" lon="2.39094">
        <ele>188.6</ele>
        <time>2019-06-16T07:24:41.000Z</time>
      </trkpt>
      <trkpt lat="43.16925" lon="2.39098">
        <ele>188.6</ele>
        <time>2019-06-16T07:24:42.000Z</time>
      </trkpt>
      <trkpt lat="43.16923" lon="2.39101">
        <ele>188.7</ele>
        <time>2019-06-16T07:24:43.000Z</time>
      </trkpt>
      <trkpt lat="43.16922" lon="2.39104">
        <ele>188.7</ele>
        <time>2019-06-16T07:24:44.000Z</time>
      </trkpt>
      <trkpt lat="43.16921" lon="2.39107">
        <ele>188.8</ele>
        <time>2019-06-16T07:24:45.000Z</time>
      </trkpt>
      <trkpt lat="43.16919" lon="2.3911">
        <ele>188.9</ele>
        <time>2019-06-16T07:24:46.000Z</time>
      </trkpt>
      <trkpt lat="43.16918" lon="2.39113">
        <ele>188.9</ele>
        <time>2019-06-16T07:24:47.000Z</time>
      </trkpt>
      <trkpt lat="43.16917" lon="2.39116">
        <ele>189</ele>
        <time>2019-06-16T07:24:48.000Z</time>
      </trkpt>
      <trkpt lat="43.16915" lon="2.39119">
        <ele>189.1</ele>
        <time>2019-06-16T07:24:49.000Z</time>
      </trkpt>
      <trkpt lat="43.16914" lon="2.39122">
        <ele>189.2</ele>
        <time>2019-06-16T07:24:50.000Z</time>
      </trkpt>
      <trkpt lat="43.16912" lon="2.39125">
        <ele>189.3</ele>
        <time>2019-06-16T07:24:51.000Z</time>
      </trkpt>
      <trkpt lat="43.16911" lon="2.39128">
        <ele>189.4</ele>
        <time>2019-06-16T07:24:52.000Z</time>
      </trkpt>
      <trkpt lat="43.16909" lon="2.39131">
        <ele>189.5</ele>
        <time>2019-06-16T07:24:53.000Z</time>
      </trkpt>
      <trkpt lat="43.16908" lon="2.39134">
        <ele>189.6</ele>
        <time>2019-06-16T07:24:54.000Z</time>
      </trkpt>
      <trkpt lat="43.16906" lon="2.39137">
        <ele>189.7</ele>
        <time>2019-06-16T07:24:55.000Z</time>
      </trkpt>
      <trkpt lat="43.16905" lon="2.3914">
        <ele>189.9</ele>
        <time>2019-06-16T07:24:56.000Z</time>
      </trkpt>
      <trkpt lat="43.16903" lon="2.39143">
        <ele>190</ele>
        <time>2019-06-16T07:24:57.000Z</time>
      </trkpt>
      <trkpt lat="43.16902" lon="2.39146">
        <ele>190.1</ele>
        <time>2019-06-16T07:24:58.000Z</time>
      </trkpt>
      <trkpt lat="43.169" lon="2.39149">
        <ele>190.3</ele>
        <time>2019-06-16T07:24:59.000Z</time>
      </trkpt>
      <trkpt lat="43.16899" lon="2.39152">
        <ele>190.4</ele>
        <time>2019-06-16T07:25:00.000Z</time>
      </trkpt>
      <trkpt lat="43.16897" lon="2.39155">
        <ele>190.6</ele>
        <time>2019-06-16T07:25:01.000Z</time>
      </trkpt>
      <trkpt lat="43.16895" lon="2.39158">
        <ele>190.7</ele>
        <time>2019-06-16T07:25:02.000Z</time>
      </trkpt>
      <trkpt lat="43.16894" lon="2.39161">
        <ele>190.9</ele>
        <time>2019-06-16T07:25:03.000Z</time>
      </trkpt>
      <trkpt lat="43.16892" lon="2.39164">
        <ele>191</ele>
        <time>2019-06-16T07:25:04.000Z</time>
      </trkpt>
      <trkpt lat="43.16891" lon="2.39167">
        <ele>191.2</ele>
        <time>2019-06-16T07:25:05.000Z</time>
      </trkpt>
      <trkpt lat="43.16889" lon="2.3917">
        <ele>191.4</ele>
        <time>2019-06-16T07:25:06.000Z</time>
      </trkpt>
      <trkpt lat="43.16888" lon="2.39173">
        <ele>191.5</ele>
        <time>2019-06-16T07:25:07.000Z</time>
      </trkpt>
      <trkpt lat="43.16886" lon="2.39176">
        <ele>191.7</ele>
        <time>2019-06-16T07:25:08.000Z</time>
      </trkpt>
      <trkpt lat="43.16885" lon="2.39179">
        <ele>191.9</ele>
        <time>2019-06-16T07:25:09.000Z</time>
      </trkpt>
      <trkpt lat="43.16884" lon="2.39182">
        <ele>192.1</ele>
        <time>2019-06-16T07:25:10.000Z</time>
      </trkpt>
      <trkpt lat="43.16882" lon="2.39185">
        <ele>192.3</ele>
        <time>2019-06-16T07:25:11.000Z</time>
      </trkpt>
      <trkpt lat="43.16881" lon="2.39188">
        <ele>192.5</ele>
        <time>2019-06-16T07:25:12.000Z</time>
      </trkpt>
      <trkpt lat="43.1688" lon="2.39191">
        <ele>192.7</ele>
        <time>2019-06-16T07:25:13.000Z</time>
      </trkpt>
      <trkpt lat="43.16878" lon="2.39193">
        <ele>192.8</ele>
        <time>2019-06-16T07:25:14.000Z</time>
      </trkpt>
      <trkpt lat="43.16877" lon="2.39196">
        <ele>193</ele>
        <time>2019-06-16T07:25:15.000Z</time>
      </trkpt>
      <trkpt lat="43.16876" lon="2.39199">
        <ele>193.2</ele>
        <time>2019-06-16T07:25:16.000Z</time>
      </trkpt>
      <trkpt lat="43.16875" lon="2.39202">
        <ele>193.4</ele>
        <time>2019-06-16T07:25:17.000Z</time>
      </trkpt>
      <trkpt lat="43.16874" lon="2.39204">
        <ele>193.5</ele>
        <time>2019-06-16T07:25:18.000Z</time>
      </trkpt>
      <trkpt lat="43.16873" lon="2.39207">
        <ele>193.7</ele>
        <time>2019-06-16T07:25:19.000Z</time>
      </trkpt>
      <trkpt lat="43.16872" lon="2.39209">
        <ele>193.8</ele>
        <time>2019-06-16T07:25:20.000Z</time>
      </trkpt>
      <trkpt lat="43.16872" lon="2.39212">
        <ele>193.9</ele>
        <time>2019-06-16T07:25:21.000Z</time>
      </trkpt>
      <trkpt lat="43.16871" lon="2.39214">
        <ele>194</ele>
        <time>2019-06-16T07:25:22.000Z</time>
      </trkpt>
      <trkpt lat="43.1687" lon="2.39216">
        <ele>194.1</ele>
        <time>2019-06-16T07:25:23.000Z</time>
      </trkpt>
      <trkpt lat="43.1687" lon="2.39218">
        <ele>194.3</ele>
        <time>2019-06-16T07:25:24.000Z</time>
      </trkpt>
      <trkpt lat="43.16869" lon="2.3922">
        <ele>194.4</ele>
        <time>2019-06-16T07:25:25.000Z</time>
      </trkpt>
      <trkpt lat="43.16868" lon="2.39221">
        <ele>194.5</ele>
        <time>2019-06-16T07:25:26.000Z</time>
      </trkpt>
      <trkpt lat="43.16867" lon="2.39223">
        <ele>194.6</ele>
        <time>2019-06-16T07:25:27.000Z</time>
      </trkpt>
      <trkpt lat="43.16866" lon="2.39223">
        <ele>194.7</ele>
        <time>2019-06-16T07:25:28.000Z</time>
      </trkpt>
      <trkpt lat="43.16865" lon="2.39224">
        <ele>194.9</ele>
        <time>2019-06-16T07:25:29.000Z</time>
      </trkpt>
      <trkpt lat="43.16865" lon="2.39225">
        <ele>195</ele>
        <time>2019-06-16T07:25:30.000Z</time>
      </trkpt>
      <trkpt lat="43.16864" lon="2.39225">
        <ele>195</ele>
        <time>2019-06-16T07:25:31.000Z</time>
      </trkpt>
      <trkpt lat="43.16863" lon="2.39226">
        <ele>195.1</ele>
        <time>2019-06-16T07:25:32.000Z</time>
      </trkpt>
      <trkpt lat="43.16863" lon="2.39226">
        <ele>195.2</ele>
        <time>2019-06-16T07:25:33.000Z</time>
      </trkpt>
      <trkpt lat="43.16862" lon="2.39227">
        <ele>195.3</ele>
        <time>2019-06-16T07:25:34.000Z</time>
      </trkpt>
      <trkpt lat="43.16861" lon="2.39228">
        <ele>195.4</ele>
        <time>2019-06-16T07:25:35.000Z</time>
      </trkpt>
      <trkpt lat="43.16861" lon="2.39228">
        <ele>195.4</ele>
        <time>2019-06-16T07:25:36.000Z</time>
      </trkpt>
      <trkpt lat="43.1686" lon="2.39229">
        <ele>195.6</ele>
        <time>2019-06-16T07:25:37.000Z</time>
      </trkpt>
      <trkpt lat="43.16858" lon="2.3923">
        <ele>195.7</ele>
        <time>2019-06-16T07:25:38.000Z</time>
      </trkpt>
      <trkpt lat="43.16857" lon="2.39231">
        <ele>195.9</ele>
        <time>2019-06-16T07:25:39.000Z</time>
      </trkpt>
      <trkpt lat="43.16856" lon="2.39232">
        <ele>196.1</ele>
        <time>2019-06-16T07:25:40.000Z</time>
      </trkpt>
      <trkpt lat="43.16854" lon="2.39233">
        <ele>196.3</ele>
        <time>2019-06-16T07:25:41.000Z</time>
      </trkpt>
      <trkpt lat="43.16852" lon="2.39235">
        <ele>196.5</ele>
        <time>2019-06-16T07:25:42.000Z</time>
      </trkpt>
      <trkpt lat="43.1685" lon="2.39236">
        <ele>196.7</ele>
        <time>2019-06-16T07:25:43.000Z</time>
      </trkpt>
      <trkpt lat="43.16849" lon="2.39237">
        <ele>196.9</ele>
        <time>2019-06-16T07:25:44.000Z</time>
      </trkpt>
      <trkpt lat="43.16847" lon="2.39238">
        <ele>197.2</ele>
        <time>2019-06-16T07:25:45.000Z</time>
      </trkpt>
      <trkpt lat="43.16845" lon="2.39239">
        <ele>197.4</ele>
        <time>2019-06-16T07:25:46.000Z</time>
      </trkpt>
      <trkpt lat="43.16843" lon="2.3924">
        <ele>197.6</ele>
        <time>2019-06-16T07:25:47.000Z</time>
      </trkpt>
      <trkpt lat="43.16841" lon="2.39241">
        <ele>197.9</ele>
        <time>2019-06-16T07:25:48.000Z</time>
      </trkpt>
      <trkpt lat="43.16839" lon="2.39241">
        <ele>198.1</ele>
        <time>2019-06-16T07:25:49.000Z</time>
      </trkpt>
      <trkpt lat="43.16837" lon="2.39242">
        <ele>198.3</ele>
        <time>2019-06-16T07:25:50.000Z</time>
      </trkpt>
      <trkpt lat="43.16835" lon="2.39244">
        <ele>198.6</ele>
        <time>2019-06-16T07:25:51.000Z</time>
      </trkpt>
      <trkpt lat="43.16834" lon="2.39245">
        <ele>198.8</ele>
        <time>2019-06-16T07:25:52.000Z</time>
      </trkpt>
      <trkpt lat="43.16832" lon="2.39247">
        <ele>199.1</ele>
        <time>2019-06-16T07:25:53.000Z</time>
      </trkpt>
      <trkpt lat="43.1683" lon="2.39249">
        <ele>199.5</ele>
        <time>2019-06-16T07:25:54.000Z</time>
      </trkpt>
      <trkpt lat="43.16828" lon="2.39251">
        <ele>199.8</ele>
        <time>2019-06-16T07:25:55.000Z</time>
      </trkpt>
      <trkpt lat="43.16827" lon="2.39253">
        <ele>200</ele>
        <time>2019-06-16T07:25:56.000Z</time>
      </trkpt>
      <trkpt lat="43.16825" lon="2.39255">
        <ele>200.2</ele>
        <time>2019-06-16T07:25:57.000Z</time>
      </trkpt>
      <trkpt lat="43.16824" lon="2.39258">
        <ele>200.4</ele>
        <time>2019-06-16T07:25:58.000Z</time>
      </trkpt>
      <trkpt lat="43.16822" lon="2.3926">
        <ele>200.6</ele>
        <time>2019-06-16T07:25:59.000Z</time>
      </trkpt>
      <trkpt lat="43.16821" lon="2.39263">
        <ele>200.8</ele>
        <time>2019-06-16T07:26:00.000Z</time>
      </trkpt>
      <trkpt lat="43.1682" lon="2.39266">
        <ele>200.9</ele>
        <time>2019-06-16T07:26:01.000Z</time>
      </trkpt>
      <trkpt lat="43.16819" lon="2.39268">
        <ele>201</ele>
        <time>2019-06-16T07:26:02.000Z</time>
      </trkpt>
      <trkpt lat="43.16818" lon="2.39271">
        <ele>201.2</ele>
        <time>2019-06-16T07:26:03.000Z</time>
      </trkpt>
      <trkpt lat="43.16817" lon="2.39274">
        <ele>201.2</ele>
        <time>2019-06-16T07:26:04.000Z</time>
      </trkpt>
      <trkpt lat="43.16816" lon="2.39277">
        <ele>201.3</ele>
        <time>2019-06-16T07:26:05.000Z</time>
      </trkpt>
      <trkpt lat="43.16816" lon="2.3928">
        <ele>201.4</ele>
        <time>2019-06-16T07:26:06.000Z</time>
      </trkpt>
      <trkpt lat="43.16815" lon="2.39283">
        <ele>201.4</ele>
        <time>2019-06-16T07:26:07.000Z</time>
      </trkpt>
      <trkpt lat="43.16815" lon="2.39286">
        <ele>201.4</ele>
        <time>2019-06-16T07:26:08.000Z</time>
      </trkpt>
      <trkpt lat="43.16815" lon="2.39289">
        <ele>201.4</ele>
        <time>2019-06-16T07:26:09.000Z</time>
      </trkpt>
      <trkpt lat="43.16815" lon="2.39292">
        <ele>201.4</ele>
        <time>2019-06-16T07:26:10.000Z</time>
      </trkpt>
      <trkpt lat="43.16815" lon="2.39295">
        <ele>201.4</ele>
        <time>2019-06-16T07:26:11.000Z</time>
      </trkpt>
      <trkpt lat="43.16815" lon="2.39299">
        <ele>201.3</ele>
        <time>2019-06-16T07:26:12.000Z</time>
      </trkpt>
      <trkpt lat="43.16815" lon="2.39302">
        <ele>201.3</ele>
        <time>2019-06-16T07:26:13.000Z</time>
      </trkpt>
      <trkpt lat="43.16815" lon="2.39305">
        <ele>201.2</ele>
        <time>2019-06-16T07:26:14.000Z</time>
      </trkpt>
      <trkpt lat="43.16815" lon="2.39308">
        <ele>201.2</ele>
        <time>2019-06-16T07:26:15.000Z</time>
      </trkpt>
      <trkpt lat="43.16815" lon="2.39311">
        <ele>201.2</ele>
        <time>2019-06-16T07:26:16.000Z</time>
      </trkpt>
      <trkpt lat="43.16815" lon="2.39314">
        <ele>201.2</ele>
        <time>2019-06-16T07:26:17.000Z</time>
      </trkpt>
      <trkpt lat="43.16814" lon="2.39317">
        <ele>201.2</ele>
        <time>2019-06-16T07:26:18.000Z</time>
      </trkpt>
      <trkpt lat="43.16814" lon="2.3932">
        <ele>201.2</ele>
        <time>2019-06-16T07:26:19.000Z</time>
      </trkpt>
      <trkpt lat="43.16814" lon="2.39323">
        <ele>201.2</ele>
        <time>2019-06-16T07:26:20.000Z</time>
      </trkpt>
      <trkpt lat="43.16813" lon="2.39326">
        <ele>201.2</ele>
        <time>2019-06-16T07:26:21.000Z</time>
      </trkpt>
      <trkpt lat="43.16813" lon="2.39329">
        <ele>201.3</ele>
        <time>2019-06-16T07:26:22.000Z</time>
      </trkpt>
      <trkpt lat="43.16812" lon="2.39332">
        <ele>201.4</ele>
        <time>2019-06-16T07:26:23.000Z</time>
      </trkpt>
      <trkpt lat="43.16811" lon="2.39334">
        <ele>201.5</ele>
        <time>2019-06-16T07:26:24.000Z</time>
      </trkpt>
      <trkpt lat="43.1681" lon="2.39337">
        <ele>201.6</ele>
        <time>2019-06-16T07:26:25.000Z</time>
      </trkpt>
      <trkpt lat="43.1681" lon="2.3934">
        <ele>201.7</ele>
        <time>2019-06-16T07:26:26.000Z</time>
      </trkpt>
      <trkpt lat="43.16809" lon="2.39342">
        <ele>201.9</ele>
        <time>2019-06-16T07:26:27.000Z</time>
      </trkpt>
      <trkpt lat="43.16808" lon="2.39345">
        <ele>202</ele>
        <time>2019-06-16T07:26:28.000Z</time>
      </trkpt>
      <trkpt lat="43.16807" lon="2.39347">
        <ele>202.2</ele>
        <time>2019-06-16T07:26:29.000Z</time>
      </trkpt>
      <trkpt lat="43.16806" lon="2.3935">
        <ele>202.3</ele>
        <time>2019-06-16T07:26:30.000Z</time>
      </trkpt>
      <trkpt lat="43.16805" lon="2.39352">
        <ele>202.5</ele>
        <time>2019-06-16T07:26:31.000Z</time>
      </trkpt>
      <trkpt lat="43.16803" lon="2.39355">
        <ele>202.7</ele>
        <time>2019-06-16T07:26:32.000Z</time>
      </trkpt>
      <trkpt lat="43.16802" lon="2.39357">
        <ele>202.9</ele>
        <time>2019-06-16T07:26:33.000Z</time>
      </trkpt>
      <trkpt lat="43.16801" lon="2.39359">
        <ele>203</ele>
        <time>2019-06-16T07:26:34.000Z</time>
      </trkpt>
      <trkpt lat="43.168" lon="2.39362">
        <ele>203.2</ele>
        <time>2019-06-16T07:26:35.000Z</time>
      </trkpt>
      <trkpt lat="43.16799" lon="2.39364">
        <ele>203.4</ele>
        <time>2019-06-16T07:26:36.000Z</time>
      </trkpt>
      <trkpt lat="43.16797" lon="2.39366">
        <ele>203.6</ele>
        <time>2019-06-16T07:26:37.000Z</time>
      </trkpt>
      <trkpt lat="43.16796" lon="2.39368">
        <ele>203.8</ele>
        <time>2019-06-16T07:26:38.000Z</time>
      </trkpt>
      <trkpt lat="43.16795" lon="2.39371">
        <ele>204</ele>
        <time>2019-06-16T07:26:39.000Z</time>
      </trkpt>
      <trkpt lat="43.16793" lon="2.39373">
        <ele>204.3</ele>
        <time>2019-06-16T07:26:40.000Z</time>
      </trkpt>
      <trkpt lat="43.16792" lon="2.39375">
        <ele>204.5</ele>
        <time>2019-06-16T07:26:41.000Z</time>
      </trkpt>
      <trkpt lat="43.16791" lon="2.39377">
        <ele>204.7</ele>
        <time>2019-06-16T07:26:42.000Z</time>
      </trkpt>
      <trkpt lat="43.16789" lon="2.39379">
        <ele>204.9</ele>
        <time>2019-06-16T07:26:43.000Z</time>
      </trkpt>
      <trkpt lat="43.16788" lon="2.39382">
        <ele>205.1</ele>
        <time>2019-06-16T07:26:44.000Z</time>
      </trkpt>
      <trkpt lat="43.16786" lon="2.39384">
        <ele>205.3</ele>
        <time>2019-06-16T07:26:45.000Z</time>
      </trkpt>
      <trkpt lat="43.16785" lon="2.39386">
        <ele>205.6</ele>
        <time>2019-06-16T07:26:46.000Z</time>
      </trkpt>
      <trkpt lat="43.16784" lon="2.39388">
        <ele>205.8</ele>
        <time>2019-06-16T07:26:47.000Z</time>
      </trkpt>
      <trkpt lat="43.16782" lon="2.3939">
        <ele>206</ele>
        <time>2019-06-16T07:26:48.000Z</time>
      </trkpt>
      <trkpt lat="43.16781" lon="2.39392">
        <ele>206.2</ele>
        <time>2019-06-16T07:26:49.000Z</time>
      </trkpt>
      <trkpt lat="43.16779" lon="2.39395">
        <ele>206.4</ele>
        <time>2019-06-16T07:26:50.000Z</time>
      </trkpt>
      <trkpt lat="43.16778" lon="2.39397">
        <ele>206.6</ele>
        <time>2019-06-16T07:26:51.000Z</time>
      </trkpt>
      <trkpt lat="43.16777" lon="2.39399">
        <ele>206.9</ele>
        <time>2019-06-16T07:26:52.000Z</time>
      </trkpt>
      <trkpt lat="43.16775" lon="2.39401">
        <ele>207.1</ele>
        <time>2019-06-16T07:26:53.000Z</time>
      </trkpt>
      <trkpt lat="43.16774" lon="2.39403">
        <ele>207.3</ele>
        <time>2019-06-16T07:26:54.000Z</time>
      </trkpt>
      <trkpt lat="43.16772" lon="2.39406">
        <ele>207.5</ele>
        <time>2019-06-16T07:26:55.000Z</time>
      </trkpt>
      <trkpt lat="43.16771" lon="2.39408">
        <ele>207.7</ele>
        <time>2019-06-16T07:26:56.000Z</time>
      </trkpt>
      <trkpt lat="43.1677" lon="2.3941">
        <ele>207.9</ele>
        <time>2019-06-16T07:26:57.000Z</time>
      </trkpt>
      <trkpt lat="43.16768" lon="2.39412">
        <ele>208.1</ele>
        <time>2019-06-16T07:26:58.000Z</time>
      </trkpt>
      <trkpt lat="43.16767" lon="2.39414">
        <ele>208.3</ele>
        <time>2019-06-16T07:26:59.000Z</time>
      </trkpt>
      <trkpt lat="43.16766" lon="2.39416">
        <ele>208.6</ele>
        <time>2019-06-16T07:27:00.000Z</time>
      </trkpt>
      <trkpt lat="43.16764" lon="2.39418">
        <ele>208.8</ele>
        <time>2019-06-16T07:27:01.000Z</time>
      </trkpt>
      <trkpt lat="43.16763" lon="2.39421">
        <ele>209</ele>
        <time>2019-06-16T07:27:02.000Z</time>
      </trkpt>
      <trkpt lat="43.16762" lon="2.39423">
        <ele>209.2</ele>
        <time>2019-06-16T07:27:03.000Z</time>
      </trkpt>
      <trkpt lat="43.1676" lon="2.39425">
        <ele>209.4</ele>
        <time>2019-06-16T07:27:04.000Z</time>
      </trkpt>
      <trkpt lat="43.16759" lon="2.39427">
        <ele>209.6</ele>
        <time>2019-06-16T07:27:05.000Z</time>
      </trkpt>
      <trkpt lat="43.16758" lon="2.39429">
        <ele>209.9</ele>
        <time>2019-06-16T07:27:06.000Z</time>
      </trkpt>
      <trkpt lat="43.16757" lon="2.39431">
        <ele>210.1</ele>
        <time>2019-06-16T07:27:07.000Z</time>
      </trkpt>
      <trkpt lat="43.16755" lon="2.39433">
        <ele>210.3</ele>
        <time>2019-06-16T07:27:08.000Z</time>
      </trkpt>
      <trkpt lat="43.16754" lon="2.39435">
        <ele>210.5</ele>
        <time>2019-06-16T07:27:09.000Z</time>
      </trkpt>
      <trkpt lat="43.16753" lon="2.39437">
        <ele>210.7</ele>
        <time>2019-06-16T07:27:10.000Z</time>
      </trkpt>
      <trkpt lat="43.16752" lon="2.39439">
        <ele>211</ele>
        <time>2019-06-16T07:27:11.000Z</time>
      </trkpt>
      <trkpt lat="43.16751" lon="2.3944">
        <ele>211.2</ele>
        <time>2019-06-16T07:27:12.000Z</time>
      </trkpt>
      <trkpt lat="43.1675" lon="2.39442">
        <ele>211.4</ele>
        <time>2019-06-16T07:27:13.000Z</time>
      </trkpt>
      <trkpt lat="43.16748" lon="2.39444">
        <ele>211.7</ele>
        <time>2019-06-16T07:27:14.000Z</time>
      </trkpt>
      <trkpt lat="43.16747" lon="2.39446">
        <ele>212</ele>
        <time>2019-06-16T07:27:15.000Z</time>
      </trkpt>
      <trkpt lat="43.16746" lon="2.39448">
        <ele>212.2</ele>
        <time>2019-06-16T07:27:16.000Z</time>
      </trkpt>
      <trkpt lat="43.16745" lon="2.3945">
        <ele>212.5</ele>
        <time>2019-06-16T07:27:17.000Z</time>
      </trkpt>
      <trkpt lat="43.16744" lon="2.39452">
        <ele>212.7</ele>
        <time>2019-06-16T07:27:18.000Z</time>
      </trkpt>
      <trkpt lat="43.16743" lon="2.39455">
        <ele>213</ele>
        <time>2019-06-16T07:27:19.000Z</time>
      </trkpt>
      <trkpt lat="43.16742" lon="2.39457">
        <ele>213.3</ele>
        <time>2019-06-16T07:27:20.000Z</time>
      </trkpt>
      <trkpt lat="43.16741" lon="2.39459">
        <ele>213.6</ele>
        <time>2019-06-16T07:27:21.000Z</time>
      </trkpt>
      <trkpt lat="43.16739" lon="2.39461">
        <ele>213.8</ele>
        <time>2019-06-16T07:27:22.000Z</time>
      </trkpt>
      <trkpt lat="43.16738" lon="2.39463">
        <ele>214.1</ele>
        <time>2019-06-16T07:27:23.000Z</time>
      </trkpt>
      <trkpt lat="43.16737" lon="2.39465">
        <ele>214.4</ele>
        <time>2019-06-16T07:27:24.000Z</time>
      </trkpt>
      <trkpt lat="43.16736" lon="2.39467">
        <ele>214.7</ele>
        <time>2019-06-16T07:27:25.000Z</time>
      </trkpt>
      <trkpt lat="43.16735" lon="2.39469">
        <ele>215</ele>
        <time>2019-06-16T07:27:26.000Z</time>
      </trkpt>
      <trkpt lat="43.16734" lon="2.39471">
        <ele>215.3</ele>
        <time>2019-06-16T07:27:27.000Z</time>
      </trkpt>
      <trkpt lat="43.16733" lon="2.39473">
        <ele>215.7</ele>
        <time>2019-06-16T07:27:28.000Z</time>
      </trkpt>
      <trkpt lat="43.16731" lon="2.39475">
        <ele>216</ele>
        <time>2019-06-16T07:27:29.000Z</time>
      </trkpt>
      <trkpt lat="43.1673" lon="2.39477">
        <ele>216.4</ele>
        <time>2019-06-16T07:27:30.000Z</time>
      </trkpt>
      <trkpt lat="43.16729" lon="2.39479">
        <ele>216.7</ele>
        <time>2019-06-16T07:27:31.000Z</time>
      </trkpt>
      <trkpt lat="43.16728" lon="2.39481">
        <ele>217.1</ele>
        <time>2019-06-16T07:27:32.000Z</time>
      </trkpt>
      <trkpt lat="43.16726" lon="2.39483">
        <ele>217.5</ele>
        <time>2019-06-16T07:27:33.000Z</time>
      </trkpt>
      <trkpt lat="43.16725" lon="2.39485">
        <ele>217.9</ele>
        <time>2019-06-16T07:27:34.000Z</time>
      </trkpt>
      <trkpt lat="43.16723" lon="2.39486">
        <ele>218.3</ele>
        <time>2019-06-16T07:27:35.000Z</time>
      </trkpt>
      <trkpt lat="43.16722" lon="2.39488">
        <ele>218.7</ele>
        <time>2019-06-16T07:27:36.000Z</time>
      </trkpt>
      <trkpt lat="43.1672" lon="2.39489">
        <ele>219.1</ele>
        <time>2019-06-16T07:27:37.000Z</time>
      </trkpt>
      <trkpt lat="43.16719" lon="2.3949">
        <ele>219.5</ele>
        <time>2019-06-16T07:27:38.000Z</time>
      </trkpt>
      <trkpt lat="43.16717" lon="2.39492">
        <ele>219.9</ele>
        <time>2019-06-16T07:27:39.000Z</time>
      </trkpt>
      <trkpt lat="43.16716" lon="2.39493">
        <ele>220.3</ele>
        <time>2019-06-16T07:27:40.000Z</time>
      </trkpt>
      <trkpt lat="43.16715" lon="2.39494">
        <ele>220.6</ele>
        <time>2019-06-16T07:27:41.000Z</time>
      </trkpt>
      <trkpt lat="43.16714" lon="2.39496">
        <ele>220.9</ele>
        <time>2019-06-16T07:27:42.000Z</time>
      </trkpt>
      <trkpt lat="43.16713" lon="2.39497">
        <ele>221.2</ele>
        <time>2019-06-16T07:27:43.000Z</time>
      </trkpt>
      <trkpt lat="43.16712" lon="2.39498">
        <ele>221.6</ele>
        <time>2019-06-16T07:27:44.000Z</time>
      </trkpt>
      <trkpt lat="43.16711" lon="2.39499">
        <ele>221.9</ele>
        <time>2019-06-16T07:27:45.000Z</time>
      </trkpt>
      <trkpt lat="43.16709" lon="2.395">
        <ele>222.3</ele>
        <time>2019-06-16T07:27:46.000Z</time>
      </trkpt>
      <trkpt lat="43.16708" lon="2.39501">
        <ele>222.6</ele>
        <time>2019-06-16T07:27:47.000Z</time>
      </trkpt>
      <trkpt lat="43.16707" lon="2.39502">
        <ele>223</ele>
        <time>2019-06-16T07:27:48.000Z</time>
      </trkpt>
      <trkpt lat="43.16705" lon="2.39503">
        <ele>223.4</ele>
        <time>2019-06-16T07:27:49.000Z</time>
      </trkpt>
      <trkpt lat="43.16704" lon="2.39505">
        <ele>223.9</ele>
        <time>2019-06-16T07:27:50.000Z</time>
      </trkpt>
      <trkpt lat="43.16702" lon="2.39506">
        <ele>224.4</ele>
        <time>2019-06-16T07:27:51.000Z</time>
      </trkpt>
      <trkpt lat="43.167" lon="2.39507">
        <ele>224.8</ele>
        <time>2019-06-16T07:27:52.000Z</time>
      </trkpt>
      <trkpt lat="43.16698" lon="2.39509">
        <ele>225.3</ele>
        <time>2019-06-16T07:27:53.000Z</time>
      </trkpt>
      <trkpt lat="43.16697" lon="2.3951">
        <ele>225.9</ele>
        <time>2019-06-16T07:27:54.000Z</time>
      </trkpt>
      <trkpt lat="43.16695" lon="2.39511">
        <ele>226.4</ele>
        <time>2019-06-16T07:27:55.000Z</time>
      </trkpt>
      <trkpt lat="43.16693" lon="2.39512">
        <ele>226.8</ele>
        <time>2019-06-16T07:27:56.000Z</time>
      </trkpt>
      <trkpt lat="43.16691" lon="2.39513">
        <ele>227.3</ele>
        <time>2019-06-16T07:27:57.000Z</time>
      </trkpt>
      <trkpt lat="43.1669" lon="2.39514">
        <ele>227.8</ele>
        <time>2019-06-16T07:27:58.000Z</time>
      </trkpt>
      <trkpt lat="43.16688" lon="2.39515">
        <ele>228.1</ele>
        <time>2019-06-16T07:27:59.000Z</time>
      </trkpt>
      <trkpt lat="43.16687" lon="2.39516">
        <ele>228.5</ele>
        <time>2019-06-16T07:28:00.000Z</time>
      </trkpt>
      <trkpt lat="43.16686" lon="2.39517">
        <ele>228.8</ele>
        <time>2019-06-16T07:28:01.000Z</time>
      </trkpt>
      <trkpt lat="43.16685" lon="2.39518">
        <ele>229.2</ele>
        <time>2019-06-16T07:28:02.000Z</time>
      </trkpt>
      <trkpt lat="43.16684" lon="2.39518">
        <ele>229.5</ele>
        <time>2019-06-16T07:28:03.000Z</time>
      </trkpt>
      <trkpt lat="43.16683" lon="2.39519">
        <ele>229.8</ele>
        <time>2019-06-16T07:28:04.000Z</time>
      </trkpt>
      <trkpt lat="43.16682" lon="2.3952">
        <ele>230.1</ele>
        <time>2019-06-16T07:28:05.000Z</time>
      </trkpt>
      <trkpt lat="43.1668" lon="2.39521">
        <ele>230.5</ele>
        <time>2019-06-16T07:28:06.000Z</time>
      </trkpt>
      <trkpt lat="43.16679" lon="2.39522">
        <ele>230.9</ele>
        <time>2019-06-16T07:28:07.000Z</time>
      </trkpt>
      <trkpt lat="43.16677" lon="2.39523">
        <ele>231.3</ele>
        <time>2019-06-16T07:28:08.000Z</time>
      </trkpt>
      <trkpt lat="43.16676" lon="2.39524">
        <ele>231.7</ele>
        <time>2019-06-16T07:28:09.000Z</time>
      </trkpt>
      <trkpt lat="43.16675" lon="2.39526">
        <ele>232.1</ele>
        <time>2019-06-16T07:28:10.000Z</time>
      </trkpt>
      <trkpt lat="43.16674" lon="2.39527">
        <ele>232.3</ele>
        <time>2019-06-16T07:28:11.000Z</time>
      </trkpt>
      <trkpt lat="43.16674" lon="2.39529">
        <ele>232.5</ele>
        <time>2019-06-16T07:28:12.000Z</time>
      </trkpt>
      <trkpt lat="43.16674" lon="2.39531">
        <ele>232.6</ele>
        <time>2019-06-16T07:28:13.000Z</time>
      </trkpt>
      <trkpt lat="43.16674" lon="2.39534">
        <ele>232.7</ele>
        <time>2019-06-16T07:28:14.000Z</time>
      </trkpt>
      <trkpt lat="43.16674" lon="2.39536">
        <ele>232.8</ele>
        <time>2019-06-16T07:28:15.000Z</time>
      </trkpt>
      <trkpt lat="43.16674" lon="2.39537">
        <ele>232.8</ele>
        <time>2019-06-16T07:28:16.000Z</time>
      </trkpt>
      <trkpt lat="43.16674" lon="2.39539">
        <ele>232.9</ele>
        <time>2019-06-16T07:28:17.000Z</time>
      </trkpt>
      <trkpt lat="43.16674" lon="2.39541">
        <ele>233</ele>
        <time>2019-06-16T07:28:18.000Z</time>
      </trkpt>
      <trkpt lat="43.16674" lon="2.39543">
        <ele>233.1</ele>
        <time>2019-06-16T07:28:19.000Z</time>
      </trkpt>
      <trkpt lat="43.16674" lon="2.39545">
        <ele>233.2</ele>
        <time>2019-06-16T07:28:20.000Z</time>
      </trkpt>
      <trkpt lat="43.16674" lon="2.39548">
        <ele>233.3</ele>
        <time>2019-06-16T07:28:21.000Z</time>
      </trkpt>
      <trkpt lat="43.16674" lon="2.3955">
        <ele>233.5</ele>
        <time>2019-06-16T07:28:22.000Z</time>
      </trkpt>
      <trkpt lat="43.16674" lon="2.39553">
        <ele>233.6</ele>
        <time>2019-06-16T07:28:23.000Z</time>
      </trkpt>
      <trkpt lat="43.16674" lon="2.39555">
        <ele>233.8</ele>
        <time>2019-06-16T07:28:24.000Z</time>
      </trkpt>
      <trkpt lat="43.16673" lon="2.39558">
        <ele>234</ele>
        <time>2019-06-16T07:28:25.000Z</time>
      </trkpt>
      <trkpt lat="43.16673" lon="2.39561">
        <ele>234.2</ele>
        <time>2019-06-16T07:28:26.000Z</time>
      </trkpt>
      <trkpt lat="43.16673" lon="2.39563">
        <ele>234.4</ele>
        <time>2019-06-16T07:28:27.000Z</time>
      </trkpt>
      <trkpt lat="43.16673" lon="2.39565">
        <ele>234.5</ele>
        <time>2019-06-16T07:28:28.000Z</time>
      </trkpt>
      <trkpt lat="43.16672" lon="2.39566">
        <ele>234.7</ele>
        <time>2019-06-16T07:28:29.000Z</time>
      </trkpt>
      <trkpt lat="43.16672" lon="2.39568">
        <ele>234.8</ele>
        <time>2019-06-16T07:28:30.000Z</time>
      </trkpt>
      <trkpt lat="43.16672" lon="2.39568">
        <ele>234.8</ele>
        <time>2019-06-16T07:28:31.000Z</time>
      </trkpt>
      <trkpt lat="43.16672" lon="2.39569">
        <ele>234.8</ele>
        <time>2019-06-16T07:28:32.000Z</time>
      </trkpt>
      <trkpt lat="43.16672" lon="2.39569">
        <ele>234.9</ele>
        <time>2019-06-16T07:28:33.000Z</time>
      </trkpt>
      <trkpt lat="43.16672" lon="2.39569">
        <ele>234.9</ele>
        <time>2019-06-16T07:28:34.000Z</time>
      </trkpt>
      <trkpt lat="43.16672" lon="2.39569">
        <ele>234.9</ele>
        <time>2019-06-16T07:28:35.000Z</time>
      </trkpt>
      <trkpt lat="43.16672" lon="2.39569">
        <ele>234.9</ele>
        <time>2019-06-16T07:28:36.000Z</time>
      </trkpt>
      <trkpt lat="43.16672" lon="2.39569">
        <ele>234.9</ele>
        <time>2019-06-16T07:28:37.000Z</time>
      </trkpt>
      <trkpt lat="43.16672" lon="2.39569">
        <ele>234.9</ele>
        <time>2019-06-16T07:28:38.000Z</time>
      </trkpt>
      <trkpt lat="43.16672" lon="2.39569">
        <ele>234.9</ele>
        <time>2019-06-16T07:28:39.000Z</time>
      </trkpt>
      <trkpt lat="43.16672" lon="2.3957">
        <ele>234.9</ele>
        <time>2019-06-16T07:28:40.000Z</time>
      </trkpt>
      <trkpt lat="43.16672" lon="2.3957">
        <ele>235</ele>
        <time>2019-06-16T07:28:41.000Z</time>
      </trkpt>
      <trkpt lat="43.16672" lon="2.39571">
        <ele>235</ele>
        <time>2019-06-16T07:28:42.000Z</time>
      </trkpt>
      <trkpt lat="43.16672" lon="2.39571">
        <ele>235</ele>
        <time>2019-06-16T07:28:43.000Z</time>
      </trkpt>
      <trkpt lat="43.16672" lon="2.39572">
        <ele>235.1</ele>
        <time>2019-06-16T07:28:44.000Z</time>
      </trkpt>
      <trkpt lat="43.16672" lon="2.39572">
        <ele>235.1</ele>
        <time>2019-06-16T07:28:45.000Z</time>
      </trkpt>
      <trkpt lat="43.16672" lon="2.39572">
        <ele>235.1</ele>
        <time>2019-06-16T07:28:46.000Z</time>
      </trkpt>
      <trkpt lat="43.16672" lon="2.39572">
        <ele>235.2</ele>
        <time>2019-06-16T07:28:47.000Z</time>
      </trkpt>
      <trkpt lat="43.16672" lon="2.39573">
        <ele>235.2</ele>
        <time>2019-06-16T07:28:48.000Z</time>
      </trkpt>
      <trkpt lat="43.16671" lon="2.39573">
        <ele>235.2</ele>
        <time>2019-06-16T07:28:49.000Z</time>
      </trkpt>
      <trkpt lat="43.16671" lon="2.39573">
        <ele>235.2</ele>
        <time>2019-06-16T07:28:50.000Z</time>
      </trkpt>
      <trkpt lat="43.16671" lon="2.39574">
        <ele>235.2</ele>
        <time>2019-06-16T07:28:51.000Z</time>
      </trkpt>
      <trkpt lat="43.16671" lon="2.39574">
        <ele>235.3</ele>
        <time>2019-06-16T07:28:52.000Z</time>
      </trkpt>
      <trkpt lat="43.16671" lon="2.39574">
        <ele>235.3</ele>
        <time>2019-06-16T07:28:53.000Z</time>
      </trkpt>
      <trkpt lat="43.16671" lon="2.39575">
        <ele>235.3</ele>
        <time>2019-06-16T07:28:54.000Z</time>
      </trkpt>
      <trkpt lat="43.16671" lon="2.39575">
        <ele>235.3</ele>
        <time>2019-06-16T07:28:55.000Z</time>
      </trkpt>
      <trkpt lat="43.16671" lon="2.39575">
        <ele>235.3</ele>
        <time>2019-06-16T07:28:56.000Z</time>
      </trkpt>
      <trkpt lat="43.16671" lon="2.39575">
        <ele>235.3</ele>
        <time>2019-06-16T07:28:57.000Z</time>
      </trkpt>
      <trkpt lat="43.16671" lon="2.39575">
        <ele>235.3</ele>
        <time>2019-06-16T07:28:58.000Z</time>
      </trkpt>
      <trkpt lat="43.16671" lon="2.39575">
        <ele>235.3</ele>
        <time>2019-06-16T07:28:59.000Z</time>
      </trkpt>
      <trkpt lat="43.16671" lon="2.39575">
        <ele>235.3</ele>
        <time>2019-06-16T07:29:00.000Z</time>
      </trkpt>
      <trkpt lat="43.16671" lon="2.39575">
        <ele>235.3</ele>
        <time>2019-06-16T07:29:01.000Z</time>
      </trkpt>
      <trkpt lat="43.16671" lon="2.39575">
        <ele>235.4</ele>
        <time>2019-06-16T07:29:02.000Z</time>
      </trkpt>
      <trkpt lat="43.16671" lon="2.39576">
        <ele>235.4</ele>
        <time>2019-06-16T07:29:03.000Z</time>
      </trkpt>
      <trkpt lat="43.16671" lon="2.39577">
        <ele>235.4</ele>
        <time>2019-06-16T07:29:04.000Z</time>
      </trkpt>
      <trkpt lat="43.16671" lon="2.39578">
        <ele>235.4</ele>
        <time>2019-06-16T07:29:05.000Z</time>
      </trkpt>
      <trkpt lat="43.16671" lon="2.39579">
        <ele>235.5</ele>
        <time>2019-06-16T07:29:06.000Z</time>
      </trkpt>
      <trkpt lat="43.16672" lon="2.39581">
        <ele>235.5</ele>
        <time>2019-06-16T07:29:07.000Z</time>
      </trkpt>
      <trkpt lat="43.16672" lon="2.39583">
        <ele>235.6</ele>
        <time>2019-06-16T07:29:08.000Z</time>
      </trkpt>
      <trkpt lat="43.16672" lon="2.39585">
        <ele>235.6</ele>
        <time>2019-06-16T07:29:09.000Z</time>
      </trkpt>
      <trkpt lat="43.16672" lon="2.39588">
        <ele>235.5</ele>
        <time>2019-06-16T07:29:10.000Z</time>
      </trkpt>
      <trkpt lat="43.16672" lon="2.3959">
        <ele>235.5</ele>
        <time>2019-06-16T07:29:11.000Z</time>
      </trkpt>
      <trkpt lat="43.16672" lon="2.39594">
        <ele>235.4</ele>
        <time>2019-06-16T07:29:12.000Z</time>
      </trkpt>
      <trkpt lat="43.16672" lon="2.39597">
        <ele>235.4</ele>
        <time>2019-06-16T07:29:13.000Z</time>
      </trkpt>
      <trkpt lat="43.16672" lon="2.396">
        <ele>235.3</ele>
        <time>2019-06-16T07:29:14.000Z</time>
      </trkpt>
      <trkpt lat="43.16671" lon="2.39604">
        <ele>235.3</ele>
        <time>2019-06-16T07:29:15.000Z</time>
      </trkpt>
      <trkpt lat="43.16671" lon="2.39607">
        <ele>235.3</ele>
        <time>2019-06-16T07:29:16.000Z</time>
      </trkpt>
      <trkpt lat="43.16671" lon="2.3961">
        <ele>235.3</ele>
        <time>2019-06-16T07:29:17.000Z</time>
      </trkpt>
      <trkpt lat="43.1667" lon="2.39614">
        <ele>235.4</ele>
        <time>2019-06-16T07:29:18.000Z</time>
      </trkpt>
      <trkpt lat="43.1667" lon="2.39617">
        <ele>235.4</ele>
        <time>2019-06-16T07:29:19.000Z</time>
      </trkpt>
      <trkpt lat="43.16669" lon="2.3962">
        <ele>235.5</ele>
        <time>2019-06-16T07:29:20.000Z</time>
      </trkpt>
      <trkpt lat="43.16669" lon="2.39623">
        <ele>235.6</ele>
        <time>2019-06-16T07:29:21.000Z</time>
      </trkpt>
      <trkpt lat="43.16668" lon="2.39627">
        <ele>235.7</ele>
        <time>2019-06-16T07:29:22.000Z</time>
      </trkpt>
      <trkpt lat="43.16667" lon="2.3963">
        <ele>235.8</ele>
        <time>2019-06-16T07:29:23.000Z</time>
      </trkpt>
      <trkpt lat="43.16667" lon="2.39633">
        <ele>235.8</ele>
        <time>2019-06-16T07:29:24.000Z</time>
      </trkpt>
      <trkpt lat="43.16666" lon="2.39636">
        <ele>235.9</ele>
        <time>2019-06-16T07:29:25.000Z</time>
      </trkpt>
      <trkpt lat="43.16665" lon="2.39639">
        <ele>235.9</ele>
        <time>2019-06-16T07:29:26.000Z</time>
      </trkpt>
      <trkpt lat="43.16665" lon="2.39642">
        <ele>235.9</ele>
        <time>2019-06-16T07:29:27.000Z</time>
      </trkpt>
      <trkpt lat="43.16664" lon="2.39645">
        <ele>236</ele>
        <time>2019-06-16T07:29:28.000Z</time>
      </trkpt>
      <trkpt lat="43.16664" lon="2.39648">
        <ele>236</ele>
        <time>2019-06-16T07:29:29.000Z</time>
      </trkpt>
      <trkpt lat="43.16663" lon="2.39651">
        <ele>236.1</ele>
        <time>2019-06-16T07:29:30.000Z</time>
      </trkpt>
      <trkpt lat="43.16662" lon="2.39654">
        <ele>236.2</ele>
        <time>2019-06-16T07:29:31.000Z</time>
      </trkpt>
      <trkpt lat="43.16661" lon="2.39657">
        <ele>236.3</ele>
        <time>2019-06-16T07:29:32.000Z</time>
      </trkpt>
      <trkpt lat="43.1666" lon="2.39659">
        <ele>236.4</ele>
        <time>2019-06-16T07:29:33.000Z</time>
      </trkpt>
      <trkpt lat="43.16659" lon="2.39662">
        <ele>236.5</ele>
        <time>2019-06-16T07:29:34.000Z</time>
      </trkpt>
      <trkpt lat="43.16658" lon="2.39665">
        <ele>236.7</ele>
        <time>2019-06-16T07:29:35.000Z</time>
      </trkpt>
      <trkpt lat="43.16657" lon="2.39667">
        <ele>236.8</ele>
        <time>2019-06-16T07:29:36.000Z</time>
      </trkpt>
      <trkpt lat="43.16655" lon="2.3967">
        <ele>236.9</ele>
        <time>2019-06-16T07:29:37.000Z</time>
      </trkpt>
      <trkpt lat="43.16654" lon="2.39672">
        <ele>237</ele>
        <time>2019-06-16T07:29:38.000Z</time>
      </trkpt>
      <trkpt lat="43.16653" lon="2.39675">
        <ele>237.2</ele>
        <time>2019-06-16T07:29:39.000Z</time>
      </trkpt>
      <trkpt lat="43.16651" lon="2.39678">
        <ele>237.3</ele>
        <time>2019-06-16T07:29:40.000Z</time>
      </trkpt>
      <trkpt lat="43.1665" lon="2.3968">
        <ele>237.5</ele>
        <time>2019-06-16T07:29:41.000Z</time>
      </trkpt>
      <trkpt lat="43.16649" lon="2.39683">
        <ele>237.6</ele>
        <time>2019-06-16T07:29:42.000Z</time>
      </trkpt>
      <trkpt lat="43.16647" lon="2.39686">
        <ele>237.7</ele>
        <time>2019-06-16T07:29:43.000Z</time>
      </trkpt>
      <trkpt lat="43.16646" lon="2.39688">
        <ele>237.9</ele>
        <time>2019-06-16T07:29:44.000Z</time>
      </trkpt>
      <trkpt lat="43.16644" lon="2.39691">
        <ele>238.1</ele>
        <time>2019-06-16T07:29:45.000Z</time>
      </trkpt>
      <trkpt lat="43.16643" lon="2.39693">
        <ele>238.3</ele>
        <time>2019-06-16T07:29:46.000Z</time>
      </trkpt>
      <trkpt lat="43.16641" lon="2.39695">
        <ele>238.5</ele>
        <time>2019-06-16T07:29:47.000Z</time>
      </trkpt>
      <trkpt lat="43.16639" lon="2.39697">
        <ele>238.8</ele>
        <time>2019-06-16T07:29:48.000Z</time>
      </trkpt>
      <trkpt lat="43.16638" lon="2.39699">
        <ele>239.1</ele>
        <time>2019-06-16T07:29:49.000Z</time>
      </trkpt>
      <trkpt lat="43.16636" lon="2.397">
        <ele>239.4</ele>
        <time>2019-06-16T07:29:50.000Z</time>
      </trkpt>
      <trkpt lat="43.16634" lon="2.39701">
        <ele>239.8</ele>
        <time>2019-06-16T07:29:51.000Z</time>
      </trkpt>
      <trkpt lat="43.16632" lon="2.39702">
        <ele>240.2</ele>
        <time>2019-06-16T07:29:52.000Z</time>
      </trkpt>
      <trkpt lat="43.16629" lon="2.39702">
        <ele>240.6</ele>
        <time>2019-06-16T07:29:53.000Z</time>
      </trkpt>
      <trkpt lat="43.16627" lon="2.39702">
        <ele>241</ele>
        <time>2019-06-16T07:29:54.000Z</time>
      </trkpt>
      <trkpt lat="43.16625" lon="2.39702">
        <ele>241.4</ele>
        <time>2019-06-16T07:29:55.000Z</time>
      </trkpt>
      <trkpt lat="43.16623" lon="2.39703">
        <ele>241.9</ele>
        <time>2019-06-16T07:29:56.000Z</time>
      </trkpt>
      <trkpt lat="43.16621" lon="2.39703">
        <ele>242.3</ele>
        <time>2019-06-16T07:29:57.000Z</time>
      </trkpt>
      <trkpt lat="43.16618" lon="2.39702">
        <ele>242.7</ele>
        <time>2019-06-16T07:29:58.000Z</time>
      </trkpt>
      <trkpt lat="43.16616" lon="2.39702">
        <ele>243.2</ele>
        <time>2019-06-16T07:29:59.000Z</time>
      </trkpt>
      <trkpt lat="43.16614" lon="2.39702">
        <ele>243.6</ele>
        <time>2019-06-16T07:30:00.000Z</time>
      </trkpt>
      <trkpt lat="43.16612" lon="2.39702">
        <ele>243.9</ele>
        <time>2019-06-16T07:30:01.000Z</time>
      </trkpt>
      <trkpt lat="43.1661" lon="2.39702">
        <ele>244.3</ele>
        <time>2019-06-16T07:30:02.000Z</time>
      </trkpt>
      <trkpt lat="43.16609" lon="2.39702">
        <ele>244.7</ele>
        <time>2019-06-16T07:30:03.000Z</time>
      </trkpt>
      <trkpt lat="43.16607" lon="2.39702">
        <ele>245</ele>
        <time>2019-06-16T07:30:04.000Z</time>
      </trkpt>
      <trkpt lat="43.16605" lon="2.39702">
        <ele>245.3</ele>
        <time>2019-06-16T07:30:05.000Z</time>
      </trkpt>
      <trkpt lat="43.16604" lon="2.39702">
        <ele>245.6</ele>
        <time>2019-06-16T07:30:06.000Z</time>
      </trkpt>
      <trkpt lat="43.16602" lon="2.39702">
        <ele>245.8</ele>
        <time>2019-06-16T07:30:07.000Z</time>
      </trkpt>
      <trkpt lat="43.16601" lon="2.39702">
        <ele>246.1</ele>
        <time>2019-06-16T07:30:08.000Z</time>
      </trkpt>
      <trkpt lat="43.166" lon="2.39703">
        <ele>246.4</ele>
        <time>2019-06-16T07:30:09.000Z</time>
      </trkpt>
      <trkpt lat="43.16598" lon="2.39703">
        <ele>246.7</ele>
        <time>2019-06-16T07:30:10.000Z</time>
      </trkpt>
      <trkpt lat="43.16597" lon="2.39702">
        <ele>247</ele>
        <time>2019-06-16T07:30:11.000Z</time>
      </trkpt>
      <trkpt lat="43.16595" lon="2.39702">
        <ele>247.3</ele>
        <time>2019-06-16T07:30:12.000Z</time>
      </trkpt>
      <trkpt lat="43.16593" lon="2.39702">
        <ele>247.6</ele>
        <time>2019-06-16T07:30:13.000Z</time>
      </trkpt>
      <trkpt lat="43.16592" lon="2.39702">
        <ele>248</ele>
        <time>2019-06-16T07:30:14.000Z</time>
      </trkpt>
      <trkpt lat="43.1659" lon="2.39702">
        <ele>248.3</ele>
        <time>2019-06-16T07:30:15.000Z</time>
      </trkpt>
      <trkpt lat="43.16589" lon="2.39701">
        <ele>248.5</ele>
        <time>2019-06-16T07:30:16.000Z</time>
      </trkpt>
      <trkpt lat="43.16588" lon="2.39701">
        <ele>248.7</ele>
        <time>2019-06-16T07:30:17.000Z</time>
      </trkpt>
      <trkpt lat="43.16587" lon="2.39701">
        <ele>248.8</ele>
        <time>2019-06-16T07:30:18.000Z</time>
      </trkpt>
      <trkpt lat="43.16587" lon="2.397">
        <ele>248.9</ele>
        <time>2019-06-16T07:30:19.000Z</time>
      </trkpt>
      <trkpt lat="43.16587" lon="2.397">
        <ele>248.9</ele>
        <time>2019-06-16T07:30:20.000Z</time>
      </trkpt>
      <trkpt lat="43.16588" lon="2.39699">
        <ele>248.8</ele>
        <time>2019-06-16T07:30:21.000Z</time>
      </trkpt>
      <trkpt lat="43.16589" lon="2.39698">
        <ele>248.6</ele>
        <time>2019-06-16T07:30:22.000Z</time>
      </trkpt>
      <trkpt lat="43.1659" lon="2.39698">
        <ele>248.4</ele>
        <time>2019-06-16T07:30:23.000Z</time>
      </trkpt>
      <trkpt lat="43.16591" lon="2.39698">
        <ele>248.2</ele>
        <time>2019-06-16T07:30:24.000Z</time>
      </trkpt>
      <trkpt lat="43.16592" lon="2.39698">
        <ele>248</ele>
        <time>2019-06-16T07:30:25.000Z</time>
      </trkpt>
      <trkpt lat="43.16593" lon="2.39698">
        <ele>247.8</ele>
        <time>2019-06-16T07:30:26.000Z</time>
      </trkpt>
      <trkpt lat="43.16594" lon="2.39699">
        <ele>247.6</ele>
        <time>2019-06-16T07:30:27.000Z</time>
      </trkpt>
      <trkpt lat="43.16595" lon="2.39699">
        <ele>247.4</ele>
        <time>2019-06-16T07:30:28.000Z</time>
      </trkpt>
      <trkpt lat="43.16596" lon="2.39698">
        <ele>247.2</ele>
        <time>2019-06-16T07:30:29.000Z</time>
      </trkpt>
      <trkpt lat="43.16597" lon="2.39698">
        <ele>247</ele>
        <time>2019-06-16T07:30:30.000Z</time>
      </trkpt>
      <trkpt lat="43.16598" lon="2.39698">
        <ele>246.8</ele>
        <time>2019-06-16T07:30:31.000Z</time>
      </trkpt>
      <trkpt lat="43.16599" lon="2.39697">
        <ele>246.6</ele>
        <time>2019-06-16T07:30:32.000Z</time>
      </trkpt>
      <trkpt lat="43.16601" lon="2.39696">
        <ele>246.3</ele>
        <time>2019-06-16T07:30:33.000Z</time>
      </trkpt>
      <trkpt lat="43.16602" lon="2.39696">
        <ele>246</ele>
        <time>2019-06-16T07:30:34.000Z</time>
      </trkpt>
      <trkpt lat="43.16604" lon="2.39695">
        <ele>245.7</ele>
        <time>2019-06-16T07:30:35.000Z</time>
      </trkpt>
      <trkpt lat="43.16606" lon="2.39694">
        <ele>245.3</ele>
        <time>2019-06-16T07:30:36.000Z</time>
      </trkpt>
      <trkpt lat="43.16608" lon="2.39694">
        <ele>244.9</ele>
        <time>2019-06-16T07:30:37.000Z</time>
      </trkpt>
      <trkpt lat="43.16611" lon="2.39693">
        <ele>244.4</ele>
        <time>2019-06-16T07:30:38.000Z</time>
      </trkpt>
      <trkpt lat="43.16613" lon="2.39693">
        <ele>243.9</ele>
        <time>2019-06-16T07:30:39.000Z</time>
      </trkpt>
      <trkpt lat="43.16616" lon="2.39692">
        <ele>243.5</ele>
        <time>2019-06-16T07:30:40.000Z</time>
      </trkpt>
      <trkpt lat="43.16619" lon="2.39691">
        <ele>243</ele>
        <time>2019-06-16T07:30:41.000Z</time>
      </trkpt>
      <trkpt lat="43.16621" lon="2.3969">
        <ele>242.5</ele>
        <time>2019-06-16T07:30:42.000Z</time>
      </trkpt>
      <trkpt lat="43.16624" lon="2.39689">
        <ele>242.1</ele>
        <time>2019-06-16T07:30:43.000Z</time>
      </trkpt>
      <trkpt lat="43.16626" lon="2.39688">
        <ele>241.7</ele>
        <time>2019-06-16T07:30:44.000Z</time>
      </trkpt>
      <trkpt lat="43.16628" lon="2.39686">
        <ele>241.3</ele>
        <time>2019-06-16T07:30:45.000Z</time>
      </trkpt>
      <trkpt lat="43.1663" lon="2.39684">
        <ele>241</ele>
        <time>2019-06-16T07:30:46.000Z</time>
      </trkpt>
      <trkpt lat="43.16632" lon="2.39682">
        <ele>240.7</ele>
        <time>2019-06-16T07:30:47.000Z</time>
      </trkpt>
      <trkpt lat="43.16634" lon="2.3968">
        <ele>240.4</ele>
        <time>2019-06-16T07:30:48.000Z</time>
      </trkpt>
      <trkpt lat="43.16636" lon="2.39678">
        <ele>240.2</ele>
        <time>2019-06-16T07:30:49.000Z</time>
      </trkpt>
      <trkpt lat="43.16637" lon="2.39676">
        <ele>239.9</ele>
        <time>2019-06-16T07:30:50.000Z</time>
      </trkpt>
      <trkpt lat="43.16639" lon="2.39674">
        <ele>239.7</ele>
        <time>2019-06-16T07:30:51.000Z</time>
      </trkpt>
      <trkpt lat="43.16641" lon="2.39672">
        <ele>239.5</ele>
        <time>2019-06-16T07:30:52.000Z</time>
      </trkpt>
      <trkpt lat="43.16642" lon="2.3967">
        <ele>239.3</ele>
        <time>2019-06-16T07:30:53.000Z</time>
      </trkpt>
      <trkpt lat="43.16644" lon="2.39669">
        <ele>239.1</ele>
        <time>2019-06-16T07:30:54.000Z</time>
      </trkpt>
      <trkpt lat="43.16645" lon="2.39667">
        <ele>238.8</ele>
        <time>2019-06-16T07:30:55.000Z</time>
      </trkpt>
      <trkpt lat="43.16647" lon="2.39665">
        <ele>238.6</ele>
        <time>2019-06-16T07:30:56.000Z</time>
      </trkpt>
      <trkpt lat="43.16648" lon="2.39663">
        <ele>238.4</ele>
        <time>2019-06-16T07:30:57.000Z</time>
      </trkpt>
      <trkpt lat="43.1665" lon="2.39661">
        <ele>238.2</ele>
        <time>2019-06-16T07:30:58.000Z</time>
      </trkpt>
      <trkpt lat="43.16652" lon="2.39658">
        <ele>238</ele>
        <time>2019-06-16T07:30:59.000Z</time>
      </trkpt>
      <trkpt lat="43.16653" lon="2.39655">
        <ele>237.7</ele>
        <time>2019-06-16T07:31:00.000Z</time>
      </trkpt>
      <trkpt lat="43.16655" lon="2.39653">
        <ele>237.5</ele>
        <time>2019-06-16T07:31:01.000Z</time>
      </trkpt>
      <trkpt lat="43.16657" lon="2.3965">
        <ele>237.3</ele>
        <time>2019-06-16T07:31:02.000Z</time>
      </trkpt>
      <trkpt lat="43.16658" lon="2.39647">
        <ele>237.1</ele>
        <time>2019-06-16T07:31:03.000Z</time>
      </trkpt>
      <trkpt lat="43.1666" lon="2.39644">
        <ele>236.9</ele>
        <time>2019-06-16T07:31:04.000Z</time>
      </trkpt>
      <trkpt lat="43.16661" lon="2.39641">
        <ele>236.6</ele>
        <time>2019-06-16T07:31:05.000Z</time>
      </trkpt>
      <trkpt lat="43.16663" lon="2.39638">
        <ele>236.5</ele>
        <time>2019-06-16T07:31:06.000Z</time>
      </trkpt>
      <trkpt lat="43.16664" lon="2.39635">
        <ele>236.3</ele>
        <time>2019-06-16T07:31:07.000Z</time>
      </trkpt>
      <trkpt lat="43.16665" lon="2.39632">
        <ele>236.1</ele>
        <time>2019-06-16T07:31:08.000Z</time>
      </trkpt>
      <trkpt lat="43.16666" lon="2.39629">
        <ele>236</ele>
        <time>2019-06-16T07:31:09.000Z</time>
      </trkpt>
      <trkpt lat="43.16667" lon="2.39627">
        <ele>235.8</ele>
        <time>2019-06-16T07:31:10.000Z</time>
      </trkpt>
      <trkpt lat="43.16668" lon="2.39624">
        <ele>235.6</ele>
        <time>2019-06-16T07:31:11.000Z</time>
      </trkpt>
      <trkpt lat="43.16669" lon="2.39622">
        <ele>235.5</ele>
        <time>2019-06-16T07:31:12.000Z</time>
      </trkpt>
      <trkpt lat="43.1667" lon="2.39619">
        <ele>235.3</ele>
        <time>2019-06-16T07:31:13.000Z</time>
      </trkpt>
      <trkpt lat="43.16671" lon="2.39617">
        <ele>235.2</ele>
        <time>2019-06-16T07:31:14.000Z</time>
      </trkpt>
      <trkpt lat="43.16671" lon="2.39615">
        <ele>235.1</ele>
        <time>2019-06-16T07:31:15.000Z</time>
      </trkpt>
      <trkpt lat="43.16672" lon="2.39613">
        <ele>235</ele>
        <time>2019-06-16T07:31:16.000Z</time>
      </trkpt>
      <trkpt lat="43.16672" lon="2.39611">
        <ele>235</ele>
        <time>2019-06-16T07:31:17.000Z</time>
      </trkpt>
      <trkpt lat="43.16672" lon="2.39609">
        <ele>234.9</ele>
        <time>2019-06-16T07:31:18.000Z</time>
      </trkpt>
      <trkpt lat="43.16673" lon="2.39607">
        <ele>234.9</ele>
        <time>2019-06-16T07:31:19.000Z</time>
      </trkpt>
      <trkpt lat="43.16673" lon="2.39606">
        <ele>234.8</ele>
        <time>2019-06-16T07:31:20.000Z</time>
      </trkpt>
      <trkpt lat="43.16673" lon="2.39605">
        <ele>234.8</ele>
        <time>2019-06-16T07:31:21.000Z</time>
      </trkpt>
      <trkpt lat="43.16674" lon="2.39605">
        <ele>234.7</ele>
        <time>2019-06-16T07:31:22.000Z</time>
      </trkpt>
      <trkpt lat="43.16674" lon="2.39605">
        <ele>234.7</ele>
        <time>2019-06-16T07:31:23.000Z</time>
      </trkpt>
      <trkpt lat="43.16674" lon="2.39606">
        <ele>234.7</ele>
        <time>2019-06-16T07:31:24.000Z</time>
      </trkpt>
      <trkpt lat="43.16674" lon="2.39608">
        <ele>234.6</ele>
        <time>2019-06-16T07:31:25.000Z</time>
      </trkpt>
      <trkpt lat="43.16673" lon="2.3961">
        <ele>234.6</ele>
        <time>2019-06-16T07:31:26.000Z</time>
      </trkpt>
      <trkpt lat="43.16673" lon="2.39612">
        <ele>234.6</ele>
        <time>2019-06-16T07:31:27.000Z</time>
      </trkpt>
      <trkpt lat="43.16673" lon="2.39615">
        <ele>234.7</ele>
        <time>2019-06-16T07:31:28.000Z</time>
      </trkpt>
      <trkpt lat="43.16673" lon="2.39617">
        <ele>234.7</ele>
        <time>2019-06-16T07:31:29.000Z</time>
      </trkpt>
      <trkpt lat="43.16672" lon="2.3962">
        <ele>234.7</ele>
        <time>2019-06-16T07:31:30.000Z</time>
      </trkpt>
      <trkpt lat="43.16672" lon="2.39623">
        <ele>234.7</ele>
        <time>2019-06-16T07:31:31.000Z</time>
      </trkpt>
      <trkpt lat="43.16672" lon="2.39626">
        <ele>234.7</ele>
        <time>2019-06-16T07:31:32.000Z</time>
      </trkpt>
      <trkpt lat="43.16672" lon="2.39628">
        <ele>234.7</ele>
        <time>2019-06-16T07:31:33.000Z</time>
      </trkpt>
      <trkpt lat="43.16671" lon="2.39631">
        <ele>234.8</ele>
        <time>2019-06-16T07:31:34.000Z</time>
      </trkpt>
      <trkpt lat="43.16671" lon="2.39633">
        <ele>234.8</ele>
        <time>2019-06-16T07:31:35.000Z</time>
      </trkpt>
      <trkpt lat="43.1667" lon="2.39636">
        <ele>234.9</ele>
        <time>2019-06-16T07:31:36.000Z</time>
      </trkpt>
      <trkpt lat="43.1667" lon="2.39639">
        <ele>235</ele>
        <time>2019-06-16T07:31:37.000Z</time>
      </trkpt>
      <trkpt lat="43.16669" lon="2.39641">
        <ele>235.1</ele>
        <time>2019-06-16T07:31:38.000Z</time>
      </trkpt>
      <trkpt lat="43.16668" lon="2.39644">
        <ele>235.2</ele>
        <time>2019-06-16T07:31:39.000Z</time>
      </trkpt>
      <trkpt lat="43.16667" lon="2.39647">
        <ele>235.3</ele>
        <time>2019-06-16T07:31:40.000Z</time>
      </trkpt>
      <trkpt lat="43.16666" lon="2.39649">
        <ele>235.5</ele>
        <time>2019-06-16T07:31:41.000Z</time>
      </trkpt>
      <trkpt lat="43.16665" lon="2.39652">
        <ele>235.6</ele>
        <time>2019-06-16T07:31:42.000Z</time>
      </trkpt>
      <trkpt lat="43.16664" lon="2.39655">
        <ele>235.8</ele>
        <time>2019-06-16T07:31:43.000Z</time>
      </trkpt>
      <trkpt lat="43.16663" lon="2.39658">
        <ele>235.9</ele>
        <time>2019-06-16T07:31:44.000Z</time>
      </trkpt>
      <trkpt lat="43.16662" lon="2.3966">
        <ele>236.1</ele>
        <time>2019-06-16T07:31:45.000Z</time>
      </trkpt>
      <trkpt lat="43.1666" lon="2.39663">
        <ele>236.3</ele>
        <time>2019-06-16T07:31:46.000Z</time>
      </trkpt>
      <trkpt lat="43.16659" lon="2.39665">
        <ele>236.4</ele>
        <time>2019-06-16T07:31:47.000Z</time>
      </trkpt>
      <trkpt lat="43.16658" lon="2.39668">
        <ele>236.6</ele>
        <time>2019-06-16T07:31:48.000Z</time>
      </trkpt>
      <trkpt lat="43.16656" lon="2.3967">
        <ele>236.7</ele>
        <time>2019-06-16T07:31:49.000Z</time>
      </trkpt>
      <trkpt lat="43.16655" lon="2.39673">
        <ele>236.9</ele>
        <time>2019-06-16T07:31:50.000Z</time>
      </trkpt>
      <trkpt lat="43.16653" lon="2.39675">
        <ele>237.1</ele>
        <time>2019-06-16T07:31:51.000Z</time>
      </trkpt>
      <trkpt lat="43.16652" lon="2.39677">
        <ele>237.2</ele>
        <time>2019-06-16T07:31:52.000Z</time>
      </trkpt>
      <trkpt lat="43.16651" lon="2.3968">
        <ele>237.4</ele>
        <time>2019-06-16T07:31:53.000Z</time>
      </trkpt>
      <trkpt lat="43.16649" lon="2.39682">
        <ele>237.5</ele>
        <time>2019-06-16T07:31:54.000Z</time>
      </trkpt>
      <trkpt lat="43.16648" lon="2.39685">
        <ele>237.7</ele>
        <time>2019-06-16T07:31:55.000Z</time>
      </trkpt>
      <trkpt lat="43.16647" lon="2.39688">
        <ele>237.8</ele>
        <time>2019-06-16T07:31:56.000Z</time>
      </trkpt>
      <trkpt lat="43.16645" lon="2.3969">
        <ele>238</ele>
        <time>2019-06-16T07:31:57.000Z</time>
      </trkpt>
      <trkpt lat="43.16644" lon="2.39693">
        <ele>238.1</ele>
        <time>2019-06-16T07:31:58.000Z</time>
      </trkpt>
      <trkpt lat="43.16643" lon="2.39695">
        <ele>238.3</ele>
        <time>2019-06-16T07:31:59.000Z</time>
      </trkpt>
      <trkpt lat="43.16641" lon="2.39698">
        <ele>238.5</ele>
        <time>2019-06-16T07:32:00.000Z</time>
      </trkpt>
      <trkpt lat="43.1664" lon="2.397">
        <ele>238.7</ele>
        <time>2019-06-16T07:32:01.000Z</time>
      </trkpt>
      <trkpt lat="43.16638" lon="2.39702">
        <ele>238.9</ele>
        <time>2019-06-16T07:32:02.000Z</time>
      </trkpt>
      <trkpt lat="43.16636" lon="2.39704">
        <ele>239.2</ele>
        <time>2019-06-16T07:32:03.000Z</time>
      </trkpt>
      <trkpt lat="43.16634" lon="2.39705">
        <ele>239.6</ele>
        <time>2019-06-16T07:32:04.000Z</time>
      </trkpt>
      <trkpt lat="43.16632" lon="2.39706">
        <ele>240</ele>
        <time>2019-06-16T07:32:05.000Z</time>
      </trkpt>
      <trkpt lat="43.16629" lon="2.39707">
        <ele>240.5</ele>
        <time>2019-06-16T07:32:06.000Z</time>
      </trkpt>
      <trkpt lat="43.16626" lon="2.39707">
        <ele>241.1</ele>
        <time>2019-06-16T07:32:07.000Z</time>
      </trkpt>
      <trkpt lat="43.16623" lon="2.39707">
        <ele>241.7</ele>
        <time>2019-06-16T07:32:08.000Z</time>
      </trkpt>
      <trkpt lat="43.1662" lon="2.39707">
        <ele>242.3</ele>
        <time>2019-06-16T07:32:09.000Z</time>
      </trkpt>
      <trkpt lat="43.16617" lon="2.39707">
        <ele>242.9</ele>
        <time>2019-06-16T07:32:10.000Z</time>
      </trkpt>
      <trkpt lat="43.16614" lon="2.39707">
        <ele>243.4</ele>
        <time>2019-06-16T07:32:11.000Z</time>
      </trkpt>
      <trkpt lat="43.16612" lon="2.39706">
        <ele>243.8</ele>
        <time>2019-06-16T07:32:12.000Z</time>
      </trkpt>
      <trkpt lat="43.1661" lon="2.39706">
        <ele>244.3</ele>
        <time>2019-06-16T07:32:13.000Z</time>
      </trkpt>
      <trkpt lat="43.16608" lon="2.39707">
        <ele>244.6</ele>
        <time>2019-06-16T07:32:14.000Z</time>
      </trkpt>
      <trkpt lat="43.16606" lon="2.39707">
        <ele>245</ele>
        <time>2019-06-16T07:32:15.000Z</time>
      </trkpt>
      <trkpt lat="43.16604" lon="2.39707">
        <ele>245.4</ele>
        <time>2019-06-16T07:32:16.000Z</time>
      </trkpt>
      <trkpt lat="43.16603" lon="2.39707">
        <ele>245.7</ele>
        <time>2019-06-16T07:32:17.000Z</time>
      </trkpt>
      <trkpt lat="43.16601" lon="2.39707">
        <ele>246.1</ele>
        <time>2019-06-16T07:32:18.000Z</time>
      </trkpt>
      <trkpt lat="43.16599" lon="2.39708">
        <ele>246.4</ele>
        <time>2019-06-16T07:32:19.000Z</time>
      </trkpt>
      <trkpt lat="43.16597" lon="2.39708">
        <ele>246.8</ele>
        <time>2019-06-16T07:32:20.000Z</time>
      </trkpt>
      <trkpt lat="43.16595" lon="2.39709">
        <ele>247.1</ele>
        <time>2019-06-16T07:32:21.000Z</time>
      </trkpt>
      <trkpt lat="43.16594" lon="2.39709">
        <ele>247.4</ele>
        <time>2019-06-16T07:32:22.000Z</time>
      </trkpt>
      <trkpt lat="43.16592" lon="2.39709">
        <ele>247.8</ele>
        <time>2019-06-16T07:32:23.000Z</time>
      </trkpt>
      <trkpt lat="43.1659" lon="2.3971">
        <ele>248.1</ele>
        <time>2019-06-16T07:32:24.000Z</time>
      </trkpt>
      <trkpt lat="43.16589" lon="2.3971">
        <ele>248.4</ele>
        <time>2019-06-16T07:32:25.000Z</time>
      </trkpt>
      <trkpt lat="43.16588" lon="2.3971">
        <ele>248.7</ele>
        <time>2019-06-16T07:32:26.000Z</time>
      </trkpt>
      <trkpt lat="43.16586" lon="2.3971">
        <ele>248.9</ele>
        <time>2019-06-16T07:32:27.000Z</time>
      </trkpt>
      <trkpt lat="43.16585" lon="2.3971">
        <ele>249.2</ele>
        <time>2019-06-16T07:32:28.000Z</time>
      </trkpt>
      <trkpt lat="43.16584" lon="2.39709">
        <ele>249.4</ele>
        <time>2019-06-16T07:32:29.000Z</time>
      </trkpt>
      <trkpt lat="43.16583" lon="2.39709">
        <ele>249.7</ele>
        <time>2019-06-16T07:32:30.000Z</time>
      </trkpt>
      <trkpt lat="43.16582" lon="2.39708">
        <ele>249.9</ele>
        <time>2019-06-16T07:32:31.000Z</time>
      </trkpt>
      <trkpt lat="43.16581" lon="2.39707">
        <ele>250.1</ele>
        <time>2019-06-16T07:32:32.000Z</time>
      </trkpt>
      <trkpt lat="43.1658" lon="2.39705">
        <ele>250.4</ele>
        <time>2019-06-16T07:32:33.000Z</time>
      </trkpt>
      <trkpt lat="43.16579" lon="2.39704">
        <ele>250.6</ele>
        <time>2019-06-16T07:32:34.000Z</time>
      </trkpt>
      <trkpt lat="43.16578" lon="2.39702">
        <ele>250.8</ele>
        <time>2019-06-16T07:32:35.000Z</time>
      </trkpt>
      <trkpt lat="43.16577" lon="2.39699">
        <ele>251</ele>
        <time>2019-06-16T07:32:36.000Z</time>
      </trkpt>
      <trkpt lat="43.16576" lon="2.39697">
        <ele>251.2</ele>
        <time>2019-06-16T07:32:37.000Z</time>
      </trkpt>
      <trkpt lat="43.16575" lon="2.39695">
        <ele>251.4</ele>
        <time>2019-06-16T07:32:38.000Z</time>
      </trkpt>
      <trkpt lat="43.16575" lon="2.39692">
        <ele>251.6</ele>
        <time>2019-06-16T07:32:39.000Z</time>
      </trkpt>
      <trkpt lat="43.16574" lon="2.39689">
        <ele>251.7</ele>
        <time>2019-06-16T07:32:40.000Z</time>
      </trkpt>
      <trkpt lat="43.16573" lon="2.39686">
        <ele>251.9</ele>
        <time>2019-06-16T07:32:41.000Z</time>
      </trkpt>
      <trkpt lat="43.16573" lon="2.39683">
        <ele>252.1</ele>
        <time>2019-06-16T07:32:42.000Z</time>
      </trkpt>
      <trkpt lat="43.16572" lon="2.3968">
        <ele>252.2</ele>
        <time>2019-06-16T07:32:43.000Z</time>
      </trkpt>
      <trkpt lat="43.16572" lon="2.39677">
        <ele>252.3</ele>
        <time>2019-06-16T07:32:44.000Z</time>
      </trkpt>
      <trkpt lat="43.16571" lon="2.39674">
        <ele>252.4</ele>
        <time>2019-06-16T07:32:45.000Z</time>
      </trkpt>
      <trkpt lat="43.16571" lon="2.39671">
        <ele>252.5</ele>
        <time>2019-06-16T07:32:46.000Z</time>
      </trkpt>
      <trkpt lat="43.1657" lon="2.39668">
        <ele>252.6</ele>
        <time>2019-06-16T07:32:47.000Z</time>
      </trkpt>
      <trkpt lat="43.1657" lon="2.39665">
        <ele>252.7</ele>
        <time>2019-06-16T07:32:48.000Z</time>
      </trkpt>
      <trkpt lat="43.1657" lon="2.39662">
        <ele>252.9</ele>
        <time>2019-06-16T07:32:49.000Z</time>
      </trkpt>
      <trkpt lat="43.1657" lon="2.3966">
        <ele>253</ele>
        <time>2019-06-16T07:32:50.000Z</time>
      </trkpt>
      <trkpt lat="43.1657" lon="2.39657">
        <ele>253.2</ele>
        <time>2019-06-16T07:32:51.000Z</time>
      </trkpt>
      <trkpt lat="43.1657" lon="2.39655">
        <ele>253.3</ele>
        <time>2019-06-16T07:32:52.000Z</time>
      </trkpt>
      <trkpt lat="43.16569" lon="2.39652">
        <ele>253.4</ele>
        <time>2019-06-16T07:32:53.000Z</time>
      </trkpt>
      <trkpt lat="43.16569" lon="2.3965">
        <ele>253.5</ele>
        <time>2019-06-16T07:32:54.000Z</time>
      </trkpt>
      <trkpt lat="43.16569" lon="2.39647">
        <ele>253.6</ele>
        <time>2019-06-16T07:32:55.000Z</time>
      </trkpt>
      <trkpt lat="43.1657" lon="2.39645">
        <ele>253.6</ele>
        <time>2019-06-16T07:32:56.000Z</time>
      </trkpt>
      <trkpt lat="43.1657" lon="2.39643">
        <ele>253.7</ele>
        <time>2019-06-16T07:32:57.000Z</time>
      </trkpt>
      <trkpt lat="43.1657" lon="2.39641">
        <ele>253.8</ele>
        <time>2019-06-16T07:32:58.000Z</time>
      </trkpt>
      <trkpt lat="43.1657" lon="2.39639">
        <ele>253.9</ele>
        <time>2019-06-16T07:32:59.000Z</time>
      </trkpt>
      <trkpt lat="43.1657" lon="2.39636">
        <ele>253.9</ele>
        <time>2019-06-16T07:33:00.000Z</time>
      </trkpt>
      <trkpt lat="43.1657" lon="2.39634">
        <ele>254</ele>
        <time>2019-06-16T07:33:01.000Z</time>
      </trkpt>
      <trkpt lat="43.1657" lon="2.39632">
        <ele>254</ele>
        <time>2019-06-16T07:33:02.000Z</time>
      </trkpt>
      <trkpt lat="43.1657" lon="2.3963">
        <ele>254.1</ele>
        <time>2019-06-16T07:33:03.000Z</time>
      </trkpt>
      <trkpt lat="43.1657" lon="2.39628">
        <ele>254.1</ele>
        <time>2019-06-16T07:33:04.000Z</time>
      </trkpt>
      <trkpt lat="43.16571" lon="2.39626">
        <ele>254.2</ele>
        <time>2019-06-16T07:33:05.000Z</time>
      </trkpt>
      <trkpt lat="43.16571" lon="2.39624">
        <ele>254.3</ele>
        <time>2019-06-16T07:33:06.000Z</time>
      </trkpt>
      <trkpt lat="43.16571" lon="2.39621">
        <ele>254.3</ele>
        <time>2019-06-16T07:33:07.000Z</time>
      </trkpt>
      <trkpt lat="43.16571" lon="2.39619">
        <ele>254.4</ele>
        <time>2019-06-16T07:33:08.000Z</time>
      </trkpt>
      <trkpt lat="43.16571" lon="2.39617">
        <ele>254.4</ele>
        <time>2019-06-16T07:33:09.000Z</time>
      </trkpt>
      <trkpt lat="43.16571" lon="2.39615">
        <ele>254.5</ele>
        <time>2019-06-16T07:33:10.000Z</time>
      </trkpt>
      <trkpt lat="43.16572" lon="2.39613">
        <ele>254.5</ele>
        <time>2019-06-16T07:33:11.000Z</time>
      </trkpt>
      <trkpt lat="43.16572" lon="2.3961">
        <ele>254.6</ele>
        <time>2019-06-16T07:33:12.000Z</time>
      </trkpt>
      <trkpt lat="43.16572" lon="2.39608">
        <ele>254.7</ele>
        <time>2019-06-16T07:33:13.000Z</time>
      </trkpt>
      <trkpt lat="43.16572" lon="2.39606">
        <ele>254.7</ele>
        <time>2019-06-16T07:33:14.000Z</time>
      </trkpt>
      <trkpt lat="43.16572" lon="2.39604">
        <ele>254.8</ele>
        <time>2019-06-16T07:33:15.000Z</time>
      </trkpt>
      <trkpt lat="43.16572" lon="2.39601">
        <ele>254.9</ele>
        <time>2019-06-16T07:33:16.000Z</time>
      </trkpt>
      <trkpt lat="43.16572" lon="2.39599">
        <ele>255</ele>
        <time>2019-06-16T07:33:17.000Z</time>
      </trkpt>
      <trkpt lat="43.16572" lon="2.39596">
        <ele>255.1</ele>
        <time>2019-06-16T07:33:18.000Z</time>
      </trkpt>
      <trkpt lat="43.16572" lon="2.39593">
        <ele>255.2</ele>
        <time>2019-06-16T07:33:19.000Z</time>
      </trkpt>
      <trkpt lat="43.16572" lon="2.3959">
        <ele>255.4</ele>
        <time>2019-06-16T07:33:20.000Z</time>
      </trkpt>
      <trkpt lat="43.16572" lon="2.39586">
        <ele>255.5</ele>
        <time>2019-06-16T07:33:21.000Z</time>
      </trkpt>
      <trkpt lat="43.16572" lon="2.39583">
        <ele>255.7</ele>
        <time>2019-06-16T07:33:22.000Z</time>
      </trkpt>
      <trkpt lat="43.16571" lon="2.3958">
        <ele>255.7</ele>
        <time>2019-06-16T07:33:23.000Z</time>
      </trkpt>
      <trkpt lat="43.16571" lon="2.39577">
        <ele>255.7</ele>
        <time>2019-06-16T07:33:24.000Z</time>
      </trkpt>
      <trkpt lat="43.1657" lon="2.39575">
        <ele>255.7</ele>
        <time>2019-06-16T07:33:25.000Z</time>
      </trkpt>
      <trkpt lat="43.1657" lon="2.39572">
        <ele>255.7</ele>
        <time>2019-06-16T07:33:26.000Z</time>
      </trkpt>
      <trkpt lat="43.16569" lon="2.3957">
        <ele>255.8</ele>
        <time>2019-06-16T07:33:27.000Z</time>
      </trkpt>
      <trkpt lat="43.16569" lon="2.39567">
        <ele>255.8</ele>
        <time>2019-06-16T07:33:28.000Z</time>
      </trkpt>
      <trkpt lat="43.16568" lon="2.39565">
        <ele>255.8</ele>
        <time>2019-06-16T07:33:29.000Z</time>
      </trkpt>
      <trkpt lat="43.16568" lon="2.39563">
        <ele>255.9</ele>
        <time>2019-06-16T07:33:30.000Z</time>
      </trkpt>
      <trkpt lat="43.16567" lon="2.39561">
        <ele>255.9</ele>
        <time>2019-06-16T07:33:31.000Z</time>
      </trkpt>
      <trkpt lat="43.16567" lon="2.39559">
        <ele>255.9</ele>
        <time>2019-06-16T07:33:32.000Z</time>
      </trkpt>
      <trkpt lat="43.16567" lon="2.39558">
        <ele>255.9</ele>
        <time>2019-06-16T07:33:33.000Z</time>
      </trkpt>
      <trkpt lat="43.16566" lon="2.39557">
        <ele>255.9</ele>
        <time>2019-06-16T07:33:34.000Z</time>
      </trkpt>
      <trkpt lat="43.16566" lon="2.39555">
        <ele>255.9</ele>
        <time>2019-06-16T07:33:35.000Z</time>
      </trkpt>
      <trkpt lat="43.16566" lon="2.39554">
        <ele>256</ele>
        <time>2019-06-16T07:33:36.000Z</time>
      </trkpt>
      <trkpt lat="43.16566" lon="2.39553">
        <ele>256</ele>
        <time>2019-06-16T07:33:37.000Z</time>
      </trkpt>
      <trkpt lat="43.16565" lon="2.39552">
        <ele>256</ele>
        <time>2019-06-16T07:33:38.000Z</time>
      </trkpt>
      <trkpt lat="43.16565" lon="2.3955">
        <ele>256.1</ele>
        <time>2019-06-16T07:33:39.000Z</time>
      </trkpt>
      <trkpt lat="43.16564" lon="2.39549">
        <ele>256.1</ele>
        <time>2019-06-16T07:33:40.000Z</time>
      </trkpt>
      <trkpt lat="43.16564" lon="2.39548">
        <ele>256.1</ele>
        <time>2019-06-16T07:33:41.000Z</time>
      </trkpt>
      <trkpt lat="43.16563" lon="2.39546">
        <ele>256.2</ele>
        <time>2019-06-16T07:33:42.000Z</time>
      </trkpt>
      <trkpt lat="43.16563" lon="2.39545">
        <ele>256.3</ele>
        <time>2019-06-16T07:33:43.000Z</time>
      </trkpt>
      <trkpt lat="43.16562" lon="2.39543">
        <ele>256.3</ele>
        <time>2019-06-16T07:33:44.000Z</time>
      </trkpt>
      <trkpt lat="43.16562" lon="2.39542">
        <ele>256.4</ele>
        <time>2019-06-16T07:33:45.000Z</time>
      </trkpt>
      <trkpt lat="43.16561" lon="2.39541">
        <ele>256.4</ele>
        <time>2019-06-16T07:33:46.000Z</time>
      </trkpt>
      <trkpt lat="43.1656" lon="2.39539">
        <ele>256.5</ele>
        <time>2019-06-16T07:33:47.000Z</time>
      </trkpt>
      <trkpt lat="43.1656" lon="2.39538">
        <ele>256.6</ele>
        <time>2019-06-16T07:33:48.000Z</time>
      </trkpt>
      <trkpt lat="43.16559" lon="2.39536">
        <ele>256.7</ele>
        <time>2019-06-16T07:33:49.000Z</time>
      </trkpt>
      <trkpt lat="43.16559" lon="2.39535">
        <ele>256.7</ele>
        <time>2019-06-16T07:33:50.000Z</time>
      </trkpt>
      <trkpt lat="43.16558" lon="2.39533">
        <ele>256.8</ele>
        <time>2019-06-16T07:33:51.000Z</time>
      </trkpt>
      <trkpt lat="43.16558" lon="2.39532">
        <ele>256.8</ele>
        <time>2019-06-16T07:33:52.000Z</time>
      </trkpt>
      <trkpt lat="43.16557" lon="2.39531">
        <ele>256.9</ele>
        <time>2019-06-16T07:33:53.000Z</time>
      </trkpt>
      <trkpt lat="43.16557" lon="2.39529">
        <ele>256.9</ele>
        <time>2019-06-16T07:33:54.000Z</time>
      </trkpt>
      <trkpt lat="43.16556" lon="2.39528">
        <ele>257</ele>
        <time>2019-06-16T07:33:55.000Z</time>
      </trkpt>
      <trkpt lat="43.16556" lon="2.39526">
        <ele>257</ele>
        <time>2019-06-16T07:33:56.000Z</time>
      </trkpt>
      <trkpt lat="43.16556" lon="2.39525">
        <ele>257.1</ele>
        <time>2019-06-16T07:33:57.000Z</time>
      </trkpt>
      <trkpt lat="43.16555" lon="2.39523">
        <ele>257.1</ele>
        <time>2019-06-16T07:33:58.000Z</time>
      </trkpt>
      <trkpt lat="43.16555" lon="2.39522">
        <ele>257.2</ele>
        <time>2019-06-16T07:33:59.000Z</time>
      </trkpt>
      <trkpt lat="43.16554" lon="2.3952">
        <ele>257.3</ele>
        <time>2019-06-16T07:34:00.000Z</time>
      </trkpt>
      <trkpt lat="43.16553" lon="2.39518">
        <ele>257.3</ele>
        <time>2019-06-16T07:34:01.000Z</time>
      </trkpt>
      <trkpt lat="43.16553" lon="2.39517">
        <ele>257.4</ele>
        <time>2019-06-16T07:34:02.000Z</time>
      </trkpt>
      <trkpt lat="43.16552" lon="2.39515">
        <ele>257.5</ele>
        <time>2019-06-16T07:34:03.000Z</time>
      </trkpt>
      <trkpt lat="43.16551" lon="2.39513">
        <ele>257.6</ele>
        <time>2019-06-16T07:34:04.000Z</time>
      </trkpt>
      <trkpt lat="43.16551" lon="2.39511">
        <ele>257.6</ele>
        <time>2019-06-16T07:34:05.000Z</time>
      </trkpt>
      <trkpt lat="43.1655" lon="2.39509">
        <ele>257.7</ele>
        <time>2019-06-16T07:34:06.000Z</time>
      </trkpt>
      <trkpt lat="43.1655" lon="2.39507">
        <ele>257.8</ele>
        <time>2019-06-16T07:34:07.000Z</time>
      </trkpt>
      <trkpt lat="43.16549" lon="2.39505">
        <ele>257.8</ele>
        <time>2019-06-16T07:34:08.000Z</time>
      </trkpt>
      <trkpt lat="43.16549" lon="2.39503">
        <ele>257.8</ele>
        <time>2019-06-16T07:34:09.000Z</time>
      </trkpt>
      <trkpt lat="43.16549" lon="2.39501">
        <ele>257.9</ele>
        <time>2019-06-16T07:34:10.000Z</time>
      </trkpt>
      <trkpt lat="43.16548" lon="2.39499">
        <ele>257.9</ele>
        <time>2019-06-16T07:34:11.000Z</time>
      </trkpt>
      <trkpt lat="43.16548" lon="2.39498">
        <ele>257.9</ele>
        <time>2019-06-16T07:34:12.000Z</time>
      </trkpt>
      <trkpt lat="43.16548" lon="2.39496">
        <ele>257.9</ele>
        <time>2019-06-16T07:34:13.000Z</time>
      </trkpt>
      <trkpt lat="43.16548" lon="2.39494">
        <ele>257.9</ele>
        <time>2019-06-16T07:34:14.000Z</time>
      </trkpt>
      <trkpt lat="43.16548" lon="2.39492">
        <ele>257.9</ele>
        <time>2019-06-16T07:34:15.000Z</time>
      </trkpt>
      <trkpt lat="43.16548" lon="2.39491">
        <ele>257.8</ele>
        <time>2019-06-16T07:34:16.000Z</time>
      </trkpt>
      <trkpt lat="43.16548" lon="2.39489">
        <ele>257.8</ele>
        <time>2019-06-16T07:34:17.000Z</time>
      </trkpt>
      <trkpt lat="43.16548" lon="2.39487">
        <ele>257.7</ele>
        <time>2019-06-16T07:34:18.000Z</time>
      </trkpt>
      <trkpt lat="43.16548" lon="2.39486">
        <ele>257.7</ele>
        <time>2019-06-16T07:34:19.000Z</time>
      </trkpt>
      <trkpt lat="43.16548" lon="2.39484">
        <ele>257.6</ele>
        <time>2019-06-16T07:34:20.000Z</time>
      </trkpt>
      <trkpt lat="43.16548" lon="2.39482">
        <ele>257.6</ele>
        <time>2019-06-16T07:34:21.000Z</time>
      </trkpt>
      <trkpt lat="43.16548" lon="2.3948">
        <ele>257.5</ele>
        <time>2019-06-16T07:34:22.000Z</time>
      </trkpt>
      <trkpt lat="43.16548" lon="2.39478">
        <ele>257.5</ele>
        <time>2019-06-16T07:34:23.000Z</time>
      </trkpt>
      <trkpt lat="43.16548" lon="2.39475">
        <ele>257.5</ele>
        <time>2019-06-16T07:34:24.000Z</time>
      </trkpt>
      <trkpt lat="43.16548" lon="2.39473">
        <ele>257.4</ele>
        <time>2019-06-16T07:34:25.000Z</time>
      </trkpt>
      <trkpt lat="43.16548" lon="2.3947">
        <ele>257.4</ele>
        <time>2019-06-16T07:34:26.000Z</time>
      </trkpt>
      <trkpt lat="43.16548" lon="2.39468">
        <ele>257.3</ele>
        <time>2019-06-16T07:34:27.000Z</time>
      </trkpt>
      <trkpt lat="43.16548" lon="2.39465">
        <ele>257.3</ele>
        <time>2019-06-16T07:34:28.000Z</time>
      </trkpt>
      <trkpt lat="43.16548" lon="2.39463">
        <ele>257.2</ele>
        <time>2019-06-16T07:34:29.000Z</time>
      </trkpt>
      <trkpt lat="43.16548" lon="2.3946">
        <ele>257.2</ele>
        <time>2019-06-16T07:34:30.000Z</time>
      </trkpt>
      <trkpt lat="43.16548" lon="2.39458">
        <ele>257.2</ele>
        <time>2019-06-16T07:34:31.000Z</time>
      </trkpt>
      <trkpt lat="43.16548" lon="2.39456">
        <ele>257.1</ele>
        <time>2019-06-16T07:34:32.000Z</time>
      </trkpt>
      <trkpt lat="43.16548" lon="2.39453">
        <ele>257.1</ele>
        <time>2019-06-16T07:34:33.000Z</time>
      </trkpt>
      <trkpt lat="43.16548" lon="2.39451">
        <ele>257</ele>
        <time>2019-06-16T07:34:34.000Z</time>
      </trkpt>
      <trkpt lat="43.16548" lon="2.39449">
        <ele>256.9</ele>
        <time>2019-06-16T07:34:35.000Z</time>
      </trkpt>
      <trkpt lat="43.16548" lon="2.39446">
        <ele>256.9</ele>
        <time>2019-06-16T07:34:36.000Z</time>
      </trkpt>
      <trkpt lat="43.16548" lon="2.39444">
        <ele>256.9</ele>
        <time>2019-06-16T07:34:37.000Z</time>
      </trkpt>
      <trkpt lat="43.16548" lon="2.39441">
        <ele>256.8</ele>
        <time>2019-06-16T07:34:38.000Z</time>
      </trkpt>
      <trkpt lat="43.16548" lon="2.39438">
        <ele>256.7</ele>
        <time>2019-06-16T07:34:39.000Z</time>
      </trkpt>
      <trkpt lat="43.16548" lon="2.39435">
        <ele>256.7</ele>
        <time>2019-06-16T07:34:40.000Z</time>
      </trkpt>
      <trkpt lat="43.16548" lon="2.39432">
        <ele>256.7</ele>
        <time>2019-06-16T07:34:41.000Z</time>
      </trkpt>
      <trkpt lat="43.16548" lon="2.39429">
        <ele>256.6</ele>
        <time>2019-06-16T07:34:42.000Z</time>
      </trkpt>
      <trkpt lat="43.16548" lon="2.39426">
        <ele>256.6</ele>
        <time>2019-06-16T07:34:43.000Z</time>
      </trkpt>
      <trkpt lat="43.16548" lon="2.39423">
        <ele>256.6</ele>
        <time>2019-06-16T07:34:44.000Z</time>
      </trkpt>
      <trkpt lat="43.16548" lon="2.3942">
        <ele>256.5</ele>
        <time>2019-06-16T07:34:45.000Z</time>
      </trkpt>
      <trkpt lat="43.16548" lon="2.39417">
        <ele>256.4</ele>
        <time>2019-06-16T07:34:46.000Z</time>
      </trkpt>
      <trkpt lat="43.16548" lon="2.39414">
        <ele>256.3</ele>
        <time>2019-06-16T07:34:47.000Z</time>
      </trkpt>
      <trkpt lat="43.16549" lon="2.39411">
        <ele>256.1</ele>
        <time>2019-06-16T07:34:48.000Z</time>
      </trkpt>
      <trkpt lat="43.16549" lon="2.39408">
        <ele>256</ele>
        <time>2019-06-16T07:34:49.000Z</time>
      </trkpt>
      <trkpt lat="43.1655" lon="2.39404">
        <ele>255.8</ele>
        <time>2019-06-16T07:34:50.000Z</time>
      </trkpt>
      <trkpt lat="43.1655" lon="2.39401">
        <ele>255.7</ele>
        <time>2019-06-16T07:34:51.000Z</time>
      </trkpt>
      <trkpt lat="43.16551" lon="2.39398">
        <ele>255.5</ele>
        <time>2019-06-16T07:34:52.000Z</time>
      </trkpt>
      <trkpt lat="43.16551" lon="2.39394">
        <ele>255.5</ele>
        <time>2019-06-16T07:34:53.000Z</time>
      </trkpt>
      <trkpt lat="43.16551" lon="2.39391">
        <ele>255.4</ele>
        <time>2019-06-16T07:34:54.000Z</time>
      </trkpt>
      <trkpt lat="43.16551" lon="2.39388">
        <ele>255.3</ele>
        <time>2019-06-16T07:34:55.000Z</time>
      </trkpt>
      <trkpt lat="43.16551" lon="2.39385">
        <ele>255.2</ele>
        <time>2019-06-16T07:34:56.000Z</time>
      </trkpt>
      <trkpt lat="43.16551" lon="2.39382">
        <ele>255.1</ele>
        <time>2019-06-16T07:34:57.000Z</time>
      </trkpt>
      <trkpt lat="43.16552" lon="2.39379">
        <ele>255</ele>
        <time>2019-06-16T07:34:58.000Z</time>
      </trkpt>
      <trkpt lat="43.16552" lon="2.39376">
        <ele>255</ele>
        <time>2019-06-16T07:34:59.000Z</time>
      </trkpt>
      <trkpt lat="43.16552" lon="2.39373">
        <ele>254.9</ele>
        <time>2019-06-16T07:35:00.000Z</time>
      </trkpt>
      <trkpt lat="43.16552" lon="2.39371">
        <ele>254.9</ele>
        <time>2019-06-16T07:35:01.000Z</time>
      </trkpt>
      <trkpt lat="43.16552" lon="2.39368">
        <ele>254.8</ele>
        <time>2019-06-16T07:35:02.000Z</time>
      </trkpt>
      <trkpt lat="43.16552" lon="2.39365">
        <ele>254.8</ele>
        <time>2019-06-16T07:35:03.000Z</time>
      </trkpt>
      <trkpt lat="43.16552" lon="2.39362">
        <ele>254.7</ele>
        <time>2019-06-16T07:35:04.000Z</time>
      </trkpt>
      <trkpt lat="43.16552" lon="2.39359">
        <ele>254.7</ele>
        <time>2019-06-16T07:35:05.000Z</time>
      </trkpt>
      <trkpt lat="43.16551" lon="2.39357">
        <ele>254.6</ele>
        <time>2019-06-16T07:35:06.000Z</time>
      </trkpt>
      <trkpt lat="43.16551" lon="2.39354">
        <ele>254.6</ele>
        <time>2019-06-16T07:35:07.000Z</time>
      </trkpt>
      <trkpt lat="43.16551" lon="2.39351">
        <ele>254.5</ele>
        <time>2019-06-16T07:35:08.000Z</time>
      </trkpt>
      <trkpt lat="43.16551" lon="2.39347">
        <ele>254.5</ele>
        <time>2019-06-16T07:35:09.000Z</time>
      </trkpt>
      <trkpt lat="43.16551" lon="2.39344">
        <ele>254.4</ele>
        <time>2019-06-16T07:35:10.000Z</time>
      </trkpt>
      <trkpt lat="43.16551" lon="2.39341">
        <ele>254.4</ele>
        <time>2019-06-16T07:35:11.000Z</time>
      </trkpt>
      <trkpt lat="43.16551" lon="2.39337">
        <ele>254.3</ele>
        <time>2019-06-16T07:35:12.000Z</time>
      </trkpt>
      <trkpt lat="43.16551" lon="2.39334">
        <ele>254.3</ele>
        <time>2019-06-16T07:35:13.000Z</time>
      </trkpt>
      <trkpt lat="43.16551" lon="2.39331">
        <ele>254.2</ele>
        <time>2019-06-16T07:35:14.000Z</time>
      </trkpt>
      <trkpt lat="43.16551" lon="2.39328">
        <ele>254.2</ele>
        <time>2019-06-16T07:35:15.000Z</time>
      </trkpt>
      <trkpt lat="43.1655" lon="2.39325">
        <ele>254.2</ele>
        <time>2019-06-16T07:35:16.000Z</time>
      </trkpt>
      <trkpt lat="43.1655" lon="2.39322">
        <ele>254.1</ele>
        <time>2019-06-16T07:35:17.000Z</time>
      </trkpt>
      <trkpt lat="43.1655" lon="2.39319">
        <ele>254.1</ele>
        <time>2019-06-16T07:35:18.000Z</time>
      </trkpt>
      <trkpt lat="43.16549" lon="2.39317">
        <ele>254.1</ele>
        <time>2019-06-16T07:35:19.000Z</time>
      </trkpt>
      <trkpt lat="43.16549" lon="2.39314">
        <ele>254.1</ele>
        <time>2019-06-16T07:35:20.000Z</time>
      </trkpt>
      <trkpt lat="43.16548" lon="2.39312">
        <ele>254.2</ele>
        <time>2019-06-16T07:35:21.000Z</time>
      </trkpt>
      <trkpt lat="43.16548" lon="2.3931">
        <ele>254.2</ele>
        <time>2019-06-16T07:35:22.000Z</time>
      </trkpt>
      <trkpt lat="43.16547" lon="2.39308">
        <ele>254.2</ele>
        <time>2019-06-16T07:35:23.000Z</time>
      </trkpt>
      <trkpt lat="43.16547" lon="2.39307">
        <ele>254.2</ele>
        <time>2019-06-16T07:35:24.000Z</time>
      </trkpt>
      <trkpt lat="43.16546" lon="2.39305">
        <ele>254.2</ele>
        <time>2019-06-16T07:35:25.000Z</time>
      </trkpt>
      <trkpt lat="43.16546" lon="2.39304">
        <ele>254.2</ele>
        <time>2019-06-16T07:35:26.000Z</time>
      </trkpt>
      <trkpt lat="43.16545" lon="2.39302">
        <ele>254.2</ele>
        <time>2019-06-16T07:35:27.000Z</time>
      </trkpt>
      <trkpt lat="43.16545" lon="2.39301">
        <ele>254.2</ele>
        <time>2019-06-16T07:35:28.000Z</time>
      </trkpt>
      <trkpt lat="43.16544" lon="2.393">
        <ele>254.2</ele>
        <time>2019-06-16T07:35:29.000Z</time>
      </trkpt>
      <trkpt lat="43.16544" lon="2.39298">
        <ele>254.2</ele>
        <time>2019-06-16T07:35:30.000Z</time>
      </trkpt>
      <trkpt lat="43.16543" lon="2.39297">
        <ele>254.3</ele>
        <time>2019-06-16T07:35:31.000Z</time>
      </trkpt>
      <trkpt lat="43.16543" lon="2.39296">
        <ele>254.3</ele>
        <time>2019-06-16T07:35:32.000Z</time>
      </trkpt>
      <trkpt lat="43.16542" lon="2.39295">
        <ele>254.3</ele>
        <time>2019-06-16T07:35:33.000Z</time>
      </trkpt>
      <trkpt lat="43.16541" lon="2.39295">
        <ele>254.4</ele>
        <time>2019-06-16T07:35:34.000Z</time>
      </trkpt>
      <trkpt lat="43.1654" lon="2.39294">
        <ele>254.5</ele>
        <time>2019-06-16T07:35:35.000Z</time>
      </trkpt>
      <trkpt lat="43.16539" lon="2.39294">
        <ele>254.5</ele>
        <time>2019-06-16T07:35:36.000Z</time>
      </trkpt>
      <trkpt lat="43.16539" lon="2.39293">
        <ele>254.6</ele>
        <time>2019-06-16T07:35:37.000Z</time>
      </trkpt>
      <trkpt lat="43.16538" lon="2.39293">
        <ele>254.6</ele>
        <time>2019-06-16T07:35:38.000Z</time>
      </trkpt>
      <trkpt lat="43.16538" lon="2.39293">
        <ele>254.6</ele>
        <time>2019-06-16T07:35:39.000Z</time>
      </trkpt>
      <trkpt lat="43.16538" lon="2.39293">
        <ele>254.6</ele>
        <time>2019-06-16T07:35:40.000Z</time>
      </trkpt>
      <trkpt lat="43.16538" lon="2.39293">
        <ele>254.6</ele>
        <time>2019-06-16T07:35:41.000Z</time>
      </trkpt>
      <trkpt lat="43.16538" lon="2.39293">
        <ele>254.6</ele>
        <time>2019-06-16T07:35:42.000Z</time>
      </trkpt>
      <trkpt lat="43.16538" lon="2.39293">
        <ele>254.6</ele>
        <time>2019-06-16T07:35:43.000Z</time>
      </trkpt>
      <trkpt lat="43.16538" lon="2.39293">
        <ele>254.6</ele>
        <time>2019-06-16T07:35:44.000Z</time>
      </trkpt>
      <trkpt lat="43.16538" lon="2.39293">
        <ele>254.6</ele>
        <time>2019-06-16T07:35:45.000Z</time>
      </trkpt>
      <trkpt lat="43.16538" lon="2.39293">
        <ele>254.6</ele>
        <time>2019-06-16T07:35:46.000Z</time>
      </trkpt>
      <trkpt lat="43.16538" lon="2.39293">
        <ele>254.6</ele>
        <time>2019-06-16T07:35:47.000Z</time>
      </trkpt>
      <trkpt lat="43.16538" lon="2.39293">
        <ele>254.6</ele>
        <time>2019-06-16T07:35:48.000Z</time>
      </trkpt>
      <trkpt lat="43.16538" lon="2.39293">
        <ele>254.6</ele>
        <time>2019-06-16T07:35:49.000Z</time>
      </trkpt>
      <trkpt lat="43.16538" lon="2.39293">
        <ele>254.6</ele>
        <time>2019-06-16T07:35:50.000Z</time>
      </trkpt>
      <trkpt lat="43.16538" lon="2.39293">
        <ele>254.6</ele>
        <time>2019-06-16T07:35:51.000Z</time>
      </trkpt>
      <trkpt lat="43.16538" lon="2.39293">
        <ele>254.6</ele>
        <time>2019-06-16T07:35:52.000Z</time>
      </trkpt>
      <trkpt lat="43.16538" lon="2.39292">
        <ele>254.6</ele>
        <time>2019-06-16T07:35:53.000Z</time>
      </trkpt>
      <trkpt lat="43.16538" lon="2.39292">
        <ele>254.6</ele>
        <time>2019-06-16T07:35:54.000Z</time>
      </trkpt>
      <trkpt lat="43.16538" lon="2.39292">
        <ele>254.6</ele>
        <time>2019-06-16T07:35:55.000Z</time>
      </trkpt>
      <trkpt lat="43.16538" lon="2.39292">
        <ele>254.6</ele>
        <time>2019-06-16T07:35:56.000Z</time>
      </trkpt>
      <trkpt lat="43.16538" lon="2.39291">
        <ele>254.6</ele>
        <time>2019-06-16T07:35:57.000Z</time>
      </trkpt>
      <trkpt lat="43.16538" lon="2.3929">
        <ele>254.5</ele>
        <time>2019-06-16T07:35:58.000Z</time>
      </trkpt>
      <trkpt lat="43.16538" lon="2.3929">
        <ele>254.5</ele>
        <time>2019-06-16T07:35:59.000Z</time>
      </trkpt>
      <trkpt lat="43.16539" lon="2.39289">
        <ele>254.4</ele>
        <time>2019-06-16T07:36:00.000Z</time>
      </trkpt>
      <trkpt lat="43.16539" lon="2.39288">
        <ele>254.4</ele>
        <time>2019-06-16T07:36:01.000Z</time>
      </trkpt>
      <trkpt lat="43.16539" lon="2.39287">
        <ele>254.3</ele>
        <time>2019-06-16T07:36:02.000Z</time>
      </trkpt>
      <trkpt lat="43.16539" lon="2.39286">
        <ele>254.3</ele>
        <time>2019-06-16T07:36:03.000Z</time>
      </trkpt>
      <trkpt lat="43.16539" lon="2.39284">
        <ele>254.2</ele>
        <time>2019-06-16T07:36:04.000Z</time>
      </trkpt>
      <trkpt lat="43.16539" lon="2.39283">
        <ele>254.2</ele>
        <time>2019-06-16T07:36:05.000Z</time>
      </trkpt>
      <trkpt lat="43.16539" lon="2.39282">
        <ele>254.2</ele>
        <time>2019-06-16T07:36:06.000Z</time>
      </trkpt>
      <trkpt lat="43.16539" lon="2.3928">
        <ele>254.1</ele>
        <time>2019-06-16T07:36:07.000Z</time>
      </trkpt>
      <trkpt lat="43.16538" lon="2.39279">
        <ele>254.1</ele>
        <time>2019-06-16T07:36:08.000Z</time>
      </trkpt>
      <trkpt lat="43.16538" lon="2.39278">
        <ele>254.1</ele>
        <time>2019-06-16T07:36:09.000Z</time>
      </trkpt>
      <trkpt lat="43.16537" lon="2.39276">
        <ele>254.1</ele>
        <time>2019-06-16T07:36:10.000Z</time>
      </trkpt>
      <trkpt lat="43.16537" lon="2.39275">
        <ele>254.1</ele>
        <time>2019-06-16T07:36:11.000Z</time>
      </trkpt>
      <trkpt lat="43.16536" lon="2.39274">
        <ele>254.1</ele>
        <time>2019-06-16T07:36:12.000Z</time>
      </trkpt>
      <trkpt lat="43.16535" lon="2.39272">
        <ele>254.1</ele>
        <time>2019-06-16T07:36:13.000Z</time>
      </trkpt>
      <trkpt lat="43.16535" lon="2.39271">
        <ele>254.1</ele>
        <time>2019-06-16T07:36:14.000Z</time>
      </trkpt>
      <trkpt lat="43.16534" lon="2.3927">
        <ele>254.1</ele>
        <time>2019-06-16T07:36:15.000Z</time>
      </trkpt>
      <trkpt lat="43.16534" lon="2.39269">
        <ele>254.1</ele>
        <time>2019-06-16T07:36:16.000Z</time>
      </trkpt>
      <trkpt lat="43.16533" lon="2.39268">
        <ele>254.1</ele>
        <time>2019-06-16T07:36:17.000Z</time>
      </trkpt>
      <trkpt lat="43.16533" lon="2.39267">
        <ele>254.1</ele>
        <time>2019-06-16T07:36:18.000Z</time>
      </trkpt>
      <trkpt lat="43.16533" lon="2.39266">
        <ele>254.1</ele>
        <time>2019-06-16T07:36:19.000Z</time>
      </trkpt>
      <trkpt lat="43.16532" lon="2.39265">
        <ele>254.1</ele>
        <time>2019-06-16T07:36:20.000Z</time>
      </trkpt>
      <trkpt lat="43.16532" lon="2.39265">
        <ele>254.1</ele>
        <time>2019-06-16T07:36:21.000Z</time>
      </trkpt>
      <trkpt lat="43.16532" lon="2.39264">
        <ele>254</ele>
        <time>2019-06-16T07:36:22.000Z</time>
      </trkpt>
      <trkpt lat="43.16531" lon="2.39263">
        <ele>254</ele>
        <time>2019-06-16T07:36:23.000Z</time>
      </trkpt>
      <trkpt lat="43.16531" lon="2.39263">
        <ele>254</ele>
        <time>2019-06-16T07:36:24.000Z</time>
      </trkpt>
      <trkpt lat="43.16531" lon="2.39262">
        <ele>254</ele>
        <time>2019-06-16T07:36:25.000Z</time>
      </trkpt>
      <trkpt lat="43.16531" lon="2.39262">
        <ele>254</ele>
        <time>2019-06-16T07:36:26.000Z</time>
      </trkpt>
      <trkpt lat="43.16531" lon="2.39262">
        <ele>254</ele>
        <time>2019-06-16T07:36:27.000Z</time>
      </trkpt>
      <trkpt lat="43.16531" lon="2.39262">
        <ele>254</ele>
        <time>2019-06-16T07:36:28.000Z</time>
      </trkpt>
      <trkpt lat="43.1653" lon="2.39262">
        <ele>254</ele>
        <time>2019-06-16T07:36:29.000Z</time>
      </trkpt>
      <trkpt lat="43.1653" lon="2.39262">
        <ele>254.1</ele>
        <time>2019-06-16T07:36:30.000Z</time>
      </trkpt>
      <trkpt lat="43.16529" lon="2.39261">
        <ele>254.1</ele>
        <time>2019-06-16T07:36:31.000Z</time>
      </trkpt>
      <trkpt lat="43.16529" lon="2.39261">
        <ele>254.1</ele>
        <time>2019-06-16T07:36:32.000Z</time>
      </trkpt>
      <trkpt lat="43.16528" lon="2.3926">
        <ele>254.1</ele>
        <time>2019-06-16T07:36:33.000Z</time>
      </trkpt>
      <trkpt lat="43.16527" lon="2.39259">
        <ele>254.1</ele>
        <time>2019-06-16T07:36:34.000Z</time>
      </trkpt>
      <trkpt lat="43.16527" lon="2.39258">
        <ele>254</ele>
        <time>2019-06-16T07:36:35.000Z</time>
      </trkpt>
      <trkpt lat="43.16527" lon="2.39257">
        <ele>254</ele>
        <time>2019-06-16T07:36:36.000Z</time>
      </trkpt>
      <trkpt lat="43.16527" lon="2.39256">
        <ele>254</ele>
        <time>2019-06-16T07:36:37.000Z</time>
      </trkpt>
      <trkpt lat="43.16527" lon="2.39256">
        <ele>254</ele>
        <time>2019-06-16T07:36:38.000Z</time>
      </trkpt>
      <trkpt lat="43.16526" lon="2.39255">
        <ele>254</ele>
        <time>2019-06-16T07:36:39.000Z</time>
      </trkpt>
      <trkpt lat="43.16526" lon="2.39255">
        <ele>254</ele>
        <time>2019-06-16T07:36:40.000Z</time>
      </trkpt>
      <trkpt lat="43.16526" lon="2.39255">
        <ele>254</ele>
        <time>2019-06-16T07:36:41.000Z</time>
      </trkpt>
      <trkpt lat="43.16526" lon="2.39255">
        <ele>254</ele>
        <time>2019-06-16T07:36:42.000Z</time>
      </trkpt>
      <trkpt lat="43.16526" lon="2.39255">
        <ele>254</ele>
        <time>2019-06-16T07:36:43.000Z</time>
      </trkpt>
      <trkpt lat="43.16526" lon="2.39255">
        <ele>254</ele>
        <time>2019-06-16T07:36:44.000Z</time>
      </trkpt>
      <trkpt lat="43.16526" lon="2.39255">
        <ele>254</ele>
        <time>2019-06-16T07:36:45.000Z</time>
      </trkpt>
      <trkpt lat="43.16526" lon="2.39255">
        <ele>254</ele>
        <time>2019-06-16T07:36:46.000Z</time>
      </trkpt>
      <trkpt lat="43.16526" lon="2.39255">
        <ele>254</ele>
        <time>2019-06-16T07:36:47.000Z</time>
      </trkpt>
      <trkpt lat="43.16526" lon="2.39255">
        <ele>254</ele>
        <time>2019-06-16T07:36:48.000Z</time>
      </trkpt>
      <trkpt lat="43.16526" lon="2.39255">
        <ele>254</ele>
        <time>2019-06-16T07:36:49.000Z</time>
      </trkpt>
      <trkpt lat="43.16526" lon="2.39255">
        <ele>254</ele>
        <time>2019-06-16T07:36:50.000Z</time>
      </trkpt>
      <trkpt lat="43.16526" lon="2.39255">
        <ele>254</ele>
        <time>2019-06-16T07:36:51.000Z</time>
      </trkpt>
      <trkpt lat="43.16526" lon="2.39255">
        <ele>254</ele>
        <time>2019-06-16T07:36:52.000Z</time>
      </trkpt>
      <trkpt lat="43.16526" lon="2.39255">
        <ele>254</ele>
        <time>2019-06-16T07:36:53.000Z</time>
      </trkpt>
      <trkpt lat="43.16526" lon="2.39255">
        <ele>254</ele>
        <time>2019-06-16T07:36:54.000Z</time>
      </trkpt>
      <trkpt lat="43.16526" lon="2.39255">
        <ele>254</ele>
        <time>2019-06-16T07:36:55.000Z</time>
      </trkpt>
      <trkpt lat="43.16526" lon="2.39255">
        <ele>254</ele>
        <time>2019-06-16T07:36:56.000Z</time>
      </trkpt>
      <trkpt lat="43.16526" lon="2.39255">
        <ele>254</ele>
        <time>2019-06-16T07:36:57.000Z</time>
      </trkpt>
      <trkpt lat="43.16526" lon="2.39255">
        <ele>254</ele>
        <time>2019-06-16T07:36:58.000Z</time>
      </trkpt>
      <trkpt lat="43.16526" lon="2.39255">
        <ele>254</ele>
        <time>2019-06-16T07:36:59.000Z</time>
      </trkpt>
      <trkpt lat="43.16526" lon="2.39255">
        <ele>254</ele>
        <time>2019-06-16T07:37:00.000Z</time>
      </trkpt>
      <trkpt lat="43.16526" lon="2.39255">
        <ele>254</ele>
        <time>2019-06-16T07:37:01.000Z</time>
      </trkpt>
      <trkpt lat="43.16526" lon="2.39255">
        <ele>253.9</ele>
        <time>2019-06-16T07:37:02.000Z</time>
      </trkpt>
      <trkpt lat="43.16526" lon="2.39254">
        <ele>253.9</ele>
        <time>2019-06-16T07:37:03.000Z</time>
      </trkpt>
      <trkpt lat="43.16526" lon="2.39253">
        <ele>253.9</ele>
        <time>2019-06-16T07:37:04.000Z</time>
      </trkpt>
      <trkpt lat="43.16526" lon="2.39252">
        <ele>253.8</ele>
        <time>2019-06-16T07:37:05.000Z</time>
      </trkpt>
      <trkpt lat="43.16526" lon="2.3925">
        <ele>253.8</ele>
        <time>2019-06-16T07:37:06.000Z</time>
      </trkpt>
      <trkpt lat="43.16526" lon="2.39249">
        <ele>253.6</ele>
        <time>2019-06-16T07:37:07.000Z</time>
      </trkpt>
      <trkpt lat="43.16526" lon="2.39247">
        <ele>253.5</ele>
        <time>2019-06-16T07:37:08.000Z</time>
      </trkpt>
      <trkpt lat="43.16526" lon="2.39245">
        <ele>253.4</ele>
        <time>2019-06-16T07:37:09.000Z</time>
      </trkpt>
      <trkpt lat="43.16526" lon="2.39244">
        <ele>253.3</ele>
        <time>2019-06-16T07:37:10.000Z</time>
      </trkpt>
      <trkpt lat="43.16527" lon="2.39242">
        <ele>253.1</ele>
        <time>2019-06-16T07:37:11.000Z</time>
      </trkpt>
      <trkpt lat="43.16527" lon="2.3924">
        <ele>253</ele>
        <time>2019-06-16T07:37:12.000Z</time>
      </trkpt>
      <trkpt lat="43.16527" lon="2.39239">
        <ele>252.9</ele>
        <time>2019-06-16T07:37:13.000Z</time>
      </trkpt>
      <trkpt lat="43.16527" lon="2.39237">
        <ele>252.8</ele>
        <time>2019-06-16T07:37:14.000Z</time>
      </trkpt>
      <trkpt lat="43.16528" lon="2.39236">
        <ele>252.6</ele>
        <time>2019-06-16T07:37:15.000Z</time>
      </trkpt>
      <trkpt lat="43.16528" lon="2.39234">
        <ele>252.5</ele>
        <time>2019-06-16T07:37:16.000Z</time>
      </trkpt>
      <trkpt lat="43.16528" lon="2.39233">
        <ele>252.4</ele>
        <time>2019-06-16T07:37:17.000Z</time>
      </trkpt>
      <trkpt lat="43.16529" lon="2.39232">
        <ele>252.3</ele>
        <time>2019-06-16T07:37:18.000Z</time>
      </trkpt>
      <trkpt lat="43.16529" lon="2.39231">
        <ele>252.2</ele>
        <time>2019-06-16T07:37:19.000Z</time>
      </trkpt>
      <trkpt lat="43.16529" lon="2.39229">
        <ele>252.1</ele>
        <time>2019-06-16T07:37:20.000Z</time>
      </trkpt>
      <trkpt lat="43.1653" lon="2.39228">
        <ele>252</ele>
        <time>2019-06-16T07:37:21.000Z</time>
      </trkpt>
      <trkpt lat="43.1653" lon="2.39227">
        <ele>251.9</ele>
        <time>2019-06-16T07:37:22.000Z</time>
      </trkpt>
      <trkpt lat="43.1653" lon="2.39226">
        <ele>251.8</ele>
        <time>2019-06-16T07:37:23.000Z</time>
      </trkpt>
      <trkpt lat="43.16531" lon="2.39224">
        <ele>251.7</ele>
        <time>2019-06-16T07:37:24.000Z</time>
      </trkpt>
      <trkpt lat="43.16532" lon="2.39223">
        <ele>251.6</ele>
        <time>2019-06-16T07:37:25.000Z</time>
      </trkpt>
      <trkpt lat="43.16532" lon="2.39222">
        <ele>251.5</ele>
        <time>2019-06-16T07:37:26.000Z</time>
      </trkpt>
      <trkpt lat="43.16533" lon="2.39221">
        <ele>251.4</ele>
        <time>2019-06-16T07:37:27.000Z</time>
      </trkpt>
      <trkpt lat="43.16533" lon="2.39219">
        <ele>251.3</ele>
        <time>2019-06-16T07:37:28.000Z</time>
      </trkpt>
      <trkpt lat="43.16534" lon="2.39218">
        <ele>251.2</ele>
        <time>2019-06-16T07:37:29.000Z</time>
      </trkpt>
      <trkpt lat="43.16534" lon="2.39216">
        <ele>251.1</ele>
        <time>2019-06-16T07:37:30.000Z</time>
      </trkpt>
      <trkpt lat="43.16535" lon="2.39215">
        <ele>251</ele>
        <time>2019-06-16T07:37:31.000Z</time>
      </trkpt>
      <trkpt lat="43.16535" lon="2.39213">
        <ele>250.9</ele>
        <time>2019-06-16T07:37:32.000Z</time>
      </trkpt>
      <trkpt lat="43.16536" lon="2.39212">
        <ele>250.8</ele>
        <time>2019-06-16T07:37:33.000Z</time>
      </trkpt>
      <trkpt lat="43.16536" lon="2.3921">
        <ele>250.7</ele>
        <time>2019-06-16T07:37:34.000Z</time>
      </trkpt>
      <trkpt lat="43.16537" lon="2.39208">
        <ele>250.5</ele>
        <time>2019-06-16T07:37:35.000Z</time>
      </trkpt>
      <trkpt lat="43.16537" lon="2.39206">
        <ele>250.4</ele>
        <time>2019-06-16T07:37:36.000Z</time>
      </trkpt>
      <trkpt lat="43.16538" lon="2.39204">
        <ele>250.3</ele>
        <time>2019-06-16T07:37:37.000Z</time>
      </trkpt>
      <trkpt lat="43.16539" lon="2.39202">
        <ele>250.1</ele>
        <time>2019-06-16T07:37:38.000Z</time>
      </trkpt>
      <trkpt lat="43.1654" lon="2.392">
        <ele>250</ele>
        <time>2019-06-16T07:37:39.000Z</time>
      </trkpt>
      <trkpt lat="43.16541" lon="2.39198">
        <ele>249.9</ele>
        <time>2019-06-16T07:37:40.000Z</time>
      </trkpt>
      <trkpt lat="43.16543" lon="2.39196">
        <ele>249.8</ele>
        <time>2019-06-16T07:37:41.000Z</time>
      </trkpt>
      <trkpt lat="43.16544" lon="2.39194">
        <ele>249.6</ele>
        <time>2019-06-16T07:37:42.000Z</time>
      </trkpt>
      <trkpt lat="43.16546" lon="2.39192">
        <ele>249.5</ele>
        <time>2019-06-16T07:37:43.000Z</time>
      </trkpt>
      <trkpt lat="43.16548" lon="2.39189">
        <ele>249.4</ele>
        <time>2019-06-16T07:37:44.000Z</time>
      </trkpt>
      <trkpt lat="43.16549" lon="2.39187">
        <ele>249.3</ele>
        <time>2019-06-16T07:37:45.000Z</time>
      </trkpt>
      <trkpt lat="43.16551" lon="2.39185">
        <ele>249.2</ele>
        <time>2019-06-16T07:37:46.000Z</time>
      </trkpt>
      <trkpt lat="43.16553" lon="2.39183">
        <ele>249.1</ele>
        <time>2019-06-16T07:37:47.000Z</time>
      </trkpt>
      <trkpt lat="43.16555" lon="2.3918">
        <ele>249</ele>
        <time>2019-06-16T07:37:48.000Z</time>
      </trkpt>
      <trkpt lat="43.16556" lon="2.39178">
        <ele>248.9</ele>
        <time>2019-06-16T07:37:49.000Z</time>
      </trkpt>
      <trkpt lat="43.16558" lon="2.39176">
        <ele>248.8</ele>
        <time>2019-06-16T07:37:50.000Z</time>
      </trkpt>
      <trkpt lat="43.1656" lon="2.39173">
        <ele>248.7</ele>
        <time>2019-06-16T07:37:51.000Z</time>
      </trkpt>
      <trkpt lat="43.16562" lon="2.39171">
        <ele>248.7</ele>
        <time>2019-06-16T07:37:52.000Z</time>
      </trkpt>
      <trkpt lat="43.16563" lon="2.39169">
        <ele>248.6</ele>
        <time>2019-06-16T07:37:53.000Z</time>
      </trkpt>
      <trkpt lat="43.16565" lon="2.39166">
        <ele>248.5</ele>
        <time>2019-06-16T07:37:54.000Z</time>
      </trkpt>
      <trkpt lat="43.16567" lon="2.39164">
        <ele>248.3</ele>
        <time>2019-06-16T07:37:55.000Z</time>
      </trkpt>
      <trkpt lat="43.16568" lon="2.39162">
        <ele>248.2</ele>
        <time>2019-06-16T07:37:56.000Z</time>
      </trkpt>
      <trkpt lat="43.1657" lon="2.3916">
        <ele>248</ele>
        <time>2019-06-16T07:37:57.000Z</time>
      </trkpt>
      <trkpt lat="43.16572" lon="2.39158">
        <ele>247.9</ele>
        <time>2019-06-16T07:37:58.000Z</time>
      </trkpt>
      <trkpt lat="43.16574" lon="2.39157">
        <ele>247.7</ele>
        <time>2019-06-16T07:37:59.000Z</time>
      </trkpt>
      <trkpt lat="43.16575" lon="2.39155">
        <ele>247.6</ele>
        <time>2019-06-16T07:38:00.000Z</time>
      </trkpt>
      <trkpt lat="43.16577" lon="2.39154">
        <ele>247.6</ele>
        <time>2019-06-16T07:38:01.000Z</time>
      </trkpt>
      <trkpt lat="43.16579" lon="2.39153">
        <ele>247.5</ele>
        <time>2019-06-16T07:38:02.000Z</time>
      </trkpt>
      <trkpt lat="43.16581" lon="2.39152">
        <ele>247.5</ele>
        <time>2019-06-16T07:38:03.000Z</time>
      </trkpt>
      <trkpt lat="43.16583" lon="2.39152">
        <ele>247.5</ele>
        <time>2019-06-16T07:38:04.000Z</time>
      </trkpt>
      <trkpt lat="43.16585" lon="2.39152">
        <ele>247.2</ele>
        <time>2019-06-16T07:38:05.000Z</time>
      </trkpt>
      <trkpt lat="43.16587" lon="2.39152">
        <ele>246.7</ele>
        <time>2019-06-16T07:38:06.000Z</time>
      </trkpt>
      <trkpt lat="43.16589" lon="2.39154">
        <ele>246.3</ele>
        <time>2019-06-16T07:38:07.000Z</time>
      </trkpt>
      <trkpt lat="43.16591" lon="2.39156">
        <ele>245.9</ele>
        <time>2019-06-16T07:38:08.000Z</time>
      </trkpt>
      <trkpt lat="43.16594" lon="2.39159">
        <ele>245.6</ele>
        <time>2019-06-16T07:38:09.000Z</time>
      </trkpt>
      <trkpt lat="43.16595" lon="2.39162">
        <ele>245.4</ele>
        <time>2019-06-16T07:38:10.000Z</time>
      </trkpt>
      <trkpt lat="43.16597" lon="2.39165">
        <ele>245.2</ele>
        <time>2019-06-16T07:38:11.000Z</time>
      </trkpt>
      <trkpt lat="43.16598" lon="2.39168">
        <ele>245.1</ele>
        <time>2019-06-16T07:38:12.000Z</time>
      </trkpt>
      <trkpt lat="43.16599" lon="2.39171">
        <ele>244.8</ele>
        <time>2019-06-16T07:38:13.000Z</time>
      </trkpt>
      <trkpt lat="43.166" lon="2.39174">
        <ele>244.6</ele>
        <time>2019-06-16T07:38:14.000Z</time>
      </trkpt>
      <trkpt lat="43.16601" lon="2.39178">
        <ele>244.4</ele>
        <time>2019-06-16T07:38:15.000Z</time>
      </trkpt>
      <trkpt lat="43.16602" lon="2.39181">
        <ele>244.1</ele>
        <time>2019-06-16T07:38:16.000Z</time>
      </trkpt>
      <trkpt lat="43.16603" lon="2.39184">
        <ele>243.9</ele>
        <time>2019-06-16T07:38:17.000Z</time>
      </trkpt>
      <trkpt lat="43.16604" lon="2.39187">
        <ele>243.7</ele>
        <time>2019-06-16T07:38:18.000Z</time>
      </trkpt>
      <trkpt lat="43.16605" lon="2.3919">
        <ele>243.4</ele>
        <time>2019-06-16T07:38:19.000Z</time>
      </trkpt>
      <trkpt lat="43.16606" lon="2.39193">
        <ele>243.1</ele>
        <time>2019-06-16T07:38:20.000Z</time>
      </trkpt>
      <trkpt lat="43.16607" lon="2.39196">
        <ele>242.8</ele>
        <time>2019-06-16T07:38:21.000Z</time>
      </trkpt>
      <trkpt lat="43.16608" lon="2.39199">
        <ele>242.6</ele>
        <time>2019-06-16T07:38:22.000Z</time>
      </trkpt>
      <trkpt lat="43.16609" lon="2.39203">
        <ele>242.4</ele>
        <time>2019-06-16T07:38:23.000Z</time>
      </trkpt>
      <trkpt lat="43.1661" lon="2.39207">
        <ele>242.2</ele>
        <time>2019-06-16T07:38:24.000Z</time>
      </trkpt>
      <trkpt lat="43.1661" lon="2.3921">
        <ele>242.1</ele>
        <time>2019-06-16T07:38:25.000Z</time>
      </trkpt>
      <trkpt lat="43.16611" lon="2.39214">
        <ele>242</ele>
        <time>2019-06-16T07:38:26.000Z</time>
      </trkpt>
      <trkpt lat="43.16611" lon="2.39217">
        <ele>242</ele>
        <time>2019-06-16T07:38:27.000Z</time>
      </trkpt>
      <trkpt lat="43.16611" lon="2.39221">
        <ele>242</ele>
        <time>2019-06-16T07:38:28.000Z</time>
      </trkpt>
      <trkpt lat="43.1661" lon="2.39224">
        <ele>242.1</ele>
        <time>2019-06-16T07:38:29.000Z</time>
      </trkpt>
      <trkpt lat="43.1661" lon="2.39228">
        <ele>242.3</ele>
        <time>2019-06-16T07:38:30.000Z</time>
      </trkpt>
      <trkpt lat="43.1661" lon="2.39231">
        <ele>242.4</ele>
        <time>2019-06-16T07:38:31.000Z</time>
      </trkpt>
      <trkpt lat="43.16609" lon="2.39235">
        <ele>242.6</ele>
        <time>2019-06-16T07:38:32.000Z</time>
      </trkpt>
      <trkpt lat="43.16609" lon="2.39238">
        <ele>242.8</ele>
        <time>2019-06-16T07:38:33.000Z</time>
      </trkpt>
      <trkpt lat="43.16608" lon="2.39242">
        <ele>243</ele>
        <time>2019-06-16T07:38:34.000Z</time>
      </trkpt>
      <trkpt lat="43.16608" lon="2.39246">
        <ele>243.1</ele>
        <time>2019-06-16T07:38:35.000Z</time>
      </trkpt>
      <trkpt lat="43.16607" lon="2.3925">
        <ele>243.3</ele>
        <time>2019-06-16T07:38:36.000Z</time>
      </trkpt>
      <trkpt lat="43.16606" lon="2.39254">
        <ele>243.5</ele>
        <time>2019-06-16T07:38:37.000Z</time>
      </trkpt>
      <trkpt lat="43.16606" lon="2.39258">
        <ele>243.6</ele>
        <time>2019-06-16T07:38:38.000Z</time>
      </trkpt>
      <trkpt lat="43.16605" lon="2.39262">
        <ele>243.7</ele>
        <time>2019-06-16T07:38:39.000Z</time>
      </trkpt>
      <trkpt lat="43.16605" lon="2.39266">
        <ele>243.8</ele>
        <time>2019-06-16T07:38:40.000Z</time>
      </trkpt>
      <trkpt lat="43.16604" lon="2.3927">
        <ele>244</ele>
        <time>2019-06-16T07:38:41.000Z</time>
      </trkpt>
      <trkpt lat="43.16604" lon="2.39274">
        <ele>244.1</ele>
        <time>2019-06-16T07:38:42.000Z</time>
      </trkpt>
      <trkpt lat="43.16603" lon="2.39277">
        <ele>244.2</ele>
        <time>2019-06-16T07:38:43.000Z</time>
      </trkpt>
      <trkpt lat="43.16603" lon="2.39281">
        <ele>244.3</ele>
        <time>2019-06-16T07:38:44.000Z</time>
      </trkpt>
      <trkpt lat="43.16603" lon="2.39284">
        <ele>244.4</ele>
        <time>2019-06-16T07:38:45.000Z</time>
      </trkpt>
      <trkpt lat="43.16602" lon="2.39288">
        <ele>244.4</ele>
        <time>2019-06-16T07:38:46.000Z</time>
      </trkpt>
      <trkpt lat="43.16602" lon="2.39291">
        <ele>244.4</ele>
        <time>2019-06-16T07:38:47.000Z</time>
      </trkpt>
      <trkpt lat="43.16602" lon="2.39295">
        <ele>244.4</ele>
        <time>2019-06-16T07:38:48.000Z</time>
      </trkpt>
      <trkpt lat="43.16602" lon="2.39298">
        <ele>244.3</ele>
        <time>2019-06-16T07:38:49.000Z</time>
      </trkpt>
      <trkpt lat="43.16603" lon="2.39302">
        <ele>244.1</ele>
        <time>2019-06-16T07:38:50.000Z</time>
      </trkpt>
      <trkpt lat="43.16603" lon="2.39305">
        <ele>243.9</ele>
        <time>2019-06-16T07:38:51.000Z</time>
      </trkpt>
      <trkpt lat="43.16604" lon="2.39309">
        <ele>243.6</ele>
        <time>2019-06-16T07:38:52.000Z</time>
      </trkpt>
      <trkpt lat="43.16605" lon="2.39313">
        <ele>243.3</ele>
        <time>2019-06-16T07:38:53.000Z</time>
      </trkpt>
      <trkpt lat="43.16606" lon="2.39317">
        <ele>243</ele>
        <time>2019-06-16T07:38:54.000Z</time>
      </trkpt>
      <trkpt lat="43.16606" lon="2.3932">
        <ele>242.7</ele>
        <time>2019-06-16T07:38:55.000Z</time>
      </trkpt>
      <trkpt lat="43.16607" lon="2.39324">
        <ele>242.5</ele>
        <time>2019-06-16T07:38:56.000Z</time>
      </trkpt>
      <trkpt lat="43.16607" lon="2.39328">
        <ele>242.3</ele>
        <time>2019-06-16T07:38:57.000Z</time>
      </trkpt>
      <trkpt lat="43.16608" lon="2.39332">
        <ele>242.2</ele>
        <time>2019-06-16T07:38:58.000Z</time>
      </trkpt>
      <trkpt lat="43.16608" lon="2.39335">
        <ele>242.2</ele>
        <time>2019-06-16T07:38:59.000Z</time>
      </trkpt>
      <trkpt lat="43.16607" lon="2.39339">
        <ele>242.3</ele>
        <time>2019-06-16T07:39:00.000Z</time>
      </trkpt>
      <trkpt lat="43.16607" lon="2.39342">
        <ele>242.3</ele>
        <time>2019-06-16T07:39:01.000Z</time>
      </trkpt>
      <trkpt lat="43.16607" lon="2.39346">
        <ele>242.4</ele>
        <time>2019-06-16T07:39:02.000Z</time>
      </trkpt>
      <trkpt lat="43.16607" lon="2.39349">
        <ele>242.5</ele>
        <time>2019-06-16T07:39:03.000Z</time>
      </trkpt>
      <trkpt lat="43.16607" lon="2.39353">
        <ele>242.6</ele>
        <time>2019-06-16T07:39:04.000Z</time>
      </trkpt>
      <trkpt lat="43.16607" lon="2.39356">
        <ele>242.7</ele>
        <time>2019-06-16T07:39:05.000Z</time>
      </trkpt>
      <trkpt lat="43.16607" lon="2.3936">
        <ele>242.7</ele>
        <time>2019-06-16T07:39:06.000Z</time>
      </trkpt>
      <trkpt lat="43.16607" lon="2.39363">
        <ele>242.6</ele>
        <time>2019-06-16T07:39:07.000Z</time>
      </trkpt>
      <trkpt lat="43.16607" lon="2.39367">
        <ele>242.5</ele>
        <time>2019-06-16T07:39:08.000Z</time>
      </trkpt>
      <trkpt lat="43.16608" lon="2.3937">
        <ele>242.5</ele>
        <time>2019-06-16T07:39:09.000Z</time>
      </trkpt>
      <trkpt lat="43.16608" lon="2.39373">
        <ele>242.3</ele>
        <time>2019-06-16T07:39:10.000Z</time>
      </trkpt>
      <trkpt lat="43.16609" lon="2.39377">
        <ele>242.2</ele>
        <time>2019-06-16T07:39:11.000Z</time>
      </trkpt>
      <trkpt lat="43.16609" lon="2.3938">
        <ele>242.1</ele>
        <time>2019-06-16T07:39:12.000Z</time>
      </trkpt>
      <trkpt lat="43.1661" lon="2.39383">
        <ele>242</ele>
        <time>2019-06-16T07:39:13.000Z</time>
      </trkpt>
      <trkpt lat="43.1661" lon="2.39386">
        <ele>241.8</ele>
        <time>2019-06-16T07:39:14.000Z</time>
      </trkpt>
      <trkpt lat="43.16611" lon="2.39389">
        <ele>241.7</ele>
        <time>2019-06-16T07:39:15.000Z</time>
      </trkpt>
      <trkpt lat="43.16612" lon="2.39391">
        <ele>241.5</ele>
        <time>2019-06-16T07:39:16.000Z</time>
      </trkpt>
      <trkpt lat="43.16613" lon="2.39393">
        <ele>241.1</ele>
        <time>2019-06-16T07:39:17.000Z</time>
      </trkpt>
      <trkpt lat="43.16615" lon="2.39393">
        <ele>240.7</ele>
        <time>2019-06-16T07:39:18.000Z</time>
      </trkpt>
      <trkpt lat="43.16616" lon="2.39393">
        <ele>240.1</ele>
        <time>2019-06-16T07:39:19.000Z</time>
      </trkpt>
      <trkpt lat="43.16618" lon="2.39391">
        <ele>239.5</ele>
        <time>2019-06-16T07:39:20.000Z</time>
      </trkpt>
      <trkpt lat="43.1662" lon="2.3939">
        <ele>239</ele>
        <time>2019-06-16T07:39:21.000Z</time>
      </trkpt>
      <trkpt lat="43.16622" lon="2.39387">
        <ele>238.5</ele>
        <time>2019-06-16T07:39:22.000Z</time>
      </trkpt>
      <trkpt lat="43.16623" lon="2.39384">
        <ele>238</ele>
        <time>2019-06-16T07:39:23.000Z</time>
      </trkpt>
      <trkpt lat="43.16625" lon="2.39381">
        <ele>237.4</ele>
        <time>2019-06-16T07:39:24.000Z</time>
      </trkpt>
      <trkpt lat="43.16626" lon="2.39378">
        <ele>236.9</ele>
        <time>2019-06-16T07:39:25.000Z</time>
      </trkpt>
      <trkpt lat="43.16628" lon="2.39374">
        <ele>236.3</ele>
        <time>2019-06-16T07:39:26.000Z</time>
      </trkpt>
      <trkpt lat="43.1663" lon="2.39371">
        <ele>235.8</ele>
        <time>2019-06-16T07:39:27.000Z</time>
      </trkpt>
      <trkpt lat="43.16631" lon="2.39368">
        <ele>235.2</ele>
        <time>2019-06-16T07:39:28.000Z</time>
      </trkpt>
      <trkpt lat="43.16633" lon="2.39365">
        <ele>234.5</ele>
        <time>2019-06-16T07:39:29.000Z</time>
      </trkpt>
      <trkpt lat="43.16635" lon="2.39362">
        <ele>233.9</ele>
        <time>2019-06-16T07:39:30.000Z</time>
      </trkpt>
      <trkpt lat="43.16637" lon="2.39359">
        <ele>233.1</ele>
        <time>2019-06-16T07:39:31.000Z</time>
      </trkpt>
      <trkpt lat="43.16639" lon="2.39357">
        <ele>232.4</ele>
        <time>2019-06-16T07:39:32.000Z</time>
      </trkpt>
      <trkpt lat="43.16642" lon="2.39354">
        <ele>231.6</ele>
        <time>2019-06-16T07:39:33.000Z</time>
      </trkpt>
      <trkpt lat="43.16644" lon="2.39352">
        <ele>230.9</ele>
        <time>2019-06-16T07:39:34.000Z</time>
      </trkpt>
      <trkpt lat="43.16646" lon="2.3935">
        <ele>230</ele>
        <time>2019-06-16T07:39:35.000Z</time>
      </trkpt>
      <trkpt lat="43.16649" lon="2.39347">
        <ele>229.3</ele>
        <time>2019-06-16T07:39:36.000Z</time>
      </trkpt>
      <trkpt lat="43.16651" lon="2.39345">
        <ele>228.4</ele>
        <time>2019-06-16T07:39:37.000Z</time>
      </trkpt>
      <trkpt lat="43.16653" lon="2.39343">
        <ele>227.6</ele>
        <time>2019-06-16T07:39:38.000Z</time>
      </trkpt>
      <trkpt lat="43.16656" lon="2.39341">
        <ele>226.8</ele>
        <time>2019-06-16T07:39:39.000Z</time>
      </trkpt>
      <trkpt lat="43.16658" lon="2.39339">
        <ele>226</ele>
        <time>2019-06-16T07:39:40.000Z</time>
      </trkpt>
      <trkpt lat="43.16661" lon="2.39337">
        <ele>225.1</ele>
        <time>2019-06-16T07:39:41.000Z</time>
      </trkpt>
      <trkpt lat="43.16663" lon="2.39335">
        <ele>224.3</ele>
        <time>2019-06-16T07:39:42.000Z</time>
      </trkpt>
      <trkpt lat="43.16665" lon="2.39333">
        <ele>223.5</ele>
        <time>2019-06-16T07:39:43.000Z</time>
      </trkpt>
      <trkpt lat="43.16668" lon="2.39331">
        <ele>222.9</ele>
        <time>2019-06-16T07:39:44.000Z</time>
      </trkpt>
      <trkpt lat="43.1667" lon="2.39329">
        <ele>222.6</ele>
        <time>2019-06-16T07:39:45.000Z</time>
      </trkpt>
      <trkpt lat="43.16672" lon="2.39327">
        <ele>222.3</ele>
        <time>2019-06-16T07:39:46.000Z</time>
      </trkpt>
      <trkpt lat="43.16674" lon="2.39325">
        <ele>222</ele>
        <time>2019-06-16T07:39:47.000Z</time>
      </trkpt>
      <trkpt lat="43.16676" lon="2.39323">
        <ele>221.7</ele>
        <time>2019-06-16T07:39:48.000Z</time>
      </trkpt>
      <trkpt lat="43.16679" lon="2.39321">
        <ele>221.4</ele>
        <time>2019-06-16T07:39:49.000Z</time>
      </trkpt>
      <trkpt lat="43.16681" lon="2.39319">
        <ele>221.2</ele>
        <time>2019-06-16T07:39:50.000Z</time>
      </trkpt>
      <trkpt lat="43.16683" lon="2.39317">
        <ele>220.9</ele>
        <time>2019-06-16T07:39:51.000Z</time>
      </trkpt>
      <trkpt lat="43.16685" lon="2.39315">
        <ele>220.6</ele>
        <time>2019-06-16T07:39:52.000Z</time>
      </trkpt>
      <trkpt lat="43.16687" lon="2.39312">
        <ele>220.4</ele>
        <time>2019-06-16T07:39:53.000Z</time>
      </trkpt>
      <trkpt lat="43.16688" lon="2.3931">
        <ele>220.1</ele>
        <time>2019-06-16T07:39:54.000Z</time>
      </trkpt>
      <trkpt lat="43.1669" lon="2.39308">
        <ele>219.9</ele>
        <time>2019-06-16T07:39:55.000Z</time>
      </trkpt>
      <trkpt lat="43.16692" lon="2.39306">
        <ele>219.7</ele>
        <time>2019-06-16T07:39:56.000Z</time>
      </trkpt>
      <trkpt lat="43.16694" lon="2.39304">
        <ele>219.4</ele>
        <time>2019-06-16T07:39:57.000Z</time>
      </trkpt>
      <trkpt lat="43.16696" lon="2.39302">
        <ele>219.1</ele>
        <time>2019-06-16T07:39:58.000Z</time>
      </trkpt>
      <trkpt lat="43.16698" lon="2.393">
        <ele>218.9</ele>
        <time>2019-06-16T07:39:59.000Z</time>
      </trkpt>
      <trkpt lat="43.167" lon="2.39298">
        <ele>218.6</ele>
        <time>2019-06-16T07:40:00.000Z</time>
      </trkpt>
      <trkpt lat="43.16703" lon="2.39296">
        <ele>218.3</ele>
        <time>2019-06-16T07:40:01.000Z</time>
      </trkpt>
      <trkpt lat="43.16705" lon="2.39294">
        <ele>217.9</ele>
        <time>2019-06-16T07:40:02.000Z</time>
      </trkpt>
      <trkpt lat="43.16708" lon="2.39292">
        <ele>217.6</ele>
        <time>2019-06-16T07:40:03.000Z</time>
      </trkpt>
      <trkpt lat="43.1671" lon="2.3929">
        <ele>217.3</ele>
        <time>2019-06-16T07:40:04.000Z</time>
      </trkpt>
      <trkpt lat="43.16712" lon="2.39287">
        <ele>217</ele>
        <time>2019-06-16T07:40:05.000Z</time>
      </trkpt>
      <trkpt lat="43.16715" lon="2.39285">
        <ele>216.7</ele>
        <time>2019-06-16T07:40:06.000Z</time>
      </trkpt>
      <trkpt lat="43.16717" lon="2.39282">
        <ele>216.4</ele>
        <time>2019-06-16T07:40:07.000Z</time>
      </trkpt>
      <trkpt lat="43.16718" lon="2.39279">
        <ele>216.2</ele>
        <time>2019-06-16T07:40:08.000Z</time>
      </trkpt>
      <trkpt lat="43.1672" lon="2.39276">
        <ele>216</ele>
        <time>2019-06-16T07:40:09.000Z</time>
      </trkpt>
      <trkpt lat="43.16721" lon="2.39273">
        <ele>215.9</ele>
        <time>2019-06-16T07:40:10.000Z</time>
      </trkpt>
      <trkpt lat="43.16722" lon="2.39269">
        <ele>215.9</ele>
        <time>2019-06-16T07:40:11.000Z</time>
      </trkpt>
      <trkpt lat="43.16722" lon="2.39266">
        <ele>215.8</ele>
        <time>2019-06-16T07:40:12.000Z</time>
      </trkpt>
      <trkpt lat="43.16723" lon="2.39262">
        <ele>215.8</ele>
        <time>2019-06-16T07:40:13.000Z</time>
      </trkpt>
      <trkpt lat="43.16723" lon="2.39258">
        <ele>215.7</ele>
        <time>2019-06-16T07:40:14.000Z</time>
      </trkpt>
      <trkpt lat="43.16724" lon="2.39254">
        <ele>215.7</ele>
        <time>2019-06-16T07:40:15.000Z</time>
      </trkpt>
      <trkpt lat="43.16724" lon="2.3925">
        <ele>215.7</ele>
        <time>2019-06-16T07:40:16.000Z</time>
      </trkpt>
      <trkpt lat="43.16725" lon="2.39246">
        <ele>215.5</ele>
        <time>2019-06-16T07:40:17.000Z</time>
      </trkpt>
      <trkpt lat="43.16726" lon="2.39242">
        <ele>215.4</ele>
        <time>2019-06-16T07:40:18.000Z</time>
      </trkpt>
      <trkpt lat="43.16727" lon="2.39238">
        <ele>215.2</ele>
        <time>2019-06-16T07:40:19.000Z</time>
      </trkpt>
      <trkpt lat="43.16727" lon="2.39234">
        <ele>215</ele>
        <time>2019-06-16T07:40:20.000Z</time>
      </trkpt>
      <trkpt lat="43.16728" lon="2.3923">
        <ele>214.8</ele>
        <time>2019-06-16T07:40:21.000Z</time>
      </trkpt>
      <trkpt lat="43.16729" lon="2.39226">
        <ele>214.6</ele>
        <time>2019-06-16T07:40:22.000Z</time>
      </trkpt>
      <trkpt lat="43.1673" lon="2.39222">
        <ele>214.4</ele>
        <time>2019-06-16T07:40:23.000Z</time>
      </trkpt>
      <trkpt lat="43.1673" lon="2.39219">
        <ele>214.3</ele>
        <time>2019-06-16T07:40:24.000Z</time>
      </trkpt>
      <trkpt lat="43.16731" lon="2.39215">
        <ele>214.1</ele>
        <time>2019-06-16T07:40:25.000Z</time>
      </trkpt>
      <trkpt lat="43.16731" lon="2.39212">
        <ele>214</ele>
        <time>2019-06-16T07:40:26.000Z</time>
      </trkpt>
      <trkpt lat="43.16731" lon="2.39208">
        <ele>213.9</ele>
        <time>2019-06-16T07:40:27.000Z</time>
      </trkpt>
      <trkpt lat="43.16731" lon="2.39205">
        <ele>213.8</ele>
        <time>2019-06-16T07:40:28.000Z</time>
      </trkpt>
      <trkpt lat="43.16731" lon="2.39201">
        <ele>213.7</ele>
        <time>2019-06-16T07:40:29.000Z</time>
      </trkpt>
      <trkpt lat="43.16731" lon="2.39197">
        <ele>213.7</ele>
        <time>2019-06-16T07:40:30.000Z</time>
      </trkpt>
      <trkpt lat="43.16731" lon="2.39193">
        <ele>213.7</ele>
        <time>2019-06-16T07:40:31.000Z</time>
      </trkpt>
      <trkpt lat="43.1673" lon="2.39189">
        <ele>213.7</ele>
        <time>2019-06-16T07:40:32.000Z</time>
      </trkpt>
      <trkpt lat="43.1673" lon="2.39184">
        <ele>213.7</ele>
        <time>2019-06-16T07:40:33.000Z</time>
      </trkpt>
      <trkpt lat="43.16729" lon="2.3918">
        <ele>213.7</ele>
        <time>2019-06-16T07:40:34.000Z</time>
      </trkpt>
      <trkpt lat="43.16729" lon="2.39175">
        <ele>213.8</ele>
        <time>2019-06-16T07:40:35.000Z</time>
      </trkpt>
      <trkpt lat="43.16728" lon="2.39171">
        <ele>213.8</ele>
        <time>2019-06-16T07:40:36.000Z</time>
      </trkpt>
      <trkpt lat="43.16727" lon="2.39166">
        <ele>213.9</ele>
        <time>2019-06-16T07:40:37.000Z</time>
      </trkpt>
      <trkpt lat="43.16727" lon="2.39161">
        <ele>213.9</ele>
        <time>2019-06-16T07:40:38.000Z</time>
      </trkpt>
      <trkpt lat="43.16726" lon="2.39157">
        <ele>214</ele>
        <time>2019-06-16T07:40:39.000Z</time>
      </trkpt>
      <trkpt lat="43.16726" lon="2.39152">
        <ele>214</ele>
        <time>2019-06-16T07:40:40.000Z</time>
      </trkpt>
      <trkpt lat="43.16726" lon="2.39148">
        <ele>214</ele>
        <time>2019-06-16T07:40:41.000Z</time>
      </trkpt>
      <trkpt lat="43.16726" lon="2.39143">
        <ele>214</ele>
        <time>2019-06-16T07:40:42.000Z</time>
      </trkpt>
      <trkpt lat="43.16726" lon="2.39139">
        <ele>214</ele>
        <time>2019-06-16T07:40:43.000Z</time>
      </trkpt>
      <trkpt lat="43.16726" lon="2.39135">
        <ele>213.9</ele>
        <time>2019-06-16T07:40:44.000Z</time>
      </trkpt>
      <trkpt lat="43.16726" lon="2.39131">
        <ele>213.8</ele>
        <time>2019-06-16T07:40:45.000Z</time>
      </trkpt>
      <trkpt lat="43.16726" lon="2.39127">
        <ele>213.7</ele>
        <time>2019-06-16T07:40:46.000Z</time>
      </trkpt>
      <trkpt lat="43.16727" lon="2.39123">
        <ele>213.5</ele>
        <time>2019-06-16T07:40:47.000Z</time>
      </trkpt>
      <trkpt lat="43.16727" lon="2.39119">
        <ele>213.4</ele>
        <time>2019-06-16T07:40:48.000Z</time>
      </trkpt>
      <trkpt lat="43.16728" lon="2.39115">
        <ele>213.2</ele>
        <time>2019-06-16T07:40:49.000Z</time>
      </trkpt>
      <trkpt lat="43.16728" lon="2.39111">
        <ele>213</ele>
        <time>2019-06-16T07:40:50.000Z</time>
      </trkpt>
      <trkpt lat="43.16729" lon="2.39107">
        <ele>212.9</ele>
        <time>2019-06-16T07:40:51.000Z</time>
      </trkpt>
      <trkpt lat="43.16729" lon="2.39103">
        <ele>212.8</ele>
        <time>2019-06-16T07:40:52.000Z</time>
      </trkpt>
      <trkpt lat="43.16729" lon="2.39099">
        <ele>212.7</ele>
        <time>2019-06-16T07:40:53.000Z</time>
      </trkpt>
      <trkpt lat="43.1673" lon="2.39096">
        <ele>212.6</ele>
        <time>2019-06-16T07:40:54.000Z</time>
      </trkpt>
      <trkpt lat="43.1673" lon="2.39092">
        <ele>212.4</ele>
        <time>2019-06-16T07:40:55.000Z</time>
      </trkpt>
      <trkpt lat="43.16731" lon="2.39088">
        <ele>212.3</ele>
        <time>2019-06-16T07:40:56.000Z</time>
      </trkpt>
      <trkpt lat="43.16731" lon="2.39085">
        <ele>212.1</ele>
        <time>2019-06-16T07:40:57.000Z</time>
      </trkpt>
      <trkpt lat="43.16732" lon="2.39081">
        <ele>211.8</ele>
        <time>2019-06-16T07:40:58.000Z</time>
      </trkpt>
      <trkpt lat="43.16733" lon="2.39078">
        <ele>211.5</ele>
        <time>2019-06-16T07:40:59.000Z</time>
      </trkpt>
      <trkpt lat="43.16734" lon="2.39074">
        <ele>211.2</ele>
        <time>2019-06-16T07:41:00.000Z</time>
      </trkpt>
      <trkpt lat="43.16735" lon="2.39071">
        <ele>210.9</ele>
        <time>2019-06-16T07:41:01.000Z</time>
      </trkpt>
      <trkpt lat="43.16736" lon="2.39067">
        <ele>210.5</ele>
        <time>2019-06-16T07:41:02.000Z</time>
      </trkpt>
      <trkpt lat="43.16737" lon="2.39063">
        <ele>210.2</ele>
        <time>2019-06-16T07:41:03.000Z</time>
      </trkpt>
      <trkpt lat="43.16738" lon="2.3906">
        <ele>209.9</ele>
        <time>2019-06-16T07:41:04.000Z</time>
      </trkpt>
      <trkpt lat="43.16739" lon="2.39056">
        <ele>209.6</ele>
        <time>2019-06-16T07:41:05.000Z</time>
      </trkpt>
      <trkpt lat="43.16739" lon="2.39052">
        <ele>209.3</ele>
        <time>2019-06-16T07:41:06.000Z</time>
      </trkpt>
      <trkpt lat="43.1674" lon="2.39048">
        <ele>208.9</ele>
        <time>2019-06-16T07:41:07.000Z</time>
      </trkpt>
      <trkpt lat="43.16741" lon="2.39044">
        <ele>208.7</ele>
        <time>2019-06-16T07:41:08.000Z</time>
      </trkpt>
      <trkpt lat="43.16742" lon="2.3904">
        <ele>208.4</ele>
        <time>2019-06-16T07:41:09.000Z</time>
      </trkpt>
      <trkpt lat="43.16742" lon="2.39037">
        <ele>208.1</ele>
        <time>2019-06-16T07:41:10.000Z</time>
      </trkpt>
      <trkpt lat="43.16743" lon="2.39033">
        <ele>207.8</ele>
        <time>2019-06-16T07:41:11.000Z</time>
      </trkpt>
      <trkpt lat="43.16744" lon="2.39029">
        <ele>207.5</ele>
        <time>2019-06-16T07:41:12.000Z</time>
      </trkpt>
      <trkpt lat="43.16744" lon="2.39026">
        <ele>207.2</ele>
        <time>2019-06-16T07:41:13.000Z</time>
      </trkpt>
      <trkpt lat="43.16745" lon="2.39023">
        <ele>207</ele>
        <time>2019-06-16T07:41:14.000Z</time>
      </trkpt>
      <trkpt lat="43.16746" lon="2.39019">
        <ele>206.6</ele>
        <time>2019-06-16T07:41:15.000Z</time>
      </trkpt>
      <trkpt lat="43.16747" lon="2.39016">
        <ele>206.4</ele>
        <time>2019-06-16T07:41:16.000Z</time>
      </trkpt>
      <trkpt lat="43.16747" lon="2.39012">
        <ele>206.1</ele>
        <time>2019-06-16T07:41:17.000Z</time>
      </trkpt>
      <trkpt lat="43.16748" lon="2.39009">
        <ele>205.7</ele>
        <time>2019-06-16T07:41:18.000Z</time>
      </trkpt>
      <trkpt lat="43.16749" lon="2.39005">
        <ele>205.4</ele>
        <time>2019-06-16T07:41:19.000Z</time>
      </trkpt>
      <trkpt lat="43.1675" lon="2.39001">
        <ele>205.1</ele>
        <time>2019-06-16T07:41:20.000Z</time>
      </trkpt>
      <trkpt lat="43.16751" lon="2.38997">
        <ele>204.8</ele>
        <time>2019-06-16T07:41:21.000Z</time>
      </trkpt>
      <trkpt lat="43.16752" lon="2.38993">
        <ele>204.6</ele>
        <time>2019-06-16T07:41:22.000Z</time>
      </trkpt>
      <trkpt lat="43.16753" lon="2.3899">
        <ele>204.3</ele>
        <time>2019-06-16T07:41:23.000Z</time>
      </trkpt>
      <trkpt lat="43.16754" lon="2.38986">
        <ele>204</ele>
        <time>2019-06-16T07:41:24.000Z</time>
      </trkpt>
      <trkpt lat="43.16755" lon="2.38983">
        <ele>203.7</ele>
        <time>2019-06-16T07:41:25.000Z</time>
      </trkpt>
      <trkpt lat="43.16757" lon="2.3898">
        <ele>203.4</ele>
        <time>2019-06-16T07:41:26.000Z</time>
      </trkpt>
      <trkpt lat="43.16758" lon="2.38977">
        <ele>203</ele>
        <time>2019-06-16T07:41:27.000Z</time>
      </trkpt>
      <trkpt lat="43.1676" lon="2.38975">
        <ele>202.7</ele>
        <time>2019-06-16T07:41:28.000Z</time>
      </trkpt>
      <trkpt lat="43.16762" lon="2.38973">
        <ele>202.3</ele>
        <time>2019-06-16T07:41:29.000Z</time>
      </trkpt>
      <trkpt lat="43.16764" lon="2.38972">
        <ele>201.9</ele>
        <time>2019-06-16T07:41:30.000Z</time>
      </trkpt>
      <trkpt lat="43.16767" lon="2.38971">
        <ele>201.5</ele>
        <time>2019-06-16T07:41:31.000Z</time>
      </trkpt>
      <trkpt lat="43.16769" lon="2.3897">
        <ele>201.1</ele>
        <time>2019-06-16T07:41:32.000Z</time>
      </trkpt>
      <trkpt lat="43.16772" lon="2.3897">
        <ele>200.6</ele>
        <time>2019-06-16T07:41:33.000Z</time>
      </trkpt>
      <trkpt lat="43.16774" lon="2.3897">
        <ele>200.2</ele>
        <time>2019-06-16T07:41:34.000Z</time>
      </trkpt>
      <trkpt lat="43.16777" lon="2.3897">
        <ele>199.7</ele>
        <time>2019-06-16T07:41:35.000Z</time>
      </trkpt>
      <trkpt lat="43.1678" lon="2.3897">
        <ele>199.3</ele>
        <time>2019-06-16T07:41:36.000Z</time>
      </trkpt>
      <trkpt lat="43.16782" lon="2.3897">
        <ele>198.8</ele>
        <time>2019-06-16T07:41:37.000Z</time>
      </trkpt>
      <trkpt lat="43.16785" lon="2.3897">
        <ele>198.4</ele>
        <time>2019-06-16T07:41:38.000Z</time>
      </trkpt>
      <trkpt lat="43.16788" lon="2.38969">
        <ele>198</ele>
        <time>2019-06-16T07:41:39.000Z</time>
      </trkpt>
      <trkpt lat="43.1679" lon="2.38969">
        <ele>197.5</ele>
        <time>2019-06-16T07:41:40.000Z</time>
      </trkpt>
      <trkpt lat="43.16793" lon="2.38968">
        <ele>197.1</ele>
        <time>2019-06-16T07:41:41.000Z</time>
      </trkpt>
      <trkpt lat="43.16795" lon="2.38968">
        <ele>196.7</ele>
        <time>2019-06-16T07:41:42.000Z</time>
      </trkpt>
      <trkpt lat="43.16797" lon="2.38967">
        <ele>196.3</ele>
        <time>2019-06-16T07:41:43.000Z</time>
      </trkpt>
      <trkpt lat="43.16799" lon="2.38966">
        <ele>195.9</ele>
        <time>2019-06-16T07:41:44.000Z</time>
      </trkpt>
      <trkpt lat="43.16802" lon="2.38964">
        <ele>195.5</ele>
        <time>2019-06-16T07:41:45.000Z</time>
      </trkpt>
      <trkpt lat="43.16804" lon="2.38963">
        <ele>195.1</ele>
        <time>2019-06-16T07:41:46.000Z</time>
      </trkpt>
      <trkpt lat="43.16806" lon="2.38962">
        <ele>194.6</ele>
        <time>2019-06-16T07:41:47.000Z</time>
      </trkpt>
      <trkpt lat="43.16809" lon="2.38961">
        <ele>194.2</ele>
        <time>2019-06-16T07:41:48.000Z</time>
      </trkpt>
      <trkpt lat="43.16811" lon="2.3896">
        <ele>193.7</ele>
        <time>2019-06-16T07:41:49.000Z</time>
      </trkpt>
      <trkpt lat="43.16814" lon="2.38959">
        <ele>193.2</ele>
        <time>2019-06-16T07:41:50.000Z</time>
      </trkpt>
      <trkpt lat="43.16817" lon="2.38958">
        <ele>192.8</ele>
        <time>2019-06-16T07:41:51.000Z</time>
      </trkpt>
      <trkpt lat="43.16819" lon="2.38957">
        <ele>192.3</ele>
        <time>2019-06-16T07:41:52.000Z</time>
      </trkpt>
      <trkpt lat="43.16821" lon="2.38957">
        <ele>192</ele>
        <time>2019-06-16T07:41:53.000Z</time>
      </trkpt>
      <trkpt lat="43.16822" lon="2.38955">
        <ele>191.8</ele>
        <time>2019-06-16T07:41:54.000Z</time>
      </trkpt>
      <trkpt lat="43.16822" lon="2.38954">
        <ele>191.7</ele>
        <time>2019-06-16T07:41:55.000Z</time>
      </trkpt>
      <trkpt lat="43.16821" lon="2.38952">
        <ele>191.9</ele>
        <time>2019-06-16T07:41:56.000Z</time>
      </trkpt>
      <trkpt lat="43.1682" lon="2.38951">
        <ele>192.1</ele>
        <time>2019-06-16T07:41:57.000Z</time>
      </trkpt>
      <trkpt lat="43.16818" lon="2.38949">
        <ele>192.4</ele>
        <time>2019-06-16T07:41:58.000Z</time>
      </trkpt>
      <trkpt lat="43.16816" lon="2.38948">
        <ele>192.7</ele>
        <time>2019-06-16T07:41:59.000Z</time>
      </trkpt>
      <trkpt lat="43.16814" lon="2.38946">
        <ele>193</ele>
        <time>2019-06-16T07:42:00.000Z</time>
      </trkpt>
      <trkpt lat="43.16811" lon="2.38945">
        <ele>193.4</ele>
        <time>2019-06-16T07:42:01.000Z</time>
      </trkpt>
      <trkpt lat="43.16809" lon="2.38944">
        <ele>193.7</ele>
        <time>2019-06-16T07:42:02.000Z</time>
      </trkpt>
      <trkpt lat="43.16807" lon="2.38943">
        <ele>194.1</ele>
        <time>2019-06-16T07:42:03.000Z</time>
      </trkpt>
      <trkpt lat="43.16804" lon="2.38942">
        <ele>194.5</ele>
        <time>2019-06-16T07:42:04.000Z</time>
      </trkpt>
      <trkpt lat="43.16802" lon="2.38941">
        <ele>194.8</ele>
        <time>2019-06-16T07:42:05.000Z</time>
      </trkpt>
      <trkpt lat="43.168" lon="2.38939">
        <ele>195.1</ele>
        <time>2019-06-16T07:42:06.000Z</time>
      </trkpt>
      <trkpt lat="43.16798" lon="2.38937">
        <ele>195.4</ele>
        <time>2019-06-16T07:42:07.000Z</time>
      </trkpt>
      <trkpt lat="43.16796" lon="2.38935">
        <ele>195.7</ele>
        <time>2019-06-16T07:42:08.000Z</time>
      </trkpt>
      <trkpt lat="43.16794" lon="2.38932">
        <ele>195.9</ele>
        <time>2019-06-16T07:42:09.000Z</time>
      </trkpt>
      <trkpt lat="43.16793" lon="2.3893">
        <ele>196.1</ele>
        <time>2019-06-16T07:42:10.000Z</time>
      </trkpt>
      <trkpt lat="43.16791" lon="2.38927">
        <ele>196.3</ele>
        <time>2019-06-16T07:42:11.000Z</time>
      </trkpt>
      <trkpt lat="43.1679" lon="2.38924">
        <ele>196.4</ele>
        <time>2019-06-16T07:42:12.000Z</time>
      </trkpt>
      <trkpt lat="43.16789" lon="2.38921">
        <ele>196.6</ele>
        <time>2019-06-16T07:42:13.000Z</time>
      </trkpt>
      <trkpt lat="43.16788" lon="2.38917">
        <ele>196.6</ele>
        <time>2019-06-16T07:42:14.000Z</time>
      </trkpt>
      <trkpt lat="43.16787" lon="2.38914">
        <ele>196.6</ele>
        <time>2019-06-16T07:42:15.000Z</time>
      </trkpt>
      <trkpt lat="43.16786" lon="2.38911">
        <ele>196.6</ele>
        <time>2019-06-16T07:42:16.000Z</time>
      </trkpt>
      <trkpt lat="43.16786" lon="2.38907">
        <ele>196.5</ele>
        <time>2019-06-16T07:42:17.000Z</time>
      </trkpt>
      <trkpt lat="43.16786" lon="2.38904">
        <ele>196.4</ele>
        <time>2019-06-16T07:42:18.000Z</time>
      </trkpt>
      <trkpt lat="43.16785" lon="2.38901">
        <ele>196.2</ele>
        <time>2019-06-16T07:42:19.000Z</time>
      </trkpt>
      <trkpt lat="43.16785" lon="2.38897">
        <ele>196.1</ele>
        <time>2019-06-16T07:42:20.000Z</time>
      </trkpt>
      <trkpt lat="43.16785" lon="2.38894">
        <ele>195.9</ele>
        <time>2019-06-16T07:42:21.000Z</time>
      </trkpt>
      <trkpt lat="43.16785" lon="2.3889">
        <ele>195.7</ele>
        <time>2019-06-16T07:42:22.000Z</time>
      </trkpt>
      <trkpt lat="43.16785" lon="2.38887">
        <ele>195.5</ele>
        <time>2019-06-16T07:42:23.000Z</time>
      </trkpt>
      <trkpt lat="43.16786" lon="2.38883">
        <ele>195.2</ele>
        <time>2019-06-16T07:42:24.000Z</time>
      </trkpt>
      <trkpt lat="43.16786" lon="2.38879">
        <ele>195</ele>
        <time>2019-06-16T07:42:25.000Z</time>
      </trkpt>
      <trkpt lat="43.16786" lon="2.38876">
        <ele>194.7</ele>
        <time>2019-06-16T07:42:26.000Z</time>
      </trkpt>
      <trkpt lat="43.16787" lon="2.38872">
        <ele>194.5</ele>
        <time>2019-06-16T07:42:27.000Z</time>
      </trkpt>
      <trkpt lat="43.16787" lon="2.38868">
        <ele>194.2</ele>
        <time>2019-06-16T07:42:28.000Z</time>
      </trkpt>
      <trkpt lat="43.16787" lon="2.38865">
        <ele>193.9</ele>
        <time>2019-06-16T07:42:29.000Z</time>
      </trkpt>
      <trkpt lat="43.16788" lon="2.38861">
        <ele>193.7</ele>
        <time>2019-06-16T07:42:30.000Z</time>
      </trkpt>
      <trkpt lat="43.16788" lon="2.38857">
        <ele>193.4</ele>
        <time>2019-06-16T07:42:31.000Z</time>
      </trkpt>
      <trkpt lat="43.16789" lon="2.38853">
        <ele>193.1</ele>
        <time>2019-06-16T07:42:32.000Z</time>
      </trkpt>
      <trkpt lat="43.16789" lon="2.38849">
        <ele>192.8</ele>
        <time>2019-06-16T07:42:33.000Z</time>
      </trkpt>
      <trkpt lat="43.1679" lon="2.38846">
        <ele>192.5</ele>
        <time>2019-06-16T07:42:34.000Z</time>
      </trkpt>
      <trkpt lat="43.1679" lon="2.38842">
        <ele>192.2</ele>
        <time>2019-06-16T07:42:35.000Z</time>
      </trkpt>
      <trkpt lat="43.16791" lon="2.38838">
        <ele>191.9</ele>
        <time>2019-06-16T07:42:36.000Z</time>
      </trkpt>
      <trkpt lat="43.16791" lon="2.38834">
        <ele>191.6</ele>
        <time>2019-06-16T07:42:37.000Z</time>
      </trkpt>
      <trkpt lat="43.16792" lon="2.3883">
        <ele>191.5</ele>
        <time>2019-06-16T07:42:38.000Z</time>
      </trkpt>
      <trkpt lat="43.16792" lon="2.38826">
        <ele>191.5</ele>
        <time>2019-06-16T07:42:39.000Z</time>
      </trkpt>
      <trkpt lat="43.16792" lon="2.38822">
        <ele>191.4</ele>
        <time>2019-06-16T07:42:40.000Z</time>
      </trkpt>
      <trkpt lat="43.16793" lon="2.38819">
        <ele>191.3</ele>
        <time>2019-06-16T07:42:41.000Z</time>
      </trkpt>
      <trkpt lat="43.16793" lon="2.38815">
        <ele>191.2</ele>
        <time>2019-06-16T07:42:42.000Z</time>
      </trkpt>
      <trkpt lat="43.16794" lon="2.38811">
        <ele>191.2</ele>
        <time>2019-06-16T07:42:43.000Z</time>
      </trkpt>
      <trkpt lat="43.16794" lon="2.38807">
        <ele>191.1</ele>
        <time>2019-06-16T07:42:44.000Z</time>
      </trkpt>
      <trkpt lat="43.16794" lon="2.38803">
        <ele>191</ele>
        <time>2019-06-16T07:42:45.000Z</time>
      </trkpt>
      <trkpt lat="43.16795" lon="2.38799">
        <ele>191</ele>
        <time>2019-06-16T07:42:46.000Z</time>
      </trkpt>
      <trkpt lat="43.16795" lon="2.38796">
        <ele>190.9</ele>
        <time>2019-06-16T07:42:47.000Z</time>
      </trkpt>
      <trkpt lat="43.16795" lon="2.38792">
        <ele>190.9</ele>
        <time>2019-06-16T07:42:48.000Z</time>
      </trkpt>
      <trkpt lat="43.16795" lon="2.38788">
        <ele>190.8</ele>
        <time>2019-06-16T07:42:49.000Z</time>
      </trkpt>
      <trkpt lat="43.16796" lon="2.38784">
        <ele>190.8</ele>
        <time>2019-06-16T07:42:50.000Z</time>
      </trkpt>
      <trkpt lat="43.16796" lon="2.38781">
        <ele>190.8</ele>
        <time>2019-06-16T07:42:51.000Z</time>
      </trkpt>
      <trkpt lat="43.16796" lon="2.38777">
        <ele>190.7</ele>
        <time>2019-06-16T07:42:52.000Z</time>
      </trkpt>
      <trkpt lat="43.16796" lon="2.38773">
        <ele>190.7</ele>
        <time>2019-06-16T07:42:53.000Z</time>
      </trkpt>
      <trkpt lat="43.16796" lon="2.3877">
        <ele>190.6</ele>
        <time>2019-06-16T07:42:54.000Z</time>
      </trkpt>
      <trkpt lat="43.16797" lon="2.38766">
        <ele>190.6</ele>
        <time>2019-06-16T07:42:55.000Z</time>
      </trkpt>
      <trkpt lat="43.16797" lon="2.38762">
        <ele>190.6</ele>
        <time>2019-06-16T07:42:56.000Z</time>
      </trkpt>
      <trkpt lat="43.16797" lon="2.38759">
        <ele>190.6</ele>
        <time>2019-06-16T07:42:57.000Z</time>
      </trkpt>
      <trkpt lat="43.16797" lon="2.38755">
        <ele>190.5</ele>
        <time>2019-06-16T07:42:58.000Z</time>
      </trkpt>
      <trkpt lat="43.16797" lon="2.38751">
        <ele>190.5</ele>
        <time>2019-06-16T07:42:59.000Z</time>
      </trkpt>
      <trkpt lat="43.16798" lon="2.38748">
        <ele>190.4</ele>
        <time>2019-06-16T07:43:00.000Z</time>
      </trkpt>
      <trkpt lat="43.16798" lon="2.38744">
        <ele>190.4</ele>
        <time>2019-06-16T07:43:01.000Z</time>
      </trkpt>
      <trkpt lat="43.16798" lon="2.38741">
        <ele>190.3</ele>
        <time>2019-06-16T07:43:02.000Z</time>
      </trkpt>
      <trkpt lat="43.16798" lon="2.38737">
        <ele>190.3</ele>
        <time>2019-06-16T07:43:03.000Z</time>
      </trkpt>
      <trkpt lat="43.16798" lon="2.38733">
        <ele>190.2</ele>
        <time>2019-06-16T07:43:04.000Z</time>
      </trkpt>
      <trkpt lat="43.16799" lon="2.3873">
        <ele>190.1</ele>
        <time>2019-06-16T07:43:05.000Z</time>
      </trkpt>
      <trkpt lat="43.16799" lon="2.38726">
        <ele>190</ele>
        <time>2019-06-16T07:43:06.000Z</time>
      </trkpt>
      <trkpt lat="43.16799" lon="2.38723">
        <ele>190</ele>
        <time>2019-06-16T07:43:07.000Z</time>
      </trkpt>
      <trkpt lat="43.16799" lon="2.38719">
        <ele>189.9</ele>
        <time>2019-06-16T07:43:08.000Z</time>
      </trkpt>
      <trkpt lat="43.168" lon="2.38716">
        <ele>189.8</ele>
        <time>2019-06-16T07:43:09.000Z</time>
      </trkpt>
      <trkpt lat="43.168" lon="2.38712">
        <ele>189.7</ele>
        <time>2019-06-16T07:43:10.000Z</time>
      </trkpt>
      <trkpt lat="43.168" lon="2.38708">
        <ele>189.7</ele>
        <time>2019-06-16T07:43:11.000Z</time>
      </trkpt>
      <trkpt lat="43.16801" lon="2.38705">
        <ele>189.6</ele>
        <time>2019-06-16T07:43:12.000Z</time>
      </trkpt>
      <trkpt lat="43.16801" lon="2.38701">
        <ele>189.5</ele>
        <time>2019-06-16T07:43:13.000Z</time>
      </trkpt>
      <trkpt lat="43.16801" lon="2.38698">
        <ele>189.4</ele>
        <time>2019-06-16T07:43:14.000Z</time>
      </trkpt>
      <trkpt lat="43.16802" lon="2.38694">
        <ele>189.3</ele>
        <time>2019-06-16T07:43:15.000Z</time>
      </trkpt>
      <trkpt lat="43.16802" lon="2.38691">
        <ele>189.2</ele>
        <time>2019-06-16T07:43:16.000Z</time>
      </trkpt>
      <trkpt lat="43.16802" lon="2.38687">
        <ele>189.1</ele>
        <time>2019-06-16T07:43:17.000Z</time>
      </trkpt>
      <trkpt lat="43.16803" lon="2.38684">
        <ele>189</ele>
        <time>2019-06-16T07:43:18.000Z</time>
      </trkpt>
      <trkpt lat="43.16803" lon="2.3868">
        <ele>188.9</ele>
        <time>2019-06-16T07:43:19.000Z</time>
      </trkpt>
      <trkpt lat="43.16804" lon="2.38677">
        <ele>188.8</ele>
        <time>2019-06-16T07:43:20.000Z</time>
      </trkpt>
      <trkpt lat="43.16804" lon="2.38673">
        <ele>188.7</ele>
        <time>2019-06-16T07:43:21.000Z</time>
      </trkpt>
      <trkpt lat="43.16805" lon="2.3867">
        <ele>188.6</ele>
        <time>2019-06-16T07:43:22.000Z</time>
      </trkpt>
      <trkpt lat="43.16805" lon="2.38666">
        <ele>188.4</ele>
        <time>2019-06-16T07:43:23.000Z</time>
      </trkpt>
      <trkpt lat="43.16806" lon="2.38662">
        <ele>188.2</ele>
        <time>2019-06-16T07:43:24.000Z</time>
      </trkpt>
      <trkpt lat="43.16806" lon="2.38659">
        <ele>188.1</ele>
        <time>2019-06-16T07:43:25.000Z</time>
      </trkpt>
      <trkpt lat="43.16807" lon="2.38655">
        <ele>187.9</ele>
        <time>2019-06-16T07:43:26.000Z</time>
      </trkpt>
      <trkpt lat="43.16807" lon="2.38652">
        <ele>187.7</ele>
        <time>2019-06-16T07:43:27.000Z</time>
      </trkpt>
      <trkpt lat="43.16808" lon="2.38648">
        <ele>187.5</ele>
        <time>2019-06-16T07:43:28.000Z</time>
      </trkpt>
      <trkpt lat="43.16808" lon="2.38645">
        <ele>187.3</ele>
        <time>2019-06-16T07:43:29.000Z</time>
      </trkpt>
      <trkpt lat="43.16809" lon="2.38641">
        <ele>187.1</ele>
        <time>2019-06-16T07:43:30.000Z</time>
      </trkpt>
      <trkpt lat="43.16809" lon="2.38638">
        <ele>186.9</ele>
        <time>2019-06-16T07:43:31.000Z</time>
      </trkpt>
      <trkpt lat="43.1681" lon="2.38634">
        <ele>186.7</ele>
        <time>2019-06-16T07:43:32.000Z</time>
      </trkpt>
      <trkpt lat="43.16811" lon="2.3863">
        <ele>186.4</ele>
        <time>2019-06-16T07:43:33.000Z</time>
      </trkpt>
      <trkpt lat="43.16811" lon="2.38627">
        <ele>186.2</ele>
        <time>2019-06-16T07:43:34.000Z</time>
      </trkpt>
      <trkpt lat="43.16812" lon="2.38623">
        <ele>186</ele>
        <time>2019-06-16T07:43:35.000Z</time>
      </trkpt>
      <trkpt lat="43.16812" lon="2.3862">
        <ele>185.7</ele>
        <time>2019-06-16T07:43:36.000Z</time>
      </trkpt>
      <trkpt lat="43.16813" lon="2.38616">
        <ele>185.5</ele>
        <time>2019-06-16T07:43:37.000Z</time>
      </trkpt>
      <trkpt lat="43.16814" lon="2.38612">
        <ele>185.3</ele>
        <time>2019-06-16T07:43:38.000Z</time>
      </trkpt>
      <trkpt lat="43.16814" lon="2.38608">
        <ele>185.1</ele>
        <time>2019-06-16T07:43:39.000Z</time>
      </trkpt>
      <trkpt lat="43.16814" lon="2.38605">
        <ele>184.9</ele>
        <time>2019-06-16T07:43:40.000Z</time>
      </trkpt>
      <trkpt lat="43.16815" lon="2.38601">
        <ele>184.7</ele>
        <time>2019-06-16T07:43:41.000Z</time>
      </trkpt>
      <trkpt lat="43.16815" lon="2.38597">
        <ele>184.5</ele>
        <time>2019-06-16T07:43:42.000Z</time>
      </trkpt>
      <trkpt lat="43.16815" lon="2.38593">
        <ele>184.4</ele>
        <time>2019-06-16T07:43:43.000Z</time>
      </trkpt>
      <trkpt lat="43.16816" lon="2.3859">
        <ele>184.2</ele>
        <time>2019-06-16T07:43:44.000Z</time>
      </trkpt>
      <trkpt lat="43.16816" lon="2.38586">
        <ele>184</ele>
        <time>2019-06-16T07:43:45.000Z</time>
      </trkpt>
      <trkpt lat="43.16816" lon="2.38582">
        <ele>183.9</ele>
        <time>2019-06-16T07:43:46.000Z</time>
      </trkpt>
      <trkpt lat="43.16817" lon="2.38579">
        <ele>183.8</ele>
        <time>2019-06-16T07:43:47.000Z</time>
      </trkpt>
      <trkpt lat="43.16817" lon="2.38575">
        <ele>183.6</ele>
        <time>2019-06-16T07:43:48.000Z</time>
      </trkpt>
      <trkpt lat="43.16818" lon="2.38572">
        <ele>183.5</ele>
        <time>2019-06-16T07:43:49.000Z</time>
      </trkpt>
      <trkpt lat="43.16819" lon="2.38568">
        <ele>183.3</ele>
        <time>2019-06-16T07:43:50.000Z</time>
      </trkpt>
      <trkpt lat="43.1682" lon="2.38565">
        <ele>183.1</ele>
        <time>2019-06-16T07:43:51.000Z</time>
      </trkpt>
      <trkpt lat="43.16821" lon="2.38562">
        <ele>182.9</ele>
        <time>2019-06-16T07:43:52.000Z</time>
      </trkpt>
      <trkpt lat="43.16821" lon="2.38559">
        <ele>182.7</ele>
        <time>2019-06-16T07:43:53.000Z</time>
      </trkpt>
      <trkpt lat="43.16823" lon="2.38556">
        <ele>182.4</ele>
        <time>2019-06-16T07:43:54.000Z</time>
      </trkpt>
      <trkpt lat="43.16824" lon="2.38552">
        <ele>182.2</ele>
        <time>2019-06-16T07:43:55.000Z</time>
      </trkpt>
      <trkpt lat="43.16825" lon="2.38549">
        <ele>181.9</ele>
        <time>2019-06-16T07:43:56.000Z</time>
      </trkpt>
      <trkpt lat="43.16826" lon="2.38546">
        <ele>181.6</ele>
        <time>2019-06-16T07:43:57.000Z</time>
      </trkpt>
      <trkpt lat="43.16827" lon="2.38542">
        <ele>181.3</ele>
        <time>2019-06-16T07:43:58.000Z</time>
      </trkpt>
      <trkpt lat="43.16829" lon="2.38539">
        <ele>181.1</ele>
        <time>2019-06-16T07:43:59.000Z</time>
      </trkpt>
      <trkpt lat="43.16829" lon="2.38536">
        <ele>180.9</ele>
        <time>2019-06-16T07:44:00.000Z</time>
      </trkpt>
      <trkpt lat="43.1683" lon="2.38533">
        <ele>180.7</ele>
        <time>2019-06-16T07:44:01.000Z</time>
      </trkpt>
      <trkpt lat="43.16831" lon="2.38531">
        <ele>180.6</ele>
        <time>2019-06-16T07:44:02.000Z</time>
      </trkpt>
      <trkpt lat="43.16831" lon="2.38529">
        <ele>180.6</ele>
        <time>2019-06-16T07:44:03.000Z</time>
      </trkpt>
      <trkpt lat="43.16831" lon="2.38527">
        <ele>180.6</ele>
        <time>2019-06-16T07:44:04.000Z</time>
      </trkpt>
      <trkpt lat="43.1683" lon="2.38526">
        <ele>180.7</ele>
        <time>2019-06-16T07:44:05.000Z</time>
      </trkpt>
      <trkpt lat="43.1683" lon="2.38525">
        <ele>180.8</ele>
        <time>2019-06-16T07:44:06.000Z</time>
      </trkpt>
      <trkpt lat="43.16829" lon="2.38524">
        <ele>180.9</ele>
        <time>2019-06-16T07:44:07.000Z</time>
      </trkpt>
      <trkpt lat="43.16829" lon="2.38524">
        <ele>181.1</ele>
        <time>2019-06-16T07:44:08.000Z</time>
      </trkpt>
      <trkpt lat="43.16828" lon="2.38523">
        <ele>181.2</ele>
        <time>2019-06-16T07:44:09.000Z</time>
      </trkpt>
      <trkpt lat="43.16827" lon="2.38522">
        <ele>181.4</ele>
        <time>2019-06-16T07:44:10.000Z</time>
      </trkpt>
      <trkpt lat="43.16826" lon="2.38522">
        <ele>181.5</ele>
        <time>2019-06-16T07:44:11.000Z</time>
      </trkpt>
      <trkpt lat="43.16826" lon="2.38521">
        <ele>181.6</ele>
        <time>2019-06-16T07:44:12.000Z</time>
      </trkpt>
      <trkpt lat="43.16825" lon="2.38521">
        <ele>181.7</ele>
        <time>2019-06-16T07:44:13.000Z</time>
      </trkpt>
      <trkpt lat="43.16825" lon="2.38521">
        <ele>181.8</ele>
        <time>2019-06-16T07:44:14.000Z</time>
      </trkpt>
      <trkpt lat="43.16825" lon="2.38521">
        <ele>181.9</ele>
        <time>2019-06-16T07:44:15.000Z</time>
      </trkpt>
      <trkpt lat="43.16824" lon="2.38521">
        <ele>182</ele>
        <time>2019-06-16T07:44:16.000Z</time>
      </trkpt>
      <trkpt lat="43.16824" lon="2.3852">
        <ele>182.1</ele>
        <time>2019-06-16T07:44:17.000Z</time>
      </trkpt>
      <trkpt lat="43.16824" lon="2.38519">
        <ele>182.2</ele>
        <time>2019-06-16T07:44:18.000Z</time>
      </trkpt>
      <trkpt lat="43.16823" lon="2.38518">
        <ele>182.2</ele>
        <time>2019-06-16T07:44:19.000Z</time>
      </trkpt>
      <trkpt lat="43.16823" lon="2.38517">
        <ele>182.3</ele>
        <time>2019-06-16T07:44:20.000Z</time>
      </trkpt>
      <trkpt lat="43.16822" lon="2.38516">
        <ele>182.4</ele>
        <time>2019-06-16T07:44:21.000Z</time>
      </trkpt>
      <trkpt lat="43.16822" lon="2.38515">
        <ele>182.5</ele>
        <time>2019-06-16T07:44:22.000Z</time>
      </trkpt>
      <trkpt lat="43.16822" lon="2.38515">
        <ele>182.5</ele>
        <time>2019-06-16T07:44:23.000Z</time>
      </trkpt>
      <trkpt lat="43.16822" lon="2.38514">
        <ele>182.6</ele>
        <time>2019-06-16T07:44:24.000Z</time>
      </trkpt>
      <trkpt lat="43.16821" lon="2.38513">
        <ele>182.6</ele>
        <time>2019-06-16T07:44:25.000Z</time>
      </trkpt>
      <trkpt lat="43.16821" lon="2.38512">
        <ele>182.7</ele>
        <time>2019-06-16T07:44:26.000Z</time>
      </trkpt>
      <trkpt lat="43.1682" lon="2.38511">
        <ele>182.8</ele>
        <time>2019-06-16T07:44:27.000Z</time>
      </trkpt>
      <trkpt lat="43.1682" lon="2.38511">
        <ele>183</ele>
        <time>2019-06-16T07:44:28.000Z</time>
      </trkpt>
      <trkpt lat="43.16819" lon="2.3851">
        <ele>183.1</ele>
        <time>2019-06-16T07:44:29.000Z</time>
      </trkpt>
      <trkpt lat="43.16818" lon="2.38508">
        <ele>183.3</ele>
        <time>2019-06-16T07:44:30.000Z</time>
      </trkpt>
      <trkpt lat="43.16817" lon="2.38507">
        <ele>183.5</ele>
        <time>2019-06-16T07:44:31.000Z</time>
      </trkpt>
      <trkpt lat="43.16816" lon="2.38506">
        <ele>183.8</ele>
        <time>2019-06-16T07:44:32.000Z</time>
      </trkpt>
      <trkpt lat="43.16815" lon="2.38504">
        <ele>184</ele>
        <time>2019-06-16T07:44:33.000Z</time>
      </trkpt>
      <trkpt lat="43.16814" lon="2.38503">
        <ele>184.3</ele>
        <time>2019-06-16T07:44:34.000Z</time>
      </trkpt>
      <trkpt lat="43.16812" lon="2.38501">
        <ele>184.5</ele>
        <time>2019-06-16T07:44:35.000Z</time>
      </trkpt>
      <trkpt lat="43.16811" lon="2.38499">
        <ele>184.8</ele>
        <time>2019-06-16T07:44:36.000Z</time>
      </trkpt>
      <trkpt lat="43.1681" lon="2.38497">
        <ele>185</ele>
        <time>2019-06-16T07:44:37.000Z</time>
      </trkpt>
      <trkpt lat="43.16809" lon="2.38495">
        <ele>185.2</ele>
        <time>2019-06-16T07:44:38.000Z</time>
      </trkpt>
      <trkpt lat="43.16808" lon="2.38493">
        <ele>185.5</ele>
        <time>2019-06-16T07:44:39.000Z</time>
      </trkpt>
      <trkpt lat="43.16806" lon="2.3849">
        <ele>185.7</ele>
        <time>2019-06-16T07:44:40.000Z</time>
      </trkpt>
      <trkpt lat="43.16805" lon="2.38488">
        <ele>186</ele>
        <time>2019-06-16T07:44:41.000Z</time>
      </trkpt>
      <trkpt lat="43.16803" lon="2.38485">
        <ele>186.3</ele>
        <time>2019-06-16T07:44:42.000Z</time>
      </trkpt>
      <trkpt lat="43.16802" lon="2.38483">
        <ele>186.6</ele>
        <time>2019-06-16T07:44:43.000Z</time>
      </trkpt>
      <trkpt lat="43.168" lon="2.3848">
        <ele>186.9</ele>
        <time>2019-06-16T07:44:44.000Z</time>
      </trkpt>
      <trkpt lat="43.16798" lon="2.38477">
        <ele>187.2</ele>
        <time>2019-06-16T07:44:45.000Z</time>
      </trkpt>
      <trkpt lat="43.16797" lon="2.38474">
        <ele>187.5</ele>
        <time>2019-06-16T07:44:46.000Z</time>
      </trkpt>
      <trkpt lat="43.16795" lon="2.38472">
        <ele>187.8</ele>
        <time>2019-06-16T07:44:47.000Z</time>
      </trkpt>
      <trkpt lat="43.16793" lon="2.38469">
        <ele>188.1</ele>
        <time>2019-06-16T07:44:48.000Z</time>
      </trkpt>
      <trkpt lat="43.16792" lon="2.38466">
        <ele>188.4</ele>
        <time>2019-06-16T07:44:49.000Z</time>
      </trkpt>
      <trkpt lat="43.16791" lon="2.38463">
        <ele>188.6</ele>
        <time>2019-06-16T07:44:50.000Z</time>
      </trkpt>
      <trkpt lat="43.1679" lon="2.3846">
        <ele>188.7</ele>
        <time>2019-06-16T07:44:51.000Z</time>
      </trkpt>
      <trkpt lat="43.16789" lon="2.38457">
        <ele>188.7</ele>
        <time>2019-06-16T07:44:52.000Z</time>
      </trkpt>
      <trkpt lat="43.16789" lon="2.38454">
        <ele>188.7</ele>
        <time>2019-06-16T07:44:53.000Z</time>
      </trkpt>
      <trkpt lat="43.16789" lon="2.38451">
        <ele>188.6</ele>
        <time>2019-06-16T07:44:54.000Z</time>
      </trkpt>
      <trkpt lat="43.1679" lon="2.38448">
        <ele>188.4</ele>
        <time>2019-06-16T07:44:55.000Z</time>
      </trkpt>
      <trkpt lat="43.16791" lon="2.38445">
        <ele>188.2</ele>
        <time>2019-06-16T07:44:56.000Z</time>
      </trkpt>
      <trkpt lat="43.16791" lon="2.38442">
        <ele>188</ele>
        <time>2019-06-16T07:44:57.000Z</time>
      </trkpt>
      <trkpt lat="43.16792" lon="2.38439">
        <ele>187.8</ele>
        <time>2019-06-16T07:44:58.000Z</time>
      </trkpt>
      <trkpt lat="43.16793" lon="2.38436">
        <ele>187.5</ele>
        <time>2019-06-16T07:44:59.000Z</time>
      </trkpt>
      <trkpt lat="43.16794" lon="2.38433">
        <ele>187.3</ele>
        <time>2019-06-16T07:45:00.000Z</time>
      </trkpt>
      <trkpt lat="43.16796" lon="2.3843">
        <ele>187</ele>
        <time>2019-06-16T07:45:01.000Z</time>
      </trkpt>
      <trkpt lat="43.16797" lon="2.38427">
        <ele>186.8</ele>
        <time>2019-06-16T07:45:02.000Z</time>
      </trkpt>
      <trkpt lat="43.16798" lon="2.38425">
        <ele>186.5</ele>
        <time>2019-06-16T07:45:03.000Z</time>
      </trkpt>
      <trkpt lat="43.16799" lon="2.38422">
        <ele>186.3</ele>
        <time>2019-06-16T07:45:04.000Z</time>
      </trkpt>
      <trkpt lat="43.168" lon="2.38419">
        <ele>186</ele>
        <time>2019-06-16T07:45:05.000Z</time>
      </trkpt>
      <trkpt lat="43.16801" lon="2.38416">
        <ele>185.8</ele>
        <time>2019-06-16T07:45:06.000Z</time>
      </trkpt>
      <trkpt lat="43.16802" lon="2.38414">
        <ele>185.5</ele>
        <time>2019-06-16T07:45:07.000Z</time>
      </trkpt>
      <trkpt lat="43.16803" lon="2.38411">
        <ele>185.3</ele>
        <time>2019-06-16T07:45:08.000Z</time>
      </trkpt>
      <trkpt lat="43.16805" lon="2.38409">
        <ele>185.1</ele>
        <time>2019-06-16T07:45:09.000Z</time>
      </trkpt>
      <trkpt lat="43.16805" lon="2.38407">
        <ele>184.9</ele>
        <time>2019-06-16T07:45:10.000Z</time>
      </trkpt>
      <trkpt lat="43.16806" lon="2.38405">
        <ele>184.8</ele>
        <time>2019-06-16T07:45:11.000Z</time>
      </trkpt>
      <trkpt lat="43.16807" lon="2.38403">
        <ele>184.6</ele>
        <time>2019-06-16T07:45:12.000Z</time>
      </trkpt>
      <trkpt lat="43.16807" lon="2.38402">
        <ele>184.5</ele>
        <time>2019-06-16T07:45:13.000Z</time>
      </trkpt>
      <trkpt lat="43.16808" lon="2.38401">
        <ele>184.5</ele>
        <time>2019-06-16T07:45:14.000Z</time>
      </trkpt>
      <trkpt lat="43.16808" lon="2.384">
        <ele>184.5</ele>
        <time>2019-06-16T07:45:15.000Z</time>
      </trkpt>
      <trkpt lat="43.16808" lon="2.384">
        <ele>184.5</ele>
        <time>2019-06-16T07:45:16.000Z</time>
      </trkpt>
      <trkpt lat="43.16808" lon="2.384">
        <ele>184.5</ele>
        <time>2019-06-16T07:45:17.000Z</time>
      </trkpt>
      <trkpt lat="43.16807" lon="2.384">
        <ele>184.5</ele>
        <time>2019-06-16T07:45:18.000Z</time>
      </trkpt>
      <trkpt lat="43.16807" lon="2.384">
        <ele>184.5</ele>
        <time>2019-06-16T07:45:19.000Z</time>
      </trkpt>
      <trkpt lat="43.16807" lon="2.38399">
        <ele>184.5</ele>
        <time>2019-06-16T07:45:20.000Z</time>
      </trkpt>
      <trkpt lat="43.16807" lon="2.38398">
        <ele>184.5</ele>
        <time>2019-06-16T07:45:21.000Z</time>
      </trkpt>
      <trkpt lat="43.16807" lon="2.38397">
        <ele>184.5</ele>
        <time>2019-06-16T07:45:22.000Z</time>
      </trkpt>
      <trkpt lat="43.16807" lon="2.38396">
        <ele>184.5</ele>
        <time>2019-06-16T07:45:23.000Z</time>
      </trkpt>
      <trkpt lat="43.16807" lon="2.38394">
        <ele>184.5</ele>
        <time>2019-06-16T07:45:24.000Z</time>
      </trkpt>
      <trkpt lat="43.16807" lon="2.38392">
        <ele>184.5</ele>
        <time>2019-06-16T07:45:25.000Z</time>
      </trkpt>
      <trkpt lat="43.16807" lon="2.3839">
        <ele>184.5</ele>
        <time>2019-06-16T07:45:26.000Z</time>
      </trkpt>
      <trkpt lat="43.16807" lon="2.38389">
        <ele>184.4</ele>
        <time>2019-06-16T07:45:27.000Z</time>
      </trkpt>
      <trkpt lat="43.16807" lon="2.38388">
        <ele>184.4</ele>
        <time>2019-06-16T07:45:28.000Z</time>
      </trkpt>
      <trkpt lat="43.16807" lon="2.38387">
        <ele>184.5</ele>
        <time>2019-06-16T07:45:29.000Z</time>
      </trkpt>
      <trkpt lat="43.16807" lon="2.38386">
        <ele>184.5</ele>
        <time>2019-06-16T07:45:30.000Z</time>
      </trkpt>
      <trkpt lat="43.16806" lon="2.38384">
        <ele>184.5</ele>
        <time>2019-06-16T07:45:31.000Z</time>
      </trkpt>
      <trkpt lat="43.16805" lon="2.38383">
        <ele>184.6</ele>
        <time>2019-06-16T07:45:32.000Z</time>
      </trkpt>
      <trkpt lat="43.16805" lon="2.38381">
        <ele>184.7</ele>
        <time>2019-06-16T07:45:33.000Z</time>
      </trkpt>
      <trkpt lat="43.16804" lon="2.38379">
        <ele>184.8</ele>
        <time>2019-06-16T07:45:34.000Z</time>
      </trkpt>
      <trkpt lat="43.16803" lon="2.38377">
        <ele>184.8</ele>
        <time>2019-06-16T07:45:35.000Z</time>
      </trkpt>
      <trkpt lat="43.16803" lon="2.38374">
        <ele>184.8</ele>
        <time>2019-06-16T07:45:36.000Z</time>
      </trkpt>
      <trkpt lat="43.16802" lon="2.38371">
        <ele>184.8</ele>
        <time>2019-06-16T07:45:37.000Z</time>
      </trkpt>
      <trkpt lat="43.16802" lon="2.38368">
        <ele>184.9</ele>
        <time>2019-06-16T07:45:38.000Z</time>
      </trkpt>
      <trkpt lat="43.16801" lon="2.38365">
        <ele>184.9</ele>
        <time>2019-06-16T07:45:39.000Z</time>
      </trkpt>
      <trkpt lat="43.16801" lon="2.38362">
        <ele>184.9</ele>
        <time>2019-06-16T07:45:40.000Z</time>
      </trkpt>
      <trkpt lat="43.168" lon="2.38359">
        <ele>184.9</ele>
        <time>2019-06-16T07:45:41.000Z</time>
      </trkpt>
      <trkpt lat="43.16799" lon="2.38355">
        <ele>184.9</ele>
        <time>2019-06-16T07:45:42.000Z</time>
      </trkpt>
      <trkpt lat="43.16798" lon="2.38352">
        <ele>184.9</ele>
        <time>2019-06-16T07:45:43.000Z</time>
      </trkpt>
      <trkpt lat="43.16797" lon="2.38349">
        <ele>185</ele>
        <time>2019-06-16T07:45:44.000Z</time>
      </trkpt>
      <trkpt lat="43.16796" lon="2.38346">
        <ele>185</ele>
        <time>2019-06-16T07:45:45.000Z</time>
      </trkpt>
      <trkpt lat="43.16795" lon="2.38343">
        <ele>185</ele>
        <time>2019-06-16T07:45:46.000Z</time>
      </trkpt>
      <trkpt lat="43.16794" lon="2.38341">
        <ele>185</ele>
        <time>2019-06-16T07:45:47.000Z</time>
      </trkpt>
      <trkpt lat="43.16793" lon="2.38338">
        <ele>185</ele>
        <time>2019-06-16T07:45:48.000Z</time>
      </trkpt>
      <trkpt lat="43.16792" lon="2.38336">
        <ele>185</ele>
        <time>2019-06-16T07:45:49.000Z</time>
      </trkpt>
      <trkpt lat="43.16791" lon="2.38333">
        <ele>185</ele>
        <time>2019-06-16T07:45:50.000Z</time>
      </trkpt>
      <trkpt lat="43.16791" lon="2.38331">
        <ele>185.1</ele>
        <time>2019-06-16T07:45:51.000Z</time>
      </trkpt>
      <trkpt lat="43.1679" lon="2.38329">
        <ele>185.2</ele>
        <time>2019-06-16T07:45:52.000Z</time>
      </trkpt>
      <trkpt lat="43.16789" lon="2.38326">
        <ele>185.3</ele>
        <time>2019-06-16T07:45:53.000Z</time>
      </trkpt>
      <trkpt lat="43.16788" lon="2.38324">
        <ele>185.3</ele>
        <time>2019-06-16T07:45:54.000Z</time>
      </trkpt>
      <trkpt lat="43.16787" lon="2.38322">
        <ele>185.4</ele>
        <time>2019-06-16T07:45:55.000Z</time>
      </trkpt>
      <trkpt lat="43.16786" lon="2.38319">
        <ele>185.4</ele>
        <time>2019-06-16T07:45:56.000Z</time>
      </trkpt>
      <trkpt lat="43.16785" lon="2.38317">
        <ele>185.5</ele>
        <time>2019-06-16T07:45:57.000Z</time>
      </trkpt>
      <trkpt lat="43.16785" lon="2.38314">
        <ele>185.5</ele>
        <time>2019-06-16T07:45:58.000Z</time>
      </trkpt>
      <trkpt lat="43.16784" lon="2.38311">
        <ele>185.6</ele>
        <time>2019-06-16T07:45:59.000Z</time>
      </trkpt>
      <trkpt lat="43.16784" lon="2.38309">
        <ele>185.6</ele>
        <time>2019-06-16T07:46:00.000Z</time>
      </trkpt>
      <trkpt lat="43.16784" lon="2.38306">
        <ele>185.6</ele>
        <time>2019-06-16T07:46:01.000Z</time>
      </trkpt>
      <trkpt lat="43.16783" lon="2.38303">
        <ele>185.6</ele>
        <time>2019-06-16T07:46:02.000Z</time>
      </trkpt>
      <trkpt lat="43.16784" lon="2.383">
        <ele>185.6</ele>
        <time>2019-06-16T07:46:03.000Z</time>
      </trkpt>
      <trkpt lat="43.16784" lon="2.38296">
        <ele>185.6</ele>
        <time>2019-06-16T07:46:04.000Z</time>
      </trkpt>
      <trkpt lat="43.16784" lon="2.38293">
        <ele>185.6</ele>
        <time>2019-06-16T07:46:05.000Z</time>
      </trkpt>
      <trkpt lat="43.16784" lon="2.3829">
        <ele>185.6</ele>
        <time>2019-06-16T07:46:06.000Z</time>
      </trkpt>
      <trkpt lat="43.16785" lon="2.38287">
        <ele>185.6</ele>
        <time>2019-06-16T07:46:07.000Z</time>
      </trkpt>
      <trkpt lat="43.16785" lon="2.38283">
        <ele>185.5</ele>
        <time>2019-06-16T07:46:08.000Z</time>
      </trkpt>
      <trkpt lat="43.16785" lon="2.3828">
        <ele>185.5</ele>
        <time>2019-06-16T07:46:09.000Z</time>
      </trkpt>
      <trkpt lat="43.16785" lon="2.38277">
        <ele>185.5</ele>
        <time>2019-06-16T07:46:10.000Z</time>
      </trkpt>
      <trkpt lat="43.16786" lon="2.38274">
        <ele>185.5</ele>
        <time>2019-06-16T07:46:11.000Z</time>
      </trkpt>
      <trkpt lat="43.16786" lon="2.3827">
        <ele>185.5</ele>
        <time>2019-06-16T07:46:12.000Z</time>
      </trkpt>
      <trkpt lat="43.16786" lon="2.38267">
        <ele>185.5</ele>
        <time>2019-06-16T07:46:13.000Z</time>
      </trkpt>
      <trkpt lat="43.16786" lon="2.38264">
        <ele>185.5</ele>
        <time>2019-06-16T07:46:14.000Z</time>
      </trkpt>
      <trkpt lat="43.16786" lon="2.38261">
        <ele>185.6</ele>
        <time>2019-06-16T07:46:15.000Z</time>
      </trkpt>
      <trkpt lat="43.16786" lon="2.38258">
        <ele>185.6</ele>
        <time>2019-06-16T07:46:16.000Z</time>
      </trkpt>
      <trkpt lat="43.16786" lon="2.38255">
        <ele>185.6</ele>
        <time>2019-06-16T07:46:17.000Z</time>
      </trkpt>
      <trkpt lat="43.16786" lon="2.38252">
        <ele>185.6</ele>
        <time>2019-06-16T07:46:18.000Z</time>
      </trkpt>
      <trkpt lat="43.16786" lon="2.38249">
        <ele>185.6</ele>
        <time>2019-06-16T07:46:19.000Z</time>
      </trkpt>
      <trkpt lat="43.16786" lon="2.38247">
        <ele>185.6</ele>
        <time>2019-06-16T07:46:20.000Z</time>
      </trkpt>
      <trkpt lat="43.16787" lon="2.38244">
        <ele>185.6</ele>
        <time>2019-06-16T07:46:21.000Z</time>
      </trkpt>
      <trkpt lat="43.16787" lon="2.38241">
        <ele>185.7</ele>
        <time>2019-06-16T07:46:22.000Z</time>
      </trkpt>
      <trkpt lat="43.16787" lon="2.38238">
        <ele>185.7</ele>
        <time>2019-06-16T07:46:23.000Z</time>
      </trkpt>
      <trkpt lat="43.16787" lon="2.38236">
        <ele>185.7</ele>
        <time>2019-06-16T07:46:24.000Z</time>
      </trkpt>
      <trkpt lat="43.16787" lon="2.38233">
        <ele>185.8</ele>
        <time>2019-06-16T07:46:25.000Z</time>
      </trkpt>
      <trkpt lat="43.16787" lon="2.3823">
        <ele>185.8</ele>
        <time>2019-06-16T07:46:26.000Z</time>
      </trkpt>
      <trkpt lat="43.16787" lon="2.38227">
        <ele>185.8</ele>
        <time>2019-06-16T07:46:27.000Z</time>
      </trkpt>
      <trkpt lat="43.16787" lon="2.38225">
        <ele>185.9</ele>
        <time>2019-06-16T07:46:28.000Z</time>
      </trkpt>
      <trkpt lat="43.16786" lon="2.38222">
        <ele>185.9</ele>
        <time>2019-06-16T07:46:29.000Z</time>
      </trkpt>
      <trkpt lat="43.16786" lon="2.38219">
        <ele>185.9</ele>
        <time>2019-06-16T07:46:30.000Z</time>
      </trkpt>
      <trkpt lat="43.16785" lon="2.38216">
        <ele>186</ele>
        <time>2019-06-16T07:46:31.000Z</time>
      </trkpt>
      <trkpt lat="43.16785" lon="2.38213">
        <ele>186</ele>
        <time>2019-06-16T07:46:32.000Z</time>
      </trkpt>
      <trkpt lat="43.16784" lon="2.38209">
        <ele>186.1</ele>
        <time>2019-06-16T07:46:33.000Z</time>
      </trkpt>
      <trkpt lat="43.16783" lon="2.38206">
        <ele>186.1</ele>
        <time>2019-06-16T07:46:34.000Z</time>
      </trkpt>
      <trkpt lat="43.16782" lon="2.38203">
        <ele>186.2</ele>
        <time>2019-06-16T07:46:35.000Z</time>
      </trkpt>
      <trkpt lat="43.16781" lon="2.38199">
        <ele>186.2</ele>
        <time>2019-06-16T07:46:36.000Z</time>
      </trkpt>
      <trkpt lat="43.16779" lon="2.38196">
        <ele>186.3</ele>
        <time>2019-06-16T07:46:37.000Z</time>
      </trkpt>
      <trkpt lat="43.16778" lon="2.38192">
        <ele>186.4</ele>
        <time>2019-06-16T07:46:38.000Z</time>
      </trkpt>
      <trkpt lat="43.16777" lon="2.38189">
        <ele>186.4</ele>
        <time>2019-06-16T07:46:39.000Z</time>
      </trkpt>
      <trkpt lat="43.16776" lon="2.38186">
        <ele>186.5</ele>
        <time>2019-06-16T07:46:40.000Z</time>
      </trkpt>
      <trkpt lat="43.16775" lon="2.38183">
        <ele>186.5</ele>
        <time>2019-06-16T07:46:41.000Z</time>
      </trkpt>
      <trkpt lat="43.16774" lon="2.3818">
        <ele>186.6</ele>
        <time>2019-06-16T07:46:42.000Z</time>
      </trkpt>
      <trkpt lat="43.16773" lon="2.38177">
        <ele>186.6</ele>
        <time>2019-06-16T07:46:43.000Z</time>
      </trkpt>
      <trkpt lat="43.16772" lon="2.38175">
        <ele>186.6</ele>
        <time>2019-06-16T07:46:44.000Z</time>
      </trkpt>
      <trkpt lat="43.16772" lon="2.38172">
        <ele>186.7</ele>
        <time>2019-06-16T07:46:45.000Z</time>
      </trkpt>
      <trkpt lat="43.16771" lon="2.3817">
        <ele>186.7</ele>
        <time>2019-06-16T07:46:46.000Z</time>
      </trkpt>
      <trkpt lat="43.1677" lon="2.38167">
        <ele>186.7</ele>
        <time>2019-06-16T07:46:47.000Z</time>
      </trkpt>
      <trkpt lat="43.1677" lon="2.38165">
        <ele>186.8</ele>
        <time>2019-06-16T07:46:48.000Z</time>
      </trkpt>
      <trkpt lat="43.16769" lon="2.38162">
        <ele>186.8</ele>
        <time>2019-06-16T07:46:49.000Z</time>
      </trkpt>
      <trkpt lat="43.16768" lon="2.38159">
        <ele>186.9</ele>
        <time>2019-06-16T07:46:50.000Z</time>
      </trkpt>
      <trkpt lat="43.16768" lon="2.38156">
        <ele>186.9</ele>
        <time>2019-06-16T07:46:51.000Z</time>
      </trkpt>
      <trkpt lat="43.16767" lon="2.38153">
        <ele>186.9</ele>
        <time>2019-06-16T07:46:52.000Z</time>
      </trkpt>
      <trkpt lat="43.16766" lon="2.3815">
        <ele>187</ele>
        <time>2019-06-16T07:46:53.000Z</time>
      </trkpt>
      <trkpt lat="43.16765" lon="2.38147">
        <ele>187</ele>
        <time>2019-06-16T07:46:54.000Z</time>
      </trkpt>
      <trkpt lat="43.16765" lon="2.38144">
        <ele>187</ele>
        <time>2019-06-16T07:46:55.000Z</time>
      </trkpt>
      <trkpt lat="43.16764" lon="2.38141">
        <ele>187</ele>
        <time>2019-06-16T07:46:56.000Z</time>
      </trkpt>
      <trkpt lat="43.16764" lon="2.38138">
        <ele>187.1</ele>
        <time>2019-06-16T07:46:57.000Z</time>
      </trkpt>
      <trkpt lat="43.16763" lon="2.38135">
        <ele>187.1</ele>
        <time>2019-06-16T07:46:58.000Z</time>
      </trkpt>
      <trkpt lat="43.16763" lon="2.38131">
        <ele>187.1</ele>
        <time>2019-06-16T07:46:59.000Z</time>
      </trkpt>
      <trkpt lat="43.16763" lon="2.38128">
        <ele>187.1</ele>
        <time>2019-06-16T07:47:00.000Z</time>
      </trkpt>
      <trkpt lat="43.16762" lon="2.38125">
        <ele>187.1</ele>
        <time>2019-06-16T07:47:01.000Z</time>
      </trkpt>
      <trkpt lat="43.16762" lon="2.38122">
        <ele>187.2</ele>
        <time>2019-06-16T07:47:02.000Z</time>
      </trkpt>
      <trkpt lat="43.16761" lon="2.38118">
        <ele>187.2</ele>
        <time>2019-06-16T07:47:03.000Z</time>
      </trkpt>
      <trkpt lat="43.16761" lon="2.38115">
        <ele>187.2</ele>
        <time>2019-06-16T07:47:04.000Z</time>
      </trkpt>
      <trkpt lat="43.16761" lon="2.38112">
        <ele>187.2</ele>
        <time>2019-06-16T07:47:05.000Z</time>
      </trkpt>
      <trkpt lat="43.1676" lon="2.38109">
        <ele>187.2</ele>
        <time>2019-06-16T07:47:06.000Z</time>
      </trkpt>
      <trkpt lat="43.1676" lon="2.38106">
        <ele>187.2</ele>
        <time>2019-06-16T07:47:07.000Z</time>
      </trkpt>
      <trkpt lat="43.16759" lon="2.38103">
        <ele>187.2</ele>
        <time>2019-06-16T07:47:08.000Z</time>
      </trkpt>
      <trkpt lat="43.16759" lon="2.381">
        <ele>187.2</ele>
        <time>2019-06-16T07:47:09.000Z</time>
      </trkpt>
      <trkpt lat="43.16758" lon="2.38097">
        <ele>187.2</ele>
        <time>2019-06-16T07:47:10.000Z</time>
      </trkpt>
      <trkpt lat="43.16758" lon="2.38094">
        <ele>187.2</ele>
        <time>2019-06-16T07:47:11.000Z</time>
      </trkpt>
      <trkpt lat="43.16758" lon="2.38091">
        <ele>187.2</ele>
        <time>2019-06-16T07:47:12.000Z</time>
      </trkpt>
      <trkpt lat="43.16757" lon="2.38088">
        <ele>187.2</ele>
        <time>2019-06-16T07:47:13.000Z</time>
      </trkpt>
      <trkpt lat="43.16757" lon="2.38085">
        <ele>187.2</ele>
        <time>2019-06-16T07:47:14.000Z</time>
      </trkpt>
      <trkpt lat="43.16756" lon="2.38082">
        <ele>187.3</ele>
        <time>2019-06-16T07:47:15.000Z</time>
      </trkpt>
      <trkpt lat="43.16755" lon="2.38079">
        <ele>187.4</ele>
        <time>2019-06-16T07:47:16.000Z</time>
      </trkpt>
      <trkpt lat="43.16755" lon="2.38076">
        <ele>187.5</ele>
        <time>2019-06-16T07:47:17.000Z</time>
      </trkpt>
      <trkpt lat="43.16754" lon="2.38073">
        <ele>187.6</ele>
        <time>2019-06-16T07:47:18.000Z</time>
      </trkpt>
      <trkpt lat="43.16753" lon="2.3807">
        <ele>187.8</ele>
        <time>2019-06-16T07:47:19.000Z</time>
      </trkpt>
      <trkpt lat="43.16753" lon="2.38067">
        <ele>187.9</ele>
        <time>2019-06-16T07:47:20.000Z</time>
      </trkpt>
      <trkpt lat="43.16752" lon="2.38064">
        <ele>188</ele>
        <time>2019-06-16T07:47:21.000Z</time>
      </trkpt>
      <trkpt lat="43.16751" lon="2.38061">
        <ele>188.1</ele>
        <time>2019-06-16T07:47:22.000Z</time>
      </trkpt>
      <trkpt lat="43.16751" lon="2.38058">
        <ele>188.2</ele>
        <time>2019-06-16T07:47:23.000Z</time>
      </trkpt>
      <trkpt lat="43.1675" lon="2.38055">
        <ele>188.4</ele>
        <time>2019-06-16T07:47:24.000Z</time>
      </trkpt>
      <trkpt lat="43.16749" lon="2.38052">
        <ele>188.5</ele>
        <time>2019-06-16T07:47:25.000Z</time>
      </trkpt>
      <trkpt lat="43.16749" lon="2.38049">
        <ele>188.7</ele>
        <time>2019-06-16T07:47:26.000Z</time>
      </trkpt>
      <trkpt lat="43.16748" lon="2.38046">
        <ele>188.9</ele>
        <time>2019-06-16T07:47:27.000Z</time>
      </trkpt>
      <trkpt lat="43.16747" lon="2.38043">
        <ele>189</ele>
        <time>2019-06-16T07:47:28.000Z</time>
      </trkpt>
      <trkpt lat="43.16747" lon="2.3804">
        <ele>189.2</ele>
        <time>2019-06-16T07:47:29.000Z</time>
      </trkpt>
      <trkpt lat="43.16746" lon="2.38037">
        <ele>189.3</ele>
        <time>2019-06-16T07:47:30.000Z</time>
      </trkpt>
      <trkpt lat="43.16746" lon="2.38034">
        <ele>189.4</ele>
        <time>2019-06-16T07:47:31.000Z</time>
      </trkpt>
      <trkpt lat="43.16745" lon="2.38031">
        <ele>189.6</ele>
        <time>2019-06-16T07:47:32.000Z</time>
      </trkpt>
      <trkpt lat="43.16745" lon="2.38029">
        <ele>189.7</ele>
        <time>2019-06-16T07:47:33.000Z</time>
      </trkpt>
      <trkpt lat="43.16744" lon="2.38026">
        <ele>189.8</ele>
        <time>2019-06-16T07:47:34.000Z</time>
      </trkpt>
      <trkpt lat="43.16744" lon="2.38023">
        <ele>189.9</ele>
        <time>2019-06-16T07:47:35.000Z</time>
      </trkpt>
      <trkpt lat="43.16743" lon="2.3802">
        <ele>190.1</ele>
        <time>2019-06-16T07:47:36.000Z</time>
      </trkpt>
      <trkpt lat="43.16742" lon="2.38017">
        <ele>190.2</ele>
        <time>2019-06-16T07:47:37.000Z</time>
      </trkpt>
      <trkpt lat="43.16742" lon="2.38014">
        <ele>190.3</ele>
        <time>2019-06-16T07:47:38.000Z</time>
      </trkpt>
      <trkpt lat="43.16741" lon="2.38011">
        <ele>190.4</ele>
        <time>2019-06-16T07:47:39.000Z</time>
      </trkpt>
      <trkpt lat="43.1674" lon="2.38008">
        <ele>190.5</ele>
        <time>2019-06-16T07:47:40.000Z</time>
      </trkpt>
      <trkpt lat="43.16739" lon="2.38005">
        <ele>190.6</ele>
        <time>2019-06-16T07:47:41.000Z</time>
      </trkpt>
      <trkpt lat="43.16738" lon="2.38002">
        <ele>190.6</ele>
        <time>2019-06-16T07:47:42.000Z</time>
      </trkpt>
      <trkpt lat="43.16737" lon="2.37999">
        <ele>190.7</ele>
        <time>2019-06-16T07:47:43.000Z</time>
      </trkpt>
      <trkpt lat="43.16736" lon="2.37996">
        <ele>190.9</ele>
        <time>2019-06-16T07:47:44.000Z</time>
      </trkpt>
      <trkpt lat="43.16735" lon="2.37993">
        <ele>191</ele>
        <time>2019-06-16T07:47:45.000Z</time>
      </trkpt>
      <trkpt lat="43.16734" lon="2.3799">
        <ele>191.2</ele>
        <time>2019-06-16T07:47:46.000Z</time>
      </trkpt>
      <trkpt lat="43.16733" lon="2.37987">
        <ele>191.3</ele>
        <time>2019-06-16T07:47:47.000Z</time>
      </trkpt>
      <trkpt lat="43.16732" lon="2.37984">
        <ele>191.5</ele>
        <time>2019-06-16T07:47:48.000Z</time>
      </trkpt>
      <trkpt lat="43.16731" lon="2.37982">
        <ele>191.6</ele>
        <time>2019-06-16T07:47:49.000Z</time>
      </trkpt>
      <trkpt lat="43.1673" lon="2.37979">
        <ele>191.7</ele>
        <time>2019-06-16T07:47:50.000Z</time>
      </trkpt>
      <trkpt lat="43.16729" lon="2.37976">
        <ele>191.9</ele>
        <time>2019-06-16T07:47:51.000Z</time>
      </trkpt>
      <trkpt lat="43.16728" lon="2.37973">
        <ele>192</ele>
        <time>2019-06-16T07:47:52.000Z</time>
      </trkpt>
      <trkpt lat="43.16728" lon="2.3797">
        <ele>192.1</ele>
        <time>2019-06-16T07:47:53.000Z</time>
      </trkpt>
      <trkpt lat="43.16727" lon="2.37968">
        <ele>192.3</ele>
        <time>2019-06-16T07:47:54.000Z</time>
      </trkpt>
      <trkpt lat="43.16726" lon="2.37965">
        <ele>192.4</ele>
        <time>2019-06-16T07:47:55.000Z</time>
      </trkpt>
      <trkpt lat="43.16725" lon="2.37963">
        <ele>192.5</ele>
        <time>2019-06-16T07:47:56.000Z</time>
      </trkpt>
      <trkpt lat="43.16725" lon="2.3796">
        <ele>192.6</ele>
        <time>2019-06-16T07:47:57.000Z</time>
      </trkpt>
      <trkpt lat="43.16724" lon="2.37958">
        <ele>192.7</ele>
        <time>2019-06-16T07:47:58.000Z</time>
      </trkpt>
      <trkpt lat="43.16724" lon="2.37956">
        <ele>192.9</ele>
        <time>2019-06-16T07:47:59.000Z</time>
      </trkpt>
      <trkpt lat="43.16723" lon="2.37954">
        <ele>193</ele>
        <time>2019-06-16T07:48:00.000Z</time>
      </trkpt>
      <trkpt lat="43.16723" lon="2.37951">
        <ele>193.1</ele>
        <time>2019-06-16T07:48:01.000Z</time>
      </trkpt>
      <trkpt lat="43.16723" lon="2.37949">
        <ele>193.2</ele>
        <time>2019-06-16T07:48:02.000Z</time>
      </trkpt>
      <trkpt lat="43.16722" lon="2.37948">
        <ele>193.3</ele>
        <time>2019-06-16T07:48:03.000Z</time>
      </trkpt>
      <trkpt lat="43.16722" lon="2.37946">
        <ele>193.4</ele>
        <time>2019-06-16T07:48:04.000Z</time>
      </trkpt>
      <trkpt lat="43.16722" lon="2.37944">
        <ele>193.5</ele>
        <time>2019-06-16T07:48:05.000Z</time>
      </trkpt>
      <trkpt lat="43.16722" lon="2.37943">
        <ele>193.5</ele>
        <time>2019-06-16T07:48:06.000Z</time>
      </trkpt>
      <trkpt lat="43.16722" lon="2.37941">
        <ele>193.6</ele>
        <time>2019-06-16T07:48:07.000Z</time>
      </trkpt>
      <trkpt lat="43.16722" lon="2.3794">
        <ele>193.7</ele>
        <time>2019-06-16T07:48:08.000Z</time>
      </trkpt>
      <trkpt lat="43.16722" lon="2.37939">
        <ele>193.7</ele>
        <time>2019-06-16T07:48:09.000Z</time>
      </trkpt>
      <trkpt lat="43.16722" lon="2.37938">
        <ele>193.8</ele>
        <time>2019-06-16T07:48:10.000Z</time>
      </trkpt>
      <trkpt lat="43.16722" lon="2.37937">
        <ele>193.9</ele>
        <time>2019-06-16T07:48:11.000Z</time>
      </trkpt>
      <trkpt lat="43.16722" lon="2.37936">
        <ele>193.9</ele>
        <time>2019-06-16T07:48:12.000Z</time>
      </trkpt>
      <trkpt lat="43.16723" lon="2.37935">
        <ele>194</ele>
        <time>2019-06-16T07:48:13.000Z</time>
      </trkpt>
      <trkpt lat="43.16723" lon="2.37935">
        <ele>194</ele>
        <time>2019-06-16T07:48:14.000Z</time>
      </trkpt>
      <trkpt lat="43.16724" lon="2.37934">
        <ele>194.1</ele>
        <time>2019-06-16T07:48:15.000Z</time>
      </trkpt>
      <trkpt lat="43.16724" lon="2.37933">
        <ele>194.1</ele>
        <time>2019-06-16T07:48:16.000Z</time>
      </trkpt>
      <trkpt lat="43.16725" lon="2.37933">
        <ele>194.2</ele>
        <time>2019-06-16T07:48:17.000Z</time>
      </trkpt>
      <trkpt lat="43.16726" lon="2.37932">
        <ele>194.2</ele>
        <time>2019-06-16T07:48:18.000Z</time>
      </trkpt>
      <trkpt lat="43.16726" lon="2.37932">
        <ele>194.3</ele>
        <time>2019-06-16T07:48:19.000Z</time>
      </trkpt>
      <trkpt lat="43.16727" lon="2.37932">
        <ele>194.3</ele>
        <time>2019-06-16T07:48:20.000Z</time>
      </trkpt>
      <trkpt lat="43.16728" lon="2.37932">
        <ele>194.4</ele>
        <time>2019-06-16T07:48:21.000Z</time>
      </trkpt>
      <trkpt lat="43.16729" lon="2.37931">
        <ele>194.4</ele>
        <time>2019-06-16T07:48:22.000Z</time>
      </trkpt>
      <trkpt lat="43.1673" lon="2.37931">
        <ele>194.4</ele>
        <time>2019-06-16T07:48:23.000Z</time>
      </trkpt>
      <trkpt lat="43.16731" lon="2.37931">
        <ele>194.5</ele>
        <time>2019-06-16T07:48:24.000Z</time>
      </trkpt>
      <trkpt lat="43.16732" lon="2.37931">
        <ele>194.5</ele>
        <time>2019-06-16T07:48:25.000Z</time>
      </trkpt>
      <trkpt lat="43.16733" lon="2.37931">
        <ele>194.5</ele>
        <time>2019-06-16T07:48:26.000Z</time>
      </trkpt>
      <trkpt lat="43.16733" lon="2.37931">
        <ele>194.6</ele>
        <time>2019-06-16T07:48:27.000Z</time>
      </trkpt>
      <trkpt lat="43.16734" lon="2.37931">
        <ele>194.6</ele>
        <time>2019-06-16T07:48:28.000Z</time>
      </trkpt>
      <trkpt lat="43.16735" lon="2.37931">
        <ele>194.6</ele>
        <time>2019-06-16T07:48:29.000Z</time>
      </trkpt>
      <trkpt lat="43.16736" lon="2.37931">
        <ele>194.7</ele>
        <time>2019-06-16T07:48:30.000Z</time>
      </trkpt>
      <trkpt lat="43.16737" lon="2.3793">
        <ele>194.7</ele>
        <time>2019-06-16T07:48:31.000Z</time>
      </trkpt>
      <trkpt lat="43.16737" lon="2.3793">
        <ele>194.8</ele>
        <time>2019-06-16T07:48:32.000Z</time>
      </trkpt>
      <trkpt lat="43.16738" lon="2.3793">
        <ele>194.8</ele>
        <time>2019-06-16T07:48:33.000Z</time>
      </trkpt>
      <trkpt lat="43.16739" lon="2.3793">
        <ele>194.8</ele>
        <time>2019-06-16T07:48:34.000Z</time>
      </trkpt>
      <trkpt lat="43.1674" lon="2.3793">
        <ele>194.9</ele>
        <time>2019-06-16T07:48:35.000Z</time>
      </trkpt>
      <trkpt lat="43.16741" lon="2.3793">
        <ele>194.9</ele>
        <time>2019-06-16T07:48:36.000Z</time>
      </trkpt>
      <trkpt lat="43.16742" lon="2.3793">
        <ele>195</ele>
        <time>2019-06-16T07:48:37.000Z</time>
      </trkpt>
      <trkpt lat="43.16743" lon="2.3793">
        <ele>195</ele>
        <time>2019-06-16T07:48:38.000Z</time>
      </trkpt>
      <trkpt lat="43.16744" lon="2.3793">
        <ele>195</ele>
        <time>2019-06-16T07:48:39.000Z</time>
      </trkpt>
      <trkpt lat="43.16745" lon="2.37929">
        <ele>195.1</ele>
        <time>2019-06-16T07:48:40.000Z</time>
      </trkpt>
      <trkpt lat="43.16745" lon="2.37929">
        <ele>195.1</ele>
        <time>2019-06-16T07:48:41.000Z</time>
      </trkpt>
      <trkpt lat="43.16746" lon="2.37929">
        <ele>195.1</ele>
        <time>2019-06-16T07:48:42.000Z</time>
      </trkpt>
      <trkpt lat="43.16747" lon="2.37929">
        <ele>195.1</ele>
        <time>2019-06-16T07:48:43.000Z</time>
      </trkpt>
      <trkpt lat="43.16748" lon="2.37929">
        <ele>195.2</ele>
        <time>2019-06-16T07:48:44.000Z</time>
      </trkpt>
      <trkpt lat="43.16748" lon="2.37929">
        <ele>195.2</ele>
        <time>2019-06-16T07:48:45.000Z</time>
      </trkpt>
      <trkpt lat="43.16749" lon="2.37929">
        <ele>195.2</ele>
        <time>2019-06-16T07:48:46.000Z</time>
      </trkpt>
      <trkpt lat="43.1675" lon="2.37929">
        <ele>195.3</ele>
        <time>2019-06-16T07:48:47.000Z</time>
      </trkpt>
      <trkpt lat="43.16751" lon="2.37929">
        <ele>195.3</ele>
        <time>2019-06-16T07:48:48.000Z</time>
      </trkpt>
      <trkpt lat="43.16752" lon="2.37929">
        <ele>195.3</ele>
        <time>2019-06-16T07:48:49.000Z</time>
      </trkpt>
      <trkpt lat="43.16753" lon="2.37929">
        <ele>195.3</ele>
        <time>2019-06-16T07:48:50.000Z</time>
      </trkpt>
      <trkpt lat="43.16754" lon="2.37928">
        <ele>195.3</ele>
        <time>2019-06-16T07:48:51.000Z</time>
      </trkpt>
      <trkpt lat="43.16755" lon="2.37928">
        <ele>195.3</ele>
        <time>2019-06-16T07:48:52.000Z</time>
      </trkpt>
      <trkpt lat="43.16756" lon="2.37928">
        <ele>195.3</ele>
        <time>2019-06-16T07:48:53.000Z</time>
      </trkpt>
      <trkpt lat="43.16757" lon="2.37928">
        <ele>195.3</ele>
        <time>2019-06-16T07:48:54.000Z</time>
      </trkpt>
      <trkpt lat="43.16758" lon="2.37927">
        <ele>195.3</ele>
        <time>2019-06-16T07:48:55.000Z</time>
      </trkpt>
      <trkpt lat="43.1676" lon="2.37927">
        <ele>195.3</ele>
        <time>2019-06-16T07:48:56.000Z</time>
      </trkpt>
      <trkpt lat="43.16761" lon="2.37927">
        <ele>195.3</ele>
        <time>2019-06-16T07:48:57.000Z</time>
      </trkpt>
      <trkpt lat="43.16762" lon="2.37926">
        <ele>195.3</ele>
        <time>2019-06-16T07:48:58.000Z</time>
      </trkpt>
      <trkpt lat="43.16764" lon="2.37926">
        <ele>195.3</ele>
        <time>2019-06-16T07:48:59.000Z</time>
      </trkpt>
      <trkpt lat="43.16765" lon="2.37926">
        <ele>195.3</ele>
        <time>2019-06-16T07:49:00.000Z</time>
      </trkpt>
      <trkpt lat="43.16766" lon="2.37926">
        <ele>195.4</ele>
        <time>2019-06-16T07:49:01.000Z</time>
      </trkpt>
      <trkpt lat="43.16768" lon="2.37925">
        <ele>195.4</ele>
        <time>2019-06-16T07:49:02.000Z</time>
      </trkpt>
      <trkpt lat="43.16769" lon="2.37925">
        <ele>195.4</ele>
        <time>2019-06-16T07:49:03.000Z</time>
      </trkpt>
      <trkpt lat="43.1677" lon="2.37925">
        <ele>195.4</ele>
        <time>2019-06-16T07:49:04.000Z</time>
      </trkpt>
      <trkpt lat="43.16772" lon="2.37925">
        <ele>195.4</ele>
        <time>2019-06-16T07:49:05.000Z</time>
      </trkpt>
      <trkpt lat="43.16773" lon="2.37925">
        <ele>195.4</ele>
        <time>2019-06-16T07:49:06.000Z</time>
      </trkpt>
      <trkpt lat="43.16774" lon="2.37924">
        <ele>195.4</ele>
        <time>2019-06-16T07:49:07.000Z</time>
      </trkpt>
      <trkpt lat="43.16776" lon="2.37924">
        <ele>195.4</ele>
        <time>2019-06-16T07:49:08.000Z</time>
      </trkpt>
      <trkpt lat="43.16777" lon="2.37924">
        <ele>195.4</ele>
        <time>2019-06-16T07:49:09.000Z</time>
      </trkpt>
      <trkpt lat="43.16779" lon="2.37924">
        <ele>195.4</ele>
        <time>2019-06-16T07:49:10.000Z</time>
      </trkpt>
      <trkpt lat="43.1678" lon="2.37924">
        <ele>195.3</ele>
        <time>2019-06-16T07:49:11.000Z</time>
      </trkpt>
      <trkpt lat="43.16781" lon="2.37923">
        <ele>195.3</ele>
        <time>2019-06-16T07:49:12.000Z</time>
      </trkpt>
      <trkpt lat="43.16782" lon="2.37923">
        <ele>195.3</ele>
        <time>2019-06-16T07:49:13.000Z</time>
      </trkpt>
      <trkpt lat="43.16784" lon="2.37923">
        <ele>195.3</ele>
        <time>2019-06-16T07:49:14.000Z</time>
      </trkpt>
      <trkpt lat="43.16785" lon="2.37923">
        <ele>195.3</ele>
        <time>2019-06-16T07:49:15.000Z</time>
      </trkpt>
      <trkpt lat="43.16786" lon="2.37922">
        <ele>195.3</ele>
        <time>2019-06-16T07:49:16.000Z</time>
      </trkpt>
      <trkpt lat="43.16787" lon="2.37922">
        <ele>195.4</ele>
        <time>2019-06-16T07:49:17.000Z</time>
      </trkpt>
      <trkpt lat="43.16788" lon="2.37922">
        <ele>195.4</ele>
        <time>2019-06-16T07:49:18.000Z</time>
      </trkpt>
      <trkpt lat="43.16789" lon="2.37921">
        <ele>195.4</ele>
        <time>2019-06-16T07:49:19.000Z</time>
      </trkpt>
      <trkpt lat="43.1679" lon="2.37921">
        <ele>195.4</ele>
        <time>2019-06-16T07:49:20.000Z</time>
      </trkpt>
      <trkpt lat="43.16791" lon="2.3792">
        <ele>195.4</ele>
        <time>2019-06-16T07:49:21.000Z</time>
      </trkpt>
      <trkpt lat="43.16792" lon="2.3792">
        <ele>195.4</ele>
        <time>2019-06-16T07:49:22.000Z</time>
      </trkpt>
      <trkpt lat="43.16793" lon="2.3792">
        <ele>195.4</ele>
        <time>2019-06-16T07:49:23.000Z</time>
      </trkpt>
      <trkpt lat="43.16794" lon="2.37919">
        <ele>195.4</ele>
        <time>2019-06-16T07:49:24.000Z</time>
      </trkpt>
      <trkpt lat="43.16795" lon="2.37919">
        <ele>195.4</ele>
        <time>2019-06-16T07:49:25.000Z</time>
      </trkpt>
      <trkpt lat="43.16796" lon="2.37918">
        <ele>195.4</ele>
        <time>2019-06-16T07:49:26.000Z</time>
      </trkpt>
      <trkpt lat="43.16797" lon="2.37918">
        <ele>195.4</ele>
        <time>2019-06-16T07:49:27.000Z</time>
      </trkpt>
      <trkpt lat="43.16798" lon="2.37917">
        <ele>195.4</ele>
        <time>2019-06-16T07:49:28.000Z</time>
      </trkpt>
      <trkpt lat="43.16799" lon="2.37917">
        <ele>195.4</ele>
        <time>2019-06-16T07:49:29.000Z</time>
      </trkpt>
      <trkpt lat="43.168" lon="2.37916">
        <ele>195.4</ele>
        <time>2019-06-16T07:49:30.000Z</time>
      </trkpt>
      <trkpt lat="43.16801" lon="2.37916">
        <ele>195.4</ele>
        <time>2019-06-16T07:49:31.000Z</time>
      </trkpt>
      <trkpt lat="43.16802" lon="2.37915">
        <ele>195.4</ele>
        <time>2019-06-16T07:49:32.000Z</time>
      </trkpt>
      <trkpt lat="43.16804" lon="2.37915">
        <ele>195.4</ele>
        <time>2019-06-16T07:49:33.000Z</time>
      </trkpt>
      <trkpt lat="43.16805" lon="2.37914">
        <ele>195.4</ele>
        <time>2019-06-16T07:49:34.000Z</time>
      </trkpt>
      <trkpt lat="43.16806" lon="2.37914">
        <ele>195.4</ele>
        <time>2019-06-16T07:49:35.000Z</time>
      </trkpt>
      <trkpt lat="43.16807" lon="2.37914">
        <ele>195.4</ele>
        <time>2019-06-16T07:49:36.000Z</time>
      </trkpt>
      <trkpt lat="43.16808" lon="2.37913">
        <ele>195.4</ele>
        <time>2019-06-16T07:49:37.000Z</time>
      </trkpt>
      <trkpt lat="43.1681" lon="2.37913">
        <ele>195.3</ele>
        <time>2019-06-16T07:49:38.000Z</time>
      </trkpt>
      <trkpt lat="43.16811" lon="2.37912">
        <ele>195.3</ele>
        <time>2019-06-16T07:49:39.000Z</time>
      </trkpt>
      <trkpt lat="43.16812" lon="2.37912">
        <ele>195.3</ele>
        <time>2019-06-16T07:49:40.000Z</time>
      </trkpt>
      <trkpt lat="43.16814" lon="2.37912">
        <ele>195.3</ele>
        <time>2019-06-16T07:49:41.000Z</time>
      </trkpt>
      <trkpt lat="43.16815" lon="2.37911">
        <ele>195.3</ele>
        <time>2019-06-16T07:49:42.000Z</time>
      </trkpt>
      <trkpt lat="43.16816" lon="2.37911">
        <ele>195.3</ele>
        <time>2019-06-16T07:49:43.000Z</time>
      </trkpt>
      <trkpt lat="43.16818" lon="2.37911">
        <ele>195.2</ele>
        <time>2019-06-16T07:49:44.000Z</time>
      </trkpt>
      <trkpt lat="43.16819" lon="2.3791">
        <ele>195.2</ele>
        <time>2019-06-16T07:49:45.000Z</time>
      </trkpt>
      <trkpt lat="43.16821" lon="2.3791">
        <ele>195.2</ele>
        <time>2019-06-16T07:49:46.000Z</time>
      </trkpt>
      <trkpt lat="43.16822" lon="2.3791">
        <ele>195.2</ele>
        <time>2019-06-16T07:49:47.000Z</time>
      </trkpt>
      <trkpt lat="43.16824" lon="2.37909">
        <ele>195.2</ele>
        <time>2019-06-16T07:49:48.000Z</time>
      </trkpt>
      <trkpt lat="43.16825" lon="2.37909">
        <ele>195.1</ele>
        <time>2019-06-16T07:49:49.000Z</time>
      </trkpt>
      <trkpt lat="43.16826" lon="2.37909">
        <ele>195.1</ele>
        <time>2019-06-16T07:49:50.000Z</time>
      </trkpt>
      <trkpt lat="43.16828" lon="2.37909">
        <ele>195.1</ele>
        <time>2019-06-16T07:49:51.000Z</time>
      </trkpt>
      <trkpt lat="43.16829" lon="2.37908">
        <ele>195.1</ele>
        <time>2019-06-16T07:49:52.000Z</time>
      </trkpt>
      <trkpt lat="43.16831" lon="2.37908">
        <ele>195</ele>
        <time>2019-06-16T07:49:53.000Z</time>
      </trkpt>
      <trkpt lat="43.16832" lon="2.37908">
        <ele>195</ele>
        <time>2019-06-16T07:49:54.000Z</time>
      </trkpt>
      <trkpt lat="43.16834" lon="2.37908">
        <ele>195</ele>
        <time>2019-06-16T07:49:55.000Z</time>
      </trkpt>
      <trkpt lat="43.16835" lon="2.37908">
        <ele>194.9</ele>
        <time>2019-06-16T07:49:56.000Z</time>
      </trkpt>
      <trkpt lat="43.16837" lon="2.37907">
        <ele>194.8</ele>
        <time>2019-06-16T07:49:57.000Z</time>
      </trkpt>
      <trkpt lat="43.16838" lon="2.37907">
        <ele>194.7</ele>
        <time>2019-06-16T07:49:58.000Z</time>
      </trkpt>
      <trkpt lat="43.16839" lon="2.37907">
        <ele>194.6</ele>
        <time>2019-06-16T07:49:59.000Z</time>
      </trkpt>
      <trkpt lat="43.16841" lon="2.37907">
        <ele>194.5</ele>
        <time>2019-06-16T07:50:00.000Z</time>
      </trkpt>
      <trkpt lat="43.16842" lon="2.37906">
        <ele>194.5</ele>
        <time>2019-06-16T07:50:01.000Z</time>
      </trkpt>
      <trkpt lat="43.16844" lon="2.37906">
        <ele>194.4</ele>
        <time>2019-06-16T07:50:02.000Z</time>
      </trkpt>
      <trkpt lat="43.16845" lon="2.37906">
        <ele>194.3</ele>
        <time>2019-06-16T07:50:03.000Z</time>
      </trkpt>
      <trkpt lat="43.16846" lon="2.37906">
        <ele>194.2</ele>
        <time>2019-06-16T07:50:04.000Z</time>
      </trkpt>
      <trkpt lat="43.16848" lon="2.37906">
        <ele>194.1</ele>
        <time>2019-06-16T07:50:05.000Z</time>
      </trkpt>
      <trkpt lat="43.16849" lon="2.37905">
        <ele>194</ele>
        <time>2019-06-16T07:50:06.000Z</time>
      </trkpt>
      <trkpt lat="43.16851" lon="2.37905">
        <ele>193.9</ele>
        <time>2019-06-16T07:50:07.000Z</time>
      </trkpt>
      <trkpt lat="43.16852" lon="2.37905">
        <ele>193.8</ele>
        <time>2019-06-16T07:50:08.000Z</time>
      </trkpt>
      <trkpt lat="43.16853" lon="2.37905">
        <ele>193.8</ele>
        <time>2019-06-16T07:50:09.000Z</time>
      </trkpt>
      <trkpt lat="43.16855" lon="2.37904">
        <ele>193.7</ele>
        <time>2019-06-16T07:50:10.000Z</time>
      </trkpt>
      <trkpt lat="43.16856" lon="2.37904">
        <ele>193.6</ele>
        <time>2019-06-16T07:50:11.000Z</time>
      </trkpt>
      <trkpt lat="43.16857" lon="2.37904">
        <ele>193.5</ele>
        <time>2019-06-16T07:50:12.000Z</time>
      </trkpt>
      <trkpt lat="43.16859" lon="2.37903">
        <ele>193.4</ele>
        <time>2019-06-16T07:50:13.000Z</time>
      </trkpt>
      <trkpt lat="43.1686" lon="2.37903">
        <ele>193.3</ele>
        <time>2019-06-16T07:50:14.000Z</time>
      </trkpt>
      <trkpt lat="43.16862" lon="2.37903">
        <ele>193.3</ele>
        <time>2019-06-16T07:50:15.000Z</time>
      </trkpt>
      <trkpt lat="43.16863" lon="2.37902">
        <ele>193.2</ele>
        <time>2019-06-16T07:50:16.000Z</time>
      </trkpt>
      <trkpt lat="43.16864" lon="2.37902">
        <ele>193.1</ele>
        <time>2019-06-16T07:50:17.000Z</time>
      </trkpt>
      <trkpt lat="43.16865" lon="2.37902">
        <ele>193</ele>
        <time>2019-06-16T07:50:18.000Z</time>
      </trkpt>
      <trkpt lat="43.16867" lon="2.37901">
        <ele>192.9</ele>
        <time>2019-06-16T07:50:19.000Z</time>
      </trkpt>
      <trkpt lat="43.16868" lon="2.37901">
        <ele>192.8</ele>
        <time>2019-06-16T07:50:20.000Z</time>
      </trkpt>
      <trkpt lat="43.16869" lon="2.379">
        <ele>192.8</ele>
        <time>2019-06-16T07:50:21.000Z</time>
      </trkpt>
      <trkpt lat="43.16871" lon="2.379">
        <ele>192.7</ele>
        <time>2019-06-16T07:50:22.000Z</time>
      </trkpt>
      <trkpt lat="43.16872" lon="2.37899">
        <ele>192.6</ele>
        <time>2019-06-16T07:50:23.000Z</time>
      </trkpt>
      <trkpt lat="43.16873" lon="2.37899">
        <ele>192.5</ele>
        <time>2019-06-16T07:50:24.000Z</time>
      </trkpt>
      <trkpt lat="43.16874" lon="2.37899">
        <ele>192.4</ele>
        <time>2019-06-16T07:50:25.000Z</time>
      </trkpt>
      <trkpt lat="43.16876" lon="2.37898">
        <ele>192.4</ele>
        <time>2019-06-16T07:50:26.000Z</time>
      </trkpt>
      <trkpt lat="43.16877" lon="2.37898">
        <ele>192.3</ele>
        <time>2019-06-16T07:50:27.000Z</time>
      </trkpt>
      <trkpt lat="43.16878" lon="2.37897">
        <ele>192.2</ele>
        <time>2019-06-16T07:50:28.000Z</time>
      </trkpt>
      <trkpt lat="43.1688" lon="2.37897">
        <ele>192.1</ele>
        <time>2019-06-16T07:50:29.000Z</time>
      </trkpt>
      <trkpt lat="43.16881" lon="2.37897">
        <ele>192</ele>
        <time>2019-06-16T07:50:30.000Z</time>
      </trkpt>
      <trkpt lat="43.16882" lon="2.37897">
        <ele>191.9</ele>
        <time>2019-06-16T07:50:31.000Z</time>
      </trkpt>
      <trkpt lat="43.16884" lon="2.37897">
        <ele>191.8</ele>
        <time>2019-06-16T07:50:32.000Z</time>
      </trkpt>
      <trkpt lat="43.16885" lon="2.37896">
        <ele>191.7</ele>
        <time>2019-06-16T07:50:33.000Z</time>
      </trkpt>
      <trkpt lat="43.16886" lon="2.37896">
        <ele>191.7</ele>
        <time>2019-06-16T07:50:34.000Z</time>
      </trkpt>
      <trkpt lat="43.16888" lon="2.37896">
        <ele>191.6</ele>
        <time>2019-06-16T07:50:35.000Z</time>
      </trkpt>
      <trkpt lat="43.16889" lon="2.37895">
        <ele>191.5</ele>
        <time>2019-06-16T07:50:36.000Z</time>
      </trkpt>
      <trkpt lat="43.16891" lon="2.37894">
        <ele>191.4</ele>
        <time>2019-06-16T07:50:37.000Z</time>
      </trkpt>
      <trkpt lat="43.16892" lon="2.37893">
        <ele>191.3</ele>
        <time>2019-06-16T07:50:38.000Z</time>
      </trkpt>
      <trkpt lat="43.16894" lon="2.37893">
        <ele>191.2</ele>
        <time>2019-06-16T07:50:39.000Z</time>
      </trkpt>
      <trkpt lat="43.16895" lon="2.37892">
        <ele>191.1</ele>
        <time>2019-06-16T07:50:40.000Z</time>
      </trkpt>
      <trkpt lat="43.16897" lon="2.37891">
        <ele>191</ele>
        <time>2019-06-16T07:50:41.000Z</time>
      </trkpt>
      <trkpt lat="43.16898" lon="2.3789">
        <ele>190.9</ele>
        <time>2019-06-16T07:50:42.000Z</time>
      </trkpt>
      <trkpt lat="43.169" lon="2.37889">
        <ele>190.7</ele>
        <time>2019-06-16T07:50:43.000Z</time>
      </trkpt>
      <trkpt lat="43.16902" lon="2.37888">
        <ele>190.6</ele>
        <time>2019-06-16T07:50:44.000Z</time>
      </trkpt>
      <trkpt lat="43.16903" lon="2.37887">
        <ele>190.5</ele>
        <time>2019-06-16T07:50:45.000Z</time>
      </trkpt>
      <trkpt lat="43.16905" lon="2.37887">
        <ele>190.4</ele>
        <time>2019-06-16T07:50:46.000Z</time>
      </trkpt>
      <trkpt lat="43.16907" lon="2.37886">
        <ele>190.2</ele>
        <time>2019-06-16T07:50:47.000Z</time>
      </trkpt>
      <trkpt lat="43.16909" lon="2.37886">
        <ele>190.1</ele>
        <time>2019-06-16T07:50:48.000Z</time>
      </trkpt>
      <trkpt lat="43.16911" lon="2.37886">
        <ele>190</ele>
        <time>2019-06-16T07:50:49.000Z</time>
      </trkpt>
      <trkpt lat="43.16913" lon="2.37886">
        <ele>189.8</ele>
        <time>2019-06-16T07:50:50.000Z</time>
      </trkpt>
      <trkpt lat="43.16915" lon="2.37885">
        <ele>189.7</ele>
        <time>2019-06-16T07:50:51.000Z</time>
      </trkpt>
      <trkpt lat="43.16917" lon="2.37885">
        <ele>189.6</ele>
        <time>2019-06-16T07:50:52.000Z</time>
      </trkpt>
      <trkpt lat="43.16919" lon="2.37885">
        <ele>189.5</ele>
        <time>2019-06-16T07:50:53.000Z</time>
      </trkpt>
      <trkpt lat="43.16921" lon="2.37885">
        <ele>189.4</ele>
        <time>2019-06-16T07:50:54.000Z</time>
      </trkpt>
      <trkpt lat="43.16923" lon="2.37885">
        <ele>189.3</ele>
        <time>2019-06-16T07:50:55.000Z</time>
      </trkpt>
      <trkpt lat="43.16925" lon="2.37886">
        <ele>189.2</ele>
        <time>2019-06-16T07:50:56.000Z</time>
      </trkpt>
      <trkpt lat="43.16927" lon="2.37886">
        <ele>189.1</ele>
        <time>2019-06-16T07:50:57.000Z</time>
      </trkpt>
      <trkpt lat="43.16929" lon="2.37886">
        <ele>189</ele>
        <time>2019-06-16T07:50:58.000Z</time>
      </trkpt>
      <trkpt lat="43.16931" lon="2.37886">
        <ele>189</ele>
        <time>2019-06-16T07:50:59.000Z</time>
      </trkpt>
      <trkpt lat="43.16933" lon="2.37886">
        <ele>188.9</ele>
        <time>2019-06-16T07:51:00.000Z</time>
      </trkpt>
      <trkpt lat="43.16935" lon="2.37886">
        <ele>188.8</ele>
        <time>2019-06-16T07:51:01.000Z</time>
      </trkpt>
      <trkpt lat="43.16938" lon="2.37886">
        <ele>188.7</ele>
        <time>2019-06-16T07:51:02.000Z</time>
      </trkpt>
      <trkpt lat="43.1694" lon="2.37887">
        <ele>188.6</ele>
        <time>2019-06-16T07:51:03.000Z</time>
      </trkpt>
      <trkpt lat="43.16942" lon="2.37887">
        <ele>188.5</ele>
        <time>2019-06-16T07:51:04.000Z</time>
      </trkpt>
      <trkpt lat="43.16944" lon="2.37887">
        <ele>188.4</ele>
        <time>2019-06-16T07:51:05.000Z</time>
      </trkpt>
      <trkpt lat="43.16946" lon="2.37886">
        <ele>188.2</ele>
        <time>2019-06-16T07:51:06.000Z</time>
      </trkpt>
      <trkpt lat="43.16949" lon="2.37886">
        <ele>188.1</ele>
        <time>2019-06-16T07:51:07.000Z</time>
      </trkpt>
      <trkpt lat="43.16951" lon="2.37886">
        <ele>188</ele>
        <time>2019-06-16T07:51:08.000Z</time>
      </trkpt>
      <trkpt lat="43.16953" lon="2.37885">
        <ele>187.9</ele>
        <time>2019-06-16T07:51:09.000Z</time>
      </trkpt>
      <trkpt lat="43.16956" lon="2.37885">
        <ele>187.8</ele>
        <time>2019-06-16T07:51:10.000Z</time>
      </trkpt>
      <trkpt lat="43.16958" lon="2.37884">
        <ele>187.7</ele>
        <time>2019-06-16T07:51:11.000Z</time>
      </trkpt>
      <trkpt lat="43.1696" lon="2.37884">
        <ele>187.6</ele>
        <time>2019-06-16T07:51:12.000Z</time>
      </trkpt>
      <trkpt lat="43.16963" lon="2.37883">
        <ele>187.5</ele>
        <time>2019-06-16T07:51:13.000Z</time>
      </trkpt>
      <trkpt lat="43.16965" lon="2.37883">
        <ele>187.4</ele>
        <time>2019-06-16T07:51:14.000Z</time>
      </trkpt>
      <trkpt lat="43.16968" lon="2.37883">
        <ele>187.3</ele>
        <time>2019-06-16T07:51:15.000Z</time>
      </trkpt>
      <trkpt lat="43.1697" lon="2.37883">
        <ele>187.2</ele>
        <time>2019-06-16T07:51:16.000Z</time>
      </trkpt>
      <trkpt lat="43.16973" lon="2.37882">
        <ele>187.1</ele>
        <time>2019-06-16T07:51:17.000Z</time>
      </trkpt>
      <trkpt lat="43.16975" lon="2.37882">
        <ele>186.9</ele>
        <time>2019-06-16T07:51:18.000Z</time>
      </trkpt>
      <trkpt lat="43.16978" lon="2.37882">
        <ele>186.8</ele>
        <time>2019-06-16T07:51:19.000Z</time>
      </trkpt>
      <trkpt lat="43.1698" lon="2.37881">
        <ele>186.7</ele>
        <time>2019-06-16T07:51:20.000Z</time>
      </trkpt>
      <trkpt lat="43.16983" lon="2.37881">
        <ele>186.6</ele>
        <time>2019-06-16T07:51:21.000Z</time>
      </trkpt>
      <trkpt lat="43.16985" lon="2.3788">
        <ele>186.5</ele>
        <time>2019-06-16T07:51:22.000Z</time>
      </trkpt>
      <trkpt lat="43.16987" lon="2.37879">
        <ele>186.5</ele>
        <time>2019-06-16T07:51:23.000Z</time>
      </trkpt>
      <trkpt lat="43.16988" lon="2.37879">
        <ele>186.4</ele>
        <time>2019-06-16T07:51:24.000Z</time>
      </trkpt>
      <trkpt lat="43.16989" lon="2.37879">
        <ele>186.4</ele>
        <time>2019-06-16T07:51:25.000Z</time>
      </trkpt>
      <trkpt lat="43.16989" lon="2.37879">
        <ele>186.4</ele>
        <time>2019-06-16T07:51:26.000Z</time>
      </trkpt>
      <trkpt lat="43.1699" lon="2.37879">
        <ele>186.4</ele>
        <time>2019-06-16T07:51:27.000Z</time>
      </trkpt>
      <trkpt lat="43.1699" lon="2.37879">
        <ele>186.4</ele>
        <time>2019-06-16T07:51:28.000Z</time>
      </trkpt>
      <trkpt lat="43.1699" lon="2.37879">
        <ele>186.3</ele>
        <time>2019-06-16T07:51:29.000Z</time>
      </trkpt>
      <trkpt lat="43.16991" lon="2.37879">
        <ele>186.3</ele>
        <time>2019-06-16T07:51:30.000Z</time>
      </trkpt>
      <trkpt lat="43.16992" lon="2.37879">
        <ele>186.3</ele>
        <time>2019-06-16T07:51:31.000Z</time>
      </trkpt>
      <trkpt lat="43.16993" lon="2.37879">
        <ele>186.2</ele>
        <time>2019-06-16T07:51:32.000Z</time>
      </trkpt>
      <trkpt lat="43.16995" lon="2.37879">
        <ele>186.1</ele>
        <time>2019-06-16T07:51:33.000Z</time>
      </trkpt>
      <trkpt lat="43.16997" lon="2.37878">
        <ele>186.1</ele>
        <time>2019-06-16T07:51:34.000Z</time>
      </trkpt>
      <trkpt lat="43.16999" lon="2.37878">
        <ele>186</ele>
        <time>2019-06-16T07:51:35.000Z</time>
      </trkpt>
      <trkpt lat="43.17002" lon="2.37878">
        <ele>185.9</ele>
        <time>2019-06-16T07:51:36.000Z</time>
      </trkpt>
      <trkpt lat="43.17005" lon="2.37877">
        <ele>185.8</ele>
        <time>2019-06-16T07:51:37.000Z</time>
      </trkpt>
      <trkpt lat="43.17008" lon="2.37876">
        <ele>185.7</ele>
        <time>2019-06-16T07:51:38.000Z</time>
      </trkpt>
      <trkpt lat="43.1701" lon="2.37875">
        <ele>185.6</ele>
        <time>2019-06-16T07:51:39.000Z</time>
      </trkpt>
      <trkpt lat="43.17013" lon="2.37874">
        <ele>185.5</ele>
        <time>2019-06-16T07:51:40.000Z</time>
      </trkpt>
      <trkpt lat="43.17016" lon="2.37873">
        <ele>185.5</ele>
        <time>2019-06-16T07:51:41.000Z</time>
      </trkpt>
      <trkpt lat="43.17019" lon="2.37871">
        <ele>185.4</ele>
        <time>2019-06-16T07:51:42.000Z</time>
      </trkpt>
      <trkpt lat="43.17021" lon="2.37869">
        <ele>185.3</ele>
        <time>2019-06-16T07:51:43.000Z</time>
      </trkpt>
      <trkpt lat="43.17024" lon="2.37868">
        <ele>185.3</ele>
        <time>2019-06-16T07:51:44.000Z</time>
      </trkpt>
      <trkpt lat="43.17026" lon="2.37866">
        <ele>185.2</ele>
        <time>2019-06-16T07:51:45.000Z</time>
      </trkpt>
      <trkpt lat="43.17029" lon="2.37864">
        <ele>185.2</ele>
        <time>2019-06-16T07:51:46.000Z</time>
      </trkpt>
      <trkpt lat="43.17031" lon="2.37862">
        <ele>185.1</ele>
        <time>2019-06-16T07:51:47.000Z</time>
      </trkpt>
      <trkpt lat="43.17033" lon="2.3786">
        <ele>185</ele>
        <time>2019-06-16T07:51:48.000Z</time>
      </trkpt>
      <trkpt lat="43.17035" lon="2.37858">
        <ele>185</ele>
        <time>2019-06-16T07:51:49.000Z</time>
      </trkpt>
      <trkpt lat="43.17038" lon="2.37856">
        <ele>184.9</ele>
        <time>2019-06-16T07:51:50.000Z</time>
      </trkpt>
      <trkpt lat="43.1704" lon="2.37854">
        <ele>184.8</ele>
        <time>2019-06-16T07:51:51.000Z</time>
      </trkpt>
      <trkpt lat="43.17042" lon="2.37852">
        <ele>184.8</ele>
        <time>2019-06-16T07:51:52.000Z</time>
      </trkpt>
      <trkpt lat="43.17044" lon="2.3785">
        <ele>184.7</ele>
        <time>2019-06-16T07:51:53.000Z</time>
      </trkpt>
      <trkpt lat="43.17047" lon="2.37848">
        <ele>184.6</ele>
        <time>2019-06-16T07:51:54.000Z</time>
      </trkpt>
      <trkpt lat="43.17049" lon="2.37847">
        <ele>184.5</ele>
        <time>2019-06-16T07:51:55.000Z</time>
      </trkpt>
      <trkpt lat="43.17052" lon="2.37845">
        <ele>184.4</ele>
        <time>2019-06-16T07:51:56.000Z</time>
      </trkpt>
      <trkpt lat="43.17054" lon="2.37843">
        <ele>184.3</ele>
        <time>2019-06-16T07:51:57.000Z</time>
      </trkpt>
      <trkpt lat="43.17056" lon="2.37841">
        <ele>184.2</ele>
        <time>2019-06-16T07:51:58.000Z</time>
      </trkpt>
      <trkpt lat="43.17059" lon="2.3784">
        <ele>184.1</ele>
        <time>2019-06-16T07:51:59.000Z</time>
      </trkpt>
      <trkpt lat="43.17061" lon="2.37838">
        <ele>184</ele>
        <time>2019-06-16T07:52:00.000Z</time>
      </trkpt>
      <trkpt lat="43.17064" lon="2.37836">
        <ele>183.9</ele>
        <time>2019-06-16T07:52:01.000Z</time>
      </trkpt>
      <trkpt lat="43.17067" lon="2.37835">
        <ele>183.8</ele>
        <time>2019-06-16T07:52:02.000Z</time>
      </trkpt>
      <trkpt lat="43.17069" lon="2.37833">
        <ele>183.7</ele>
        <time>2019-06-16T07:52:03.000Z</time>
      </trkpt>
      <trkpt lat="43.17072" lon="2.37831">
        <ele>183.5</ele>
        <time>2019-06-16T07:52:04.000Z</time>
      </trkpt>
      <trkpt lat="43.17074" lon="2.3783">
        <ele>183.4</ele>
        <time>2019-06-16T07:52:05.000Z</time>
      </trkpt>
      <trkpt lat="43.17077" lon="2.37828">
        <ele>183.3</ele>
        <time>2019-06-16T07:52:06.000Z</time>
      </trkpt>
      <trkpt lat="43.1708" lon="2.37827">
        <ele>183.1</ele>
        <time>2019-06-16T07:52:07.000Z</time>
      </trkpt>
      <trkpt lat="43.17082" lon="2.37825">
        <ele>183</ele>
        <time>2019-06-16T07:52:08.000Z</time>
      </trkpt>
      <trkpt lat="43.17085" lon="2.37823">
        <ele>182.8</ele>
        <time>2019-06-16T07:52:09.000Z</time>
      </trkpt>
      <trkpt lat="43.17087" lon="2.37822">
        <ele>182.7</ele>
        <time>2019-06-16T07:52:10.000Z</time>
      </trkpt>
      <trkpt lat="43.1709" lon="2.3782">
        <ele>182.6</ele>
        <time>2019-06-16T07:52:11.000Z</time>
      </trkpt>
      <trkpt lat="43.17092" lon="2.37818">
        <ele>182.5</ele>
        <time>2019-06-16T07:52:12.000Z</time>
      </trkpt>
      <trkpt lat="43.17095" lon="2.37817">
        <ele>182.4</ele>
        <time>2019-06-16T07:52:13.000Z</time>
      </trkpt>
      <trkpt lat="43.17097" lon="2.37815">
        <ele>182.3</ele>
        <time>2019-06-16T07:52:14.000Z</time>
      </trkpt>
      <trkpt lat="43.171" lon="2.37813">
        <ele>182.1</ele>
        <time>2019-06-16T07:52:15.000Z</time>
      </trkpt>
      <trkpt lat="43.17102" lon="2.37812">
        <ele>182</ele>
        <time>2019-06-16T07:52:16.000Z</time>
      </trkpt>
      <trkpt lat="43.17104" lon="2.3781">
        <ele>181.9</ele>
        <time>2019-06-16T07:52:17.000Z</time>
      </trkpt>
      <trkpt lat="43.17107" lon="2.37808">
        <ele>181.8</ele>
        <time>2019-06-16T07:52:18.000Z</time>
      </trkpt>
      <trkpt lat="43.17109" lon="2.37806">
        <ele>181.7</ele>
        <time>2019-06-16T07:52:19.000Z</time>
      </trkpt>
      <trkpt lat="43.17111" lon="2.37804">
        <ele>181.5</ele>
        <time>2019-06-16T07:52:20.000Z</time>
      </trkpt>
      <trkpt lat="43.17113" lon="2.37802">
        <ele>181.4</ele>
        <time>2019-06-16T07:52:21.000Z</time>
      </trkpt>
      <trkpt lat="43.17116" lon="2.378">
        <ele>181.3</ele>
        <time>2019-06-16T07:52:22.000Z</time>
      </trkpt>
      <trkpt lat="43.17118" lon="2.37798">
        <ele>181.2</ele>
        <time>2019-06-16T07:52:23.000Z</time>
      </trkpt>
      <trkpt lat="43.1712" lon="2.37796">
        <ele>181</ele>
        <time>2019-06-16T07:52:24.000Z</time>
      </trkpt>
      <trkpt lat="43.17123" lon="2.37795">
        <ele>180.9</ele>
        <time>2019-06-16T07:52:25.000Z</time>
      </trkpt>
      <trkpt lat="43.17125" lon="2.37793">
        <ele>180.8</ele>
        <time>2019-06-16T07:52:26.000Z</time>
      </trkpt>
      <trkpt lat="43.17127" lon="2.37791">
        <ele>180.6</ele>
        <time>2019-06-16T07:52:27.000Z</time>
      </trkpt>
      <trkpt lat="43.1713" lon="2.3779">
        <ele>180.5</ele>
        <time>2019-06-16T07:52:28.000Z</time>
      </trkpt>
      <trkpt lat="43.17132" lon="2.37789">
        <ele>180.4</ele>
        <time>2019-06-16T07:52:29.000Z</time>
      </trkpt>
      <trkpt lat="43.17135" lon="2.37787">
        <ele>180.3</ele>
        <time>2019-06-16T07:52:30.000Z</time>
      </trkpt>
      <trkpt lat="43.17138" lon="2.37786">
        <ele>180.1</ele>
        <time>2019-06-16T07:52:31.000Z</time>
      </trkpt>
      <trkpt lat="43.1714" lon="2.37785">
        <ele>180</ele>
        <time>2019-06-16T07:52:32.000Z</time>
      </trkpt>
      <trkpt lat="43.17143" lon="2.37784">
        <ele>179.9</ele>
        <time>2019-06-16T07:52:33.000Z</time>
      </trkpt>
      <trkpt lat="43.17145" lon="2.37784">
        <ele>179.7</ele>
        <time>2019-06-16T07:52:34.000Z</time>
      </trkpt>
      <trkpt lat="43.17148" lon="2.37783">
        <ele>179.6</ele>
        <time>2019-06-16T07:52:35.000Z</time>
      </trkpt>
      <trkpt lat="43.17151" lon="2.37782">
        <ele>179.5</ele>
        <time>2019-06-16T07:52:36.000Z</time>
      </trkpt>
      <trkpt lat="43.17154" lon="2.37781">
        <ele>179.3</ele>
        <time>2019-06-16T07:52:37.000Z</time>
      </trkpt>
      <trkpt lat="43.17156" lon="2.37781">
        <ele>179.2</ele>
        <time>2019-06-16T07:52:38.000Z</time>
      </trkpt>
      <trkpt lat="43.17159" lon="2.3778">
        <ele>179.1</ele>
        <time>2019-06-16T07:52:39.000Z</time>
      </trkpt>
      <trkpt lat="43.17162" lon="2.3778">
        <ele>178.9</ele>
        <time>2019-06-16T07:52:40.000Z</time>
      </trkpt>
      <trkpt lat="43.17165" lon="2.3778">
        <ele>178.8</ele>
        <time>2019-06-16T07:52:41.000Z</time>
      </trkpt>
      <trkpt lat="43.17167" lon="2.37779">
        <ele>178.7</ele>
        <time>2019-06-16T07:52:42.000Z</time>
      </trkpt>
      <trkpt lat="43.1717" lon="2.37779">
        <ele>178.6</ele>
        <time>2019-06-16T07:52:43.000Z</time>
      </trkpt>
      <trkpt lat="43.17173" lon="2.37779">
        <ele>178.5</ele>
        <time>2019-06-16T07:52:44.000Z</time>
      </trkpt>
      <trkpt lat="43.17175" lon="2.37778">
        <ele>178.5</ele>
        <time>2019-06-16T07:52:45.000Z</time>
      </trkpt>
      <trkpt lat="43.17178" lon="2.37778">
        <ele>178.4</ele>
        <time>2019-06-16T07:52:46.000Z</time>
      </trkpt>
      <trkpt lat="43.17181" lon="2.37778">
        <ele>178.3</ele>
        <time>2019-06-16T07:52:47.000Z</time>
      </trkpt>
      <trkpt lat="43.17184" lon="2.37778">
        <ele>178.3</ele>
        <time>2019-06-16T07:52:48.000Z</time>
      </trkpt>
      <trkpt lat="43.17186" lon="2.37778">
        <ele>178.2</ele>
        <time>2019-06-16T07:52:49.000Z</time>
      </trkpt>
      <trkpt lat="43.17189" lon="2.37778">
        <ele>178.1</ele>
        <time>2019-06-16T07:52:50.000Z</time>
      </trkpt>
      <trkpt lat="43.17192" lon="2.37777">
        <ele>178.1</ele>
        <time>2019-06-16T07:52:51.000Z</time>
      </trkpt>
      <trkpt lat="43.17194" lon="2.37777">
        <ele>178</ele>
        <time>2019-06-16T07:52:52.000Z</time>
      </trkpt>
      <trkpt lat="43.17197" lon="2.37777">
        <ele>177.9</ele>
        <time>2019-06-16T07:52:53.000Z</time>
      </trkpt>
      <trkpt lat="43.172" lon="2.37777">
        <ele>177.9</ele>
        <time>2019-06-16T07:52:54.000Z</time>
      </trkpt>
      <trkpt lat="43.17202" lon="2.37777">
        <ele>177.8</ele>
        <time>2019-06-16T07:52:55.000Z</time>
      </trkpt>
      <trkpt lat="43.17205" lon="2.37777">
        <ele>177.7</ele>
        <time>2019-06-16T07:52:56.000Z</time>
      </trkpt>
      <trkpt lat="43.17208" lon="2.37777">
        <ele>177.7</ele>
        <time>2019-06-16T07:52:57.000Z</time>
      </trkpt>
      <trkpt lat="43.17211" lon="2.37777">
        <ele>177.6</ele>
        <time>2019-06-16T07:52:58.000Z</time>
      </trkpt>
      <trkpt lat="43.17213" lon="2.37777">
        <ele>177.5</ele>
        <time>2019-06-16T07:52:59.000Z</time>
      </trkpt>
      <trkpt lat="43.17216" lon="2.37777">
        <ele>177.5</ele>
        <time>2019-06-16T07:53:00.000Z</time>
      </trkpt>
      <trkpt lat="43.17219" lon="2.37777">
        <ele>177.4</ele>
        <time>2019-06-16T07:53:01.000Z</time>
      </trkpt>
      <trkpt lat="43.17221" lon="2.37776">
        <ele>177.3</ele>
        <time>2019-06-16T07:53:02.000Z</time>
      </trkpt>
      <trkpt lat="43.17224" lon="2.37776">
        <ele>177.3</ele>
        <time>2019-06-16T07:53:03.000Z</time>
      </trkpt>
      <trkpt lat="43.17227" lon="2.37776">
        <ele>177.2</ele>
        <time>2019-06-16T07:53:04.000Z</time>
      </trkpt>
      <trkpt lat="43.1723" lon="2.37776">
        <ele>177.1</ele>
        <time>2019-06-16T07:53:05.000Z</time>
      </trkpt>
      <trkpt lat="43.17232" lon="2.37776">
        <ele>177</ele>
        <time>2019-06-16T07:53:06.000Z</time>
      </trkpt>
      <trkpt lat="43.17235" lon="2.37775">
        <ele>177</ele>
        <time>2019-06-16T07:53:07.000Z</time>
      </trkpt>
      <trkpt lat="43.17238" lon="2.37775">
        <ele>176.9</ele>
        <time>2019-06-16T07:53:08.000Z</time>
      </trkpt>
      <trkpt lat="43.1724" lon="2.37774">
        <ele>176.8</ele>
        <time>2019-06-16T07:53:09.000Z</time>
      </trkpt>
      <trkpt lat="43.17243" lon="2.37774">
        <ele>176.7</ele>
        <time>2019-06-16T07:53:10.000Z</time>
      </trkpt>
      <trkpt lat="43.17246" lon="2.37774">
        <ele>176.7</ele>
        <time>2019-06-16T07:53:11.000Z</time>
      </trkpt>
      <trkpt lat="43.17248" lon="2.37773">
        <ele>176.6</ele>
        <time>2019-06-16T07:53:12.000Z</time>
      </trkpt>
      <trkpt lat="43.17251" lon="2.37772">
        <ele>176.5</ele>
        <time>2019-06-16T07:53:13.000Z</time>
      </trkpt>
      <trkpt lat="43.17253" lon="2.37772">
        <ele>176.4</ele>
        <time>2019-06-16T07:53:14.000Z</time>
      </trkpt>
      <trkpt lat="43.17256" lon="2.37771">
        <ele>176.3</ele>
        <time>2019-06-16T07:53:15.000Z</time>
      </trkpt>
      <trkpt lat="43.17258" lon="2.3777">
        <ele>176.2</ele>
        <time>2019-06-16T07:53:16.000Z</time>
      </trkpt>
      <trkpt lat="43.17261" lon="2.37769">
        <ele>176</ele>
        <time>2019-06-16T07:53:17.000Z</time>
      </trkpt>
      <trkpt lat="43.17263" lon="2.37768">
        <ele>175.9</ele>
        <time>2019-06-16T07:53:18.000Z</time>
      </trkpt>
      <trkpt lat="43.17266" lon="2.37767">
        <ele>175.8</ele>
        <time>2019-06-16T07:53:19.000Z</time>
      </trkpt>
      <trkpt lat="43.17268" lon="2.37766">
        <ele>175.7</ele>
        <time>2019-06-16T07:53:20.000Z</time>
      </trkpt>
      <trkpt lat="43.1727" lon="2.37765">
        <ele>175.6</ele>
        <time>2019-06-16T07:53:21.000Z</time>
      </trkpt>
      <trkpt lat="43.17273" lon="2.37764">
        <ele>175.5</ele>
        <time>2019-06-16T07:53:22.000Z</time>
      </trkpt>
      <trkpt lat="43.17275" lon="2.37763">
        <ele>175.4</ele>
        <time>2019-06-16T07:53:23.000Z</time>
      </trkpt>
      <trkpt lat="43.17277" lon="2.37761">
        <ele>175.2</ele>
        <time>2019-06-16T07:53:24.000Z</time>
      </trkpt>
      <trkpt lat="43.1728" lon="2.3776">
        <ele>175.1</ele>
        <time>2019-06-16T07:53:25.000Z</time>
      </trkpt>
      <trkpt lat="43.17282" lon="2.37759">
        <ele>175</ele>
        <time>2019-06-16T07:53:26.000Z</time>
      </trkpt>
      <trkpt lat="43.17284" lon="2.37758">
        <ele>174.9</ele>
        <time>2019-06-16T07:53:27.000Z</time>
      </trkpt>
      <trkpt lat="43.17286" lon="2.37756">
        <ele>174.8</ele>
        <time>2019-06-16T07:53:28.000Z</time>
      </trkpt>
      <trkpt lat="43.17288" lon="2.37755">
        <ele>174.7</ele>
        <time>2019-06-16T07:53:29.000Z</time>
      </trkpt>
      <trkpt lat="43.1729" lon="2.37754">
        <ele>174.6</ele>
        <time>2019-06-16T07:53:30.000Z</time>
      </trkpt>
      <trkpt lat="43.17292" lon="2.37752">
        <ele>174.5</ele>
        <time>2019-06-16T07:53:31.000Z</time>
      </trkpt>
      <trkpt lat="43.17294" lon="2.37751">
        <ele>174.4</ele>
        <time>2019-06-16T07:53:32.000Z</time>
      </trkpt>
      <trkpt lat="43.17296" lon="2.3775">
        <ele>174.3</ele>
        <time>2019-06-16T07:53:33.000Z</time>
      </trkpt>
      <trkpt lat="43.17298" lon="2.37749">
        <ele>174.3</ele>
        <time>2019-06-16T07:53:34.000Z</time>
      </trkpt>
      <trkpt lat="43.173" lon="2.37748">
        <ele>174.2</ele>
        <time>2019-06-16T07:53:35.000Z</time>
      </trkpt>
      <trkpt lat="43.17302" lon="2.37748">
        <ele>174.1</ele>
        <time>2019-06-16T07:53:36.000Z</time>
      </trkpt>
      <trkpt lat="43.17305" lon="2.37747">
        <ele>174</ele>
        <time>2019-06-16T07:53:37.000Z</time>
      </trkpt>
      <trkpt lat="43.17307" lon="2.37747">
        <ele>173.9</ele>
        <time>2019-06-16T07:53:38.000Z</time>
      </trkpt>
      <trkpt lat="43.17309" lon="2.37747">
        <ele>173.9</ele>
        <time>2019-06-16T07:53:39.000Z</time>
      </trkpt>
      <trkpt lat="43.17312" lon="2.37748">
        <ele>173.8</ele>
        <time>2019-06-16T07:53:40.000Z</time>
      </trkpt>
      <trkpt lat="43.17314" lon="2.37748">
        <ele>173.7</ele>
        <time>2019-06-16T07:53:41.000Z</time>
      </trkpt>
      <trkpt lat="43.17317" lon="2.37748">
        <ele>173.6</ele>
        <time>2019-06-16T07:53:42.000Z</time>
      </trkpt>
      <trkpt lat="43.17319" lon="2.37749">
        <ele>173.5</ele>
        <time>2019-06-16T07:53:43.000Z</time>
      </trkpt>
      <trkpt lat="43.17322" lon="2.3775">
        <ele>173.4</ele>
        <time>2019-06-16T07:53:44.000Z</time>
      </trkpt>
      <trkpt lat="43.17324" lon="2.3775">
        <ele>173.3</ele>
        <time>2019-06-16T07:53:45.000Z</time>
      </trkpt>
      <trkpt lat="43.17327" lon="2.37751">
        <ele>173.3</ele>
        <time>2019-06-16T07:53:46.000Z</time>
      </trkpt>
      <trkpt lat="43.17329" lon="2.37752">
        <ele>173.2</ele>
        <time>2019-06-16T07:53:47.000Z</time>
      </trkpt>
      <trkpt lat="43.17332" lon="2.37753">
        <ele>173.1</ele>
        <time>2019-06-16T07:53:48.000Z</time>
      </trkpt>
      <trkpt lat="43.17334" lon="2.37753">
        <ele>173</ele>
        <time>2019-06-16T07:53:49.000Z</time>
      </trkpt>
      <trkpt lat="43.17337" lon="2.37754">
        <ele>173</ele>
        <time>2019-06-16T07:53:50.000Z</time>
      </trkpt>
      <trkpt lat="43.17339" lon="2.37755">
        <ele>173.1</ele>
        <time>2019-06-16T07:53:51.000Z</time>
      </trkpt>
      <trkpt lat="43.17342" lon="2.37756">
        <ele>173.1</ele>
        <time>2019-06-16T07:53:52.000Z</time>
      </trkpt>
      <trkpt lat="43.17344" lon="2.37757">
        <ele>173.1</ele>
        <time>2019-06-16T07:53:53.000Z</time>
      </trkpt>
      <trkpt lat="43.17347" lon="2.37758">
        <ele>173.1</ele>
        <time>2019-06-16T07:53:54.000Z</time>
      </trkpt>
      <trkpt lat="43.17349" lon="2.37759">
        <ele>173.1</ele>
        <time>2019-06-16T07:53:55.000Z</time>
      </trkpt>
      <trkpt lat="43.17352" lon="2.3776">
        <ele>173.1</ele>
        <time>2019-06-16T07:53:56.000Z</time>
      </trkpt>
      <trkpt lat="43.17354" lon="2.37761">
        <ele>173.1</ele>
        <time>2019-06-16T07:53:57.000Z</time>
      </trkpt>
      <trkpt lat="43.17357" lon="2.37762">
        <ele>173.1</ele>
        <time>2019-06-16T07:53:58.000Z</time>
      </trkpt>
      <trkpt lat="43.17359" lon="2.37763">
        <ele>173.1</ele>
        <time>2019-06-16T07:53:59.000Z</time>
      </trkpt>
      <trkpt lat="43.17362" lon="2.37764">
        <ele>173.1</ele>
        <time>2019-06-16T07:54:00.000Z</time>
      </trkpt>
      <trkpt lat="43.17364" lon="2.37765">
        <ele>173</ele>
        <time>2019-06-16T07:54:01.000Z</time>
      </trkpt>
      <trkpt lat="43.17367" lon="2.37766">
        <ele>173</ele>
        <time>2019-06-16T07:54:02.000Z</time>
      </trkpt>
      <trkpt lat="43.17369" lon="2.37767">
        <ele>173</ele>
        <time>2019-06-16T07:54:03.000Z</time>
      </trkpt>
      <trkpt lat="43.17372" lon="2.37768">
        <ele>173</ele>
        <time>2019-06-16T07:54:04.000Z</time>
      </trkpt>
      <trkpt lat="43.17374" lon="2.37769">
        <ele>173</ele>
        <time>2019-06-16T07:54:05.000Z</time>
      </trkpt>
      <trkpt lat="43.17377" lon="2.3777">
        <ele>173</ele>
        <time>2019-06-16T07:54:06.000Z</time>
      </trkpt>
      <trkpt lat="43.1738" lon="2.37771">
        <ele>173</ele>
        <time>2019-06-16T07:54:07.000Z</time>
      </trkpt>
      <trkpt lat="43.17382" lon="2.37772">
        <ele>173</ele>
        <time>2019-06-16T07:54:08.000Z</time>
      </trkpt>
      <trkpt lat="43.17385" lon="2.37773">
        <ele>172.9</ele>
        <time>2019-06-16T07:54:09.000Z</time>
      </trkpt>
      <trkpt lat="43.17387" lon="2.37774">
        <ele>172.9</ele>
        <time>2019-06-16T07:54:10.000Z</time>
      </trkpt>
      <trkpt lat="43.1739" lon="2.37775">
        <ele>172.9</ele>
        <time>2019-06-16T07:54:11.000Z</time>
      </trkpt>
      <trkpt lat="43.17392" lon="2.37776">
        <ele>172.9</ele>
        <time>2019-06-16T07:54:12.000Z</time>
      </trkpt>
      <trkpt lat="43.17395" lon="2.37777">
        <ele>172.8</ele>
        <time>2019-06-16T07:54:13.000Z</time>
      </trkpt>
      <trkpt lat="43.17397" lon="2.37778">
        <ele>172.8</ele>
        <time>2019-06-16T07:54:14.000Z</time>
      </trkpt>
      <trkpt lat="43.174" lon="2.37779">
        <ele>172.8</ele>
        <time>2019-06-16T07:54:15.000Z</time>
      </trkpt>
      <trkpt lat="43.17402" lon="2.3778">
        <ele>172.8</ele>
        <time>2019-06-16T07:54:16.000Z</time>
      </trkpt>
      <trkpt lat="43.17405" lon="2.37781">
        <ele>172.7</ele>
        <time>2019-06-16T07:54:17.000Z</time>
      </trkpt>
      <trkpt lat="43.17407" lon="2.37782">
        <ele>172.7</ele>
        <time>2019-06-16T07:54:18.000Z</time>
      </trkpt>
      <trkpt lat="43.1741" lon="2.37783">
        <ele>172.7</ele>
        <time>2019-06-16T07:54:19.000Z</time>
      </trkpt>
      <trkpt lat="43.17412" lon="2.37784">
        <ele>172.6</ele>
        <time>2019-06-16T07:54:20.000Z</time>
      </trkpt>
      <trkpt lat="43.17415" lon="2.37785">
        <ele>172.6</ele>
        <time>2019-06-16T07:54:21.000Z</time>
      </trkpt>
      <trkpt lat="43.17417" lon="2.37786">
        <ele>172.5</ele>
        <time>2019-06-16T07:54:22.000Z</time>
      </trkpt>
      <trkpt lat="43.1742" lon="2.37786">
        <ele>172.4</ele>
        <time>2019-06-16T07:54:23.000Z</time>
      </trkpt>
      <trkpt lat="43.17422" lon="2.37787">
        <ele>172.3</ele>
        <time>2019-06-16T07:54:24.000Z</time>
      </trkpt>
      <trkpt lat="43.17425" lon="2.37788">
        <ele>172.2</ele>
        <time>2019-06-16T07:54:25.000Z</time>
      </trkpt>
      <trkpt lat="43.17427" lon="2.37789">
        <ele>172</ele>
        <time>2019-06-16T07:54:26.000Z</time>
      </trkpt>
      <trkpt lat="43.17429" lon="2.3779">
        <ele>171.9</ele>
        <time>2019-06-16T07:54:27.000Z</time>
      </trkpt>
      <trkpt lat="43.17432" lon="2.3779">
        <ele>171.8</ele>
        <time>2019-06-16T07:54:28.000Z</time>
      </trkpt>
      <trkpt lat="43.17434" lon="2.37791">
        <ele>171.7</ele>
        <time>2019-06-16T07:54:29.000Z</time>
      </trkpt>
      <trkpt lat="43.17437" lon="2.37792">
        <ele>171.5</ele>
        <time>2019-06-16T07:54:30.000Z</time>
      </trkpt>
      <trkpt lat="43.17439" lon="2.37793">
        <ele>171.4</ele>
        <time>2019-06-16T07:54:31.000Z</time>
      </trkpt>
      <trkpt lat="43.17441" lon="2.37794">
        <ele>171.3</ele>
        <time>2019-06-16T07:54:32.000Z</time>
      </trkpt>
      <trkpt lat="43.17443" lon="2.37794">
        <ele>171.2</ele>
        <time>2019-06-16T07:54:33.000Z</time>
      </trkpt>
      <trkpt lat="43.17446" lon="2.37795">
        <ele>171.1</ele>
        <time>2019-06-16T07:54:34.000Z</time>
      </trkpt>
      <trkpt lat="43.17448" lon="2.37796">
        <ele>171</ele>
        <time>2019-06-16T07:54:35.000Z</time>
      </trkpt>
      <trkpt lat="43.1745" lon="2.37797">
        <ele>170.8</ele>
        <time>2019-06-16T07:54:36.000Z</time>
      </trkpt>
      <trkpt lat="43.17452" lon="2.37798">
        <ele>170.7</ele>
        <time>2019-06-16T07:54:37.000Z</time>
      </trkpt>
      <trkpt lat="43.17455" lon="2.37798">
        <ele>170.6</ele>
        <time>2019-06-16T07:54:38.000Z</time>
      </trkpt>
      <trkpt lat="43.17457" lon="2.37799">
        <ele>170.5</ele>
        <time>2019-06-16T07:54:39.000Z</time>
      </trkpt>
      <trkpt lat="43.17459" lon="2.378">
        <ele>170.4</ele>
        <time>2019-06-16T07:54:40.000Z</time>
      </trkpt>
      <trkpt lat="43.17462" lon="2.37801">
        <ele>170.2</ele>
        <time>2019-06-16T07:54:41.000Z</time>
      </trkpt>
      <trkpt lat="43.17464" lon="2.37801">
        <ele>170.1</ele>
        <time>2019-06-16T07:54:42.000Z</time>
      </trkpt>
      <trkpt lat="43.17467" lon="2.37802">
        <ele>170</ele>
        <time>2019-06-16T07:54:43.000Z</time>
      </trkpt>
      <trkpt lat="43.17469" lon="2.37803">
        <ele>169.8</ele>
        <time>2019-06-16T07:54:44.000Z</time>
      </trkpt>
      <trkpt lat="43.17472" lon="2.37803">
        <ele>169.7</ele>
        <time>2019-06-16T07:54:45.000Z</time>
      </trkpt>
      <trkpt lat="43.17474" lon="2.37804">
        <ele>169.6</ele>
        <time>2019-06-16T07:54:46.000Z</time>
      </trkpt>
      <trkpt lat="43.17477" lon="2.37804">
        <ele>169.5</ele>
        <time>2019-06-16T07:54:47.000Z</time>
      </trkpt>
      <trkpt lat="43.1748" lon="2.37805">
        <ele>169.3</ele>
        <time>2019-06-16T07:54:48.000Z</time>
      </trkpt>
      <trkpt lat="43.17482" lon="2.37806">
        <ele>169.2</ele>
        <time>2019-06-16T07:54:49.000Z</time>
      </trkpt>
      <trkpt lat="43.17485" lon="2.37806">
        <ele>169.1</ele>
        <time>2019-06-16T07:54:50.000Z</time>
      </trkpt>
      <trkpt lat="43.17487" lon="2.37807">
        <ele>168.9</ele>
        <time>2019-06-16T07:54:51.000Z</time>
      </trkpt>
      <trkpt lat="43.1749" lon="2.37807">
        <ele>168.8</ele>
        <time>2019-06-16T07:54:52.000Z</time>
      </trkpt>
      <trkpt lat="43.17493" lon="2.37808">
        <ele>168.7</ele>
        <time>2019-06-16T07:54:53.000Z</time>
      </trkpt>
      <trkpt lat="43.17495" lon="2.37808">
        <ele>168.5</ele>
        <time>2019-06-16T07:54:54.000Z</time>
      </trkpt>
      <trkpt lat="43.17498" lon="2.37809">
        <ele>168.4</ele>
        <time>2019-06-16T07:54:55.000Z</time>
      </trkpt>
      <trkpt lat="43.175" lon="2.37809">
        <ele>168.3</ele>
        <time>2019-06-16T07:54:56.000Z</time>
      </trkpt>
      <trkpt lat="43.17503" lon="2.3781">
        <ele>168.1</ele>
        <time>2019-06-16T07:54:57.000Z</time>
      </trkpt>
      <trkpt lat="43.17505" lon="2.3781">
        <ele>167.9</ele>
        <time>2019-06-16T07:54:58.000Z</time>
      </trkpt>
      <trkpt lat="43.17508" lon="2.37811">
        <ele>167.6</ele>
        <time>2019-06-16T07:54:59.000Z</time>
      </trkpt>
      <trkpt lat="43.17511" lon="2.37811">
        <ele>167.4</ele>
        <time>2019-06-16T07:55:00.000Z</time>
      </trkpt>
      <trkpt lat="43.17513" lon="2.37812">
        <ele>167.2</ele>
        <time>2019-06-16T07:55:01.000Z</time>
      </trkpt>
      <trkpt lat="43.17516" lon="2.37812">
        <ele>167</ele>
        <time>2019-06-16T07:55:02.000Z</time>
      </trkpt>
      <trkpt lat="43.17518" lon="2.37812">
        <ele>166.8</ele>
        <time>2019-06-16T07:55:03.000Z</time>
      </trkpt>
      <trkpt lat="43.17521" lon="2.37813">
        <ele>166.6</ele>
        <time>2019-06-16T07:55:04.000Z</time>
      </trkpt>
      <trkpt lat="43.17523" lon="2.37813">
        <ele>166.4</ele>
        <time>2019-06-16T07:55:05.000Z</time>
      </trkpt>
      <trkpt lat="43.17526" lon="2.37814">
        <ele>166.2</ele>
        <time>2019-06-16T07:55:06.000Z</time>
      </trkpt>
      <trkpt lat="43.17528" lon="2.37814">
        <ele>166</ele>
        <time>2019-06-16T07:55:07.000Z</time>
      </trkpt>
      <trkpt lat="43.17531" lon="2.37815">
        <ele>165.8</ele>
        <time>2019-06-16T07:55:08.000Z</time>
      </trkpt>
      <trkpt lat="43.17533" lon="2.37815">
        <ele>165.7</ele>
        <time>2019-06-16T07:55:09.000Z</time>
      </trkpt>
      <trkpt lat="43.17536" lon="2.37816">
        <ele>165.5</ele>
        <time>2019-06-16T07:55:10.000Z</time>
      </trkpt>
      <trkpt lat="43.17538" lon="2.37816">
        <ele>165.3</ele>
        <time>2019-06-16T07:55:11.000Z</time>
      </trkpt>
      <trkpt lat="43.17541" lon="2.37817">
        <ele>165.1</ele>
        <time>2019-06-16T07:55:12.000Z</time>
      </trkpt>
      <trkpt lat="43.17543" lon="2.37818">
        <ele>164.9</ele>
        <time>2019-06-16T07:55:13.000Z</time>
      </trkpt>
      <trkpt lat="43.17546" lon="2.37818">
        <ele>164.7</ele>
        <time>2019-06-16T07:55:14.000Z</time>
      </trkpt>
      <trkpt lat="43.17548" lon="2.37819">
        <ele>164.5</ele>
        <time>2019-06-16T07:55:15.000Z</time>
      </trkpt>
      <trkpt lat="43.17551" lon="2.37819">
        <ele>164.3</ele>
        <time>2019-06-16T07:55:16.000Z</time>
      </trkpt>
      <trkpt lat="43.17553" lon="2.3782">
        <ele>164.1</ele>
        <time>2019-06-16T07:55:17.000Z</time>
      </trkpt>
      <trkpt lat="43.17555" lon="2.3782">
        <ele>164</ele>
        <time>2019-06-16T07:55:18.000Z</time>
      </trkpt>
      <trkpt lat="43.17558" lon="2.37821">
        <ele>163.8</ele>
        <time>2019-06-16T07:55:19.000Z</time>
      </trkpt>
      <trkpt lat="43.1756" lon="2.37821">
        <ele>163.6</ele>
        <time>2019-06-16T07:55:20.000Z</time>
      </trkpt>
      <trkpt lat="43.17563" lon="2.37822">
        <ele>163.4</ele>
        <time>2019-06-16T07:55:21.000Z</time>
      </trkpt>
      <trkpt lat="43.17565" lon="2.37822">
        <ele>163.2</ele>
        <time>2019-06-16T07:55:22.000Z</time>
      </trkpt>
      <trkpt lat="43.17568" lon="2.37823">
        <ele>163</ele>
        <time>2019-06-16T07:55:23.000Z</time>
      </trkpt>
      <trkpt lat="43.1757" lon="2.37823">
        <ele>162.9</ele>
        <time>2019-06-16T07:55:24.000Z</time>
      </trkpt>
      <trkpt lat="43.17573" lon="2.37824">
        <ele>162.7</ele>
        <time>2019-06-16T07:55:25.000Z</time>
      </trkpt>
      <trkpt lat="43.17575" lon="2.37824">
        <ele>162.5</ele>
        <time>2019-06-16T07:55:26.000Z</time>
      </trkpt>
      <trkpt lat="43.17577" lon="2.37824">
        <ele>162.3</ele>
        <time>2019-06-16T07:55:27.000Z</time>
      </trkpt>
      <trkpt lat="43.1758" lon="2.37825">
        <ele>162.2</ele>
        <time>2019-06-16T07:55:28.000Z</time>
      </trkpt>
      <trkpt lat="43.17582" lon="2.37825">
        <ele>162</ele>
        <time>2019-06-16T07:55:29.000Z</time>
      </trkpt>
      <trkpt lat="43.17585" lon="2.37825">
        <ele>161.8</ele>
        <time>2019-06-16T07:55:30.000Z</time>
      </trkpt>
      <trkpt lat="43.17587" lon="2.37824">
        <ele>161.6</ele>
        <time>2019-06-16T07:55:31.000Z</time>
      </trkpt>
      <trkpt lat="43.17589" lon="2.37824">
        <ele>161.4</ele>
        <time>2019-06-16T07:55:32.000Z</time>
      </trkpt>
      <trkpt lat="43.17591" lon="2.37824">
        <ele>161.2</ele>
        <time>2019-06-16T07:55:33.000Z</time>
      </trkpt>
      <trkpt lat="43.17594" lon="2.37823">
        <ele>161</ele>
        <time>2019-06-16T07:55:34.000Z</time>
      </trkpt>
      <trkpt lat="43.17596" lon="2.37822">
        <ele>160.8</ele>
        <time>2019-06-16T07:55:35.000Z</time>
      </trkpt>
      <trkpt lat="43.17598" lon="2.37821">
        <ele>160.7</ele>
        <time>2019-06-16T07:55:36.000Z</time>
      </trkpt>
      <trkpt lat="43.176" lon="2.37819">
        <ele>160.5</ele>
        <time>2019-06-16T07:55:37.000Z</time>
      </trkpt>
      <trkpt lat="43.17602" lon="2.37818">
        <ele>160.3</ele>
        <time>2019-06-16T07:55:38.000Z</time>
      </trkpt>
      <trkpt lat="43.17604" lon="2.37818">
        <ele>160.1</ele>
        <time>2019-06-16T07:55:39.000Z</time>
      </trkpt>
      <trkpt lat="43.17606" lon="2.37817">
        <ele>160</ele>
        <time>2019-06-16T07:55:40.000Z</time>
      </trkpt>
      <trkpt lat="43.17608" lon="2.37817">
        <ele>159.8</ele>
        <time>2019-06-16T07:55:41.000Z</time>
      </trkpt>
      <trkpt lat="43.1761" lon="2.37817">
        <ele>159.6</ele>
        <time>2019-06-16T07:55:42.000Z</time>
      </trkpt>
      <trkpt lat="43.17612" lon="2.37818">
        <ele>159.5</ele>
        <time>2019-06-16T07:55:43.000Z</time>
      </trkpt>
      <trkpt lat="43.17614" lon="2.37818">
        <ele>159.3</ele>
        <time>2019-06-16T07:55:44.000Z</time>
      </trkpt>
      <trkpt lat="43.17616" lon="2.37818">
        <ele>159.1</ele>
        <time>2019-06-16T07:55:45.000Z</time>
      </trkpt>
      <trkpt lat="43.17618" lon="2.37817">
        <ele>159</ele>
        <time>2019-06-16T07:55:46.000Z</time>
      </trkpt>
      <trkpt lat="43.1762" lon="2.37817">
        <ele>158.8</ele>
        <time>2019-06-16T07:55:47.000Z</time>
      </trkpt>
      <trkpt lat="43.17622" lon="2.37816">
        <ele>158.7</ele>
        <time>2019-06-16T07:55:48.000Z</time>
      </trkpt>
      <trkpt lat="43.17623" lon="2.37814">
        <ele>158.6</ele>
        <time>2019-06-16T07:55:49.000Z</time>
      </trkpt>
      <trkpt lat="43.17624" lon="2.37813">
        <ele>158.5</ele>
        <time>2019-06-16T07:55:50.000Z</time>
      </trkpt>
      <trkpt lat="43.17625" lon="2.37811">
        <ele>158.4</ele>
        <time>2019-06-16T07:55:51.000Z</time>
      </trkpt>
      <trkpt lat="43.17625" lon="2.37808">
        <ele>158.3</ele>
        <time>2019-06-16T07:55:52.000Z</time>
      </trkpt>
      <trkpt lat="43.17626" lon="2.37806">
        <ele>158.3</ele>
        <time>2019-06-16T07:55:53.000Z</time>
      </trkpt>
      <trkpt lat="43.17627" lon="2.37803">
        <ele>158.2</ele>
        <time>2019-06-16T07:55:54.000Z</time>
      </trkpt>
      <trkpt lat="43.17627" lon="2.378">
        <ele>158.1</ele>
        <time>2019-06-16T07:55:55.000Z</time>
      </trkpt>
      <trkpt lat="43.17627" lon="2.37797">
        <ele>158.1</ele>
        <time>2019-06-16T07:55:56.000Z</time>
      </trkpt>
      <trkpt lat="43.17628" lon="2.37794">
        <ele>158.1</ele>
        <time>2019-06-16T07:55:57.000Z</time>
      </trkpt>
      <trkpt lat="43.17628" lon="2.3779">
        <ele>158</ele>
        <time>2019-06-16T07:55:58.000Z</time>
      </trkpt>
      <trkpt lat="43.17628" lon="2.37787">
        <ele>158</ele>
        <time>2019-06-16T07:55:59.000Z</time>
      </trkpt>
      <trkpt lat="43.17629" lon="2.37784">
        <ele>157.9</ele>
        <time>2019-06-16T07:56:00.000Z</time>
      </trkpt>
      <trkpt lat="43.17629" lon="2.3778">
        <ele>157.9</ele>
        <time>2019-06-16T07:56:01.000Z</time>
      </trkpt>
      <trkpt lat="43.1763" lon="2.37777">
        <ele>157.8</ele>
        <time>2019-06-16T07:56:02.000Z</time>
      </trkpt>
      <trkpt lat="43.1763" lon="2.37773">
        <ele>157.8</ele>
        <time>2019-06-16T07:56:03.000Z</time>
      </trkpt>
      <trkpt lat="43.1763" lon="2.3777">
        <ele>157.7</ele>
        <time>2019-06-16T07:56:04.000Z</time>
      </trkpt>
      <trkpt lat="43.17631" lon="2.37766">
        <ele>157.7</ele>
        <time>2019-06-16T07:56:05.000Z</time>
      </trkpt>
      <trkpt lat="43.17631" lon="2.37763">
        <ele>157.6</ele>
        <time>2019-06-16T07:56:06.000Z</time>
      </trkpt>
      <trkpt lat="43.17632" lon="2.37759">
        <ele>157.6</ele>
        <time>2019-06-16T07:56:07.000Z</time>
      </trkpt>
      <trkpt lat="43.17632" lon="2.37755">
        <ele>157.5</ele>
        <time>2019-06-16T07:56:08.000Z</time>
      </trkpt>
      <trkpt lat="43.17633" lon="2.37752">
        <ele>157.5</ele>
        <time>2019-06-16T07:56:09.000Z</time>
      </trkpt>
      <trkpt lat="43.17633" lon="2.37748">
        <ele>157.4</ele>
        <time>2019-06-16T07:56:10.000Z</time>
      </trkpt>
      <trkpt lat="43.17634" lon="2.37744">
        <ele>157.4</ele>
        <time>2019-06-16T07:56:11.000Z</time>
      </trkpt>
      <trkpt lat="43.17634" lon="2.3774">
        <ele>157.4</ele>
        <time>2019-06-16T07:56:12.000Z</time>
      </trkpt>
      <trkpt lat="43.17634" lon="2.37736">
        <ele>157.4</ele>
        <time>2019-06-16T07:56:13.000Z</time>
      </trkpt>
      <trkpt lat="43.17635" lon="2.37732">
        <ele>157.4</ele>
        <time>2019-06-16T07:56:14.000Z</time>
      </trkpt>
      <trkpt lat="43.17635" lon="2.37729">
        <ele>157.4</ele>
        <time>2019-06-16T07:56:15.000Z</time>
      </trkpt>
      <trkpt lat="43.17636" lon="2.37725">
        <ele>157.3</ele>
        <time>2019-06-16T07:56:16.000Z</time>
      </trkpt>
      <trkpt lat="43.17636" lon="2.37721">
        <ele>157.3</ele>
        <time>2019-06-16T07:56:17.000Z</time>
      </trkpt>
      <trkpt lat="43.17637" lon="2.37717">
        <ele>157.3</ele>
        <time>2019-06-16T07:56:18.000Z</time>
      </trkpt>
      <trkpt lat="43.17637" lon="2.37714">
        <ele>157.3</ele>
        <time>2019-06-16T07:56:19.000Z</time>
      </trkpt>
      <trkpt lat="43.17638" lon="2.3771">
        <ele>157.2</ele>
        <time>2019-06-16T07:56:20.000Z</time>
      </trkpt>
      <trkpt lat="43.17639" lon="2.37706">
        <ele>157.2</ele>
        <time>2019-06-16T07:56:21.000Z</time>
      </trkpt>
      <trkpt lat="43.17639" lon="2.37703">
        <ele>157.2</ele>
        <time>2019-06-16T07:56:22.000Z</time>
      </trkpt>
      <trkpt lat="43.1764" lon="2.37699">
        <ele>157.1</ele>
        <time>2019-06-16T07:56:23.000Z</time>
      </trkpt>
      <trkpt lat="43.17641" lon="2.37696">
        <ele>157.1</ele>
        <time>2019-06-16T07:56:24.000Z</time>
      </trkpt>
      <trkpt lat="43.17641" lon="2.37692">
        <ele>157</ele>
        <time>2019-06-16T07:56:25.000Z</time>
      </trkpt>
      <trkpt lat="43.17642" lon="2.37689">
        <ele>157</ele>
        <time>2019-06-16T07:56:26.000Z</time>
      </trkpt>
      <trkpt lat="43.17643" lon="2.37686">
        <ele>156.9</ele>
        <time>2019-06-16T07:56:27.000Z</time>
      </trkpt>
      <trkpt lat="43.17644" lon="2.37683">
        <ele>156.9</ele>
        <time>2019-06-16T07:56:28.000Z</time>
      </trkpt>
      <trkpt lat="43.17644" lon="2.37679">
        <ele>156.8</ele>
        <time>2019-06-16T07:56:29.000Z</time>
      </trkpt>
      <trkpt lat="43.17645" lon="2.37676">
        <ele>156.8</ele>
        <time>2019-06-16T07:56:30.000Z</time>
      </trkpt>
      <trkpt lat="43.17646" lon="2.37673">
        <ele>156.7</ele>
        <time>2019-06-16T07:56:31.000Z</time>
      </trkpt>
      <trkpt lat="43.17647" lon="2.3767">
        <ele>156.6</ele>
        <time>2019-06-16T07:56:32.000Z</time>
      </trkpt>
      <trkpt lat="43.17648" lon="2.37667">
        <ele>156.6</ele>
        <time>2019-06-16T07:56:33.000Z</time>
      </trkpt>
      <trkpt lat="43.17649" lon="2.37664">
        <ele>156.5</ele>
        <time>2019-06-16T07:56:34.000Z</time>
      </trkpt>
      <trkpt lat="43.1765" lon="2.37661">
        <ele>156.4</ele>
        <time>2019-06-16T07:56:35.000Z</time>
      </trkpt>
      <trkpt lat="43.17651" lon="2.37658">
        <ele>156.3</ele>
        <time>2019-06-16T07:56:36.000Z</time>
      </trkpt>
      <trkpt lat="43.17652" lon="2.37655">
        <ele>156.2</ele>
        <time>2019-06-16T07:56:37.000Z</time>
      </trkpt>
      <trkpt lat="43.17653" lon="2.37652">
        <ele>156.1</ele>
        <time>2019-06-16T07:56:38.000Z</time>
      </trkpt>
      <trkpt lat="43.17654" lon="2.37649">
        <ele>156</ele>
        <time>2019-06-16T07:56:39.000Z</time>
      </trkpt>
      <trkpt lat="43.17655" lon="2.37646">
        <ele>155.8</ele>
        <time>2019-06-16T07:56:40.000Z</time>
      </trkpt>
      <trkpt lat="43.17656" lon="2.37643">
        <ele>155.7</ele>
        <time>2019-06-16T07:56:41.000Z</time>
      </trkpt>
      <trkpt lat="43.17657" lon="2.3764">
        <ele>155.6</ele>
        <time>2019-06-16T07:56:42.000Z</time>
      </trkpt>
      <trkpt lat="43.17658" lon="2.37637">
        <ele>155.5</ele>
        <time>2019-06-16T07:56:43.000Z</time>
      </trkpt>
      <trkpt lat="43.17659" lon="2.37634">
        <ele>155.3</ele>
        <time>2019-06-16T07:56:44.000Z</time>
      </trkpt>
      <trkpt lat="43.1766" lon="2.37631">
        <ele>155.2</ele>
        <time>2019-06-16T07:56:45.000Z</time>
      </trkpt>
      <trkpt lat="43.17661" lon="2.37628">
        <ele>155.1</ele>
        <time>2019-06-16T07:56:46.000Z</time>
      </trkpt>
      <trkpt lat="43.17662" lon="2.37625">
        <ele>155</ele>
        <time>2019-06-16T07:56:47.000Z</time>
      </trkpt>
      <trkpt lat="43.17663" lon="2.37622">
        <ele>154.8</ele>
        <time>2019-06-16T07:56:48.000Z</time>
      </trkpt>
      <trkpt lat="43.17664" lon="2.37619">
        <ele>154.7</ele>
        <time>2019-06-16T07:56:49.000Z</time>
      </trkpt>
      <trkpt lat="43.17665" lon="2.37616">
        <ele>154.6</ele>
        <time>2019-06-16T07:56:50.000Z</time>
      </trkpt>
      <trkpt lat="43.17666" lon="2.37612">
        <ele>154.5</ele>
        <time>2019-06-16T07:56:51.000Z</time>
      </trkpt>
      <trkpt lat="43.17666" lon="2.37609">
        <ele>154.3</ele>
        <time>2019-06-16T07:56:52.000Z</time>
      </trkpt>
      <trkpt lat="43.17667" lon="2.37606">
        <ele>154.3</ele>
        <time>2019-06-16T07:56:53.000Z</time>
      </trkpt>
      <trkpt lat="43.17668" lon="2.37603">
        <ele>154.2</ele>
        <time>2019-06-16T07:56:54.000Z</time>
      </trkpt>
      <trkpt lat="43.17668" lon="2.37599">
        <ele>154.1</ele>
        <time>2019-06-16T07:56:55.000Z</time>
      </trkpt>
      <trkpt lat="43.17669" lon="2.37596">
        <ele>154.1</ele>
        <time>2019-06-16T07:56:56.000Z</time>
      </trkpt>
      <trkpt lat="43.1767" lon="2.37593">
        <ele>154</ele>
        <time>2019-06-16T07:56:57.000Z</time>
      </trkpt>
      <trkpt lat="43.17671" lon="2.37589">
        <ele>153.9</ele>
        <time>2019-06-16T07:56:58.000Z</time>
      </trkpt>
      <trkpt lat="43.17672" lon="2.37586">
        <ele>153.8</ele>
        <time>2019-06-16T07:56:59.000Z</time>
      </trkpt>
      <trkpt lat="43.17673" lon="2.37583">
        <ele>153.8</ele>
        <time>2019-06-16T07:57:00.000Z</time>
      </trkpt>
      <trkpt lat="43.17674" lon="2.3758">
        <ele>153.8</ele>
        <time>2019-06-16T07:57:01.000Z</time>
      </trkpt>
      <trkpt lat="43.17676" lon="2.37577">
        <ele>153.8</ele>
        <time>2019-06-16T07:57:02.000Z</time>
      </trkpt>
      <trkpt lat="43.17677" lon="2.37574">
        <ele>153.8</ele>
        <time>2019-06-16T07:57:03.000Z</time>
      </trkpt>
      <trkpt lat="43.17677" lon="2.3757">
        <ele>153.7</ele>
        <time>2019-06-16T07:57:04.000Z</time>
      </trkpt>
      <trkpt lat="43.17678" lon="2.37567">
        <ele>153.8</ele>
        <time>2019-06-16T07:57:05.000Z</time>
      </trkpt>
      <trkpt lat="43.17679" lon="2.37564">
        <ele>153.8</ele>
        <time>2019-06-16T07:57:06.000Z</time>
      </trkpt>
      <trkpt lat="43.1768" lon="2.3756">
        <ele>153.8</ele>
        <time>2019-06-16T07:57:07.000Z</time>
      </trkpt>
      <trkpt lat="43.1768" lon="2.37557">
        <ele>153.8</ele>
        <time>2019-06-16T07:57:08.000Z</time>
      </trkpt>
      <trkpt lat="43.17681" lon="2.37554">
        <ele>153.8</ele>
        <time>2019-06-16T07:57:09.000Z</time>
      </trkpt>
      <trkpt lat="43.17681" lon="2.3755">
        <ele>153.8</ele>
        <time>2019-06-16T07:57:10.000Z</time>
      </trkpt>
      <trkpt lat="43.17682" lon="2.37547">
        <ele>153.8</ele>
        <time>2019-06-16T07:57:11.000Z</time>
      </trkpt>
      <trkpt lat="43.17682" lon="2.37543">
        <ele>153.8</ele>
        <time>2019-06-16T07:57:12.000Z</time>
      </trkpt>
      <trkpt lat="43.17683" lon="2.3754">
        <ele>153.8</ele>
        <time>2019-06-16T07:57:13.000Z</time>
      </trkpt>
      <trkpt lat="43.17683" lon="2.37537">
        <ele>153.9</ele>
        <time>2019-06-16T07:57:14.000Z</time>
      </trkpt>
      <trkpt lat="43.17684" lon="2.37534">
        <ele>153.9</ele>
        <time>2019-06-16T07:57:15.000Z</time>
      </trkpt>
      <trkpt lat="43.17685" lon="2.37531">
        <ele>153.9</ele>
        <time>2019-06-16T07:57:16.000Z</time>
      </trkpt>
      <trkpt lat="43.17685" lon="2.37528">
        <ele>153.8</ele>
        <time>2019-06-16T07:57:17.000Z</time>
      </trkpt>
      <trkpt lat="43.17686" lon="2.37525">
        <ele>153.8</ele>
        <time>2019-06-16T07:57:18.000Z</time>
      </trkpt>
      <trkpt lat="43.17687" lon="2.37522">
        <ele>153.8</ele>
        <time>2019-06-16T07:57:19.000Z</time>
      </trkpt>
      <trkpt lat="43.17689" lon="2.37519">
        <ele>153.8</ele>
        <time>2019-06-16T07:57:20.000Z</time>
      </trkpt>
      <trkpt lat="43.1769" lon="2.37516">
        <ele>153.8</ele>
        <time>2019-06-16T07:57:21.000Z</time>
      </trkpt>
      <trkpt lat="43.17691" lon="2.37514">
        <ele>153.7</ele>
        <time>2019-06-16T07:57:22.000Z</time>
      </trkpt>
      <trkpt lat="43.17692" lon="2.37511">
        <ele>153.7</ele>
        <time>2019-06-16T07:57:23.000Z</time>
      </trkpt>
      <trkpt lat="43.17693" lon="2.37508">
        <ele>153.7</ele>
        <time>2019-06-16T07:57:24.000Z</time>
      </trkpt>
      <trkpt lat="43.17693" lon="2.37505">
        <ele>153.7</ele>
        <time>2019-06-16T07:57:25.000Z</time>
      </trkpt>
      <trkpt lat="43.17694" lon="2.37503">
        <ele>153.7</ele>
        <time>2019-06-16T07:57:26.000Z</time>
      </trkpt>
      <trkpt lat="43.17695" lon="2.375">
        <ele>153.7</ele>
        <time>2019-06-16T07:57:27.000Z</time>
      </trkpt>
      <trkpt lat="43.17695" lon="2.37497">
        <ele>153.6</ele>
        <time>2019-06-16T07:57:28.000Z</time>
      </trkpt>
      <trkpt lat="43.17696" lon="2.37494">
        <ele>153.6</ele>
        <time>2019-06-16T07:57:29.000Z</time>
      </trkpt>
      <trkpt lat="43.17696" lon="2.3749">
        <ele>153.6</ele>
        <time>2019-06-16T07:57:30.000Z</time>
      </trkpt>
      <trkpt lat="43.17696" lon="2.37487">
        <ele>153.6</ele>
        <time>2019-06-16T07:57:31.000Z</time>
      </trkpt>
      <trkpt lat="43.17697" lon="2.37484">
        <ele>153.6</ele>
        <time>2019-06-16T07:57:32.000Z</time>
      </trkpt>
      <trkpt lat="43.17697" lon="2.37481">
        <ele>153.6</ele>
        <time>2019-06-16T07:57:33.000Z</time>
      </trkpt>
      <trkpt lat="43.17697" lon="2.37477">
        <ele>153.6</ele>
        <time>2019-06-16T07:57:34.000Z</time>
      </trkpt>
      <trkpt lat="43.17698" lon="2.37474">
        <ele>153.6</ele>
        <time>2019-06-16T07:57:35.000Z</time>
      </trkpt>
      <trkpt lat="43.17698" lon="2.3747">
        <ele>153.6</ele>
        <time>2019-06-16T07:57:36.000Z</time>
      </trkpt>
      <trkpt lat="43.17698" lon="2.37467">
        <ele>153.6</ele>
        <time>2019-06-16T07:57:37.000Z</time>
      </trkpt>
      <trkpt lat="43.17699" lon="2.37463">
        <ele>153.6</ele>
        <time>2019-06-16T07:57:38.000Z</time>
      </trkpt>
      <trkpt lat="43.17699" lon="2.3746">
        <ele>153.6</ele>
        <time>2019-06-16T07:57:39.000Z</time>
      </trkpt>
      <trkpt lat="43.17699" lon="2.37456">
        <ele>153.6</ele>
        <time>2019-06-16T07:57:40.000Z</time>
      </trkpt>
      <trkpt lat="43.17699" lon="2.37453">
        <ele>153.6</ele>
        <time>2019-06-16T07:57:41.000Z</time>
      </trkpt>
      <trkpt lat="43.17699" lon="2.37449">
        <ele>153.6</ele>
        <time>2019-06-16T07:57:42.000Z</time>
      </trkpt>
      <trkpt lat="43.17699" lon="2.37445">
        <ele>153.6</ele>
        <time>2019-06-16T07:57:43.000Z</time>
      </trkpt>
      <trkpt lat="43.177" lon="2.37442">
        <ele>153.6</ele>
        <time>2019-06-16T07:57:44.000Z</time>
      </trkpt>
      <trkpt lat="43.177" lon="2.37438">
        <ele>153.6</ele>
        <time>2019-06-16T07:57:45.000Z</time>
      </trkpt>
      <trkpt lat="43.177" lon="2.37434">
        <ele>153.6</ele>
        <time>2019-06-16T07:57:46.000Z</time>
      </trkpt>
      <trkpt lat="43.177" lon="2.3743">
        <ele>153.6</ele>
        <time>2019-06-16T07:57:47.000Z</time>
      </trkpt>
      <trkpt lat="43.177" lon="2.37427">
        <ele>153.6</ele>
        <time>2019-06-16T07:57:48.000Z</time>
      </trkpt>
      <trkpt lat="43.177" lon="2.37423">
        <ele>153.6</ele>
        <time>2019-06-16T07:57:49.000Z</time>
      </trkpt>
      <trkpt lat="43.177" lon="2.37419">
        <ele>153.6</ele>
        <time>2019-06-16T07:57:50.000Z</time>
      </trkpt>
      <trkpt lat="43.17699" lon="2.37416">
        <ele>153.7</ele>
        <time>2019-06-16T07:57:51.000Z</time>
      </trkpt>
      <trkpt lat="43.17699" lon="2.37412">
        <ele>153.7</ele>
        <time>2019-06-16T07:57:52.000Z</time>
      </trkpt>
      <trkpt lat="43.17699" lon="2.37408">
        <ele>153.7</ele>
        <time>2019-06-16T07:57:53.000Z</time>
      </trkpt>
      <trkpt lat="43.17699" lon="2.37405">
        <ele>153.8</ele>
        <time>2019-06-16T07:57:54.000Z</time>
      </trkpt>
      <trkpt lat="43.17699" lon="2.37401">
        <ele>153.8</ele>
        <time>2019-06-16T07:57:55.000Z</time>
      </trkpt>
      <trkpt lat="43.17699" lon="2.37398">
        <ele>153.8</ele>
        <time>2019-06-16T07:57:56.000Z</time>
      </trkpt>
      <trkpt lat="43.17699" lon="2.37394">
        <ele>153.9</ele>
        <time>2019-06-16T07:57:57.000Z</time>
      </trkpt>
      <trkpt lat="43.17699" lon="2.37391">
        <ele>153.9</ele>
        <time>2019-06-16T07:57:58.000Z</time>
      </trkpt>
      <trkpt lat="43.17699" lon="2.37387">
        <ele>153.9</ele>
        <time>2019-06-16T07:57:59.000Z</time>
      </trkpt>
      <trkpt lat="43.17699" lon="2.37384">
        <ele>154</ele>
        <time>2019-06-16T07:58:00.000Z</time>
      </trkpt>
      <trkpt lat="43.17698" lon="2.3738">
        <ele>154</ele>
        <time>2019-06-16T07:58:01.000Z</time>
      </trkpt>
      <trkpt lat="43.17698" lon="2.37377">
        <ele>154</ele>
        <time>2019-06-16T07:58:02.000Z</time>
      </trkpt>
      <trkpt lat="43.17698" lon="2.37373">
        <ele>154.1</ele>
        <time>2019-06-16T07:58:03.000Z</time>
      </trkpt>
      <trkpt lat="43.17698" lon="2.3737">
        <ele>154.1</ele>
        <time>2019-06-16T07:58:04.000Z</time>
      </trkpt>
      <trkpt lat="43.17698" lon="2.37367">
        <ele>154.2</ele>
        <time>2019-06-16T07:58:05.000Z</time>
      </trkpt>
      <trkpt lat="43.17697" lon="2.37363">
        <ele>154.2</ele>
        <time>2019-06-16T07:58:06.000Z</time>
      </trkpt>
      <trkpt lat="43.17697" lon="2.3736">
        <ele>154.3</ele>
        <time>2019-06-16T07:58:07.000Z</time>
      </trkpt>
      <trkpt lat="43.17697" lon="2.37356">
        <ele>154.3</ele>
        <time>2019-06-16T07:58:08.000Z</time>
      </trkpt>
      <trkpt lat="43.17696" lon="2.37353">
        <ele>154.4</ele>
        <time>2019-06-16T07:58:09.000Z</time>
      </trkpt>
      <trkpt lat="43.17696" lon="2.3735">
        <ele>154.4</ele>
        <time>2019-06-16T07:58:10.000Z</time>
      </trkpt>
      <trkpt lat="43.17696" lon="2.37346">
        <ele>154.5</ele>
        <time>2019-06-16T07:58:11.000Z</time>
      </trkpt>
      <trkpt lat="43.17695" lon="2.37343">
        <ele>154.5</ele>
        <time>2019-06-16T07:58:12.000Z</time>
      </trkpt>
      <trkpt lat="43.17695" lon="2.37339">
        <ele>154.6</ele>
        <time>2019-06-16T07:58:13.000Z</time>
      </trkpt>
      <trkpt lat="43.17694" lon="2.37336">
        <ele>154.7</ele>
        <time>2019-06-16T07:58:14.000Z</time>
      </trkpt>
      <trkpt lat="43.17694" lon="2.37333">
        <ele>154.7</ele>
        <time>2019-06-16T07:58:15.000Z</time>
      </trkpt>
      <trkpt lat="43.17693" lon="2.3733">
        <ele>154.8</ele>
        <time>2019-06-16T07:58:16.000Z</time>
      </trkpt>
      <trkpt lat="43.17693" lon="2.37327">
        <ele>154.8</ele>
        <time>2019-06-16T07:58:17.000Z</time>
      </trkpt>
      <trkpt lat="43.17693" lon="2.37324">
        <ele>154.9</ele>
        <time>2019-06-16T07:58:18.000Z</time>
      </trkpt>
      <trkpt lat="43.17692" lon="2.37321">
        <ele>154.9</ele>
        <time>2019-06-16T07:58:19.000Z</time>
      </trkpt>
      <trkpt lat="43.17692" lon="2.37319">
        <ele>155</ele>
        <time>2019-06-16T07:58:20.000Z</time>
      </trkpt>
      <trkpt lat="43.17692" lon="2.37317">
        <ele>155</ele>
        <time>2019-06-16T07:58:21.000Z</time>
      </trkpt>
      <trkpt lat="43.17691" lon="2.37315">
        <ele>155</ele>
        <time>2019-06-16T07:58:22.000Z</time>
      </trkpt>
      <trkpt lat="43.17691" lon="2.37312">
        <ele>155.1</ele>
        <time>2019-06-16T07:58:23.000Z</time>
      </trkpt>
      <trkpt lat="43.17691" lon="2.3731">
        <ele>155.1</ele>
        <time>2019-06-16T07:58:24.000Z</time>
      </trkpt>
      <trkpt lat="43.1769" lon="2.37308">
        <ele>155.2</ele>
        <time>2019-06-16T07:58:25.000Z</time>
      </trkpt>
      <trkpt lat="43.1769" lon="2.37306">
        <ele>155.2</ele>
        <time>2019-06-16T07:58:26.000Z</time>
      </trkpt>
      <trkpt lat="43.1769" lon="2.37304">
        <ele>155.2</ele>
        <time>2019-06-16T07:58:27.000Z</time>
      </trkpt>
      <trkpt lat="43.17689" lon="2.37302">
        <ele>155.3</ele>
        <time>2019-06-16T07:58:28.000Z</time>
      </trkpt>
      <trkpt lat="43.17689" lon="2.373">
        <ele>155.3</ele>
        <time>2019-06-16T07:58:29.000Z</time>
      </trkpt>
      <trkpt lat="43.17689" lon="2.37297">
        <ele>155.3</ele>
        <time>2019-06-16T07:58:30.000Z</time>
      </trkpt>
      <trkpt lat="43.17689" lon="2.37294">
        <ele>155.4</ele>
        <time>2019-06-16T07:58:31.000Z</time>
      </trkpt>
      <trkpt lat="43.17689" lon="2.37291">
        <ele>155.4</ele>
        <time>2019-06-16T07:58:32.000Z</time>
      </trkpt>
      <trkpt lat="43.17689" lon="2.37288">
        <ele>155.3</ele>
        <time>2019-06-16T07:58:33.000Z</time>
      </trkpt>
      <trkpt lat="43.1769" lon="2.37284">
        <ele>155.3</ele>
        <time>2019-06-16T07:58:34.000Z</time>
      </trkpt>
      <trkpt lat="43.1769" lon="2.37281">
        <ele>155.3</ele>
        <time>2019-06-16T07:58:35.000Z</time>
      </trkpt>
      <trkpt lat="43.17691" lon="2.37278">
        <ele>155.2</ele>
        <time>2019-06-16T07:58:36.000Z</time>
      </trkpt>
      <trkpt lat="43.17692" lon="2.37275">
        <ele>155.2</ele>
        <time>2019-06-16T07:58:37.000Z</time>
      </trkpt>
      <trkpt lat="43.17693" lon="2.37272">
        <ele>155.1</ele>
        <time>2019-06-16T07:58:38.000Z</time>
      </trkpt>
      <trkpt lat="43.17694" lon="2.37269">
        <ele>155</ele>
        <time>2019-06-16T07:58:39.000Z</time>
      </trkpt>
      <trkpt lat="43.17694" lon="2.37266">
        <ele>154.9</ele>
        <time>2019-06-16T07:58:40.000Z</time>
      </trkpt>
      <trkpt lat="43.17695" lon="2.37263">
        <ele>154.8</ele>
        <time>2019-06-16T07:58:41.000Z</time>
      </trkpt>
      <trkpt lat="43.17696" lon="2.37261">
        <ele>154.8</ele>
        <time>2019-06-16T07:58:42.000Z</time>
      </trkpt>
      <trkpt lat="43.17697" lon="2.37258">
        <ele>154.7</ele>
        <time>2019-06-16T07:58:43.000Z</time>
      </trkpt>
      <trkpt lat="43.17698" lon="2.37255">
        <ele>154.6</ele>
        <time>2019-06-16T07:58:44.000Z</time>
      </trkpt>
      <trkpt lat="43.17699" lon="2.37252">
        <ele>154.5</ele>
        <time>2019-06-16T07:58:45.000Z</time>
      </trkpt>
      <trkpt lat="43.17699" lon="2.37248">
        <ele>154.5</ele>
        <time>2019-06-16T07:58:46.000Z</time>
      </trkpt>
      <trkpt lat="43.177" lon="2.37245">
        <ele>154.4</ele>
        <time>2019-06-16T07:58:47.000Z</time>
      </trkpt>
      <trkpt lat="43.17701" lon="2.37242">
        <ele>154.4</ele>
        <time>2019-06-16T07:58:48.000Z</time>
      </trkpt>
      <trkpt lat="43.17701" lon="2.37238">
        <ele>154.4</ele>
        <time>2019-06-16T07:58:49.000Z</time>
      </trkpt>
      <trkpt lat="43.17702" lon="2.37234">
        <ele>154.3</ele>
        <time>2019-06-16T07:58:50.000Z</time>
      </trkpt>
      <trkpt lat="43.17702" lon="2.37231">
        <ele>154.3</ele>
        <time>2019-06-16T07:58:51.000Z</time>
      </trkpt>
      <trkpt lat="43.17702" lon="2.37227">
        <ele>154.3</ele>
        <time>2019-06-16T07:58:52.000Z</time>
      </trkpt>
      <trkpt lat="43.17703" lon="2.37223">
        <ele>154.3</ele>
        <time>2019-06-16T07:58:53.000Z</time>
      </trkpt>
      <trkpt lat="43.17703" lon="2.37219">
        <ele>154.3</ele>
        <time>2019-06-16T07:58:54.000Z</time>
      </trkpt>
      <trkpt lat="43.17703" lon="2.37215">
        <ele>154.3</ele>
        <time>2019-06-16T07:58:55.000Z</time>
      </trkpt>
      <trkpt lat="43.17703" lon="2.37212">
        <ele>154.3</ele>
        <time>2019-06-16T07:58:56.000Z</time>
      </trkpt>
      <trkpt lat="43.17703" lon="2.37208">
        <ele>154.4</ele>
        <time>2019-06-16T07:58:57.000Z</time>
      </trkpt>
      <trkpt lat="43.17703" lon="2.37206">
        <ele>154.4</ele>
        <time>2019-06-16T07:58:58.000Z</time>
      </trkpt>
      <trkpt lat="43.17703" lon="2.37204">
        <ele>154.4</ele>
        <time>2019-06-16T07:58:59.000Z</time>
      </trkpt>
      <trkpt lat="43.17703" lon="2.37202">
        <ele>154.4</ele>
        <time>2019-06-16T07:59:00.000Z</time>
      </trkpt>
      <trkpt lat="43.17703" lon="2.37201">
        <ele>154.5</ele>
        <time>2019-06-16T07:59:01.000Z</time>
      </trkpt>
      <trkpt lat="43.17703" lon="2.372">
        <ele>154.5</ele>
        <time>2019-06-16T07:59:02.000Z</time>
      </trkpt>
      <trkpt lat="43.17702" lon="2.37199">
        <ele>154.5</ele>
        <time>2019-06-16T07:59:03.000Z</time>
      </trkpt>
      <trkpt lat="43.17702" lon="2.37199">
        <ele>154.5</ele>
        <time>2019-06-16T07:59:04.000Z</time>
      </trkpt>
      <trkpt lat="43.17702" lon="2.37199">
        <ele>154.5</ele>
        <time>2019-06-16T07:59:05.000Z</time>
      </trkpt>
      <trkpt lat="43.17702" lon="2.37198">
        <ele>154.6</ele>
        <time>2019-06-16T07:59:06.000Z</time>
      </trkpt>
      <trkpt lat="43.17702" lon="2.37198">
        <ele>154.6</ele>
        <time>2019-06-16T07:59:07.000Z</time>
      </trkpt>
      <trkpt lat="43.17702" lon="2.37198">
        <ele>154.6</ele>
        <time>2019-06-16T07:59:08.000Z</time>
      </trkpt>
      <trkpt lat="43.17702" lon="2.37198">
        <ele>154.6</ele>
        <time>2019-06-16T07:59:09.000Z</time>
      </trkpt>
      <trkpt lat="43.17702" lon="2.37198">
        <ele>154.6</ele>
        <time>2019-06-16T07:59:10.000Z</time>
      </trkpt>
      <trkpt lat="43.17702" lon="2.37198">
        <ele>154.6</ele>
        <time>2019-06-16T07:59:11.000Z</time>
      </trkpt>
      <trkpt lat="43.17702" lon="2.37198">
        <ele>154.6</ele>
        <time>2019-06-16T07:59:12.000Z</time>
      </trkpt>
      <trkpt lat="43.17702" lon="2.37198">
        <ele>154.6</ele>
        <time>2019-06-16T07:59:13.000Z</time>
      </trkpt>
      <trkpt lat="43.17702" lon="2.37198">
        <ele>154.6</ele>
        <time>2019-06-16T07:59:14.000Z</time>
      </trkpt>
      <trkpt lat="43.17702" lon="2.37198">
        <ele>154.6</ele>
        <time>2019-06-16T07:59:15.000Z</time>
      </trkpt>
      <trkpt lat="43.17702" lon="2.37198">
        <ele>154.6</ele>
        <time>2019-06-16T07:59:16.000Z</time>
      </trkpt>
      <trkpt lat="43.17702" lon="2.37198">
        <ele>154.6</ele>
        <time>2019-06-16T07:59:17.000Z</time>
      </trkpt>
      <trkpt lat="43.17702" lon="2.37198">
        <ele>154.6</ele>
        <time>2019-06-16T07:59:18.000Z</time>
      </trkpt>
      <trkpt lat="43.17702" lon="2.37198">
        <ele>154.6</ele>
        <time>2019-06-16T07:59:19.000Z</time>
      </trkpt>
      <trkpt lat="43.17702" lon="2.37198">
        <ele>154.6</ele>
        <time>2019-06-16T07:59:20.000Z</time>
      </trkpt>
      <trkpt lat="43.17702" lon="2.37198">
        <ele>154.6</ele>
        <time>2019-06-16T07:59:21.000Z</time>
      </trkpt>
      <trkpt lat="43.17702" lon="2.37198">
        <ele>154.6</ele>
        <time>2019-06-16T07:59:22.000Z</time>
      </trkpt>
      <trkpt lat="43.17702" lon="2.37198">
        <ele>154.6</ele>
        <time>2019-06-16T07:59:23.000Z</time>
      </trkpt>
      <trkpt lat="43.17702" lon="2.37198">
        <ele>154.6</ele>
        <time>2019-06-16T07:59:24.000Z</time>
      </trkpt>
      <trkpt lat="43.17702" lon="2.37198">
        <ele>154.6</ele>
        <time>2019-06-16T07:59:25.000Z</time>
      </trkpt>
      <trkpt lat="43.17702" lon="2.37198">
        <ele>154.6</ele>
        <time>2019-06-16T07:59:26.000Z</time>
      </trkpt>
      <trkpt lat="43.17702" lon="2.37198">
        <ele>154.6</ele>
        <time>2019-06-16T07:59:27.000Z</time>
      </trkpt>
      <trkpt lat="43.17702" lon="2.37198">
        <ele>154.6</ele>
        <time>2019-06-16T07:59:28.000Z</time>
      </trkpt>
      <trkpt lat="43.17702" lon="2.37198">
        <ele>154.6</ele>
        <time>2019-06-16T07:59:29.000Z</time>
      </trkpt>
      <trkpt lat="43.17702" lon="2.37198">
        <ele>154.6</ele>
        <time>2019-06-16T07:59:30.000Z</time>
      </trkpt>
      <trkpt lat="43.17702" lon="2.37198">
        <ele>154.6</ele>
        <time>2019-06-16T07:59:31.000Z</time>
      </trkpt>
      <trkpt lat="43.17702" lon="2.37198">
        <ele>154.6</ele>
        <time>2019-06-16T07:59:32.000Z</time>
      </trkpt>
      <trkpt lat="43.17702" lon="2.37198">
        <ele>154.6</ele>
        <time>2019-06-16T07:59:33.000Z</time>
      </trkpt>
      <trkpt lat="43.17702" lon="2.37198">
        <ele>154.6</ele>
        <time>2019-06-16T07:59:34.000Z</time>
      </trkpt>
      <trkpt lat="43.17702" lon="2.37198">
        <ele>154.6</ele>
        <time>2019-06-16T07:59:35.000Z</time>
      </trkpt>
      <trkpt lat="43.17702" lon="2.37198">
        <ele>154.6</ele>
        <time>2019-06-16T07:59:36.000Z</time>
      </trkpt>
      <trkpt lat="43.17702" lon="2.37198">
        <ele>154.6</ele>
        <time>2019-06-16T07:59:37.000Z</time>
      </trkpt>
      <trkpt lat="43.17702" lon="2.37198">
        <ele>154.6</ele>
        <time>2019-06-16T07:59:38.000Z</time>
      </trkpt>
      <trkpt lat="43.17702" lon="2.37198">
        <ele>154.6</ele>
        <time>2019-06-16T07:59:39.000Z</time>
      </trkpt>
      <trkpt lat="43.17702" lon="2.37198">
        <ele>154.6</ele>
        <time>2019-06-16T07:59:40.000Z</time>
      </trkpt>
      <trkpt lat="43.17702" lon="2.37198">
        <ele>154.6</ele>
        <time>2019-06-16T07:59:41.000Z</time>
      </trkpt>
      <trkpt lat="43.17702" lon="2.37198">
        <ele>154.6</ele>
        <time>2019-06-16T07:59:42.000Z</time>
      </trkpt>
      <trkpt lat="43.17702" lon="2.37198">
        <ele>154.6</ele>
        <time>2019-06-16T07:59:43.000Z</time>
      </trkpt>
      <trkpt lat="43.17702" lon="2.37198">
        <ele>154.6</ele>
        <time>2019-06-16T07:59:44.000Z</time>
      </trkpt>
      <trkpt lat="43.17702" lon="2.37198">
        <ele>154.6</ele>
        <time>2019-06-16T07:59:45.000Z</time>
      </trkpt>
      <trkpt lat="43.17702" lon="2.37198">
        <ele>154.6</ele>
        <time>2019-06-16T07:59:46.000Z</time>
      </trkpt>
      <trkpt lat="43.17702" lon="2.37198">
        <ele>154.6</ele>
        <time>2019-06-16T07:59:47.000Z</time>
      </trkpt>
      <trkpt lat="43.17701" lon="2.37198">
        <ele>154.6</ele>
        <time>2019-06-16T07:59:48.000Z</time>
      </trkpt>
      <trkpt lat="43.17701" lon="2.37199">
        <ele>154.7</ele>
        <time>2019-06-16T07:59:49.000Z</time>
      </trkpt>
      <trkpt lat="43.177" lon="2.372">
        <ele>154.7</ele>
        <time>2019-06-16T07:59:50.000Z</time>
      </trkpt>
      <trkpt lat="43.177" lon="2.37201">
        <ele>154.8</ele>
        <time>2019-06-16T07:59:51.000Z</time>
      </trkpt>
      <trkpt lat="43.17699" lon="2.37204">
        <ele>154.8</ele>
        <time>2019-06-16T07:59:52.000Z</time>
      </trkpt>
      <trkpt lat="43.17699" lon="2.37208">
        <ele>154.9</ele>
        <time>2019-06-16T07:59:53.000Z</time>
      </trkpt>
      <trkpt lat="43.17698" lon="2.37212">
        <ele>154.9</ele>
        <time>2019-06-16T07:59:54.000Z</time>
      </trkpt>
      <trkpt lat="43.17698" lon="2.37216">
        <ele>154.9</ele>
        <time>2019-06-16T07:59:55.000Z</time>
      </trkpt>
      <trkpt lat="43.17697" lon="2.37219">
        <ele>154.9</ele>
        <time>2019-06-16T07:59:56.000Z</time>
      </trkpt>
      <trkpt lat="43.17697" lon="2.37223">
        <ele>154.9</ele>
        <time>2019-06-16T07:59:57.000Z</time>
      </trkpt>
      <trkpt lat="43.17696" lon="2.37227">
        <ele>155</ele>
        <time>2019-06-16T07:59:58.000Z</time>
      </trkpt>
      <trkpt lat="43.17696" lon="2.3723">
        <ele>155</ele>
        <time>2019-06-16T07:59:59.000Z</time>
      </trkpt>
      <trkpt lat="43.17695" lon="2.37234">
        <ele>155</ele>
        <time>2019-06-16T08:00:00.000Z</time>
      </trkpt>
      <trkpt lat="43.17695" lon="2.37236">
        <ele>155.1</ele>
        <time>2019-06-16T08:00:01.000Z</time>
      </trkpt>
      <trkpt lat="43.17694" lon="2.37239">
        <ele>155.1</ele>
        <time>2019-06-16T08:00:02.000Z</time>
      </trkpt>
      <trkpt lat="43.17694" lon="2.37241">
        <ele>155.2</ele>
        <time>2019-06-16T08:00:03.000Z</time>
      </trkpt>
      <trkpt lat="43.17693" lon="2.37242">
        <ele>155.2</ele>
        <time>2019-06-16T08:00:04.000Z</time>
      </trkpt>
      <trkpt lat="43.17693" lon="2.37242">
        <ele>155.2</ele>
        <time>2019-06-16T08:00:05.000Z</time>
      </trkpt>
      <trkpt lat="43.17694" lon="2.37241">
        <ele>155.2</ele>
        <time>2019-06-16T08:00:06.000Z</time>
      </trkpt>
      <trkpt lat="43.17694" lon="2.3724">
        <ele>155.1</ele>
        <time>2019-06-16T08:00:07.000Z</time>
      </trkpt>
      <trkpt lat="43.17695" lon="2.37238">
        <ele>155</ele>
        <time>2019-06-16T08:00:08.000Z</time>
      </trkpt>
      <trkpt lat="43.17696" lon="2.37236">
        <ele>155</ele>
        <time>2019-06-16T08:00:09.000Z</time>
      </trkpt>
      <trkpt lat="43.17696" lon="2.37234">
        <ele>154.9</ele>
        <time>2019-06-16T08:00:10.000Z</time>
      </trkpt>
      <trkpt lat="43.17697" lon="2.37232">
        <ele>154.9</ele>
        <time>2019-06-16T08:00:11.000Z</time>
      </trkpt>
      <trkpt lat="43.17698" lon="2.37231">
        <ele>154.8</ele>
        <time>2019-06-16T08:00:12.000Z</time>
      </trkpt>
      <trkpt lat="43.17698" lon="2.37229">
        <ele>154.7</ele>
        <time>2019-06-16T08:00:13.000Z</time>
      </trkpt>
      <trkpt lat="43.17699" lon="2.37227">
        <ele>154.7</ele>
        <time>2019-06-16T08:00:14.000Z</time>
      </trkpt>
      <trkpt lat="43.177" lon="2.37225">
        <ele>154.6</ele>
        <time>2019-06-16T08:00:15.000Z</time>
      </trkpt>
      <trkpt lat="43.177" lon="2.37222">
        <ele>154.6</ele>
        <time>2019-06-16T08:00:16.000Z</time>
      </trkpt>
      <trkpt lat="43.17701" lon="2.3722">
        <ele>154.5</ele>
        <time>2019-06-16T08:00:17.000Z</time>
      </trkpt>
      <trkpt lat="43.17702" lon="2.37217">
        <ele>154.5</ele>
        <time>2019-06-16T08:00:18.000Z</time>
      </trkpt>
      <trkpt lat="43.17702" lon="2.37214">
        <ele>154.4</ele>
        <time>2019-06-16T08:00:19.000Z</time>
      </trkpt>
      <trkpt lat="43.17703" lon="2.37212">
        <ele>154.3</ele>
        <time>2019-06-16T08:00:20.000Z</time>
      </trkpt>
      <trkpt lat="43.17704" lon="2.37209">
        <ele>154.3</ele>
        <time>2019-06-16T08:00:21.000Z</time>
      </trkpt>
      <trkpt lat="43.17705" lon="2.37206">
        <ele>154.2</ele>
        <time>2019-06-16T08:00:22.000Z</time>
      </trkpt>
      <trkpt lat="43.17706" lon="2.37204">
        <ele>154.1</ele>
        <time>2019-06-16T08:00:23.000Z</time>
      </trkpt>
      <trkpt lat="43.17707" lon="2.37202">
        <ele>154</ele>
        <time>2019-06-16T08:00:24.000Z</time>
      </trkpt>
      <trkpt lat="43.17708" lon="2.372">
        <ele>153.9</ele>
        <time>2019-06-16T08:00:25.000Z</time>
      </trkpt>
      <trkpt lat="43.17709" lon="2.37199">
        <ele>153.8</ele>
        <time>2019-06-16T08:00:26.000Z</time>
      </trkpt>
      <trkpt lat="43.1771" lon="2.37198">
        <ele>153.7</ele>
        <time>2019-06-16T08:00:27.000Z</time>
      </trkpt>
      <trkpt lat="43.17711" lon="2.37197">
        <ele>153.5</ele>
        <time>2019-06-16T08:00:28.000Z</time>
      </trkpt>
      <trkpt lat="43.17712" lon="2.37196">
        <ele>153.4</ele>
        <time>2019-06-16T08:00:29.000Z</time>
      </trkpt>
      <trkpt lat="43.17713" lon="2.37196">
        <ele>153.3</ele>
        <time>2019-06-16T08:00:30.000Z</time>
      </trkpt>
      <trkpt lat="43.17715" lon="2.37195">
        <ele>153.1</ele>
        <time>2019-06-16T08:00:31.000Z</time>
      </trkpt>
      <trkpt lat="43.17716" lon="2.37195">
        <ele>152.9</ele>
        <time>2019-06-16T08:00:32.000Z</time>
      </trkpt>
      <trkpt lat="43.17718" lon="2.37195">
        <ele>152.7</ele>
        <time>2019-06-16T08:00:33.000Z</time>
      </trkpt>
      <trkpt lat="43.17719" lon="2.37195">
        <ele>152.5</ele>
        <time>2019-06-16T08:00:34.000Z</time>
      </trkpt>
      <trkpt lat="43.17721" lon="2.37194">
        <ele>152.3</ele>
        <time>2019-06-16T08:00:35.000Z</time>
      </trkpt>
      <trkpt lat="43.17723" lon="2.37194">
        <ele>152.1</ele>
        <time>2019-06-16T08:00:36.000Z</time>
      </trkpt>
      <trkpt lat="43.17725" lon="2.37194">
        <ele>151.9</ele>
        <time>2019-06-16T08:00:37.000Z</time>
      </trkpt>
      <trkpt lat="43.17727" lon="2.37194">
        <ele>151.7</ele>
        <time>2019-06-16T08:00:38.000Z</time>
      </trkpt>
      <trkpt lat="43.17729" lon="2.37194">
        <ele>151.4</ele>
        <time>2019-06-16T08:00:39.000Z</time>
      </trkpt>
      <trkpt lat="43.17731" lon="2.37193">
        <ele>151.2</ele>
        <time>2019-06-16T08:00:40.000Z</time>
      </trkpt>
      <trkpt lat="43.17734" lon="2.37193">
        <ele>150.9</ele>
        <time>2019-06-16T08:00:41.000Z</time>
      </trkpt>
      <trkpt lat="43.17736" lon="2.37193">
        <ele>150.7</ele>
        <time>2019-06-16T08:00:42.000Z</time>
      </trkpt>
      <trkpt lat="43.17738" lon="2.37193">
        <ele>150.4</ele>
        <time>2019-06-16T08:00:43.000Z</time>
      </trkpt>
      <trkpt lat="43.17741" lon="2.37193">
        <ele>150.1</ele>
        <time>2019-06-16T08:00:44.000Z</time>
      </trkpt>
      <trkpt lat="43.17743" lon="2.37192">
        <ele>149.8</ele>
        <time>2019-06-16T08:00:45.000Z</time>
      </trkpt>
      <trkpt lat="43.17746" lon="2.37192">
        <ele>149.5</ele>
        <time>2019-06-16T08:00:46.000Z</time>
      </trkpt>
      <trkpt lat="43.17748" lon="2.37192">
        <ele>149.2</ele>
        <time>2019-06-16T08:00:47.000Z</time>
      </trkpt>
      <trkpt lat="43.17751" lon="2.37191">
        <ele>149</ele>
        <time>2019-06-16T08:00:48.000Z</time>
      </trkpt>
      <trkpt lat="43.17754" lon="2.37191">
        <ele>148.9</ele>
        <time>2019-06-16T08:00:49.000Z</time>
      </trkpt>
      <trkpt lat="43.17757" lon="2.3719">
        <ele>148.8</ele>
        <time>2019-06-16T08:00:50.000Z</time>
      </trkpt>
      <trkpt lat="43.1776" lon="2.3719">
        <ele>148.7</ele>
        <time>2019-06-16T08:00:51.000Z</time>
      </trkpt>
      <trkpt lat="43.17763" lon="2.3719">
        <ele>148.6</ele>
        <time>2019-06-16T08:00:52.000Z</time>
      </trkpt>
      <trkpt lat="43.17766" lon="2.37191">
        <ele>148.5</ele>
        <time>2019-06-16T08:00:53.000Z</time>
      </trkpt>
      <trkpt lat="43.17768" lon="2.37191">
        <ele>148.4</ele>
        <time>2019-06-16T08:00:54.000Z</time>
      </trkpt>
      <trkpt lat="43.1777" lon="2.37192">
        <ele>148.4</ele>
        <time>2019-06-16T08:00:55.000Z</time>
      </trkpt>
      <trkpt lat="43.17772" lon="2.37193">
        <ele>148.3</ele>
        <time>2019-06-16T08:00:56.000Z</time>
      </trkpt>
      <trkpt lat="43.17774" lon="2.37194">
        <ele>148.2</ele>
        <time>2019-06-16T08:00:57.000Z</time>
      </trkpt>
      <trkpt lat="43.17776" lon="2.37196">
        <ele>148.2</ele>
        <time>2019-06-16T08:00:58.000Z</time>
      </trkpt>
      <trkpt lat="43.17778" lon="2.37197">
        <ele>148.1</ele>
        <time>2019-06-16T08:00:59.000Z</time>
      </trkpt>
      <trkpt lat="43.1778" lon="2.37198">
        <ele>148.1</ele>
        <time>2019-06-16T08:01:00.000Z</time>
      </trkpt>
      <trkpt lat="43.17782" lon="2.37199">
        <ele>148</ele>
        <time>2019-06-16T08:01:01.000Z</time>
      </trkpt>
      <trkpt lat="43.17784" lon="2.372">
        <ele>147.9</ele>
        <time>2019-06-16T08:01:02.000Z</time>
      </trkpt>
      <trkpt lat="43.17786" lon="2.37201">
        <ele>147.9</ele>
        <time>2019-06-16T08:01:03.000Z</time>
      </trkpt>
      <trkpt lat="43.17788" lon="2.37202">
        <ele>147.8</ele>
        <time>2019-06-16T08:01:04.000Z</time>
      </trkpt>
      <trkpt lat="43.1779" lon="2.37202">
        <ele>147.8</ele>
        <time>2019-06-16T08:01:05.000Z</time>
      </trkpt>
      <trkpt lat="43.17793" lon="2.37203">
        <ele>147.7</ele>
        <time>2019-06-16T08:01:06.000Z</time>
      </trkpt>
      <trkpt lat="43.17795" lon="2.37203">
        <ele>147.6</ele>
        <time>2019-06-16T08:01:07.000Z</time>
      </trkpt>
      <trkpt lat="43.17798" lon="2.37203">
        <ele>147.5</ele>
        <time>2019-06-16T08:01:08.000Z</time>
      </trkpt>
      <trkpt lat="43.178" lon="2.37203">
        <ele>147.5</ele>
        <time>2019-06-16T08:01:09.000Z</time>
      </trkpt>
      <trkpt lat="43.17803" lon="2.37204">
        <ele>147.4</ele>
        <time>2019-06-16T08:01:10.000Z</time>
      </trkpt>
      <trkpt lat="43.17806" lon="2.37204">
        <ele>147.3</ele>
        <time>2019-06-16T08:01:11.000Z</time>
      </trkpt>
      <trkpt lat="43.17808" lon="2.37204">
        <ele>147.2</ele>
        <time>2019-06-16T08:01:12.000Z</time>
      </trkpt>
      <trkpt lat="43.17811" lon="2.37205">
        <ele>147.2</ele>
        <time>2019-06-16T08:01:13.000Z</time>
      </trkpt>
      <trkpt lat="43.17813" lon="2.37206">
        <ele>147.1</ele>
        <time>2019-06-16T08:01:14.000Z</time>
      </trkpt>
      <trkpt lat="43.17816" lon="2.37207">
        <ele>147</ele>
        <time>2019-06-16T08:01:15.000Z</time>
      </trkpt>
      <trkpt lat="43.17818" lon="2.37208">
        <ele>147</ele>
        <time>2019-06-16T08:01:16.000Z</time>
      </trkpt>
      <trkpt lat="43.17821" lon="2.3721">
        <ele>146.9</ele>
        <time>2019-06-16T08:01:17.000Z</time>
      </trkpt>
      <trkpt lat="43.17823" lon="2.37211">
        <ele>146.8</ele>
        <time>2019-06-16T08:01:18.000Z</time>
      </trkpt>
      <trkpt lat="43.17826" lon="2.37212">
        <ele>146.8</ele>
        <time>2019-06-16T08:01:19.000Z</time>
      </trkpt>
      <trkpt lat="43.17828" lon="2.37213">
        <ele>146.7</ele>
        <time>2019-06-16T08:01:20.000Z</time>
      </trkpt>
      <trkpt lat="43.1783" lon="2.37214">
        <ele>146.7</ele>
        <time>2019-06-16T08:01:21.000Z</time>
      </trkpt>
      <trkpt lat="43.17833" lon="2.37215">
        <ele>146.6</ele>
        <time>2019-06-16T08:01:22.000Z</time>
      </trkpt>
      <trkpt lat="43.17835" lon="2.37216">
        <ele>146.7</ele>
        <time>2019-06-16T08:01:23.000Z</time>
      </trkpt>
      <trkpt lat="43.17837" lon="2.37217">
        <ele>146.8</ele>
        <time>2019-06-16T08:01:24.000Z</time>
      </trkpt>
      <trkpt lat="43.1784" lon="2.37217">
        <ele>147</ele>
        <time>2019-06-16T08:01:25.000Z</time>
      </trkpt>
      <trkpt lat="43.17842" lon="2.37218">
        <ele>147.1</ele>
        <time>2019-06-16T08:01:26.000Z</time>
      </trkpt>
      <trkpt lat="43.17844" lon="2.37219">
        <ele>147.2</ele>
        <time>2019-06-16T08:01:27.000Z</time>
      </trkpt>
      <trkpt lat="43.17847" lon="2.37219">
        <ele>147.4</ele>
        <time>2019-06-16T08:01:28.000Z</time>
      </trkpt>
      <trkpt lat="43.17849" lon="2.3722">
        <ele>147.5</ele>
        <time>2019-06-16T08:01:29.000Z</time>
      </trkpt>
      <trkpt lat="43.17851" lon="2.3722">
        <ele>147.6</ele>
        <time>2019-06-16T08:01:30.000Z</time>
      </trkpt>
      <trkpt lat="43.17854" lon="2.37221">
        <ele>147.8</ele>
        <time>2019-06-16T08:01:31.000Z</time>
      </trkpt>
      <trkpt lat="43.17856" lon="2.37222">
        <ele>147.9</ele>
        <time>2019-06-16T08:01:32.000Z</time>
      </trkpt>
      <trkpt lat="43.17858" lon="2.37222">
        <ele>148.1</ele>
        <time>2019-06-16T08:01:33.000Z</time>
      </trkpt>
      <trkpt lat="43.17861" lon="2.37223">
        <ele>148.2</ele>
        <time>2019-06-16T08:01:34.000Z</time>
      </trkpt>
      <trkpt lat="43.17863" lon="2.37223">
        <ele>148.3</ele>
        <time>2019-06-16T08:01:35.000Z</time>
      </trkpt>
      <trkpt lat="43.17865" lon="2.37224">
        <ele>148.5</ele>
        <time>2019-06-16T08:01:36.000Z</time>
      </trkpt>
      <trkpt lat="43.17868" lon="2.37225">
        <ele>148.6</ele>
        <time>2019-06-16T08:01:37.000Z</time>
      </trkpt>
      <trkpt lat="43.1787" lon="2.37226">
        <ele>148.8</ele>
        <time>2019-06-16T08:01:38.000Z</time>
      </trkpt>
      <trkpt lat="43.17873" lon="2.37226">
        <ele>148.9</ele>
        <time>2019-06-16T08:01:39.000Z</time>
      </trkpt>
      <trkpt lat="43.17875" lon="2.37227">
        <ele>149.1</ele>
        <time>2019-06-16T08:01:40.000Z</time>
      </trkpt>
      <trkpt lat="43.17878" lon="2.37228">
        <ele>149.2</ele>
        <time>2019-06-16T08:01:41.000Z</time>
      </trkpt>
      <trkpt lat="43.1788" lon="2.37229">
        <ele>149.4</ele>
        <time>2019-06-16T08:01:42.000Z</time>
      </trkpt>
      <trkpt lat="43.17883" lon="2.37229">
        <ele>149.6</ele>
        <time>2019-06-16T08:01:43.000Z</time>
      </trkpt>
      <trkpt lat="43.17885" lon="2.3723">
        <ele>149.7</ele>
        <time>2019-06-16T08:01:44.000Z</time>
      </trkpt>
      <trkpt lat="43.17887" lon="2.37231">
        <ele>149.9</ele>
        <time>2019-06-16T08:01:45.000Z</time>
      </trkpt>
      <trkpt lat="43.1789" lon="2.37232">
        <ele>150</ele>
        <time>2019-06-16T08:01:46.000Z</time>
      </trkpt>
      <trkpt lat="43.17892" lon="2.37233">
        <ele>150.2</ele>
        <time>2019-06-16T08:01:47.000Z</time>
      </trkpt>
      <trkpt lat="43.17895" lon="2.37233">
        <ele>150.3</ele>
        <time>2019-06-16T08:01:48.000Z</time>
      </trkpt>
      <trkpt lat="43.17897" lon="2.37234">
        <ele>150.5</ele>
        <time>2019-06-16T08:01:49.000Z</time>
      </trkpt>
      <trkpt lat="43.17899" lon="2.37235">
        <ele>150.6</ele>
        <time>2019-06-16T08:01:50.000Z</time>
      </trkpt>
      <trkpt lat="43.17901" lon="2.37235">
        <ele>150.8</ele>
        <time>2019-06-16T08:01:51.000Z</time>
      </trkpt>
      <trkpt lat="43.17904" lon="2.37236">
        <ele>150.9</ele>
        <time>2019-06-16T08:01:52.000Z</time>
      </trkpt>
      <trkpt lat="43.17906" lon="2.37237">
        <ele>151</ele>
        <time>2019-06-16T08:01:53.000Z</time>
      </trkpt>
      <trkpt lat="43.17908" lon="2.37237">
        <ele>151.2</ele>
        <time>2019-06-16T08:01:54.000Z</time>
      </trkpt>
      <trkpt lat="43.1791" lon="2.37238">
        <ele>151.3</ele>
        <time>2019-06-16T08:01:55.000Z</time>
      </trkpt>
      <trkpt lat="43.17913" lon="2.37239">
        <ele>151.5</ele>
        <time>2019-06-16T08:01:56.000Z</time>
      </trkpt>
      <trkpt lat="43.17915" lon="2.37239">
        <ele>151.6</ele>
        <time>2019-06-16T08:01:57.000Z</time>
      </trkpt>
      <trkpt lat="43.17917" lon="2.3724">
        <ele>151.7</ele>
        <time>2019-06-16T08:01:58.000Z</time>
      </trkpt>
      <trkpt lat="43.17919" lon="2.37241">
        <ele>151.7</ele>
        <time>2019-06-16T08:01:59.000Z</time>
      </trkpt>
      <trkpt lat="43.17922" lon="2.37241">
        <ele>151.6</ele>
        <time>2019-06-16T08:02:00.000Z</time>
      </trkpt>
      <trkpt lat="43.17924" lon="2.37242">
        <ele>151.6</ele>
        <time>2019-06-16T08:02:01.000Z</time>
      </trkpt>
      <trkpt lat="43.17926" lon="2.37243">
        <ele>151.5</ele>
        <time>2019-06-16T08:02:02.000Z</time>
      </trkpt>
      <trkpt lat="43.17929" lon="2.37244">
        <ele>151.5</ele>
        <time>2019-06-16T08:02:03.000Z</time>
      </trkpt>
      <trkpt lat="43.17931" lon="2.37245">
        <ele>151.4</ele>
        <time>2019-06-16T08:02:04.000Z</time>
      </trkpt>
      <trkpt lat="43.17933" lon="2.37245">
        <ele>151.4</ele>
        <time>2019-06-16T08:02:05.000Z</time>
      </trkpt>
      <trkpt lat="43.17935" lon="2.37246">
        <ele>151.3</ele>
        <time>2019-06-16T08:02:06.000Z</time>
      </trkpt>
      <trkpt lat="43.17936" lon="2.37247">
        <ele>151.3</ele>
        <time>2019-06-16T08:02:07.000Z</time>
      </trkpt>
      <trkpt lat="43.17938" lon="2.37247">
        <ele>151.2</ele>
        <time>2019-06-16T08:02:08.000Z</time>
      </trkpt>
      <trkpt lat="43.17939" lon="2.37248">
        <ele>151.2</ele>
        <time>2019-06-16T08:02:09.000Z</time>
      </trkpt>
      <trkpt lat="43.1794" lon="2.37248">
        <ele>151.1</ele>
        <time>2019-06-16T08:02:10.000Z</time>
      </trkpt>
      <trkpt lat="43.17941" lon="2.37249">
        <ele>151.1</ele>
        <time>2019-06-16T08:02:11.000Z</time>
      </trkpt>
      <trkpt lat="43.17942" lon="2.37249">
        <ele>151.1</ele>
        <time>2019-06-16T08:02:12.000Z</time>
      </trkpt>
      <trkpt lat="43.17944" lon="2.37248">
        <ele>151</ele>
        <time>2019-06-16T08:02:13.000Z</time>
      </trkpt>
      <trkpt lat="43.17945" lon="2.37248">
        <ele>151</ele>
        <time>2019-06-16T08:02:14.000Z</time>
      </trkpt>
      <trkpt lat="43.17946" lon="2.37247">
        <ele>151</ele>
        <time>2019-06-16T08:02:15.000Z</time>
      </trkpt>
      <trkpt lat="43.17947" lon="2.37245">
        <ele>150.9</ele>
        <time>2019-06-16T08:02:16.000Z</time>
      </trkpt>
      <trkpt lat="43.17948" lon="2.37244">
        <ele>150.9</ele>
        <time>2019-06-16T08:02:17.000Z</time>
      </trkpt>
      <trkpt lat="43.17947" lon="2.37242">
        <ele>150.9</ele>
        <time>2019-06-16T08:02:18.000Z</time>
      </trkpt>
      <trkpt lat="43.17945" lon="2.3724">
        <ele>151</ele>
        <time>2019-06-16T08:02:19.000Z</time>
      </trkpt>
      <trkpt lat="43.17943" lon="2.37239">
        <ele>151</ele>
        <time>2019-06-16T08:02:20.000Z</time>
      </trkpt>
      <trkpt lat="43.17943" lon="2.37238">
        <ele>151</ele>
        <time>2019-06-16T08:02:21.000Z</time>
      </trkpt>
      <trkpt lat="43.17944" lon="2.37236">
        <ele>151</ele>
        <time>2019-06-16T08:02:22.000Z</time>
      </trkpt>
      <trkpt lat="43.17944" lon="2.37235">
        <ele>151</ele>
        <time>2019-06-16T08:02:23.000Z</time>
      </trkpt>
      <trkpt lat="43.17945" lon="2.37234">
        <ele>151</ele>
        <time>2019-06-16T08:02:24.000Z</time>
      </trkpt>
      <trkpt lat="43.17946" lon="2.37234">
        <ele>151</ele>
        <time>2019-06-16T08:02:25.000Z</time>
      </trkpt>
      <trkpt lat="43.17946" lon="2.37233">
        <ele>151</ele>
        <time>2019-06-16T08:02:26.000Z</time>
      </trkpt>
      <trkpt lat="43.17947" lon="2.37233">
        <ele>150.9</ele>
        <time>2019-06-16T08:02:27.000Z</time>
      </trkpt>
      <trkpt lat="43.17948" lon="2.37233">
        <ele>150.9</ele>
        <time>2019-06-16T08:02:28.000Z</time>
      </trkpt>
      <trkpt lat="43.17949" lon="2.37232">
        <ele>150.9</ele>
        <time>2019-06-16T08:02:29.000Z</time>
      </trkpt>
      <trkpt lat="43.1795" lon="2.37232">
        <ele>150.9</ele>
        <time>2019-06-16T08:02:30.000Z</time>
      </trkpt>
      <trkpt lat="43.17951" lon="2.37231">
        <ele>150.9</ele>
        <time>2019-06-16T08:02:31.000Z</time>
      </trkpt>
      <trkpt lat="43.17951" lon="2.37229">
        <ele>150.9</ele>
        <time>2019-06-16T08:02:32.000Z</time>
      </trkpt>
      <trkpt lat="43.17952" lon="2.37228">
        <ele>150.9</ele>
        <time>2019-06-16T08:02:33.000Z</time>
      </trkpt>
      <trkpt lat="43.17953" lon="2.37227">
        <ele>150.9</ele>
        <time>2019-06-16T08:02:34.000Z</time>
      </trkpt>
      <trkpt lat="43.17953" lon="2.37225">
        <ele>150.9</ele>
        <time>2019-06-16T08:02:35.000Z</time>
      </trkpt>
      <trkpt lat="43.17954" lon="2.37224">
        <ele>150.9</ele>
        <time>2019-06-16T08:02:36.000Z</time>
      </trkpt>
      <trkpt lat="43.17955" lon="2.37223">
        <ele>150.9</ele>
        <time>2019-06-16T08:02:37.000Z</time>
      </trkpt>
      <trkpt lat="43.17956" lon="2.37222">
        <ele>150.9</ele>
        <time>2019-06-16T08:02:38.000Z</time>
      </trkpt>
      <trkpt lat="43.17956" lon="2.37221">
        <ele>150.9</ele>
        <time>2019-06-16T08:02:39.000Z</time>
      </trkpt>
      <trkpt lat="43.17957" lon="2.3722">
        <ele>150.9</ele>
        <time>2019-06-16T08:02:40.000Z</time>
      </trkpt>
      <trkpt lat="43.17957" lon="2.3722">
        <ele>150.9</ele>
        <time>2019-06-16T08:02:41.000Z</time>
      </trkpt>
      <trkpt lat="43.17958" lon="2.3722">
        <ele>150.9</ele>
        <time>2019-06-16T08:02:42.000Z</time>
      </trkpt>
      <trkpt lat="43.17958" lon="2.37219">
        <ele>150.9</ele>
        <time>2019-06-16T08:02:43.000Z</time>
      </trkpt>
      <trkpt lat="43.17958" lon="2.37219">
        <ele>150.9</ele>
        <time>2019-06-16T08:02:44.000Z</time>
      </trkpt>
      <trkpt lat="43.17958" lon="2.37219">
        <ele>150.9</ele>
        <time>2019-06-16T08:02:45.000Z</time>
      </trkpt>
      <trkpt lat="43.17958" lon="2.37219">
        <ele>150.9</ele>
        <time>2019-06-16T08:02:46.000Z</time>
      </trkpt>
      <trkpt lat="43.17958" lon="2.37219">
        <ele>150.9</ele>
        <time>2019-06-16T08:02:47.000Z</time>
      </trkpt>
      <trkpt lat="43.17958" lon="2.37219">
        <ele>150.9</ele>
        <time>2019-06-16T08:02:48.000Z</time>
      </trkpt>
      <trkpt lat="43.17958" lon="2.37219">
        <ele>150.9</ele>
        <time>2019-06-16T08:02:49.000Z</time>
      </trkpt>
      <trkpt lat="43.17958" lon="2.37218">
        <ele>150.9</ele>
        <time>2019-06-16T08:02:50.000Z</time>
      </trkpt>
      <trkpt lat="43.17958" lon="2.37218">
        <ele>150.9</ele>
        <time>2019-06-16T08:02:51.000Z</time>
      </trkpt>
      <trkpt lat="43.17958" lon="2.37218">
        <ele>150.9</ele>
        <time>2019-06-16T08:02:52.000Z</time>
      </trkpt>
      <trkpt lat="43.17958" lon="2.37218">
        <ele>150.9</ele>
        <time>2019-06-16T08:02:53.000Z</time>
      </trkpt>
      <trkpt lat="43.17958" lon="2.37218">
        <ele>150.9</ele>
        <time>2019-06-16T08:02:54.000Z</time>
      </trkpt>
      <trkpt lat="43.17958" lon="2.37218">
        <ele>150.9</ele>
        <time>2019-06-16T08:02:55.000Z</time>
      </trkpt>
      <trkpt lat="43.17958" lon="2.37218">
        <ele>150.9</ele>
        <time>2019-06-16T08:02:56.000Z</time>
      </trkpt>
      <trkpt lat="43.17958" lon="2.37218">
        <ele>150.9</ele>
        <time>2019-06-16T08:02:57.000Z</time>
      </trkpt>
      <trkpt lat="43.17958" lon="2.37218">
        <ele>150.9</ele>
        <time>2019-06-16T08:02:58.000Z</time>
      </trkpt>
      <trkpt lat="43.17958" lon="2.37218">
        <ele>150.9</ele>
        <time>2019-06-16T08:02:59.000Z</time>
      </trkpt>
      <trkpt lat="43.17958" lon="2.37218">
        <ele>150.9</ele>
        <time>2019-06-16T08:03:00.000Z</time>
      </trkpt>
      <trkpt lat="43.17958" lon="2.37218">
        <ele>150.9</ele>
        <time>2019-06-16T08:03:01.000Z</time>
      </trkpt>
      <trkpt lat="43.17958" lon="2.37218">
        <ele>150.9</ele>
        <time>2019-06-16T08:03:02.000Z</time>
      </trkpt>
      <trkpt lat="43.17958" lon="2.37219">
        <ele>150.9</ele>
        <time>2019-06-16T08:03:03.000Z</time>
      </trkpt>
      <trkpt lat="43.17958" lon="2.37219">
        <ele>150.9</ele>
        <time>2019-06-16T08:03:04.000Z</time>
      </trkpt>
      <trkpt lat="43.17958" lon="2.37219">
        <ele>150.9</ele>
        <time>2019-06-16T08:03:05.000Z</time>
      </trkpt>
      <trkpt lat="43.17958" lon="2.37219">
        <ele>150.9</ele>
        <time>2019-06-16T08:03:06.000Z</time>
      </trkpt>
      <trkpt lat="43.17958" lon="2.3722">
        <ele>150.9</ele>
        <time>2019-06-16T08:03:07.000Z</time>
      </trkpt>
      <trkpt lat="43.17958" lon="2.3722">
        <ele>150.9</ele>
        <time>2019-06-16T08:03:08.000Z</time>
      </trkpt>
      <trkpt lat="43.17958" lon="2.3722">
        <ele>150.9</ele>
        <time>2019-06-16T08:03:09.000Z</time>
      </trkpt>
      <trkpt lat="43.17958" lon="2.37219">
        <ele>150.9</ele>
        <time>2019-06-16T08:03:10.000Z</time>
      </trkpt>
      <trkpt lat="43.17958" lon="2.37219">
        <ele>150.9</ele>
        <time>2019-06-16T08:03:11.000Z</time>
      </trkpt>
      <trkpt lat="43.17958" lon="2.37219">
        <ele>150.9</ele>
        <time>2019-06-16T08:03:12.000Z</time>
      </trkpt>
      <trkpt lat="43.17958" lon="2.37219">
        <ele>150.9</ele>
        <time>2019-06-16T08:03:13.000Z</time>
      </trkpt>
      <trkpt lat="43.17958" lon="2.37218">
        <ele>150.9</ele>
        <time>2019-06-16T08:03:14.000Z</time>
      </trkpt>
      <trkpt lat="43.17958" lon="2.37218">
        <ele>150.9</ele>
        <time>2019-06-16T08:03:15.000Z</time>
      </trkpt>
      <trkpt lat="43.17958" lon="2.37218">
        <ele>150.9</ele>
        <time>2019-06-16T08:03:16.000Z</time>
      </trkpt>
      <trkpt lat="43.17958" lon="2.37217">
        <ele>150.9</ele>
        <time>2019-06-16T08:03:17.000Z</time>
      </trkpt>
      <trkpt lat="43.17958" lon="2.37217">
        <ele>150.9</ele>
        <time>2019-06-16T08:03:18.000Z</time>
      </trkpt>
      <trkpt lat="43.17958" lon="2.37217">
        <ele>150.9</ele>
        <time>2019-06-16T08:03:19.000Z</time>
      </trkpt>
      <trkpt lat="43.17958" lon="2.37217">
        <ele>150.9</ele>
        <time>2019-06-16T08:03:20.000Z</time>
      </trkpt>
      <trkpt lat="43.17958" lon="2.37217">
        <ele>150.9</ele>
        <time>2019-06-16T08:03:21.000Z</time>
      </trkpt>
      <trkpt lat="43.17958" lon="2.37217">
        <ele>150.9</ele>
        <time>2019-06-16T08:03:22.000Z</time>
      </trkpt>
      <trkpt lat="43.17958" lon="2.37217">
        <ele>150.9</ele>
        <time>2019-06-16T08:03:23.000Z</time>
      </trkpt>
      <trkpt lat="43.17958" lon="2.37217">
        <ele>150.9</ele>
        <time>2019-06-16T08:03:24.000Z</time>
      </trkpt>
      <trkpt lat="43.17958" lon="2.37217">
        <ele>150.9</ele>
        <time>2019-06-16T08:03:25.000Z</time>
      </trkpt>
      <trkpt lat="43.17958" lon="2.37217">
        <ele>150.9</ele>
        <time>2019-06-16T08:03:26.000Z</time>
      </trkpt>
      <trkpt lat="43.17958" lon="2.37217">
        <ele>150.9</ele>
        <time>2019-06-16T08:03:27.000Z</time>
      </trkpt>
      <trkpt lat="43.17958" lon="2.37217">
        <ele>150.9</ele>
        <time>2019-06-16T08:03:28.000Z</time>
      </trkpt>
      <trkpt lat="43.17958" lon="2.37217">
        <ele>150.9</ele>
        <time>2019-06-16T08:03:29.000Z</time>
      </trkpt>
      <trkpt lat="43.17958" lon="2.37218">
        <ele>150.9</ele>
        <time>2019-06-16T08:03:30.000Z</time>
      </trkpt>
      <trkpt lat="43.17958" lon="2.37218">
        <ele>150.9</ele>
        <time>2019-06-16T08:03:31.000Z</time>
      </trkpt>
      <trkpt lat="43.17958" lon="2.37217">
        <ele>150.9</ele>
        <time>2019-06-16T08:03:32.000Z</time>
      </trkpt>
      <trkpt lat="43.17958" lon="2.37217">
        <ele>150.9</ele>
        <time>2019-06-16T08:03:33.000Z</time>
      </trkpt>
      <trkpt lat="43.17958" lon="2.37216">
        <ele>150.9</ele>
        <time>2019-06-16T08:03:34.000Z</time>
      </trkpt>
      <trkpt lat="43.17958" lon="2.37215">
        <ele>150.9</ele>
        <time>2019-06-16T08:03:35.000Z</time>
      </trkpt>
      <trkpt lat="43.17958" lon="2.37214">
        <ele>150.9</ele>
        <time>2019-06-16T08:03:36.000Z</time>
      </trkpt>
      <trkpt lat="43.17959" lon="2.37212">
        <ele>151</ele>
        <time>2019-06-16T08:03:37.000Z</time>
      </trkpt>
      <trkpt lat="43.1796" lon="2.3721">
        <ele>151</ele>
        <time>2019-06-16T08:03:38.000Z</time>
      </trkpt>
      <trkpt lat="43.17961" lon="2.37207">
        <ele>151</ele>
        <time>2019-06-16T08:03:39.000Z</time>
      </trkpt>
      <trkpt lat="43.17962" lon="2.37205">
        <ele>151.1</ele>
        <time>2019-06-16T08:03:40.000Z</time>
      </trkpt>
      <trkpt lat="43.17962" lon="2.37203">
        <ele>151.1</ele>
        <time>2019-06-16T08:03:41.000Z</time>
      </trkpt>
      <trkpt lat="43.17963" lon="2.37201">
        <ele>151.1</ele>
        <time>2019-06-16T08:03:42.000Z</time>
      </trkpt>
      <trkpt lat="43.17963" lon="2.372">
        <ele>151.1</ele>
        <time>2019-06-16T08:03:43.000Z</time>
      </trkpt>
      <trkpt lat="43.17963" lon="2.37199">
        <ele>151.2</ele>
        <time>2019-06-16T08:03:44.000Z</time>
      </trkpt>
      <trkpt lat="43.17964" lon="2.37198">
        <ele>151.2</ele>
        <time>2019-06-16T08:03:45.000Z</time>
      </trkpt>
      <trkpt lat="43.17964" lon="2.37198">
        <ele>151.2</ele>
        <time>2019-06-16T08:03:46.000Z</time>
      </trkpt>
      <trkpt lat="43.17964" lon="2.37197">
        <ele>151.2</ele>
        <time>2019-06-16T08:03:47.000Z</time>
      </trkpt>
      <trkpt lat="43.17964" lon="2.37196">
        <ele>151.2</ele>
        <time>2019-06-16T08:03:48.000Z</time>
      </trkpt>
      <trkpt lat="43.17964" lon="2.37195">
        <ele>151.2</ele>
        <time>2019-06-16T08:03:49.000Z</time>
      </trkpt>
      <trkpt lat="43.17964" lon="2.37193">
        <ele>151.3</ele>
        <time>2019-06-16T08:03:50.000Z</time>
      </trkpt>
      <trkpt lat="43.17964" lon="2.37191">
        <ele>151.3</ele>
        <time>2019-06-16T08:03:51.000Z</time>
      </trkpt>
      <trkpt lat="43.17964" lon="2.37189">
        <ele>151.3</ele>
        <time>2019-06-16T08:03:52.000Z</time>
      </trkpt>
      <trkpt lat="43.17964" lon="2.37187">
        <ele>151.4</ele>
        <time>2019-06-16T08:03:53.000Z</time>
      </trkpt>
      <trkpt lat="43.17964" lon="2.37186">
        <ele>151.4</ele>
        <time>2019-06-16T08:03:54.000Z</time>
      </trkpt>
      <trkpt lat="43.17964" lon="2.37184">
        <ele>151.4</ele>
        <time>2019-06-16T08:03:55.000Z</time>
      </trkpt>
      <trkpt lat="43.17964" lon="2.37183">
        <ele>151.4</ele>
        <time>2019-06-16T08:03:56.000Z</time>
      </trkpt>
      <trkpt lat="43.17963" lon="2.37181">
        <ele>151.4</ele>
        <time>2019-06-16T08:03:57.000Z</time>
      </trkpt>
      <trkpt lat="43.17963" lon="2.37179">
        <ele>151.5</ele>
        <time>2019-06-16T08:03:58.000Z</time>
      </trkpt>
      <trkpt lat="43.17963" lon="2.37177">
        <ele>151.5</ele>
        <time>2019-06-16T08:03:59.000Z</time>
      </trkpt>
      <trkpt lat="43.17962" lon="2.37175">
        <ele>151.5</ele>
        <time>2019-06-16T08:04:00.000Z</time>
      </trkpt>
      <trkpt lat="43.17962" lon="2.37173">
        <ele>151.5</ele>
        <time>2019-06-16T08:04:01.000Z</time>
      </trkpt>
      <trkpt lat="43.17962" lon="2.37171">
        <ele>151.6</ele>
        <time>2019-06-16T08:04:02.000Z</time>
      </trkpt>
      <trkpt lat="43.17961" lon="2.37168">
        <ele>151.6</ele>
        <time>2019-06-16T08:04:03.000Z</time>
      </trkpt>
      <trkpt lat="43.17961" lon="2.37165">
        <ele>151.6</ele>
        <time>2019-06-16T08:04:04.000Z</time>
      </trkpt>
      <trkpt lat="43.1796" lon="2.37163">
        <ele>151.5</ele>
        <time>2019-06-16T08:04:05.000Z</time>
      </trkpt>
      <trkpt lat="43.17959" lon="2.3716">
        <ele>151.5</ele>
        <time>2019-06-16T08:04:06.000Z</time>
      </trkpt>
      <trkpt lat="43.17959" lon="2.37157">
        <ele>151.4</ele>
        <time>2019-06-16T08:04:07.000Z</time>
      </trkpt>
      <trkpt lat="43.17958" lon="2.37154">
        <ele>151.3</ele>
        <time>2019-06-16T08:04:08.000Z</time>
      </trkpt>
      <trkpt lat="43.17958" lon="2.37151">
        <ele>151.3</ele>
        <time>2019-06-16T08:04:09.000Z</time>
      </trkpt>
      <trkpt lat="43.17957" lon="2.37148">
        <ele>151.2</ele>
        <time>2019-06-16T08:04:10.000Z</time>
      </trkpt>
      <trkpt lat="43.17956" lon="2.37145">
        <ele>151.2</ele>
        <time>2019-06-16T08:04:11.000Z</time>
      </trkpt>
      <trkpt lat="43.17955" lon="2.37142">
        <ele>151.1</ele>
        <time>2019-06-16T08:04:12.000Z</time>
      </trkpt>
      <trkpt lat="43.17955" lon="2.37139">
        <ele>151</ele>
        <time>2019-06-16T08:04:13.000Z</time>
      </trkpt>
      <trkpt lat="43.17954" lon="2.37136">
        <ele>151</ele>
        <time>2019-06-16T08:04:14.000Z</time>
      </trkpt>
      <trkpt lat="43.17953" lon="2.37133">
        <ele>150.9</ele>
        <time>2019-06-16T08:04:15.000Z</time>
      </trkpt>
      <trkpt lat="43.17952" lon="2.37129">
        <ele>150.8</ele>
        <time>2019-06-16T08:04:16.000Z</time>
      </trkpt>
      <trkpt lat="43.17951" lon="2.37126">
        <ele>150.7</ele>
        <time>2019-06-16T08:04:17.000Z</time>
      </trkpt>
      <trkpt lat="43.1795" lon="2.37123">
        <ele>150.7</ele>
        <time>2019-06-16T08:04:18.000Z</time>
      </trkpt>
      <trkpt lat="43.17949" lon="2.3712">
        <ele>150.6</ele>
        <time>2019-06-16T08:04:19.000Z</time>
      </trkpt>
      <trkpt lat="43.17948" lon="2.37117">
        <ele>150.5</ele>
        <time>2019-06-16T08:04:20.000Z</time>
      </trkpt>
      <trkpt lat="43.17947" lon="2.37114">
        <ele>150.4</ele>
        <time>2019-06-16T08:04:21.000Z</time>
      </trkpt>
      <trkpt lat="43.17946" lon="2.3711">
        <ele>150.4</ele>
        <time>2019-06-16T08:04:22.000Z</time>
      </trkpt>
      <trkpt lat="43.17944" lon="2.37107">
        <ele>150.3</ele>
        <time>2019-06-16T08:04:23.000Z</time>
      </trkpt>
      <trkpt lat="43.17943" lon="2.37104">
        <ele>150.2</ele>
        <time>2019-06-16T08:04:24.000Z</time>
      </trkpt>
      <trkpt lat="43.17942" lon="2.371">
        <ele>150.1</ele>
        <time>2019-06-16T08:04:25.000Z</time>
      </trkpt>
      <trkpt lat="43.17941" lon="2.37097">
        <ele>150</ele>
        <time>2019-06-16T08:04:26.000Z</time>
      </trkpt>
      <trkpt lat="43.17941" lon="2.37093">
        <ele>150</ele>
        <time>2019-06-16T08:04:27.000Z</time>
      </trkpt>
      <trkpt lat="43.1794" lon="2.37089">
        <ele>149.9</ele>
        <time>2019-06-16T08:04:28.000Z</time>
      </trkpt>
      <trkpt lat="43.17939" lon="2.37085">
        <ele>149.8</ele>
        <time>2019-06-16T08:04:29.000Z</time>
      </trkpt>
      <trkpt lat="43.17939" lon="2.37081">
        <ele>149.7</ele>
        <time>2019-06-16T08:04:30.000Z</time>
      </trkpt>
      <trkpt lat="43.17938" lon="2.37078">
        <ele>149.6</ele>
        <time>2019-06-16T08:04:31.000Z</time>
      </trkpt>
      <trkpt lat="43.17938" lon="2.37074">
        <ele>149.5</ele>
        <time>2019-06-16T08:04:32.000Z</time>
      </trkpt>
      <trkpt lat="43.17937" lon="2.37071">
        <ele>149.4</ele>
        <time>2019-06-16T08:04:33.000Z</time>
      </trkpt>
      <trkpt lat="43.17936" lon="2.37068">
        <ele>149.3</ele>
        <time>2019-06-16T08:04:34.000Z</time>
      </trkpt>
      <trkpt lat="43.17936" lon="2.37065">
        <ele>149.2</ele>
        <time>2019-06-16T08:04:35.000Z</time>
      </trkpt>
      <trkpt lat="43.17935" lon="2.37062">
        <ele>149.1</ele>
        <time>2019-06-16T08:04:36.000Z</time>
      </trkpt>
      <trkpt lat="43.17935" lon="2.37059">
        <ele>149.1</ele>
        <time>2019-06-16T08:04:37.000Z</time>
      </trkpt>
      <trkpt lat="43.17934" lon="2.37056">
        <ele>149</ele>
        <time>2019-06-16T08:04:38.000Z</time>
      </trkpt>
      <trkpt lat="43.17934" lon="2.37053">
        <ele>148.9</ele>
        <time>2019-06-16T08:04:39.000Z</time>
      </trkpt>
      <trkpt lat="43.17935" lon="2.37049">
        <ele>148.8</ele>
        <time>2019-06-16T08:04:40.000Z</time>
      </trkpt>
      <trkpt lat="43.17936" lon="2.37045">
        <ele>148.8</ele>
        <time>2019-06-16T08:04:41.000Z</time>
      </trkpt>
      <trkpt lat="43.17937" lon="2.37042">
        <ele>148.7</ele>
        <time>2019-06-16T08:04:42.000Z</time>
      </trkpt>
      <trkpt lat="43.17938" lon="2.37038">
        <ele>148.7</ele>
        <time>2019-06-16T08:04:43.000Z</time>
      </trkpt>
      <trkpt lat="43.17939" lon="2.37034">
        <ele>148.6</ele>
        <time>2019-06-16T08:04:44.000Z</time>
      </trkpt>
      <trkpt lat="43.17941" lon="2.3703">
        <ele>148.6</ele>
        <time>2019-06-16T08:04:45.000Z</time>
      </trkpt>
      <trkpt lat="43.17942" lon="2.37026">
        <ele>148.5</ele>
        <time>2019-06-16T08:04:46.000Z</time>
      </trkpt>
      <trkpt lat="43.17943" lon="2.37022">
        <ele>148.5</ele>
        <time>2019-06-16T08:04:47.000Z</time>
      </trkpt>
      <trkpt lat="43.17944" lon="2.37018">
        <ele>148.4</ele>
        <time>2019-06-16T08:04:48.000Z</time>
      </trkpt>
      <trkpt lat="43.17945" lon="2.37015">
        <ele>148.4</ele>
        <time>2019-06-16T08:04:49.000Z</time>
      </trkpt>
      <trkpt lat="43.17946" lon="2.37011">
        <ele>148.3</ele>
        <time>2019-06-16T08:04:50.000Z</time>
      </trkpt>
      <trkpt lat="43.17947" lon="2.37007">
        <ele>148.3</ele>
        <time>2019-06-16T08:04:51.000Z</time>
      </trkpt>
      <trkpt lat="43.17948" lon="2.37004">
        <ele>148.2</ele>
        <time>2019-06-16T08:04:52.000Z</time>
      </trkpt>
      <trkpt lat="43.17949" lon="2.37">
        <ele>148.2</ele>
        <time>2019-06-16T08:04:53.000Z</time>
      </trkpt>
      <trkpt lat="43.1795" lon="2.36997">
        <ele>148.1</ele>
        <time>2019-06-16T08:04:54.000Z</time>
      </trkpt>
      <trkpt lat="43.17951" lon="2.36993">
        <ele>148</ele>
        <time>2019-06-16T08:04:55.000Z</time>
      </trkpt>
      <trkpt lat="43.17952" lon="2.3699">
        <ele>147.9</ele>
        <time>2019-06-16T08:04:56.000Z</time>
      </trkpt>
      <trkpt lat="43.17953" lon="2.36986">
        <ele>147.8</ele>
        <time>2019-06-16T08:04:57.000Z</time>
      </trkpt>
      <trkpt lat="43.17954" lon="2.36983">
        <ele>147.7</ele>
        <time>2019-06-16T08:04:58.000Z</time>
      </trkpt>
      <trkpt lat="43.17955" lon="2.36979">
        <ele>147.6</ele>
        <time>2019-06-16T08:04:59.000Z</time>
      </trkpt>
      <trkpt lat="43.17956" lon="2.36975">
        <ele>147.5</ele>
        <time>2019-06-16T08:05:00.000Z</time>
      </trkpt>
      <trkpt lat="43.17957" lon="2.36972">
        <ele>147.4</ele>
        <time>2019-06-16T08:05:01.000Z</time>
      </trkpt>
      <trkpt lat="43.17958" lon="2.36968">
        <ele>147.4</ele>
        <time>2019-06-16T08:05:02.000Z</time>
      </trkpt>
      <trkpt lat="43.1796" lon="2.36964">
        <ele>147.3</ele>
        <time>2019-06-16T08:05:03.000Z</time>
      </trkpt>
      <trkpt lat="43.17961" lon="2.36961">
        <ele>147.2</ele>
        <time>2019-06-16T08:05:04.000Z</time>
      </trkpt>
      <trkpt lat="43.17962" lon="2.36957">
        <ele>147.1</ele>
        <time>2019-06-16T08:05:05.000Z</time>
      </trkpt>
      <trkpt lat="43.17963" lon="2.36953">
        <ele>147</ele>
        <time>2019-06-16T08:05:06.000Z</time>
      </trkpt>
      <trkpt lat="43.17965" lon="2.3695">
        <ele>146.9</ele>
        <time>2019-06-16T08:05:07.000Z</time>
      </trkpt>
      <trkpt lat="43.17966" lon="2.36946">
        <ele>146.8</ele>
        <time>2019-06-16T08:05:08.000Z</time>
      </trkpt>
      <trkpt lat="43.17967" lon="2.36942">
        <ele>146.7</ele>
        <time>2019-06-16T08:05:09.000Z</time>
      </trkpt>
      <trkpt lat="43.17969" lon="2.36939">
        <ele>146.7</ele>
        <time>2019-06-16T08:05:10.000Z</time>
      </trkpt>
      <trkpt lat="43.1797" lon="2.36935">
        <ele>146.6</ele>
        <time>2019-06-16T08:05:11.000Z</time>
      </trkpt>
      <trkpt lat="43.17971" lon="2.36932">
        <ele>146.5</ele>
        <time>2019-06-16T08:05:12.000Z</time>
      </trkpt>
      <trkpt lat="43.17973" lon="2.36928">
        <ele>146.4</ele>
        <time>2019-06-16T08:05:13.000Z</time>
      </trkpt>
      <trkpt lat="43.17974" lon="2.36925">
        <ele>146.4</ele>
        <time>2019-06-16T08:05:14.000Z</time>
      </trkpt>
      <trkpt lat="43.17976" lon="2.36921">
        <ele>146.3</ele>
        <time>2019-06-16T08:05:15.000Z</time>
      </trkpt>
      <trkpt lat="43.17977" lon="2.36918">
        <ele>146.2</ele>
        <time>2019-06-16T08:05:16.000Z</time>
      </trkpt>
      <trkpt lat="43.17979" lon="2.36915">
        <ele>146.2</ele>
        <time>2019-06-16T08:05:17.000Z</time>
      </trkpt>
      <trkpt lat="43.1798" lon="2.36912">
        <ele>146.2</ele>
        <time>2019-06-16T08:05:18.000Z</time>
      </trkpt>
      <trkpt lat="43.17982" lon="2.36909">
        <ele>146.1</ele>
        <time>2019-06-16T08:05:19.000Z</time>
      </trkpt>
      <trkpt lat="43.17983" lon="2.36906">
        <ele>146.1</ele>
        <time>2019-06-16T08:05:20.000Z</time>
      </trkpt>
      <trkpt lat="43.17985" lon="2.36903">
        <ele>146.1</ele>
        <time>2019-06-16T08:05:21.000Z</time>
      </trkpt>
      <trkpt lat="43.17987" lon="2.369">
        <ele>146</ele>
        <time>2019-06-16T08:05:22.000Z</time>
      </trkpt>
      <trkpt lat="43.17988" lon="2.36897">
        <ele>146</ele>
        <time>2019-06-16T08:05:23.000Z</time>
      </trkpt>
      <trkpt lat="43.1799" lon="2.36894">
        <ele>145.9</ele>
        <time>2019-06-16T08:05:24.000Z</time>
      </trkpt>
      <trkpt lat="43.17991" lon="2.36891">
        <ele>145.9</ele>
        <time>2019-06-16T08:05:25.000Z</time>
      </trkpt>
      <trkpt lat="43.17993" lon="2.36888">
        <ele>145.8</ele>
        <time>2019-06-16T08:05:26.000Z</time>
      </trkpt>
      <trkpt lat="43.17994" lon="2.36885">
        <ele>145.8</ele>
        <time>2019-06-16T08:05:27.000Z</time>
      </trkpt>
      <trkpt lat="43.17996" lon="2.36882">
        <ele>145.7</ele>
        <time>2019-06-16T08:05:28.000Z</time>
      </trkpt>
      <trkpt lat="43.17997" lon="2.36879">
        <ele>145.6</ele>
        <time>2019-06-16T08:05:29.000Z</time>
      </trkpt>
      <trkpt lat="43.17998" lon="2.36876">
        <ele>145.5</ele>
        <time>2019-06-16T08:05:30.000Z</time>
      </trkpt>
      <trkpt lat="43.18" lon="2.36873">
        <ele>145.4</ele>
        <time>2019-06-16T08:05:31.000Z</time>
      </trkpt>
      <trkpt lat="43.18001" lon="2.36869">
        <ele>145.3</ele>
        <time>2019-06-16T08:05:32.000Z</time>
      </trkpt>
      <trkpt lat="43.18003" lon="2.36866">
        <ele>145.1</ele>
        <time>2019-06-16T08:05:33.000Z</time>
      </trkpt>
      <trkpt lat="43.18004" lon="2.36863">
        <ele>145</ele>
        <time>2019-06-16T08:05:34.000Z</time>
      </trkpt>
      <trkpt lat="43.18006" lon="2.3686">
        <ele>144.9</ele>
        <time>2019-06-16T08:05:35.000Z</time>
      </trkpt>
      <trkpt lat="43.18007" lon="2.36857">
        <ele>144.7</ele>
        <time>2019-06-16T08:05:36.000Z</time>
      </trkpt>
      <trkpt lat="43.18009" lon="2.36854">
        <ele>144.6</ele>
        <time>2019-06-16T08:05:37.000Z</time>
      </trkpt>
      <trkpt lat="43.18011" lon="2.36851">
        <ele>144.5</ele>
        <time>2019-06-16T08:05:38.000Z</time>
      </trkpt>
      <trkpt lat="43.18012" lon="2.36848">
        <ele>144.4</ele>
        <time>2019-06-16T08:05:39.000Z</time>
      </trkpt>
      <trkpt lat="43.18014" lon="2.36845">
        <ele>144.2</ele>
        <time>2019-06-16T08:05:40.000Z</time>
      </trkpt>
      <trkpt lat="43.18016" lon="2.36842">
        <ele>144.1</ele>
        <time>2019-06-16T08:05:41.000Z</time>
      </trkpt>
      <trkpt lat="43.18018" lon="2.3684">
        <ele>144</ele>
        <time>2019-06-16T08:05:42.000Z</time>
      </trkpt>
      <trkpt lat="43.1802" lon="2.36837">
        <ele>143.9</ele>
        <time>2019-06-16T08:05:43.000Z</time>
      </trkpt>
      <trkpt lat="43.18022" lon="2.36834">
        <ele>143.8</ele>
        <time>2019-06-16T08:05:44.000Z</time>
      </trkpt>
      <trkpt lat="43.18024" lon="2.36831">
        <ele>143.6</ele>
        <time>2019-06-16T08:05:45.000Z</time>
      </trkpt>
      <trkpt lat="43.18025" lon="2.36828">
        <ele>143.5</ele>
        <time>2019-06-16T08:05:46.000Z</time>
      </trkpt>
      <trkpt lat="43.18027" lon="2.36825">
        <ele>143.4</ele>
        <time>2019-06-16T08:05:47.000Z</time>
      </trkpt>
      <trkpt lat="43.18028" lon="2.36822">
        <ele>143.2</ele>
        <time>2019-06-16T08:05:48.000Z</time>
      </trkpt>
      <trkpt lat="43.18029" lon="2.36819">
        <ele>143.1</ele>
        <time>2019-06-16T08:05:49.000Z</time>
      </trkpt>
      <trkpt lat="43.18031" lon="2.36815">
        <ele>143</ele>
        <time>2019-06-16T08:05:50.000Z</time>
      </trkpt>
      <trkpt lat="43.18032" lon="2.36812">
        <ele>142.9</ele>
        <time>2019-06-16T08:05:51.000Z</time>
      </trkpt>
      <trkpt lat="43.18033" lon="2.3681">
        <ele>142.8</ele>
        <time>2019-06-16T08:05:52.000Z</time>
      </trkpt>
      <trkpt lat="43.18034" lon="2.36807">
        <ele>142.7</ele>
        <time>2019-06-16T08:05:53.000Z</time>
      </trkpt>
      <trkpt lat="43.18036" lon="2.36804">
        <ele>142.6</ele>
        <time>2019-06-16T08:05:54.000Z</time>
      </trkpt>
      <trkpt lat="43.18037" lon="2.36802">
        <ele>142.6</ele>
        <time>2019-06-16T08:05:55.000Z</time>
      </trkpt>
      <trkpt lat="43.18039" lon="2.368">
        <ele>142.5</ele>
        <time>2019-06-16T08:05:56.000Z</time>
      </trkpt>
      <trkpt lat="43.18041" lon="2.36798">
        <ele>142.4</ele>
        <time>2019-06-16T08:05:57.000Z</time>
      </trkpt>
      <trkpt lat="43.18043" lon="2.36796">
        <ele>142.4</ele>
        <time>2019-06-16T08:05:58.000Z</time>
      </trkpt>
      <trkpt lat="43.18045" lon="2.36794">
        <ele>142.3</ele>
        <time>2019-06-16T08:05:59.000Z</time>
      </trkpt>
      <trkpt lat="43.18048" lon="2.36792">
        <ele>142.3</ele>
        <time>2019-06-16T08:06:00.000Z</time>
      </trkpt>
      <trkpt lat="43.1805" lon="2.3679">
        <ele>142.3</ele>
        <time>2019-06-16T08:06:01.000Z</time>
      </trkpt>
      <trkpt lat="43.18052" lon="2.36788">
        <ele>142.2</ele>
        <time>2019-06-16T08:06:02.000Z</time>
      </trkpt>
      <trkpt lat="43.18054" lon="2.36786">
        <ele>142.2</ele>
        <time>2019-06-16T08:06:03.000Z</time>
      </trkpt>
      <trkpt lat="43.18056" lon="2.36783">
        <ele>142.1</ele>
        <time>2019-06-16T08:06:04.000Z</time>
      </trkpt>
      <trkpt lat="43.18058" lon="2.36781">
        <ele>142.1</ele>
        <time>2019-06-16T08:06:05.000Z</time>
      </trkpt>
      <trkpt lat="43.18059" lon="2.36778">
        <ele>142</ele>
        <time>2019-06-16T08:06:06.000Z</time>
      </trkpt>
      <trkpt lat="43.18061" lon="2.36775">
        <ele>142</ele>
        <time>2019-06-16T08:06:07.000Z</time>
      </trkpt>
      <trkpt lat="43.18063" lon="2.36772">
        <ele>142</ele>
        <time>2019-06-16T08:06:08.000Z</time>
      </trkpt>
      <trkpt lat="43.18065" lon="2.3677">
        <ele>142</ele>
        <time>2019-06-16T08:06:09.000Z</time>
      </trkpt>
      <trkpt lat="43.18067" lon="2.36767">
        <ele>141.9</ele>
        <time>2019-06-16T08:06:10.000Z</time>
      </trkpt>
      <trkpt lat="43.18069" lon="2.36764">
        <ele>141.9</ele>
        <time>2019-06-16T08:06:11.000Z</time>
      </trkpt>
      <trkpt lat="43.18071" lon="2.36762">
        <ele>141.9</ele>
        <time>2019-06-16T08:06:12.000Z</time>
      </trkpt>
      <trkpt lat="43.18073" lon="2.36759">
        <ele>141.9</ele>
        <time>2019-06-16T08:06:13.000Z</time>
      </trkpt>
      <trkpt lat="43.18075" lon="2.36756">
        <ele>141.9</ele>
        <time>2019-06-16T08:06:14.000Z</time>
      </trkpt>
      <trkpt lat="43.18077" lon="2.36754">
        <ele>141.9</ele>
        <time>2019-06-16T08:06:15.000Z</time>
      </trkpt>
      <trkpt lat="43.18078" lon="2.36751">
        <ele>141.9</ele>
        <time>2019-06-16T08:06:16.000Z</time>
      </trkpt>
      <trkpt lat="43.1808" lon="2.36749">
        <ele>141.9</ele>
        <time>2019-06-16T08:06:17.000Z</time>
      </trkpt>
      <trkpt lat="43.18082" lon="2.36746">
        <ele>142</ele>
        <time>2019-06-16T08:06:18.000Z</time>
      </trkpt>
      <trkpt lat="43.18084" lon="2.36744">
        <ele>142</ele>
        <time>2019-06-16T08:06:19.000Z</time>
      </trkpt>
      <trkpt lat="43.18086" lon="2.36741">
        <ele>142</ele>
        <time>2019-06-16T08:06:20.000Z</time>
      </trkpt>
      <trkpt lat="43.18088" lon="2.36739">
        <ele>142</ele>
        <time>2019-06-16T08:06:21.000Z</time>
      </trkpt>
      <trkpt lat="43.1809" lon="2.36736">
        <ele>141.9</ele>
        <time>2019-06-16T08:06:22.000Z</time>
      </trkpt>
      <trkpt lat="43.18091" lon="2.36734">
        <ele>141.9</ele>
        <time>2019-06-16T08:06:23.000Z</time>
      </trkpt>
      <trkpt lat="43.18093" lon="2.36731">
        <ele>141.9</ele>
        <time>2019-06-16T08:06:24.000Z</time>
      </trkpt>
      <trkpt lat="43.18095" lon="2.36728">
        <ele>141.8</ele>
        <time>2019-06-16T08:06:25.000Z</time>
      </trkpt>
      <trkpt lat="43.18097" lon="2.36725">
        <ele>141.8</ele>
        <time>2019-06-16T08:06:26.000Z</time>
      </trkpt>
      <trkpt lat="43.18099" lon="2.36722">
        <ele>141.8</ele>
        <time>2019-06-16T08:06:27.000Z</time>
      </trkpt>
      <trkpt lat="43.18101" lon="2.3672">
        <ele>141.7</ele>
        <time>2019-06-16T08:06:28.000Z</time>
      </trkpt>
      <trkpt lat="43.18103" lon="2.36717">
        <ele>141.7</ele>
        <time>2019-06-16T08:06:29.000Z</time>
      </trkpt>
      <trkpt lat="43.18105" lon="2.36715">
        <ele>141.6</ele>
        <time>2019-06-16T08:06:30.000Z</time>
      </trkpt>
      <trkpt lat="43.18107" lon="2.36714">
        <ele>141.6</ele>
        <time>2019-06-16T08:06:31.000Z</time>
      </trkpt>
      <trkpt lat="43.18109" lon="2.36714">
        <ele>141.5</ele>
        <time>2019-06-16T08:06:32.000Z</time>
      </trkpt>
      <trkpt lat="43.18111" lon="2.36714">
        <ele>141.4</ele>
        <time>2019-06-16T08:06:33.000Z</time>
      </trkpt>
      <trkpt lat="43.18113" lon="2.36715">
        <ele>141.3</ele>
        <time>2019-06-16T08:06:34.000Z</time>
      </trkpt>
      <trkpt lat="43.18115" lon="2.36717">
        <ele>141.2</ele>
        <time>2019-06-16T08:06:35.000Z</time>
      </trkpt>
      <trkpt lat="43.18117" lon="2.36719">
        <ele>141.1</ele>
        <time>2019-06-16T08:06:36.000Z</time>
      </trkpt>
      <trkpt lat="43.1812" lon="2.36722">
        <ele>141</ele>
        <time>2019-06-16T08:06:37.000Z</time>
      </trkpt>
      <trkpt lat="43.18121" lon="2.36725">
        <ele>140.9</ele>
        <time>2019-06-16T08:06:38.000Z</time>
      </trkpt>
      <trkpt lat="43.18123" lon="2.36728">
        <ele>140.8</ele>
        <time>2019-06-16T08:06:39.000Z</time>
      </trkpt>
      <trkpt lat="43.18125" lon="2.36731">
        <ele>140.7</ele>
        <time>2019-06-16T08:06:40.000Z</time>
      </trkpt>
      <trkpt lat="43.18127" lon="2.36734">
        <ele>140.6</ele>
        <time>2019-06-16T08:06:41.000Z</time>
      </trkpt>
      <trkpt lat="43.18128" lon="2.36737">
        <ele>140.6</ele>
        <time>2019-06-16T08:06:42.000Z</time>
      </trkpt>
      <trkpt lat="43.18129" lon="2.36739">
        <ele>140.5</ele>
        <time>2019-06-16T08:06:43.000Z</time>
      </trkpt>
      <trkpt lat="43.18131" lon="2.36742">
        <ele>140.4</ele>
        <time>2019-06-16T08:06:44.000Z</time>
      </trkpt>
      <trkpt lat="43.18132" lon="2.36744">
        <ele>140.3</ele>
        <time>2019-06-16T08:06:45.000Z</time>
      </trkpt>
      <trkpt lat="43.18134" lon="2.36745">
        <ele>140.2</ele>
        <time>2019-06-16T08:06:46.000Z</time>
      </trkpt>
      <trkpt lat="43.18135" lon="2.36747">
        <ele>140.2</ele>
        <time>2019-06-16T08:06:47.000Z</time>
      </trkpt>
      <trkpt lat="43.18137" lon="2.36748">
        <ele>140.1</ele>
        <time>2019-06-16T08:06:48.000Z</time>
      </trkpt>
      <trkpt lat="43.1814" lon="2.3675">
        <ele>140</ele>
        <time>2019-06-16T08:06:49.000Z</time>
      </trkpt>
      <trkpt lat="43.18142" lon="2.3675">
        <ele>139.9</ele>
        <time>2019-06-16T08:06:50.000Z</time>
      </trkpt>
      <trkpt lat="43.18145" lon="2.36751">
        <ele>139.8</ele>
        <time>2019-06-16T08:06:51.000Z</time>
      </trkpt>
      <trkpt lat="43.18147" lon="2.36751">
        <ele>139.7</ele>
        <time>2019-06-16T08:06:52.000Z</time>
      </trkpt>
      <trkpt lat="43.1815" lon="2.36751">
        <ele>139.6</ele>
        <time>2019-06-16T08:06:53.000Z</time>
      </trkpt>
      <trkpt lat="43.18153" lon="2.3675">
        <ele>139.5</ele>
        <time>2019-06-16T08:06:54.000Z</time>
      </trkpt>
      <trkpt lat="43.18155" lon="2.36749">
        <ele>139.4</ele>
        <time>2019-06-16T08:06:55.000Z</time>
      </trkpt>
      <trkpt lat="43.18157" lon="2.36747">
        <ele>139.4</ele>
        <time>2019-06-16T08:06:56.000Z</time>
      </trkpt>
      <trkpt lat="43.18159" lon="2.36745">
        <ele>139.4</ele>
        <time>2019-06-16T08:06:57.000Z</time>
      </trkpt>
      <trkpt lat="43.1816" lon="2.36742">
        <ele>139.3</ele>
        <time>2019-06-16T08:06:58.000Z</time>
      </trkpt>
      <trkpt lat="43.18161" lon="2.36739">
        <ele>139.3</ele>
        <time>2019-06-16T08:06:59.000Z</time>
      </trkpt>
      <trkpt lat="43.18162" lon="2.36736">
        <ele>139.3</ele>
        <time>2019-06-16T08:07:00.000Z</time>
      </trkpt>
      <trkpt lat="43.18163" lon="2.36732">
        <ele>139.3</ele>
        <time>2019-06-16T08:07:01.000Z</time>
      </trkpt>
      <trkpt lat="43.18164" lon="2.36728">
        <ele>139.4</ele>
        <time>2019-06-16T08:07:02.000Z</time>
      </trkpt>
      <trkpt lat="43.18165" lon="2.36725">
        <ele>139.4</ele>
        <time>2019-06-16T08:07:03.000Z</time>
      </trkpt>
      <trkpt lat="43.18166" lon="2.36721">
        <ele>139.4</ele>
        <time>2019-06-16T08:07:04.000Z</time>
      </trkpt>
      <trkpt lat="43.18167" lon="2.36717">
        <ele>139.4</ele>
        <time>2019-06-16T08:07:05.000Z</time>
      </trkpt>
      <trkpt lat="43.18167" lon="2.36714">
        <ele>139.4</ele>
        <time>2019-06-16T08:07:06.000Z</time>
      </trkpt>
      <trkpt lat="43.18168" lon="2.36711">
        <ele>139.4</ele>
        <time>2019-06-16T08:07:07.000Z</time>
      </trkpt>
      <trkpt lat="43.18169" lon="2.36707">
        <ele>139.4</ele>
        <time>2019-06-16T08:07:08.000Z</time>
      </trkpt>
      <trkpt lat="43.1817" lon="2.36704">
        <ele>139.4</ele>
        <time>2019-06-16T08:07:09.000Z</time>
      </trkpt>
      <trkpt lat="43.1817" lon="2.36701">
        <ele>139.5</ele>
        <time>2019-06-16T08:07:10.000Z</time>
      </trkpt>
      <trkpt lat="43.18171" lon="2.36698">
        <ele>139.5</ele>
        <time>2019-06-16T08:07:11.000Z</time>
      </trkpt>
      <trkpt lat="43.18171" lon="2.36694">
        <ele>139.5</ele>
        <time>2019-06-16T08:07:12.000Z</time>
      </trkpt>
      <trkpt lat="43.18172" lon="2.36691">
        <ele>139.5</ele>
        <time>2019-06-16T08:07:13.000Z</time>
      </trkpt>
      <trkpt lat="43.18172" lon="2.36688">
        <ele>139.5</ele>
        <time>2019-06-16T08:07:14.000Z</time>
      </trkpt>
      <trkpt lat="43.18172" lon="2.36684">
        <ele>139.6</ele>
        <time>2019-06-16T08:07:15.000Z</time>
      </trkpt>
      <trkpt lat="43.18173" lon="2.36681">
        <ele>139.6</ele>
        <time>2019-06-16T08:07:16.000Z</time>
      </trkpt>
      <trkpt lat="43.18173" lon="2.36678">
        <ele>139.6</ele>
        <time>2019-06-16T08:07:17.000Z</time>
      </trkpt>
      <trkpt lat="43.18174" lon="2.36674">
        <ele>139.6</ele>
        <time>2019-06-16T08:07:18.000Z</time>
      </trkpt>
      <trkpt lat="43.18175" lon="2.36671">
        <ele>139.6</ele>
        <time>2019-06-16T08:07:19.000Z</time>
      </trkpt>
      <trkpt lat="43.18176" lon="2.36668">
        <ele>139.5</ele>
        <time>2019-06-16T08:07:20.000Z</time>
      </trkpt>
      <trkpt lat="43.18176" lon="2.36665">
        <ele>139.6</ele>
        <time>2019-06-16T08:07:21.000Z</time>
      </trkpt>
      <trkpt lat="43.18177" lon="2.36662">
        <ele>139.6</ele>
        <time>2019-06-16T08:07:22.000Z</time>
      </trkpt>
      <trkpt lat="43.18176" lon="2.3666">
        <ele>139.7</ele>
        <time>2019-06-16T08:07:23.000Z</time>
      </trkpt>
      <trkpt lat="43.18176" lon="2.36657">
        <ele>139.8</ele>
        <time>2019-06-16T08:07:24.000Z</time>
      </trkpt>
      <trkpt lat="43.18174" lon="2.36656">
        <ele>139.9</ele>
        <time>2019-06-16T08:07:25.000Z</time>
      </trkpt>
      <trkpt lat="43.18172" lon="2.36654">
        <ele>140</ele>
        <time>2019-06-16T08:07:26.000Z</time>
      </trkpt>
      <trkpt lat="43.1817" lon="2.36653">
        <ele>140.2</ele>
        <time>2019-06-16T08:07:27.000Z</time>
      </trkpt>
      <trkpt lat="43.18168" lon="2.36652">
        <ele>140.3</ele>
        <time>2019-06-16T08:07:28.000Z</time>
      </trkpt>
      <trkpt lat="43.18165" lon="2.36651">
        <ele>140.4</ele>
        <time>2019-06-16T08:07:29.000Z</time>
      </trkpt>
      <trkpt lat="43.18163" lon="2.3665">
        <ele>140.5</ele>
        <time>2019-06-16T08:07:30.000Z</time>
      </trkpt>
      <trkpt lat="43.1816" lon="2.36648">
        <ele>140.6</ele>
        <time>2019-06-16T08:07:31.000Z</time>
      </trkpt>
      <trkpt lat="43.18158" lon="2.36646">
        <ele>140.7</ele>
        <time>2019-06-16T08:07:32.000Z</time>
      </trkpt>
      <trkpt lat="43.18156" lon="2.36645">
        <ele>140.8</ele>
        <time>2019-06-16T08:07:33.000Z</time>
      </trkpt>
      <trkpt lat="43.18154" lon="2.36643">
        <ele>140.9</ele>
        <time>2019-06-16T08:07:34.000Z</time>
      </trkpt>
      <trkpt lat="43.18152" lon="2.36642">
        <ele>141</ele>
        <time>2019-06-16T08:07:35.000Z</time>
      </trkpt>
      <trkpt lat="43.18151" lon="2.36641">
        <ele>141</ele>
        <time>2019-06-16T08:07:36.000Z</time>
      </trkpt>
      <trkpt lat="43.18149" lon="2.3664">
        <ele>141.1</ele>
        <time>2019-06-16T08:07:37.000Z</time>
      </trkpt>
      <trkpt lat="43.18148" lon="2.36639">
        <ele>141.1</ele>
        <time>2019-06-16T08:07:38.000Z</time>
      </trkpt>
      <trkpt lat="43.18147" lon="2.36638">
        <ele>141.2</ele>
        <time>2019-06-16T08:07:39.000Z</time>
      </trkpt>
      <trkpt lat="43.18146" lon="2.36637">
        <ele>141.2</ele>
        <time>2019-06-16T08:07:40.000Z</time>
      </trkpt>
      <trkpt lat="43.18145" lon="2.36636">
        <ele>141.2</ele>
        <time>2019-06-16T08:07:41.000Z</time>
      </trkpt>
      <trkpt lat="43.18143" lon="2.36635">
        <ele>141.3</ele>
        <time>2019-06-16T08:07:42.000Z</time>
      </trkpt>
      <trkpt lat="43.18142" lon="2.36634">
        <ele>141.3</ele>
        <time>2019-06-16T08:07:43.000Z</time>
      </trkpt>
      <trkpt lat="43.1814" lon="2.36633">
        <ele>141.4</ele>
        <time>2019-06-16T08:07:44.000Z</time>
      </trkpt>
      <trkpt lat="43.18138" lon="2.36632">
        <ele>141.4</ele>
        <time>2019-06-16T08:07:45.000Z</time>
      </trkpt>
      <trkpt lat="43.18135" lon="2.3663">
        <ele>141.5</ele>
        <time>2019-06-16T08:07:46.000Z</time>
      </trkpt>
      <trkpt lat="43.18133" lon="2.36629">
        <ele>141.6</ele>
        <time>2019-06-16T08:07:47.000Z</time>
      </trkpt>
      <trkpt lat="43.18131" lon="2.36627">
        <ele>141.6</ele>
        <time>2019-06-16T08:07:48.000Z</time>
      </trkpt>
      <trkpt lat="43.18129" lon="2.36626">
        <ele>141.7</ele>
        <time>2019-06-16T08:07:49.000Z</time>
      </trkpt>
      <trkpt lat="43.18127" lon="2.36625">
        <ele>141.7</ele>
        <time>2019-06-16T08:07:50.000Z</time>
      </trkpt>
      <trkpt lat="43.18126" lon="2.36624">
        <ele>141.7</ele>
        <time>2019-06-16T08:07:51.000Z</time>
      </trkpt>
      <trkpt lat="43.18125" lon="2.36623">
        <ele>141.8</ele>
        <time>2019-06-16T08:07:52.000Z</time>
      </trkpt>
      <trkpt lat="43.18125" lon="2.36622">
        <ele>141.8</ele>
        <time>2019-06-16T08:07:53.000Z</time>
      </trkpt>
      <trkpt lat="43.18125" lon="2.36622">
        <ele>141.8</ele>
        <time>2019-06-16T08:07:54.000Z</time>
      </trkpt>
      <trkpt lat="43.18124" lon="2.36621">
        <ele>141.8</ele>
        <time>2019-06-16T08:07:55.000Z</time>
      </trkpt>
      <trkpt lat="43.18124" lon="2.36621">
        <ele>141.8</ele>
        <time>2019-06-16T08:07:56.000Z</time>
      </trkpt>
      <trkpt lat="43.18124" lon="2.36621">
        <ele>141.8</ele>
        <time>2019-06-16T08:07:57.000Z</time>
      </trkpt>
      <trkpt lat="43.18124" lon="2.3662">
        <ele>141.8</ele>
        <time>2019-06-16T08:07:58.000Z</time>
      </trkpt>
      <trkpt lat="43.18124" lon="2.36619">
        <ele>141.8</ele>
        <time>2019-06-16T08:07:59.000Z</time>
      </trkpt>
      <trkpt lat="43.18124" lon="2.36617">
        <ele>141.8</ele>
        <time>2019-06-16T08:08:00.000Z</time>
      </trkpt>
      <trkpt lat="43.18124" lon="2.36615">
        <ele>141.8</ele>
        <time>2019-06-16T08:08:01.000Z</time>
      </trkpt>
      <trkpt lat="43.18124" lon="2.36612">
        <ele>141.8</ele>
        <time>2019-06-16T08:08:02.000Z</time>
      </trkpt>
      <trkpt lat="43.18124" lon="2.36609">
        <ele>141.9</ele>
        <time>2019-06-16T08:08:03.000Z</time>
      </trkpt>
      <trkpt lat="43.18125" lon="2.36605">
        <ele>141.9</ele>
        <time>2019-06-16T08:08:04.000Z</time>
      </trkpt>
      <trkpt lat="43.18126" lon="2.36602">
        <ele>141.9</ele>
        <time>2019-06-16T08:08:05.000Z</time>
      </trkpt>
      <trkpt lat="43.18127" lon="2.36599">
        <ele>141.9</ele>
        <time>2019-06-16T08:08:06.000Z</time>
      </trkpt>
      <trkpt lat="43.18127" lon="2.36596">
        <ele>141.9</ele>
        <time>2019-06-16T08:08:07.000Z</time>
      </trkpt>
      <trkpt lat="43.18128" lon="2.36593">
        <ele>141.9</ele>
        <time>2019-06-16T08:08:08.000Z</time>
      </trkpt>
      <trkpt lat="43.18129" lon="2.3659">
        <ele>141.9</ele>
        <time>2019-06-16T08:08:09.000Z</time>
      </trkpt>
      <trkpt lat="43.1813" lon="2.36587">
        <ele>142</ele>
        <time>2019-06-16T08:08:10.000Z</time>
      </trkpt>
      <trkpt lat="43.18131" lon="2.36584">
        <ele>142</ele>
        <time>2019-06-16T08:08:11.000Z</time>
      </trkpt>
      <trkpt lat="43.18132" lon="2.36581">
        <ele>142</ele>
        <time>2019-06-16T08:08:12.000Z</time>
      </trkpt>
      <trkpt lat="43.18132" lon="2.36577">
        <ele>142</ele>
        <time>2019-06-16T08:08:13.000Z</time>
      </trkpt>
      <trkpt lat="43.18133" lon="2.36574">
        <ele>142</ele>
        <time>2019-06-16T08:08:14.000Z</time>
      </trkpt>
      <trkpt lat="43.18134" lon="2.36571">
        <ele>142.1</ele>
        <time>2019-06-16T08:08:15.000Z</time>
      </trkpt>
      <trkpt lat="43.18135" lon="2.36568">
        <ele>142.1</ele>
        <time>2019-06-16T08:08:16.000Z</time>
      </trkpt>
      <trkpt lat="43.18135" lon="2.36564">
        <ele>142.1</ele>
        <time>2019-06-16T08:08:17.000Z</time>
      </trkpt>
      <trkpt lat="43.18136" lon="2.36561">
        <ele>142.1</ele>
        <time>2019-06-16T08:08:18.000Z</time>
      </trkpt>
      <trkpt lat="43.18137" lon="2.36558">
        <ele>142.2</ele>
        <time>2019-06-16T08:08:19.000Z</time>
      </trkpt>
      <trkpt lat="43.18138" lon="2.36554">
        <ele>142.2</ele>
        <time>2019-06-16T08:08:20.000Z</time>
      </trkpt>
      <trkpt lat="43.18138" lon="2.36551">
        <ele>142.2</ele>
        <time>2019-06-16T08:08:21.000Z</time>
      </trkpt>
      <trkpt lat="43.18139" lon="2.36548">
        <ele>142.3</ele>
        <time>2019-06-16T08:08:22.000Z</time>
      </trkpt>
      <trkpt lat="43.1814" lon="2.36544">
        <ele>142.3</ele>
        <time>2019-06-16T08:08:23.000Z</time>
      </trkpt>
      <trkpt lat="43.18141" lon="2.36541">
        <ele>142.4</ele>
        <time>2019-06-16T08:08:24.000Z</time>
      </trkpt>
      <trkpt lat="43.18141" lon="2.36537">
        <ele>142.4</ele>
        <time>2019-06-16T08:08:25.000Z</time>
      </trkpt>
      <trkpt lat="43.18142" lon="2.36534">
        <ele>142.5</ele>
        <time>2019-06-16T08:08:26.000Z</time>
      </trkpt>
      <trkpt lat="43.18143" lon="2.3653">
        <ele>142.5</ele>
        <time>2019-06-16T08:08:27.000Z</time>
      </trkpt>
      <trkpt lat="43.18143" lon="2.36527">
        <ele>142.6</ele>
        <time>2019-06-16T08:08:28.000Z</time>
      </trkpt>
      <trkpt lat="43.18144" lon="2.36523">
        <ele>142.7</ele>
        <time>2019-06-16T08:08:29.000Z</time>
      </trkpt>
      <trkpt lat="43.18145" lon="2.36519">
        <ele>142.7</ele>
        <time>2019-06-16T08:08:30.000Z</time>
      </trkpt>
      <trkpt lat="43.18145" lon="2.36516">
        <ele>142.8</ele>
        <time>2019-06-16T08:08:31.000Z</time>
      </trkpt>
      <trkpt lat="43.18146" lon="2.36512">
        <ele>142.9</ele>
        <time>2019-06-16T08:08:32.000Z</time>
      </trkpt>
      <trkpt lat="43.18147" lon="2.36509">
        <ele>142.9</ele>
        <time>2019-06-16T08:08:33.000Z</time>
      </trkpt>
      <trkpt lat="43.18147" lon="2.36505">
        <ele>143</ele>
        <time>2019-06-16T08:08:34.000Z</time>
      </trkpt>
      <trkpt lat="43.18148" lon="2.36502">
        <ele>143.1</ele>
        <time>2019-06-16T08:08:35.000Z</time>
      </trkpt>
      <trkpt lat="43.18149" lon="2.36498">
        <ele>143.1</ele>
        <time>2019-06-16T08:08:36.000Z</time>
      </trkpt>
      <trkpt lat="43.1815" lon="2.36494">
        <ele>143.2</ele>
        <time>2019-06-16T08:08:37.000Z</time>
      </trkpt>
      <trkpt lat="43.1815" lon="2.36491">
        <ele>143.2</ele>
        <time>2019-06-16T08:08:38.000Z</time>
      </trkpt>
      <trkpt lat="43.18151" lon="2.36487">
        <ele>143.2</ele>
        <time>2019-06-16T08:08:39.000Z</time>
      </trkpt>
      <trkpt lat="43.18152" lon="2.36484">
        <ele>143.2</ele>
        <time>2019-06-16T08:08:40.000Z</time>
      </trkpt>
      <trkpt lat="43.18153" lon="2.3648">
        <ele>143.2</ele>
        <time>2019-06-16T08:08:41.000Z</time>
      </trkpt>
      <trkpt lat="43.18153" lon="2.36477">
        <ele>143.3</ele>
        <time>2019-06-16T08:08:42.000Z</time>
      </trkpt>
      <trkpt lat="43.18154" lon="2.36473">
        <ele>143.3</ele>
        <time>2019-06-16T08:08:43.000Z</time>
      </trkpt>
      <trkpt lat="43.18155" lon="2.3647">
        <ele>143.3</ele>
        <time>2019-06-16T08:08:44.000Z</time>
      </trkpt>
      <trkpt lat="43.18156" lon="2.36466">
        <ele>143.4</ele>
        <time>2019-06-16T08:08:45.000Z</time>
      </trkpt>
      <trkpt lat="43.18157" lon="2.36463">
        <ele>143.4</ele>
        <time>2019-06-16T08:08:46.000Z</time>
      </trkpt>
      <trkpt lat="43.18157" lon="2.36459">
        <ele>143.4</ele>
        <time>2019-06-16T08:08:47.000Z</time>
      </trkpt>
      <trkpt lat="43.18158" lon="2.36456">
        <ele>143.5</ele>
        <time>2019-06-16T08:08:48.000Z</time>
      </trkpt>
      <trkpt lat="43.18159" lon="2.36453">
        <ele>143.5</ele>
        <time>2019-06-16T08:08:49.000Z</time>
      </trkpt>
      <trkpt lat="43.1816" lon="2.36449">
        <ele>143.6</ele>
        <time>2019-06-16T08:08:50.000Z</time>
      </trkpt>
      <trkpt lat="43.18161" lon="2.36446">
        <ele>143.6</ele>
        <time>2019-06-16T08:08:51.000Z</time>
      </trkpt>
      <trkpt lat="43.18162" lon="2.36442">
        <ele>143.7</ele>
        <time>2019-06-16T08:08:52.000Z</time>
      </trkpt>
      <trkpt lat="43.18162" lon="2.36439">
        <ele>143.7</ele>
        <time>2019-06-16T08:08:53.000Z</time>
      </trkpt>
      <trkpt lat="43.18163" lon="2.36436">
        <ele>143.8</ele>
        <time>2019-06-16T08:08:54.000Z</time>
      </trkpt>
      <trkpt lat="43.18164" lon="2.36432">
        <ele>143.8</ele>
        <time>2019-06-16T08:08:55.000Z</time>
      </trkpt>
      <trkpt lat="43.18165" lon="2.36429">
        <ele>143.9</ele>
        <time>2019-06-16T08:08:56.000Z</time>
      </trkpt>
      <trkpt lat="43.18166" lon="2.36425">
        <ele>143.9</ele>
        <time>2019-06-16T08:08:57.000Z</time>
      </trkpt>
      <trkpt lat="43.18166" lon="2.36422">
        <ele>144</ele>
        <time>2019-06-16T08:08:58.000Z</time>
      </trkpt>
      <trkpt lat="43.18167" lon="2.36419">
        <ele>144</ele>
        <time>2019-06-16T08:08:59.000Z</time>
      </trkpt>
      <trkpt lat="43.18168" lon="2.36415">
        <ele>143.9</ele>
        <time>2019-06-16T08:09:00.000Z</time>
      </trkpt>
      <trkpt lat="43.18169" lon="2.36412">
        <ele>143.7</ele>
        <time>2019-06-16T08:09:01.000Z</time>
      </trkpt>
      <trkpt lat="43.18169" lon="2.36408">
        <ele>143.6</ele>
        <time>2019-06-16T08:09:02.000Z</time>
      </trkpt>
      <trkpt lat="43.1817" lon="2.36405">
        <ele>143.5</ele>
        <time>2019-06-16T08:09:03.000Z</time>
      </trkpt>
      <trkpt lat="43.18171" lon="2.36402">
        <ele>143.3</ele>
        <time>2019-06-16T08:09:04.000Z</time>
      </trkpt>
      <trkpt lat="43.18172" lon="2.36398">
        <ele>143.2</ele>
        <time>2019-06-16T08:09:05.000Z</time>
      </trkpt>
      <trkpt lat="43.18172" lon="2.36395">
        <ele>143.1</ele>
        <time>2019-06-16T08:09:06.000Z</time>
      </trkpt>
      <trkpt lat="43.18173" lon="2.36391">
        <ele>143</ele>
        <time>2019-06-16T08:09:07.000Z</time>
      </trkpt>
      <trkpt lat="43.18174" lon="2.36388">
        <ele>142.8</ele>
        <time>2019-06-16T08:09:08.000Z</time>
      </trkpt>
      <trkpt lat="43.18174" lon="2.36385">
        <ele>142.7</ele>
        <time>2019-06-16T08:09:09.000Z</time>
      </trkpt>
      <trkpt lat="43.18175" lon="2.36381">
        <ele>142.6</ele>
        <time>2019-06-16T08:09:10.000Z</time>
      </trkpt>
      <trkpt lat="43.18176" lon="2.36378">
        <ele>142.5</ele>
        <time>2019-06-16T08:09:11.000Z</time>
      </trkpt>
      <trkpt lat="43.18176" lon="2.36374">
        <ele>142.4</ele>
        <time>2019-06-16T08:09:12.000Z</time>
      </trkpt>
      <trkpt lat="43.18177" lon="2.36371">
        <ele>142.3</ele>
        <time>2019-06-16T08:09:13.000Z</time>
      </trkpt>
      <trkpt lat="43.18177" lon="2.36367">
        <ele>142.2</ele>
        <time>2019-06-16T08:09:14.000Z</time>
      </trkpt>
      <trkpt lat="43.18178" lon="2.36363">
        <ele>142.1</ele>
        <time>2019-06-16T08:09:15.000Z</time>
      </trkpt>
      <trkpt lat="43.18179" lon="2.3636">
        <ele>142</ele>
        <time>2019-06-16T08:09:16.000Z</time>
      </trkpt>
      <trkpt lat="43.18179" lon="2.36356">
        <ele>141.9</ele>
        <time>2019-06-16T08:09:17.000Z</time>
      </trkpt>
      <trkpt lat="43.1818" lon="2.36353">
        <ele>141.9</ele>
        <time>2019-06-16T08:09:18.000Z</time>
      </trkpt>
      <trkpt lat="43.1818" lon="2.36349">
        <ele>141.8</ele>
        <time>2019-06-16T08:09:19.000Z</time>
      </trkpt>
      <trkpt lat="43.18181" lon="2.36346">
        <ele>141.7</ele>
        <time>2019-06-16T08:09:20.000Z</time>
      </trkpt>
      <trkpt lat="43.18182" lon="2.36342">
        <ele>141.6</ele>
        <time>2019-06-16T08:09:21.000Z</time>
      </trkpt>
      <trkpt lat="43.18182" lon="2.36339">
        <ele>141.5</ele>
        <time>2019-06-16T08:09:22.000Z</time>
      </trkpt>
      <trkpt lat="43.18183" lon="2.36335">
        <ele>141.4</ele>
        <time>2019-06-16T08:09:23.000Z</time>
      </trkpt>
      <trkpt lat="43.18184" lon="2.36332">
        <ele>141.4</ele>
        <time>2019-06-16T08:09:24.000Z</time>
      </trkpt>
      <trkpt lat="43.18185" lon="2.36328">
        <ele>141.3</ele>
        <time>2019-06-16T08:09:25.000Z</time>
      </trkpt>
      <trkpt lat="43.18186" lon="2.36325">
        <ele>141.3</ele>
        <time>2019-06-16T08:09:26.000Z</time>
      </trkpt>
      <trkpt lat="43.18186" lon="2.36321">
        <ele>141.2</ele>
        <time>2019-06-16T08:09:27.000Z</time>
      </trkpt>
      <trkpt lat="43.18187" lon="2.36318">
        <ele>141.2</ele>
        <time>2019-06-16T08:09:28.000Z</time>
      </trkpt>
      <trkpt lat="43.18189" lon="2.36315">
        <ele>141.1</ele>
        <time>2019-06-16T08:09:29.000Z</time>
      </trkpt>
      <trkpt lat="43.1819" lon="2.36312">
        <ele>141.1</ele>
        <time>2019-06-16T08:09:30.000Z</time>
      </trkpt>
      <trkpt lat="43.18191" lon="2.3631">
        <ele>141</ele>
        <time>2019-06-16T08:09:31.000Z</time>
      </trkpt>
      <trkpt lat="43.18193" lon="2.36308">
        <ele>140.9</ele>
        <time>2019-06-16T08:09:32.000Z</time>
      </trkpt>
      <trkpt lat="43.18195" lon="2.36307">
        <ele>140.9</ele>
        <time>2019-06-16T08:09:33.000Z</time>
      </trkpt>
      <trkpt lat="43.18197" lon="2.36305">
        <ele>140.8</ele>
        <time>2019-06-16T08:09:34.000Z</time>
      </trkpt>
      <trkpt lat="43.182" lon="2.36303">
        <ele>140.7</ele>
        <time>2019-06-16T08:09:35.000Z</time>
      </trkpt>
      <trkpt lat="43.18202" lon="2.36302">
        <ele>140.7</ele>
        <time>2019-06-16T08:09:36.000Z</time>
      </trkpt>
      <trkpt lat="43.18204" lon="2.363">
        <ele>140.6</ele>
        <time>2019-06-16T08:09:37.000Z</time>
      </trkpt>
      <trkpt lat="43.18207" lon="2.36298">
        <ele>140.5</ele>
        <time>2019-06-16T08:09:38.000Z</time>
      </trkpt>
      <trkpt lat="43.1821" lon="2.36296">
        <ele>140.5</ele>
        <time>2019-06-16T08:09:39.000Z</time>
      </trkpt>
      <trkpt lat="43.18212" lon="2.36294">
        <ele>140.4</ele>
        <time>2019-06-16T08:09:40.000Z</time>
      </trkpt>
      <trkpt lat="43.18215" lon="2.36292">
        <ele>140.4</ele>
        <time>2019-06-16T08:09:41.000Z</time>
      </trkpt>
      <trkpt lat="43.18217" lon="2.36289">
        <ele>140.3</ele>
        <time>2019-06-16T08:09:42.000Z</time>
      </trkpt>
      <trkpt lat="43.18219" lon="2.36287">
        <ele>140.3</ele>
        <time>2019-06-16T08:09:43.000Z</time>
      </trkpt>
      <trkpt lat="43.18221" lon="2.36284">
        <ele>140.2</ele>
        <time>2019-06-16T08:09:44.000Z</time>
      </trkpt>
      <trkpt lat="43.18224" lon="2.36282">
        <ele>140.2</ele>
        <time>2019-06-16T08:09:45.000Z</time>
      </trkpt>
      <trkpt lat="43.18226" lon="2.36279">
        <ele>140.1</ele>
        <time>2019-06-16T08:09:46.000Z</time>
      </trkpt>
      <trkpt lat="43.18228" lon="2.36277">
        <ele>140.1</ele>
        <time>2019-06-16T08:09:47.000Z</time>
      </trkpt>
      <trkpt lat="43.1823" lon="2.36274">
        <ele>140.1</ele>
        <time>2019-06-16T08:09:48.000Z</time>
      </trkpt>
      <trkpt lat="43.18231" lon="2.36271">
        <ele>140.1</ele>
        <time>2019-06-16T08:09:49.000Z</time>
      </trkpt>
      <trkpt lat="43.18233" lon="2.36268">
        <ele>140.1</ele>
        <time>2019-06-16T08:09:50.000Z</time>
      </trkpt>
      <trkpt lat="43.18235" lon="2.36265">
        <ele>140.1</ele>
        <time>2019-06-16T08:09:51.000Z</time>
      </trkpt>
      <trkpt lat="43.18237" lon="2.36263">
        <ele>140.1</ele>
        <time>2019-06-16T08:09:52.000Z</time>
      </trkpt>
      <trkpt lat="43.18239" lon="2.3626">
        <ele>140.1</ele>
        <time>2019-06-16T08:09:53.000Z</time>
      </trkpt>
      <trkpt lat="43.18241" lon="2.36257">
        <ele>140.1</ele>
        <time>2019-06-16T08:09:54.000Z</time>
      </trkpt>
      <trkpt lat="43.18242" lon="2.36254">
        <ele>140.1</ele>
        <time>2019-06-16T08:09:55.000Z</time>
      </trkpt>
      <trkpt lat="43.18244" lon="2.36251">
        <ele>140.1</ele>
        <time>2019-06-16T08:09:56.000Z</time>
      </trkpt>
      <trkpt lat="43.18246" lon="2.36248">
        <ele>140.1</ele>
        <time>2019-06-16T08:09:57.000Z</time>
      </trkpt>
      <trkpt lat="43.18248" lon="2.36245">
        <ele>140.1</ele>
        <time>2019-06-16T08:09:58.000Z</time>
      </trkpt>
      <trkpt lat="43.1825" lon="2.36242">
        <ele>140.2</ele>
        <time>2019-06-16T08:09:59.000Z</time>
      </trkpt>
      <trkpt lat="43.18252" lon="2.36239">
        <ele>140.2</ele>
        <time>2019-06-16T08:10:00.000Z</time>
      </trkpt>
      <trkpt lat="43.18254" lon="2.36236">
        <ele>140.1</ele>
        <time>2019-06-16T08:10:01.000Z</time>
      </trkpt>
      <trkpt lat="43.18255" lon="2.36233">
        <ele>140</ele>
        <time>2019-06-16T08:10:02.000Z</time>
      </trkpt>
      <trkpt lat="43.18257" lon="2.3623">
        <ele>140</ele>
        <time>2019-06-16T08:10:03.000Z</time>
      </trkpt>
      <trkpt lat="43.18259" lon="2.36227">
        <ele>139.9</ele>
        <time>2019-06-16T08:10:04.000Z</time>
      </trkpt>
      <trkpt lat="43.18261" lon="2.36224">
        <ele>139.9</ele>
        <time>2019-06-16T08:10:05.000Z</time>
      </trkpt>
      <trkpt lat="43.18263" lon="2.36221">
        <ele>139.8</ele>
        <time>2019-06-16T08:10:06.000Z</time>
      </trkpt>
      <trkpt lat="43.18265" lon="2.36218">
        <ele>139.8</ele>
        <time>2019-06-16T08:10:07.000Z</time>
      </trkpt>
      <trkpt lat="43.18267" lon="2.36215">
        <ele>139.7</ele>
        <time>2019-06-16T08:10:08.000Z</time>
      </trkpt>
      <trkpt lat="43.18269" lon="2.36212">
        <ele>139.7</ele>
        <time>2019-06-16T08:10:09.000Z</time>
      </trkpt>
      <trkpt lat="43.18271" lon="2.36209">
        <ele>139.6</ele>
        <time>2019-06-16T08:10:10.000Z</time>
      </trkpt>
      <trkpt lat="43.18273" lon="2.36206">
        <ele>139.6</ele>
        <time>2019-06-16T08:10:11.000Z</time>
      </trkpt>
      <trkpt lat="43.18274" lon="2.36203">
        <ele>139.5</ele>
        <time>2019-06-16T08:10:12.000Z</time>
      </trkpt>
      <trkpt lat="43.18276" lon="2.362">
        <ele>139.5</ele>
        <time>2019-06-16T08:10:13.000Z</time>
      </trkpt>
      <trkpt lat="43.18278" lon="2.36197">
        <ele>139.5</ele>
        <time>2019-06-16T08:10:14.000Z</time>
      </trkpt>
      <trkpt lat="43.1828" lon="2.36194">
        <ele>139.5</ele>
        <time>2019-06-16T08:10:15.000Z</time>
      </trkpt>
      <trkpt lat="43.18282" lon="2.36191">
        <ele>139.4</ele>
        <time>2019-06-16T08:10:16.000Z</time>
      </trkpt>
      <trkpt lat="43.18283" lon="2.36188">
        <ele>139.4</ele>
        <time>2019-06-16T08:10:17.000Z</time>
      </trkpt>
      <trkpt lat="43.18285" lon="2.36185">
        <ele>139.4</ele>
        <time>2019-06-16T08:10:18.000Z</time>
      </trkpt>
      <trkpt lat="43.18287" lon="2.36182">
        <ele>139.4</ele>
        <time>2019-06-16T08:10:19.000Z</time>
      </trkpt>
      <trkpt lat="43.18289" lon="2.36179">
        <ele>139.3</ele>
        <time>2019-06-16T08:10:20.000Z</time>
      </trkpt>
      <trkpt lat="43.1829" lon="2.36176">
        <ele>139.3</ele>
        <time>2019-06-16T08:10:21.000Z</time>
      </trkpt>
      <trkpt lat="43.18292" lon="2.36174">
        <ele>139.3</ele>
        <time>2019-06-16T08:10:22.000Z</time>
      </trkpt>
      <trkpt lat="43.18294" lon="2.36171">
        <ele>139.2</ele>
        <time>2019-06-16T08:10:23.000Z</time>
      </trkpt>
      <trkpt lat="43.18296" lon="2.36169">
        <ele>139.2</ele>
        <time>2019-06-16T08:10:24.000Z</time>
      </trkpt>
      <trkpt lat="43.18298" lon="2.36166">
        <ele>139.1</ele>
        <time>2019-06-16T08:10:25.000Z</time>
      </trkpt>
      <trkpt lat="43.183" lon="2.36164">
        <ele>139</ele>
        <time>2019-06-16T08:10:26.000Z</time>
      </trkpt>
      <trkpt lat="43.18301" lon="2.36162">
        <ele>138.9</ele>
        <time>2019-06-16T08:10:27.000Z</time>
      </trkpt>
      <trkpt lat="43.18303" lon="2.3616">
        <ele>138.8</ele>
        <time>2019-06-16T08:10:28.000Z</time>
      </trkpt>
      <trkpt lat="43.18306" lon="2.36159">
        <ele>138.6</ele>
        <time>2019-06-16T08:10:29.000Z</time>
      </trkpt>
      <trkpt lat="43.18308" lon="2.36157">
        <ele>138.5</ele>
        <time>2019-06-16T08:10:30.000Z</time>
      </trkpt>
      <trkpt lat="43.1831" lon="2.36156">
        <ele>138.3</ele>
        <time>2019-06-16T08:10:31.000Z</time>
      </trkpt>
      <trkpt lat="43.18312" lon="2.36155">
        <ele>138.2</ele>
        <time>2019-06-16T08:10:32.000Z</time>
      </trkpt>
      <trkpt lat="43.18314" lon="2.36154">
        <ele>138</ele>
        <time>2019-06-16T08:10:33.000Z</time>
      </trkpt>
      <trkpt lat="43.18316" lon="2.36153">
        <ele>137.8</ele>
        <time>2019-06-16T08:10:34.000Z</time>
      </trkpt>
      <trkpt lat="43.18318" lon="2.36153">
        <ele>137.7</ele>
        <time>2019-06-16T08:10:35.000Z</time>
      </trkpt>
      <trkpt lat="43.1832" lon="2.36153">
        <ele>137.6</ele>
        <time>2019-06-16T08:10:36.000Z</time>
      </trkpt>
      <trkpt lat="43.18322" lon="2.36153">
        <ele>137.4</ele>
        <time>2019-06-16T08:10:37.000Z</time>
      </trkpt>
      <trkpt lat="43.18324" lon="2.36153">
        <ele>137.3</ele>
        <time>2019-06-16T08:10:38.000Z</time>
      </trkpt>
      <trkpt lat="43.18326" lon="2.36154">
        <ele>137.2</ele>
        <time>2019-06-16T08:10:39.000Z</time>
      </trkpt>
      <trkpt lat="43.18328" lon="2.36155">
        <ele>137.1</ele>
        <time>2019-06-16T08:10:40.000Z</time>
      </trkpt>
      <trkpt lat="43.1833" lon="2.36156">
        <ele>137</ele>
        <time>2019-06-16T08:10:41.000Z</time>
      </trkpt>
      <trkpt lat="43.18331" lon="2.36158">
        <ele>136.9</ele>
        <time>2019-06-16T08:10:42.000Z</time>
      </trkpt>
      <trkpt lat="43.18333" lon="2.3616">
        <ele>136.9</ele>
        <time>2019-06-16T08:10:43.000Z</time>
      </trkpt>
    </trkseg>
  </trk>
</gpx>